<?xml version="1.0" encoding="UTF-8" standalone="no" ?>
<gpx xmlns="http://www.topografix.com/GPX/1/1" xmlns:xsi="http://www.w3.org/2001/XMLSchema-instance" xsi:schemaLocation="http://www.topografix.com/GPX/1/1 http://www.topografix.com/GPX/1/1/gpx.xsd" version="1.1" creator="VisuGPX - https://www.visugpx.com">
  <metadata>
    <name>Dimanche 16 Septembre 2018 - Ile d'Yeu - St Sauveur </name>
  </metadata>
  <trk>
    <name><![CDATA[Freestyle]]></name>
    <trkseg>
      <trkpt lat="46.72599" lon="-2.35554">
        <ele>5.9</ele>
        <time>2018-09-16T09:03:00.000Z</time>
      </trkpt>
      <trkpt lat="46.72598" lon="-2.35553">
        <ele>5.9</ele>
        <time>2018-09-16T09:03:01.000Z</time>
      </trkpt>
      <trkpt lat="46.72598" lon="-2.35552">
        <ele>5.9</ele>
        <time>2018-09-16T09:03:02.000Z</time>
      </trkpt>
      <trkpt lat="46.72597" lon="-2.35551">
        <ele>5.9</ele>
        <time>2018-09-16T09:03:03.000Z</time>
      </trkpt>
      <trkpt lat="46.72597" lon="-2.35549">
        <ele>5.9</ele>
        <time>2018-09-16T09:03:04.000Z</time>
      </trkpt>
      <trkpt lat="46.72597" lon="-2.35548">
        <ele>5.9</ele>
        <time>2018-09-16T09:03:05.000Z</time>
      </trkpt>
      <trkpt lat="46.72597" lon="-2.35547">
        <ele>5.9</ele>
        <time>2018-09-16T09:03:06.000Z</time>
      </trkpt>
      <trkpt lat="46.72598" lon="-2.35545">
        <ele>5.9</ele>
        <time>2018-09-16T09:03:07.000Z</time>
      </trkpt>
      <trkpt lat="46.72598" lon="-2.35544">
        <ele>5.9</ele>
        <time>2018-09-16T09:03:08.000Z</time>
      </trkpt>
      <trkpt lat="46.72598" lon="-2.35542">
        <ele>5.9</ele>
        <time>2018-09-16T09:03:09.000Z</time>
      </trkpt>
      <trkpt lat="46.72599" lon="-2.35541">
        <ele>5.9</ele>
        <time>2018-09-16T09:03:10.000Z</time>
      </trkpt>
      <trkpt lat="46.72599" lon="-2.35539">
        <ele>5.9</ele>
        <time>2018-09-16T09:03:11.000Z</time>
      </trkpt>
      <trkpt lat="46.726" lon="-2.35537">
        <ele>5.9</ele>
        <time>2018-09-16T09:03:12.000Z</time>
      </trkpt>
      <trkpt lat="46.726" lon="-2.35536">
        <ele>5.9</ele>
        <time>2018-09-16T09:03:13.000Z</time>
      </trkpt>
      <trkpt lat="46.72601" lon="-2.35534">
        <ele>5.9</ele>
        <time>2018-09-16T09:03:14.000Z</time>
      </trkpt>
      <trkpt lat="46.72601" lon="-2.35533">
        <ele>5.9</ele>
        <time>2018-09-16T09:03:15.000Z</time>
      </trkpt>
      <trkpt lat="46.72602" lon="-2.35531">
        <ele>5.9</ele>
        <time>2018-09-16T09:03:16.000Z</time>
      </trkpt>
      <trkpt lat="46.72602" lon="-2.35529">
        <ele>5.9</ele>
        <time>2018-09-16T09:03:17.000Z</time>
      </trkpt>
      <trkpt lat="46.72603" lon="-2.35528">
        <ele>5.8</ele>
        <time>2018-09-16T09:03:18.000Z</time>
      </trkpt>
      <trkpt lat="46.72603" lon="-2.35527">
        <ele>5.8</ele>
        <time>2018-09-16T09:03:19.000Z</time>
      </trkpt>
      <trkpt lat="46.72603" lon="-2.35525">
        <ele>5.8</ele>
        <time>2018-09-16T09:03:20.000Z</time>
      </trkpt>
      <trkpt lat="46.72603" lon="-2.35524">
        <ele>5.8</ele>
        <time>2018-09-16T09:03:21.000Z</time>
      </trkpt>
      <trkpt lat="46.72604" lon="-2.35523">
        <ele>5.8</ele>
        <time>2018-09-16T09:03:22.000Z</time>
      </trkpt>
      <trkpt lat="46.72604" lon="-2.35522">
        <ele>5.8</ele>
        <time>2018-09-16T09:03:23.000Z</time>
      </trkpt>
      <trkpt lat="46.72604" lon="-2.35521">
        <ele>5.8</ele>
        <time>2018-09-16T09:03:24.000Z</time>
      </trkpt>
      <trkpt lat="46.72604" lon="-2.35521">
        <ele>5.8</ele>
        <time>2018-09-16T09:03:25.000Z</time>
      </trkpt>
      <trkpt lat="46.72604" lon="-2.3552">
        <ele>5.8</ele>
        <time>2018-09-16T09:03:26.000Z</time>
      </trkpt>
      <trkpt lat="46.72604" lon="-2.3552">
        <ele>5.8</ele>
        <time>2018-09-16T09:03:27.000Z</time>
      </trkpt>
      <trkpt lat="46.72604" lon="-2.3552">
        <ele>5.8</ele>
        <time>2018-09-16T09:03:28.000Z</time>
      </trkpt>
      <trkpt lat="46.72604" lon="-2.35519">
        <ele>5.8</ele>
        <time>2018-09-16T09:03:29.000Z</time>
      </trkpt>
      <trkpt lat="46.72604" lon="-2.35519">
        <ele>5.8</ele>
        <time>2018-09-16T09:03:30.000Z</time>
      </trkpt>
      <trkpt lat="46.72604" lon="-2.35519">
        <ele>5.8</ele>
        <time>2018-09-16T09:03:31.000Z</time>
      </trkpt>
      <trkpt lat="46.72604" lon="-2.3552">
        <ele>5.8</ele>
        <time>2018-09-16T09:03:32.000Z</time>
      </trkpt>
      <trkpt lat="46.72604" lon="-2.3552">
        <ele>5.8</ele>
        <time>2018-09-16T09:03:33.000Z</time>
      </trkpt>
      <trkpt lat="46.72604" lon="-2.3552">
        <ele>5.8</ele>
        <time>2018-09-16T09:03:34.000Z</time>
      </trkpt>
      <trkpt lat="46.72604" lon="-2.3552">
        <ele>5.8</ele>
        <time>2018-09-16T09:03:35.000Z</time>
      </trkpt>
      <trkpt lat="46.72604" lon="-2.3552">
        <ele>5.8</ele>
        <time>2018-09-16T09:03:36.000Z</time>
      </trkpt>
      <trkpt lat="46.72604" lon="-2.35519">
        <ele>5.8</ele>
        <time>2018-09-16T09:03:37.000Z</time>
      </trkpt>
      <trkpt lat="46.72604" lon="-2.35519">
        <ele>5.8</ele>
        <time>2018-09-16T09:03:38.000Z</time>
      </trkpt>
      <trkpt lat="46.72605" lon="-2.35518">
        <ele>5.8</ele>
        <time>2018-09-16T09:03:39.000Z</time>
      </trkpt>
      <trkpt lat="46.72605" lon="-2.35517">
        <ele>5.8</ele>
        <time>2018-09-16T09:03:40.000Z</time>
      </trkpt>
      <trkpt lat="46.72605" lon="-2.35516">
        <ele>5.8</ele>
        <time>2018-09-16T09:03:41.000Z</time>
      </trkpt>
      <trkpt lat="46.72605" lon="-2.35515">
        <ele>5.8</ele>
        <time>2018-09-16T09:03:42.000Z</time>
      </trkpt>
      <trkpt lat="46.72606" lon="-2.35514">
        <ele>5.8</ele>
        <time>2018-09-16T09:03:43.000Z</time>
      </trkpt>
      <trkpt lat="46.72606" lon="-2.35512">
        <ele>5.8</ele>
        <time>2018-09-16T09:03:44.000Z</time>
      </trkpt>
      <trkpt lat="46.72606" lon="-2.35511">
        <ele>5.8</ele>
        <time>2018-09-16T09:03:45.000Z</time>
      </trkpt>
      <trkpt lat="46.72606" lon="-2.35509">
        <ele>5.8</ele>
        <time>2018-09-16T09:03:46.000Z</time>
      </trkpt>
      <trkpt lat="46.72606" lon="-2.35508">
        <ele>5.8</ele>
        <time>2018-09-16T09:03:47.000Z</time>
      </trkpt>
      <trkpt lat="46.72606" lon="-2.35507">
        <ele>5.7</ele>
        <time>2018-09-16T09:03:48.000Z</time>
      </trkpt>
      <trkpt lat="46.72606" lon="-2.35505">
        <ele>5.7</ele>
        <time>2018-09-16T09:03:49.000Z</time>
      </trkpt>
      <trkpt lat="46.72606" lon="-2.35504">
        <ele>5.7</ele>
        <time>2018-09-16T09:03:50.000Z</time>
      </trkpt>
      <trkpt lat="46.72606" lon="-2.35503">
        <ele>5.7</ele>
        <time>2018-09-16T09:03:51.000Z</time>
      </trkpt>
      <trkpt lat="46.72606" lon="-2.35502">
        <ele>5.7</ele>
        <time>2018-09-16T09:03:52.000Z</time>
      </trkpt>
      <trkpt lat="46.72606" lon="-2.355">
        <ele>5.7</ele>
        <time>2018-09-16T09:03:53.000Z</time>
      </trkpt>
      <trkpt lat="46.72606" lon="-2.35499">
        <ele>5.7</ele>
        <time>2018-09-16T09:03:54.000Z</time>
      </trkpt>
      <trkpt lat="46.72607" lon="-2.35498">
        <ele>5.7</ele>
        <time>2018-09-16T09:03:55.000Z</time>
      </trkpt>
      <trkpt lat="46.72607" lon="-2.35497">
        <ele>5.7</ele>
        <time>2018-09-16T09:03:56.000Z</time>
      </trkpt>
      <trkpt lat="46.72607" lon="-2.35496">
        <ele>5.8</ele>
        <time>2018-09-16T09:03:57.000Z</time>
      </trkpt>
      <trkpt lat="46.72608" lon="-2.35495">
        <ele>5.8</ele>
        <time>2018-09-16T09:03:58.000Z</time>
      </trkpt>
      <trkpt lat="46.72608" lon="-2.35495">
        <ele>5.8</ele>
        <time>2018-09-16T09:03:59.000Z</time>
      </trkpt>
      <trkpt lat="46.72608" lon="-2.35494">
        <ele>5.8</ele>
        <time>2018-09-16T09:04:00.000Z</time>
      </trkpt>
      <trkpt lat="46.72609" lon="-2.35492">
        <ele>5.8</ele>
        <time>2018-09-16T09:04:01.000Z</time>
      </trkpt>
      <trkpt lat="46.7261" lon="-2.35491">
        <ele>5.8</ele>
        <time>2018-09-16T09:04:02.000Z</time>
      </trkpt>
      <trkpt lat="46.7261" lon="-2.3549">
        <ele>5.8</ele>
        <time>2018-09-16T09:04:03.000Z</time>
      </trkpt>
      <trkpt lat="46.72611" lon="-2.35489">
        <ele>5.8</ele>
        <time>2018-09-16T09:04:04.000Z</time>
      </trkpt>
      <trkpt lat="46.72611" lon="-2.35488">
        <ele>5.8</ele>
        <time>2018-09-16T09:04:05.000Z</time>
      </trkpt>
      <trkpt lat="46.72612" lon="-2.35486">
        <ele>5.8</ele>
        <time>2018-09-16T09:04:06.000Z</time>
      </trkpt>
      <trkpt lat="46.72612" lon="-2.35485">
        <ele>5.8</ele>
        <time>2018-09-16T09:04:07.000Z</time>
      </trkpt>
      <trkpt lat="46.72613" lon="-2.35483">
        <ele>5.8</ele>
        <time>2018-09-16T09:04:08.000Z</time>
      </trkpt>
      <trkpt lat="46.72613" lon="-2.35482">
        <ele>5.9</ele>
        <time>2018-09-16T09:04:09.000Z</time>
      </trkpt>
      <trkpt lat="46.72613" lon="-2.3548">
        <ele>5.9</ele>
        <time>2018-09-16T09:04:10.000Z</time>
      </trkpt>
      <trkpt lat="46.72613" lon="-2.35479">
        <ele>5.9</ele>
        <time>2018-09-16T09:04:11.000Z</time>
      </trkpt>
      <trkpt lat="46.72614" lon="-2.35477">
        <ele>5.9</ele>
        <time>2018-09-16T09:04:12.000Z</time>
      </trkpt>
      <trkpt lat="46.72614" lon="-2.35476">
        <ele>5.9</ele>
        <time>2018-09-16T09:04:13.000Z</time>
      </trkpt>
      <trkpt lat="46.72614" lon="-2.35474">
        <ele>5.9</ele>
        <time>2018-09-16T09:04:14.000Z</time>
      </trkpt>
      <trkpt lat="46.72614" lon="-2.35472">
        <ele>6</ele>
        <time>2018-09-16T09:04:15.000Z</time>
      </trkpt>
      <trkpt lat="46.72614" lon="-2.35471">
        <ele>6</ele>
        <time>2018-09-16T09:04:16.000Z</time>
      </trkpt>
      <trkpt lat="46.72614" lon="-2.35469">
        <ele>6</ele>
        <time>2018-09-16T09:04:17.000Z</time>
      </trkpt>
      <trkpt lat="46.72614" lon="-2.35467">
        <ele>6</ele>
        <time>2018-09-16T09:04:18.000Z</time>
      </trkpt>
      <trkpt lat="46.72615" lon="-2.35466">
        <ele>6</ele>
        <time>2018-09-16T09:04:19.000Z</time>
      </trkpt>
      <trkpt lat="46.72615" lon="-2.35464">
        <ele>6.1</ele>
        <time>2018-09-16T09:04:20.000Z</time>
      </trkpt>
      <trkpt lat="46.72615" lon="-2.35463">
        <ele>6.1</ele>
        <time>2018-09-16T09:04:21.000Z</time>
      </trkpt>
      <trkpt lat="46.72616" lon="-2.35461">
        <ele>6.1</ele>
        <time>2018-09-16T09:04:22.000Z</time>
      </trkpt>
      <trkpt lat="46.72616" lon="-2.35459">
        <ele>6.1</ele>
        <time>2018-09-16T09:04:23.000Z</time>
      </trkpt>
      <trkpt lat="46.72616" lon="-2.35458">
        <ele>6.1</ele>
        <time>2018-09-16T09:04:24.000Z</time>
      </trkpt>
      <trkpt lat="46.72617" lon="-2.35456">
        <ele>6.1</ele>
        <time>2018-09-16T09:04:25.000Z</time>
      </trkpt>
      <trkpt lat="46.72617" lon="-2.35454">
        <ele>6.1</ele>
        <time>2018-09-16T09:04:26.000Z</time>
      </trkpt>
      <trkpt lat="46.72617" lon="-2.35453">
        <ele>6.2</ele>
        <time>2018-09-16T09:04:27.000Z</time>
      </trkpt>
      <trkpt lat="46.72618" lon="-2.35451">
        <ele>6.2</ele>
        <time>2018-09-16T09:04:28.000Z</time>
      </trkpt>
      <trkpt lat="46.72618" lon="-2.35449">
        <ele>6.2</ele>
        <time>2018-09-16T09:04:29.000Z</time>
      </trkpt>
      <trkpt lat="46.72618" lon="-2.35448">
        <ele>6.2</ele>
        <time>2018-09-16T09:04:30.000Z</time>
      </trkpt>
      <trkpt lat="46.72618" lon="-2.35446">
        <ele>6.2</ele>
        <time>2018-09-16T09:04:31.000Z</time>
      </trkpt>
      <trkpt lat="46.72619" lon="-2.35445">
        <ele>6.2</ele>
        <time>2018-09-16T09:04:32.000Z</time>
      </trkpt>
      <trkpt lat="46.72619" lon="-2.35443">
        <ele>6.3</ele>
        <time>2018-09-16T09:04:33.000Z</time>
      </trkpt>
      <trkpt lat="46.72619" lon="-2.35442">
        <ele>6.3</ele>
        <time>2018-09-16T09:04:34.000Z</time>
      </trkpt>
      <trkpt lat="46.72619" lon="-2.3544">
        <ele>6.3</ele>
        <time>2018-09-16T09:04:35.000Z</time>
      </trkpt>
      <trkpt lat="46.72619" lon="-2.35439">
        <ele>6.3</ele>
        <time>2018-09-16T09:04:36.000Z</time>
      </trkpt>
      <trkpt lat="46.72619" lon="-2.35437">
        <ele>6.3</ele>
        <time>2018-09-16T09:04:37.000Z</time>
      </trkpt>
      <trkpt lat="46.72619" lon="-2.35436">
        <ele>6.3</ele>
        <time>2018-09-16T09:04:38.000Z</time>
      </trkpt>
      <trkpt lat="46.72619" lon="-2.35434">
        <ele>6.4</ele>
        <time>2018-09-16T09:04:39.000Z</time>
      </trkpt>
      <trkpt lat="46.72619" lon="-2.35433">
        <ele>6.4</ele>
        <time>2018-09-16T09:04:40.000Z</time>
      </trkpt>
      <trkpt lat="46.72619" lon="-2.35431">
        <ele>6.4</ele>
        <time>2018-09-16T09:04:41.000Z</time>
      </trkpt>
      <trkpt lat="46.72619" lon="-2.3543">
        <ele>6.4</ele>
        <time>2018-09-16T09:04:42.000Z</time>
      </trkpt>
      <trkpt lat="46.72619" lon="-2.35428">
        <ele>6.4</ele>
        <time>2018-09-16T09:04:43.000Z</time>
      </trkpt>
      <trkpt lat="46.72619" lon="-2.35427">
        <ele>6.5</ele>
        <time>2018-09-16T09:04:44.000Z</time>
      </trkpt>
      <trkpt lat="46.72619" lon="-2.35425">
        <ele>6.5</ele>
        <time>2018-09-16T09:04:45.000Z</time>
      </trkpt>
      <trkpt lat="46.72619" lon="-2.35423">
        <ele>6.5</ele>
        <time>2018-09-16T09:04:46.000Z</time>
      </trkpt>
      <trkpt lat="46.7262" lon="-2.35422">
        <ele>6.5</ele>
        <time>2018-09-16T09:04:47.000Z</time>
      </trkpt>
      <trkpt lat="46.7262" lon="-2.3542">
        <ele>6.5</ele>
        <time>2018-09-16T09:04:48.000Z</time>
      </trkpt>
      <trkpt lat="46.7262" lon="-2.35419">
        <ele>6.5</ele>
        <time>2018-09-16T09:04:49.000Z</time>
      </trkpt>
      <trkpt lat="46.7262" lon="-2.35417">
        <ele>6.6</ele>
        <time>2018-09-16T09:04:50.000Z</time>
      </trkpt>
      <trkpt lat="46.72621" lon="-2.35415">
        <ele>6.5</ele>
        <time>2018-09-16T09:04:51.000Z</time>
      </trkpt>
      <trkpt lat="46.72621" lon="-2.35414">
        <ele>6.5</ele>
        <time>2018-09-16T09:04:52.000Z</time>
      </trkpt>
      <trkpt lat="46.72621" lon="-2.35412">
        <ele>6.5</ele>
        <time>2018-09-16T09:04:53.000Z</time>
      </trkpt>
      <trkpt lat="46.72622" lon="-2.3541">
        <ele>6.5</ele>
        <time>2018-09-16T09:04:54.000Z</time>
      </trkpt>
      <trkpt lat="46.72622" lon="-2.35408">
        <ele>6.5</ele>
        <time>2018-09-16T09:04:55.000Z</time>
      </trkpt>
      <trkpt lat="46.72622" lon="-2.35407">
        <ele>6.5</ele>
        <time>2018-09-16T09:04:56.000Z</time>
      </trkpt>
      <trkpt lat="46.72623" lon="-2.35405">
        <ele>6.5</ele>
        <time>2018-09-16T09:04:57.000Z</time>
      </trkpt>
      <trkpt lat="46.72623" lon="-2.35403">
        <ele>6.5</ele>
        <time>2018-09-16T09:04:58.000Z</time>
      </trkpt>
      <trkpt lat="46.72623" lon="-2.35402">
        <ele>6.5</ele>
        <time>2018-09-16T09:04:59.000Z</time>
      </trkpt>
      <trkpt lat="46.72623" lon="-2.354">
        <ele>6.5</ele>
        <time>2018-09-16T09:05:00.000Z</time>
      </trkpt>
      <trkpt lat="46.72623" lon="-2.35398">
        <ele>6.5</ele>
        <time>2018-09-16T09:05:01.000Z</time>
      </trkpt>
      <trkpt lat="46.72623" lon="-2.35396">
        <ele>6.5</ele>
        <time>2018-09-16T09:05:02.000Z</time>
      </trkpt>
      <trkpt lat="46.72623" lon="-2.35395">
        <ele>6.5</ele>
        <time>2018-09-16T09:05:03.000Z</time>
      </trkpt>
      <trkpt lat="46.72623" lon="-2.35393">
        <ele>6.5</ele>
        <time>2018-09-16T09:05:04.000Z</time>
      </trkpt>
      <trkpt lat="46.72623" lon="-2.35391">
        <ele>6.5</ele>
        <time>2018-09-16T09:05:05.000Z</time>
      </trkpt>
      <trkpt lat="46.72623" lon="-2.3539">
        <ele>6.5</ele>
        <time>2018-09-16T09:05:06.000Z</time>
      </trkpt>
      <trkpt lat="46.72623" lon="-2.35388">
        <ele>6.5</ele>
        <time>2018-09-16T09:05:07.000Z</time>
      </trkpt>
      <trkpt lat="46.72623" lon="-2.35386">
        <ele>6.5</ele>
        <time>2018-09-16T09:05:08.000Z</time>
      </trkpt>
      <trkpt lat="46.72623" lon="-2.35385">
        <ele>6.5</ele>
        <time>2018-09-16T09:05:09.000Z</time>
      </trkpt>
      <trkpt lat="46.72622" lon="-2.35383">
        <ele>6.5</ele>
        <time>2018-09-16T09:05:10.000Z</time>
      </trkpt>
      <trkpt lat="46.72622" lon="-2.35381">
        <ele>6.5</ele>
        <time>2018-09-16T09:05:11.000Z</time>
      </trkpt>
      <trkpt lat="46.72622" lon="-2.3538">
        <ele>6.5</ele>
        <time>2018-09-16T09:05:12.000Z</time>
      </trkpt>
      <trkpt lat="46.72622" lon="-2.35378">
        <ele>6.5</ele>
        <time>2018-09-16T09:05:13.000Z</time>
      </trkpt>
      <trkpt lat="46.72622" lon="-2.35376">
        <ele>6.5</ele>
        <time>2018-09-16T09:05:14.000Z</time>
      </trkpt>
      <trkpt lat="46.72621" lon="-2.35375">
        <ele>6.5</ele>
        <time>2018-09-16T09:05:15.000Z</time>
      </trkpt>
      <trkpt lat="46.72621" lon="-2.35373">
        <ele>6.5</ele>
        <time>2018-09-16T09:05:16.000Z</time>
      </trkpt>
      <trkpt lat="46.72621" lon="-2.35371">
        <ele>6.5</ele>
        <time>2018-09-16T09:05:17.000Z</time>
      </trkpt>
      <trkpt lat="46.72621" lon="-2.3537">
        <ele>6.5</ele>
        <time>2018-09-16T09:05:18.000Z</time>
      </trkpt>
      <trkpt lat="46.72621" lon="-2.35368">
        <ele>6.5</ele>
        <time>2018-09-16T09:05:19.000Z</time>
      </trkpt>
      <trkpt lat="46.72621" lon="-2.35366">
        <ele>6.5</ele>
        <time>2018-09-16T09:05:20.000Z</time>
      </trkpt>
      <trkpt lat="46.7262" lon="-2.35364">
        <ele>6.5</ele>
        <time>2018-09-16T09:05:21.000Z</time>
      </trkpt>
      <trkpt lat="46.7262" lon="-2.35363">
        <ele>6.5</ele>
        <time>2018-09-16T09:05:22.000Z</time>
      </trkpt>
      <trkpt lat="46.7262" lon="-2.35361">
        <ele>6.5</ele>
        <time>2018-09-16T09:05:23.000Z</time>
      </trkpt>
      <trkpt lat="46.7262" lon="-2.35359">
        <ele>6.5</ele>
        <time>2018-09-16T09:05:24.000Z</time>
      </trkpt>
      <trkpt lat="46.7262" lon="-2.35358">
        <ele>6.5</ele>
        <time>2018-09-16T09:05:25.000Z</time>
      </trkpt>
      <trkpt lat="46.7262" lon="-2.35356">
        <ele>6.5</ele>
        <time>2018-09-16T09:05:26.000Z</time>
      </trkpt>
      <trkpt lat="46.7262" lon="-2.35354">
        <ele>6.5</ele>
        <time>2018-09-16T09:05:27.000Z</time>
      </trkpt>
      <trkpt lat="46.72621" lon="-2.35353">
        <ele>6.5</ele>
        <time>2018-09-16T09:05:28.000Z</time>
      </trkpt>
      <trkpt lat="46.72621" lon="-2.35351">
        <ele>6.5</ele>
        <time>2018-09-16T09:05:29.000Z</time>
      </trkpt>
      <trkpt lat="46.72621" lon="-2.35349">
        <ele>6.5</ele>
        <time>2018-09-16T09:05:30.000Z</time>
      </trkpt>
      <trkpt lat="46.72621" lon="-2.35348">
        <ele>6.5</ele>
        <time>2018-09-16T09:05:31.000Z</time>
      </trkpt>
      <trkpt lat="46.72621" lon="-2.35346">
        <ele>6.5</ele>
        <time>2018-09-16T09:05:32.000Z</time>
      </trkpt>
      <trkpt lat="46.72621" lon="-2.35345">
        <ele>6.5</ele>
        <time>2018-09-16T09:05:33.000Z</time>
      </trkpt>
      <trkpt lat="46.72621" lon="-2.35343">
        <ele>6.5</ele>
        <time>2018-09-16T09:05:34.000Z</time>
      </trkpt>
      <trkpt lat="46.72621" lon="-2.35342">
        <ele>6.5</ele>
        <time>2018-09-16T09:05:35.000Z</time>
      </trkpt>
      <trkpt lat="46.72621" lon="-2.35341">
        <ele>6.5</ele>
        <time>2018-09-16T09:05:36.000Z</time>
      </trkpt>
      <trkpt lat="46.72621" lon="-2.3534">
        <ele>6.5</ele>
        <time>2018-09-16T09:05:37.000Z</time>
      </trkpt>
      <trkpt lat="46.72621" lon="-2.35339">
        <ele>6.5</ele>
        <time>2018-09-16T09:05:38.000Z</time>
      </trkpt>
      <trkpt lat="46.72621" lon="-2.35338">
        <ele>6.5</ele>
        <time>2018-09-16T09:05:39.000Z</time>
      </trkpt>
      <trkpt lat="46.72621" lon="-2.35337">
        <ele>6.5</ele>
        <time>2018-09-16T09:05:40.000Z</time>
      </trkpt>
      <trkpt lat="46.72621" lon="-2.35335">
        <ele>6.5</ele>
        <time>2018-09-16T09:05:41.000Z</time>
      </trkpt>
      <trkpt lat="46.72622" lon="-2.35334">
        <ele>6.5</ele>
        <time>2018-09-16T09:05:42.000Z</time>
      </trkpt>
      <trkpt lat="46.72622" lon="-2.35333">
        <ele>6.5</ele>
        <time>2018-09-16T09:05:43.000Z</time>
      </trkpt>
      <trkpt lat="46.72622" lon="-2.35331">
        <ele>6.5</ele>
        <time>2018-09-16T09:05:44.000Z</time>
      </trkpt>
      <trkpt lat="46.72622" lon="-2.3533">
        <ele>6.4</ele>
        <time>2018-09-16T09:05:45.000Z</time>
      </trkpt>
      <trkpt lat="46.72623" lon="-2.35328">
        <ele>6.4</ele>
        <time>2018-09-16T09:05:46.000Z</time>
      </trkpt>
      <trkpt lat="46.72623" lon="-2.35326">
        <ele>6.4</ele>
        <time>2018-09-16T09:05:47.000Z</time>
      </trkpt>
      <trkpt lat="46.72623" lon="-2.35325">
        <ele>6.4</ele>
        <time>2018-09-16T09:05:48.000Z</time>
      </trkpt>
      <trkpt lat="46.72624" lon="-2.35323">
        <ele>6.4</ele>
        <time>2018-09-16T09:05:49.000Z</time>
      </trkpt>
      <trkpt lat="46.72624" lon="-2.35321">
        <ele>6.4</ele>
        <time>2018-09-16T09:05:50.000Z</time>
      </trkpt>
      <trkpt lat="46.72624" lon="-2.3532">
        <ele>6.4</ele>
        <time>2018-09-16T09:05:51.000Z</time>
      </trkpt>
      <trkpt lat="46.72624" lon="-2.35318">
        <ele>6.4</ele>
        <time>2018-09-16T09:05:52.000Z</time>
      </trkpt>
      <trkpt lat="46.72625" lon="-2.35316">
        <ele>6.4</ele>
        <time>2018-09-16T09:05:53.000Z</time>
      </trkpt>
      <trkpt lat="46.72625" lon="-2.35314">
        <ele>6.4</ele>
        <time>2018-09-16T09:05:54.000Z</time>
      </trkpt>
      <trkpt lat="46.72625" lon="-2.35313">
        <ele>6.4</ele>
        <time>2018-09-16T09:05:55.000Z</time>
      </trkpt>
      <trkpt lat="46.72625" lon="-2.35311">
        <ele>6.4</ele>
        <time>2018-09-16T09:05:56.000Z</time>
      </trkpt>
      <trkpt lat="46.72625" lon="-2.35309">
        <ele>6.4</ele>
        <time>2018-09-16T09:05:57.000Z</time>
      </trkpt>
      <trkpt lat="46.72626" lon="-2.35307">
        <ele>6.3</ele>
        <time>2018-09-16T09:05:58.000Z</time>
      </trkpt>
      <trkpt lat="46.72626" lon="-2.35306">
        <ele>6.3</ele>
        <time>2018-09-16T09:05:59.000Z</time>
      </trkpt>
      <trkpt lat="46.72626" lon="-2.35304">
        <ele>6.3</ele>
        <time>2018-09-16T09:06:00.000Z</time>
      </trkpt>
      <trkpt lat="46.72626" lon="-2.35302">
        <ele>6.3</ele>
        <time>2018-09-16T09:06:01.000Z</time>
      </trkpt>
      <trkpt lat="46.72626" lon="-2.353">
        <ele>6.3</ele>
        <time>2018-09-16T09:06:02.000Z</time>
      </trkpt>
      <trkpt lat="46.72626" lon="-2.35299">
        <ele>6.3</ele>
        <time>2018-09-16T09:06:03.000Z</time>
      </trkpt>
      <trkpt lat="46.72626" lon="-2.35297">
        <ele>6.3</ele>
        <time>2018-09-16T09:06:04.000Z</time>
      </trkpt>
      <trkpt lat="46.72626" lon="-2.35295">
        <ele>6.3</ele>
        <time>2018-09-16T09:06:05.000Z</time>
      </trkpt>
      <trkpt lat="46.72627" lon="-2.35293">
        <ele>6.3</ele>
        <time>2018-09-16T09:06:06.000Z</time>
      </trkpt>
      <trkpt lat="46.72627" lon="-2.35291">
        <ele>6.3</ele>
        <time>2018-09-16T09:06:07.000Z</time>
      </trkpt>
      <trkpt lat="46.72627" lon="-2.3529">
        <ele>6.2</ele>
        <time>2018-09-16T09:06:08.000Z</time>
      </trkpt>
      <trkpt lat="46.72627" lon="-2.35288">
        <ele>6.2</ele>
        <time>2018-09-16T09:06:09.000Z</time>
      </trkpt>
      <trkpt lat="46.72627" lon="-2.35286">
        <ele>6.2</ele>
        <time>2018-09-16T09:06:10.000Z</time>
      </trkpt>
      <trkpt lat="46.72628" lon="-2.35285">
        <ele>6.2</ele>
        <time>2018-09-16T09:06:11.000Z</time>
      </trkpt>
      <trkpt lat="46.72628" lon="-2.35283">
        <ele>6.2</ele>
        <time>2018-09-16T09:06:12.000Z</time>
      </trkpt>
      <trkpt lat="46.72629" lon="-2.35282">
        <ele>6.2</ele>
        <time>2018-09-16T09:06:13.000Z</time>
      </trkpt>
      <trkpt lat="46.72629" lon="-2.35281">
        <ele>6.2</ele>
        <time>2018-09-16T09:06:14.000Z</time>
      </trkpt>
      <trkpt lat="46.72629" lon="-2.35279">
        <ele>6.2</ele>
        <time>2018-09-16T09:06:15.000Z</time>
      </trkpt>
      <trkpt lat="46.72629" lon="-2.35278">
        <ele>6.2</ele>
        <time>2018-09-16T09:06:16.000Z</time>
      </trkpt>
      <trkpt lat="46.7263" lon="-2.35276">
        <ele>6.2</ele>
        <time>2018-09-16T09:06:17.000Z</time>
      </trkpt>
      <trkpt lat="46.7263" lon="-2.35275">
        <ele>6.2</ele>
        <time>2018-09-16T09:06:18.000Z</time>
      </trkpt>
      <trkpt lat="46.7263" lon="-2.35273">
        <ele>6.2</ele>
        <time>2018-09-16T09:06:19.000Z</time>
      </trkpt>
      <trkpt lat="46.7263" lon="-2.35272">
        <ele>6.1</ele>
        <time>2018-09-16T09:06:20.000Z</time>
      </trkpt>
      <trkpt lat="46.7263" lon="-2.3527">
        <ele>6.1</ele>
        <time>2018-09-16T09:06:21.000Z</time>
      </trkpt>
      <trkpt lat="46.7263" lon="-2.35269">
        <ele>6.1</ele>
        <time>2018-09-16T09:06:22.000Z</time>
      </trkpt>
      <trkpt lat="46.72631" lon="-2.35267">
        <ele>6.1</ele>
        <time>2018-09-16T09:06:23.000Z</time>
      </trkpt>
      <trkpt lat="46.72631" lon="-2.35265">
        <ele>6.1</ele>
        <time>2018-09-16T09:06:24.000Z</time>
      </trkpt>
      <trkpt lat="46.72631" lon="-2.35263">
        <ele>6.1</ele>
        <time>2018-09-16T09:06:25.000Z</time>
      </trkpt>
      <trkpt lat="46.72631" lon="-2.35262">
        <ele>6.1</ele>
        <time>2018-09-16T09:06:26.000Z</time>
      </trkpt>
      <trkpt lat="46.72631" lon="-2.3526">
        <ele>6.1</ele>
        <time>2018-09-16T09:06:27.000Z</time>
      </trkpt>
      <trkpt lat="46.72631" lon="-2.35258">
        <ele>6.1</ele>
        <time>2018-09-16T09:06:28.000Z</time>
      </trkpt>
      <trkpt lat="46.72632" lon="-2.35256">
        <ele>6</ele>
        <time>2018-09-16T09:06:29.000Z</time>
      </trkpt>
      <trkpt lat="46.72632" lon="-2.35254">
        <ele>6</ele>
        <time>2018-09-16T09:06:30.000Z</time>
      </trkpt>
      <trkpt lat="46.72632" lon="-2.35252">
        <ele>6</ele>
        <time>2018-09-16T09:06:31.000Z</time>
      </trkpt>
      <trkpt lat="46.72632" lon="-2.35251">
        <ele>6</ele>
        <time>2018-09-16T09:06:32.000Z</time>
      </trkpt>
      <trkpt lat="46.72632" lon="-2.35249">
        <ele>6</ele>
        <time>2018-09-16T09:06:33.000Z</time>
      </trkpt>
      <trkpt lat="46.72633" lon="-2.35247">
        <ele>6</ele>
        <time>2018-09-16T09:06:34.000Z</time>
      </trkpt>
      <trkpt lat="46.72633" lon="-2.35245">
        <ele>5.9</ele>
        <time>2018-09-16T09:06:35.000Z</time>
      </trkpt>
      <trkpt lat="46.72633" lon="-2.35244">
        <ele>5.9</ele>
        <time>2018-09-16T09:06:36.000Z</time>
      </trkpt>
      <trkpt lat="46.72633" lon="-2.35242">
        <ele>5.9</ele>
        <time>2018-09-16T09:06:37.000Z</time>
      </trkpt>
      <trkpt lat="46.72633" lon="-2.3524">
        <ele>5.9</ele>
        <time>2018-09-16T09:06:38.000Z</time>
      </trkpt>
      <trkpt lat="46.72634" lon="-2.35238">
        <ele>5.9</ele>
        <time>2018-09-16T09:06:39.000Z</time>
      </trkpt>
      <trkpt lat="46.72634" lon="-2.35237">
        <ele>5.8</ele>
        <time>2018-09-16T09:06:40.000Z</time>
      </trkpt>
      <trkpt lat="46.72634" lon="-2.35235">
        <ele>5.8</ele>
        <time>2018-09-16T09:06:41.000Z</time>
      </trkpt>
      <trkpt lat="46.72634" lon="-2.35233">
        <ele>5.8</ele>
        <time>2018-09-16T09:06:42.000Z</time>
      </trkpt>
      <trkpt lat="46.72634" lon="-2.35231">
        <ele>5.8</ele>
        <time>2018-09-16T09:06:43.000Z</time>
      </trkpt>
      <trkpt lat="46.72635" lon="-2.3523">
        <ele>5.8</ele>
        <time>2018-09-16T09:06:44.000Z</time>
      </trkpt>
      <trkpt lat="46.72635" lon="-2.35228">
        <ele>5.7</ele>
        <time>2018-09-16T09:06:45.000Z</time>
      </trkpt>
      <trkpt lat="46.72635" lon="-2.35226">
        <ele>5.7</ele>
        <time>2018-09-16T09:06:46.000Z</time>
      </trkpt>
      <trkpt lat="46.72635" lon="-2.35225">
        <ele>5.7</ele>
        <time>2018-09-16T09:06:47.000Z</time>
      </trkpt>
      <trkpt lat="46.72635" lon="-2.35223">
        <ele>5.7</ele>
        <time>2018-09-16T09:06:48.000Z</time>
      </trkpt>
      <trkpt lat="46.72635" lon="-2.35221">
        <ele>5.7</ele>
        <time>2018-09-16T09:06:49.000Z</time>
      </trkpt>
      <trkpt lat="46.72635" lon="-2.3522">
        <ele>5.6</ele>
        <time>2018-09-16T09:06:50.000Z</time>
      </trkpt>
      <trkpt lat="46.72636" lon="-2.35218">
        <ele>5.6</ele>
        <time>2018-09-16T09:06:51.000Z</time>
      </trkpt>
      <trkpt lat="46.72636" lon="-2.35217">
        <ele>5.6</ele>
        <time>2018-09-16T09:06:52.000Z</time>
      </trkpt>
      <trkpt lat="46.72636" lon="-2.35215">
        <ele>5.6</ele>
        <time>2018-09-16T09:06:53.000Z</time>
      </trkpt>
      <trkpt lat="46.72636" lon="-2.35213">
        <ele>5.6</ele>
        <time>2018-09-16T09:06:54.000Z</time>
      </trkpt>
      <trkpt lat="46.72636" lon="-2.35212">
        <ele>5.5</ele>
        <time>2018-09-16T09:06:55.000Z</time>
      </trkpt>
      <trkpt lat="46.72636" lon="-2.3521">
        <ele>5.5</ele>
        <time>2018-09-16T09:06:56.000Z</time>
      </trkpt>
      <trkpt lat="46.72636" lon="-2.35208">
        <ele>5.5</ele>
        <time>2018-09-16T09:06:57.000Z</time>
      </trkpt>
      <trkpt lat="46.72636" lon="-2.35207">
        <ele>5.5</ele>
        <time>2018-09-16T09:06:58.000Z</time>
      </trkpt>
      <trkpt lat="46.72636" lon="-2.35205">
        <ele>5.5</ele>
        <time>2018-09-16T09:06:59.000Z</time>
      </trkpt>
      <trkpt lat="46.72636" lon="-2.35204">
        <ele>5.4</ele>
        <time>2018-09-16T09:07:00.000Z</time>
      </trkpt>
      <trkpt lat="46.72636" lon="-2.35202">
        <ele>5.4</ele>
        <time>2018-09-16T09:07:01.000Z</time>
      </trkpt>
      <trkpt lat="46.72636" lon="-2.352">
        <ele>5.4</ele>
        <time>2018-09-16T09:07:02.000Z</time>
      </trkpt>
      <trkpt lat="46.72636" lon="-2.35199">
        <ele>5.4</ele>
        <time>2018-09-16T09:07:03.000Z</time>
      </trkpt>
      <trkpt lat="46.72636" lon="-2.35197">
        <ele>5.4</ele>
        <time>2018-09-16T09:07:04.000Z</time>
      </trkpt>
      <trkpt lat="46.72636" lon="-2.35195">
        <ele>5.3</ele>
        <time>2018-09-16T09:07:05.000Z</time>
      </trkpt>
      <trkpt lat="46.72636" lon="-2.35194">
        <ele>5.3</ele>
        <time>2018-09-16T09:07:06.000Z</time>
      </trkpt>
      <trkpt lat="46.72636" lon="-2.35192">
        <ele>5.3</ele>
        <time>2018-09-16T09:07:07.000Z</time>
      </trkpt>
      <trkpt lat="46.72635" lon="-2.35191">
        <ele>5.3</ele>
        <time>2018-09-16T09:07:08.000Z</time>
      </trkpt>
      <trkpt lat="46.72635" lon="-2.35189">
        <ele>5.3</ele>
        <time>2018-09-16T09:07:09.000Z</time>
      </trkpt>
      <trkpt lat="46.72635" lon="-2.35187">
        <ele>5.2</ele>
        <time>2018-09-16T09:07:10.000Z</time>
      </trkpt>
      <trkpt lat="46.72635" lon="-2.35185">
        <ele>5.2</ele>
        <time>2018-09-16T09:07:11.000Z</time>
      </trkpt>
      <trkpt lat="46.72635" lon="-2.35184">
        <ele>5.2</ele>
        <time>2018-09-16T09:07:12.000Z</time>
      </trkpt>
      <trkpt lat="46.72635" lon="-2.35182">
        <ele>5.2</ele>
        <time>2018-09-16T09:07:13.000Z</time>
      </trkpt>
      <trkpt lat="46.72635" lon="-2.3518">
        <ele>5.2</ele>
        <time>2018-09-16T09:07:14.000Z</time>
      </trkpt>
      <trkpt lat="46.72634" lon="-2.35178">
        <ele>5.1</ele>
        <time>2018-09-16T09:07:15.000Z</time>
      </trkpt>
      <trkpt lat="46.72634" lon="-2.35177">
        <ele>5.1</ele>
        <time>2018-09-16T09:07:16.000Z</time>
      </trkpt>
      <trkpt lat="46.72634" lon="-2.35175">
        <ele>5.1</ele>
        <time>2018-09-16T09:07:17.000Z</time>
      </trkpt>
      <trkpt lat="46.72634" lon="-2.35173">
        <ele>5.1</ele>
        <time>2018-09-16T09:07:18.000Z</time>
      </trkpt>
      <trkpt lat="46.72634" lon="-2.35172">
        <ele>5.1</ele>
        <time>2018-09-16T09:07:19.000Z</time>
      </trkpt>
      <trkpt lat="46.72633" lon="-2.3517">
        <ele>5</ele>
        <time>2018-09-16T09:07:20.000Z</time>
      </trkpt>
      <trkpt lat="46.72633" lon="-2.35169">
        <ele>5</ele>
        <time>2018-09-16T09:07:21.000Z</time>
      </trkpt>
      <trkpt lat="46.72633" lon="-2.35167">
        <ele>5</ele>
        <time>2018-09-16T09:07:22.000Z</time>
      </trkpt>
      <trkpt lat="46.72633" lon="-2.35166">
        <ele>5</ele>
        <time>2018-09-16T09:07:23.000Z</time>
      </trkpt>
      <trkpt lat="46.72632" lon="-2.35164">
        <ele>5</ele>
        <time>2018-09-16T09:07:24.000Z</time>
      </trkpt>
      <trkpt lat="46.72632" lon="-2.35163">
        <ele>5</ele>
        <time>2018-09-16T09:07:25.000Z</time>
      </trkpt>
      <trkpt lat="46.72632" lon="-2.35161">
        <ele>5</ele>
        <time>2018-09-16T09:07:26.000Z</time>
      </trkpt>
      <trkpt lat="46.72631" lon="-2.3516">
        <ele>5</ele>
        <time>2018-09-16T09:07:27.000Z</time>
      </trkpt>
      <trkpt lat="46.72631" lon="-2.35158">
        <ele>4.9</ele>
        <time>2018-09-16T09:07:28.000Z</time>
      </trkpt>
      <trkpt lat="46.72631" lon="-2.35157">
        <ele>4.9</ele>
        <time>2018-09-16T09:07:29.000Z</time>
      </trkpt>
      <trkpt lat="46.7263" lon="-2.35156">
        <ele>4.9</ele>
        <time>2018-09-16T09:07:30.000Z</time>
      </trkpt>
      <trkpt lat="46.7263" lon="-2.35154">
        <ele>4.9</ele>
        <time>2018-09-16T09:07:31.000Z</time>
      </trkpt>
      <trkpt lat="46.72629" lon="-2.35153">
        <ele>4.9</ele>
        <time>2018-09-16T09:07:32.000Z</time>
      </trkpt>
      <trkpt lat="46.72629" lon="-2.35151">
        <ele>4.9</ele>
        <time>2018-09-16T09:07:33.000Z</time>
      </trkpt>
      <trkpt lat="46.72629" lon="-2.3515">
        <ele>4.9</ele>
        <time>2018-09-16T09:07:34.000Z</time>
      </trkpt>
      <trkpt lat="46.72628" lon="-2.35148">
        <ele>4.9</ele>
        <time>2018-09-16T09:07:35.000Z</time>
      </trkpt>
      <trkpt lat="46.72628" lon="-2.35146">
        <ele>4.9</ele>
        <time>2018-09-16T09:07:36.000Z</time>
      </trkpt>
      <trkpt lat="46.72627" lon="-2.35145">
        <ele>4.9</ele>
        <time>2018-09-16T09:07:37.000Z</time>
      </trkpt>
      <trkpt lat="46.72627" lon="-2.35143">
        <ele>4.9</ele>
        <time>2018-09-16T09:07:38.000Z</time>
      </trkpt>
      <trkpt lat="46.72626" lon="-2.35142">
        <ele>4.8</ele>
        <time>2018-09-16T09:07:39.000Z</time>
      </trkpt>
      <trkpt lat="46.72626" lon="-2.3514">
        <ele>4.8</ele>
        <time>2018-09-16T09:07:40.000Z</time>
      </trkpt>
      <trkpt lat="46.72626" lon="-2.35138">
        <ele>4.8</ele>
        <time>2018-09-16T09:07:41.000Z</time>
      </trkpt>
      <trkpt lat="46.72625" lon="-2.35137">
        <ele>4.8</ele>
        <time>2018-09-16T09:07:42.000Z</time>
      </trkpt>
      <trkpt lat="46.72625" lon="-2.35135">
        <ele>4.8</ele>
        <time>2018-09-16T09:07:43.000Z</time>
      </trkpt>
      <trkpt lat="46.72624" lon="-2.35133">
        <ele>4.8</ele>
        <time>2018-09-16T09:07:44.000Z</time>
      </trkpt>
      <trkpt lat="46.72624" lon="-2.35132">
        <ele>4.8</ele>
        <time>2018-09-16T09:07:45.000Z</time>
      </trkpt>
      <trkpt lat="46.72623" lon="-2.3513">
        <ele>4.8</ele>
        <time>2018-09-16T09:07:46.000Z</time>
      </trkpt>
      <trkpt lat="46.72623" lon="-2.35128">
        <ele>4.8</ele>
        <time>2018-09-16T09:07:47.000Z</time>
      </trkpt>
      <trkpt lat="46.72622" lon="-2.35127">
        <ele>4.8</ele>
        <time>2018-09-16T09:07:48.000Z</time>
      </trkpt>
      <trkpt lat="46.72621" lon="-2.35125">
        <ele>4.8</ele>
        <time>2018-09-16T09:07:49.000Z</time>
      </trkpt>
      <trkpt lat="46.72621" lon="-2.35124">
        <ele>4.8</ele>
        <time>2018-09-16T09:07:50.000Z</time>
      </trkpt>
      <trkpt lat="46.7262" lon="-2.35122">
        <ele>4.8</ele>
        <time>2018-09-16T09:07:51.000Z</time>
      </trkpt>
      <trkpt lat="46.7262" lon="-2.3512">
        <ele>4.8</ele>
        <time>2018-09-16T09:07:52.000Z</time>
      </trkpt>
      <trkpt lat="46.72619" lon="-2.35119">
        <ele>4.8</ele>
        <time>2018-09-16T09:07:53.000Z</time>
      </trkpt>
      <trkpt lat="46.72619" lon="-2.35117">
        <ele>4.8</ele>
        <time>2018-09-16T09:07:54.000Z</time>
      </trkpt>
      <trkpt lat="46.72618" lon="-2.35116">
        <ele>4.7</ele>
        <time>2018-09-16T09:07:55.000Z</time>
      </trkpt>
      <trkpt lat="46.72617" lon="-2.35114">
        <ele>4.7</ele>
        <time>2018-09-16T09:07:56.000Z</time>
      </trkpt>
      <trkpt lat="46.72617" lon="-2.35113">
        <ele>4.7</ele>
        <time>2018-09-16T09:07:57.000Z</time>
      </trkpt>
      <trkpt lat="46.72616" lon="-2.35111">
        <ele>4.7</ele>
        <time>2018-09-16T09:07:58.000Z</time>
      </trkpt>
      <trkpt lat="46.72615" lon="-2.3511">
        <ele>4.7</ele>
        <time>2018-09-16T09:07:59.000Z</time>
      </trkpt>
      <trkpt lat="46.72615" lon="-2.35109">
        <ele>4.7</ele>
        <time>2018-09-16T09:08:00.000Z</time>
      </trkpt>
      <trkpt lat="46.72614" lon="-2.35107">
        <ele>4.7</ele>
        <time>2018-09-16T09:08:01.000Z</time>
      </trkpt>
      <trkpt lat="46.72613" lon="-2.35106">
        <ele>4.7</ele>
        <time>2018-09-16T09:08:02.000Z</time>
      </trkpt>
      <trkpt lat="46.72613" lon="-2.35104">
        <ele>4.7</ele>
        <time>2018-09-16T09:08:03.000Z</time>
      </trkpt>
      <trkpt lat="46.72612" lon="-2.35103">
        <ele>4.7</ele>
        <time>2018-09-16T09:08:04.000Z</time>
      </trkpt>
      <trkpt lat="46.72611" lon="-2.35102">
        <ele>4.7</ele>
        <time>2018-09-16T09:08:05.000Z</time>
      </trkpt>
      <trkpt lat="46.7261" lon="-2.35101">
        <ele>4.7</ele>
        <time>2018-09-16T09:08:06.000Z</time>
      </trkpt>
      <trkpt lat="46.7261" lon="-2.35099">
        <ele>4.7</ele>
        <time>2018-09-16T09:08:07.000Z</time>
      </trkpt>
      <trkpt lat="46.72609" lon="-2.35098">
        <ele>4.7</ele>
        <time>2018-09-16T09:08:08.000Z</time>
      </trkpt>
      <trkpt lat="46.72608" lon="-2.35097">
        <ele>4.8</ele>
        <time>2018-09-16T09:08:09.000Z</time>
      </trkpt>
      <trkpt lat="46.72607" lon="-2.35095">
        <ele>4.8</ele>
        <time>2018-09-16T09:08:10.000Z</time>
      </trkpt>
      <trkpt lat="46.72607" lon="-2.35094">
        <ele>4.8</ele>
        <time>2018-09-16T09:08:11.000Z</time>
      </trkpt>
      <trkpt lat="46.72606" lon="-2.35093">
        <ele>4.8</ele>
        <time>2018-09-16T09:08:12.000Z</time>
      </trkpt>
      <trkpt lat="46.72605" lon="-2.35091">
        <ele>4.8</ele>
        <time>2018-09-16T09:08:13.000Z</time>
      </trkpt>
      <trkpt lat="46.72604" lon="-2.3509">
        <ele>4.8</ele>
        <time>2018-09-16T09:08:14.000Z</time>
      </trkpt>
      <trkpt lat="46.72603" lon="-2.35089">
        <ele>4.8</ele>
        <time>2018-09-16T09:08:15.000Z</time>
      </trkpt>
      <trkpt lat="46.72603" lon="-2.35088">
        <ele>4.8</ele>
        <time>2018-09-16T09:08:16.000Z</time>
      </trkpt>
      <trkpt lat="46.72602" lon="-2.35086">
        <ele>4.8</ele>
        <time>2018-09-16T09:08:17.000Z</time>
      </trkpt>
      <trkpt lat="46.72601" lon="-2.35085">
        <ele>4.8</ele>
        <time>2018-09-16T09:08:18.000Z</time>
      </trkpt>
      <trkpt lat="46.726" lon="-2.35084">
        <ele>4.8</ele>
        <time>2018-09-16T09:08:19.000Z</time>
      </trkpt>
      <trkpt lat="46.72599" lon="-2.35082">
        <ele>4.8</ele>
        <time>2018-09-16T09:08:20.000Z</time>
      </trkpt>
      <trkpt lat="46.72599" lon="-2.35081">
        <ele>4.8</ele>
        <time>2018-09-16T09:08:21.000Z</time>
      </trkpt>
      <trkpt lat="46.72598" lon="-2.35079">
        <ele>4.8</ele>
        <time>2018-09-16T09:08:22.000Z</time>
      </trkpt>
      <trkpt lat="46.72597" lon="-2.35078">
        <ele>4.8</ele>
        <time>2018-09-16T09:08:23.000Z</time>
      </trkpt>
      <trkpt lat="46.72596" lon="-2.35077">
        <ele>4.8</ele>
        <time>2018-09-16T09:08:24.000Z</time>
      </trkpt>
      <trkpt lat="46.72595" lon="-2.35075">
        <ele>4.8</ele>
        <time>2018-09-16T09:08:25.000Z</time>
      </trkpt>
      <trkpt lat="46.72594" lon="-2.35074">
        <ele>4.8</ele>
        <time>2018-09-16T09:08:26.000Z</time>
      </trkpt>
      <trkpt lat="46.72593" lon="-2.35073">
        <ele>4.8</ele>
        <time>2018-09-16T09:08:27.000Z</time>
      </trkpt>
      <trkpt lat="46.72593" lon="-2.35072">
        <ele>4.8</ele>
        <time>2018-09-16T09:08:28.000Z</time>
      </trkpt>
      <trkpt lat="46.72592" lon="-2.35071">
        <ele>4.7</ele>
        <time>2018-09-16T09:08:29.000Z</time>
      </trkpt>
      <trkpt lat="46.72591" lon="-2.3507">
        <ele>4.7</ele>
        <time>2018-09-16T09:08:30.000Z</time>
      </trkpt>
      <trkpt lat="46.7259" lon="-2.35069">
        <ele>4.7</ele>
        <time>2018-09-16T09:08:31.000Z</time>
      </trkpt>
      <trkpt lat="46.7259" lon="-2.35068">
        <ele>4.7</ele>
        <time>2018-09-16T09:08:32.000Z</time>
      </trkpt>
      <trkpt lat="46.7259" lon="-2.35067">
        <ele>4.7</ele>
        <time>2018-09-16T09:08:33.000Z</time>
      </trkpt>
      <trkpt lat="46.72589" lon="-2.35066">
        <ele>4.7</ele>
        <time>2018-09-16T09:08:34.000Z</time>
      </trkpt>
      <trkpt lat="46.72589" lon="-2.35065">
        <ele>4.7</ele>
        <time>2018-09-16T09:08:35.000Z</time>
      </trkpt>
      <trkpt lat="46.72589" lon="-2.35064">
        <ele>4.7</ele>
        <time>2018-09-16T09:08:36.000Z</time>
      </trkpt>
      <trkpt lat="46.72589" lon="-2.35063">
        <ele>4.7</ele>
        <time>2018-09-16T09:08:37.000Z</time>
      </trkpt>
      <trkpt lat="46.72589" lon="-2.35062">
        <ele>4.7</ele>
        <time>2018-09-16T09:08:38.000Z</time>
      </trkpt>
      <trkpt lat="46.72589" lon="-2.35061">
        <ele>4.7</ele>
        <time>2018-09-16T09:08:39.000Z</time>
      </trkpt>
      <trkpt lat="46.72589" lon="-2.3506">
        <ele>4.6</ele>
        <time>2018-09-16T09:08:40.000Z</time>
      </trkpt>
      <trkpt lat="46.72589" lon="-2.35059">
        <ele>4.6</ele>
        <time>2018-09-16T09:08:41.000Z</time>
      </trkpt>
      <trkpt lat="46.72589" lon="-2.35058">
        <ele>4.6</ele>
        <time>2018-09-16T09:08:42.000Z</time>
      </trkpt>
      <trkpt lat="46.72589" lon="-2.35058">
        <ele>4.6</ele>
        <time>2018-09-16T09:08:43.000Z</time>
      </trkpt>
      <trkpt lat="46.72589" lon="-2.35057">
        <ele>4.6</ele>
        <time>2018-09-16T09:08:44.000Z</time>
      </trkpt>
      <trkpt lat="46.72589" lon="-2.35057">
        <ele>4.6</ele>
        <time>2018-09-16T09:08:45.000Z</time>
      </trkpt>
      <trkpt lat="46.72589" lon="-2.35056">
        <ele>4.6</ele>
        <time>2018-09-16T09:08:46.000Z</time>
      </trkpt>
      <trkpt lat="46.72589" lon="-2.35056">
        <ele>4.6</ele>
        <time>2018-09-16T09:08:47.000Z</time>
      </trkpt>
      <trkpt lat="46.72589" lon="-2.35056">
        <ele>4.6</ele>
        <time>2018-09-16T09:08:48.000Z</time>
      </trkpt>
      <trkpt lat="46.72589" lon="-2.35056">
        <ele>4.6</ele>
        <time>2018-09-16T09:08:49.000Z</time>
      </trkpt>
      <trkpt lat="46.72589" lon="-2.35056">
        <ele>4.6</ele>
        <time>2018-09-16T09:08:50.000Z</time>
      </trkpt>
      <trkpt lat="46.72589" lon="-2.35056">
        <ele>4.6</ele>
        <time>2018-09-16T09:08:51.000Z</time>
      </trkpt>
      <trkpt lat="46.72589" lon="-2.35056">
        <ele>4.6</ele>
        <time>2018-09-16T09:08:52.000Z</time>
      </trkpt>
      <trkpt lat="46.72589" lon="-2.35056">
        <ele>4.6</ele>
        <time>2018-09-16T09:08:53.000Z</time>
      </trkpt>
      <trkpt lat="46.72589" lon="-2.35055">
        <ele>4.6</ele>
        <time>2018-09-16T09:08:54.000Z</time>
      </trkpt>
      <trkpt lat="46.7259" lon="-2.35055">
        <ele>4.6</ele>
        <time>2018-09-16T09:08:55.000Z</time>
      </trkpt>
      <trkpt lat="46.7259" lon="-2.35054">
        <ele>4.6</ele>
        <time>2018-09-16T09:08:56.000Z</time>
      </trkpt>
      <trkpt lat="46.7259" lon="-2.35054">
        <ele>4.6</ele>
        <time>2018-09-16T09:08:57.000Z</time>
      </trkpt>
      <trkpt lat="46.7259" lon="-2.35053">
        <ele>4.6</ele>
        <time>2018-09-16T09:08:58.000Z</time>
      </trkpt>
      <trkpt lat="46.7259" lon="-2.35052">
        <ele>4.5</ele>
        <time>2018-09-16T09:08:59.000Z</time>
      </trkpt>
      <trkpt lat="46.7259" lon="-2.35052">
        <ele>4.5</ele>
        <time>2018-09-16T09:09:00.000Z</time>
      </trkpt>
      <trkpt lat="46.7259" lon="-2.35051">
        <ele>4.5</ele>
        <time>2018-09-16T09:09:01.000Z</time>
      </trkpt>
      <trkpt lat="46.72591" lon="-2.3505">
        <ele>4.5</ele>
        <time>2018-09-16T09:09:02.000Z</time>
      </trkpt>
      <trkpt lat="46.72591" lon="-2.3505">
        <ele>4.5</ele>
        <time>2018-09-16T09:09:03.000Z</time>
      </trkpt>
      <trkpt lat="46.72591" lon="-2.35049">
        <ele>4.5</ele>
        <time>2018-09-16T09:09:04.000Z</time>
      </trkpt>
      <trkpt lat="46.72591" lon="-2.35048">
        <ele>4.5</ele>
        <time>2018-09-16T09:09:05.000Z</time>
      </trkpt>
      <trkpt lat="46.72591" lon="-2.35048">
        <ele>4.5</ele>
        <time>2018-09-16T09:09:06.000Z</time>
      </trkpt>
      <trkpt lat="46.72591" lon="-2.35047">
        <ele>4.5</ele>
        <time>2018-09-16T09:09:07.000Z</time>
      </trkpt>
      <trkpt lat="46.72591" lon="-2.35046">
        <ele>4.5</ele>
        <time>2018-09-16T09:09:08.000Z</time>
      </trkpt>
      <trkpt lat="46.72591" lon="-2.35046">
        <ele>4.5</ele>
        <time>2018-09-16T09:09:09.000Z</time>
      </trkpt>
      <trkpt lat="46.7259" lon="-2.35046">
        <ele>4.5</ele>
        <time>2018-09-16T09:09:10.000Z</time>
      </trkpt>
      <trkpt lat="46.7259" lon="-2.35045">
        <ele>4.5</ele>
        <time>2018-09-16T09:09:11.000Z</time>
      </trkpt>
      <trkpt lat="46.7259" lon="-2.35045">
        <ele>4.5</ele>
        <time>2018-09-16T09:09:12.000Z</time>
      </trkpt>
      <trkpt lat="46.7259" lon="-2.35045">
        <ele>4.5</ele>
        <time>2018-09-16T09:09:13.000Z</time>
      </trkpt>
      <trkpt lat="46.7259" lon="-2.35045">
        <ele>4.5</ele>
        <time>2018-09-16T09:09:14.000Z</time>
      </trkpt>
      <trkpt lat="46.7259" lon="-2.35045">
        <ele>4.5</ele>
        <time>2018-09-16T09:09:15.000Z</time>
      </trkpt>
      <trkpt lat="46.7259" lon="-2.35045">
        <ele>4.5</ele>
        <time>2018-09-16T09:09:16.000Z</time>
      </trkpt>
      <trkpt lat="46.72591" lon="-2.35045">
        <ele>4.4</ele>
        <time>2018-09-16T09:09:17.000Z</time>
      </trkpt>
      <trkpt lat="46.72591" lon="-2.35044">
        <ele>4.4</ele>
        <time>2018-09-16T09:09:18.000Z</time>
      </trkpt>
      <trkpt lat="46.72591" lon="-2.35044">
        <ele>4.4</ele>
        <time>2018-09-16T09:09:19.000Z</time>
      </trkpt>
      <trkpt lat="46.72591" lon="-2.35043">
        <ele>4.4</ele>
        <time>2018-09-16T09:09:20.000Z</time>
      </trkpt>
      <trkpt lat="46.72592" lon="-2.35042">
        <ele>4.4</ele>
        <time>2018-09-16T09:09:21.000Z</time>
      </trkpt>
      <trkpt lat="46.72592" lon="-2.35041">
        <ele>4.4</ele>
        <time>2018-09-16T09:09:22.000Z</time>
      </trkpt>
      <trkpt lat="46.72592" lon="-2.3504">
        <ele>4.4</ele>
        <time>2018-09-16T09:09:23.000Z</time>
      </trkpt>
      <trkpt lat="46.72593" lon="-2.35039">
        <ele>4.4</ele>
        <time>2018-09-16T09:09:24.000Z</time>
      </trkpt>
      <trkpt lat="46.72593" lon="-2.35039">
        <ele>4.3</ele>
        <time>2018-09-16T09:09:25.000Z</time>
      </trkpt>
      <trkpt lat="46.72594" lon="-2.35038">
        <ele>4.3</ele>
        <time>2018-09-16T09:09:26.000Z</time>
      </trkpt>
      <trkpt lat="46.72594" lon="-2.35038">
        <ele>4.3</ele>
        <time>2018-09-16T09:09:27.000Z</time>
      </trkpt>
      <trkpt lat="46.72595" lon="-2.35037">
        <ele>4.3</ele>
        <time>2018-09-16T09:09:28.000Z</time>
      </trkpt>
      <trkpt lat="46.72595" lon="-2.35037">
        <ele>4.3</ele>
        <time>2018-09-16T09:09:29.000Z</time>
      </trkpt>
      <trkpt lat="46.72595" lon="-2.35037">
        <ele>4.3</ele>
        <time>2018-09-16T09:09:30.000Z</time>
      </trkpt>
      <trkpt lat="46.72596" lon="-2.35038">
        <ele>4.3</ele>
        <time>2018-09-16T09:09:31.000Z</time>
      </trkpt>
      <trkpt lat="46.72595" lon="-2.35038">
        <ele>4.3</ele>
        <time>2018-09-16T09:09:32.000Z</time>
      </trkpt>
      <trkpt lat="46.72595" lon="-2.35038">
        <ele>4.3</ele>
        <time>2018-09-16T09:09:33.000Z</time>
      </trkpt>
      <trkpt lat="46.72595" lon="-2.35038">
        <ele>4.3</ele>
        <time>2018-09-16T09:09:34.000Z</time>
      </trkpt>
      <trkpt lat="46.72594" lon="-2.35038">
        <ele>4.3</ele>
        <time>2018-09-16T09:09:35.000Z</time>
      </trkpt>
      <trkpt lat="46.72593" lon="-2.35038">
        <ele>4.3</ele>
        <time>2018-09-16T09:09:36.000Z</time>
      </trkpt>
      <trkpt lat="46.72592" lon="-2.35039">
        <ele>4.4</ele>
        <time>2018-09-16T09:09:37.000Z</time>
      </trkpt>
      <trkpt lat="46.72591" lon="-2.35039">
        <ele>4.4</ele>
        <time>2018-09-16T09:09:38.000Z</time>
      </trkpt>
      <trkpt lat="46.7259" lon="-2.35039">
        <ele>4.4</ele>
        <time>2018-09-16T09:09:39.000Z</time>
      </trkpt>
      <trkpt lat="46.72589" lon="-2.35039">
        <ele>4.4</ele>
        <time>2018-09-16T09:09:40.000Z</time>
      </trkpt>
      <trkpt lat="46.72588" lon="-2.3504">
        <ele>4.4</ele>
        <time>2018-09-16T09:09:41.000Z</time>
      </trkpt>
      <trkpt lat="46.72588" lon="-2.3504">
        <ele>4.4</ele>
        <time>2018-09-16T09:09:42.000Z</time>
      </trkpt>
      <trkpt lat="46.72588" lon="-2.35041">
        <ele>4.4</ele>
        <time>2018-09-16T09:09:43.000Z</time>
      </trkpt>
      <trkpt lat="46.72588" lon="-2.35042">
        <ele>4.4</ele>
        <time>2018-09-16T09:09:44.000Z</time>
      </trkpt>
      <trkpt lat="46.72588" lon="-2.35042">
        <ele>4.5</ele>
        <time>2018-09-16T09:09:45.000Z</time>
      </trkpt>
      <trkpt lat="46.72588" lon="-2.35043">
        <ele>4.5</ele>
        <time>2018-09-16T09:09:46.000Z</time>
      </trkpt>
      <trkpt lat="46.72589" lon="-2.35043">
        <ele>4.5</ele>
        <time>2018-09-16T09:09:47.000Z</time>
      </trkpt>
      <trkpt lat="46.72589" lon="-2.35043">
        <ele>4.5</ele>
        <time>2018-09-16T09:09:48.000Z</time>
      </trkpt>
      <trkpt lat="46.72589" lon="-2.35044">
        <ele>4.5</ele>
        <time>2018-09-16T09:09:49.000Z</time>
      </trkpt>
      <trkpt lat="46.7259" lon="-2.35044">
        <ele>4.4</ele>
        <time>2018-09-16T09:09:50.000Z</time>
      </trkpt>
      <trkpt lat="46.7259" lon="-2.35044">
        <ele>4.4</ele>
        <time>2018-09-16T09:09:51.000Z</time>
      </trkpt>
      <trkpt lat="46.7259" lon="-2.35043">
        <ele>4.4</ele>
        <time>2018-09-16T09:09:52.000Z</time>
      </trkpt>
      <trkpt lat="46.72591" lon="-2.35043">
        <ele>4.4</ele>
        <time>2018-09-16T09:09:53.000Z</time>
      </trkpt>
      <trkpt lat="46.72591" lon="-2.35043">
        <ele>4.4</ele>
        <time>2018-09-16T09:09:54.000Z</time>
      </trkpt>
      <trkpt lat="46.72591" lon="-2.35043">
        <ele>4.4</ele>
        <time>2018-09-16T09:09:55.000Z</time>
      </trkpt>
      <trkpt lat="46.72591" lon="-2.35043">
        <ele>4.4</ele>
        <time>2018-09-16T09:09:56.000Z</time>
      </trkpt>
      <trkpt lat="46.72592" lon="-2.35043">
        <ele>4.4</ele>
        <time>2018-09-16T09:09:57.000Z</time>
      </trkpt>
      <trkpt lat="46.72592" lon="-2.35043">
        <ele>4.4</ele>
        <time>2018-09-16T09:09:58.000Z</time>
      </trkpt>
      <trkpt lat="46.72592" lon="-2.35043">
        <ele>4.4</ele>
        <time>2018-09-16T09:09:59.000Z</time>
      </trkpt>
      <trkpt lat="46.72592" lon="-2.35043">
        <ele>4.4</ele>
        <time>2018-09-16T09:10:00.000Z</time>
      </trkpt>
      <trkpt lat="46.72592" lon="-2.35044">
        <ele>4.4</ele>
        <time>2018-09-16T09:10:01.000Z</time>
      </trkpt>
      <trkpt lat="46.72592" lon="-2.35044">
        <ele>4.4</ele>
        <time>2018-09-16T09:10:02.000Z</time>
      </trkpt>
      <trkpt lat="46.72592" lon="-2.35044">
        <ele>4.4</ele>
        <time>2018-09-16T09:10:03.000Z</time>
      </trkpt>
      <trkpt lat="46.72592" lon="-2.35044">
        <ele>4.4</ele>
        <time>2018-09-16T09:10:04.000Z</time>
      </trkpt>
      <trkpt lat="46.72593" lon="-2.35045">
        <ele>4.4</ele>
        <time>2018-09-16T09:10:05.000Z</time>
      </trkpt>
      <trkpt lat="46.72593" lon="-2.35045">
        <ele>4.4</ele>
        <time>2018-09-16T09:10:06.000Z</time>
      </trkpt>
      <trkpt lat="46.72593" lon="-2.35045">
        <ele>4.4</ele>
        <time>2018-09-16T09:10:07.000Z</time>
      </trkpt>
      <trkpt lat="46.72594" lon="-2.35045">
        <ele>4.4</ele>
        <time>2018-09-16T09:10:08.000Z</time>
      </trkpt>
      <trkpt lat="46.72594" lon="-2.35046">
        <ele>4.4</ele>
        <time>2018-09-16T09:10:09.000Z</time>
      </trkpt>
      <trkpt lat="46.72594" lon="-2.35046">
        <ele>4.4</ele>
        <time>2018-09-16T09:10:10.000Z</time>
      </trkpt>
      <trkpt lat="46.72594" lon="-2.35046">
        <ele>4.4</ele>
        <time>2018-09-16T09:10:11.000Z</time>
      </trkpt>
      <trkpt lat="46.72594" lon="-2.35047">
        <ele>4.4</ele>
        <time>2018-09-16T09:10:12.000Z</time>
      </trkpt>
      <trkpt lat="46.72594" lon="-2.35047">
        <ele>4.4</ele>
        <time>2018-09-16T09:10:13.000Z</time>
      </trkpt>
      <trkpt lat="46.72593" lon="-2.35048">
        <ele>4.5</ele>
        <time>2018-09-16T09:10:14.000Z</time>
      </trkpt>
      <trkpt lat="46.72593" lon="-2.35048">
        <ele>4.5</ele>
        <time>2018-09-16T09:10:15.000Z</time>
      </trkpt>
      <trkpt lat="46.72592" lon="-2.35049">
        <ele>4.5</ele>
        <time>2018-09-16T09:10:16.000Z</time>
      </trkpt>
      <trkpt lat="46.72592" lon="-2.3505">
        <ele>4.5</ele>
        <time>2018-09-16T09:10:17.000Z</time>
      </trkpt>
      <trkpt lat="46.72591" lon="-2.3505">
        <ele>4.5</ele>
        <time>2018-09-16T09:10:18.000Z</time>
      </trkpt>
      <trkpt lat="46.72591" lon="-2.35051">
        <ele>4.5</ele>
        <time>2018-09-16T09:10:19.000Z</time>
      </trkpt>
      <trkpt lat="46.7259" lon="-2.35052">
        <ele>4.5</ele>
        <time>2018-09-16T09:10:20.000Z</time>
      </trkpt>
      <trkpt lat="46.7259" lon="-2.35052">
        <ele>4.5</ele>
        <time>2018-09-16T09:10:21.000Z</time>
      </trkpt>
      <trkpt lat="46.7259" lon="-2.35053">
        <ele>4.6</ele>
        <time>2018-09-16T09:10:22.000Z</time>
      </trkpt>
      <trkpt lat="46.7259" lon="-2.35053">
        <ele>4.6</ele>
        <time>2018-09-16T09:10:23.000Z</time>
      </trkpt>
      <trkpt lat="46.72589" lon="-2.35054">
        <ele>4.6</ele>
        <time>2018-09-16T09:10:24.000Z</time>
      </trkpt>
      <trkpt lat="46.72589" lon="-2.35054">
        <ele>4.6</ele>
        <time>2018-09-16T09:10:25.000Z</time>
      </trkpt>
      <trkpt lat="46.72589" lon="-2.35054">
        <ele>4.6</ele>
        <time>2018-09-16T09:10:26.000Z</time>
      </trkpt>
      <trkpt lat="46.72589" lon="-2.35054">
        <ele>4.6</ele>
        <time>2018-09-16T09:10:27.000Z</time>
      </trkpt>
      <trkpt lat="46.72589" lon="-2.35054">
        <ele>4.6</ele>
        <time>2018-09-16T09:10:28.000Z</time>
      </trkpt>
      <trkpt lat="46.72589" lon="-2.35054">
        <ele>4.6</ele>
        <time>2018-09-16T09:10:29.000Z</time>
      </trkpt>
      <trkpt lat="46.72589" lon="-2.35054">
        <ele>4.6</ele>
        <time>2018-09-16T09:10:30.000Z</time>
      </trkpt>
      <trkpt lat="46.72589" lon="-2.35053">
        <ele>4.6</ele>
        <time>2018-09-16T09:10:31.000Z</time>
      </trkpt>
      <trkpt lat="46.72589" lon="-2.35053">
        <ele>4.6</ele>
        <time>2018-09-16T09:10:32.000Z</time>
      </trkpt>
      <trkpt lat="46.72589" lon="-2.35054">
        <ele>4.6</ele>
        <time>2018-09-16T09:10:33.000Z</time>
      </trkpt>
      <trkpt lat="46.72589" lon="-2.35054">
        <ele>4.6</ele>
        <time>2018-09-16T09:10:34.000Z</time>
      </trkpt>
      <trkpt lat="46.72589" lon="-2.35055">
        <ele>4.6</ele>
        <time>2018-09-16T09:10:35.000Z</time>
      </trkpt>
      <trkpt lat="46.72589" lon="-2.35055">
        <ele>4.6</ele>
        <time>2018-09-16T09:10:36.000Z</time>
      </trkpt>
      <trkpt lat="46.72589" lon="-2.35056">
        <ele>4.6</ele>
        <time>2018-09-16T09:10:37.000Z</time>
      </trkpt>
      <trkpt lat="46.72589" lon="-2.35056">
        <ele>4.6</ele>
        <time>2018-09-16T09:10:38.000Z</time>
      </trkpt>
      <trkpt lat="46.72588" lon="-2.35057">
        <ele>4.6</ele>
        <time>2018-09-16T09:10:39.000Z</time>
      </trkpt>
      <trkpt lat="46.72588" lon="-2.35057">
        <ele>4.6</ele>
        <time>2018-09-16T09:10:40.000Z</time>
      </trkpt>
      <trkpt lat="46.72588" lon="-2.35057">
        <ele>4.6</ele>
        <time>2018-09-16T09:10:41.000Z</time>
      </trkpt>
      <trkpt lat="46.72588" lon="-2.35057">
        <ele>4.6</ele>
        <time>2018-09-16T09:10:42.000Z</time>
      </trkpt>
      <trkpt lat="46.72587" lon="-2.35056">
        <ele>4.6</ele>
        <time>2018-09-16T09:10:43.000Z</time>
      </trkpt>
      <trkpt lat="46.72587" lon="-2.35055">
        <ele>4.6</ele>
        <time>2018-09-16T09:10:44.000Z</time>
      </trkpt>
      <trkpt lat="46.72586" lon="-2.35054">
        <ele>4.6</ele>
        <time>2018-09-16T09:10:45.000Z</time>
      </trkpt>
      <trkpt lat="46.72586" lon="-2.35053">
        <ele>4.6</ele>
        <time>2018-09-16T09:10:46.000Z</time>
      </trkpt>
      <trkpt lat="46.72586" lon="-2.35051">
        <ele>4.6</ele>
        <time>2018-09-16T09:10:47.000Z</time>
      </trkpt>
      <trkpt lat="46.72586" lon="-2.3505">
        <ele>4.6</ele>
        <time>2018-09-16T09:10:48.000Z</time>
      </trkpt>
      <trkpt lat="46.72587" lon="-2.35048">
        <ele>4.5</ele>
        <time>2018-09-16T09:10:49.000Z</time>
      </trkpt>
      <trkpt lat="46.72588" lon="-2.35046">
        <ele>4.5</ele>
        <time>2018-09-16T09:10:50.000Z</time>
      </trkpt>
      <trkpt lat="46.72589" lon="-2.35044">
        <ele>4.5</ele>
        <time>2018-09-16T09:10:51.000Z</time>
      </trkpt>
      <trkpt lat="46.7259" lon="-2.35042">
        <ele>4.4</ele>
        <time>2018-09-16T09:10:52.000Z</time>
      </trkpt>
      <trkpt lat="46.72591" lon="-2.35041">
        <ele>4.4</ele>
        <time>2018-09-16T09:10:53.000Z</time>
      </trkpt>
      <trkpt lat="46.72592" lon="-2.35039">
        <ele>4.4</ele>
        <time>2018-09-16T09:10:54.000Z</time>
      </trkpt>
      <trkpt lat="46.72593" lon="-2.35038">
        <ele>4.3</ele>
        <time>2018-09-16T09:10:55.000Z</time>
      </trkpt>
      <trkpt lat="46.72593" lon="-2.35037">
        <ele>4.3</ele>
        <time>2018-09-16T09:10:56.000Z</time>
      </trkpt>
      <trkpt lat="46.72594" lon="-2.35036">
        <ele>4.3</ele>
        <time>2018-09-16T09:10:57.000Z</time>
      </trkpt>
      <trkpt lat="46.72594" lon="-2.35035">
        <ele>4.3</ele>
        <time>2018-09-16T09:10:58.000Z</time>
      </trkpt>
      <trkpt lat="46.72595" lon="-2.35035">
        <ele>4.3</ele>
        <time>2018-09-16T09:10:59.000Z</time>
      </trkpt>
      <trkpt lat="46.72595" lon="-2.35035">
        <ele>4.3</ele>
        <time>2018-09-16T09:11:00.000Z</time>
      </trkpt>
      <trkpt lat="46.72595" lon="-2.35035">
        <ele>4.3</ele>
        <time>2018-09-16T09:11:01.000Z</time>
      </trkpt>
      <trkpt lat="46.72595" lon="-2.35036">
        <ele>4.3</ele>
        <time>2018-09-16T09:11:02.000Z</time>
      </trkpt>
      <trkpt lat="46.72595" lon="-2.35036">
        <ele>4.3</ele>
        <time>2018-09-16T09:11:03.000Z</time>
      </trkpt>
      <trkpt lat="46.72595" lon="-2.35037">
        <ele>4.3</ele>
        <time>2018-09-16T09:11:04.000Z</time>
      </trkpt>
      <trkpt lat="46.72594" lon="-2.35037">
        <ele>4.3</ele>
        <time>2018-09-16T09:11:05.000Z</time>
      </trkpt>
      <trkpt lat="46.72594" lon="-2.35038">
        <ele>4.3</ele>
        <time>2018-09-16T09:11:06.000Z</time>
      </trkpt>
      <trkpt lat="46.72594" lon="-2.35038">
        <ele>4.3</ele>
        <time>2018-09-16T09:11:07.000Z</time>
      </trkpt>
      <trkpt lat="46.72594" lon="-2.35038">
        <ele>4.3</ele>
        <time>2018-09-16T09:11:08.000Z</time>
      </trkpt>
      <trkpt lat="46.72594" lon="-2.35038">
        <ele>4.3</ele>
        <time>2018-09-16T09:11:09.000Z</time>
      </trkpt>
      <trkpt lat="46.72594" lon="-2.35037">
        <ele>4.3</ele>
        <time>2018-09-16T09:11:10.000Z</time>
      </trkpt>
      <trkpt lat="46.72594" lon="-2.35036">
        <ele>4.3</ele>
        <time>2018-09-16T09:11:11.000Z</time>
      </trkpt>
      <trkpt lat="46.72594" lon="-2.35034">
        <ele>4.3</ele>
        <time>2018-09-16T09:11:12.000Z</time>
      </trkpt>
      <trkpt lat="46.72594" lon="-2.35032">
        <ele>4.3</ele>
        <time>2018-09-16T09:11:13.000Z</time>
      </trkpt>
      <trkpt lat="46.72594" lon="-2.3503">
        <ele>4.2</ele>
        <time>2018-09-16T09:11:14.000Z</time>
      </trkpt>
      <trkpt lat="46.72593" lon="-2.35028">
        <ele>4.2</ele>
        <time>2018-09-16T09:11:15.000Z</time>
      </trkpt>
      <trkpt lat="46.72593" lon="-2.35026">
        <ele>4.2</ele>
        <time>2018-09-16T09:11:16.000Z</time>
      </trkpt>
      <trkpt lat="46.72593" lon="-2.35025">
        <ele>4.2</ele>
        <time>2018-09-16T09:11:17.000Z</time>
      </trkpt>
      <trkpt lat="46.72593" lon="-2.35024">
        <ele>4.2</ele>
        <time>2018-09-16T09:11:18.000Z</time>
      </trkpt>
      <trkpt lat="46.72593" lon="-2.35024">
        <ele>4.2</ele>
        <time>2018-09-16T09:11:19.000Z</time>
      </trkpt>
      <trkpt lat="46.72593" lon="-2.35024">
        <ele>4.2</ele>
        <time>2018-09-16T09:11:20.000Z</time>
      </trkpt>
      <trkpt lat="46.72593" lon="-2.35025">
        <ele>4.2</ele>
        <time>2018-09-16T09:11:21.000Z</time>
      </trkpt>
      <trkpt lat="46.72592" lon="-2.35026">
        <ele>4.2</ele>
        <time>2018-09-16T09:11:22.000Z</time>
      </trkpt>
      <trkpt lat="46.72592" lon="-2.35027">
        <ele>4.2</ele>
        <time>2018-09-16T09:11:23.000Z</time>
      </trkpt>
      <trkpt lat="46.72592" lon="-2.35029">
        <ele>4.2</ele>
        <time>2018-09-16T09:11:24.000Z</time>
      </trkpt>
      <trkpt lat="46.72591" lon="-2.3503">
        <ele>4.3</ele>
        <time>2018-09-16T09:11:25.000Z</time>
      </trkpt>
      <trkpt lat="46.72591" lon="-2.35031">
        <ele>4.3</ele>
        <time>2018-09-16T09:11:26.000Z</time>
      </trkpt>
      <trkpt lat="46.72591" lon="-2.35032">
        <ele>4.3</ele>
        <time>2018-09-16T09:11:27.000Z</time>
      </trkpt>
      <trkpt lat="46.72591" lon="-2.35033">
        <ele>4.3</ele>
        <time>2018-09-16T09:11:28.000Z</time>
      </trkpt>
      <trkpt lat="46.72591" lon="-2.35034">
        <ele>4.3</ele>
        <time>2018-09-16T09:11:29.000Z</time>
      </trkpt>
      <trkpt lat="46.72591" lon="-2.35034">
        <ele>4.3</ele>
        <time>2018-09-16T09:11:30.000Z</time>
      </trkpt>
      <trkpt lat="46.72591" lon="-2.35034">
        <ele>4.3</ele>
        <time>2018-09-16T09:11:31.000Z</time>
      </trkpt>
      <trkpt lat="46.72591" lon="-2.35034">
        <ele>4.3</ele>
        <time>2018-09-16T09:11:32.000Z</time>
      </trkpt>
      <trkpt lat="46.72591" lon="-2.35034">
        <ele>4.3</ele>
        <time>2018-09-16T09:11:33.000Z</time>
      </trkpt>
      <trkpt lat="46.72591" lon="-2.35034">
        <ele>4.3</ele>
        <time>2018-09-16T09:11:34.000Z</time>
      </trkpt>
      <trkpt lat="46.72591" lon="-2.35034">
        <ele>4.3</ele>
        <time>2018-09-16T09:11:35.000Z</time>
      </trkpt>
      <trkpt lat="46.72591" lon="-2.35034">
        <ele>4.3</ele>
        <time>2018-09-16T09:11:36.000Z</time>
      </trkpt>
      <trkpt lat="46.72591" lon="-2.35034">
        <ele>4.3</ele>
        <time>2018-09-16T09:11:37.000Z</time>
      </trkpt>
      <trkpt lat="46.72591" lon="-2.35034">
        <ele>4.3</ele>
        <time>2018-09-16T09:11:38.000Z</time>
      </trkpt>
      <trkpt lat="46.72591" lon="-2.35034">
        <ele>4.3</ele>
        <time>2018-09-16T09:11:45.000Z</time>
      </trkpt>
      <trkpt lat="46.72591" lon="-2.35036">
        <ele>4.3</ele>
        <time>2018-09-16T09:11:46.000Z</time>
      </trkpt>
      <trkpt lat="46.72591" lon="-2.35039">
        <ele>4.4</ele>
        <time>2018-09-16T09:11:47.000Z</time>
      </trkpt>
      <trkpt lat="46.72591" lon="-2.35044">
        <ele>4.4</ele>
        <time>2018-09-16T09:11:48.000Z</time>
      </trkpt>
      <trkpt lat="46.72591" lon="-2.35048">
        <ele>4.5</ele>
        <time>2018-09-16T09:11:49.000Z</time>
      </trkpt>
      <trkpt lat="46.72591" lon="-2.35051">
        <ele>4.5</ele>
        <time>2018-09-16T09:11:50.000Z</time>
      </trkpt>
      <trkpt lat="46.72591" lon="-2.35053">
        <ele>4.5</ele>
        <time>2018-09-16T09:11:51.000Z</time>
      </trkpt>
      <trkpt lat="46.72591" lon="-2.35055">
        <ele>4.6</ele>
        <time>2018-09-16T09:11:52.000Z</time>
      </trkpt>
      <trkpt lat="46.72591" lon="-2.35057">
        <ele>4.6</ele>
        <time>2018-09-16T09:11:53.000Z</time>
      </trkpt>
      <trkpt lat="46.72592" lon="-2.35058">
        <ele>4.6</ele>
        <time>2018-09-16T09:11:54.000Z</time>
      </trkpt>
      <trkpt lat="46.72592" lon="-2.35058">
        <ele>4.6</ele>
        <time>2018-09-16T09:11:55.000Z</time>
      </trkpt>
      <trkpt lat="46.72592" lon="-2.35059">
        <ele>4.6</ele>
        <time>2018-09-16T09:11:56.000Z</time>
      </trkpt>
      <trkpt lat="46.72592" lon="-2.35059">
        <ele>4.6</ele>
        <time>2018-09-16T09:11:57.000Z</time>
      </trkpt>
      <trkpt lat="46.72592" lon="-2.35059">
        <ele>4.6</ele>
        <time>2018-09-16T09:11:58.000Z</time>
      </trkpt>
      <trkpt lat="46.72592" lon="-2.35058">
        <ele>4.6</ele>
        <time>2018-09-16T09:11:59.000Z</time>
      </trkpt>
      <trkpt lat="46.72593" lon="-2.35058">
        <ele>4.6</ele>
        <time>2018-09-16T09:12:00.000Z</time>
      </trkpt>
      <trkpt lat="46.72594" lon="-2.35057">
        <ele>4.6</ele>
        <time>2018-09-16T09:12:01.000Z</time>
      </trkpt>
      <trkpt lat="46.72594" lon="-2.35056">
        <ele>4.5</ele>
        <time>2018-09-16T09:12:02.000Z</time>
      </trkpt>
      <trkpt lat="46.72595" lon="-2.35055">
        <ele>4.5</ele>
        <time>2018-09-16T09:12:03.000Z</time>
      </trkpt>
      <trkpt lat="46.72596" lon="-2.35054">
        <ele>4.5</ele>
        <time>2018-09-16T09:12:04.000Z</time>
      </trkpt>
      <trkpt lat="46.72597" lon="-2.35052">
        <ele>4.5</ele>
        <time>2018-09-16T09:12:05.000Z</time>
      </trkpt>
      <trkpt lat="46.72597" lon="-2.35051">
        <ele>4.4</ele>
        <time>2018-09-16T09:12:06.000Z</time>
      </trkpt>
      <trkpt lat="46.72597" lon="-2.35049">
        <ele>4.4</ele>
        <time>2018-09-16T09:12:07.000Z</time>
      </trkpt>
      <trkpt lat="46.72597" lon="-2.35047">
        <ele>4.4</ele>
        <time>2018-09-16T09:12:08.000Z</time>
      </trkpt>
      <trkpt lat="46.72597" lon="-2.35046">
        <ele>4.4</ele>
        <time>2018-09-16T09:12:09.000Z</time>
      </trkpt>
      <trkpt lat="46.72597" lon="-2.35044">
        <ele>4.4</ele>
        <time>2018-09-16T09:12:10.000Z</time>
      </trkpt>
      <trkpt lat="46.72597" lon="-2.35043">
        <ele>4.4</ele>
        <time>2018-09-16T09:12:11.000Z</time>
      </trkpt>
      <trkpt lat="46.72597" lon="-2.35043">
        <ele>4.3</ele>
        <time>2018-09-16T09:12:12.000Z</time>
      </trkpt>
      <trkpt lat="46.72597" lon="-2.35042">
        <ele>4.3</ele>
        <time>2018-09-16T09:12:13.000Z</time>
      </trkpt>
      <trkpt lat="46.72596" lon="-2.35042">
        <ele>4.3</ele>
        <time>2018-09-16T09:12:14.000Z</time>
      </trkpt>
      <trkpt lat="46.72596" lon="-2.35042">
        <ele>4.3</ele>
        <time>2018-09-16T09:12:15.000Z</time>
      </trkpt>
      <trkpt lat="46.72595" lon="-2.35042">
        <ele>4.4</ele>
        <time>2018-09-16T09:12:16.000Z</time>
      </trkpt>
      <trkpt lat="46.72595" lon="-2.35042">
        <ele>4.4</ele>
        <time>2018-09-16T09:12:17.000Z</time>
      </trkpt>
      <trkpt lat="46.72595" lon="-2.35042">
        <ele>4.4</ele>
        <time>2018-09-16T09:12:18.000Z</time>
      </trkpt>
      <trkpt lat="46.72594" lon="-2.35043">
        <ele>4.4</ele>
        <time>2018-09-16T09:12:19.000Z</time>
      </trkpt>
      <trkpt lat="46.72593" lon="-2.35043">
        <ele>4.4</ele>
        <time>2018-09-16T09:12:20.000Z</time>
      </trkpt>
      <trkpt lat="46.72593" lon="-2.35044">
        <ele>4.4</ele>
        <time>2018-09-16T09:12:21.000Z</time>
      </trkpt>
      <trkpt lat="46.72592" lon="-2.35045">
        <ele>4.4</ele>
        <time>2018-09-16T09:12:22.000Z</time>
      </trkpt>
      <trkpt lat="46.72592" lon="-2.35045">
        <ele>4.4</ele>
        <time>2018-09-16T09:12:23.000Z</time>
      </trkpt>
      <trkpt lat="46.72591" lon="-2.35046">
        <ele>4.5</ele>
        <time>2018-09-16T09:12:24.000Z</time>
      </trkpt>
      <trkpt lat="46.72591" lon="-2.35047">
        <ele>4.5</ele>
        <time>2018-09-16T09:12:25.000Z</time>
      </trkpt>
      <trkpt lat="46.7259" lon="-2.35048">
        <ele>4.5</ele>
        <time>2018-09-16T09:12:26.000Z</time>
      </trkpt>
      <trkpt lat="46.72589" lon="-2.35048">
        <ele>4.5</ele>
        <time>2018-09-16T09:12:27.000Z</time>
      </trkpt>
      <trkpt lat="46.72589" lon="-2.35049">
        <ele>4.5</ele>
        <time>2018-09-16T09:12:28.000Z</time>
      </trkpt>
      <trkpt lat="46.72588" lon="-2.35049">
        <ele>4.5</ele>
        <time>2018-09-16T09:12:29.000Z</time>
      </trkpt>
      <trkpt lat="46.72588" lon="-2.35049">
        <ele>4.5</ele>
        <time>2018-09-16T09:12:30.000Z</time>
      </trkpt>
      <trkpt lat="46.72587" lon="-2.35049">
        <ele>4.5</ele>
        <time>2018-09-16T09:12:31.000Z</time>
      </trkpt>
      <trkpt lat="46.72587" lon="-2.35049">
        <ele>4.5</ele>
        <time>2018-09-16T09:12:32.000Z</time>
      </trkpt>
      <trkpt lat="46.72586" lon="-2.35048">
        <ele>4.5</ele>
        <time>2018-09-16T09:12:33.000Z</time>
      </trkpt>
      <trkpt lat="46.72586" lon="-2.35047">
        <ele>4.5</ele>
        <time>2018-09-16T09:12:34.000Z</time>
      </trkpt>
      <trkpt lat="46.72586" lon="-2.35046">
        <ele>4.5</ele>
        <time>2018-09-16T09:12:35.000Z</time>
      </trkpt>
      <trkpt lat="46.72586" lon="-2.35045">
        <ele>4.5</ele>
        <time>2018-09-16T09:14:32.000Z</time>
      </trkpt>
      <trkpt lat="46.72586" lon="-2.35044">
        <ele>4.5</ele>
        <time>2018-09-16T09:14:33.000Z</time>
      </trkpt>
      <trkpt lat="46.72586" lon="-2.35043">
        <ele>4.5</ele>
        <time>2018-09-16T09:14:34.000Z</time>
      </trkpt>
      <trkpt lat="46.72586" lon="-2.35043">
        <ele>4.5</ele>
        <time>2018-09-16T09:14:35.000Z</time>
      </trkpt>
      <trkpt lat="46.72586" lon="-2.35042">
        <ele>4.5</ele>
        <time>2018-09-16T09:14:36.000Z</time>
      </trkpt>
      <trkpt lat="46.72586" lon="-2.35042">
        <ele>4.5</ele>
        <time>2018-09-16T09:14:37.000Z</time>
      </trkpt>
      <trkpt lat="46.72586" lon="-2.35042">
        <ele>4.5</ele>
        <time>2018-09-16T09:14:38.000Z</time>
      </trkpt>
      <trkpt lat="46.72587" lon="-2.35042">
        <ele>4.5</ele>
        <time>2018-09-16T09:14:39.000Z</time>
      </trkpt>
      <trkpt lat="46.72587" lon="-2.35042">
        <ele>4.5</ele>
        <time>2018-09-16T09:14:40.000Z</time>
      </trkpt>
      <trkpt lat="46.72588" lon="-2.35042">
        <ele>4.5</ele>
        <time>2018-09-16T09:14:41.000Z</time>
      </trkpt>
      <trkpt lat="46.72588" lon="-2.35042">
        <ele>4.4</ele>
        <time>2018-09-16T09:14:42.000Z</time>
      </trkpt>
      <trkpt lat="46.72589" lon="-2.35042">
        <ele>4.4</ele>
        <time>2018-09-16T09:14:43.000Z</time>
      </trkpt>
      <trkpt lat="46.7259" lon="-2.35043">
        <ele>4.4</ele>
        <time>2018-09-16T09:14:44.000Z</time>
      </trkpt>
      <trkpt lat="46.72591" lon="-2.35044">
        <ele>4.4</ele>
        <time>2018-09-16T09:14:45.000Z</time>
      </trkpt>
      <trkpt lat="46.72592" lon="-2.35045">
        <ele>4.4</ele>
        <time>2018-09-16T09:14:46.000Z</time>
      </trkpt>
      <trkpt lat="46.72592" lon="-2.35045">
        <ele>4.4</ele>
        <time>2018-09-16T09:14:47.000Z</time>
      </trkpt>
      <trkpt lat="46.72593" lon="-2.35046">
        <ele>4.4</ele>
        <time>2018-09-16T09:14:48.000Z</time>
      </trkpt>
      <trkpt lat="46.72593" lon="-2.35046">
        <ele>4.4</ele>
        <time>2018-09-16T09:14:49.000Z</time>
      </trkpt>
      <trkpt lat="46.72594" lon="-2.35046">
        <ele>4.4</ele>
        <time>2018-09-16T09:14:50.000Z</time>
      </trkpt>
      <trkpt lat="46.72594" lon="-2.35046">
        <ele>4.4</ele>
        <time>2018-09-16T09:14:51.000Z</time>
      </trkpt>
      <trkpt lat="46.72594" lon="-2.35047">
        <ele>4.4</ele>
        <time>2018-09-16T09:14:52.000Z</time>
      </trkpt>
      <trkpt lat="46.72594" lon="-2.35047">
        <ele>4.4</ele>
        <time>2018-09-16T09:14:53.000Z</time>
      </trkpt>
      <trkpt lat="46.72595" lon="-2.35048">
        <ele>4.4</ele>
        <time>2018-09-16T09:14:54.000Z</time>
      </trkpt>
      <trkpt lat="46.72595" lon="-2.35049">
        <ele>4.5</ele>
        <time>2018-09-16T09:14:55.000Z</time>
      </trkpt>
      <trkpt lat="46.72595" lon="-2.3505">
        <ele>4.5</ele>
        <time>2018-09-16T09:14:56.000Z</time>
      </trkpt>
      <trkpt lat="46.72596" lon="-2.35051">
        <ele>4.5</ele>
        <time>2018-09-16T09:14:57.000Z</time>
      </trkpt>
      <trkpt lat="46.72596" lon="-2.35052">
        <ele>4.5</ele>
        <time>2018-09-16T09:14:58.000Z</time>
      </trkpt>
      <trkpt lat="46.72596" lon="-2.35053">
        <ele>4.5</ele>
        <time>2018-09-16T09:14:59.000Z</time>
      </trkpt>
      <trkpt lat="46.72596" lon="-2.35053">
        <ele>4.5</ele>
        <time>2018-09-16T09:15:00.000Z</time>
      </trkpt>
      <trkpt lat="46.72595" lon="-2.35053">
        <ele>4.5</ele>
        <time>2018-09-16T09:15:01.000Z</time>
      </trkpt>
      <trkpt lat="46.72594" lon="-2.35053">
        <ele>4.5</ele>
        <time>2018-09-16T09:15:02.000Z</time>
      </trkpt>
      <trkpt lat="46.72594" lon="-2.35052">
        <ele>4.5</ele>
        <time>2018-09-16T09:15:03.000Z</time>
      </trkpt>
      <trkpt lat="46.72593" lon="-2.35051">
        <ele>4.5</ele>
        <time>2018-09-16T09:15:04.000Z</time>
      </trkpt>
      <trkpt lat="46.72592" lon="-2.3505">
        <ele>4.5</ele>
        <time>2018-09-16T09:15:05.000Z</time>
      </trkpt>
      <trkpt lat="46.72592" lon="-2.35049">
        <ele>4.5</ele>
        <time>2018-09-16T09:15:06.000Z</time>
      </trkpt>
      <trkpt lat="46.72592" lon="-2.35048">
        <ele>4.5</ele>
        <time>2018-09-16T09:15:07.000Z</time>
      </trkpt>
      <trkpt lat="46.72593" lon="-2.35047">
        <ele>4.5</ele>
        <time>2018-09-16T09:15:08.000Z</time>
      </trkpt>
      <trkpt lat="46.72594" lon="-2.35047">
        <ele>4.4</ele>
        <time>2018-09-16T09:15:09.000Z</time>
      </trkpt>
      <trkpt lat="46.72595" lon="-2.35046">
        <ele>4.4</ele>
        <time>2018-09-16T09:15:10.000Z</time>
      </trkpt>
      <trkpt lat="46.72596" lon="-2.35046">
        <ele>4.4</ele>
        <time>2018-09-16T09:15:11.000Z</time>
      </trkpt>
      <trkpt lat="46.72597" lon="-2.35045">
        <ele>4.4</ele>
        <time>2018-09-16T09:15:12.000Z</time>
      </trkpt>
      <trkpt lat="46.72598" lon="-2.35045">
        <ele>4.4</ele>
        <time>2018-09-16T09:15:13.000Z</time>
      </trkpt>
      <trkpt lat="46.72599" lon="-2.35045">
        <ele>4.4</ele>
        <time>2018-09-16T09:15:14.000Z</time>
      </trkpt>
      <trkpt lat="46.72599" lon="-2.35045">
        <ele>4.4</ele>
        <time>2018-09-16T09:15:15.000Z</time>
      </trkpt>
      <trkpt lat="46.72599" lon="-2.35046">
        <ele>4.4</ele>
        <time>2018-09-16T09:15:16.000Z</time>
      </trkpt>
      <trkpt lat="46.72598" lon="-2.35046">
        <ele>4.4</ele>
        <time>2018-09-16T09:15:17.000Z</time>
      </trkpt>
      <trkpt lat="46.72597" lon="-2.35047">
        <ele>4.4</ele>
        <time>2018-09-16T09:15:18.000Z</time>
      </trkpt>
      <trkpt lat="46.72597" lon="-2.35048">
        <ele>4.4</ele>
        <time>2018-09-16T09:15:19.000Z</time>
      </trkpt>
      <trkpt lat="46.72596" lon="-2.35048">
        <ele>4.4</ele>
        <time>2018-09-16T09:15:20.000Z</time>
      </trkpt>
      <trkpt lat="46.72595" lon="-2.35049">
        <ele>4.4</ele>
        <time>2018-09-16T09:15:21.000Z</time>
      </trkpt>
      <trkpt lat="46.72595" lon="-2.35049">
        <ele>4.5</ele>
        <time>2018-09-16T09:15:22.000Z</time>
      </trkpt>
      <trkpt lat="46.72595" lon="-2.3505">
        <ele>4.5</ele>
        <time>2018-09-16T09:15:23.000Z</time>
      </trkpt>
      <trkpt lat="46.72594" lon="-2.3505">
        <ele>4.5</ele>
        <time>2018-09-16T09:15:24.000Z</time>
      </trkpt>
      <trkpt lat="46.72594" lon="-2.3505">
        <ele>4.5</ele>
        <time>2018-09-16T09:15:25.000Z</time>
      </trkpt>
      <trkpt lat="46.72594" lon="-2.3505">
        <ele>4.5</ele>
        <time>2018-09-16T09:15:26.000Z</time>
      </trkpt>
      <trkpt lat="46.72594" lon="-2.3505">
        <ele>4.5</ele>
        <time>2018-09-16T09:15:27.000Z</time>
      </trkpt>
      <trkpt lat="46.72594" lon="-2.3505">
        <ele>4.5</ele>
        <time>2018-09-16T09:15:28.000Z</time>
      </trkpt>
      <trkpt lat="46.72594" lon="-2.3505">
        <ele>4.5</ele>
        <time>2018-09-16T09:15:29.000Z</time>
      </trkpt>
      <trkpt lat="46.72594" lon="-2.3505">
        <ele>4.5</ele>
        <time>2018-09-16T09:15:30.000Z</time>
      </trkpt>
      <trkpt lat="46.72594" lon="-2.3505">
        <ele>4.5</ele>
        <time>2018-09-16T09:15:31.000Z</time>
      </trkpt>
      <trkpt lat="46.72594" lon="-2.3505">
        <ele>4.5</ele>
        <time>2018-09-16T09:15:32.000Z</time>
      </trkpt>
      <trkpt lat="46.72594" lon="-2.35051">
        <ele>4.5</ele>
        <time>2018-09-16T09:15:33.000Z</time>
      </trkpt>
      <trkpt lat="46.72594" lon="-2.35051">
        <ele>4.5</ele>
        <time>2018-09-16T09:15:34.000Z</time>
      </trkpt>
      <trkpt lat="46.72593" lon="-2.35052">
        <ele>4.5</ele>
        <time>2018-09-16T09:15:35.000Z</time>
      </trkpt>
      <trkpt lat="46.72593" lon="-2.35052">
        <ele>4.5</ele>
        <time>2018-09-16T09:15:36.000Z</time>
      </trkpt>
      <trkpt lat="46.72593" lon="-2.35054">
        <ele>4.5</ele>
        <time>2018-09-16T09:15:37.000Z</time>
      </trkpt>
      <trkpt lat="46.72593" lon="-2.35055">
        <ele>4.5</ele>
        <time>2018-09-16T09:15:38.000Z</time>
      </trkpt>
      <trkpt lat="46.72593" lon="-2.35056">
        <ele>4.6</ele>
        <time>2018-09-16T09:15:39.000Z</time>
      </trkpt>
      <trkpt lat="46.72592" lon="-2.35057">
        <ele>4.6</ele>
        <time>2018-09-16T09:15:48.000Z</time>
      </trkpt>
      <trkpt lat="46.72592" lon="-2.35056">
        <ele>4.6</ele>
        <time>2018-09-16T09:15:49.000Z</time>
      </trkpt>
      <trkpt lat="46.72592" lon="-2.35056">
        <ele>4.6</ele>
        <time>2018-09-16T09:15:50.000Z</time>
      </trkpt>
      <trkpt lat="46.72591" lon="-2.35055">
        <ele>4.6</ele>
        <time>2018-09-16T09:15:51.000Z</time>
      </trkpt>
      <trkpt lat="46.72591" lon="-2.35054">
        <ele>4.6</ele>
        <time>2018-09-16T09:15:52.000Z</time>
      </trkpt>
      <trkpt lat="46.72591" lon="-2.35053">
        <ele>4.5</ele>
        <time>2018-09-16T09:15:53.000Z</time>
      </trkpt>
      <trkpt lat="46.7259" lon="-2.35052">
        <ele>4.5</ele>
        <time>2018-09-16T09:15:54.000Z</time>
      </trkpt>
      <trkpt lat="46.7259" lon="-2.35051">
        <ele>4.5</ele>
        <time>2018-09-16T09:15:55.000Z</time>
      </trkpt>
      <trkpt lat="46.72589" lon="-2.35051">
        <ele>4.5</ele>
        <time>2018-09-16T09:15:56.000Z</time>
      </trkpt>
      <trkpt lat="46.72589" lon="-2.3505">
        <ele>4.5</ele>
        <time>2018-09-16T09:15:57.000Z</time>
      </trkpt>
      <trkpt lat="46.72589" lon="-2.35049">
        <ele>4.5</ele>
        <time>2018-09-16T09:15:58.000Z</time>
      </trkpt>
      <trkpt lat="46.72589" lon="-2.35049">
        <ele>4.5</ele>
        <time>2018-09-16T09:15:59.000Z</time>
      </trkpt>
      <trkpt lat="46.7259" lon="-2.35049">
        <ele>4.5</ele>
        <time>2018-09-16T09:16:00.000Z</time>
      </trkpt>
      <trkpt lat="46.72591" lon="-2.35048">
        <ele>4.5</ele>
        <time>2018-09-16T09:16:01.000Z</time>
      </trkpt>
      <trkpt lat="46.72591" lon="-2.35048">
        <ele>4.5</ele>
        <time>2018-09-16T09:16:02.000Z</time>
      </trkpt>
      <trkpt lat="46.72591" lon="-2.35048">
        <ele>4.5</ele>
        <time>2018-09-16T09:16:03.000Z</time>
      </trkpt>
      <trkpt lat="46.72591" lon="-2.35048">
        <ele>4.5</ele>
        <time>2018-09-16T09:16:04.000Z</time>
      </trkpt>
      <trkpt lat="46.72591" lon="-2.35049">
        <ele>4.5</ele>
        <time>2018-09-16T09:16:05.000Z</time>
      </trkpt>
      <trkpt lat="46.7259" lon="-2.35049">
        <ele>4.5</ele>
        <time>2018-09-16T09:16:06.000Z</time>
      </trkpt>
      <trkpt lat="46.72589" lon="-2.3505">
        <ele>4.5</ele>
        <time>2018-09-16T09:16:07.000Z</time>
      </trkpt>
      <trkpt lat="46.72588" lon="-2.3505">
        <ele>4.5</ele>
        <time>2018-09-16T09:16:08.000Z</time>
      </trkpt>
      <trkpt lat="46.72588" lon="-2.35051">
        <ele>4.6</ele>
        <time>2018-09-16T09:16:09.000Z</time>
      </trkpt>
      <trkpt lat="46.72587" lon="-2.35051">
        <ele>4.6</ele>
        <time>2018-09-16T09:16:10.000Z</time>
      </trkpt>
      <trkpt lat="46.72587" lon="-2.35051">
        <ele>4.6</ele>
        <time>2018-09-16T09:16:11.000Z</time>
      </trkpt>
      <trkpt lat="46.72587" lon="-2.35051">
        <ele>4.6</ele>
        <time>2018-09-16T09:16:12.000Z</time>
      </trkpt>
      <trkpt lat="46.72587" lon="-2.35052">
        <ele>4.6</ele>
        <time>2018-09-16T09:16:13.000Z</time>
      </trkpt>
      <trkpt lat="46.72587" lon="-2.35053">
        <ele>4.6</ele>
        <time>2018-09-16T09:16:14.000Z</time>
      </trkpt>
      <trkpt lat="46.72587" lon="-2.35054">
        <ele>4.6</ele>
        <time>2018-09-16T09:16:15.000Z</time>
      </trkpt>
      <trkpt lat="46.72586" lon="-2.35055">
        <ele>4.6</ele>
        <time>2018-09-16T09:16:16.000Z</time>
      </trkpt>
      <trkpt lat="46.72586" lon="-2.35056">
        <ele>4.6</ele>
        <time>2018-09-16T09:16:17.000Z</time>
      </trkpt>
      <trkpt lat="46.72586" lon="-2.35058">
        <ele>4.7</ele>
        <time>2018-09-16T09:16:18.000Z</time>
      </trkpt>
      <trkpt lat="46.72586" lon="-2.35059">
        <ele>4.7</ele>
        <time>2018-09-16T09:16:19.000Z</time>
      </trkpt>
      <trkpt lat="46.72586" lon="-2.3506">
        <ele>4.7</ele>
        <time>2018-09-16T09:16:20.000Z</time>
      </trkpt>
      <trkpt lat="46.72586" lon="-2.35061">
        <ele>4.7</ele>
        <time>2018-09-16T09:16:21.000Z</time>
      </trkpt>
      <trkpt lat="46.72586" lon="-2.35062">
        <ele>4.7</ele>
        <time>2018-09-16T09:16:22.000Z</time>
      </trkpt>
      <trkpt lat="46.72586" lon="-2.35062">
        <ele>4.7</ele>
        <time>2018-09-16T09:16:23.000Z</time>
      </trkpt>
      <trkpt lat="46.72586" lon="-2.35063">
        <ele>4.7</ele>
        <time>2018-09-16T09:16:24.000Z</time>
      </trkpt>
      <trkpt lat="46.72586" lon="-2.35062">
        <ele>4.7</ele>
        <time>2018-09-16T09:16:25.000Z</time>
      </trkpt>
      <trkpt lat="46.72586" lon="-2.35062">
        <ele>4.7</ele>
        <time>2018-09-16T09:16:26.000Z</time>
      </trkpt>
      <trkpt lat="46.72586" lon="-2.35061">
        <ele>4.7</ele>
        <time>2018-09-16T09:16:27.000Z</time>
      </trkpt>
      <trkpt lat="46.72586" lon="-2.35061">
        <ele>4.7</ele>
        <time>2018-09-16T09:16:28.000Z</time>
      </trkpt>
      <trkpt lat="46.72586" lon="-2.3506">
        <ele>4.7</ele>
        <time>2018-09-16T09:16:29.000Z</time>
      </trkpt>
      <trkpt lat="46.72587" lon="-2.35058">
        <ele>4.7</ele>
        <time>2018-09-16T09:16:30.000Z</time>
      </trkpt>
      <trkpt lat="46.72587" lon="-2.35057">
        <ele>4.6</ele>
        <time>2018-09-16T09:16:31.000Z</time>
      </trkpt>
      <trkpt lat="46.72588" lon="-2.35056">
        <ele>4.6</ele>
        <time>2018-09-16T09:16:32.000Z</time>
      </trkpt>
      <trkpt lat="46.72588" lon="-2.35055">
        <ele>4.6</ele>
        <time>2018-09-16T09:16:33.000Z</time>
      </trkpt>
      <trkpt lat="46.72588" lon="-2.35055">
        <ele>4.6</ele>
        <time>2018-09-16T09:16:34.000Z</time>
      </trkpt>
      <trkpt lat="46.72588" lon="-2.35054">
        <ele>4.6</ele>
        <time>2018-09-16T09:16:35.000Z</time>
      </trkpt>
      <trkpt lat="46.72588" lon="-2.35054">
        <ele>4.6</ele>
        <time>2018-09-16T09:16:36.000Z</time>
      </trkpt>
      <trkpt lat="46.72588" lon="-2.35053">
        <ele>4.6</ele>
        <time>2018-09-16T09:16:37.000Z</time>
      </trkpt>
      <trkpt lat="46.72587" lon="-2.35052">
        <ele>4.6</ele>
        <time>2018-09-16T09:16:38.000Z</time>
      </trkpt>
      <trkpt lat="46.72587" lon="-2.35051">
        <ele>4.6</ele>
        <time>2018-09-16T09:16:39.000Z</time>
      </trkpt>
      <trkpt lat="46.72587" lon="-2.35049">
        <ele>4.6</ele>
        <time>2018-09-16T09:16:40.000Z</time>
      </trkpt>
      <trkpt lat="46.72586" lon="-2.35048">
        <ele>4.5</ele>
        <time>2018-09-16T09:16:41.000Z</time>
      </trkpt>
      <trkpt lat="46.72586" lon="-2.35046">
        <ele>4.5</ele>
        <time>2018-09-16T09:16:42.000Z</time>
      </trkpt>
      <trkpt lat="46.72585" lon="-2.35045">
        <ele>4.5</ele>
        <time>2018-09-16T09:16:43.000Z</time>
      </trkpt>
      <trkpt lat="46.72585" lon="-2.35043">
        <ele>4.5</ele>
        <time>2018-09-16T09:16:44.000Z</time>
      </trkpt>
      <trkpt lat="46.72584" lon="-2.35043">
        <ele>4.5</ele>
        <time>2018-09-16T09:16:45.000Z</time>
      </trkpt>
      <trkpt lat="46.72583" lon="-2.35042">
        <ele>4.5</ele>
        <time>2018-09-16T09:16:46.000Z</time>
      </trkpt>
      <trkpt lat="46.72582" lon="-2.35041">
        <ele>4.5</ele>
        <time>2018-09-16T09:16:47.000Z</time>
      </trkpt>
      <trkpt lat="46.72581" lon="-2.35041">
        <ele>4.5</ele>
        <time>2018-09-16T09:16:48.000Z</time>
      </trkpt>
      <trkpt lat="46.72581" lon="-2.35041">
        <ele>4.6</ele>
        <time>2018-09-16T09:16:49.000Z</time>
      </trkpt>
      <trkpt lat="46.7258" lon="-2.35041">
        <ele>4.6</ele>
        <time>2018-09-16T09:16:50.000Z</time>
      </trkpt>
      <trkpt lat="46.72579" lon="-2.3504">
        <ele>4.6</ele>
        <time>2018-09-16T09:16:51.000Z</time>
      </trkpt>
      <trkpt lat="46.72578" lon="-2.3504">
        <ele>4.6</ele>
        <time>2018-09-16T09:16:52.000Z</time>
      </trkpt>
      <trkpt lat="46.72577" lon="-2.3504">
        <ele>4.6</ele>
        <time>2018-09-16T09:16:53.000Z</time>
      </trkpt>
      <trkpt lat="46.72576" lon="-2.3504">
        <ele>4.7</ele>
        <time>2018-09-16T09:16:54.000Z</time>
      </trkpt>
      <trkpt lat="46.72575" lon="-2.3504">
        <ele>4.7</ele>
        <time>2018-09-16T09:16:55.000Z</time>
      </trkpt>
      <trkpt lat="46.72574" lon="-2.35039">
        <ele>4.7</ele>
        <time>2018-09-16T09:16:56.000Z</time>
      </trkpt>
      <trkpt lat="46.72573" lon="-2.35039">
        <ele>4.7</ele>
        <time>2018-09-16T09:16:57.000Z</time>
      </trkpt>
      <trkpt lat="46.72572" lon="-2.35039">
        <ele>4.7</ele>
        <time>2018-09-16T09:16:58.000Z</time>
      </trkpt>
      <trkpt lat="46.72571" lon="-2.35039">
        <ele>4.8</ele>
        <time>2018-09-16T09:16:59.000Z</time>
      </trkpt>
      <trkpt lat="46.7257" lon="-2.35038">
        <ele>4.8</ele>
        <time>2018-09-16T09:17:00.000Z</time>
      </trkpt>
      <trkpt lat="46.72568" lon="-2.35038">
        <ele>4.8</ele>
        <time>2018-09-16T09:17:01.000Z</time>
      </trkpt>
      <trkpt lat="46.72567" lon="-2.35037">
        <ele>4.8</ele>
        <time>2018-09-16T09:17:02.000Z</time>
      </trkpt>
      <trkpt lat="46.72566" lon="-2.35037">
        <ele>4.9</ele>
        <time>2018-09-16T09:17:03.000Z</time>
      </trkpt>
      <trkpt lat="46.72565" lon="-2.35036">
        <ele>4.9</ele>
        <time>2018-09-16T09:17:04.000Z</time>
      </trkpt>
      <trkpt lat="46.72564" lon="-2.35036">
        <ele>4.9</ele>
        <time>2018-09-16T09:17:05.000Z</time>
      </trkpt>
      <trkpt lat="46.72563" lon="-2.35035">
        <ele>4.9</ele>
        <time>2018-09-16T09:17:06.000Z</time>
      </trkpt>
      <trkpt lat="46.72562" lon="-2.35035">
        <ele>4.9</ele>
        <time>2018-09-16T09:17:07.000Z</time>
      </trkpt>
      <trkpt lat="46.72561" lon="-2.35034">
        <ele>5</ele>
        <time>2018-09-16T09:17:08.000Z</time>
      </trkpt>
      <trkpt lat="46.7256" lon="-2.35034">
        <ele>5</ele>
        <time>2018-09-16T09:17:09.000Z</time>
      </trkpt>
      <trkpt lat="46.72559" lon="-2.35033">
        <ele>5</ele>
        <time>2018-09-16T09:17:10.000Z</time>
      </trkpt>
      <trkpt lat="46.72558" lon="-2.35033">
        <ele>5</ele>
        <time>2018-09-16T09:17:11.000Z</time>
      </trkpt>
      <trkpt lat="46.72557" lon="-2.35032">
        <ele>5</ele>
        <time>2018-09-16T09:17:12.000Z</time>
      </trkpt>
      <trkpt lat="46.72556" lon="-2.35031">
        <ele>5</ele>
        <time>2018-09-16T09:17:13.000Z</time>
      </trkpt>
      <trkpt lat="46.72555" lon="-2.35031">
        <ele>5</ele>
        <time>2018-09-16T09:17:14.000Z</time>
      </trkpt>
      <trkpt lat="46.72554" lon="-2.3503">
        <ele>5.1</ele>
        <time>2018-09-16T09:17:15.000Z</time>
      </trkpt>
      <trkpt lat="46.72553" lon="-2.35029">
        <ele>5.1</ele>
        <time>2018-09-16T09:17:16.000Z</time>
      </trkpt>
      <trkpt lat="46.72552" lon="-2.35028">
        <ele>5.1</ele>
        <time>2018-09-16T09:17:17.000Z</time>
      </trkpt>
      <trkpt lat="46.72551" lon="-2.35027">
        <ele>5.1</ele>
        <time>2018-09-16T09:17:18.000Z</time>
      </trkpt>
      <trkpt lat="46.7255" lon="-2.35026">
        <ele>5.1</ele>
        <time>2018-09-16T09:17:19.000Z</time>
      </trkpt>
      <trkpt lat="46.7255" lon="-2.35026">
        <ele>5.1</ele>
        <time>2018-09-16T09:17:20.000Z</time>
      </trkpt>
      <trkpt lat="46.72549" lon="-2.35025">
        <ele>5.1</ele>
        <time>2018-09-16T09:17:21.000Z</time>
      </trkpt>
      <trkpt lat="46.72548" lon="-2.35025">
        <ele>5.1</ele>
        <time>2018-09-16T09:17:22.000Z</time>
      </trkpt>
      <trkpt lat="46.72548" lon="-2.35024">
        <ele>5.1</ele>
        <time>2018-09-16T09:17:23.000Z</time>
      </trkpt>
      <trkpt lat="46.72547" lon="-2.35024">
        <ele>5.2</ele>
        <time>2018-09-16T09:17:24.000Z</time>
      </trkpt>
      <trkpt lat="46.72546" lon="-2.35024">
        <ele>5.2</ele>
        <time>2018-09-16T09:17:25.000Z</time>
      </trkpt>
      <trkpt lat="46.72545" lon="-2.35024">
        <ele>5.2</ele>
        <time>2018-09-16T09:17:26.000Z</time>
      </trkpt>
      <trkpt lat="46.72544" lon="-2.35024">
        <ele>5.2</ele>
        <time>2018-09-16T09:17:27.000Z</time>
      </trkpt>
      <trkpt lat="46.72543" lon="-2.35023">
        <ele>5.3</ele>
        <time>2018-09-16T09:17:28.000Z</time>
      </trkpt>
      <trkpt lat="46.72542" lon="-2.35023">
        <ele>5.3</ele>
        <time>2018-09-16T09:17:29.000Z</time>
      </trkpt>
      <trkpt lat="46.72541" lon="-2.35023">
        <ele>5.3</ele>
        <time>2018-09-16T09:17:30.000Z</time>
      </trkpt>
      <trkpt lat="46.7254" lon="-2.35023">
        <ele>5.3</ele>
        <time>2018-09-16T09:17:31.000Z</time>
      </trkpt>
      <trkpt lat="46.7254" lon="-2.35022">
        <ele>5.3</ele>
        <time>2018-09-16T09:17:32.000Z</time>
      </trkpt>
      <trkpt lat="46.72539" lon="-2.35022">
        <ele>5.3</ele>
        <time>2018-09-16T09:17:33.000Z</time>
      </trkpt>
      <trkpt lat="46.72539" lon="-2.35022">
        <ele>5.3</ele>
        <time>2018-09-16T09:17:34.000Z</time>
      </trkpt>
      <trkpt lat="46.72539" lon="-2.35021">
        <ele>5.3</ele>
        <time>2018-09-16T09:17:35.000Z</time>
      </trkpt>
      <trkpt lat="46.72539" lon="-2.35021">
        <ele>5.3</ele>
        <time>2018-09-16T09:17:36.000Z</time>
      </trkpt>
      <trkpt lat="46.72539" lon="-2.35021">
        <ele>5.3</ele>
        <time>2018-09-16T09:17:37.000Z</time>
      </trkpt>
      <trkpt lat="46.72538" lon="-2.35021">
        <ele>5.3</ele>
        <time>2018-09-16T09:17:38.000Z</time>
      </trkpt>
      <trkpt lat="46.72538" lon="-2.35021">
        <ele>5.3</ele>
        <time>2018-09-16T09:17:39.000Z</time>
      </trkpt>
      <trkpt lat="46.72537" lon="-2.35021">
        <ele>5.4</ele>
        <time>2018-09-16T09:17:40.000Z</time>
      </trkpt>
      <trkpt lat="46.72536" lon="-2.3502">
        <ele>5.4</ele>
        <time>2018-09-16T09:17:41.000Z</time>
      </trkpt>
      <trkpt lat="46.72535" lon="-2.35019">
        <ele>5.4</ele>
        <time>2018-09-16T09:17:42.000Z</time>
      </trkpt>
      <trkpt lat="46.72534" lon="-2.35019">
        <ele>5.4</ele>
        <time>2018-09-16T09:17:43.000Z</time>
      </trkpt>
      <trkpt lat="46.72533" lon="-2.35018">
        <ele>5.4</ele>
        <time>2018-09-16T09:17:44.000Z</time>
      </trkpt>
      <trkpt lat="46.72531" lon="-2.35018">
        <ele>5.5</ele>
        <time>2018-09-16T09:17:45.000Z</time>
      </trkpt>
      <trkpt lat="46.72531" lon="-2.35017">
        <ele>5.5</ele>
        <time>2018-09-16T09:17:46.000Z</time>
      </trkpt>
      <trkpt lat="46.7253" lon="-2.35017">
        <ele>5.5</ele>
        <time>2018-09-16T09:17:47.000Z</time>
      </trkpt>
      <trkpt lat="46.72529" lon="-2.35017">
        <ele>5.5</ele>
        <time>2018-09-16T09:17:48.000Z</time>
      </trkpt>
      <trkpt lat="46.72529" lon="-2.35017">
        <ele>5.5</ele>
        <time>2018-09-16T09:17:49.000Z</time>
      </trkpt>
      <trkpt lat="46.72529" lon="-2.35017">
        <ele>5.5</ele>
        <time>2018-09-16T09:17:50.000Z</time>
      </trkpt>
      <trkpt lat="46.72528" lon="-2.35017">
        <ele>5.5</ele>
        <time>2018-09-16T09:17:51.000Z</time>
      </trkpt>
      <trkpt lat="46.72528" lon="-2.35017">
        <ele>5.5</ele>
        <time>2018-09-16T09:17:52.000Z</time>
      </trkpt>
      <trkpt lat="46.72528" lon="-2.35018">
        <ele>5.5</ele>
        <time>2018-09-16T09:17:53.000Z</time>
      </trkpt>
      <trkpt lat="46.72528" lon="-2.35018">
        <ele>5.5</ele>
        <time>2018-09-16T09:17:54.000Z</time>
      </trkpt>
      <trkpt lat="46.72528" lon="-2.35018">
        <ele>5.5</ele>
        <time>2018-09-16T09:17:55.000Z</time>
      </trkpt>
      <trkpt lat="46.72528" lon="-2.35019">
        <ele>5.6</ele>
        <time>2018-09-16T09:17:56.000Z</time>
      </trkpt>
      <trkpt lat="46.72528" lon="-2.35019">
        <ele>5.6</ele>
        <time>2018-09-16T09:17:57.000Z</time>
      </trkpt>
      <trkpt lat="46.72528" lon="-2.35019">
        <ele>5.6</ele>
        <time>2018-09-16T09:17:58.000Z</time>
      </trkpt>
      <trkpt lat="46.72528" lon="-2.3502">
        <ele>5.6</ele>
        <time>2018-09-16T09:17:59.000Z</time>
      </trkpt>
      <trkpt lat="46.72528" lon="-2.3502">
        <ele>5.6</ele>
        <time>2018-09-16T09:18:00.000Z</time>
      </trkpt>
      <trkpt lat="46.72528" lon="-2.3502">
        <ele>5.6</ele>
        <time>2018-09-16T09:18:01.000Z</time>
      </trkpt>
      <trkpt lat="46.72528" lon="-2.3502">
        <ele>5.6</ele>
        <time>2018-09-16T09:18:02.000Z</time>
      </trkpt>
      <trkpt lat="46.72527" lon="-2.35021">
        <ele>5.6</ele>
        <time>2018-09-16T09:18:03.000Z</time>
      </trkpt>
      <trkpt lat="46.72527" lon="-2.35021">
        <ele>5.6</ele>
        <time>2018-09-16T09:18:04.000Z</time>
      </trkpt>
      <trkpt lat="46.72527" lon="-2.35021">
        <ele>5.6</ele>
        <time>2018-09-16T09:18:05.000Z</time>
      </trkpt>
      <trkpt lat="46.72527" lon="-2.35021">
        <ele>5.6</ele>
        <time>2018-09-16T09:18:06.000Z</time>
      </trkpt>
      <trkpt lat="46.72527" lon="-2.35022">
        <ele>5.6</ele>
        <time>2018-09-16T09:18:07.000Z</time>
      </trkpt>
      <trkpt lat="46.72527" lon="-2.35022">
        <ele>5.6</ele>
        <time>2018-09-16T09:18:08.000Z</time>
      </trkpt>
      <trkpt lat="46.72527" lon="-2.35022">
        <ele>5.6</ele>
        <time>2018-09-16T09:18:09.000Z</time>
      </trkpt>
      <trkpt lat="46.72527" lon="-2.35022">
        <ele>5.6</ele>
        <time>2018-09-16T09:18:10.000Z</time>
      </trkpt>
      <trkpt lat="46.72527" lon="-2.35022">
        <ele>5.6</ele>
        <time>2018-09-16T09:18:11.000Z</time>
      </trkpt>
      <trkpt lat="46.72527" lon="-2.35022">
        <ele>5.6</ele>
        <time>2018-09-16T09:18:12.000Z</time>
      </trkpt>
      <trkpt lat="46.72527" lon="-2.35022">
        <ele>5.6</ele>
        <time>2018-09-16T09:18:13.000Z</time>
      </trkpt>
      <trkpt lat="46.72527" lon="-2.35023">
        <ele>5.6</ele>
        <time>2018-09-16T09:18:14.000Z</time>
      </trkpt>
      <trkpt lat="46.72527" lon="-2.35023">
        <ele>5.6</ele>
        <time>2018-09-16T09:18:15.000Z</time>
      </trkpt>
      <trkpt lat="46.72527" lon="-2.35023">
        <ele>5.6</ele>
        <time>2018-09-16T09:18:16.000Z</time>
      </trkpt>
      <trkpt lat="46.72527" lon="-2.35023">
        <ele>5.6</ele>
        <time>2018-09-16T09:18:17.000Z</time>
      </trkpt>
      <trkpt lat="46.72527" lon="-2.35024">
        <ele>5.6</ele>
        <time>2018-09-16T09:18:18.000Z</time>
      </trkpt>
      <trkpt lat="46.72527" lon="-2.35024">
        <ele>5.7</ele>
        <time>2018-09-16T09:18:19.000Z</time>
      </trkpt>
      <trkpt lat="46.72527" lon="-2.35025">
        <ele>5.7</ele>
        <time>2018-09-16T09:18:20.000Z</time>
      </trkpt>
      <trkpt lat="46.72527" lon="-2.35026">
        <ele>5.7</ele>
        <time>2018-09-16T09:18:21.000Z</time>
      </trkpt>
      <trkpt lat="46.72527" lon="-2.35026">
        <ele>5.7</ele>
        <time>2018-09-16T09:18:22.000Z</time>
      </trkpt>
      <trkpt lat="46.72526" lon="-2.35027">
        <ele>5.7</ele>
        <time>2018-09-16T09:18:23.000Z</time>
      </trkpt>
      <trkpt lat="46.72526" lon="-2.35028">
        <ele>5.7</ele>
        <time>2018-09-16T09:18:24.000Z</time>
      </trkpt>
      <trkpt lat="46.72526" lon="-2.35029">
        <ele>5.7</ele>
        <time>2018-09-16T09:18:25.000Z</time>
      </trkpt>
      <trkpt lat="46.72526" lon="-2.35029">
        <ele>5.7</ele>
        <time>2018-09-16T09:18:26.000Z</time>
      </trkpt>
      <trkpt lat="46.72526" lon="-2.3503">
        <ele>5.7</ele>
        <time>2018-09-16T09:18:27.000Z</time>
      </trkpt>
      <trkpt lat="46.72525" lon="-2.35031">
        <ele>5.8</ele>
        <time>2018-09-16T09:18:28.000Z</time>
      </trkpt>
      <trkpt lat="46.72525" lon="-2.35032">
        <ele>5.8</ele>
        <time>2018-09-16T09:18:29.000Z</time>
      </trkpt>
      <trkpt lat="46.72525" lon="-2.35032">
        <ele>5.8</ele>
        <time>2018-09-16T09:18:30.000Z</time>
      </trkpt>
      <trkpt lat="46.72526" lon="-2.35033">
        <ele>5.8</ele>
        <time>2018-09-16T09:18:31.000Z</time>
      </trkpt>
      <trkpt lat="46.72526" lon="-2.35033">
        <ele>5.8</ele>
        <time>2018-09-16T09:18:32.000Z</time>
      </trkpt>
      <trkpt lat="46.72526" lon="-2.35033">
        <ele>5.8</ele>
        <time>2018-09-16T09:18:33.000Z</time>
      </trkpt>
      <trkpt lat="46.72526" lon="-2.35034">
        <ele>5.8</ele>
        <time>2018-09-16T09:18:34.000Z</time>
      </trkpt>
      <trkpt lat="46.72527" lon="-2.35034">
        <ele>5.8</ele>
        <time>2018-09-16T09:18:35.000Z</time>
      </trkpt>
      <trkpt lat="46.72527" lon="-2.35034">
        <ele>5.8</ele>
        <time>2018-09-16T09:18:36.000Z</time>
      </trkpt>
      <trkpt lat="46.72527" lon="-2.35034">
        <ele>5.8</ele>
        <time>2018-09-16T09:18:37.000Z</time>
      </trkpt>
      <trkpt lat="46.72527" lon="-2.35034">
        <ele>5.8</ele>
        <time>2018-09-16T09:18:38.000Z</time>
      </trkpt>
      <trkpt lat="46.72527" lon="-2.35035">
        <ele>5.8</ele>
        <time>2018-09-16T09:18:39.000Z</time>
      </trkpt>
      <trkpt lat="46.72527" lon="-2.35035">
        <ele>5.8</ele>
        <time>2018-09-16T09:18:40.000Z</time>
      </trkpt>
      <trkpt lat="46.72527" lon="-2.35035">
        <ele>5.8</ele>
        <time>2018-09-16T09:18:41.000Z</time>
      </trkpt>
      <trkpt lat="46.72527" lon="-2.35035">
        <ele>5.8</ele>
        <time>2018-09-16T09:18:42.000Z</time>
      </trkpt>
      <trkpt lat="46.72527" lon="-2.35035">
        <ele>5.8</ele>
        <time>2018-09-16T09:18:43.000Z</time>
      </trkpt>
      <trkpt lat="46.72527" lon="-2.35035">
        <ele>5.8</ele>
        <time>2018-09-16T09:18:44.000Z</time>
      </trkpt>
      <trkpt lat="46.72527" lon="-2.35035">
        <ele>5.8</ele>
        <time>2018-09-16T09:18:45.000Z</time>
      </trkpt>
      <trkpt lat="46.72528" lon="-2.35034">
        <ele>5.8</ele>
        <time>2018-09-16T09:18:46.000Z</time>
      </trkpt>
      <trkpt lat="46.72528" lon="-2.35034">
        <ele>5.7</ele>
        <time>2018-09-16T09:18:47.000Z</time>
      </trkpt>
      <trkpt lat="46.72528" lon="-2.35033">
        <ele>5.7</ele>
        <time>2018-09-16T09:18:48.000Z</time>
      </trkpt>
      <trkpt lat="46.72528" lon="-2.35033">
        <ele>5.7</ele>
        <time>2018-09-16T09:18:49.000Z</time>
      </trkpt>
      <trkpt lat="46.72528" lon="-2.35032">
        <ele>5.7</ele>
        <time>2018-09-16T09:18:50.000Z</time>
      </trkpt>
      <trkpt lat="46.72529" lon="-2.35031">
        <ele>5.7</ele>
        <time>2018-09-16T09:18:51.000Z</time>
      </trkpt>
      <trkpt lat="46.72529" lon="-2.3503">
        <ele>5.7</ele>
        <time>2018-09-16T09:18:52.000Z</time>
      </trkpt>
      <trkpt lat="46.72529" lon="-2.35029">
        <ele>5.6</ele>
        <time>2018-09-16T09:18:53.000Z</time>
      </trkpt>
      <trkpt lat="46.7253" lon="-2.35029">
        <ele>5.6</ele>
        <time>2018-09-16T09:18:54.000Z</time>
      </trkpt>
      <trkpt lat="46.7253" lon="-2.35028">
        <ele>5.6</ele>
        <time>2018-09-16T09:18:55.000Z</time>
      </trkpt>
      <trkpt lat="46.72531" lon="-2.35028">
        <ele>5.6</ele>
        <time>2018-09-16T09:18:56.000Z</time>
      </trkpt>
      <trkpt lat="46.72531" lon="-2.35027">
        <ele>5.6</ele>
        <time>2018-09-16T09:18:57.000Z</time>
      </trkpt>
      <trkpt lat="46.72531" lon="-2.35027">
        <ele>5.6</ele>
        <time>2018-09-16T09:18:58.000Z</time>
      </trkpt>
      <trkpt lat="46.72531" lon="-2.35027">
        <ele>5.6</ele>
        <time>2018-09-16T09:18:59.000Z</time>
      </trkpt>
      <trkpt lat="46.72532" lon="-2.35026">
        <ele>5.6</ele>
        <time>2018-09-16T09:19:00.000Z</time>
      </trkpt>
      <trkpt lat="46.72532" lon="-2.35026">
        <ele>5.6</ele>
        <time>2018-09-16T09:19:01.000Z</time>
      </trkpt>
      <trkpt lat="46.72532" lon="-2.35026">
        <ele>5.5</ele>
        <time>2018-09-16T09:19:02.000Z</time>
      </trkpt>
      <trkpt lat="46.72532" lon="-2.35026">
        <ele>5.5</ele>
        <time>2018-09-16T09:19:03.000Z</time>
      </trkpt>
      <trkpt lat="46.72532" lon="-2.35026">
        <ele>5.5</ele>
        <time>2018-09-16T09:19:04.000Z</time>
      </trkpt>
      <trkpt lat="46.72532" lon="-2.35026">
        <ele>5.5</ele>
        <time>2018-09-16T09:19:05.000Z</time>
      </trkpt>
      <trkpt lat="46.72532" lon="-2.35026">
        <ele>5.5</ele>
        <time>2018-09-16T09:19:06.000Z</time>
      </trkpt>
      <trkpt lat="46.72532" lon="-2.35026">
        <ele>5.5</ele>
        <time>2018-09-16T09:19:07.000Z</time>
      </trkpt>
      <trkpt lat="46.72532" lon="-2.35026">
        <ele>5.5</ele>
        <time>2018-09-16T09:19:08.000Z</time>
      </trkpt>
      <trkpt lat="46.72532" lon="-2.35026">
        <ele>5.6</ele>
        <time>2018-09-16T09:19:09.000Z</time>
      </trkpt>
      <trkpt lat="46.72531" lon="-2.35026">
        <ele>5.6</ele>
        <time>2018-09-16T09:19:10.000Z</time>
      </trkpt>
      <trkpt lat="46.72531" lon="-2.35026">
        <ele>5.6</ele>
        <time>2018-09-16T09:19:11.000Z</time>
      </trkpt>
      <trkpt lat="46.72531" lon="-2.35027">
        <ele>5.6</ele>
        <time>2018-09-16T09:19:12.000Z</time>
      </trkpt>
      <trkpt lat="46.7253" lon="-2.35027">
        <ele>5.6</ele>
        <time>2018-09-16T09:19:13.000Z</time>
      </trkpt>
      <trkpt lat="46.72529" lon="-2.35027">
        <ele>5.6</ele>
        <time>2018-09-16T09:19:14.000Z</time>
      </trkpt>
      <trkpt lat="46.72529" lon="-2.35027">
        <ele>5.6</ele>
        <time>2018-09-16T09:19:15.000Z</time>
      </trkpt>
      <trkpt lat="46.72528" lon="-2.35027">
        <ele>5.6</ele>
        <time>2018-09-16T09:19:16.000Z</time>
      </trkpt>
      <trkpt lat="46.72527" lon="-2.35027">
        <ele>5.7</ele>
        <time>2018-09-16T09:19:17.000Z</time>
      </trkpt>
      <trkpt lat="46.72527" lon="-2.35027">
        <ele>5.7</ele>
        <time>2018-09-16T09:19:18.000Z</time>
      </trkpt>
      <trkpt lat="46.72526" lon="-2.35027">
        <ele>5.7</ele>
        <time>2018-09-16T09:19:19.000Z</time>
      </trkpt>
      <trkpt lat="46.72526" lon="-2.35027">
        <ele>5.7</ele>
        <time>2018-09-16T09:19:20.000Z</time>
      </trkpt>
      <trkpt lat="46.72526" lon="-2.35027">
        <ele>5.7</ele>
        <time>2018-09-16T09:19:21.000Z</time>
      </trkpt>
      <trkpt lat="46.72526" lon="-2.35027">
        <ele>5.7</ele>
        <time>2018-09-16T09:19:22.000Z</time>
      </trkpt>
      <trkpt lat="46.72526" lon="-2.35027">
        <ele>5.7</ele>
        <time>2018-09-16T09:19:23.000Z</time>
      </trkpt>
      <trkpt lat="46.72526" lon="-2.35027">
        <ele>5.7</ele>
        <time>2018-09-16T09:19:24.000Z</time>
      </trkpt>
      <trkpt lat="46.72526" lon="-2.35027">
        <ele>5.7</ele>
        <time>2018-09-16T09:19:25.000Z</time>
      </trkpt>
      <trkpt lat="46.72525" lon="-2.35027">
        <ele>5.7</ele>
        <time>2018-09-16T09:19:26.000Z</time>
      </trkpt>
      <trkpt lat="46.72525" lon="-2.35028">
        <ele>5.7</ele>
        <time>2018-09-16T09:19:27.000Z</time>
      </trkpt>
      <trkpt lat="46.72525" lon="-2.35028">
        <ele>5.7</ele>
        <time>2018-09-16T09:19:28.000Z</time>
      </trkpt>
      <trkpt lat="46.72525" lon="-2.35028">
        <ele>5.7</ele>
        <time>2018-09-16T09:19:29.000Z</time>
      </trkpt>
      <trkpt lat="46.72525" lon="-2.35028">
        <ele>5.7</ele>
        <time>2018-09-16T09:19:30.000Z</time>
      </trkpt>
      <trkpt lat="46.72526" lon="-2.35028">
        <ele>5.7</ele>
        <time>2018-09-16T09:19:31.000Z</time>
      </trkpt>
      <trkpt lat="46.72526" lon="-2.35028">
        <ele>5.7</ele>
        <time>2018-09-16T09:19:32.000Z</time>
      </trkpt>
      <trkpt lat="46.72526" lon="-2.35028">
        <ele>5.7</ele>
        <time>2018-09-16T09:19:33.000Z</time>
      </trkpt>
      <trkpt lat="46.72526" lon="-2.35028">
        <ele>5.7</ele>
        <time>2018-09-16T09:19:34.000Z</time>
      </trkpt>
      <trkpt lat="46.72526" lon="-2.35028">
        <ele>5.7</ele>
        <time>2018-09-16T09:19:35.000Z</time>
      </trkpt>
      <trkpt lat="46.72527" lon="-2.35029">
        <ele>5.7</ele>
        <time>2018-09-16T09:19:36.000Z</time>
      </trkpt>
      <trkpt lat="46.72527" lon="-2.35029">
        <ele>5.7</ele>
        <time>2018-09-16T09:19:37.000Z</time>
      </trkpt>
      <trkpt lat="46.72527" lon="-2.35029">
        <ele>5.7</ele>
        <time>2018-09-16T09:19:38.000Z</time>
      </trkpt>
      <trkpt lat="46.72528" lon="-2.35029">
        <ele>5.7</ele>
        <time>2018-09-16T09:19:39.000Z</time>
      </trkpt>
      <trkpt lat="46.72528" lon="-2.35029">
        <ele>5.7</ele>
        <time>2018-09-16T09:19:40.000Z</time>
      </trkpt>
      <trkpt lat="46.72528" lon="-2.35029">
        <ele>5.7</ele>
        <time>2018-09-16T09:19:41.000Z</time>
      </trkpt>
      <trkpt lat="46.72528" lon="-2.3503">
        <ele>5.7</ele>
        <time>2018-09-16T09:19:42.000Z</time>
      </trkpt>
      <trkpt lat="46.72528" lon="-2.3503">
        <ele>5.7</ele>
        <time>2018-09-16T09:19:43.000Z</time>
      </trkpt>
      <trkpt lat="46.72528" lon="-2.3503">
        <ele>5.7</ele>
        <time>2018-09-16T09:19:44.000Z</time>
      </trkpt>
      <trkpt lat="46.72528" lon="-2.3503">
        <ele>5.7</ele>
        <time>2018-09-16T09:19:45.000Z</time>
      </trkpt>
      <trkpt lat="46.72528" lon="-2.3503">
        <ele>5.7</ele>
        <time>2018-09-16T09:19:46.000Z</time>
      </trkpt>
      <trkpt lat="46.72528" lon="-2.3503">
        <ele>5.7</ele>
        <time>2018-09-16T09:19:47.000Z</time>
      </trkpt>
      <trkpt lat="46.72528" lon="-2.35031">
        <ele>5.7</ele>
        <time>2018-09-16T09:19:48.000Z</time>
      </trkpt>
      <trkpt lat="46.72528" lon="-2.35031">
        <ele>5.7</ele>
        <time>2018-09-16T09:19:49.000Z</time>
      </trkpt>
      <trkpt lat="46.72527" lon="-2.35031">
        <ele>5.7</ele>
        <time>2018-09-16T09:19:50.000Z</time>
      </trkpt>
      <trkpt lat="46.72527" lon="-2.35031">
        <ele>5.7</ele>
        <time>2018-09-16T09:19:51.000Z</time>
      </trkpt>
      <trkpt lat="46.72527" lon="-2.35031">
        <ele>5.7</ele>
        <time>2018-09-16T09:19:52.000Z</time>
      </trkpt>
      <trkpt lat="46.72527" lon="-2.35031">
        <ele>5.7</ele>
        <time>2018-09-16T09:19:53.000Z</time>
      </trkpt>
      <trkpt lat="46.72527" lon="-2.35031">
        <ele>5.7</ele>
        <time>2018-09-16T09:19:54.000Z</time>
      </trkpt>
      <trkpt lat="46.72527" lon="-2.35031">
        <ele>5.7</ele>
        <time>2018-09-16T09:19:55.000Z</time>
      </trkpt>
      <trkpt lat="46.72527" lon="-2.35032">
        <ele>5.7</ele>
        <time>2018-09-16T09:19:56.000Z</time>
      </trkpt>
      <trkpt lat="46.72528" lon="-2.35032">
        <ele>5.7</ele>
        <time>2018-09-16T09:19:57.000Z</time>
      </trkpt>
      <trkpt lat="46.72528" lon="-2.35032">
        <ele>5.7</ele>
        <time>2018-09-16T09:19:58.000Z</time>
      </trkpt>
      <trkpt lat="46.72528" lon="-2.35032">
        <ele>5.7</ele>
        <time>2018-09-16T09:19:59.000Z</time>
      </trkpt>
      <trkpt lat="46.72528" lon="-2.35032">
        <ele>5.7</ele>
        <time>2018-09-16T09:20:00.000Z</time>
      </trkpt>
      <trkpt lat="46.72528" lon="-2.35032">
        <ele>5.7</ele>
        <time>2018-09-16T09:20:01.000Z</time>
      </trkpt>
      <trkpt lat="46.72529" lon="-2.35032">
        <ele>5.7</ele>
        <time>2018-09-16T09:20:02.000Z</time>
      </trkpt>
      <trkpt lat="46.72529" lon="-2.35032">
        <ele>5.7</ele>
        <time>2018-09-16T09:20:03.000Z</time>
      </trkpt>
      <trkpt lat="46.7253" lon="-2.35032">
        <ele>5.7</ele>
        <time>2018-09-16T09:20:04.000Z</time>
      </trkpt>
      <trkpt lat="46.7253" lon="-2.35032">
        <ele>5.7</ele>
        <time>2018-09-16T09:20:05.000Z</time>
      </trkpt>
      <trkpt lat="46.7253" lon="-2.35032">
        <ele>5.7</ele>
        <time>2018-09-16T09:20:06.000Z</time>
      </trkpt>
      <trkpt lat="46.7253" lon="-2.35032">
        <ele>5.7</ele>
        <time>2018-09-16T09:20:07.000Z</time>
      </trkpt>
      <trkpt lat="46.7253" lon="-2.35031">
        <ele>5.6</ele>
        <time>2018-09-16T09:20:08.000Z</time>
      </trkpt>
      <trkpt lat="46.7253" lon="-2.35031">
        <ele>5.6</ele>
        <time>2018-09-16T09:20:09.000Z</time>
      </trkpt>
      <trkpt lat="46.7253" lon="-2.3503">
        <ele>5.6</ele>
        <time>2018-09-16T09:20:10.000Z</time>
      </trkpt>
      <trkpt lat="46.7253" lon="-2.3503">
        <ele>5.6</ele>
        <time>2018-09-16T09:20:11.000Z</time>
      </trkpt>
      <trkpt lat="46.7253" lon="-2.35029">
        <ele>5.6</ele>
        <time>2018-09-16T09:20:12.000Z</time>
      </trkpt>
      <trkpt lat="46.7253" lon="-2.35029">
        <ele>5.6</ele>
        <time>2018-09-16T09:20:13.000Z</time>
      </trkpt>
      <trkpt lat="46.72529" lon="-2.35028">
        <ele>5.6</ele>
        <time>2018-09-16T09:20:14.000Z</time>
      </trkpt>
      <trkpt lat="46.72529" lon="-2.35028">
        <ele>5.6</ele>
        <time>2018-09-16T09:20:15.000Z</time>
      </trkpt>
      <trkpt lat="46.72529" lon="-2.35027">
        <ele>5.6</ele>
        <time>2018-09-16T09:20:16.000Z</time>
      </trkpt>
      <trkpt lat="46.72529" lon="-2.35027">
        <ele>5.6</ele>
        <time>2018-09-16T09:20:17.000Z</time>
      </trkpt>
      <trkpt lat="46.72529" lon="-2.35027">
        <ele>5.6</ele>
        <time>2018-09-16T09:20:18.000Z</time>
      </trkpt>
      <trkpt lat="46.72529" lon="-2.35027">
        <ele>5.6</ele>
        <time>2018-09-16T09:20:19.000Z</time>
      </trkpt>
      <trkpt lat="46.72529" lon="-2.35027">
        <ele>5.6</ele>
        <time>2018-09-16T09:20:20.000Z</time>
      </trkpt>
      <trkpt lat="46.72529" lon="-2.35027">
        <ele>5.6</ele>
        <time>2018-09-16T09:20:21.000Z</time>
      </trkpt>
      <trkpt lat="46.72528" lon="-2.35027">
        <ele>5.6</ele>
        <time>2018-09-16T09:20:22.000Z</time>
      </trkpt>
      <trkpt lat="46.72528" lon="-2.35027">
        <ele>5.6</ele>
        <time>2018-09-16T09:20:23.000Z</time>
      </trkpt>
      <trkpt lat="46.72528" lon="-2.35027">
        <ele>5.6</ele>
        <time>2018-09-16T09:20:24.000Z</time>
      </trkpt>
      <trkpt lat="46.72528" lon="-2.35027">
        <ele>5.6</ele>
        <time>2018-09-16T09:20:25.000Z</time>
      </trkpt>
      <trkpt lat="46.72529" lon="-2.35027">
        <ele>5.6</ele>
        <time>2018-09-16T09:20:26.000Z</time>
      </trkpt>
      <trkpt lat="46.72529" lon="-2.35027">
        <ele>5.6</ele>
        <time>2018-09-16T09:20:27.000Z</time>
      </trkpt>
      <trkpt lat="46.72529" lon="-2.35026">
        <ele>5.6</ele>
        <time>2018-09-16T09:20:28.000Z</time>
      </trkpt>
      <trkpt lat="46.72528" lon="-2.35026">
        <ele>5.6</ele>
        <time>2018-09-16T09:20:29.000Z</time>
      </trkpt>
      <trkpt lat="46.72528" lon="-2.35026">
        <ele>5.6</ele>
        <time>2018-09-16T09:20:30.000Z</time>
      </trkpt>
      <trkpt lat="46.72528" lon="-2.35026">
        <ele>5.6</ele>
        <time>2018-09-16T09:20:31.000Z</time>
      </trkpt>
      <trkpt lat="46.72528" lon="-2.35025">
        <ele>5.6</ele>
        <time>2018-09-16T09:20:32.000Z</time>
      </trkpt>
      <trkpt lat="46.72528" lon="-2.35024">
        <ele>5.6</ele>
        <time>2018-09-16T09:20:33.000Z</time>
      </trkpt>
      <trkpt lat="46.72528" lon="-2.35023">
        <ele>5.6</ele>
        <time>2018-09-16T09:20:34.000Z</time>
      </trkpt>
      <trkpt lat="46.72528" lon="-2.35021">
        <ele>5.6</ele>
        <time>2018-09-16T09:20:35.000Z</time>
      </trkpt>
      <trkpt lat="46.72528" lon="-2.3502">
        <ele>5.6</ele>
        <time>2018-09-16T09:20:36.000Z</time>
      </trkpt>
      <trkpt lat="46.72527" lon="-2.3502">
        <ele>5.6</ele>
        <time>2018-09-16T09:20:37.000Z</time>
      </trkpt>
      <trkpt lat="46.72527" lon="-2.35019">
        <ele>5.6</ele>
        <time>2018-09-16T09:20:38.000Z</time>
      </trkpt>
      <trkpt lat="46.72526" lon="-2.35018">
        <ele>5.6</ele>
        <time>2018-09-16T09:20:39.000Z</time>
      </trkpt>
      <trkpt lat="46.72526" lon="-2.35018">
        <ele>5.6</ele>
        <time>2018-09-16T09:20:40.000Z</time>
      </trkpt>
      <trkpt lat="46.72526" lon="-2.35017">
        <ele>5.6</ele>
        <time>2018-09-16T09:20:41.000Z</time>
      </trkpt>
      <trkpt lat="46.72525" lon="-2.35017">
        <ele>5.6</ele>
        <time>2018-09-16T09:20:42.000Z</time>
      </trkpt>
      <trkpt lat="46.72525" lon="-2.35017">
        <ele>5.6</ele>
        <time>2018-09-16T09:20:43.000Z</time>
      </trkpt>
      <trkpt lat="46.72525" lon="-2.35017">
        <ele>5.6</ele>
        <time>2018-09-16T09:20:44.000Z</time>
      </trkpt>
      <trkpt lat="46.72525" lon="-2.35016">
        <ele>5.6</ele>
        <time>2018-09-16T09:20:45.000Z</time>
      </trkpt>
      <trkpt lat="46.72525" lon="-2.35016">
        <ele>5.6</ele>
        <time>2018-09-16T09:20:46.000Z</time>
      </trkpt>
      <trkpt lat="46.72525" lon="-2.35016">
        <ele>5.6</ele>
        <time>2018-09-16T09:20:47.000Z</time>
      </trkpt>
      <trkpt lat="46.72525" lon="-2.35016">
        <ele>5.6</ele>
        <time>2018-09-16T09:20:48.000Z</time>
      </trkpt>
      <trkpt lat="46.72525" lon="-2.35016">
        <ele>5.6</ele>
        <time>2018-09-16T09:20:49.000Z</time>
      </trkpt>
      <trkpt lat="46.72525" lon="-2.35016">
        <ele>5.6</ele>
        <time>2018-09-16T09:20:50.000Z</time>
      </trkpt>
      <trkpt lat="46.72525" lon="-2.35016">
        <ele>5.6</ele>
        <time>2018-09-16T09:20:51.000Z</time>
      </trkpt>
      <trkpt lat="46.72525" lon="-2.35016">
        <ele>5.6</ele>
        <time>2018-09-16T09:20:52.000Z</time>
      </trkpt>
      <trkpt lat="46.72525" lon="-2.35016">
        <ele>5.6</ele>
        <time>2018-09-16T09:20:53.000Z</time>
      </trkpt>
      <trkpt lat="46.72525" lon="-2.35016">
        <ele>5.6</ele>
        <time>2018-09-16T09:20:54.000Z</time>
      </trkpt>
      <trkpt lat="46.72525" lon="-2.35016">
        <ele>5.6</ele>
        <time>2018-09-16T09:20:55.000Z</time>
      </trkpt>
      <trkpt lat="46.72525" lon="-2.35016">
        <ele>5.6</ele>
        <time>2018-09-16T09:20:56.000Z</time>
      </trkpt>
      <trkpt lat="46.72525" lon="-2.35016">
        <ele>5.6</ele>
        <time>2018-09-16T09:20:57.000Z</time>
      </trkpt>
      <trkpt lat="46.72525" lon="-2.35016">
        <ele>5.6</ele>
        <time>2018-09-16T09:20:58.000Z</time>
      </trkpt>
      <trkpt lat="46.72525" lon="-2.35016">
        <ele>5.6</ele>
        <time>2018-09-16T09:20:59.000Z</time>
      </trkpt>
      <trkpt lat="46.72525" lon="-2.35016">
        <ele>5.6</ele>
        <time>2018-09-16T09:21:00.000Z</time>
      </trkpt>
      <trkpt lat="46.72525" lon="-2.35016">
        <ele>5.6</ele>
        <time>2018-09-16T09:21:01.000Z</time>
      </trkpt>
      <trkpt lat="46.72525" lon="-2.35016">
        <ele>5.6</ele>
        <time>2018-09-16T09:21:02.000Z</time>
      </trkpt>
      <trkpt lat="46.72525" lon="-2.35016">
        <ele>5.6</ele>
        <time>2018-09-16T09:21:03.000Z</time>
      </trkpt>
      <trkpt lat="46.72525" lon="-2.35016">
        <ele>5.6</ele>
        <time>2018-09-16T09:21:04.000Z</time>
      </trkpt>
      <trkpt lat="46.72525" lon="-2.35016">
        <ele>5.6</ele>
        <time>2018-09-16T09:21:05.000Z</time>
      </trkpt>
      <trkpt lat="46.72525" lon="-2.35016">
        <ele>5.6</ele>
        <time>2018-09-16T09:21:06.000Z</time>
      </trkpt>
      <trkpt lat="46.72525" lon="-2.35016">
        <ele>5.6</ele>
        <time>2018-09-16T09:21:07.000Z</time>
      </trkpt>
      <trkpt lat="46.72525" lon="-2.35016">
        <ele>5.6</ele>
        <time>2018-09-16T09:21:08.000Z</time>
      </trkpt>
      <trkpt lat="46.72525" lon="-2.35016">
        <ele>5.6</ele>
        <time>2018-09-16T09:21:09.000Z</time>
      </trkpt>
      <trkpt lat="46.72525" lon="-2.35016">
        <ele>5.6</ele>
        <time>2018-09-16T09:21:10.000Z</time>
      </trkpt>
      <trkpt lat="46.72525" lon="-2.35016">
        <ele>5.6</ele>
        <time>2018-09-16T09:21:11.000Z</time>
      </trkpt>
      <trkpt lat="46.72525" lon="-2.35016">
        <ele>5.6</ele>
        <time>2018-09-16T09:21:12.000Z</time>
      </trkpt>
      <trkpt lat="46.72526" lon="-2.35015">
        <ele>5.6</ele>
        <time>2018-09-16T09:21:13.000Z</time>
      </trkpt>
      <trkpt lat="46.72526" lon="-2.35015">
        <ele>5.6</ele>
        <time>2018-09-16T09:21:14.000Z</time>
      </trkpt>
      <trkpt lat="46.72526" lon="-2.35015">
        <ele>5.6</ele>
        <time>2018-09-16T09:21:15.000Z</time>
      </trkpt>
      <trkpt lat="46.72526" lon="-2.35015">
        <ele>5.6</ele>
        <time>2018-09-16T09:21:16.000Z</time>
      </trkpt>
      <trkpt lat="46.72526" lon="-2.35015">
        <ele>5.5</ele>
        <time>2018-09-16T09:21:17.000Z</time>
      </trkpt>
      <trkpt lat="46.72527" lon="-2.35015">
        <ele>5.5</ele>
        <time>2018-09-16T09:21:18.000Z</time>
      </trkpt>
      <trkpt lat="46.72527" lon="-2.35014">
        <ele>5.5</ele>
        <time>2018-09-16T09:21:19.000Z</time>
      </trkpt>
      <trkpt lat="46.72527" lon="-2.35014">
        <ele>5.5</ele>
        <time>2018-09-16T09:21:20.000Z</time>
      </trkpt>
      <trkpt lat="46.72527" lon="-2.35014">
        <ele>5.5</ele>
        <time>2018-09-16T09:21:21.000Z</time>
      </trkpt>
      <trkpt lat="46.72527" lon="-2.35014">
        <ele>5.5</ele>
        <time>2018-09-16T09:21:22.000Z</time>
      </trkpt>
      <trkpt lat="46.72527" lon="-2.35013">
        <ele>5.5</ele>
        <time>2018-09-16T09:21:23.000Z</time>
      </trkpt>
      <trkpt lat="46.72528" lon="-2.35013">
        <ele>5.5</ele>
        <time>2018-09-16T09:21:24.000Z</time>
      </trkpt>
      <trkpt lat="46.72528" lon="-2.35013">
        <ele>5.5</ele>
        <time>2018-09-16T09:21:25.000Z</time>
      </trkpt>
      <trkpt lat="46.72528" lon="-2.35013">
        <ele>5.5</ele>
        <time>2018-09-16T09:21:26.000Z</time>
      </trkpt>
      <trkpt lat="46.72528" lon="-2.35013">
        <ele>5.5</ele>
        <time>2018-09-16T09:21:27.000Z</time>
      </trkpt>
      <trkpt lat="46.72528" lon="-2.35013">
        <ele>5.5</ele>
        <time>2018-09-16T09:21:28.000Z</time>
      </trkpt>
      <trkpt lat="46.72528" lon="-2.35013">
        <ele>5.5</ele>
        <time>2018-09-16T09:21:29.000Z</time>
      </trkpt>
      <trkpt lat="46.72528" lon="-2.35013">
        <ele>5.5</ele>
        <time>2018-09-16T09:21:30.000Z</time>
      </trkpt>
      <trkpt lat="46.72527" lon="-2.35013">
        <ele>5.5</ele>
        <time>2018-09-16T09:21:31.000Z</time>
      </trkpt>
      <trkpt lat="46.72527" lon="-2.35014">
        <ele>5.5</ele>
        <time>2018-09-16T09:21:32.000Z</time>
      </trkpt>
      <trkpt lat="46.72527" lon="-2.35014">
        <ele>5.5</ele>
        <time>2018-09-16T09:21:33.000Z</time>
      </trkpt>
      <trkpt lat="46.72527" lon="-2.35015">
        <ele>5.5</ele>
        <time>2018-09-16T09:21:34.000Z</time>
      </trkpt>
      <trkpt lat="46.72527" lon="-2.35015">
        <ele>5.5</ele>
        <time>2018-09-16T09:21:35.000Z</time>
      </trkpt>
      <trkpt lat="46.72527" lon="-2.35015">
        <ele>5.5</ele>
        <time>2018-09-16T09:21:36.000Z</time>
      </trkpt>
      <trkpt lat="46.72527" lon="-2.35015">
        <ele>5.5</ele>
        <time>2018-09-16T09:21:37.000Z</time>
      </trkpt>
      <trkpt lat="46.72527" lon="-2.35015">
        <ele>5.5</ele>
        <time>2018-09-16T09:21:38.000Z</time>
      </trkpt>
      <trkpt lat="46.72527" lon="-2.35015">
        <ele>5.5</ele>
        <time>2018-09-16T09:21:39.000Z</time>
      </trkpt>
      <trkpt lat="46.72527" lon="-2.35016">
        <ele>5.6</ele>
        <time>2018-09-16T09:21:40.000Z</time>
      </trkpt>
      <trkpt lat="46.72527" lon="-2.35016">
        <ele>5.6</ele>
        <time>2018-09-16T09:21:41.000Z</time>
      </trkpt>
      <trkpt lat="46.72527" lon="-2.35015">
        <ele>5.5</ele>
        <time>2018-09-16T09:21:42.000Z</time>
      </trkpt>
      <trkpt lat="46.72527" lon="-2.35015">
        <ele>5.5</ele>
        <time>2018-09-16T09:21:43.000Z</time>
      </trkpt>
      <trkpt lat="46.72527" lon="-2.35015">
        <ele>5.5</ele>
        <time>2018-09-16T09:21:44.000Z</time>
      </trkpt>
      <trkpt lat="46.72526" lon="-2.35015">
        <ele>5.6</ele>
        <time>2018-09-16T09:21:45.000Z</time>
      </trkpt>
      <trkpt lat="46.72526" lon="-2.35015">
        <ele>5.6</ele>
        <time>2018-09-16T09:21:46.000Z</time>
      </trkpt>
      <trkpt lat="46.72526" lon="-2.35015">
        <ele>5.6</ele>
        <time>2018-09-16T09:21:47.000Z</time>
      </trkpt>
      <trkpt lat="46.72526" lon="-2.35015">
        <ele>5.6</ele>
        <time>2018-09-16T09:21:48.000Z</time>
      </trkpt>
      <trkpt lat="46.72526" lon="-2.35015">
        <ele>5.6</ele>
        <time>2018-09-16T09:21:49.000Z</time>
      </trkpt>
      <trkpt lat="46.72526" lon="-2.35015">
        <ele>5.6</ele>
        <time>2018-09-16T09:21:50.000Z</time>
      </trkpt>
      <trkpt lat="46.72526" lon="-2.35014">
        <ele>5.5</ele>
        <time>2018-09-16T09:21:51.000Z</time>
      </trkpt>
      <trkpt lat="46.72526" lon="-2.35014">
        <ele>5.5</ele>
        <time>2018-09-16T09:21:52.000Z</time>
      </trkpt>
      <trkpt lat="46.72526" lon="-2.35014">
        <ele>5.5</ele>
        <time>2018-09-16T09:21:53.000Z</time>
      </trkpt>
      <trkpt lat="46.72526" lon="-2.35014">
        <ele>5.5</ele>
        <time>2018-09-16T09:21:54.000Z</time>
      </trkpt>
      <trkpt lat="46.72526" lon="-2.35014">
        <ele>5.5</ele>
        <time>2018-09-16T09:21:55.000Z</time>
      </trkpt>
      <trkpt lat="46.72526" lon="-2.35014">
        <ele>5.5</ele>
        <time>2018-09-16T09:21:56.000Z</time>
      </trkpt>
      <trkpt lat="46.72526" lon="-2.35014">
        <ele>5.5</ele>
        <time>2018-09-16T09:21:57.000Z</time>
      </trkpt>
      <trkpt lat="46.72526" lon="-2.35014">
        <ele>5.5</ele>
        <time>2018-09-16T09:21:58.000Z</time>
      </trkpt>
      <trkpt lat="46.72526" lon="-2.35014">
        <ele>5.5</ele>
        <time>2018-09-16T09:21:59.000Z</time>
      </trkpt>
      <trkpt lat="46.72526" lon="-2.35014">
        <ele>5.5</ele>
        <time>2018-09-16T09:22:00.000Z</time>
      </trkpt>
      <trkpt lat="46.72526" lon="-2.35014">
        <ele>5.5</ele>
        <time>2018-09-16T09:22:01.000Z</time>
      </trkpt>
      <trkpt lat="46.72526" lon="-2.35014">
        <ele>5.5</ele>
        <time>2018-09-16T09:22:02.000Z</time>
      </trkpt>
      <trkpt lat="46.72526" lon="-2.35014">
        <ele>5.5</ele>
        <time>2018-09-16T09:22:03.000Z</time>
      </trkpt>
      <trkpt lat="46.72526" lon="-2.35014">
        <ele>5.5</ele>
        <time>2018-09-16T09:22:04.000Z</time>
      </trkpt>
      <trkpt lat="46.72526" lon="-2.35014">
        <ele>5.5</ele>
        <time>2018-09-16T09:22:05.000Z</time>
      </trkpt>
      <trkpt lat="46.72526" lon="-2.35014">
        <ele>5.5</ele>
        <time>2018-09-16T09:22:06.000Z</time>
      </trkpt>
      <trkpt lat="46.72526" lon="-2.35014">
        <ele>5.5</ele>
        <time>2018-09-16T09:22:07.000Z</time>
      </trkpt>
      <trkpt lat="46.72526" lon="-2.35014">
        <ele>5.5</ele>
        <time>2018-09-16T09:22:08.000Z</time>
      </trkpt>
      <trkpt lat="46.72526" lon="-2.35014">
        <ele>5.5</ele>
        <time>2018-09-16T09:22:09.000Z</time>
      </trkpt>
      <trkpt lat="46.72526" lon="-2.35014">
        <ele>5.5</ele>
        <time>2018-09-16T09:22:10.000Z</time>
      </trkpt>
      <trkpt lat="46.72526" lon="-2.35014">
        <ele>5.5</ele>
        <time>2018-09-16T09:22:11.000Z</time>
      </trkpt>
      <trkpt lat="46.72526" lon="-2.35014">
        <ele>5.5</ele>
        <time>2018-09-16T09:22:12.000Z</time>
      </trkpt>
      <trkpt lat="46.72526" lon="-2.35014">
        <ele>5.5</ele>
        <time>2018-09-16T09:22:13.000Z</time>
      </trkpt>
      <trkpt lat="46.72526" lon="-2.35014">
        <ele>5.5</ele>
        <time>2018-09-16T09:22:14.000Z</time>
      </trkpt>
      <trkpt lat="46.72526" lon="-2.35014">
        <ele>5.5</ele>
        <time>2018-09-16T09:22:15.000Z</time>
      </trkpt>
      <trkpt lat="46.72526" lon="-2.35014">
        <ele>5.5</ele>
        <time>2018-09-16T09:22:16.000Z</time>
      </trkpt>
      <trkpt lat="46.72526" lon="-2.35014">
        <ele>5.5</ele>
        <time>2018-09-16T09:22:17.000Z</time>
      </trkpt>
      <trkpt lat="46.72526" lon="-2.35013">
        <ele>5.5</ele>
        <time>2018-09-16T09:22:18.000Z</time>
      </trkpt>
      <trkpt lat="46.72525" lon="-2.35013">
        <ele>5.6</ele>
        <time>2018-09-16T09:22:19.000Z</time>
      </trkpt>
      <trkpt lat="46.72523" lon="-2.35012">
        <ele>5.6</ele>
        <time>2018-09-16T09:22:20.000Z</time>
      </trkpt>
      <trkpt lat="46.72522" lon="-2.35012">
        <ele>5.6</ele>
        <time>2018-09-16T09:22:21.000Z</time>
      </trkpt>
      <trkpt lat="46.72521" lon="-2.35011">
        <ele>5.6</ele>
        <time>2018-09-16T09:22:22.000Z</time>
      </trkpt>
      <trkpt lat="46.7252" lon="-2.35011">
        <ele>5.7</ele>
        <time>2018-09-16T09:22:23.000Z</time>
      </trkpt>
      <trkpt lat="46.72519" lon="-2.35011">
        <ele>5.7</ele>
        <time>2018-09-16T09:22:24.000Z</time>
      </trkpt>
      <trkpt lat="46.72518" lon="-2.35011">
        <ele>5.7</ele>
        <time>2018-09-16T09:22:25.000Z</time>
      </trkpt>
      <trkpt lat="46.72517" lon="-2.35012">
        <ele>5.7</ele>
        <time>2018-09-16T09:22:26.000Z</time>
      </trkpt>
      <trkpt lat="46.72516" lon="-2.35012">
        <ele>5.8</ele>
        <time>2018-09-16T09:22:27.000Z</time>
      </trkpt>
      <trkpt lat="46.72515" lon="-2.35013">
        <ele>5.8</ele>
        <time>2018-09-16T09:22:28.000Z</time>
      </trkpt>
      <trkpt lat="46.72514" lon="-2.35014">
        <ele>5.8</ele>
        <time>2018-09-16T09:22:29.000Z</time>
      </trkpt>
      <trkpt lat="46.72513" lon="-2.35014">
        <ele>5.9</ele>
        <time>2018-09-16T09:22:30.000Z</time>
      </trkpt>
      <trkpt lat="46.72512" lon="-2.35015">
        <ele>5.9</ele>
        <time>2018-09-16T09:22:31.000Z</time>
      </trkpt>
      <trkpt lat="46.72511" lon="-2.35016">
        <ele>5.9</ele>
        <time>2018-09-16T09:22:32.000Z</time>
      </trkpt>
      <trkpt lat="46.7251" lon="-2.35016">
        <ele>6</ele>
        <time>2018-09-16T09:22:33.000Z</time>
      </trkpt>
      <trkpt lat="46.72509" lon="-2.35017">
        <ele>6</ele>
        <time>2018-09-16T09:22:34.000Z</time>
      </trkpt>
      <trkpt lat="46.72508" lon="-2.35017">
        <ele>6</ele>
        <time>2018-09-16T09:22:35.000Z</time>
      </trkpt>
      <trkpt lat="46.72507" lon="-2.35017">
        <ele>6</ele>
        <time>2018-09-16T09:22:36.000Z</time>
      </trkpt>
      <trkpt lat="46.72506" lon="-2.35018">
        <ele>6.1</ele>
        <time>2018-09-16T09:22:37.000Z</time>
      </trkpt>
      <trkpt lat="46.72505" lon="-2.35018">
        <ele>6.1</ele>
        <time>2018-09-16T09:22:38.000Z</time>
      </trkpt>
      <trkpt lat="46.72504" lon="-2.35018">
        <ele>6.1</ele>
        <time>2018-09-16T09:22:39.000Z</time>
      </trkpt>
      <trkpt lat="46.72503" lon="-2.35018">
        <ele>6.1</ele>
        <time>2018-09-16T09:22:40.000Z</time>
      </trkpt>
      <trkpt lat="46.72502" lon="-2.35018">
        <ele>6.2</ele>
        <time>2018-09-16T09:22:41.000Z</time>
      </trkpt>
      <trkpt lat="46.72501" lon="-2.35018">
        <ele>6.2</ele>
        <time>2018-09-16T09:22:42.000Z</time>
      </trkpt>
      <trkpt lat="46.725" lon="-2.35018">
        <ele>6.2</ele>
        <time>2018-09-16T09:22:43.000Z</time>
      </trkpt>
      <trkpt lat="46.725" lon="-2.35018">
        <ele>6.2</ele>
        <time>2018-09-16T09:22:44.000Z</time>
      </trkpt>
      <trkpt lat="46.72499" lon="-2.35018">
        <ele>6.3</ele>
        <time>2018-09-16T09:22:45.000Z</time>
      </trkpt>
      <trkpt lat="46.72498" lon="-2.35018">
        <ele>6.3</ele>
        <time>2018-09-16T09:22:46.000Z</time>
      </trkpt>
      <trkpt lat="46.72498" lon="-2.35018">
        <ele>6.3</ele>
        <time>2018-09-16T09:22:47.000Z</time>
      </trkpt>
      <trkpt lat="46.72497" lon="-2.35018">
        <ele>6.3</ele>
        <time>2018-09-16T09:22:48.000Z</time>
      </trkpt>
      <trkpt lat="46.72496" lon="-2.35018">
        <ele>6.3</ele>
        <time>2018-09-16T09:22:49.000Z</time>
      </trkpt>
      <trkpt lat="46.72496" lon="-2.35017">
        <ele>6.4</ele>
        <time>2018-09-16T09:22:50.000Z</time>
      </trkpt>
      <trkpt lat="46.72495" lon="-2.35017">
        <ele>6.4</ele>
        <time>2018-09-16T09:22:51.000Z</time>
      </trkpt>
      <trkpt lat="46.72495" lon="-2.35017">
        <ele>6.4</ele>
        <time>2018-09-16T09:22:52.000Z</time>
      </trkpt>
      <trkpt lat="46.72494" lon="-2.35017">
        <ele>6.4</ele>
        <time>2018-09-16T09:22:53.000Z</time>
      </trkpt>
      <trkpt lat="46.72494" lon="-2.35017">
        <ele>6.4</ele>
        <time>2018-09-16T09:22:54.000Z</time>
      </trkpt>
      <trkpt lat="46.72493" lon="-2.35017">
        <ele>6.5</ele>
        <time>2018-09-16T09:22:55.000Z</time>
      </trkpt>
      <trkpt lat="46.72492" lon="-2.35017">
        <ele>6.5</ele>
        <time>2018-09-16T09:22:56.000Z</time>
      </trkpt>
      <trkpt lat="46.72492" lon="-2.35017">
        <ele>6.5</ele>
        <time>2018-09-16T09:22:57.000Z</time>
      </trkpt>
      <trkpt lat="46.72491" lon="-2.35017">
        <ele>6.6</ele>
        <time>2018-09-16T09:22:58.000Z</time>
      </trkpt>
      <trkpt lat="46.7249" lon="-2.35017">
        <ele>6.6</ele>
        <time>2018-09-16T09:22:59.000Z</time>
      </trkpt>
      <trkpt lat="46.72489" lon="-2.35017">
        <ele>6.6</ele>
        <time>2018-09-16T09:23:00.000Z</time>
      </trkpt>
      <trkpt lat="46.72488" lon="-2.35017">
        <ele>6.7</ele>
        <time>2018-09-16T09:23:01.000Z</time>
      </trkpt>
      <trkpt lat="46.72487" lon="-2.35017">
        <ele>6.7</ele>
        <time>2018-09-16T09:23:02.000Z</time>
      </trkpt>
      <trkpt lat="46.72486" lon="-2.35017">
        <ele>6.7</ele>
        <time>2018-09-16T09:23:03.000Z</time>
      </trkpt>
      <trkpt lat="46.72485" lon="-2.35018">
        <ele>6.8</ele>
        <time>2018-09-16T09:23:04.000Z</time>
      </trkpt>
      <trkpt lat="46.72484" lon="-2.35018">
        <ele>6.8</ele>
        <time>2018-09-16T09:23:05.000Z</time>
      </trkpt>
      <trkpt lat="46.72483" lon="-2.35018">
        <ele>6.9</ele>
        <time>2018-09-16T09:23:06.000Z</time>
      </trkpt>
      <trkpt lat="46.72482" lon="-2.35018">
        <ele>6.9</ele>
        <time>2018-09-16T09:23:07.000Z</time>
      </trkpt>
      <trkpt lat="46.72481" lon="-2.35018">
        <ele>6.9</ele>
        <time>2018-09-16T09:23:08.000Z</time>
      </trkpt>
      <trkpt lat="46.7248" lon="-2.35018">
        <ele>7</ele>
        <time>2018-09-16T09:23:09.000Z</time>
      </trkpt>
      <trkpt lat="46.72479" lon="-2.35018">
        <ele>7</ele>
        <time>2018-09-16T09:23:10.000Z</time>
      </trkpt>
      <trkpt lat="46.72478" lon="-2.35018">
        <ele>7</ele>
        <time>2018-09-16T09:23:11.000Z</time>
      </trkpt>
      <trkpt lat="46.72477" lon="-2.35018">
        <ele>7.1</ele>
        <time>2018-09-16T09:23:12.000Z</time>
      </trkpt>
      <trkpt lat="46.72477" lon="-2.35018">
        <ele>7.1</ele>
        <time>2018-09-16T09:23:13.000Z</time>
      </trkpt>
      <trkpt lat="46.72476" lon="-2.35018">
        <ele>7.2</ele>
        <time>2018-09-16T09:23:14.000Z</time>
      </trkpt>
      <trkpt lat="46.72475" lon="-2.35018">
        <ele>7.2</ele>
        <time>2018-09-16T09:23:15.000Z</time>
      </trkpt>
      <trkpt lat="46.72474" lon="-2.35018">
        <ele>7.2</ele>
        <time>2018-09-16T09:23:16.000Z</time>
      </trkpt>
      <trkpt lat="46.72473" lon="-2.35018">
        <ele>7.3</ele>
        <time>2018-09-16T09:23:17.000Z</time>
      </trkpt>
      <trkpt lat="46.72472" lon="-2.35018">
        <ele>7.3</ele>
        <time>2018-09-16T09:23:18.000Z</time>
      </trkpt>
      <trkpt lat="46.72471" lon="-2.35019">
        <ele>7.4</ele>
        <time>2018-09-16T09:23:19.000Z</time>
      </trkpt>
      <trkpt lat="46.7247" lon="-2.35019">
        <ele>7.4</ele>
        <time>2018-09-16T09:23:20.000Z</time>
      </trkpt>
      <trkpt lat="46.72469" lon="-2.35019">
        <ele>7.4</ele>
        <time>2018-09-16T09:23:21.000Z</time>
      </trkpt>
      <trkpt lat="46.72468" lon="-2.35019">
        <ele>7.5</ele>
        <time>2018-09-16T09:23:22.000Z</time>
      </trkpt>
      <trkpt lat="46.72467" lon="-2.35019">
        <ele>7.5</ele>
        <time>2018-09-16T09:23:23.000Z</time>
      </trkpt>
      <trkpt lat="46.72466" lon="-2.35019">
        <ele>7.6</ele>
        <time>2018-09-16T09:23:24.000Z</time>
      </trkpt>
      <trkpt lat="46.72465" lon="-2.35019">
        <ele>7.6</ele>
        <time>2018-09-16T09:23:25.000Z</time>
      </trkpt>
      <trkpt lat="46.72464" lon="-2.35019">
        <ele>7.6</ele>
        <time>2018-09-16T09:23:26.000Z</time>
      </trkpt>
      <trkpt lat="46.72463" lon="-2.35019">
        <ele>7.7</ele>
        <time>2018-09-16T09:23:27.000Z</time>
      </trkpt>
      <trkpt lat="46.72462" lon="-2.35018">
        <ele>7.7</ele>
        <time>2018-09-16T09:23:28.000Z</time>
      </trkpt>
      <trkpt lat="46.72461" lon="-2.35018">
        <ele>7.7</ele>
        <time>2018-09-16T09:23:29.000Z</time>
      </trkpt>
      <trkpt lat="46.72461" lon="-2.35018">
        <ele>7.7</ele>
        <time>2018-09-16T09:23:30.000Z</time>
      </trkpt>
      <trkpt lat="46.7246" lon="-2.35018">
        <ele>7.8</ele>
        <time>2018-09-16T09:23:31.000Z</time>
      </trkpt>
      <trkpt lat="46.72459" lon="-2.35018">
        <ele>7.8</ele>
        <time>2018-09-16T09:23:32.000Z</time>
      </trkpt>
      <trkpt lat="46.72458" lon="-2.35017">
        <ele>7.8</ele>
        <time>2018-09-16T09:23:33.000Z</time>
      </trkpt>
      <trkpt lat="46.72456" lon="-2.35017">
        <ele>7.9</ele>
        <time>2018-09-16T09:23:34.000Z</time>
      </trkpt>
      <trkpt lat="46.72455" lon="-2.35017">
        <ele>7.9</ele>
        <time>2018-09-16T09:23:35.000Z</time>
      </trkpt>
      <trkpt lat="46.72454" lon="-2.35017">
        <ele>8</ele>
        <time>2018-09-16T09:23:36.000Z</time>
      </trkpt>
      <trkpt lat="46.72453" lon="-2.35018">
        <ele>8</ele>
        <time>2018-09-16T09:23:37.000Z</time>
      </trkpt>
      <trkpt lat="46.72452" lon="-2.35018">
        <ele>8</ele>
        <time>2018-09-16T09:23:38.000Z</time>
      </trkpt>
      <trkpt lat="46.72452" lon="-2.35018">
        <ele>8.1</ele>
        <time>2018-09-16T09:23:39.000Z</time>
      </trkpt>
      <trkpt lat="46.72451" lon="-2.35018">
        <ele>8.1</ele>
        <time>2018-09-16T09:23:40.000Z</time>
      </trkpt>
      <trkpt lat="46.72451" lon="-2.35018">
        <ele>8.1</ele>
        <time>2018-09-16T09:23:41.000Z</time>
      </trkpt>
      <trkpt lat="46.7245" lon="-2.35019">
        <ele>8.2</ele>
        <time>2018-09-16T09:23:42.000Z</time>
      </trkpt>
      <trkpt lat="46.7245" lon="-2.35019">
        <ele>8.2</ele>
        <time>2018-09-16T09:23:43.000Z</time>
      </trkpt>
      <trkpt lat="46.7245" lon="-2.35019">
        <ele>8.2</ele>
        <time>2018-09-16T09:23:44.000Z</time>
      </trkpt>
      <trkpt lat="46.7245" lon="-2.35019">
        <ele>8.2</ele>
        <time>2018-09-16T09:23:45.000Z</time>
      </trkpt>
      <trkpt lat="46.7245" lon="-2.3502">
        <ele>8.2</ele>
        <time>2018-09-16T09:23:46.000Z</time>
      </trkpt>
      <trkpt lat="46.72449" lon="-2.3502">
        <ele>8.2</ele>
        <time>2018-09-16T09:23:47.000Z</time>
      </trkpt>
      <trkpt lat="46.72449" lon="-2.3502">
        <ele>8.2</ele>
        <time>2018-09-16T09:23:48.000Z</time>
      </trkpt>
      <trkpt lat="46.72449" lon="-2.3502">
        <ele>8.2</ele>
        <time>2018-09-16T09:23:49.000Z</time>
      </trkpt>
      <trkpt lat="46.72449" lon="-2.35021">
        <ele>8.2</ele>
        <time>2018-09-16T09:23:50.000Z</time>
      </trkpt>
      <trkpt lat="46.72449" lon="-2.35021">
        <ele>8.2</ele>
        <time>2018-09-16T09:23:51.000Z</time>
      </trkpt>
      <trkpt lat="46.72449" lon="-2.35021">
        <ele>8.3</ele>
        <time>2018-09-16T09:23:52.000Z</time>
      </trkpt>
      <trkpt lat="46.72448" lon="-2.35021">
        <ele>8.3</ele>
        <time>2018-09-16T09:23:53.000Z</time>
      </trkpt>
      <trkpt lat="46.72448" lon="-2.35021">
        <ele>8.3</ele>
        <time>2018-09-16T09:23:54.000Z</time>
      </trkpt>
      <trkpt lat="46.72448" lon="-2.35021">
        <ele>8.3</ele>
        <time>2018-09-16T09:23:55.000Z</time>
      </trkpt>
      <trkpt lat="46.72448" lon="-2.35021">
        <ele>8.3</ele>
        <time>2018-09-16T09:23:56.000Z</time>
      </trkpt>
      <trkpt lat="46.72448" lon="-2.35021">
        <ele>8.3</ele>
        <time>2018-09-16T09:23:57.000Z</time>
      </trkpt>
      <trkpt lat="46.72448" lon="-2.35021">
        <ele>8.3</ele>
        <time>2018-09-16T09:23:58.000Z</time>
      </trkpt>
      <trkpt lat="46.72448" lon="-2.35021">
        <ele>8.3</ele>
        <time>2018-09-16T09:23:59.000Z</time>
      </trkpt>
      <trkpt lat="46.72448" lon="-2.35021">
        <ele>8.3</ele>
        <time>2018-09-16T09:24:00.000Z</time>
      </trkpt>
      <trkpt lat="46.72448" lon="-2.35021">
        <ele>8.3</ele>
        <time>2018-09-16T09:24:01.000Z</time>
      </trkpt>
      <trkpt lat="46.72448" lon="-2.35021">
        <ele>8.3</ele>
        <time>2018-09-16T09:24:02.000Z</time>
      </trkpt>
      <trkpt lat="46.72448" lon="-2.35021">
        <ele>8.3</ele>
        <time>2018-09-16T09:24:03.000Z</time>
      </trkpt>
      <trkpt lat="46.72448" lon="-2.35021">
        <ele>8.3</ele>
        <time>2018-09-16T09:24:04.000Z</time>
      </trkpt>
      <trkpt lat="46.72448" lon="-2.35021">
        <ele>8.3</ele>
        <time>2018-09-16T09:24:05.000Z</time>
      </trkpt>
      <trkpt lat="46.72448" lon="-2.35021">
        <ele>8.3</ele>
        <time>2018-09-16T09:24:06.000Z</time>
      </trkpt>
      <trkpt lat="46.72448" lon="-2.35021">
        <ele>8.3</ele>
        <time>2018-09-16T09:24:07.000Z</time>
      </trkpt>
      <trkpt lat="46.72448" lon="-2.35021">
        <ele>8.3</ele>
        <time>2018-09-16T09:24:08.000Z</time>
      </trkpt>
      <trkpt lat="46.72448" lon="-2.35021">
        <ele>8.3</ele>
        <time>2018-09-16T09:24:09.000Z</time>
      </trkpt>
      <trkpt lat="46.72448" lon="-2.35021">
        <ele>8.3</ele>
        <time>2018-09-16T09:24:10.000Z</time>
      </trkpt>
      <trkpt lat="46.72448" lon="-2.35021">
        <ele>8.3</ele>
        <time>2018-09-16T09:24:11.000Z</time>
      </trkpt>
      <trkpt lat="46.72448" lon="-2.35021">
        <ele>8.3</ele>
        <time>2018-09-16T09:24:12.000Z</time>
      </trkpt>
      <trkpt lat="46.72448" lon="-2.35021">
        <ele>8.3</ele>
        <time>2018-09-16T09:24:13.000Z</time>
      </trkpt>
      <trkpt lat="46.72448" lon="-2.35021">
        <ele>8.3</ele>
        <time>2018-09-16T09:24:14.000Z</time>
      </trkpt>
      <trkpt lat="46.72448" lon="-2.35022">
        <ele>8.3</ele>
        <time>2018-09-16T09:24:15.000Z</time>
      </trkpt>
      <trkpt lat="46.72447" lon="-2.35022">
        <ele>8.3</ele>
        <time>2018-09-16T09:24:16.000Z</time>
      </trkpt>
      <trkpt lat="46.72447" lon="-2.35022">
        <ele>8.3</ele>
        <time>2018-09-16T09:24:17.000Z</time>
      </trkpt>
      <trkpt lat="46.72447" lon="-2.35022">
        <ele>8.3</ele>
        <time>2018-09-16T09:24:18.000Z</time>
      </trkpt>
      <trkpt lat="46.72447" lon="-2.35022">
        <ele>8.3</ele>
        <time>2018-09-16T09:24:19.000Z</time>
      </trkpt>
      <trkpt lat="46.72447" lon="-2.35022">
        <ele>8.3</ele>
        <time>2018-09-16T09:24:20.000Z</time>
      </trkpt>
      <trkpt lat="46.72446" lon="-2.35022">
        <ele>8.4</ele>
        <time>2018-09-16T09:24:21.000Z</time>
      </trkpt>
      <trkpt lat="46.72446" lon="-2.35023">
        <ele>8.4</ele>
        <time>2018-09-16T09:24:22.000Z</time>
      </trkpt>
      <trkpt lat="46.72445" lon="-2.35023">
        <ele>8.4</ele>
        <time>2018-09-16T09:24:23.000Z</time>
      </trkpt>
      <trkpt lat="46.72444" lon="-2.35023">
        <ele>8.5</ele>
        <time>2018-09-16T09:24:24.000Z</time>
      </trkpt>
      <trkpt lat="46.72443" lon="-2.35022">
        <ele>8.5</ele>
        <time>2018-09-16T09:24:25.000Z</time>
      </trkpt>
      <trkpt lat="46.72443" lon="-2.35022">
        <ele>8.5</ele>
        <time>2018-09-16T09:24:26.000Z</time>
      </trkpt>
      <trkpt lat="46.72442" lon="-2.35022">
        <ele>8.5</ele>
        <time>2018-09-16T09:24:27.000Z</time>
      </trkpt>
      <trkpt lat="46.72441" lon="-2.35022">
        <ele>8.6</ele>
        <time>2018-09-16T09:24:28.000Z</time>
      </trkpt>
      <trkpt lat="46.7244" lon="-2.35022">
        <ele>8.6</ele>
        <time>2018-09-16T09:24:29.000Z</time>
      </trkpt>
      <trkpt lat="46.72439" lon="-2.35022">
        <ele>8.7</ele>
        <time>2018-09-16T09:24:30.000Z</time>
      </trkpt>
      <trkpt lat="46.72438" lon="-2.35022">
        <ele>8.7</ele>
        <time>2018-09-16T09:24:31.000Z</time>
      </trkpt>
      <trkpt lat="46.72437" lon="-2.35021">
        <ele>8.7</ele>
        <time>2018-09-16T09:24:32.000Z</time>
      </trkpt>
      <trkpt lat="46.72436" lon="-2.35021">
        <ele>8.8</ele>
        <time>2018-09-16T09:24:33.000Z</time>
      </trkpt>
      <trkpt lat="46.72435" lon="-2.35021">
        <ele>8.8</ele>
        <time>2018-09-16T09:24:34.000Z</time>
      </trkpt>
      <trkpt lat="46.72434" lon="-2.35022">
        <ele>8.9</ele>
        <time>2018-09-16T09:24:35.000Z</time>
      </trkpt>
      <trkpt lat="46.72433" lon="-2.35022">
        <ele>8.9</ele>
        <time>2018-09-16T09:24:36.000Z</time>
      </trkpt>
      <trkpt lat="46.72432" lon="-2.35022">
        <ele>8.9</ele>
        <time>2018-09-16T09:24:37.000Z</time>
      </trkpt>
      <trkpt lat="46.72431" lon="-2.35022">
        <ele>9</ele>
        <time>2018-09-16T09:24:38.000Z</time>
      </trkpt>
      <trkpt lat="46.7243" lon="-2.35022">
        <ele>9</ele>
        <time>2018-09-16T09:24:39.000Z</time>
      </trkpt>
      <trkpt lat="46.72429" lon="-2.35022">
        <ele>9.1</ele>
        <time>2018-09-16T09:24:40.000Z</time>
      </trkpt>
      <trkpt lat="46.72428" lon="-2.35022">
        <ele>9.1</ele>
        <time>2018-09-16T09:24:41.000Z</time>
      </trkpt>
      <trkpt lat="46.72427" lon="-2.35022">
        <ele>9.1</ele>
        <time>2018-09-16T09:24:42.000Z</time>
      </trkpt>
      <trkpt lat="46.72426" lon="-2.35023">
        <ele>9.2</ele>
        <time>2018-09-16T09:24:43.000Z</time>
      </trkpt>
      <trkpt lat="46.72425" lon="-2.35023">
        <ele>9.2</ele>
        <time>2018-09-16T09:24:44.000Z</time>
      </trkpt>
      <trkpt lat="46.72424" lon="-2.35023">
        <ele>9.3</ele>
        <time>2018-09-16T09:24:45.000Z</time>
      </trkpt>
      <trkpt lat="46.72422" lon="-2.35023">
        <ele>9.3</ele>
        <time>2018-09-16T09:24:46.000Z</time>
      </trkpt>
      <trkpt lat="46.72421" lon="-2.35023">
        <ele>9.4</ele>
        <time>2018-09-16T09:24:47.000Z</time>
      </trkpt>
      <trkpt lat="46.7242" lon="-2.35024">
        <ele>9.4</ele>
        <time>2018-09-16T09:24:48.000Z</time>
      </trkpt>
      <trkpt lat="46.72419" lon="-2.35024">
        <ele>9.5</ele>
        <time>2018-09-16T09:24:49.000Z</time>
      </trkpt>
      <trkpt lat="46.72418" lon="-2.35024">
        <ele>9.5</ele>
        <time>2018-09-16T09:24:50.000Z</time>
      </trkpt>
      <trkpt lat="46.72417" lon="-2.35024">
        <ele>9.6</ele>
        <time>2018-09-16T09:24:51.000Z</time>
      </trkpt>
      <trkpt lat="46.72416" lon="-2.35025">
        <ele>9.6</ele>
        <time>2018-09-16T09:24:52.000Z</time>
      </trkpt>
      <trkpt lat="46.72415" lon="-2.35025">
        <ele>9.7</ele>
        <time>2018-09-16T09:24:53.000Z</time>
      </trkpt>
      <trkpt lat="46.72414" lon="-2.35025">
        <ele>9.7</ele>
        <time>2018-09-16T09:24:54.000Z</time>
      </trkpt>
      <trkpt lat="46.72413" lon="-2.35025">
        <ele>9.7</ele>
        <time>2018-09-16T09:24:55.000Z</time>
      </trkpt>
      <trkpt lat="46.72412" lon="-2.35026">
        <ele>9.8</ele>
        <time>2018-09-16T09:24:56.000Z</time>
      </trkpt>
      <trkpt lat="46.7241" lon="-2.35026">
        <ele>9.8</ele>
        <time>2018-09-16T09:24:57.000Z</time>
      </trkpt>
      <trkpt lat="46.72409" lon="-2.35026">
        <ele>9.9</ele>
        <time>2018-09-16T09:24:58.000Z</time>
      </trkpt>
      <trkpt lat="46.72408" lon="-2.35027">
        <ele>9.9</ele>
        <time>2018-09-16T09:24:59.000Z</time>
      </trkpt>
      <trkpt lat="46.72407" lon="-2.35027">
        <ele>10</ele>
        <time>2018-09-16T09:25:00.000Z</time>
      </trkpt>
      <trkpt lat="46.72406" lon="-2.35027">
        <ele>10</ele>
        <time>2018-09-16T09:25:01.000Z</time>
      </trkpt>
      <trkpt lat="46.72405" lon="-2.35028">
        <ele>10</ele>
        <time>2018-09-16T09:25:02.000Z</time>
      </trkpt>
      <trkpt lat="46.72404" lon="-2.35028">
        <ele>10.1</ele>
        <time>2018-09-16T09:25:03.000Z</time>
      </trkpt>
      <trkpt lat="46.72402" lon="-2.35028">
        <ele>10.1</ele>
        <time>2018-09-16T09:25:04.000Z</time>
      </trkpt>
      <trkpt lat="46.72401" lon="-2.35029">
        <ele>10.2</ele>
        <time>2018-09-16T09:25:05.000Z</time>
      </trkpt>
      <trkpt lat="46.724" lon="-2.35029">
        <ele>10.2</ele>
        <time>2018-09-16T09:25:06.000Z</time>
      </trkpt>
      <trkpt lat="46.72399" lon="-2.35029">
        <ele>10.3</ele>
        <time>2018-09-16T09:25:07.000Z</time>
      </trkpt>
      <trkpt lat="46.72398" lon="-2.3503">
        <ele>10.3</ele>
        <time>2018-09-16T09:25:08.000Z</time>
      </trkpt>
      <trkpt lat="46.72397" lon="-2.3503">
        <ele>10.4</ele>
        <time>2018-09-16T09:25:09.000Z</time>
      </trkpt>
      <trkpt lat="46.72396" lon="-2.3503">
        <ele>10.4</ele>
        <time>2018-09-16T09:25:10.000Z</time>
      </trkpt>
      <trkpt lat="46.72394" lon="-2.35031">
        <ele>10.4</ele>
        <time>2018-09-16T09:25:11.000Z</time>
      </trkpt>
      <trkpt lat="46.72393" lon="-2.35031">
        <ele>10.5</ele>
        <time>2018-09-16T09:25:12.000Z</time>
      </trkpt>
      <trkpt lat="46.72392" lon="-2.35031">
        <ele>10.5</ele>
        <time>2018-09-16T09:25:13.000Z</time>
      </trkpt>
      <trkpt lat="46.72391" lon="-2.35032">
        <ele>10.6</ele>
        <time>2018-09-16T09:25:14.000Z</time>
      </trkpt>
      <trkpt lat="46.7239" lon="-2.35032">
        <ele>10.6</ele>
        <time>2018-09-16T09:25:15.000Z</time>
      </trkpt>
      <trkpt lat="46.72389" lon="-2.35032">
        <ele>10.6</ele>
        <time>2018-09-16T09:25:16.000Z</time>
      </trkpt>
      <trkpt lat="46.72388" lon="-2.35033">
        <ele>10.7</ele>
        <time>2018-09-16T09:25:17.000Z</time>
      </trkpt>
      <trkpt lat="46.72387" lon="-2.35033">
        <ele>10.7</ele>
        <time>2018-09-16T09:25:18.000Z</time>
      </trkpt>
      <trkpt lat="46.72386" lon="-2.35033">
        <ele>10.8</ele>
        <time>2018-09-16T09:25:19.000Z</time>
      </trkpt>
      <trkpt lat="46.72385" lon="-2.35034">
        <ele>10.8</ele>
        <time>2018-09-16T09:25:20.000Z</time>
      </trkpt>
      <trkpt lat="46.72384" lon="-2.35034">
        <ele>10.8</ele>
        <time>2018-09-16T09:25:21.000Z</time>
      </trkpt>
      <trkpt lat="46.72383" lon="-2.35035">
        <ele>10.9</ele>
        <time>2018-09-16T09:25:22.000Z</time>
      </trkpt>
      <trkpt lat="46.72381" lon="-2.35035">
        <ele>10.9</ele>
        <time>2018-09-16T09:25:23.000Z</time>
      </trkpt>
      <trkpt lat="46.7238" lon="-2.35035">
        <ele>11</ele>
        <time>2018-09-16T09:25:24.000Z</time>
      </trkpt>
      <trkpt lat="46.72379" lon="-2.35036">
        <ele>11</ele>
        <time>2018-09-16T09:25:25.000Z</time>
      </trkpt>
      <trkpt lat="46.72378" lon="-2.35036">
        <ele>11.1</ele>
        <time>2018-09-16T09:25:26.000Z</time>
      </trkpt>
      <trkpt lat="46.72377" lon="-2.35037">
        <ele>11.1</ele>
        <time>2018-09-16T09:25:27.000Z</time>
      </trkpt>
      <trkpt lat="46.72376" lon="-2.35037">
        <ele>11.1</ele>
        <time>2018-09-16T09:25:28.000Z</time>
      </trkpt>
      <trkpt lat="46.72375" lon="-2.35038">
        <ele>11.2</ele>
        <time>2018-09-16T09:25:29.000Z</time>
      </trkpt>
      <trkpt lat="46.72373" lon="-2.35038">
        <ele>11.2</ele>
        <time>2018-09-16T09:25:30.000Z</time>
      </trkpt>
      <trkpt lat="46.72372" lon="-2.35039">
        <ele>11.3</ele>
        <time>2018-09-16T09:25:31.000Z</time>
      </trkpt>
      <trkpt lat="46.72371" lon="-2.35039">
        <ele>11.3</ele>
        <time>2018-09-16T09:25:32.000Z</time>
      </trkpt>
      <trkpt lat="46.7237" lon="-2.3504">
        <ele>11.4</ele>
        <time>2018-09-16T09:25:33.000Z</time>
      </trkpt>
      <trkpt lat="46.72369" lon="-2.3504">
        <ele>11.4</ele>
        <time>2018-09-16T09:25:34.000Z</time>
      </trkpt>
      <trkpt lat="46.72368" lon="-2.3504">
        <ele>11.4</ele>
        <time>2018-09-16T09:25:35.000Z</time>
      </trkpt>
      <trkpt lat="46.72367" lon="-2.35041">
        <ele>11.5</ele>
        <time>2018-09-16T09:25:36.000Z</time>
      </trkpt>
      <trkpt lat="46.72365" lon="-2.35041">
        <ele>11.5</ele>
        <time>2018-09-16T09:25:37.000Z</time>
      </trkpt>
      <trkpt lat="46.72364" lon="-2.35042">
        <ele>11.6</ele>
        <time>2018-09-16T09:25:38.000Z</time>
      </trkpt>
      <trkpt lat="46.72363" lon="-2.35042">
        <ele>11.6</ele>
        <time>2018-09-16T09:25:39.000Z</time>
      </trkpt>
      <trkpt lat="46.72362" lon="-2.35043">
        <ele>11.7</ele>
        <time>2018-09-16T09:25:40.000Z</time>
      </trkpt>
      <trkpt lat="46.72361" lon="-2.35043">
        <ele>11.7</ele>
        <time>2018-09-16T09:25:41.000Z</time>
      </trkpt>
      <trkpt lat="46.7236" lon="-2.35043">
        <ele>11.7</ele>
        <time>2018-09-16T09:25:42.000Z</time>
      </trkpt>
      <trkpt lat="46.72359" lon="-2.35044">
        <ele>11.8</ele>
        <time>2018-09-16T09:25:43.000Z</time>
      </trkpt>
      <trkpt lat="46.72357" lon="-2.35044">
        <ele>11.8</ele>
        <time>2018-09-16T09:25:44.000Z</time>
      </trkpt>
      <trkpt lat="46.72356" lon="-2.35044">
        <ele>11.9</ele>
        <time>2018-09-16T09:25:45.000Z</time>
      </trkpt>
      <trkpt lat="46.72355" lon="-2.35045">
        <ele>11.9</ele>
        <time>2018-09-16T09:25:46.000Z</time>
      </trkpt>
      <trkpt lat="46.72354" lon="-2.35045">
        <ele>11.9</ele>
        <time>2018-09-16T09:25:47.000Z</time>
      </trkpt>
      <trkpt lat="46.72353" lon="-2.35045">
        <ele>12</ele>
        <time>2018-09-16T09:25:48.000Z</time>
      </trkpt>
      <trkpt lat="46.72352" lon="-2.35046">
        <ele>12</ele>
        <time>2018-09-16T09:25:49.000Z</time>
      </trkpt>
      <trkpt lat="46.72351" lon="-2.35046">
        <ele>12</ele>
        <time>2018-09-16T09:25:50.000Z</time>
      </trkpt>
      <trkpt lat="46.7235" lon="-2.35046">
        <ele>12.1</ele>
        <time>2018-09-16T09:25:51.000Z</time>
      </trkpt>
      <trkpt lat="46.72349" lon="-2.35046">
        <ele>12.1</ele>
        <time>2018-09-16T09:25:52.000Z</time>
      </trkpt>
      <trkpt lat="46.72348" lon="-2.35047">
        <ele>12.1</ele>
        <time>2018-09-16T09:25:53.000Z</time>
      </trkpt>
      <trkpt lat="46.72347" lon="-2.35047">
        <ele>12.2</ele>
        <time>2018-09-16T09:25:54.000Z</time>
      </trkpt>
      <trkpt lat="46.72345" lon="-2.35047">
        <ele>12.2</ele>
        <time>2018-09-16T09:25:55.000Z</time>
      </trkpt>
      <trkpt lat="46.72344" lon="-2.35047">
        <ele>12.2</ele>
        <time>2018-09-16T09:25:56.000Z</time>
      </trkpt>
      <trkpt lat="46.72343" lon="-2.35047">
        <ele>12.3</ele>
        <time>2018-09-16T09:25:57.000Z</time>
      </trkpt>
      <trkpt lat="46.72342" lon="-2.35048">
        <ele>12.3</ele>
        <time>2018-09-16T09:25:58.000Z</time>
      </trkpt>
      <trkpt lat="46.72341" lon="-2.35048">
        <ele>12.3</ele>
        <time>2018-09-16T09:25:59.000Z</time>
      </trkpt>
      <trkpt lat="46.7234" lon="-2.35048">
        <ele>12.4</ele>
        <time>2018-09-16T09:26:00.000Z</time>
      </trkpt>
      <trkpt lat="46.72339" lon="-2.35048">
        <ele>12.4</ele>
        <time>2018-09-16T09:26:01.000Z</time>
      </trkpt>
      <trkpt lat="46.72338" lon="-2.35048">
        <ele>12.4</ele>
        <time>2018-09-16T09:26:02.000Z</time>
      </trkpt>
      <trkpt lat="46.72337" lon="-2.35048">
        <ele>12.5</ele>
        <time>2018-09-16T09:26:03.000Z</time>
      </trkpt>
      <trkpt lat="46.72336" lon="-2.35049">
        <ele>12.5</ele>
        <time>2018-09-16T09:26:04.000Z</time>
      </trkpt>
      <trkpt lat="46.72335" lon="-2.35049">
        <ele>12.5</ele>
        <time>2018-09-16T09:26:05.000Z</time>
      </trkpt>
      <trkpt lat="46.72334" lon="-2.35049">
        <ele>12.6</ele>
        <time>2018-09-16T09:26:06.000Z</time>
      </trkpt>
      <trkpt lat="46.72333" lon="-2.35049">
        <ele>12.6</ele>
        <time>2018-09-16T09:26:07.000Z</time>
      </trkpt>
      <trkpt lat="46.72332" lon="-2.35049">
        <ele>12.6</ele>
        <time>2018-09-16T09:26:08.000Z</time>
      </trkpt>
      <trkpt lat="46.72331" lon="-2.35049">
        <ele>12.6</ele>
        <time>2018-09-16T09:26:09.000Z</time>
      </trkpt>
      <trkpt lat="46.7233" lon="-2.35049">
        <ele>12.6</ele>
        <time>2018-09-16T09:26:10.000Z</time>
      </trkpt>
      <trkpt lat="46.72329" lon="-2.3505">
        <ele>12.6</ele>
        <time>2018-09-16T09:26:11.000Z</time>
      </trkpt>
      <trkpt lat="46.72328" lon="-2.3505">
        <ele>12.6</ele>
        <time>2018-09-16T09:26:12.000Z</time>
      </trkpt>
      <trkpt lat="46.72327" lon="-2.3505">
        <ele>12.6</ele>
        <time>2018-09-16T09:26:13.000Z</time>
      </trkpt>
      <trkpt lat="46.72326" lon="-2.3505">
        <ele>12.6</ele>
        <time>2018-09-16T09:26:14.000Z</time>
      </trkpt>
      <trkpt lat="46.72325" lon="-2.35049">
        <ele>12.7</ele>
        <time>2018-09-16T09:26:15.000Z</time>
      </trkpt>
      <trkpt lat="46.72324" lon="-2.35049">
        <ele>12.7</ele>
        <time>2018-09-16T09:26:16.000Z</time>
      </trkpt>
      <trkpt lat="46.72323" lon="-2.35049">
        <ele>12.7</ele>
        <time>2018-09-16T09:26:17.000Z</time>
      </trkpt>
      <trkpt lat="46.72322" lon="-2.35049">
        <ele>12.7</ele>
        <time>2018-09-16T09:26:18.000Z</time>
      </trkpt>
      <trkpt lat="46.72321" lon="-2.35049">
        <ele>12.7</ele>
        <time>2018-09-16T09:26:19.000Z</time>
      </trkpt>
      <trkpt lat="46.7232" lon="-2.35048">
        <ele>12.7</ele>
        <time>2018-09-16T09:26:20.000Z</time>
      </trkpt>
      <trkpt lat="46.72319" lon="-2.35048">
        <ele>12.7</ele>
        <time>2018-09-16T09:26:21.000Z</time>
      </trkpt>
      <trkpt lat="46.72318" lon="-2.35048">
        <ele>12.7</ele>
        <time>2018-09-16T09:26:22.000Z</time>
      </trkpt>
      <trkpt lat="46.72317" lon="-2.35047">
        <ele>12.7</ele>
        <time>2018-09-16T09:26:23.000Z</time>
      </trkpt>
      <trkpt lat="46.72316" lon="-2.35047">
        <ele>12.7</ele>
        <time>2018-09-16T09:26:24.000Z</time>
      </trkpt>
      <trkpt lat="46.72315" lon="-2.35047">
        <ele>12.7</ele>
        <time>2018-09-16T09:26:25.000Z</time>
      </trkpt>
      <trkpt lat="46.72314" lon="-2.35046">
        <ele>12.7</ele>
        <time>2018-09-16T09:26:26.000Z</time>
      </trkpt>
      <trkpt lat="46.72313" lon="-2.35046">
        <ele>12.7</ele>
        <time>2018-09-16T09:26:27.000Z</time>
      </trkpt>
      <trkpt lat="46.72312" lon="-2.35045">
        <ele>12.7</ele>
        <time>2018-09-16T09:26:28.000Z</time>
      </trkpt>
      <trkpt lat="46.72311" lon="-2.35045">
        <ele>12.7</ele>
        <time>2018-09-16T09:26:29.000Z</time>
      </trkpt>
      <trkpt lat="46.7231" lon="-2.35044">
        <ele>12.7</ele>
        <time>2018-09-16T09:26:30.000Z</time>
      </trkpt>
      <trkpt lat="46.72309" lon="-2.35044">
        <ele>12.7</ele>
        <time>2018-09-16T09:26:31.000Z</time>
      </trkpt>
      <trkpt lat="46.72308" lon="-2.35044">
        <ele>12.7</ele>
        <time>2018-09-16T09:26:32.000Z</time>
      </trkpt>
      <trkpt lat="46.72307" lon="-2.35043">
        <ele>12.7</ele>
        <time>2018-09-16T09:26:33.000Z</time>
      </trkpt>
      <trkpt lat="46.72307" lon="-2.35043">
        <ele>12.7</ele>
        <time>2018-09-16T09:26:34.000Z</time>
      </trkpt>
      <trkpt lat="46.72306" lon="-2.35043">
        <ele>12.7</ele>
        <time>2018-09-16T09:26:35.000Z</time>
      </trkpt>
      <trkpt lat="46.72305" lon="-2.35042">
        <ele>12.7</ele>
        <time>2018-09-16T09:26:36.000Z</time>
      </trkpt>
      <trkpt lat="46.72304" lon="-2.35042">
        <ele>12.7</ele>
        <time>2018-09-16T09:26:37.000Z</time>
      </trkpt>
      <trkpt lat="46.72303" lon="-2.35042">
        <ele>12.7</ele>
        <time>2018-09-16T09:26:38.000Z</time>
      </trkpt>
      <trkpt lat="46.72302" lon="-2.35041">
        <ele>12.7</ele>
        <time>2018-09-16T09:26:39.000Z</time>
      </trkpt>
      <trkpt lat="46.72301" lon="-2.35041">
        <ele>12.7</ele>
        <time>2018-09-16T09:26:40.000Z</time>
      </trkpt>
      <trkpt lat="46.723" lon="-2.35041">
        <ele>12.7</ele>
        <time>2018-09-16T09:26:41.000Z</time>
      </trkpt>
      <trkpt lat="46.72299" lon="-2.3504">
        <ele>12.7</ele>
        <time>2018-09-16T09:26:42.000Z</time>
      </trkpt>
      <trkpt lat="46.72298" lon="-2.3504">
        <ele>12.7</ele>
        <time>2018-09-16T09:26:43.000Z</time>
      </trkpt>
      <trkpt lat="46.72297" lon="-2.35039">
        <ele>12.7</ele>
        <time>2018-09-16T09:26:44.000Z</time>
      </trkpt>
      <trkpt lat="46.72296" lon="-2.35039">
        <ele>12.7</ele>
        <time>2018-09-16T09:26:45.000Z</time>
      </trkpt>
      <trkpt lat="46.72295" lon="-2.35039">
        <ele>12.7</ele>
        <time>2018-09-16T09:26:46.000Z</time>
      </trkpt>
      <trkpt lat="46.72294" lon="-2.35038">
        <ele>12.7</ele>
        <time>2018-09-16T09:26:47.000Z</time>
      </trkpt>
      <trkpt lat="46.72293" lon="-2.35038">
        <ele>12.7</ele>
        <time>2018-09-16T09:26:48.000Z</time>
      </trkpt>
      <trkpt lat="46.72292" lon="-2.35037">
        <ele>12.7</ele>
        <time>2018-09-16T09:26:49.000Z</time>
      </trkpt>
      <trkpt lat="46.72291" lon="-2.35037">
        <ele>12.7</ele>
        <time>2018-09-16T09:26:50.000Z</time>
      </trkpt>
      <trkpt lat="46.7229" lon="-2.35036">
        <ele>12.7</ele>
        <time>2018-09-16T09:26:51.000Z</time>
      </trkpt>
      <trkpt lat="46.72289" lon="-2.35036">
        <ele>12.7</ele>
        <time>2018-09-16T09:26:52.000Z</time>
      </trkpt>
      <trkpt lat="46.72289" lon="-2.35035">
        <ele>12.6</ele>
        <time>2018-09-16T09:26:53.000Z</time>
      </trkpt>
      <trkpt lat="46.72288" lon="-2.35035">
        <ele>12.6</ele>
        <time>2018-09-16T09:26:54.000Z</time>
      </trkpt>
      <trkpt lat="46.72287" lon="-2.35034">
        <ele>12.6</ele>
        <time>2018-09-16T09:26:55.000Z</time>
      </trkpt>
      <trkpt lat="46.72286" lon="-2.35034">
        <ele>12.6</ele>
        <time>2018-09-16T09:26:56.000Z</time>
      </trkpt>
      <trkpt lat="46.72285" lon="-2.35033">
        <ele>12.6</ele>
        <time>2018-09-16T09:26:57.000Z</time>
      </trkpt>
      <trkpt lat="46.72284" lon="-2.35032">
        <ele>12.6</ele>
        <time>2018-09-16T09:26:58.000Z</time>
      </trkpt>
      <trkpt lat="46.72283" lon="-2.35032">
        <ele>12.6</ele>
        <time>2018-09-16T09:26:59.000Z</time>
      </trkpt>
      <trkpt lat="46.72282" lon="-2.35031">
        <ele>12.6</ele>
        <time>2018-09-16T09:27:00.000Z</time>
      </trkpt>
      <trkpt lat="46.72281" lon="-2.3503">
        <ele>12.6</ele>
        <time>2018-09-16T09:27:01.000Z</time>
      </trkpt>
      <trkpt lat="46.7228" lon="-2.3503">
        <ele>12.6</ele>
        <time>2018-09-16T09:27:02.000Z</time>
      </trkpt>
      <trkpt lat="46.72279" lon="-2.35029">
        <ele>12.6</ele>
        <time>2018-09-16T09:27:03.000Z</time>
      </trkpt>
      <trkpt lat="46.72278" lon="-2.35028">
        <ele>12.6</ele>
        <time>2018-09-16T09:27:04.000Z</time>
      </trkpt>
      <trkpt lat="46.72277" lon="-2.35027">
        <ele>12.5</ele>
        <time>2018-09-16T09:27:05.000Z</time>
      </trkpt>
      <trkpt lat="46.72276" lon="-2.35027">
        <ele>12.5</ele>
        <time>2018-09-16T09:27:06.000Z</time>
      </trkpt>
      <trkpt lat="46.72275" lon="-2.35026">
        <ele>12.5</ele>
        <time>2018-09-16T09:27:07.000Z</time>
      </trkpt>
      <trkpt lat="46.72274" lon="-2.35025">
        <ele>12.5</ele>
        <time>2018-09-16T09:27:08.000Z</time>
      </trkpt>
      <trkpt lat="46.72274" lon="-2.35024">
        <ele>12.5</ele>
        <time>2018-09-16T09:27:09.000Z</time>
      </trkpt>
      <trkpt lat="46.72273" lon="-2.35024">
        <ele>12.5</ele>
        <time>2018-09-16T09:27:10.000Z</time>
      </trkpt>
      <trkpt lat="46.72272" lon="-2.35023">
        <ele>12.5</ele>
        <time>2018-09-16T09:27:11.000Z</time>
      </trkpt>
      <trkpt lat="46.72271" lon="-2.35023">
        <ele>12.5</ele>
        <time>2018-09-16T09:27:12.000Z</time>
      </trkpt>
      <trkpt lat="46.7227" lon="-2.35022">
        <ele>12.5</ele>
        <time>2018-09-16T09:27:13.000Z</time>
      </trkpt>
      <trkpt lat="46.72269" lon="-2.35022">
        <ele>12.5</ele>
        <time>2018-09-16T09:27:14.000Z</time>
      </trkpt>
      <trkpt lat="46.72268" lon="-2.35022">
        <ele>12.5</ele>
        <time>2018-09-16T09:27:15.000Z</time>
      </trkpt>
      <trkpt lat="46.72267" lon="-2.35022">
        <ele>12.5</ele>
        <time>2018-09-16T09:27:16.000Z</time>
      </trkpt>
      <trkpt lat="46.72267" lon="-2.35022">
        <ele>12.5</ele>
        <time>2018-09-16T09:27:17.000Z</time>
      </trkpt>
      <trkpt lat="46.72266" lon="-2.35021">
        <ele>12.5</ele>
        <time>2018-09-16T09:27:18.000Z</time>
      </trkpt>
      <trkpt lat="46.72265" lon="-2.35021">
        <ele>12.5</ele>
        <time>2018-09-16T09:27:19.000Z</time>
      </trkpt>
      <trkpt lat="46.72264" lon="-2.35021">
        <ele>12.5</ele>
        <time>2018-09-16T09:27:20.000Z</time>
      </trkpt>
      <trkpt lat="46.72264" lon="-2.35021">
        <ele>12.5</ele>
        <time>2018-09-16T09:27:21.000Z</time>
      </trkpt>
      <trkpt lat="46.72263" lon="-2.3502">
        <ele>12.4</ele>
        <time>2018-09-16T09:27:22.000Z</time>
      </trkpt>
      <trkpt lat="46.72262" lon="-2.3502">
        <ele>12.4</ele>
        <time>2018-09-16T09:27:23.000Z</time>
      </trkpt>
      <trkpt lat="46.72262" lon="-2.3502">
        <ele>12.4</ele>
        <time>2018-09-16T09:27:24.000Z</time>
      </trkpt>
      <trkpt lat="46.72261" lon="-2.35019">
        <ele>12.4</ele>
        <time>2018-09-16T09:27:25.000Z</time>
      </trkpt>
      <trkpt lat="46.7226" lon="-2.35019">
        <ele>12.4</ele>
        <time>2018-09-16T09:27:26.000Z</time>
      </trkpt>
      <trkpt lat="46.72259" lon="-2.35019">
        <ele>12.4</ele>
        <time>2018-09-16T09:27:27.000Z</time>
      </trkpt>
      <trkpt lat="46.72258" lon="-2.35018">
        <ele>12.4</ele>
        <time>2018-09-16T09:27:28.000Z</time>
      </trkpt>
      <trkpt lat="46.72256" lon="-2.35018">
        <ele>12.4</ele>
        <time>2018-09-16T09:27:29.000Z</time>
      </trkpt>
      <trkpt lat="46.72255" lon="-2.35018">
        <ele>12.4</ele>
        <time>2018-09-16T09:27:30.000Z</time>
      </trkpt>
      <trkpt lat="46.72254" lon="-2.35017">
        <ele>12.4</ele>
        <time>2018-09-16T09:27:31.000Z</time>
      </trkpt>
      <trkpt lat="46.72253" lon="-2.35017">
        <ele>12.4</ele>
        <time>2018-09-16T09:27:32.000Z</time>
      </trkpt>
      <trkpt lat="46.72251" lon="-2.35017">
        <ele>12.4</ele>
        <time>2018-09-16T09:27:33.000Z</time>
      </trkpt>
      <trkpt lat="46.7225" lon="-2.35016">
        <ele>12.4</ele>
        <time>2018-09-16T09:27:34.000Z</time>
      </trkpt>
      <trkpt lat="46.72249" lon="-2.35016">
        <ele>12.4</ele>
        <time>2018-09-16T09:27:35.000Z</time>
      </trkpt>
      <trkpt lat="46.72248" lon="-2.35015">
        <ele>12.4</ele>
        <time>2018-09-16T09:27:36.000Z</time>
      </trkpt>
      <trkpt lat="46.72247" lon="-2.35015">
        <ele>12.3</ele>
        <time>2018-09-16T09:27:37.000Z</time>
      </trkpt>
      <trkpt lat="46.72246" lon="-2.35014">
        <ele>12.3</ele>
        <time>2018-09-16T09:27:38.000Z</time>
      </trkpt>
      <trkpt lat="46.72246" lon="-2.35014">
        <ele>12.3</ele>
        <time>2018-09-16T09:27:39.000Z</time>
      </trkpt>
      <trkpt lat="46.72245" lon="-2.35013">
        <ele>12.3</ele>
        <time>2018-09-16T09:27:40.000Z</time>
      </trkpt>
      <trkpt lat="46.72244" lon="-2.35013">
        <ele>12.3</ele>
        <time>2018-09-16T09:27:41.000Z</time>
      </trkpt>
      <trkpt lat="46.72243" lon="-2.35013">
        <ele>12.3</ele>
        <time>2018-09-16T09:27:42.000Z</time>
      </trkpt>
      <trkpt lat="46.72242" lon="-2.35013">
        <ele>12.3</ele>
        <time>2018-09-16T09:27:43.000Z</time>
      </trkpt>
      <trkpt lat="46.7224" lon="-2.35012">
        <ele>12.3</ele>
        <time>2018-09-16T09:27:44.000Z</time>
      </trkpt>
      <trkpt lat="46.72239" lon="-2.35012">
        <ele>12.3</ele>
        <time>2018-09-16T09:27:45.000Z</time>
      </trkpt>
      <trkpt lat="46.72238" lon="-2.35012">
        <ele>12.3</ele>
        <time>2018-09-16T09:27:46.000Z</time>
      </trkpt>
      <trkpt lat="46.72237" lon="-2.35012">
        <ele>12.3</ele>
        <time>2018-09-16T09:27:47.000Z</time>
      </trkpt>
      <trkpt lat="46.72236" lon="-2.35012">
        <ele>12.3</ele>
        <time>2018-09-16T09:27:48.000Z</time>
      </trkpt>
      <trkpt lat="46.72235" lon="-2.35011">
        <ele>12.2</ele>
        <time>2018-09-16T09:27:49.000Z</time>
      </trkpt>
      <trkpt lat="46.72234" lon="-2.35011">
        <ele>12.2</ele>
        <time>2018-09-16T09:27:50.000Z</time>
      </trkpt>
      <trkpt lat="46.72233" lon="-2.35011">
        <ele>12.2</ele>
        <time>2018-09-16T09:27:51.000Z</time>
      </trkpt>
      <trkpt lat="46.72232" lon="-2.35011">
        <ele>12.2</ele>
        <time>2018-09-16T09:27:52.000Z</time>
      </trkpt>
      <trkpt lat="46.72231" lon="-2.35011">
        <ele>12.2</ele>
        <time>2018-09-16T09:27:53.000Z</time>
      </trkpt>
      <trkpt lat="46.7223" lon="-2.3501">
        <ele>12.2</ele>
        <time>2018-09-16T09:27:54.000Z</time>
      </trkpt>
      <trkpt lat="46.72229" lon="-2.3501">
        <ele>12.2</ele>
        <time>2018-09-16T09:27:55.000Z</time>
      </trkpt>
      <trkpt lat="46.72228" lon="-2.3501">
        <ele>12.2</ele>
        <time>2018-09-16T09:27:56.000Z</time>
      </trkpt>
      <trkpt lat="46.72227" lon="-2.3501">
        <ele>12.2</ele>
        <time>2018-09-16T09:27:57.000Z</time>
      </trkpt>
      <trkpt lat="46.72226" lon="-2.3501">
        <ele>12.2</ele>
        <time>2018-09-16T09:27:58.000Z</time>
      </trkpt>
      <trkpt lat="46.72225" lon="-2.3501">
        <ele>12.2</ele>
        <time>2018-09-16T09:27:59.000Z</time>
      </trkpt>
      <trkpt lat="46.72224" lon="-2.35009">
        <ele>12.2</ele>
        <time>2018-09-16T09:28:00.000Z</time>
      </trkpt>
      <trkpt lat="46.72223" lon="-2.35009">
        <ele>12.2</ele>
        <time>2018-09-16T09:28:01.000Z</time>
      </trkpt>
      <trkpt lat="46.72222" lon="-2.35009">
        <ele>12.2</ele>
        <time>2018-09-16T09:28:02.000Z</time>
      </trkpt>
      <trkpt lat="46.72221" lon="-2.35009">
        <ele>12.2</ele>
        <time>2018-09-16T09:28:03.000Z</time>
      </trkpt>
      <trkpt lat="46.7222" lon="-2.3501">
        <ele>12.2</ele>
        <time>2018-09-16T09:28:04.000Z</time>
      </trkpt>
      <trkpt lat="46.72218" lon="-2.3501">
        <ele>12.2</ele>
        <time>2018-09-16T09:28:05.000Z</time>
      </trkpt>
      <trkpt lat="46.72217" lon="-2.3501">
        <ele>12.2</ele>
        <time>2018-09-16T09:28:06.000Z</time>
      </trkpt>
      <trkpt lat="46.72216" lon="-2.3501">
        <ele>12.2</ele>
        <time>2018-09-16T09:28:07.000Z</time>
      </trkpt>
      <trkpt lat="46.72215" lon="-2.35009">
        <ele>12.2</ele>
        <time>2018-09-16T09:28:08.000Z</time>
      </trkpt>
      <trkpt lat="46.72213" lon="-2.35009">
        <ele>12.2</ele>
        <time>2018-09-16T09:28:09.000Z</time>
      </trkpt>
      <trkpt lat="46.72212" lon="-2.35009">
        <ele>12.2</ele>
        <time>2018-09-16T09:28:10.000Z</time>
      </trkpt>
      <trkpt lat="46.72211" lon="-2.35008">
        <ele>12.2</ele>
        <time>2018-09-16T09:28:11.000Z</time>
      </trkpt>
      <trkpt lat="46.7221" lon="-2.35008">
        <ele>12.2</ele>
        <time>2018-09-16T09:28:12.000Z</time>
      </trkpt>
      <trkpt lat="46.72209" lon="-2.35008">
        <ele>12.1</ele>
        <time>2018-09-16T09:28:13.000Z</time>
      </trkpt>
      <trkpt lat="46.72208" lon="-2.35008">
        <ele>12.1</ele>
        <time>2018-09-16T09:28:14.000Z</time>
      </trkpt>
      <trkpt lat="46.72208" lon="-2.35008">
        <ele>12.2</ele>
        <time>2018-09-16T09:28:15.000Z</time>
      </trkpt>
      <trkpt lat="46.72207" lon="-2.35009">
        <ele>12.2</ele>
        <time>2018-09-16T09:28:16.000Z</time>
      </trkpt>
      <trkpt lat="46.72206" lon="-2.35009">
        <ele>12.2</ele>
        <time>2018-09-16T09:28:17.000Z</time>
      </trkpt>
      <trkpt lat="46.72205" lon="-2.35009">
        <ele>12.2</ele>
        <time>2018-09-16T09:28:18.000Z</time>
      </trkpt>
      <trkpt lat="46.72204" lon="-2.35009">
        <ele>12.2</ele>
        <time>2018-09-16T09:28:19.000Z</time>
      </trkpt>
      <trkpt lat="46.72203" lon="-2.35009">
        <ele>12.2</ele>
        <time>2018-09-16T09:28:20.000Z</time>
      </trkpt>
      <trkpt lat="46.72202" lon="-2.3501">
        <ele>12.2</ele>
        <time>2018-09-16T09:28:21.000Z</time>
      </trkpt>
      <trkpt lat="46.722" lon="-2.3501">
        <ele>12.2</ele>
        <time>2018-09-16T09:28:22.000Z</time>
      </trkpt>
      <trkpt lat="46.72199" lon="-2.3501">
        <ele>12.2</ele>
        <time>2018-09-16T09:28:23.000Z</time>
      </trkpt>
      <trkpt lat="46.72198" lon="-2.35009">
        <ele>12.2</ele>
        <time>2018-09-16T09:28:24.000Z</time>
      </trkpt>
      <trkpt lat="46.72197" lon="-2.35009">
        <ele>12.2</ele>
        <time>2018-09-16T09:28:25.000Z</time>
      </trkpt>
      <trkpt lat="46.72195" lon="-2.35009">
        <ele>12.1</ele>
        <time>2018-09-16T09:28:26.000Z</time>
      </trkpt>
      <trkpt lat="46.72194" lon="-2.35009">
        <ele>12.1</ele>
        <time>2018-09-16T09:28:27.000Z</time>
      </trkpt>
      <trkpt lat="46.72193" lon="-2.35008">
        <ele>12.1</ele>
        <time>2018-09-16T09:28:28.000Z</time>
      </trkpt>
      <trkpt lat="46.72192" lon="-2.35008">
        <ele>12.1</ele>
        <time>2018-09-16T09:28:29.000Z</time>
      </trkpt>
      <trkpt lat="46.72191" lon="-2.35007">
        <ele>12.1</ele>
        <time>2018-09-16T09:28:30.000Z</time>
      </trkpt>
      <trkpt lat="46.7219" lon="-2.35006">
        <ele>12.1</ele>
        <time>2018-09-16T09:28:31.000Z</time>
      </trkpt>
      <trkpt lat="46.72189" lon="-2.35006">
        <ele>12.1</ele>
        <time>2018-09-16T09:28:32.000Z</time>
      </trkpt>
      <trkpt lat="46.72188" lon="-2.35005">
        <ele>12.1</ele>
        <time>2018-09-16T09:28:33.000Z</time>
      </trkpt>
      <trkpt lat="46.72187" lon="-2.35005">
        <ele>12.1</ele>
        <time>2018-09-16T09:28:34.000Z</time>
      </trkpt>
      <trkpt lat="46.72185" lon="-2.35004">
        <ele>12.1</ele>
        <time>2018-09-16T09:28:35.000Z</time>
      </trkpt>
      <trkpt lat="46.72184" lon="-2.35004">
        <ele>12.1</ele>
        <time>2018-09-16T09:28:36.000Z</time>
      </trkpt>
      <trkpt lat="46.72183" lon="-2.35003">
        <ele>12</ele>
        <time>2018-09-16T09:28:37.000Z</time>
      </trkpt>
      <trkpt lat="46.72182" lon="-2.35003">
        <ele>12</ele>
        <time>2018-09-16T09:28:38.000Z</time>
      </trkpt>
      <trkpt lat="46.7218" lon="-2.35003">
        <ele>12</ele>
        <time>2018-09-16T09:28:39.000Z</time>
      </trkpt>
      <trkpt lat="46.72179" lon="-2.35003">
        <ele>12</ele>
        <time>2018-09-16T09:28:40.000Z</time>
      </trkpt>
      <trkpt lat="46.72178" lon="-2.35003">
        <ele>12</ele>
        <time>2018-09-16T09:28:41.000Z</time>
      </trkpt>
      <trkpt lat="46.72177" lon="-2.35003">
        <ele>12</ele>
        <time>2018-09-16T09:28:42.000Z</time>
      </trkpt>
      <trkpt lat="46.72176" lon="-2.35002">
        <ele>12</ele>
        <time>2018-09-16T09:28:43.000Z</time>
      </trkpt>
      <trkpt lat="46.72175" lon="-2.35002">
        <ele>12</ele>
        <time>2018-09-16T09:28:44.000Z</time>
      </trkpt>
      <trkpt lat="46.72174" lon="-2.35002">
        <ele>12</ele>
        <time>2018-09-16T09:28:45.000Z</time>
      </trkpt>
      <trkpt lat="46.72173" lon="-2.35002">
        <ele>12</ele>
        <time>2018-09-16T09:28:46.000Z</time>
      </trkpt>
      <trkpt lat="46.72172" lon="-2.35002">
        <ele>12</ele>
        <time>2018-09-16T09:28:47.000Z</time>
      </trkpt>
      <trkpt lat="46.72171" lon="-2.35003">
        <ele>12</ele>
        <time>2018-09-16T09:28:48.000Z</time>
      </trkpt>
      <trkpt lat="46.7217" lon="-2.35003">
        <ele>12</ele>
        <time>2018-09-16T09:28:49.000Z</time>
      </trkpt>
      <trkpt lat="46.72169" lon="-2.35003">
        <ele>12</ele>
        <time>2018-09-16T09:28:50.000Z</time>
      </trkpt>
      <trkpt lat="46.72168" lon="-2.35003">
        <ele>12</ele>
        <time>2018-09-16T09:28:51.000Z</time>
      </trkpt>
      <trkpt lat="46.72167" lon="-2.35003">
        <ele>12</ele>
        <time>2018-09-16T09:28:52.000Z</time>
      </trkpt>
      <trkpt lat="46.72165" lon="-2.35004">
        <ele>12.1</ele>
        <time>2018-09-16T09:28:53.000Z</time>
      </trkpt>
      <trkpt lat="46.72164" lon="-2.35004">
        <ele>12.1</ele>
        <time>2018-09-16T09:28:54.000Z</time>
      </trkpt>
      <trkpt lat="46.72163" lon="-2.35004">
        <ele>12.2</ele>
        <time>2018-09-16T09:28:55.000Z</time>
      </trkpt>
      <trkpt lat="46.72162" lon="-2.35004">
        <ele>12.2</ele>
        <time>2018-09-16T09:28:56.000Z</time>
      </trkpt>
      <trkpt lat="46.7216" lon="-2.35004">
        <ele>12.3</ele>
        <time>2018-09-16T09:28:57.000Z</time>
      </trkpt>
      <trkpt lat="46.72159" lon="-2.35004">
        <ele>12.3</ele>
        <time>2018-09-16T09:28:58.000Z</time>
      </trkpt>
      <trkpt lat="46.72158" lon="-2.35004">
        <ele>12.3</ele>
        <time>2018-09-16T09:28:59.000Z</time>
      </trkpt>
      <trkpt lat="46.72157" lon="-2.35004">
        <ele>12.4</ele>
        <time>2018-09-16T09:29:00.000Z</time>
      </trkpt>
      <trkpt lat="46.72156" lon="-2.35004">
        <ele>12.4</ele>
        <time>2018-09-16T09:29:01.000Z</time>
      </trkpt>
      <trkpt lat="46.72155" lon="-2.35004">
        <ele>12.5</ele>
        <time>2018-09-16T09:29:02.000Z</time>
      </trkpt>
      <trkpt lat="46.72154" lon="-2.35004">
        <ele>12.5</ele>
        <time>2018-09-16T09:29:03.000Z</time>
      </trkpt>
      <trkpt lat="46.72153" lon="-2.35004">
        <ele>12.5</ele>
        <time>2018-09-16T09:29:04.000Z</time>
      </trkpt>
      <trkpt lat="46.72152" lon="-2.35004">
        <ele>12.6</ele>
        <time>2018-09-16T09:29:05.000Z</time>
      </trkpt>
      <trkpt lat="46.72151" lon="-2.35004">
        <ele>12.6</ele>
        <time>2018-09-16T09:29:06.000Z</time>
      </trkpt>
      <trkpt lat="46.7215" lon="-2.35004">
        <ele>12.7</ele>
        <time>2018-09-16T09:29:07.000Z</time>
      </trkpt>
      <trkpt lat="46.72149" lon="-2.35004">
        <ele>12.7</ele>
        <time>2018-09-16T09:29:08.000Z</time>
      </trkpt>
      <trkpt lat="46.72147" lon="-2.35005">
        <ele>12.7</ele>
        <time>2018-09-16T09:29:09.000Z</time>
      </trkpt>
      <trkpt lat="46.72146" lon="-2.35005">
        <ele>12.8</ele>
        <time>2018-09-16T09:29:10.000Z</time>
      </trkpt>
      <trkpt lat="46.72145" lon="-2.35005">
        <ele>12.8</ele>
        <time>2018-09-16T09:29:11.000Z</time>
      </trkpt>
      <trkpt lat="46.72144" lon="-2.35005">
        <ele>12.9</ele>
        <time>2018-09-16T09:29:12.000Z</time>
      </trkpt>
      <trkpt lat="46.72143" lon="-2.35005">
        <ele>12.9</ele>
        <time>2018-09-16T09:29:13.000Z</time>
      </trkpt>
      <trkpt lat="46.72141" lon="-2.35005">
        <ele>13</ele>
        <time>2018-09-16T09:29:14.000Z</time>
      </trkpt>
      <trkpt lat="46.7214" lon="-2.35005">
        <ele>13</ele>
        <time>2018-09-16T09:29:15.000Z</time>
      </trkpt>
      <trkpt lat="46.72139" lon="-2.35006">
        <ele>13</ele>
        <time>2018-09-16T09:29:16.000Z</time>
      </trkpt>
      <trkpt lat="46.72138" lon="-2.35006">
        <ele>13.1</ele>
        <time>2018-09-16T09:29:17.000Z</time>
      </trkpt>
      <trkpt lat="46.72136" lon="-2.35006">
        <ele>13.1</ele>
        <time>2018-09-16T09:29:18.000Z</time>
      </trkpt>
      <trkpt lat="46.72135" lon="-2.35006">
        <ele>13.2</ele>
        <time>2018-09-16T09:29:19.000Z</time>
      </trkpt>
      <trkpt lat="46.72134" lon="-2.35006">
        <ele>13.2</ele>
        <time>2018-09-16T09:29:20.000Z</time>
      </trkpt>
      <trkpt lat="46.72133" lon="-2.35007">
        <ele>13.3</ele>
        <time>2018-09-16T09:29:21.000Z</time>
      </trkpt>
      <trkpt lat="46.72132" lon="-2.35007">
        <ele>13.3</ele>
        <time>2018-09-16T09:29:22.000Z</time>
      </trkpt>
      <trkpt lat="46.72131" lon="-2.35007">
        <ele>13.4</ele>
        <time>2018-09-16T09:29:23.000Z</time>
      </trkpt>
      <trkpt lat="46.72129" lon="-2.35008">
        <ele>13.4</ele>
        <time>2018-09-16T09:29:24.000Z</time>
      </trkpt>
      <trkpt lat="46.72128" lon="-2.35008">
        <ele>13.4</ele>
        <time>2018-09-16T09:29:25.000Z</time>
      </trkpt>
      <trkpt lat="46.72127" lon="-2.35008">
        <ele>13.5</ele>
        <time>2018-09-16T09:29:26.000Z</time>
      </trkpt>
      <trkpt lat="46.72126" lon="-2.35008">
        <ele>13.5</ele>
        <time>2018-09-16T09:29:27.000Z</time>
      </trkpt>
      <trkpt lat="46.72125" lon="-2.35009">
        <ele>13.6</ele>
        <time>2018-09-16T09:29:28.000Z</time>
      </trkpt>
      <trkpt lat="46.72124" lon="-2.35009">
        <ele>13.6</ele>
        <time>2018-09-16T09:29:29.000Z</time>
      </trkpt>
      <trkpt lat="46.72123" lon="-2.35009">
        <ele>13.6</ele>
        <time>2018-09-16T09:29:30.000Z</time>
      </trkpt>
      <trkpt lat="46.72122" lon="-2.3501">
        <ele>13.7</ele>
        <time>2018-09-16T09:29:31.000Z</time>
      </trkpt>
      <trkpt lat="46.72121" lon="-2.3501">
        <ele>13.7</ele>
        <time>2018-09-16T09:29:32.000Z</time>
      </trkpt>
      <trkpt lat="46.7212" lon="-2.35011">
        <ele>13.8</ele>
        <time>2018-09-16T09:29:33.000Z</time>
      </trkpt>
      <trkpt lat="46.72119" lon="-2.35011">
        <ele>13.8</ele>
        <time>2018-09-16T09:29:34.000Z</time>
      </trkpt>
      <trkpt lat="46.72117" lon="-2.35012">
        <ele>13.8</ele>
        <time>2018-09-16T09:29:35.000Z</time>
      </trkpt>
      <trkpt lat="46.72116" lon="-2.35012">
        <ele>13.9</ele>
        <time>2018-09-16T09:29:36.000Z</time>
      </trkpt>
      <trkpt lat="46.72115" lon="-2.35012">
        <ele>13.9</ele>
        <time>2018-09-16T09:29:37.000Z</time>
      </trkpt>
      <trkpt lat="46.72114" lon="-2.35013">
        <ele>13.9</ele>
        <time>2018-09-16T09:29:38.000Z</time>
      </trkpt>
      <trkpt lat="46.72113" lon="-2.35013">
        <ele>14</ele>
        <time>2018-09-16T09:29:39.000Z</time>
      </trkpt>
      <trkpt lat="46.72112" lon="-2.35014">
        <ele>14</ele>
        <time>2018-09-16T09:29:40.000Z</time>
      </trkpt>
      <trkpt lat="46.72111" lon="-2.35015">
        <ele>14.1</ele>
        <time>2018-09-16T09:29:41.000Z</time>
      </trkpt>
      <trkpt lat="46.7211" lon="-2.35015">
        <ele>14.1</ele>
        <time>2018-09-16T09:29:42.000Z</time>
      </trkpt>
      <trkpt lat="46.72109" lon="-2.35016">
        <ele>14.1</ele>
        <time>2018-09-16T09:29:43.000Z</time>
      </trkpt>
      <trkpt lat="46.72108" lon="-2.35016">
        <ele>14.2</ele>
        <time>2018-09-16T09:29:44.000Z</time>
      </trkpt>
      <trkpt lat="46.72107" lon="-2.35017">
        <ele>14.2</ele>
        <time>2018-09-16T09:29:45.000Z</time>
      </trkpt>
      <trkpt lat="46.72106" lon="-2.35018">
        <ele>14.2</ele>
        <time>2018-09-16T09:29:46.000Z</time>
      </trkpt>
      <trkpt lat="46.72105" lon="-2.35018">
        <ele>14.3</ele>
        <time>2018-09-16T09:29:47.000Z</time>
      </trkpt>
      <trkpt lat="46.72104" lon="-2.35019">
        <ele>14.3</ele>
        <time>2018-09-16T09:29:48.000Z</time>
      </trkpt>
      <trkpt lat="46.72103" lon="-2.3502">
        <ele>14.3</ele>
        <time>2018-09-16T09:29:49.000Z</time>
      </trkpt>
      <trkpt lat="46.72102" lon="-2.3502">
        <ele>14.4</ele>
        <time>2018-09-16T09:29:50.000Z</time>
      </trkpt>
      <trkpt lat="46.72101" lon="-2.35021">
        <ele>14.4</ele>
        <time>2018-09-16T09:29:51.000Z</time>
      </trkpt>
      <trkpt lat="46.721" lon="-2.35022">
        <ele>14.5</ele>
        <time>2018-09-16T09:29:52.000Z</time>
      </trkpt>
      <trkpt lat="46.72099" lon="-2.35022">
        <ele>14.5</ele>
        <time>2018-09-16T09:29:53.000Z</time>
      </trkpt>
      <trkpt lat="46.72098" lon="-2.35023">
        <ele>14.5</ele>
        <time>2018-09-16T09:29:54.000Z</time>
      </trkpt>
      <trkpt lat="46.72097" lon="-2.35023">
        <ele>14.6</ele>
        <time>2018-09-16T09:29:55.000Z</time>
      </trkpt>
      <trkpt lat="46.72095" lon="-2.35023">
        <ele>14.6</ele>
        <time>2018-09-16T09:29:56.000Z</time>
      </trkpt>
      <trkpt lat="46.72094" lon="-2.35023">
        <ele>14.6</ele>
        <time>2018-09-16T09:29:57.000Z</time>
      </trkpt>
      <trkpt lat="46.72093" lon="-2.35023">
        <ele>14.7</ele>
        <time>2018-09-16T09:29:58.000Z</time>
      </trkpt>
      <trkpt lat="46.72092" lon="-2.35023">
        <ele>14.7</ele>
        <time>2018-09-16T09:29:59.000Z</time>
      </trkpt>
      <trkpt lat="46.72091" lon="-2.35024">
        <ele>14.7</ele>
        <time>2018-09-16T09:30:00.000Z</time>
      </trkpt>
      <trkpt lat="46.7209" lon="-2.35024">
        <ele>14.8</ele>
        <time>2018-09-16T09:30:01.000Z</time>
      </trkpt>
      <trkpt lat="46.72089" lon="-2.35024">
        <ele>14.8</ele>
        <time>2018-09-16T09:30:02.000Z</time>
      </trkpt>
      <trkpt lat="46.72088" lon="-2.35024">
        <ele>14.8</ele>
        <time>2018-09-16T09:30:03.000Z</time>
      </trkpt>
      <trkpt lat="46.72087" lon="-2.35025">
        <ele>14.9</ele>
        <time>2018-09-16T09:30:04.000Z</time>
      </trkpt>
      <trkpt lat="46.72086" lon="-2.35025">
        <ele>14.9</ele>
        <time>2018-09-16T09:30:05.000Z</time>
      </trkpt>
      <trkpt lat="46.72085" lon="-2.35025">
        <ele>14.9</ele>
        <time>2018-09-16T09:30:06.000Z</time>
      </trkpt>
      <trkpt lat="46.72084" lon="-2.35026">
        <ele>15</ele>
        <time>2018-09-16T09:30:07.000Z</time>
      </trkpt>
      <trkpt lat="46.72083" lon="-2.35026">
        <ele>15</ele>
        <time>2018-09-16T09:30:08.000Z</time>
      </trkpt>
      <trkpt lat="46.72082" lon="-2.35026">
        <ele>15</ele>
        <time>2018-09-16T09:30:09.000Z</time>
      </trkpt>
      <trkpt lat="46.72081" lon="-2.35027">
        <ele>15</ele>
        <time>2018-09-16T09:30:10.000Z</time>
      </trkpt>
      <trkpt lat="46.7208" lon="-2.35027">
        <ele>15</ele>
        <time>2018-09-16T09:30:11.000Z</time>
      </trkpt>
      <trkpt lat="46.72079" lon="-2.35027">
        <ele>15</ele>
        <time>2018-09-16T09:30:12.000Z</time>
      </trkpt>
      <trkpt lat="46.72079" lon="-2.35028">
        <ele>15.1</ele>
        <time>2018-09-16T09:30:13.000Z</time>
      </trkpt>
      <trkpt lat="46.72078" lon="-2.35028">
        <ele>15.1</ele>
        <time>2018-09-16T09:30:14.000Z</time>
      </trkpt>
      <trkpt lat="46.72077" lon="-2.35028">
        <ele>15.1</ele>
        <time>2018-09-16T09:30:15.000Z</time>
      </trkpt>
      <trkpt lat="46.72077" lon="-2.35028">
        <ele>15.1</ele>
        <time>2018-09-16T09:30:16.000Z</time>
      </trkpt>
      <trkpt lat="46.72076" lon="-2.35029">
        <ele>15.1</ele>
        <time>2018-09-16T09:30:17.000Z</time>
      </trkpt>
      <trkpt lat="46.72075" lon="-2.35029">
        <ele>15.1</ele>
        <time>2018-09-16T09:30:18.000Z</time>
      </trkpt>
      <trkpt lat="46.72074" lon="-2.35029">
        <ele>15.1</ele>
        <time>2018-09-16T09:30:19.000Z</time>
      </trkpt>
      <trkpt lat="46.72073" lon="-2.35029">
        <ele>15.1</ele>
        <time>2018-09-16T09:30:20.000Z</time>
      </trkpt>
      <trkpt lat="46.72072" lon="-2.35029">
        <ele>15.1</ele>
        <time>2018-09-16T09:30:21.000Z</time>
      </trkpt>
      <trkpt lat="46.72071" lon="-2.35029">
        <ele>15.1</ele>
        <time>2018-09-16T09:30:22.000Z</time>
      </trkpt>
      <trkpt lat="46.7207" lon="-2.35028">
        <ele>15.2</ele>
        <time>2018-09-16T09:30:23.000Z</time>
      </trkpt>
      <trkpt lat="46.72069" lon="-2.35028">
        <ele>15.2</ele>
        <time>2018-09-16T09:30:24.000Z</time>
      </trkpt>
      <trkpt lat="46.72068" lon="-2.35028">
        <ele>15.2</ele>
        <time>2018-09-16T09:30:25.000Z</time>
      </trkpt>
      <trkpt lat="46.72067" lon="-2.35028">
        <ele>15.2</ele>
        <time>2018-09-16T09:30:26.000Z</time>
      </trkpt>
      <trkpt lat="46.72066" lon="-2.35028">
        <ele>15.2</ele>
        <time>2018-09-16T09:30:27.000Z</time>
      </trkpt>
      <trkpt lat="46.72065" lon="-2.35028">
        <ele>15.2</ele>
        <time>2018-09-16T09:30:28.000Z</time>
      </trkpt>
      <trkpt lat="46.72065" lon="-2.35028">
        <ele>15.2</ele>
        <time>2018-09-16T09:30:29.000Z</time>
      </trkpt>
      <trkpt lat="46.72064" lon="-2.35028">
        <ele>15.2</ele>
        <time>2018-09-16T09:30:30.000Z</time>
      </trkpt>
      <trkpt lat="46.72064" lon="-2.35028">
        <ele>15.2</ele>
        <time>2018-09-16T09:30:31.000Z</time>
      </trkpt>
      <trkpt lat="46.72064" lon="-2.35028">
        <ele>15.2</ele>
        <time>2018-09-16T09:30:32.000Z</time>
      </trkpt>
      <trkpt lat="46.72063" lon="-2.35028">
        <ele>15.2</ele>
        <time>2018-09-16T09:30:33.000Z</time>
      </trkpt>
      <trkpt lat="46.72063" lon="-2.35028">
        <ele>15.2</ele>
        <time>2018-09-16T09:30:34.000Z</time>
      </trkpt>
      <trkpt lat="46.72063" lon="-2.35028">
        <ele>15.2</ele>
        <time>2018-09-16T09:30:35.000Z</time>
      </trkpt>
      <trkpt lat="46.72063" lon="-2.35028">
        <ele>15.2</ele>
        <time>2018-09-16T09:30:36.000Z</time>
      </trkpt>
      <trkpt lat="46.72063" lon="-2.35028">
        <ele>15.2</ele>
        <time>2018-09-16T09:30:37.000Z</time>
      </trkpt>
      <trkpt lat="46.72063" lon="-2.35028">
        <ele>15.2</ele>
        <time>2018-09-16T09:30:38.000Z</time>
      </trkpt>
      <trkpt lat="46.72063" lon="-2.35029">
        <ele>15.2</ele>
        <time>2018-09-16T09:30:39.000Z</time>
      </trkpt>
      <trkpt lat="46.72063" lon="-2.35029">
        <ele>15.2</ele>
        <time>2018-09-16T09:30:40.000Z</time>
      </trkpt>
      <trkpt lat="46.72063" lon="-2.35029">
        <ele>15.3</ele>
        <time>2018-09-16T09:30:41.000Z</time>
      </trkpt>
      <trkpt lat="46.72063" lon="-2.35029">
        <ele>15.3</ele>
        <time>2018-09-16T09:30:42.000Z</time>
      </trkpt>
      <trkpt lat="46.72063" lon="-2.35029">
        <ele>15.3</ele>
        <time>2018-09-16T09:30:43.000Z</time>
      </trkpt>
      <trkpt lat="46.72063" lon="-2.35029">
        <ele>15.3</ele>
        <time>2018-09-16T09:30:44.000Z</time>
      </trkpt>
      <trkpt lat="46.72063" lon="-2.35029">
        <ele>15.3</ele>
        <time>2018-09-16T09:30:45.000Z</time>
      </trkpt>
      <trkpt lat="46.72063" lon="-2.35029">
        <ele>15.3</ele>
        <time>2018-09-16T09:30:46.000Z</time>
      </trkpt>
      <trkpt lat="46.72063" lon="-2.35029">
        <ele>15.3</ele>
        <time>2018-09-16T09:30:47.000Z</time>
      </trkpt>
      <trkpt lat="46.72063" lon="-2.35029">
        <ele>15.3</ele>
        <time>2018-09-16T09:30:48.000Z</time>
      </trkpt>
      <trkpt lat="46.72063" lon="-2.35029">
        <ele>15.3</ele>
        <time>2018-09-16T09:30:49.000Z</time>
      </trkpt>
      <trkpt lat="46.72063" lon="-2.35029">
        <ele>15.3</ele>
        <time>2018-09-16T09:30:50.000Z</time>
      </trkpt>
      <trkpt lat="46.72063" lon="-2.35029">
        <ele>15.2</ele>
        <time>2018-09-16T09:30:51.000Z</time>
      </trkpt>
      <trkpt lat="46.72063" lon="-2.35029">
        <ele>15.2</ele>
        <time>2018-09-16T09:30:52.000Z</time>
      </trkpt>
      <trkpt lat="46.72063" lon="-2.35029">
        <ele>15.2</ele>
        <time>2018-09-16T09:30:53.000Z</time>
      </trkpt>
      <trkpt lat="46.72063" lon="-2.35029">
        <ele>15.2</ele>
        <time>2018-09-16T09:30:54.000Z</time>
      </trkpt>
      <trkpt lat="46.72063" lon="-2.35029">
        <ele>15.2</ele>
        <time>2018-09-16T09:30:55.000Z</time>
      </trkpt>
      <trkpt lat="46.72063" lon="-2.35029">
        <ele>15.2</ele>
        <time>2018-09-16T09:30:56.000Z</time>
      </trkpt>
      <trkpt lat="46.72063" lon="-2.35029">
        <ele>15.2</ele>
        <time>2018-09-16T09:30:57.000Z</time>
      </trkpt>
      <trkpt lat="46.72063" lon="-2.35029">
        <ele>15.3</ele>
        <time>2018-09-16T09:30:58.000Z</time>
      </trkpt>
      <trkpt lat="46.72063" lon="-2.35029">
        <ele>15.3</ele>
        <time>2018-09-16T09:30:59.000Z</time>
      </trkpt>
      <trkpt lat="46.72063" lon="-2.35029">
        <ele>15.3</ele>
        <time>2018-09-16T09:31:00.000Z</time>
      </trkpt>
      <trkpt lat="46.72063" lon="-2.35029">
        <ele>15.3</ele>
        <time>2018-09-16T09:31:01.000Z</time>
      </trkpt>
      <trkpt lat="46.72063" lon="-2.35029">
        <ele>15.3</ele>
        <time>2018-09-16T09:31:02.000Z</time>
      </trkpt>
      <trkpt lat="46.72063" lon="-2.35029">
        <ele>15.3</ele>
        <time>2018-09-16T09:31:03.000Z</time>
      </trkpt>
      <trkpt lat="46.72063" lon="-2.35029">
        <ele>15.3</ele>
        <time>2018-09-16T09:31:04.000Z</time>
      </trkpt>
      <trkpt lat="46.72063" lon="-2.35029">
        <ele>15.3</ele>
        <time>2018-09-16T09:31:05.000Z</time>
      </trkpt>
      <trkpt lat="46.72063" lon="-2.35029">
        <ele>15.3</ele>
        <time>2018-09-16T09:31:06.000Z</time>
      </trkpt>
      <trkpt lat="46.72063" lon="-2.35029">
        <ele>15.3</ele>
        <time>2018-09-16T09:31:07.000Z</time>
      </trkpt>
      <trkpt lat="46.72063" lon="-2.35029">
        <ele>15.2</ele>
        <time>2018-09-16T09:31:08.000Z</time>
      </trkpt>
      <trkpt lat="46.72063" lon="-2.35029">
        <ele>15.2</ele>
        <time>2018-09-16T09:31:09.000Z</time>
      </trkpt>
      <trkpt lat="46.72063" lon="-2.35029">
        <ele>15.2</ele>
        <time>2018-09-16T09:31:10.000Z</time>
      </trkpt>
      <trkpt lat="46.72063" lon="-2.35029">
        <ele>15.2</ele>
        <time>2018-09-16T09:31:11.000Z</time>
      </trkpt>
      <trkpt lat="46.72063" lon="-2.35029">
        <ele>15.2</ele>
        <time>2018-09-16T09:31:12.000Z</time>
      </trkpt>
      <trkpt lat="46.72063" lon="-2.35029">
        <ele>15.2</ele>
        <time>2018-09-16T09:31:13.000Z</time>
      </trkpt>
      <trkpt lat="46.72063" lon="-2.35029">
        <ele>15.2</ele>
        <time>2018-09-16T09:31:14.000Z</time>
      </trkpt>
      <trkpt lat="46.72063" lon="-2.35029">
        <ele>15.2</ele>
        <time>2018-09-16T09:31:15.000Z</time>
      </trkpt>
      <trkpt lat="46.72063" lon="-2.35029">
        <ele>15.2</ele>
        <time>2018-09-16T09:31:16.000Z</time>
      </trkpt>
      <trkpt lat="46.72063" lon="-2.35029">
        <ele>15.2</ele>
        <time>2018-09-16T09:31:17.000Z</time>
      </trkpt>
      <trkpt lat="46.72063" lon="-2.35029">
        <ele>15.2</ele>
        <time>2018-09-16T09:31:18.000Z</time>
      </trkpt>
      <trkpt lat="46.72063" lon="-2.35029">
        <ele>15.2</ele>
        <time>2018-09-16T09:31:19.000Z</time>
      </trkpt>
      <trkpt lat="46.72063" lon="-2.35029">
        <ele>15.2</ele>
        <time>2018-09-16T09:31:20.000Z</time>
      </trkpt>
      <trkpt lat="46.72063" lon="-2.35029">
        <ele>15.2</ele>
        <time>2018-09-16T09:31:21.000Z</time>
      </trkpt>
      <trkpt lat="46.72063" lon="-2.35029">
        <ele>15.2</ele>
        <time>2018-09-16T09:31:22.000Z</time>
      </trkpt>
      <trkpt lat="46.72063" lon="-2.35029">
        <ele>15.2</ele>
        <time>2018-09-16T09:31:23.000Z</time>
      </trkpt>
      <trkpt lat="46.72063" lon="-2.35029">
        <ele>15.2</ele>
        <time>2018-09-16T09:31:24.000Z</time>
      </trkpt>
      <trkpt lat="46.72063" lon="-2.35029">
        <ele>15.2</ele>
        <time>2018-09-16T09:31:25.000Z</time>
      </trkpt>
      <trkpt lat="46.72063" lon="-2.35029">
        <ele>15.2</ele>
        <time>2018-09-16T09:31:26.000Z</time>
      </trkpt>
      <trkpt lat="46.72063" lon="-2.35029">
        <ele>15.2</ele>
        <time>2018-09-16T09:31:27.000Z</time>
      </trkpt>
      <trkpt lat="46.72063" lon="-2.35029">
        <ele>15.2</ele>
        <time>2018-09-16T09:31:28.000Z</time>
      </trkpt>
      <trkpt lat="46.72063" lon="-2.35029">
        <ele>15.2</ele>
        <time>2018-09-16T09:31:29.000Z</time>
      </trkpt>
      <trkpt lat="46.72063" lon="-2.35029">
        <ele>15.2</ele>
        <time>2018-09-16T09:31:30.000Z</time>
      </trkpt>
      <trkpt lat="46.72063" lon="-2.3503">
        <ele>15.2</ele>
        <time>2018-09-16T09:31:31.000Z</time>
      </trkpt>
      <trkpt lat="46.72063" lon="-2.3503">
        <ele>15.2</ele>
        <time>2018-09-16T09:31:32.000Z</time>
      </trkpt>
      <trkpt lat="46.72063" lon="-2.3503">
        <ele>15.2</ele>
        <time>2018-09-16T09:31:33.000Z</time>
      </trkpt>
      <trkpt lat="46.72063" lon="-2.3503">
        <ele>15.2</ele>
        <time>2018-09-16T09:31:34.000Z</time>
      </trkpt>
      <trkpt lat="46.72063" lon="-2.3503">
        <ele>15.2</ele>
        <time>2018-09-16T09:31:35.000Z</time>
      </trkpt>
      <trkpt lat="46.72063" lon="-2.3503">
        <ele>15.2</ele>
        <time>2018-09-16T09:31:36.000Z</time>
      </trkpt>
      <trkpt lat="46.72063" lon="-2.3503">
        <ele>15.3</ele>
        <time>2018-09-16T09:31:37.000Z</time>
      </trkpt>
      <trkpt lat="46.72062" lon="-2.3503">
        <ele>15.3</ele>
        <time>2018-09-16T09:31:38.000Z</time>
      </trkpt>
      <trkpt lat="46.72062" lon="-2.3503">
        <ele>15.3</ele>
        <time>2018-09-16T09:31:39.000Z</time>
      </trkpt>
      <trkpt lat="46.72062" lon="-2.3503">
        <ele>15.3</ele>
        <time>2018-09-16T09:31:40.000Z</time>
      </trkpt>
      <trkpt lat="46.72062" lon="-2.3503">
        <ele>15.3</ele>
        <time>2018-09-16T09:31:41.000Z</time>
      </trkpt>
      <trkpt lat="46.72062" lon="-2.3503">
        <ele>15.3</ele>
        <time>2018-09-16T09:31:42.000Z</time>
      </trkpt>
      <trkpt lat="46.72062" lon="-2.3503">
        <ele>15.3</ele>
        <time>2018-09-16T09:31:43.000Z</time>
      </trkpt>
      <trkpt lat="46.72062" lon="-2.35031">
        <ele>15.3</ele>
        <time>2018-09-16T09:31:44.000Z</time>
      </trkpt>
      <trkpt lat="46.72062" lon="-2.35031">
        <ele>15.3</ele>
        <time>2018-09-16T09:31:45.000Z</time>
      </trkpt>
      <trkpt lat="46.72062" lon="-2.35031">
        <ele>15.3</ele>
        <time>2018-09-16T09:31:46.000Z</time>
      </trkpt>
      <trkpt lat="46.72062" lon="-2.35031">
        <ele>15.3</ele>
        <time>2018-09-16T09:31:47.000Z</time>
      </trkpt>
      <trkpt lat="46.72062" lon="-2.35031">
        <ele>15.3</ele>
        <time>2018-09-16T09:31:48.000Z</time>
      </trkpt>
      <trkpt lat="46.72062" lon="-2.35031">
        <ele>15.3</ele>
        <time>2018-09-16T09:31:49.000Z</time>
      </trkpt>
      <trkpt lat="46.72062" lon="-2.35031">
        <ele>15.3</ele>
        <time>2018-09-16T09:31:50.000Z</time>
      </trkpt>
      <trkpt lat="46.72062" lon="-2.35031">
        <ele>15.3</ele>
        <time>2018-09-16T09:31:51.000Z</time>
      </trkpt>
      <trkpt lat="46.72062" lon="-2.35031">
        <ele>15.3</ele>
        <time>2018-09-16T09:31:52.000Z</time>
      </trkpt>
      <trkpt lat="46.72062" lon="-2.35031">
        <ele>15.3</ele>
        <time>2018-09-16T09:31:53.000Z</time>
      </trkpt>
      <trkpt lat="46.72062" lon="-2.35031">
        <ele>15.3</ele>
        <time>2018-09-16T09:31:54.000Z</time>
      </trkpt>
      <trkpt lat="46.72062" lon="-2.35031">
        <ele>15.3</ele>
        <time>2018-09-16T09:31:55.000Z</time>
      </trkpt>
      <trkpt lat="46.72062" lon="-2.35031">
        <ele>15.3</ele>
        <time>2018-09-16T09:31:56.000Z</time>
      </trkpt>
      <trkpt lat="46.72062" lon="-2.35031">
        <ele>15.3</ele>
        <time>2018-09-16T09:31:57.000Z</time>
      </trkpt>
      <trkpt lat="46.72062" lon="-2.35031">
        <ele>15.3</ele>
        <time>2018-09-16T09:31:58.000Z</time>
      </trkpt>
      <trkpt lat="46.72062" lon="-2.35031">
        <ele>15.3</ele>
        <time>2018-09-16T09:31:59.000Z</time>
      </trkpt>
      <trkpt lat="46.72062" lon="-2.35031">
        <ele>15.3</ele>
        <time>2018-09-16T09:32:00.000Z</time>
      </trkpt>
      <trkpt lat="46.72062" lon="-2.35031">
        <ele>15.3</ele>
        <time>2018-09-16T09:32:01.000Z</time>
      </trkpt>
      <trkpt lat="46.72062" lon="-2.35031">
        <ele>15.3</ele>
        <time>2018-09-16T09:32:02.000Z</time>
      </trkpt>
      <trkpt lat="46.72062" lon="-2.35031">
        <ele>15.3</ele>
        <time>2018-09-16T09:32:03.000Z</time>
      </trkpt>
      <trkpt lat="46.72062" lon="-2.35031">
        <ele>15.3</ele>
        <time>2018-09-16T09:32:04.000Z</time>
      </trkpt>
      <trkpt lat="46.72062" lon="-2.35031">
        <ele>15.3</ele>
        <time>2018-09-16T09:32:05.000Z</time>
      </trkpt>
      <trkpt lat="46.72062" lon="-2.35031">
        <ele>15.3</ele>
        <time>2018-09-16T09:32:06.000Z</time>
      </trkpt>
      <trkpt lat="46.72062" lon="-2.35031">
        <ele>15.3</ele>
        <time>2018-09-16T09:32:07.000Z</time>
      </trkpt>
      <trkpt lat="46.72062" lon="-2.35031">
        <ele>15.3</ele>
        <time>2018-09-16T09:32:08.000Z</time>
      </trkpt>
      <trkpt lat="46.72062" lon="-2.35031">
        <ele>15.3</ele>
        <time>2018-09-16T09:32:09.000Z</time>
      </trkpt>
      <trkpt lat="46.72062" lon="-2.35031">
        <ele>15.3</ele>
        <time>2018-09-16T09:32:10.000Z</time>
      </trkpt>
      <trkpt lat="46.72062" lon="-2.35031">
        <ele>15.3</ele>
        <time>2018-09-16T09:32:11.000Z</time>
      </trkpt>
      <trkpt lat="46.72062" lon="-2.35031">
        <ele>15.3</ele>
        <time>2018-09-16T09:32:12.000Z</time>
      </trkpt>
      <trkpt lat="46.72062" lon="-2.35031">
        <ele>15.3</ele>
        <time>2018-09-16T09:32:13.000Z</time>
      </trkpt>
      <trkpt lat="46.72062" lon="-2.35031">
        <ele>15.3</ele>
        <time>2018-09-16T09:32:14.000Z</time>
      </trkpt>
      <trkpt lat="46.72062" lon="-2.35031">
        <ele>15.3</ele>
        <time>2018-09-16T09:32:15.000Z</time>
      </trkpt>
      <trkpt lat="46.72062" lon="-2.35031">
        <ele>15.3</ele>
        <time>2018-09-16T09:32:16.000Z</time>
      </trkpt>
      <trkpt lat="46.72062" lon="-2.3503">
        <ele>15.3</ele>
        <time>2018-09-16T09:32:17.000Z</time>
      </trkpt>
      <trkpt lat="46.72062" lon="-2.3503">
        <ele>15.3</ele>
        <time>2018-09-16T09:32:18.000Z</time>
      </trkpt>
      <trkpt lat="46.72062" lon="-2.3503">
        <ele>15.3</ele>
        <time>2018-09-16T09:32:19.000Z</time>
      </trkpt>
      <trkpt lat="46.72062" lon="-2.3503">
        <ele>15.3</ele>
        <time>2018-09-16T09:32:20.000Z</time>
      </trkpt>
      <trkpt lat="46.72062" lon="-2.3503">
        <ele>15.3</ele>
        <time>2018-09-16T09:32:21.000Z</time>
      </trkpt>
      <trkpt lat="46.72062" lon="-2.3503">
        <ele>15.3</ele>
        <time>2018-09-16T09:32:22.000Z</time>
      </trkpt>
      <trkpt lat="46.72062" lon="-2.3503">
        <ele>15.3</ele>
        <time>2018-09-16T09:32:23.000Z</time>
      </trkpt>
      <trkpt lat="46.72062" lon="-2.3503">
        <ele>15.3</ele>
        <time>2018-09-16T09:32:24.000Z</time>
      </trkpt>
      <trkpt lat="46.72062" lon="-2.3503">
        <ele>15.3</ele>
        <time>2018-09-16T09:32:25.000Z</time>
      </trkpt>
      <trkpt lat="46.72062" lon="-2.3503">
        <ele>15.3</ele>
        <time>2018-09-16T09:32:26.000Z</time>
      </trkpt>
      <trkpt lat="46.72062" lon="-2.3503">
        <ele>15.3</ele>
        <time>2018-09-16T09:32:27.000Z</time>
      </trkpt>
      <trkpt lat="46.72062" lon="-2.3503">
        <ele>15.3</ele>
        <time>2018-09-16T09:32:28.000Z</time>
      </trkpt>
      <trkpt lat="46.72062" lon="-2.3503">
        <ele>15.3</ele>
        <time>2018-09-16T09:32:29.000Z</time>
      </trkpt>
      <trkpt lat="46.72062" lon="-2.3503">
        <ele>15.3</ele>
        <time>2018-09-16T09:32:30.000Z</time>
      </trkpt>
      <trkpt lat="46.72062" lon="-2.3503">
        <ele>15.3</ele>
        <time>2018-09-16T09:32:31.000Z</time>
      </trkpt>
      <trkpt lat="46.72062" lon="-2.3503">
        <ele>15.3</ele>
        <time>2018-09-16T09:32:32.000Z</time>
      </trkpt>
      <trkpt lat="46.72062" lon="-2.3503">
        <ele>15.3</ele>
        <time>2018-09-16T09:32:33.000Z</time>
      </trkpt>
      <trkpt lat="46.72062" lon="-2.3503">
        <ele>15.3</ele>
        <time>2018-09-16T09:32:34.000Z</time>
      </trkpt>
      <trkpt lat="46.72062" lon="-2.3503">
        <ele>15.3</ele>
        <time>2018-09-16T09:32:35.000Z</time>
      </trkpt>
      <trkpt lat="46.72062" lon="-2.3503">
        <ele>15.3</ele>
        <time>2018-09-16T09:32:36.000Z</time>
      </trkpt>
      <trkpt lat="46.72062" lon="-2.3503">
        <ele>15.3</ele>
        <time>2018-09-16T09:32:37.000Z</time>
      </trkpt>
      <trkpt lat="46.72062" lon="-2.3503">
        <ele>15.3</ele>
        <time>2018-09-16T09:32:38.000Z</time>
      </trkpt>
      <trkpt lat="46.72062" lon="-2.3503">
        <ele>15.3</ele>
        <time>2018-09-16T09:32:39.000Z</time>
      </trkpt>
      <trkpt lat="46.72062" lon="-2.3503">
        <ele>15.3</ele>
        <time>2018-09-16T09:32:40.000Z</time>
      </trkpt>
      <trkpt lat="46.72062" lon="-2.3503">
        <ele>15.3</ele>
        <time>2018-09-16T09:32:41.000Z</time>
      </trkpt>
      <trkpt lat="46.72062" lon="-2.3503">
        <ele>15.3</ele>
        <time>2018-09-16T09:32:42.000Z</time>
      </trkpt>
      <trkpt lat="46.72062" lon="-2.3503">
        <ele>15.3</ele>
        <time>2018-09-16T09:32:43.000Z</time>
      </trkpt>
      <trkpt lat="46.72062" lon="-2.3503">
        <ele>15.3</ele>
        <time>2018-09-16T09:32:44.000Z</time>
      </trkpt>
      <trkpt lat="46.72062" lon="-2.3503">
        <ele>15.3</ele>
        <time>2018-09-16T09:32:45.000Z</time>
      </trkpt>
      <trkpt lat="46.72062" lon="-2.3503">
        <ele>15.3</ele>
        <time>2018-09-16T09:32:46.000Z</time>
      </trkpt>
      <trkpt lat="46.72062" lon="-2.3503">
        <ele>15.3</ele>
        <time>2018-09-16T09:32:47.000Z</time>
      </trkpt>
      <trkpt lat="46.72062" lon="-2.3503">
        <ele>15.3</ele>
        <time>2018-09-16T09:32:48.000Z</time>
      </trkpt>
      <trkpt lat="46.72062" lon="-2.3503">
        <ele>15.3</ele>
        <time>2018-09-16T09:32:49.000Z</time>
      </trkpt>
      <trkpt lat="46.72062" lon="-2.3503">
        <ele>15.3</ele>
        <time>2018-09-16T09:32:50.000Z</time>
      </trkpt>
      <trkpt lat="46.72062" lon="-2.3503">
        <ele>15.3</ele>
        <time>2018-09-16T09:32:51.000Z</time>
      </trkpt>
      <trkpt lat="46.72062" lon="-2.3503">
        <ele>15.3</ele>
        <time>2018-09-16T09:32:52.000Z</time>
      </trkpt>
      <trkpt lat="46.72062" lon="-2.3503">
        <ele>15.3</ele>
        <time>2018-09-16T09:32:53.000Z</time>
      </trkpt>
      <trkpt lat="46.72062" lon="-2.3503">
        <ele>15.3</ele>
        <time>2018-09-16T09:32:54.000Z</time>
      </trkpt>
      <trkpt lat="46.72062" lon="-2.35029">
        <ele>15.3</ele>
        <time>2018-09-16T09:32:55.000Z</time>
      </trkpt>
      <trkpt lat="46.72061" lon="-2.35029">
        <ele>15.3</ele>
        <time>2018-09-16T09:32:56.000Z</time>
      </trkpt>
      <trkpt lat="46.72061" lon="-2.35028">
        <ele>15.3</ele>
        <time>2018-09-16T09:32:57.000Z</time>
      </trkpt>
      <trkpt lat="46.72061" lon="-2.35027">
        <ele>15.3</ele>
        <time>2018-09-16T09:32:58.000Z</time>
      </trkpt>
      <trkpt lat="46.7206" lon="-2.35026">
        <ele>15.3</ele>
        <time>2018-09-16T09:32:59.000Z</time>
      </trkpt>
      <trkpt lat="46.7206" lon="-2.35025">
        <ele>15.3</ele>
        <time>2018-09-16T09:33:00.000Z</time>
      </trkpt>
      <trkpt lat="46.72059" lon="-2.35024">
        <ele>15.3</ele>
        <time>2018-09-16T09:33:01.000Z</time>
      </trkpt>
      <trkpt lat="46.72058" lon="-2.35023">
        <ele>15.3</ele>
        <time>2018-09-16T09:33:02.000Z</time>
      </trkpt>
      <trkpt lat="46.72058" lon="-2.35022">
        <ele>15.3</ele>
        <time>2018-09-16T09:33:03.000Z</time>
      </trkpt>
      <trkpt lat="46.72057" lon="-2.35022">
        <ele>15.3</ele>
        <time>2018-09-16T09:33:04.000Z</time>
      </trkpt>
      <trkpt lat="46.72057" lon="-2.35021">
        <ele>15.3</ele>
        <time>2018-09-16T09:33:05.000Z</time>
      </trkpt>
      <trkpt lat="46.72057" lon="-2.35021">
        <ele>15.3</ele>
        <time>2018-09-16T09:33:06.000Z</time>
      </trkpt>
      <trkpt lat="46.72056" lon="-2.3502">
        <ele>15.3</ele>
        <time>2018-09-16T09:33:07.000Z</time>
      </trkpt>
      <trkpt lat="46.72056" lon="-2.3502">
        <ele>15.3</ele>
        <time>2018-09-16T09:33:08.000Z</time>
      </trkpt>
      <trkpt lat="46.72056" lon="-2.35019">
        <ele>15.3</ele>
        <time>2018-09-16T09:33:09.000Z</time>
      </trkpt>
      <trkpt lat="46.72055" lon="-2.35018">
        <ele>15.3</ele>
        <time>2018-09-16T09:33:10.000Z</time>
      </trkpt>
      <trkpt lat="46.72055" lon="-2.35017">
        <ele>15.3</ele>
        <time>2018-09-16T09:33:11.000Z</time>
      </trkpt>
      <trkpt lat="46.72054" lon="-2.35016">
        <ele>15.4</ele>
        <time>2018-09-16T09:33:12.000Z</time>
      </trkpt>
      <trkpt lat="46.72053" lon="-2.35015">
        <ele>15.4</ele>
        <time>2018-09-16T09:33:13.000Z</time>
      </trkpt>
      <trkpt lat="46.72053" lon="-2.35013">
        <ele>15.4</ele>
        <time>2018-09-16T09:33:14.000Z</time>
      </trkpt>
      <trkpt lat="46.72052" lon="-2.35012">
        <ele>15.4</ele>
        <time>2018-09-16T09:33:15.000Z</time>
      </trkpt>
      <trkpt lat="46.72051" lon="-2.35011">
        <ele>15.4</ele>
        <time>2018-09-16T09:33:16.000Z</time>
      </trkpt>
      <trkpt lat="46.7205" lon="-2.3501">
        <ele>15.4</ele>
        <time>2018-09-16T09:33:17.000Z</time>
      </trkpt>
      <trkpt lat="46.7205" lon="-2.35009">
        <ele>15.4</ele>
        <time>2018-09-16T09:33:18.000Z</time>
      </trkpt>
      <trkpt lat="46.72049" lon="-2.35008">
        <ele>15.4</ele>
        <time>2018-09-16T09:33:19.000Z</time>
      </trkpt>
      <trkpt lat="46.72048" lon="-2.35007">
        <ele>15.4</ele>
        <time>2018-09-16T09:33:20.000Z</time>
      </trkpt>
      <trkpt lat="46.72047" lon="-2.35005">
        <ele>15.4</ele>
        <time>2018-09-16T09:33:21.000Z</time>
      </trkpt>
      <trkpt lat="46.72046" lon="-2.35004">
        <ele>15.4</ele>
        <time>2018-09-16T09:33:22.000Z</time>
      </trkpt>
      <trkpt lat="46.72046" lon="-2.35003">
        <ele>15.5</ele>
        <time>2018-09-16T09:33:23.000Z</time>
      </trkpt>
      <trkpt lat="46.72045" lon="-2.35002">
        <ele>15.5</ele>
        <time>2018-09-16T09:33:24.000Z</time>
      </trkpt>
      <trkpt lat="46.72044" lon="-2.35001">
        <ele>15.5</ele>
        <time>2018-09-16T09:33:25.000Z</time>
      </trkpt>
      <trkpt lat="46.72043" lon="-2.35">
        <ele>15.5</ele>
        <time>2018-09-16T09:33:26.000Z</time>
      </trkpt>
      <trkpt lat="46.72043" lon="-2.34999">
        <ele>15.5</ele>
        <time>2018-09-16T09:33:27.000Z</time>
      </trkpt>
      <trkpt lat="46.72042" lon="-2.34998">
        <ele>15.4</ele>
        <time>2018-09-16T09:33:28.000Z</time>
      </trkpt>
      <trkpt lat="46.72041" lon="-2.34997">
        <ele>15.4</ele>
        <time>2018-09-16T09:33:29.000Z</time>
      </trkpt>
      <trkpt lat="46.7204" lon="-2.34996">
        <ele>15.4</ele>
        <time>2018-09-16T09:33:30.000Z</time>
      </trkpt>
      <trkpt lat="46.7204" lon="-2.34995">
        <ele>15.4</ele>
        <time>2018-09-16T09:33:31.000Z</time>
      </trkpt>
      <trkpt lat="46.72039" lon="-2.34993">
        <ele>15.4</ele>
        <time>2018-09-16T09:33:32.000Z</time>
      </trkpt>
      <trkpt lat="46.72038" lon="-2.34992">
        <ele>15.4</ele>
        <time>2018-09-16T09:33:33.000Z</time>
      </trkpt>
      <trkpt lat="46.72037" lon="-2.34991">
        <ele>15.3</ele>
        <time>2018-09-16T09:33:34.000Z</time>
      </trkpt>
      <trkpt lat="46.72036" lon="-2.3499">
        <ele>15.3</ele>
        <time>2018-09-16T09:33:35.000Z</time>
      </trkpt>
      <trkpt lat="46.72036" lon="-2.34989">
        <ele>15.3</ele>
        <time>2018-09-16T09:33:36.000Z</time>
      </trkpt>
      <trkpt lat="46.72035" lon="-2.34988">
        <ele>15.3</ele>
        <time>2018-09-16T09:33:37.000Z</time>
      </trkpt>
      <trkpt lat="46.72034" lon="-2.34987">
        <ele>15.3</ele>
        <time>2018-09-16T09:33:38.000Z</time>
      </trkpt>
      <trkpt lat="46.72033" lon="-2.34986">
        <ele>15.3</ele>
        <time>2018-09-16T09:33:39.000Z</time>
      </trkpt>
      <trkpt lat="46.72032" lon="-2.34985">
        <ele>15.3</ele>
        <time>2018-09-16T09:33:40.000Z</time>
      </trkpt>
      <trkpt lat="46.72031" lon="-2.34984">
        <ele>15.2</ele>
        <time>2018-09-16T09:33:41.000Z</time>
      </trkpt>
      <trkpt lat="46.7203" lon="-2.34983">
        <ele>15.2</ele>
        <time>2018-09-16T09:33:42.000Z</time>
      </trkpt>
      <trkpt lat="46.72029" lon="-2.34982">
        <ele>15.2</ele>
        <time>2018-09-16T09:33:43.000Z</time>
      </trkpt>
      <trkpt lat="46.72028" lon="-2.34981">
        <ele>15.2</ele>
        <time>2018-09-16T09:33:44.000Z</time>
      </trkpt>
      <trkpt lat="46.72027" lon="-2.3498">
        <ele>15.2</ele>
        <time>2018-09-16T09:33:45.000Z</time>
      </trkpt>
      <trkpt lat="46.72026" lon="-2.34979">
        <ele>15.2</ele>
        <time>2018-09-16T09:33:46.000Z</time>
      </trkpt>
      <trkpt lat="46.72025" lon="-2.34979">
        <ele>15.2</ele>
        <time>2018-09-16T09:33:47.000Z</time>
      </trkpt>
      <trkpt lat="46.72024" lon="-2.34978">
        <ele>15.2</ele>
        <time>2018-09-16T09:33:48.000Z</time>
      </trkpt>
      <trkpt lat="46.72023" lon="-2.34977">
        <ele>15.2</ele>
        <time>2018-09-16T09:33:49.000Z</time>
      </trkpt>
      <trkpt lat="46.72022" lon="-2.34977">
        <ele>15.2</ele>
        <time>2018-09-16T09:33:50.000Z</time>
      </trkpt>
      <trkpt lat="46.72021" lon="-2.34976">
        <ele>15.2</ele>
        <time>2018-09-16T09:33:51.000Z</time>
      </trkpt>
      <trkpt lat="46.7202" lon="-2.34975">
        <ele>15.2</ele>
        <time>2018-09-16T09:33:52.000Z</time>
      </trkpt>
      <trkpt lat="46.72019" lon="-2.34975">
        <ele>15.2</ele>
        <time>2018-09-16T09:33:53.000Z</time>
      </trkpt>
      <trkpt lat="46.72018" lon="-2.34975">
        <ele>15.2</ele>
        <time>2018-09-16T09:33:54.000Z</time>
      </trkpt>
      <trkpt lat="46.72017" lon="-2.34974">
        <ele>15.2</ele>
        <time>2018-09-16T09:33:55.000Z</time>
      </trkpt>
      <trkpt lat="46.72016" lon="-2.34974">
        <ele>15.2</ele>
        <time>2018-09-16T09:33:56.000Z</time>
      </trkpt>
      <trkpt lat="46.72015" lon="-2.34973">
        <ele>15.2</ele>
        <time>2018-09-16T09:33:57.000Z</time>
      </trkpt>
      <trkpt lat="46.72014" lon="-2.34973">
        <ele>15.2</ele>
        <time>2018-09-16T09:33:58.000Z</time>
      </trkpt>
      <trkpt lat="46.72013" lon="-2.34972">
        <ele>15.2</ele>
        <time>2018-09-16T09:33:59.000Z</time>
      </trkpt>
      <trkpt lat="46.72013" lon="-2.34971">
        <ele>15.2</ele>
        <time>2018-09-16T09:34:00.000Z</time>
      </trkpt>
      <trkpt lat="46.72012" lon="-2.34971">
        <ele>15.2</ele>
        <time>2018-09-16T09:34:01.000Z</time>
      </trkpt>
      <trkpt lat="46.72011" lon="-2.3497">
        <ele>15.2</ele>
        <time>2018-09-16T09:34:02.000Z</time>
      </trkpt>
      <trkpt lat="46.7201" lon="-2.34969">
        <ele>15.1</ele>
        <time>2018-09-16T09:34:03.000Z</time>
      </trkpt>
      <trkpt lat="46.72009" lon="-2.34969">
        <ele>15.1</ele>
        <time>2018-09-16T09:34:04.000Z</time>
      </trkpt>
      <trkpt lat="46.72008" lon="-2.34968">
        <ele>15.1</ele>
        <time>2018-09-16T09:34:05.000Z</time>
      </trkpt>
      <trkpt lat="46.72007" lon="-2.34968">
        <ele>15.1</ele>
        <time>2018-09-16T09:34:06.000Z</time>
      </trkpt>
      <trkpt lat="46.72006" lon="-2.34967">
        <ele>15.1</ele>
        <time>2018-09-16T09:34:07.000Z</time>
      </trkpt>
      <trkpt lat="46.72005" lon="-2.34966">
        <ele>15.1</ele>
        <time>2018-09-16T09:34:08.000Z</time>
      </trkpt>
      <trkpt lat="46.72004" lon="-2.34966">
        <ele>15.1</ele>
        <time>2018-09-16T09:34:09.000Z</time>
      </trkpt>
      <trkpt lat="46.72003" lon="-2.34965">
        <ele>15.1</ele>
        <time>2018-09-16T09:34:10.000Z</time>
      </trkpt>
      <trkpt lat="46.72002" lon="-2.34965">
        <ele>15.1</ele>
        <time>2018-09-16T09:34:11.000Z</time>
      </trkpt>
      <trkpt lat="46.72001" lon="-2.34965">
        <ele>15.1</ele>
        <time>2018-09-16T09:34:12.000Z</time>
      </trkpt>
      <trkpt lat="46.72" lon="-2.34964">
        <ele>15.1</ele>
        <time>2018-09-16T09:34:13.000Z</time>
      </trkpt>
      <trkpt lat="46.71998" lon="-2.34964">
        <ele>15.1</ele>
        <time>2018-09-16T09:34:14.000Z</time>
      </trkpt>
      <trkpt lat="46.71997" lon="-2.34963">
        <ele>15</ele>
        <time>2018-09-16T09:34:15.000Z</time>
      </trkpt>
      <trkpt lat="46.71996" lon="-2.34963">
        <ele>15</ele>
        <time>2018-09-16T09:34:16.000Z</time>
      </trkpt>
      <trkpt lat="46.71995" lon="-2.34962">
        <ele>15</ele>
        <time>2018-09-16T09:34:17.000Z</time>
      </trkpt>
      <trkpt lat="46.71995" lon="-2.34961">
        <ele>14.9</ele>
        <time>2018-09-16T09:34:18.000Z</time>
      </trkpt>
      <trkpt lat="46.71994" lon="-2.3496">
        <ele>14.9</ele>
        <time>2018-09-16T09:34:19.000Z</time>
      </trkpt>
      <trkpt lat="46.71993" lon="-2.34959">
        <ele>14.8</ele>
        <time>2018-09-16T09:34:20.000Z</time>
      </trkpt>
      <trkpt lat="46.71993" lon="-2.34958">
        <ele>14.8</ele>
        <time>2018-09-16T09:34:21.000Z</time>
      </trkpt>
      <trkpt lat="46.71992" lon="-2.34956">
        <ele>14.7</ele>
        <time>2018-09-16T09:34:22.000Z</time>
      </trkpt>
      <trkpt lat="46.71992" lon="-2.34954">
        <ele>14.7</ele>
        <time>2018-09-16T09:34:23.000Z</time>
      </trkpt>
      <trkpt lat="46.71992" lon="-2.34952">
        <ele>14.6</ele>
        <time>2018-09-16T09:34:24.000Z</time>
      </trkpt>
      <trkpt lat="46.71992" lon="-2.3495">
        <ele>14.5</ele>
        <time>2018-09-16T09:34:25.000Z</time>
      </trkpt>
      <trkpt lat="46.71992" lon="-2.34948">
        <ele>14.5</ele>
        <time>2018-09-16T09:34:26.000Z</time>
      </trkpt>
      <trkpt lat="46.71992" lon="-2.34946">
        <ele>14.4</ele>
        <time>2018-09-16T09:34:27.000Z</time>
      </trkpt>
      <trkpt lat="46.71991" lon="-2.34944">
        <ele>14.4</ele>
        <time>2018-09-16T09:34:28.000Z</time>
      </trkpt>
      <trkpt lat="46.71991" lon="-2.34943">
        <ele>14.3</ele>
        <time>2018-09-16T09:34:29.000Z</time>
      </trkpt>
      <trkpt lat="46.71991" lon="-2.34941">
        <ele>14.3</ele>
        <time>2018-09-16T09:34:30.000Z</time>
      </trkpt>
      <trkpt lat="46.71991" lon="-2.3494">
        <ele>14.3</ele>
        <time>2018-09-16T09:34:31.000Z</time>
      </trkpt>
      <trkpt lat="46.7199" lon="-2.34939">
        <ele>14.2</ele>
        <time>2018-09-16T09:34:32.000Z</time>
      </trkpt>
      <trkpt lat="46.7199" lon="-2.34938">
        <ele>14.2</ele>
        <time>2018-09-16T09:34:33.000Z</time>
      </trkpt>
      <trkpt lat="46.71989" lon="-2.34937">
        <ele>14.1</ele>
        <time>2018-09-16T09:34:34.000Z</time>
      </trkpt>
      <trkpt lat="46.71989" lon="-2.34936">
        <ele>14.1</ele>
        <time>2018-09-16T09:34:35.000Z</time>
      </trkpt>
      <trkpt lat="46.71988" lon="-2.34935">
        <ele>14</ele>
        <time>2018-09-16T09:34:36.000Z</time>
      </trkpt>
      <trkpt lat="46.71987" lon="-2.34934">
        <ele>14</ele>
        <time>2018-09-16T09:34:37.000Z</time>
      </trkpt>
      <trkpt lat="46.71986" lon="-2.34933">
        <ele>13.9</ele>
        <time>2018-09-16T09:34:38.000Z</time>
      </trkpt>
      <trkpt lat="46.71985" lon="-2.34932">
        <ele>13.9</ele>
        <time>2018-09-16T09:34:39.000Z</time>
      </trkpt>
      <trkpt lat="46.71984" lon="-2.34931">
        <ele>13.8</ele>
        <time>2018-09-16T09:34:40.000Z</time>
      </trkpt>
      <trkpt lat="46.71983" lon="-2.3493">
        <ele>13.7</ele>
        <time>2018-09-16T09:34:41.000Z</time>
      </trkpt>
      <trkpt lat="46.71982" lon="-2.3493">
        <ele>13.7</ele>
        <time>2018-09-16T09:34:42.000Z</time>
      </trkpt>
      <trkpt lat="46.71981" lon="-2.34929">
        <ele>13.6</ele>
        <time>2018-09-16T09:34:43.000Z</time>
      </trkpt>
      <trkpt lat="46.7198" lon="-2.34928">
        <ele>13.6</ele>
        <time>2018-09-16T09:34:44.000Z</time>
      </trkpt>
      <trkpt lat="46.71979" lon="-2.34927">
        <ele>13.5</ele>
        <time>2018-09-16T09:34:45.000Z</time>
      </trkpt>
      <trkpt lat="46.71978" lon="-2.34926">
        <ele>13.4</ele>
        <time>2018-09-16T09:34:46.000Z</time>
      </trkpt>
      <trkpt lat="46.71977" lon="-2.34925">
        <ele>13.4</ele>
        <time>2018-09-16T09:34:47.000Z</time>
      </trkpt>
      <trkpt lat="46.71976" lon="-2.34924">
        <ele>13.3</ele>
        <time>2018-09-16T09:34:48.000Z</time>
      </trkpt>
      <trkpt lat="46.71975" lon="-2.34924">
        <ele>13.3</ele>
        <time>2018-09-16T09:34:49.000Z</time>
      </trkpt>
      <trkpt lat="46.71974" lon="-2.34923">
        <ele>13.2</ele>
        <time>2018-09-16T09:34:50.000Z</time>
      </trkpt>
      <trkpt lat="46.71973" lon="-2.34922">
        <ele>13.2</ele>
        <time>2018-09-16T09:34:51.000Z</time>
      </trkpt>
      <trkpt lat="46.71972" lon="-2.34921">
        <ele>13.1</ele>
        <time>2018-09-16T09:34:52.000Z</time>
      </trkpt>
      <trkpt lat="46.71971" lon="-2.3492">
        <ele>13</ele>
        <time>2018-09-16T09:34:53.000Z</time>
      </trkpt>
      <trkpt lat="46.71969" lon="-2.34919">
        <ele>13</ele>
        <time>2018-09-16T09:34:54.000Z</time>
      </trkpt>
      <trkpt lat="46.71968" lon="-2.34918">
        <ele>12.9</ele>
        <time>2018-09-16T09:34:55.000Z</time>
      </trkpt>
      <trkpt lat="46.71967" lon="-2.34917">
        <ele>12.8</ele>
        <time>2018-09-16T09:34:56.000Z</time>
      </trkpt>
      <trkpt lat="46.71966" lon="-2.34917">
        <ele>12.8</ele>
        <time>2018-09-16T09:34:57.000Z</time>
      </trkpt>
      <trkpt lat="46.71965" lon="-2.34916">
        <ele>12.7</ele>
        <time>2018-09-16T09:34:58.000Z</time>
      </trkpt>
      <trkpt lat="46.71964" lon="-2.34915">
        <ele>12.7</ele>
        <time>2018-09-16T09:34:59.000Z</time>
      </trkpt>
      <trkpt lat="46.71963" lon="-2.34914">
        <ele>12.6</ele>
        <time>2018-09-16T09:35:00.000Z</time>
      </trkpt>
      <trkpt lat="46.71962" lon="-2.34913">
        <ele>12.6</ele>
        <time>2018-09-16T09:35:01.000Z</time>
      </trkpt>
      <trkpt lat="46.71961" lon="-2.34912">
        <ele>12.5</ele>
        <time>2018-09-16T09:35:02.000Z</time>
      </trkpt>
      <trkpt lat="46.7196" lon="-2.34911">
        <ele>12.5</ele>
        <time>2018-09-16T09:35:03.000Z</time>
      </trkpt>
      <trkpt lat="46.71959" lon="-2.3491">
        <ele>12.4</ele>
        <time>2018-09-16T09:35:04.000Z</time>
      </trkpt>
      <trkpt lat="46.71958" lon="-2.34909">
        <ele>12.4</ele>
        <time>2018-09-16T09:35:05.000Z</time>
      </trkpt>
      <trkpt lat="46.71957" lon="-2.34909">
        <ele>12.4</ele>
        <time>2018-09-16T09:35:06.000Z</time>
      </trkpt>
      <trkpt lat="46.71956" lon="-2.34908">
        <ele>12.3</ele>
        <time>2018-09-16T09:35:07.000Z</time>
      </trkpt>
      <trkpt lat="46.71955" lon="-2.34907">
        <ele>12.3</ele>
        <time>2018-09-16T09:35:08.000Z</time>
      </trkpt>
      <trkpt lat="46.71954" lon="-2.34906">
        <ele>12.2</ele>
        <time>2018-09-16T09:35:09.000Z</time>
      </trkpt>
      <trkpt lat="46.71953" lon="-2.34905">
        <ele>12.2</ele>
        <time>2018-09-16T09:35:10.000Z</time>
      </trkpt>
      <trkpt lat="46.71952" lon="-2.34904">
        <ele>12.2</ele>
        <time>2018-09-16T09:35:11.000Z</time>
      </trkpt>
      <trkpt lat="46.71951" lon="-2.34903">
        <ele>12.1</ele>
        <time>2018-09-16T09:35:12.000Z</time>
      </trkpt>
      <trkpt lat="46.7195" lon="-2.34903">
        <ele>12.1</ele>
        <time>2018-09-16T09:35:13.000Z</time>
      </trkpt>
      <trkpt lat="46.71949" lon="-2.34902">
        <ele>12.1</ele>
        <time>2018-09-16T09:35:14.000Z</time>
      </trkpt>
      <trkpt lat="46.71948" lon="-2.34901">
        <ele>12</ele>
        <time>2018-09-16T09:35:15.000Z</time>
      </trkpt>
      <trkpt lat="46.71947" lon="-2.349">
        <ele>12</ele>
        <time>2018-09-16T09:35:16.000Z</time>
      </trkpt>
      <trkpt lat="46.71946" lon="-2.349">
        <ele>12</ele>
        <time>2018-09-16T09:35:17.000Z</time>
      </trkpt>
      <trkpt lat="46.71945" lon="-2.34899">
        <ele>11.9</ele>
        <time>2018-09-16T09:35:18.000Z</time>
      </trkpt>
      <trkpt lat="46.71944" lon="-2.34898">
        <ele>11.9</ele>
        <time>2018-09-16T09:35:19.000Z</time>
      </trkpt>
      <trkpt lat="46.71943" lon="-2.34897">
        <ele>11.9</ele>
        <time>2018-09-16T09:35:20.000Z</time>
      </trkpt>
      <trkpt lat="46.71942" lon="-2.34897">
        <ele>11.9</ele>
        <time>2018-09-16T09:35:21.000Z</time>
      </trkpt>
      <trkpt lat="46.71941" lon="-2.34896">
        <ele>11.8</ele>
        <time>2018-09-16T09:35:22.000Z</time>
      </trkpt>
      <trkpt lat="46.7194" lon="-2.34895">
        <ele>11.8</ele>
        <time>2018-09-16T09:35:23.000Z</time>
      </trkpt>
      <trkpt lat="46.71939" lon="-2.34895">
        <ele>11.8</ele>
        <time>2018-09-16T09:35:24.000Z</time>
      </trkpt>
      <trkpt lat="46.71938" lon="-2.34894">
        <ele>11.8</ele>
        <time>2018-09-16T09:35:25.000Z</time>
      </trkpt>
      <trkpt lat="46.71937" lon="-2.34894">
        <ele>11.7</ele>
        <time>2018-09-16T09:35:26.000Z</time>
      </trkpt>
      <trkpt lat="46.71936" lon="-2.34893">
        <ele>11.7</ele>
        <time>2018-09-16T09:35:27.000Z</time>
      </trkpt>
      <trkpt lat="46.71935" lon="-2.34892">
        <ele>11.7</ele>
        <time>2018-09-16T09:35:28.000Z</time>
      </trkpt>
      <trkpt lat="46.71935" lon="-2.34892">
        <ele>11.7</ele>
        <time>2018-09-16T09:35:29.000Z</time>
      </trkpt>
      <trkpt lat="46.71934" lon="-2.34892">
        <ele>11.7</ele>
        <time>2018-09-16T09:35:30.000Z</time>
      </trkpt>
      <trkpt lat="46.71933" lon="-2.34891">
        <ele>11.6</ele>
        <time>2018-09-16T09:35:31.000Z</time>
      </trkpt>
      <trkpt lat="46.71932" lon="-2.34891">
        <ele>11.6</ele>
        <time>2018-09-16T09:35:32.000Z</time>
      </trkpt>
      <trkpt lat="46.71931" lon="-2.3489">
        <ele>11.6</ele>
        <time>2018-09-16T09:35:33.000Z</time>
      </trkpt>
      <trkpt lat="46.7193" lon="-2.3489">
        <ele>11.6</ele>
        <time>2018-09-16T09:35:34.000Z</time>
      </trkpt>
      <trkpt lat="46.71929" lon="-2.3489">
        <ele>11.6</ele>
        <time>2018-09-16T09:35:35.000Z</time>
      </trkpt>
      <trkpt lat="46.71928" lon="-2.3489">
        <ele>11.6</ele>
        <time>2018-09-16T09:35:36.000Z</time>
      </trkpt>
      <trkpt lat="46.71927" lon="-2.3489">
        <ele>11.5</ele>
        <time>2018-09-16T09:35:37.000Z</time>
      </trkpt>
      <trkpt lat="46.71926" lon="-2.34889">
        <ele>11.5</ele>
        <time>2018-09-16T09:35:38.000Z</time>
      </trkpt>
      <trkpt lat="46.71925" lon="-2.34889">
        <ele>11.5</ele>
        <time>2018-09-16T09:35:39.000Z</time>
      </trkpt>
      <trkpt lat="46.71924" lon="-2.34889">
        <ele>11.5</ele>
        <time>2018-09-16T09:35:40.000Z</time>
      </trkpt>
      <trkpt lat="46.71923" lon="-2.34889">
        <ele>11.5</ele>
        <time>2018-09-16T09:35:41.000Z</time>
      </trkpt>
      <trkpt lat="46.71922" lon="-2.34888">
        <ele>11.4</ele>
        <time>2018-09-16T09:35:42.000Z</time>
      </trkpt>
      <trkpt lat="46.71921" lon="-2.34888">
        <ele>11.4</ele>
        <time>2018-09-16T09:35:43.000Z</time>
      </trkpt>
      <trkpt lat="46.71919" lon="-2.34887">
        <ele>11.4</ele>
        <time>2018-09-16T09:35:44.000Z</time>
      </trkpt>
      <trkpt lat="46.71918" lon="-2.34886">
        <ele>11.4</ele>
        <time>2018-09-16T09:35:45.000Z</time>
      </trkpt>
      <trkpt lat="46.71917" lon="-2.34886">
        <ele>11.4</ele>
        <time>2018-09-16T09:35:46.000Z</time>
      </trkpt>
      <trkpt lat="46.71916" lon="-2.34885">
        <ele>11.4</ele>
        <time>2018-09-16T09:35:47.000Z</time>
      </trkpt>
      <trkpt lat="46.71915" lon="-2.34884">
        <ele>11.4</ele>
        <time>2018-09-16T09:35:48.000Z</time>
      </trkpt>
      <trkpt lat="46.71914" lon="-2.34883">
        <ele>11.4</ele>
        <time>2018-09-16T09:35:49.000Z</time>
      </trkpt>
      <trkpt lat="46.71913" lon="-2.34882">
        <ele>11.4</ele>
        <time>2018-09-16T09:35:50.000Z</time>
      </trkpt>
      <trkpt lat="46.71912" lon="-2.34881">
        <ele>11.4</ele>
        <time>2018-09-16T09:35:51.000Z</time>
      </trkpt>
      <trkpt lat="46.7191" lon="-2.3488">
        <ele>11.4</ele>
        <time>2018-09-16T09:35:52.000Z</time>
      </trkpt>
      <trkpt lat="46.71909" lon="-2.34879">
        <ele>11.4</ele>
        <time>2018-09-16T09:35:53.000Z</time>
      </trkpt>
      <trkpt lat="46.71908" lon="-2.34879">
        <ele>11.5</ele>
        <time>2018-09-16T09:35:54.000Z</time>
      </trkpt>
      <trkpt lat="46.71907" lon="-2.34878">
        <ele>11.5</ele>
        <time>2018-09-16T09:35:55.000Z</time>
      </trkpt>
      <trkpt lat="46.71906" lon="-2.34877">
        <ele>11.5</ele>
        <time>2018-09-16T09:35:56.000Z</time>
      </trkpt>
      <trkpt lat="46.71905" lon="-2.34877">
        <ele>11.5</ele>
        <time>2018-09-16T09:35:57.000Z</time>
      </trkpt>
      <trkpt lat="46.71903" lon="-2.34876">
        <ele>11.5</ele>
        <time>2018-09-16T09:35:58.000Z</time>
      </trkpt>
      <trkpt lat="46.71903" lon="-2.34876">
        <ele>11.5</ele>
        <time>2018-09-16T09:35:59.000Z</time>
      </trkpt>
      <trkpt lat="46.71902" lon="-2.34876">
        <ele>11.5</ele>
        <time>2018-09-16T09:36:00.000Z</time>
      </trkpt>
      <trkpt lat="46.71901" lon="-2.34875">
        <ele>11.5</ele>
        <time>2018-09-16T09:36:01.000Z</time>
      </trkpt>
      <trkpt lat="46.719" lon="-2.34875">
        <ele>11.5</ele>
        <time>2018-09-16T09:36:02.000Z</time>
      </trkpt>
      <trkpt lat="46.71899" lon="-2.34875">
        <ele>11.5</ele>
        <time>2018-09-16T09:36:03.000Z</time>
      </trkpt>
      <trkpt lat="46.71898" lon="-2.34874">
        <ele>11.5</ele>
        <time>2018-09-16T09:36:04.000Z</time>
      </trkpt>
      <trkpt lat="46.71897" lon="-2.34874">
        <ele>11.5</ele>
        <time>2018-09-16T09:36:05.000Z</time>
      </trkpt>
      <trkpt lat="46.71896" lon="-2.34874">
        <ele>11.5</ele>
        <time>2018-09-16T09:36:06.000Z</time>
      </trkpt>
      <trkpt lat="46.71894" lon="-2.34874">
        <ele>11.5</ele>
        <time>2018-09-16T09:36:07.000Z</time>
      </trkpt>
      <trkpt lat="46.71893" lon="-2.34873">
        <ele>11.5</ele>
        <time>2018-09-16T09:36:08.000Z</time>
      </trkpt>
      <trkpt lat="46.71892" lon="-2.34873">
        <ele>11.5</ele>
        <time>2018-09-16T09:36:09.000Z</time>
      </trkpt>
      <trkpt lat="46.7189" lon="-2.34873">
        <ele>11.5</ele>
        <time>2018-09-16T09:36:10.000Z</time>
      </trkpt>
      <trkpt lat="46.71889" lon="-2.34872">
        <ele>11.5</ele>
        <time>2018-09-16T09:36:11.000Z</time>
      </trkpt>
      <trkpt lat="46.71888" lon="-2.34872">
        <ele>11.5</ele>
        <time>2018-09-16T09:36:12.000Z</time>
      </trkpt>
      <trkpt lat="46.71887" lon="-2.34872">
        <ele>11.5</ele>
        <time>2018-09-16T09:36:13.000Z</time>
      </trkpt>
      <trkpt lat="46.71885" lon="-2.34871">
        <ele>11.5</ele>
        <time>2018-09-16T09:36:14.000Z</time>
      </trkpt>
      <trkpt lat="46.71884" lon="-2.34871">
        <ele>11.6</ele>
        <time>2018-09-16T09:36:15.000Z</time>
      </trkpt>
      <trkpt lat="46.71883" lon="-2.3487">
        <ele>11.6</ele>
        <time>2018-09-16T09:36:16.000Z</time>
      </trkpt>
      <trkpt lat="46.71882" lon="-2.3487">
        <ele>11.6</ele>
        <time>2018-09-16T09:36:17.000Z</time>
      </trkpt>
      <trkpt lat="46.71881" lon="-2.3487">
        <ele>11.6</ele>
        <time>2018-09-16T09:36:18.000Z</time>
      </trkpt>
      <trkpt lat="46.7188" lon="-2.34869">
        <ele>11.6</ele>
        <time>2018-09-16T09:36:19.000Z</time>
      </trkpt>
      <trkpt lat="46.71879" lon="-2.34869">
        <ele>11.6</ele>
        <time>2018-09-16T09:36:20.000Z</time>
      </trkpt>
      <trkpt lat="46.71878" lon="-2.34868">
        <ele>11.6</ele>
        <time>2018-09-16T09:36:21.000Z</time>
      </trkpt>
      <trkpt lat="46.71877" lon="-2.34868">
        <ele>11.6</ele>
        <time>2018-09-16T09:36:22.000Z</time>
      </trkpt>
      <trkpt lat="46.71876" lon="-2.34867">
        <ele>11.6</ele>
        <time>2018-09-16T09:36:23.000Z</time>
      </trkpt>
      <trkpt lat="46.71875" lon="-2.34867">
        <ele>11.6</ele>
        <time>2018-09-16T09:36:24.000Z</time>
      </trkpt>
      <trkpt lat="46.71874" lon="-2.34866">
        <ele>11.6</ele>
        <time>2018-09-16T09:36:25.000Z</time>
      </trkpt>
      <trkpt lat="46.71873" lon="-2.34866">
        <ele>11.6</ele>
        <time>2018-09-16T09:36:26.000Z</time>
      </trkpt>
      <trkpt lat="46.71872" lon="-2.34865">
        <ele>11.6</ele>
        <time>2018-09-16T09:36:27.000Z</time>
      </trkpt>
      <trkpt lat="46.7187" lon="-2.34864">
        <ele>11.6</ele>
        <time>2018-09-16T09:36:28.000Z</time>
      </trkpt>
      <trkpt lat="46.71869" lon="-2.34864">
        <ele>11.6</ele>
        <time>2018-09-16T09:36:29.000Z</time>
      </trkpt>
      <trkpt lat="46.71868" lon="-2.34864">
        <ele>11.6</ele>
        <time>2018-09-16T09:36:30.000Z</time>
      </trkpt>
      <trkpt lat="46.71867" lon="-2.34863">
        <ele>11.6</ele>
        <time>2018-09-16T09:36:31.000Z</time>
      </trkpt>
      <trkpt lat="46.71866" lon="-2.34863">
        <ele>11.6</ele>
        <time>2018-09-16T09:36:32.000Z</time>
      </trkpt>
      <trkpt lat="46.71865" lon="-2.34862">
        <ele>11.7</ele>
        <time>2018-09-16T09:36:33.000Z</time>
      </trkpt>
      <trkpt lat="46.71863" lon="-2.34862">
        <ele>11.7</ele>
        <time>2018-09-16T09:36:34.000Z</time>
      </trkpt>
      <trkpt lat="46.71862" lon="-2.34862">
        <ele>11.7</ele>
        <time>2018-09-16T09:36:35.000Z</time>
      </trkpt>
      <trkpt lat="46.71861" lon="-2.34862">
        <ele>11.7</ele>
        <time>2018-09-16T09:36:36.000Z</time>
      </trkpt>
      <trkpt lat="46.7186" lon="-2.34862">
        <ele>11.7</ele>
        <time>2018-09-16T09:36:37.000Z</time>
      </trkpt>
      <trkpt lat="46.71858" lon="-2.34862">
        <ele>11.7</ele>
        <time>2018-09-16T09:36:38.000Z</time>
      </trkpt>
      <trkpt lat="46.71857" lon="-2.34861">
        <ele>11.7</ele>
        <time>2018-09-16T09:36:39.000Z</time>
      </trkpt>
      <trkpt lat="46.71856" lon="-2.34861">
        <ele>11.7</ele>
        <time>2018-09-16T09:36:40.000Z</time>
      </trkpt>
      <trkpt lat="46.71854" lon="-2.34861">
        <ele>11.7</ele>
        <time>2018-09-16T09:36:41.000Z</time>
      </trkpt>
      <trkpt lat="46.71853" lon="-2.34861">
        <ele>11.7</ele>
        <time>2018-09-16T09:36:42.000Z</time>
      </trkpt>
      <trkpt lat="46.71852" lon="-2.34861">
        <ele>11.7</ele>
        <time>2018-09-16T09:36:43.000Z</time>
      </trkpt>
      <trkpt lat="46.71851" lon="-2.34861">
        <ele>11.7</ele>
        <time>2018-09-16T09:36:44.000Z</time>
      </trkpt>
      <trkpt lat="46.7185" lon="-2.34861">
        <ele>11.7</ele>
        <time>2018-09-16T09:36:45.000Z</time>
      </trkpt>
      <trkpt lat="46.71848" lon="-2.34861">
        <ele>11.7</ele>
        <time>2018-09-16T09:36:46.000Z</time>
      </trkpt>
      <trkpt lat="46.71847" lon="-2.34861">
        <ele>11.7</ele>
        <time>2018-09-16T09:36:47.000Z</time>
      </trkpt>
      <trkpt lat="46.71846" lon="-2.34861">
        <ele>11.7</ele>
        <time>2018-09-16T09:36:48.000Z</time>
      </trkpt>
      <trkpt lat="46.71845" lon="-2.3486">
        <ele>11.7</ele>
        <time>2018-09-16T09:36:49.000Z</time>
      </trkpt>
      <trkpt lat="46.71844" lon="-2.3486">
        <ele>11.7</ele>
        <time>2018-09-16T09:36:50.000Z</time>
      </trkpt>
      <trkpt lat="46.71842" lon="-2.3486">
        <ele>11.7</ele>
        <time>2018-09-16T09:36:51.000Z</time>
      </trkpt>
      <trkpt lat="46.71841" lon="-2.3486">
        <ele>11.7</ele>
        <time>2018-09-16T09:36:52.000Z</time>
      </trkpt>
      <trkpt lat="46.7184" lon="-2.3486">
        <ele>11.7</ele>
        <time>2018-09-16T09:36:53.000Z</time>
      </trkpt>
      <trkpt lat="46.71839" lon="-2.3486">
        <ele>11.7</ele>
        <time>2018-09-16T09:36:54.000Z</time>
      </trkpt>
      <trkpt lat="46.71838" lon="-2.34859">
        <ele>11.7</ele>
        <time>2018-09-16T09:36:55.000Z</time>
      </trkpt>
      <trkpt lat="46.71837" lon="-2.34859">
        <ele>11.7</ele>
        <time>2018-09-16T09:36:56.000Z</time>
      </trkpt>
      <trkpt lat="46.71835" lon="-2.34859">
        <ele>11.7</ele>
        <time>2018-09-16T09:36:57.000Z</time>
      </trkpt>
      <trkpt lat="46.71834" lon="-2.34859">
        <ele>11.7</ele>
        <time>2018-09-16T09:36:58.000Z</time>
      </trkpt>
      <trkpt lat="46.71833" lon="-2.34859">
        <ele>11.7</ele>
        <time>2018-09-16T09:36:59.000Z</time>
      </trkpt>
      <trkpt lat="46.71832" lon="-2.34859">
        <ele>11.7</ele>
        <time>2018-09-16T09:37:00.000Z</time>
      </trkpt>
      <trkpt lat="46.71831" lon="-2.34859">
        <ele>11.7</ele>
        <time>2018-09-16T09:37:01.000Z</time>
      </trkpt>
      <trkpt lat="46.7183" lon="-2.34859">
        <ele>11.7</ele>
        <time>2018-09-16T09:37:02.000Z</time>
      </trkpt>
      <trkpt lat="46.71828" lon="-2.34859">
        <ele>11.8</ele>
        <time>2018-09-16T09:37:03.000Z</time>
      </trkpt>
      <trkpt lat="46.71827" lon="-2.34859">
        <ele>11.8</ele>
        <time>2018-09-16T09:37:04.000Z</time>
      </trkpt>
      <trkpt lat="46.71826" lon="-2.34859">
        <ele>11.8</ele>
        <time>2018-09-16T09:37:05.000Z</time>
      </trkpt>
      <trkpt lat="46.71825" lon="-2.34859">
        <ele>11.8</ele>
        <time>2018-09-16T09:37:06.000Z</time>
      </trkpt>
      <trkpt lat="46.71824" lon="-2.34859">
        <ele>11.8</ele>
        <time>2018-09-16T09:37:07.000Z</time>
      </trkpt>
      <trkpt lat="46.71823" lon="-2.34859">
        <ele>11.8</ele>
        <time>2018-09-16T09:37:08.000Z</time>
      </trkpt>
      <trkpt lat="46.71822" lon="-2.34859">
        <ele>11.8</ele>
        <time>2018-09-16T09:37:09.000Z</time>
      </trkpt>
      <trkpt lat="46.71821" lon="-2.34859">
        <ele>11.8</ele>
        <time>2018-09-16T09:37:10.000Z</time>
      </trkpt>
      <trkpt lat="46.71819" lon="-2.34859">
        <ele>11.9</ele>
        <time>2018-09-16T09:37:11.000Z</time>
      </trkpt>
      <trkpt lat="46.71818" lon="-2.34859">
        <ele>11.9</ele>
        <time>2018-09-16T09:37:12.000Z</time>
      </trkpt>
      <trkpt lat="46.71817" lon="-2.34859">
        <ele>11.9</ele>
        <time>2018-09-16T09:37:13.000Z</time>
      </trkpt>
      <trkpt lat="46.71816" lon="-2.34859">
        <ele>11.9</ele>
        <time>2018-09-16T09:37:14.000Z</time>
      </trkpt>
      <trkpt lat="46.71815" lon="-2.34859">
        <ele>11.9</ele>
        <time>2018-09-16T09:37:15.000Z</time>
      </trkpt>
      <trkpt lat="46.71814" lon="-2.34859">
        <ele>11.9</ele>
        <time>2018-09-16T09:37:16.000Z</time>
      </trkpt>
      <trkpt lat="46.71813" lon="-2.34859">
        <ele>11.9</ele>
        <time>2018-09-16T09:37:17.000Z</time>
      </trkpt>
      <trkpt lat="46.71812" lon="-2.34859">
        <ele>12</ele>
        <time>2018-09-16T09:37:18.000Z</time>
      </trkpt>
      <trkpt lat="46.71811" lon="-2.34859">
        <ele>12</ele>
        <time>2018-09-16T09:37:19.000Z</time>
      </trkpt>
      <trkpt lat="46.7181" lon="-2.34859">
        <ele>12</ele>
        <time>2018-09-16T09:37:20.000Z</time>
      </trkpt>
      <trkpt lat="46.71808" lon="-2.34859">
        <ele>12</ele>
        <time>2018-09-16T09:37:21.000Z</time>
      </trkpt>
      <trkpt lat="46.71807" lon="-2.34858">
        <ele>12</ele>
        <time>2018-09-16T09:37:22.000Z</time>
      </trkpt>
      <trkpt lat="46.71806" lon="-2.34858">
        <ele>12</ele>
        <time>2018-09-16T09:37:23.000Z</time>
      </trkpt>
      <trkpt lat="46.71805" lon="-2.34858">
        <ele>12</ele>
        <time>2018-09-16T09:37:24.000Z</time>
      </trkpt>
      <trkpt lat="46.71804" lon="-2.34858">
        <ele>12.1</ele>
        <time>2018-09-16T09:37:25.000Z</time>
      </trkpt>
      <trkpt lat="46.71803" lon="-2.34857">
        <ele>12.1</ele>
        <time>2018-09-16T09:37:26.000Z</time>
      </trkpt>
      <trkpt lat="46.71802" lon="-2.34857">
        <ele>12.1</ele>
        <time>2018-09-16T09:37:27.000Z</time>
      </trkpt>
      <trkpt lat="46.71801" lon="-2.34857">
        <ele>12.1</ele>
        <time>2018-09-16T09:37:28.000Z</time>
      </trkpt>
      <trkpt lat="46.718" lon="-2.34857">
        <ele>12.1</ele>
        <time>2018-09-16T09:37:29.000Z</time>
      </trkpt>
      <trkpt lat="46.71799" lon="-2.34856">
        <ele>12.1</ele>
        <time>2018-09-16T09:37:30.000Z</time>
      </trkpt>
      <trkpt lat="46.71797" lon="-2.34856">
        <ele>12.2</ele>
        <time>2018-09-16T09:37:31.000Z</time>
      </trkpt>
      <trkpt lat="46.71796" lon="-2.34856">
        <ele>12.2</ele>
        <time>2018-09-16T09:37:32.000Z</time>
      </trkpt>
      <trkpt lat="46.71795" lon="-2.34856">
        <ele>12.2</ele>
        <time>2018-09-16T09:37:33.000Z</time>
      </trkpt>
      <trkpt lat="46.71794" lon="-2.34856">
        <ele>12.2</ele>
        <time>2018-09-16T09:37:34.000Z</time>
      </trkpt>
      <trkpt lat="46.71793" lon="-2.34855">
        <ele>12.2</ele>
        <time>2018-09-16T09:37:35.000Z</time>
      </trkpt>
      <trkpt lat="46.71792" lon="-2.34855">
        <ele>12.2</ele>
        <time>2018-09-16T09:37:36.000Z</time>
      </trkpt>
      <trkpt lat="46.71791" lon="-2.34855">
        <ele>12.3</ele>
        <time>2018-09-16T09:37:37.000Z</time>
      </trkpt>
      <trkpt lat="46.7179" lon="-2.34854">
        <ele>12.3</ele>
        <time>2018-09-16T09:37:38.000Z</time>
      </trkpt>
      <trkpt lat="46.71788" lon="-2.34854">
        <ele>12.3</ele>
        <time>2018-09-16T09:37:39.000Z</time>
      </trkpt>
      <trkpt lat="46.71787" lon="-2.34854">
        <ele>12.3</ele>
        <time>2018-09-16T09:37:40.000Z</time>
      </trkpt>
      <trkpt lat="46.71786" lon="-2.34853">
        <ele>12.3</ele>
        <time>2018-09-16T09:37:41.000Z</time>
      </trkpt>
      <trkpt lat="46.71785" lon="-2.34853">
        <ele>12.3</ele>
        <time>2018-09-16T09:37:42.000Z</time>
      </trkpt>
      <trkpt lat="46.71784" lon="-2.34853">
        <ele>12.4</ele>
        <time>2018-09-16T09:37:43.000Z</time>
      </trkpt>
      <trkpt lat="46.71783" lon="-2.34852">
        <ele>12.4</ele>
        <time>2018-09-16T09:37:44.000Z</time>
      </trkpt>
      <trkpt lat="46.71782" lon="-2.34852">
        <ele>12.4</ele>
        <time>2018-09-16T09:37:45.000Z</time>
      </trkpt>
      <trkpt lat="46.71781" lon="-2.34851">
        <ele>12.4</ele>
        <time>2018-09-16T09:37:46.000Z</time>
      </trkpt>
      <trkpt lat="46.71779" lon="-2.34851">
        <ele>12.4</ele>
        <time>2018-09-16T09:37:47.000Z</time>
      </trkpt>
      <trkpt lat="46.71778" lon="-2.3485">
        <ele>12.5</ele>
        <time>2018-09-16T09:37:48.000Z</time>
      </trkpt>
      <trkpt lat="46.71777" lon="-2.3485">
        <ele>12.5</ele>
        <time>2018-09-16T09:37:49.000Z</time>
      </trkpt>
      <trkpt lat="46.71776" lon="-2.3485">
        <ele>12.5</ele>
        <time>2018-09-16T09:37:50.000Z</time>
      </trkpt>
      <trkpt lat="46.71775" lon="-2.34849">
        <ele>12.5</ele>
        <time>2018-09-16T09:37:51.000Z</time>
      </trkpt>
      <trkpt lat="46.71773" lon="-2.34849">
        <ele>12.5</ele>
        <time>2018-09-16T09:37:52.000Z</time>
      </trkpt>
      <trkpt lat="46.71772" lon="-2.34848">
        <ele>12.6</ele>
        <time>2018-09-16T09:37:53.000Z</time>
      </trkpt>
      <trkpt lat="46.71771" lon="-2.34848">
        <ele>12.6</ele>
        <time>2018-09-16T09:37:54.000Z</time>
      </trkpt>
      <trkpt lat="46.7177" lon="-2.34848">
        <ele>12.6</ele>
        <time>2018-09-16T09:37:55.000Z</time>
      </trkpt>
      <trkpt lat="46.71769" lon="-2.34847">
        <ele>12.6</ele>
        <time>2018-09-16T09:37:56.000Z</time>
      </trkpt>
      <trkpt lat="46.71767" lon="-2.34847">
        <ele>12.6</ele>
        <time>2018-09-16T09:37:57.000Z</time>
      </trkpt>
      <trkpt lat="46.71766" lon="-2.34847">
        <ele>12.6</ele>
        <time>2018-09-16T09:37:58.000Z</time>
      </trkpt>
      <trkpt lat="46.71765" lon="-2.34847">
        <ele>12.7</ele>
        <time>2018-09-16T09:37:59.000Z</time>
      </trkpt>
      <trkpt lat="46.71764" lon="-2.34846">
        <ele>12.7</ele>
        <time>2018-09-16T09:38:00.000Z</time>
      </trkpt>
      <trkpt lat="46.71763" lon="-2.34846">
        <ele>12.7</ele>
        <time>2018-09-16T09:38:01.000Z</time>
      </trkpt>
      <trkpt lat="46.71761" lon="-2.34846">
        <ele>12.7</ele>
        <time>2018-09-16T09:38:02.000Z</time>
      </trkpt>
      <trkpt lat="46.7176" lon="-2.34845">
        <ele>12.7</ele>
        <time>2018-09-16T09:38:03.000Z</time>
      </trkpt>
      <trkpt lat="46.71759" lon="-2.34845">
        <ele>12.8</ele>
        <time>2018-09-16T09:38:04.000Z</time>
      </trkpt>
      <trkpt lat="46.71758" lon="-2.34844">
        <ele>12.8</ele>
        <time>2018-09-16T09:38:05.000Z</time>
      </trkpt>
      <trkpt lat="46.71757" lon="-2.34844">
        <ele>12.8</ele>
        <time>2018-09-16T09:38:06.000Z</time>
      </trkpt>
      <trkpt lat="46.71756" lon="-2.34844">
        <ele>12.8</ele>
        <time>2018-09-16T09:38:07.000Z</time>
      </trkpt>
      <trkpt lat="46.71755" lon="-2.34843">
        <ele>12.8</ele>
        <time>2018-09-16T09:38:08.000Z</time>
      </trkpt>
      <trkpt lat="46.71754" lon="-2.34843">
        <ele>12.8</ele>
        <time>2018-09-16T09:38:09.000Z</time>
      </trkpt>
      <trkpt lat="46.71753" lon="-2.34842">
        <ele>12.9</ele>
        <time>2018-09-16T09:38:10.000Z</time>
      </trkpt>
      <trkpt lat="46.71752" lon="-2.34842">
        <ele>12.9</ele>
        <time>2018-09-16T09:38:11.000Z</time>
      </trkpt>
      <trkpt lat="46.71751" lon="-2.34841">
        <ele>12.9</ele>
        <time>2018-09-16T09:38:12.000Z</time>
      </trkpt>
      <trkpt lat="46.7175" lon="-2.34841">
        <ele>12.9</ele>
        <time>2018-09-16T09:38:13.000Z</time>
      </trkpt>
      <trkpt lat="46.71748" lon="-2.3484">
        <ele>12.9</ele>
        <time>2018-09-16T09:38:14.000Z</time>
      </trkpt>
      <trkpt lat="46.71747" lon="-2.3484">
        <ele>13</ele>
        <time>2018-09-16T09:38:15.000Z</time>
      </trkpt>
      <trkpt lat="46.71746" lon="-2.34839">
        <ele>13</ele>
        <time>2018-09-16T09:38:16.000Z</time>
      </trkpt>
      <trkpt lat="46.71745" lon="-2.34839">
        <ele>13</ele>
        <time>2018-09-16T09:38:17.000Z</time>
      </trkpt>
      <trkpt lat="46.71744" lon="-2.34839">
        <ele>13</ele>
        <time>2018-09-16T09:38:18.000Z</time>
      </trkpt>
      <trkpt lat="46.71743" lon="-2.34838">
        <ele>13</ele>
        <time>2018-09-16T09:38:19.000Z</time>
      </trkpt>
      <trkpt lat="46.71742" lon="-2.34838">
        <ele>13</ele>
        <time>2018-09-16T09:38:20.000Z</time>
      </trkpt>
      <trkpt lat="46.71741" lon="-2.34838">
        <ele>13.1</ele>
        <time>2018-09-16T09:38:21.000Z</time>
      </trkpt>
      <trkpt lat="46.7174" lon="-2.34837">
        <ele>13.1</ele>
        <time>2018-09-16T09:38:22.000Z</time>
      </trkpt>
      <trkpt lat="46.71739" lon="-2.34837">
        <ele>13.1</ele>
        <time>2018-09-16T09:38:23.000Z</time>
      </trkpt>
      <trkpt lat="46.71738" lon="-2.34837">
        <ele>13.1</ele>
        <time>2018-09-16T09:38:24.000Z</time>
      </trkpt>
      <trkpt lat="46.71737" lon="-2.34836">
        <ele>13.1</ele>
        <time>2018-09-16T09:38:25.000Z</time>
      </trkpt>
      <trkpt lat="46.71736" lon="-2.34836">
        <ele>13.1</ele>
        <time>2018-09-16T09:38:26.000Z</time>
      </trkpt>
      <trkpt lat="46.71735" lon="-2.34836">
        <ele>13.2</ele>
        <time>2018-09-16T09:38:27.000Z</time>
      </trkpt>
      <trkpt lat="46.71734" lon="-2.34835">
        <ele>13.2</ele>
        <time>2018-09-16T09:38:28.000Z</time>
      </trkpt>
      <trkpt lat="46.71733" lon="-2.34835">
        <ele>13.2</ele>
        <time>2018-09-16T09:38:29.000Z</time>
      </trkpt>
      <trkpt lat="46.71732" lon="-2.34834">
        <ele>13.2</ele>
        <time>2018-09-16T09:38:30.000Z</time>
      </trkpt>
      <trkpt lat="46.71731" lon="-2.34834">
        <ele>13.2</ele>
        <time>2018-09-16T09:38:31.000Z</time>
      </trkpt>
      <trkpt lat="46.7173" lon="-2.34833">
        <ele>13.2</ele>
        <time>2018-09-16T09:38:32.000Z</time>
      </trkpt>
      <trkpt lat="46.71729" lon="-2.34832">
        <ele>13.3</ele>
        <time>2018-09-16T09:38:33.000Z</time>
      </trkpt>
      <trkpt lat="46.71728" lon="-2.34832">
        <ele>13.3</ele>
        <time>2018-09-16T09:38:34.000Z</time>
      </trkpt>
      <trkpt lat="46.71727" lon="-2.34831">
        <ele>13.3</ele>
        <time>2018-09-16T09:38:35.000Z</time>
      </trkpt>
      <trkpt lat="46.71726" lon="-2.34831">
        <ele>13.3</ele>
        <time>2018-09-16T09:38:36.000Z</time>
      </trkpt>
      <trkpt lat="46.71725" lon="-2.3483">
        <ele>13.3</ele>
        <time>2018-09-16T09:38:37.000Z</time>
      </trkpt>
      <trkpt lat="46.71724" lon="-2.3483">
        <ele>13.3</ele>
        <time>2018-09-16T09:38:38.000Z</time>
      </trkpt>
      <trkpt lat="46.71723" lon="-2.34829">
        <ele>13.3</ele>
        <time>2018-09-16T09:38:39.000Z</time>
      </trkpt>
      <trkpt lat="46.71721" lon="-2.34829">
        <ele>13.3</ele>
        <time>2018-09-16T09:38:40.000Z</time>
      </trkpt>
      <trkpt lat="46.7172" lon="-2.34828">
        <ele>13.4</ele>
        <time>2018-09-16T09:38:41.000Z</time>
      </trkpt>
      <trkpt lat="46.71719" lon="-2.34828">
        <ele>13.4</ele>
        <time>2018-09-16T09:38:42.000Z</time>
      </trkpt>
      <trkpt lat="46.71718" lon="-2.34827">
        <ele>13.4</ele>
        <time>2018-09-16T09:38:43.000Z</time>
      </trkpt>
      <trkpt lat="46.71717" lon="-2.34827">
        <ele>13.4</ele>
        <time>2018-09-16T09:38:44.000Z</time>
      </trkpt>
      <trkpt lat="46.71716" lon="-2.34827">
        <ele>13.4</ele>
        <time>2018-09-16T09:38:45.000Z</time>
      </trkpt>
      <trkpt lat="46.71715" lon="-2.34826">
        <ele>13.4</ele>
        <time>2018-09-16T09:38:46.000Z</time>
      </trkpt>
      <trkpt lat="46.71714" lon="-2.34826">
        <ele>13.4</ele>
        <time>2018-09-16T09:38:47.000Z</time>
      </trkpt>
      <trkpt lat="46.71713" lon="-2.34825">
        <ele>13.4</ele>
        <time>2018-09-16T09:38:48.000Z</time>
      </trkpt>
      <trkpt lat="46.71712" lon="-2.34825">
        <ele>13.5</ele>
        <time>2018-09-16T09:38:49.000Z</time>
      </trkpt>
      <trkpt lat="46.71711" lon="-2.34825">
        <ele>13.5</ele>
        <time>2018-09-16T09:38:50.000Z</time>
      </trkpt>
      <trkpt lat="46.7171" lon="-2.34824">
        <ele>13.5</ele>
        <time>2018-09-16T09:38:51.000Z</time>
      </trkpt>
      <trkpt lat="46.71709" lon="-2.34824">
        <ele>13.5</ele>
        <time>2018-09-16T09:38:52.000Z</time>
      </trkpt>
      <trkpt lat="46.71708" lon="-2.34824">
        <ele>13.5</ele>
        <time>2018-09-16T09:38:53.000Z</time>
      </trkpt>
      <trkpt lat="46.71707" lon="-2.34823">
        <ele>13.5</ele>
        <time>2018-09-16T09:38:54.000Z</time>
      </trkpt>
      <trkpt lat="46.71706" lon="-2.34823">
        <ele>13.5</ele>
        <time>2018-09-16T09:38:55.000Z</time>
      </trkpt>
      <trkpt lat="46.71705" lon="-2.34823">
        <ele>13.5</ele>
        <time>2018-09-16T09:38:56.000Z</time>
      </trkpt>
      <trkpt lat="46.71704" lon="-2.34823">
        <ele>13.6</ele>
        <time>2018-09-16T09:38:57.000Z</time>
      </trkpt>
      <trkpt lat="46.71703" lon="-2.34823">
        <ele>13.6</ele>
        <time>2018-09-16T09:38:58.000Z</time>
      </trkpt>
      <trkpt lat="46.71702" lon="-2.34822">
        <ele>13.6</ele>
        <time>2018-09-16T09:38:59.000Z</time>
      </trkpt>
      <trkpt lat="46.71701" lon="-2.34822">
        <ele>13.6</ele>
        <time>2018-09-16T09:39:00.000Z</time>
      </trkpt>
      <trkpt lat="46.717" lon="-2.34822">
        <ele>13.6</ele>
        <time>2018-09-16T09:39:01.000Z</time>
      </trkpt>
      <trkpt lat="46.71699" lon="-2.34822">
        <ele>13.6</ele>
        <time>2018-09-16T09:39:02.000Z</time>
      </trkpt>
      <trkpt lat="46.71698" lon="-2.34822">
        <ele>13.6</ele>
        <time>2018-09-16T09:39:03.000Z</time>
      </trkpt>
      <trkpt lat="46.71697" lon="-2.34822">
        <ele>13.6</ele>
        <time>2018-09-16T09:39:04.000Z</time>
      </trkpt>
      <trkpt lat="46.71696" lon="-2.34822">
        <ele>13.7</ele>
        <time>2018-09-16T09:39:05.000Z</time>
      </trkpt>
      <trkpt lat="46.71695" lon="-2.34822">
        <ele>13.7</ele>
        <time>2018-09-16T09:39:06.000Z</time>
      </trkpt>
      <trkpt lat="46.71694" lon="-2.34822">
        <ele>13.7</ele>
        <time>2018-09-16T09:39:07.000Z</time>
      </trkpt>
      <trkpt lat="46.71693" lon="-2.34822">
        <ele>13.7</ele>
        <time>2018-09-16T09:39:08.000Z</time>
      </trkpt>
      <trkpt lat="46.71692" lon="-2.34822">
        <ele>13.7</ele>
        <time>2018-09-16T09:39:09.000Z</time>
      </trkpt>
      <trkpt lat="46.71691" lon="-2.34822">
        <ele>13.7</ele>
        <time>2018-09-16T09:39:10.000Z</time>
      </trkpt>
      <trkpt lat="46.71689" lon="-2.34821">
        <ele>13.7</ele>
        <time>2018-09-16T09:39:11.000Z</time>
      </trkpt>
      <trkpt lat="46.71688" lon="-2.34821">
        <ele>13.7</ele>
        <time>2018-09-16T09:39:12.000Z</time>
      </trkpt>
      <trkpt lat="46.71687" lon="-2.34821">
        <ele>13.8</ele>
        <time>2018-09-16T09:39:13.000Z</time>
      </trkpt>
      <trkpt lat="46.71686" lon="-2.34821">
        <ele>13.8</ele>
        <time>2018-09-16T09:39:14.000Z</time>
      </trkpt>
      <trkpt lat="46.71684" lon="-2.34821">
        <ele>13.8</ele>
        <time>2018-09-16T09:39:15.000Z</time>
      </trkpt>
      <trkpt lat="46.71683" lon="-2.34821">
        <ele>13.8</ele>
        <time>2018-09-16T09:39:16.000Z</time>
      </trkpt>
      <trkpt lat="46.71682" lon="-2.34821">
        <ele>13.8</ele>
        <time>2018-09-16T09:39:17.000Z</time>
      </trkpt>
      <trkpt lat="46.7168" lon="-2.3482">
        <ele>13.8</ele>
        <time>2018-09-16T09:39:18.000Z</time>
      </trkpt>
      <trkpt lat="46.71679" lon="-2.3482">
        <ele>13.9</ele>
        <time>2018-09-16T09:39:19.000Z</time>
      </trkpt>
      <trkpt lat="46.71677" lon="-2.3482">
        <ele>13.9</ele>
        <time>2018-09-16T09:39:20.000Z</time>
      </trkpt>
      <trkpt lat="46.71676" lon="-2.3482">
        <ele>13.9</ele>
        <time>2018-09-16T09:39:21.000Z</time>
      </trkpt>
      <trkpt lat="46.71675" lon="-2.3482">
        <ele>13.9</ele>
        <time>2018-09-16T09:39:22.000Z</time>
      </trkpt>
      <trkpt lat="46.71674" lon="-2.3482">
        <ele>13.9</ele>
        <time>2018-09-16T09:39:23.000Z</time>
      </trkpt>
      <trkpt lat="46.71673" lon="-2.3482">
        <ele>13.9</ele>
        <time>2018-09-16T09:39:24.000Z</time>
      </trkpt>
      <trkpt lat="46.71672" lon="-2.3482">
        <ele>13.9</ele>
        <time>2018-09-16T09:39:25.000Z</time>
      </trkpt>
      <trkpt lat="46.71671" lon="-2.3482">
        <ele>13.9</ele>
        <time>2018-09-16T09:39:26.000Z</time>
      </trkpt>
      <trkpt lat="46.7167" lon="-2.3482">
        <ele>14</ele>
        <time>2018-09-16T09:39:27.000Z</time>
      </trkpt>
      <trkpt lat="46.7167" lon="-2.3482">
        <ele>14</ele>
        <time>2018-09-16T09:39:28.000Z</time>
      </trkpt>
      <trkpt lat="46.71669" lon="-2.3482">
        <ele>14</ele>
        <time>2018-09-16T09:39:29.000Z</time>
      </trkpt>
      <trkpt lat="46.71668" lon="-2.34819">
        <ele>14</ele>
        <time>2018-09-16T09:39:30.000Z</time>
      </trkpt>
      <trkpt lat="46.71667" lon="-2.34819">
        <ele>14</ele>
        <time>2018-09-16T09:39:31.000Z</time>
      </trkpt>
      <trkpt lat="46.71666" lon="-2.34819">
        <ele>14</ele>
        <time>2018-09-16T09:39:32.000Z</time>
      </trkpt>
      <trkpt lat="46.71665" lon="-2.34819">
        <ele>14.1</ele>
        <time>2018-09-16T09:39:33.000Z</time>
      </trkpt>
      <trkpt lat="46.71664" lon="-2.34818">
        <ele>14.1</ele>
        <time>2018-09-16T09:39:34.000Z</time>
      </trkpt>
      <trkpt lat="46.71663" lon="-2.34818">
        <ele>14.1</ele>
        <time>2018-09-16T09:39:35.000Z</time>
      </trkpt>
      <trkpt lat="46.71662" lon="-2.34818">
        <ele>14.2</ele>
        <time>2018-09-16T09:39:36.000Z</time>
      </trkpt>
      <trkpt lat="46.71661" lon="-2.34817">
        <ele>14.2</ele>
        <time>2018-09-16T09:39:37.000Z</time>
      </trkpt>
      <trkpt lat="46.7166" lon="-2.34817">
        <ele>14.2</ele>
        <time>2018-09-16T09:39:38.000Z</time>
      </trkpt>
      <trkpt lat="46.71659" lon="-2.34817">
        <ele>14.3</ele>
        <time>2018-09-16T09:39:39.000Z</time>
      </trkpt>
      <trkpt lat="46.71658" lon="-2.34817">
        <ele>14.3</ele>
        <time>2018-09-16T09:39:40.000Z</time>
      </trkpt>
      <trkpt lat="46.71657" lon="-2.34817">
        <ele>14.3</ele>
        <time>2018-09-16T09:39:41.000Z</time>
      </trkpt>
      <trkpt lat="46.71656" lon="-2.34817">
        <ele>14.4</ele>
        <time>2018-09-16T09:39:42.000Z</time>
      </trkpt>
      <trkpt lat="46.71655" lon="-2.34817">
        <ele>14.4</ele>
        <time>2018-09-16T09:39:43.000Z</time>
      </trkpt>
      <trkpt lat="46.71654" lon="-2.34817">
        <ele>14.4</ele>
        <time>2018-09-16T09:39:44.000Z</time>
      </trkpt>
      <trkpt lat="46.71653" lon="-2.34818">
        <ele>14.5</ele>
        <time>2018-09-16T09:39:45.000Z</time>
      </trkpt>
      <trkpt lat="46.71652" lon="-2.34818">
        <ele>14.5</ele>
        <time>2018-09-16T09:39:46.000Z</time>
      </trkpt>
      <trkpt lat="46.71651" lon="-2.34818">
        <ele>14.5</ele>
        <time>2018-09-16T09:39:47.000Z</time>
      </trkpt>
      <trkpt lat="46.71649" lon="-2.34817">
        <ele>14.6</ele>
        <time>2018-09-16T09:39:48.000Z</time>
      </trkpt>
      <trkpt lat="46.71648" lon="-2.34817">
        <ele>14.6</ele>
        <time>2018-09-16T09:39:49.000Z</time>
      </trkpt>
      <trkpt lat="46.71647" lon="-2.34817">
        <ele>14.7</ele>
        <time>2018-09-16T09:39:50.000Z</time>
      </trkpt>
      <trkpt lat="46.71646" lon="-2.34817">
        <ele>14.7</ele>
        <time>2018-09-16T09:39:51.000Z</time>
      </trkpt>
      <trkpt lat="46.71645" lon="-2.34817">
        <ele>14.7</ele>
        <time>2018-09-16T09:39:52.000Z</time>
      </trkpt>
      <trkpt lat="46.71644" lon="-2.34817">
        <ele>14.8</ele>
        <time>2018-09-16T09:39:53.000Z</time>
      </trkpt>
      <trkpt lat="46.71643" lon="-2.34818">
        <ele>14.8</ele>
        <time>2018-09-16T09:39:54.000Z</time>
      </trkpt>
      <trkpt lat="46.71642" lon="-2.34818">
        <ele>14.8</ele>
        <time>2018-09-16T09:39:55.000Z</time>
      </trkpt>
      <trkpt lat="46.71641" lon="-2.34818">
        <ele>14.9</ele>
        <time>2018-09-16T09:39:56.000Z</time>
      </trkpt>
      <trkpt lat="46.7164" lon="-2.34818">
        <ele>14.9</ele>
        <time>2018-09-16T09:39:57.000Z</time>
      </trkpt>
      <trkpt lat="46.71639" lon="-2.34819">
        <ele>14.9</ele>
        <time>2018-09-16T09:39:58.000Z</time>
      </trkpt>
      <trkpt lat="46.71638" lon="-2.34819">
        <ele>15</ele>
        <time>2018-09-16T09:39:59.000Z</time>
      </trkpt>
      <trkpt lat="46.71637" lon="-2.34819">
        <ele>15</ele>
        <time>2018-09-16T09:40:00.000Z</time>
      </trkpt>
      <trkpt lat="46.71635" lon="-2.34819">
        <ele>15.1</ele>
        <time>2018-09-16T09:40:01.000Z</time>
      </trkpt>
      <trkpt lat="46.71634" lon="-2.34819">
        <ele>15.1</ele>
        <time>2018-09-16T09:40:02.000Z</time>
      </trkpt>
      <trkpt lat="46.71633" lon="-2.34818">
        <ele>15.1</ele>
        <time>2018-09-16T09:40:03.000Z</time>
      </trkpt>
      <trkpt lat="46.71632" lon="-2.34818">
        <ele>15.2</ele>
        <time>2018-09-16T09:40:04.000Z</time>
      </trkpt>
      <trkpt lat="46.71631" lon="-2.34818">
        <ele>15.2</ele>
        <time>2018-09-16T09:40:05.000Z</time>
      </trkpt>
      <trkpt lat="46.71629" lon="-2.34817">
        <ele>15.3</ele>
        <time>2018-09-16T09:40:06.000Z</time>
      </trkpt>
      <trkpt lat="46.71628" lon="-2.34817">
        <ele>15.3</ele>
        <time>2018-09-16T09:40:07.000Z</time>
      </trkpt>
      <trkpt lat="46.71627" lon="-2.34817">
        <ele>15.3</ele>
        <time>2018-09-16T09:40:08.000Z</time>
      </trkpt>
      <trkpt lat="46.71626" lon="-2.34816">
        <ele>15.4</ele>
        <time>2018-09-16T09:40:09.000Z</time>
      </trkpt>
      <trkpt lat="46.71625" lon="-2.34816">
        <ele>15.4</ele>
        <time>2018-09-16T09:40:10.000Z</time>
      </trkpt>
      <trkpt lat="46.71624" lon="-2.34816">
        <ele>15.4</ele>
        <time>2018-09-16T09:40:11.000Z</time>
      </trkpt>
      <trkpt lat="46.71623" lon="-2.34816">
        <ele>15.5</ele>
        <time>2018-09-16T09:40:12.000Z</time>
      </trkpt>
      <trkpt lat="46.71622" lon="-2.34816">
        <ele>15.5</ele>
        <time>2018-09-16T09:40:13.000Z</time>
      </trkpt>
      <trkpt lat="46.71621" lon="-2.34816">
        <ele>15.5</ele>
        <time>2018-09-16T09:40:14.000Z</time>
      </trkpt>
      <trkpt lat="46.7162" lon="-2.34816">
        <ele>15.6</ele>
        <time>2018-09-16T09:40:15.000Z</time>
      </trkpt>
      <trkpt lat="46.71619" lon="-2.34816">
        <ele>15.6</ele>
        <time>2018-09-16T09:40:16.000Z</time>
      </trkpt>
      <trkpt lat="46.71617" lon="-2.34816">
        <ele>15.7</ele>
        <time>2018-09-16T09:40:17.000Z</time>
      </trkpt>
      <trkpt lat="46.71616" lon="-2.34816">
        <ele>15.7</ele>
        <time>2018-09-16T09:40:18.000Z</time>
      </trkpt>
      <trkpt lat="46.71615" lon="-2.34816">
        <ele>15.7</ele>
        <time>2018-09-16T09:40:19.000Z</time>
      </trkpt>
      <trkpt lat="46.71614" lon="-2.34816">
        <ele>15.8</ele>
        <time>2018-09-16T09:40:20.000Z</time>
      </trkpt>
      <trkpt lat="46.71613" lon="-2.34815">
        <ele>15.8</ele>
        <time>2018-09-16T09:40:21.000Z</time>
      </trkpt>
      <trkpt lat="46.71611" lon="-2.34815">
        <ele>15.8</ele>
        <time>2018-09-16T09:40:22.000Z</time>
      </trkpt>
      <trkpt lat="46.7161" lon="-2.34815">
        <ele>15.9</ele>
        <time>2018-09-16T09:40:23.000Z</time>
      </trkpt>
      <trkpt lat="46.71609" lon="-2.34815">
        <ele>15.9</ele>
        <time>2018-09-16T09:40:24.000Z</time>
      </trkpt>
      <trkpt lat="46.71608" lon="-2.34814">
        <ele>16</ele>
        <time>2018-09-16T09:40:25.000Z</time>
      </trkpt>
      <trkpt lat="46.71607" lon="-2.34814">
        <ele>16</ele>
        <time>2018-09-16T09:40:26.000Z</time>
      </trkpt>
      <trkpt lat="46.71606" lon="-2.34814">
        <ele>16</ele>
        <time>2018-09-16T09:40:27.000Z</time>
      </trkpt>
      <trkpt lat="46.71605" lon="-2.34813">
        <ele>16.1</ele>
        <time>2018-09-16T09:40:28.000Z</time>
      </trkpt>
      <trkpt lat="46.71604" lon="-2.34813">
        <ele>16.1</ele>
        <time>2018-09-16T09:40:29.000Z</time>
      </trkpt>
      <trkpt lat="46.71602" lon="-2.34813">
        <ele>16.1</ele>
        <time>2018-09-16T09:40:30.000Z</time>
      </trkpt>
      <trkpt lat="46.71601" lon="-2.34812">
        <ele>16.2</ele>
        <time>2018-09-16T09:40:31.000Z</time>
      </trkpt>
      <trkpt lat="46.716" lon="-2.34812">
        <ele>16.2</ele>
        <time>2018-09-16T09:40:32.000Z</time>
      </trkpt>
      <trkpt lat="46.71599" lon="-2.34812">
        <ele>16.2</ele>
        <time>2018-09-16T09:40:33.000Z</time>
      </trkpt>
      <trkpt lat="46.71598" lon="-2.34811">
        <ele>16.3</ele>
        <time>2018-09-16T09:40:34.000Z</time>
      </trkpt>
      <trkpt lat="46.71597" lon="-2.34811">
        <ele>16.3</ele>
        <time>2018-09-16T09:40:35.000Z</time>
      </trkpt>
      <trkpt lat="46.71596" lon="-2.34811">
        <ele>16.3</ele>
        <time>2018-09-16T09:40:36.000Z</time>
      </trkpt>
      <trkpt lat="46.71595" lon="-2.34811">
        <ele>16.4</ele>
        <time>2018-09-16T09:40:37.000Z</time>
      </trkpt>
      <trkpt lat="46.71594" lon="-2.34811">
        <ele>16.4</ele>
        <time>2018-09-16T09:40:38.000Z</time>
      </trkpt>
      <trkpt lat="46.71592" lon="-2.34811">
        <ele>16.4</ele>
        <time>2018-09-16T09:40:39.000Z</time>
      </trkpt>
      <trkpt lat="46.71591" lon="-2.34811">
        <ele>16.5</ele>
        <time>2018-09-16T09:40:40.000Z</time>
      </trkpt>
      <trkpt lat="46.7159" lon="-2.34811">
        <ele>16.5</ele>
        <time>2018-09-16T09:40:41.000Z</time>
      </trkpt>
      <trkpt lat="46.71589" lon="-2.3481">
        <ele>16.5</ele>
        <time>2018-09-16T09:40:42.000Z</time>
      </trkpt>
      <trkpt lat="46.71588" lon="-2.3481">
        <ele>16.6</ele>
        <time>2018-09-16T09:40:43.000Z</time>
      </trkpt>
      <trkpt lat="46.71586" lon="-2.3481">
        <ele>16.6</ele>
        <time>2018-09-16T09:40:44.000Z</time>
      </trkpt>
      <trkpt lat="46.71585" lon="-2.34811">
        <ele>16.7</ele>
        <time>2018-09-16T09:40:45.000Z</time>
      </trkpt>
      <trkpt lat="46.71584" lon="-2.34811">
        <ele>16.7</ele>
        <time>2018-09-16T09:40:46.000Z</time>
      </trkpt>
      <trkpt lat="46.71583" lon="-2.34811">
        <ele>16.7</ele>
        <time>2018-09-16T09:40:47.000Z</time>
      </trkpt>
      <trkpt lat="46.71582" lon="-2.34811">
        <ele>16.8</ele>
        <time>2018-09-16T09:40:48.000Z</time>
      </trkpt>
      <trkpt lat="46.7158" lon="-2.34811">
        <ele>16.8</ele>
        <time>2018-09-16T09:40:49.000Z</time>
      </trkpt>
      <trkpt lat="46.71579" lon="-2.34811">
        <ele>16.8</ele>
        <time>2018-09-16T09:40:50.000Z</time>
      </trkpt>
      <trkpt lat="46.71578" lon="-2.34811">
        <ele>16.8</ele>
        <time>2018-09-16T09:40:51.000Z</time>
      </trkpt>
      <trkpt lat="46.71577" lon="-2.34811">
        <ele>16.9</ele>
        <time>2018-09-16T09:40:52.000Z</time>
      </trkpt>
      <trkpt lat="46.71576" lon="-2.34811">
        <ele>16.9</ele>
        <time>2018-09-16T09:40:53.000Z</time>
      </trkpt>
      <trkpt lat="46.71574" lon="-2.34811">
        <ele>16.9</ele>
        <time>2018-09-16T09:40:54.000Z</time>
      </trkpt>
      <trkpt lat="46.71573" lon="-2.34811">
        <ele>16.9</ele>
        <time>2018-09-16T09:40:55.000Z</time>
      </trkpt>
      <trkpt lat="46.71572" lon="-2.3481">
        <ele>17</ele>
        <time>2018-09-16T09:40:56.000Z</time>
      </trkpt>
      <trkpt lat="46.71571" lon="-2.3481">
        <ele>17</ele>
        <time>2018-09-16T09:40:57.000Z</time>
      </trkpt>
      <trkpt lat="46.7157" lon="-2.3481">
        <ele>17</ele>
        <time>2018-09-16T09:40:58.000Z</time>
      </trkpt>
      <trkpt lat="46.71569" lon="-2.3481">
        <ele>17</ele>
        <time>2018-09-16T09:40:59.000Z</time>
      </trkpt>
      <trkpt lat="46.71568" lon="-2.3481">
        <ele>17</ele>
        <time>2018-09-16T09:41:00.000Z</time>
      </trkpt>
      <trkpt lat="46.71567" lon="-2.3481">
        <ele>17.1</ele>
        <time>2018-09-16T09:41:01.000Z</time>
      </trkpt>
      <trkpt lat="46.71566" lon="-2.3481">
        <ele>17.1</ele>
        <time>2018-09-16T09:41:02.000Z</time>
      </trkpt>
      <trkpt lat="46.71564" lon="-2.3481">
        <ele>17.1</ele>
        <time>2018-09-16T09:41:03.000Z</time>
      </trkpt>
      <trkpt lat="46.71563" lon="-2.3481">
        <ele>17.1</ele>
        <time>2018-09-16T09:41:04.000Z</time>
      </trkpt>
      <trkpt lat="46.71562" lon="-2.34809">
        <ele>17.1</ele>
        <time>2018-09-16T09:41:05.000Z</time>
      </trkpt>
      <trkpt lat="46.71561" lon="-2.34809">
        <ele>17.2</ele>
        <time>2018-09-16T09:41:06.000Z</time>
      </trkpt>
      <trkpt lat="46.7156" lon="-2.34809">
        <ele>17.2</ele>
        <time>2018-09-16T09:41:07.000Z</time>
      </trkpt>
      <trkpt lat="46.71559" lon="-2.34809">
        <ele>17.2</ele>
        <time>2018-09-16T09:41:08.000Z</time>
      </trkpt>
      <trkpt lat="46.71558" lon="-2.34809">
        <ele>17.2</ele>
        <time>2018-09-16T09:41:09.000Z</time>
      </trkpt>
      <trkpt lat="46.71557" lon="-2.34809">
        <ele>17.3</ele>
        <time>2018-09-16T09:41:10.000Z</time>
      </trkpt>
      <trkpt lat="46.71555" lon="-2.34809">
        <ele>17.3</ele>
        <time>2018-09-16T09:41:11.000Z</time>
      </trkpt>
      <trkpt lat="46.71554" lon="-2.34809">
        <ele>17.3</ele>
        <time>2018-09-16T09:41:12.000Z</time>
      </trkpt>
      <trkpt lat="46.71553" lon="-2.34809">
        <ele>17.3</ele>
        <time>2018-09-16T09:41:13.000Z</time>
      </trkpt>
      <trkpt lat="46.71552" lon="-2.34809">
        <ele>17.3</ele>
        <time>2018-09-16T09:41:14.000Z</time>
      </trkpt>
      <trkpt lat="46.71551" lon="-2.34808">
        <ele>17.4</ele>
        <time>2018-09-16T09:41:15.000Z</time>
      </trkpt>
      <trkpt lat="46.7155" lon="-2.34808">
        <ele>17.4</ele>
        <time>2018-09-16T09:41:16.000Z</time>
      </trkpt>
      <trkpt lat="46.71548" lon="-2.34808">
        <ele>17.4</ele>
        <time>2018-09-16T09:41:17.000Z</time>
      </trkpt>
      <trkpt lat="46.71547" lon="-2.34808">
        <ele>17.4</ele>
        <time>2018-09-16T09:41:18.000Z</time>
      </trkpt>
      <trkpt lat="46.71546" lon="-2.34808">
        <ele>17.5</ele>
        <time>2018-09-16T09:41:19.000Z</time>
      </trkpt>
      <trkpt lat="46.71545" lon="-2.34808">
        <ele>17.5</ele>
        <time>2018-09-16T09:41:20.000Z</time>
      </trkpt>
      <trkpt lat="46.71544" lon="-2.34807">
        <ele>17.5</ele>
        <time>2018-09-16T09:41:21.000Z</time>
      </trkpt>
      <trkpt lat="46.71542" lon="-2.34807">
        <ele>17.5</ele>
        <time>2018-09-16T09:41:22.000Z</time>
      </trkpt>
      <trkpt lat="46.71541" lon="-2.34807">
        <ele>17.5</ele>
        <time>2018-09-16T09:41:23.000Z</time>
      </trkpt>
      <trkpt lat="46.7154" lon="-2.34807">
        <ele>17.6</ele>
        <time>2018-09-16T09:41:24.000Z</time>
      </trkpt>
      <trkpt lat="46.71539" lon="-2.34806">
        <ele>17.6</ele>
        <time>2018-09-16T09:41:25.000Z</time>
      </trkpt>
      <trkpt lat="46.71538" lon="-2.34806">
        <ele>17.6</ele>
        <time>2018-09-16T09:41:26.000Z</time>
      </trkpt>
      <trkpt lat="46.71537" lon="-2.34806">
        <ele>17.6</ele>
        <time>2018-09-16T09:41:27.000Z</time>
      </trkpt>
      <trkpt lat="46.71535" lon="-2.34805">
        <ele>17.6</ele>
        <time>2018-09-16T09:41:28.000Z</time>
      </trkpt>
      <trkpt lat="46.71534" lon="-2.34805">
        <ele>17.6</ele>
        <time>2018-09-16T09:41:29.000Z</time>
      </trkpt>
      <trkpt lat="46.71533" lon="-2.34804">
        <ele>17.6</ele>
        <time>2018-09-16T09:41:30.000Z</time>
      </trkpt>
      <trkpt lat="46.71532" lon="-2.34804">
        <ele>17.7</ele>
        <time>2018-09-16T09:41:31.000Z</time>
      </trkpt>
      <trkpt lat="46.71531" lon="-2.34803">
        <ele>17.7</ele>
        <time>2018-09-16T09:41:32.000Z</time>
      </trkpt>
      <trkpt lat="46.7153" lon="-2.34803">
        <ele>17.7</ele>
        <time>2018-09-16T09:41:33.000Z</time>
      </trkpt>
      <trkpt lat="46.71529" lon="-2.34802">
        <ele>17.7</ele>
        <time>2018-09-16T09:41:34.000Z</time>
      </trkpt>
      <trkpt lat="46.71528" lon="-2.34802">
        <ele>17.7</ele>
        <time>2018-09-16T09:41:35.000Z</time>
      </trkpt>
      <trkpt lat="46.71526" lon="-2.34801">
        <ele>17.7</ele>
        <time>2018-09-16T09:41:36.000Z</time>
      </trkpt>
      <trkpt lat="46.71525" lon="-2.34801">
        <ele>17.7</ele>
        <time>2018-09-16T09:41:37.000Z</time>
      </trkpt>
      <trkpt lat="46.71524" lon="-2.348">
        <ele>17.7</ele>
        <time>2018-09-16T09:41:38.000Z</time>
      </trkpt>
      <trkpt lat="46.71523" lon="-2.348">
        <ele>17.8</ele>
        <time>2018-09-16T09:41:39.000Z</time>
      </trkpt>
      <trkpt lat="46.71522" lon="-2.34799">
        <ele>17.8</ele>
        <time>2018-09-16T09:41:40.000Z</time>
      </trkpt>
      <trkpt lat="46.71521" lon="-2.34798">
        <ele>17.8</ele>
        <time>2018-09-16T09:41:41.000Z</time>
      </trkpt>
      <trkpt lat="46.7152" lon="-2.34798">
        <ele>17.8</ele>
        <time>2018-09-16T09:41:42.000Z</time>
      </trkpt>
      <trkpt lat="46.71519" lon="-2.34797">
        <ele>17.8</ele>
        <time>2018-09-16T09:41:43.000Z</time>
      </trkpt>
      <trkpt lat="46.71517" lon="-2.34797">
        <ele>17.8</ele>
        <time>2018-09-16T09:41:44.000Z</time>
      </trkpt>
      <trkpt lat="46.71516" lon="-2.34796">
        <ele>17.8</ele>
        <time>2018-09-16T09:41:45.000Z</time>
      </trkpt>
      <trkpt lat="46.71515" lon="-2.34795">
        <ele>17.8</ele>
        <time>2018-09-16T09:41:46.000Z</time>
      </trkpt>
      <trkpt lat="46.71514" lon="-2.34795">
        <ele>17.8</ele>
        <time>2018-09-16T09:41:47.000Z</time>
      </trkpt>
      <trkpt lat="46.71513" lon="-2.34794">
        <ele>17.8</ele>
        <time>2018-09-16T09:41:48.000Z</time>
      </trkpt>
      <trkpt lat="46.71512" lon="-2.34794">
        <ele>17.8</ele>
        <time>2018-09-16T09:41:49.000Z</time>
      </trkpt>
      <trkpt lat="46.71511" lon="-2.34793">
        <ele>17.8</ele>
        <time>2018-09-16T09:41:50.000Z</time>
      </trkpt>
      <trkpt lat="46.7151" lon="-2.34793">
        <ele>17.8</ele>
        <time>2018-09-16T09:41:51.000Z</time>
      </trkpt>
      <trkpt lat="46.71509" lon="-2.34792">
        <ele>17.9</ele>
        <time>2018-09-16T09:41:52.000Z</time>
      </trkpt>
      <trkpt lat="46.71508" lon="-2.34792">
        <ele>17.9</ele>
        <time>2018-09-16T09:41:53.000Z</time>
      </trkpt>
      <trkpt lat="46.71507" lon="-2.34792">
        <ele>17.9</ele>
        <time>2018-09-16T09:41:54.000Z</time>
      </trkpt>
      <trkpt lat="46.71506" lon="-2.34791">
        <ele>17.9</ele>
        <time>2018-09-16T09:41:55.000Z</time>
      </trkpt>
      <trkpt lat="46.71505" lon="-2.34791">
        <ele>17.9</ele>
        <time>2018-09-16T09:41:56.000Z</time>
      </trkpt>
      <trkpt lat="46.71504" lon="-2.34791">
        <ele>17.9</ele>
        <time>2018-09-16T09:41:57.000Z</time>
      </trkpt>
      <trkpt lat="46.71503" lon="-2.34791">
        <ele>17.9</ele>
        <time>2018-09-16T09:41:58.000Z</time>
      </trkpt>
      <trkpt lat="46.71502" lon="-2.3479">
        <ele>17.9</ele>
        <time>2018-09-16T09:41:59.000Z</time>
      </trkpt>
      <trkpt lat="46.71501" lon="-2.3479">
        <ele>17.9</ele>
        <time>2018-09-16T09:42:00.000Z</time>
      </trkpt>
      <trkpt lat="46.715" lon="-2.3479">
        <ele>17.9</ele>
        <time>2018-09-16T09:42:01.000Z</time>
      </trkpt>
      <trkpt lat="46.71499" lon="-2.34789">
        <ele>18</ele>
        <time>2018-09-16T09:42:02.000Z</time>
      </trkpt>
      <trkpt lat="46.71498" lon="-2.34789">
        <ele>18</ele>
        <time>2018-09-16T09:42:03.000Z</time>
      </trkpt>
      <trkpt lat="46.71498" lon="-2.34788">
        <ele>18</ele>
        <time>2018-09-16T09:42:04.000Z</time>
      </trkpt>
      <trkpt lat="46.71497" lon="-2.34788">
        <ele>18</ele>
        <time>2018-09-16T09:42:05.000Z</time>
      </trkpt>
      <trkpt lat="46.71496" lon="-2.34787">
        <ele>18.1</ele>
        <time>2018-09-16T09:42:06.000Z</time>
      </trkpt>
      <trkpt lat="46.71495" lon="-2.34787">
        <ele>18.1</ele>
        <time>2018-09-16T09:42:07.000Z</time>
      </trkpt>
      <trkpt lat="46.71494" lon="-2.34786">
        <ele>18.1</ele>
        <time>2018-09-16T09:42:08.000Z</time>
      </trkpt>
      <trkpt lat="46.71493" lon="-2.34785">
        <ele>18.1</ele>
        <time>2018-09-16T09:42:09.000Z</time>
      </trkpt>
      <trkpt lat="46.71492" lon="-2.34785">
        <ele>18.1</ele>
        <time>2018-09-16T09:42:10.000Z</time>
      </trkpt>
      <trkpt lat="46.71491" lon="-2.34784">
        <ele>18.2</ele>
        <time>2018-09-16T09:42:11.000Z</time>
      </trkpt>
      <trkpt lat="46.71489" lon="-2.34783">
        <ele>18.2</ele>
        <time>2018-09-16T09:42:12.000Z</time>
      </trkpt>
      <trkpt lat="46.71488" lon="-2.34782">
        <ele>18.2</ele>
        <time>2018-09-16T09:42:13.000Z</time>
      </trkpt>
      <trkpt lat="46.71487" lon="-2.34782">
        <ele>18.2</ele>
        <time>2018-09-16T09:42:14.000Z</time>
      </trkpt>
      <trkpt lat="46.71486" lon="-2.34781">
        <ele>18.2</ele>
        <time>2018-09-16T09:42:15.000Z</time>
      </trkpt>
      <trkpt lat="46.71485" lon="-2.3478">
        <ele>18.3</ele>
        <time>2018-09-16T09:42:16.000Z</time>
      </trkpt>
      <trkpt lat="46.71484" lon="-2.34779">
        <ele>18.3</ele>
        <time>2018-09-16T09:42:17.000Z</time>
      </trkpt>
      <trkpt lat="46.71483" lon="-2.34778">
        <ele>18.3</ele>
        <time>2018-09-16T09:42:18.000Z</time>
      </trkpt>
      <trkpt lat="46.71482" lon="-2.34778">
        <ele>18.3</ele>
        <time>2018-09-16T09:42:19.000Z</time>
      </trkpt>
      <trkpt lat="46.71481" lon="-2.34777">
        <ele>18.3</ele>
        <time>2018-09-16T09:42:20.000Z</time>
      </trkpt>
      <trkpt lat="46.71479" lon="-2.34776">
        <ele>18.4</ele>
        <time>2018-09-16T09:42:21.000Z</time>
      </trkpt>
      <trkpt lat="46.71478" lon="-2.34775">
        <ele>18.4</ele>
        <time>2018-09-16T09:42:22.000Z</time>
      </trkpt>
      <trkpt lat="46.71477" lon="-2.34775">
        <ele>18.4</ele>
        <time>2018-09-16T09:42:23.000Z</time>
      </trkpt>
      <trkpt lat="46.71477" lon="-2.34774">
        <ele>18.4</ele>
        <time>2018-09-16T09:42:24.000Z</time>
      </trkpt>
      <trkpt lat="46.71476" lon="-2.34774">
        <ele>18.4</ele>
        <time>2018-09-16T09:42:25.000Z</time>
      </trkpt>
      <trkpt lat="46.71475" lon="-2.34773">
        <ele>18.5</ele>
        <time>2018-09-16T09:42:26.000Z</time>
      </trkpt>
      <trkpt lat="46.71474" lon="-2.34772">
        <ele>18.5</ele>
        <time>2018-09-16T09:42:27.000Z</time>
      </trkpt>
      <trkpt lat="46.71473" lon="-2.34772">
        <ele>18.5</ele>
        <time>2018-09-16T09:42:28.000Z</time>
      </trkpt>
      <trkpt lat="46.71472" lon="-2.34771">
        <ele>18.5</ele>
        <time>2018-09-16T09:42:29.000Z</time>
      </trkpt>
      <trkpt lat="46.71471" lon="-2.34771">
        <ele>18.6</ele>
        <time>2018-09-16T09:42:30.000Z</time>
      </trkpt>
      <trkpt lat="46.71469" lon="-2.3477">
        <ele>18.6</ele>
        <time>2018-09-16T09:42:31.000Z</time>
      </trkpt>
      <trkpt lat="46.71468" lon="-2.34769">
        <ele>18.6</ele>
        <time>2018-09-16T09:42:32.000Z</time>
      </trkpt>
      <trkpt lat="46.71467" lon="-2.34769">
        <ele>18.6</ele>
        <time>2018-09-16T09:42:33.000Z</time>
      </trkpt>
      <trkpt lat="46.71466" lon="-2.34768">
        <ele>18.7</ele>
        <time>2018-09-16T09:42:34.000Z</time>
      </trkpt>
      <trkpt lat="46.71465" lon="-2.34768">
        <ele>18.7</ele>
        <time>2018-09-16T09:42:35.000Z</time>
      </trkpt>
      <trkpt lat="46.71465" lon="-2.34768">
        <ele>18.7</ele>
        <time>2018-09-16T09:42:36.000Z</time>
      </trkpt>
      <trkpt lat="46.71465" lon="-2.34767">
        <ele>18.7</ele>
        <time>2018-09-16T09:42:37.000Z</time>
      </trkpt>
      <trkpt lat="46.71465" lon="-2.34767">
        <ele>18.7</ele>
        <time>2018-09-16T09:42:38.000Z</time>
      </trkpt>
      <trkpt lat="46.71465" lon="-2.34767">
        <ele>18.7</ele>
        <time>2018-09-16T09:42:39.000Z</time>
      </trkpt>
      <trkpt lat="46.71464" lon="-2.34766">
        <ele>18.7</ele>
        <time>2018-09-16T09:42:40.000Z</time>
      </trkpt>
      <trkpt lat="46.71463" lon="-2.34766">
        <ele>18.7</ele>
        <time>2018-09-16T09:42:41.000Z</time>
      </trkpt>
      <trkpt lat="46.71462" lon="-2.34765">
        <ele>18.7</ele>
        <time>2018-09-16T09:42:42.000Z</time>
      </trkpt>
      <trkpt lat="46.71461" lon="-2.34764">
        <ele>18.7</ele>
        <time>2018-09-16T09:42:43.000Z</time>
      </trkpt>
      <trkpt lat="46.7146" lon="-2.34763">
        <ele>18.8</ele>
        <time>2018-09-16T09:42:44.000Z</time>
      </trkpt>
      <trkpt lat="46.71459" lon="-2.34762">
        <ele>18.8</ele>
        <time>2018-09-16T09:42:45.000Z</time>
      </trkpt>
      <trkpt lat="46.71458" lon="-2.34761">
        <ele>18.8</ele>
        <time>2018-09-16T09:42:46.000Z</time>
      </trkpt>
      <trkpt lat="46.71456" lon="-2.34761">
        <ele>18.8</ele>
        <time>2018-09-16T09:42:47.000Z</time>
      </trkpt>
      <trkpt lat="46.71455" lon="-2.3476">
        <ele>18.9</ele>
        <time>2018-09-16T09:42:48.000Z</time>
      </trkpt>
      <trkpt lat="46.71454" lon="-2.34759">
        <ele>18.9</ele>
        <time>2018-09-16T09:42:49.000Z</time>
      </trkpt>
      <trkpt lat="46.71453" lon="-2.34758">
        <ele>18.9</ele>
        <time>2018-09-16T09:42:50.000Z</time>
      </trkpt>
      <trkpt lat="46.71451" lon="-2.34758">
        <ele>18.9</ele>
        <time>2018-09-16T09:42:51.000Z</time>
      </trkpt>
      <trkpt lat="46.7145" lon="-2.34757">
        <ele>19</ele>
        <time>2018-09-16T09:42:52.000Z</time>
      </trkpt>
      <trkpt lat="46.71449" lon="-2.34756">
        <ele>19</ele>
        <time>2018-09-16T09:42:53.000Z</time>
      </trkpt>
      <trkpt lat="46.71448" lon="-2.34756">
        <ele>19</ele>
        <time>2018-09-16T09:42:54.000Z</time>
      </trkpt>
      <trkpt lat="46.71447" lon="-2.34755">
        <ele>19</ele>
        <time>2018-09-16T09:42:55.000Z</time>
      </trkpt>
      <trkpt lat="46.71445" lon="-2.34754">
        <ele>19.1</ele>
        <time>2018-09-16T09:42:56.000Z</time>
      </trkpt>
      <trkpt lat="46.71444" lon="-2.34754">
        <ele>19.1</ele>
        <time>2018-09-16T09:42:57.000Z</time>
      </trkpt>
      <trkpt lat="46.71443" lon="-2.34753">
        <ele>19.1</ele>
        <time>2018-09-16T09:42:58.000Z</time>
      </trkpt>
      <trkpt lat="46.71442" lon="-2.34752">
        <ele>19.1</ele>
        <time>2018-09-16T09:42:59.000Z</time>
      </trkpt>
      <trkpt lat="46.71441" lon="-2.34752">
        <ele>19.2</ele>
        <time>2018-09-16T09:43:00.000Z</time>
      </trkpt>
      <trkpt lat="46.7144" lon="-2.34751">
        <ele>19.2</ele>
        <time>2018-09-16T09:43:01.000Z</time>
      </trkpt>
      <trkpt lat="46.71439" lon="-2.3475">
        <ele>19.2</ele>
        <time>2018-09-16T09:43:02.000Z</time>
      </trkpt>
      <trkpt lat="46.71438" lon="-2.3475">
        <ele>19.2</ele>
        <time>2018-09-16T09:43:03.000Z</time>
      </trkpt>
      <trkpt lat="46.71437" lon="-2.34749">
        <ele>19.3</ele>
        <time>2018-09-16T09:43:04.000Z</time>
      </trkpt>
      <trkpt lat="46.71436" lon="-2.34748">
        <ele>19.3</ele>
        <time>2018-09-16T09:43:05.000Z</time>
      </trkpt>
      <trkpt lat="46.71435" lon="-2.34748">
        <ele>19.3</ele>
        <time>2018-09-16T09:43:06.000Z</time>
      </trkpt>
      <trkpt lat="46.71434" lon="-2.34747">
        <ele>19.4</ele>
        <time>2018-09-16T09:43:07.000Z</time>
      </trkpt>
      <trkpt lat="46.71433" lon="-2.34746">
        <ele>19.4</ele>
        <time>2018-09-16T09:43:08.000Z</time>
      </trkpt>
      <trkpt lat="46.71432" lon="-2.34746">
        <ele>19.4</ele>
        <time>2018-09-16T09:43:09.000Z</time>
      </trkpt>
      <trkpt lat="46.71431" lon="-2.34745">
        <ele>19.5</ele>
        <time>2018-09-16T09:43:10.000Z</time>
      </trkpt>
      <trkpt lat="46.7143" lon="-2.34744">
        <ele>19.5</ele>
        <time>2018-09-16T09:43:11.000Z</time>
      </trkpt>
      <trkpt lat="46.71429" lon="-2.34744">
        <ele>19.5</ele>
        <time>2018-09-16T09:43:12.000Z</time>
      </trkpt>
      <trkpt lat="46.71428" lon="-2.34743">
        <ele>19.6</ele>
        <time>2018-09-16T09:43:13.000Z</time>
      </trkpt>
      <trkpt lat="46.71428" lon="-2.34742">
        <ele>19.6</ele>
        <time>2018-09-16T09:43:14.000Z</time>
      </trkpt>
      <trkpt lat="46.71427" lon="-2.34742">
        <ele>19.6</ele>
        <time>2018-09-16T09:43:15.000Z</time>
      </trkpt>
      <trkpt lat="46.71426" lon="-2.34741">
        <ele>19.7</ele>
        <time>2018-09-16T09:43:16.000Z</time>
      </trkpt>
      <trkpt lat="46.71425" lon="-2.34741">
        <ele>19.7</ele>
        <time>2018-09-16T09:43:17.000Z</time>
      </trkpt>
      <trkpt lat="46.71424" lon="-2.3474">
        <ele>19.7</ele>
        <time>2018-09-16T09:43:18.000Z</time>
      </trkpt>
      <trkpt lat="46.71423" lon="-2.34739">
        <ele>19.8</ele>
        <time>2018-09-16T09:43:19.000Z</time>
      </trkpt>
      <trkpt lat="46.71422" lon="-2.34739">
        <ele>19.8</ele>
        <time>2018-09-16T09:43:20.000Z</time>
      </trkpt>
      <trkpt lat="46.71421" lon="-2.34738">
        <ele>19.8</ele>
        <time>2018-09-16T09:43:21.000Z</time>
      </trkpt>
      <trkpt lat="46.7142" lon="-2.34737">
        <ele>19.9</ele>
        <time>2018-09-16T09:43:22.000Z</time>
      </trkpt>
      <trkpt lat="46.71419" lon="-2.34737">
        <ele>19.9</ele>
        <time>2018-09-16T09:43:23.000Z</time>
      </trkpt>
      <trkpt lat="46.71418" lon="-2.34736">
        <ele>19.9</ele>
        <time>2018-09-16T09:43:24.000Z</time>
      </trkpt>
      <trkpt lat="46.71417" lon="-2.34736">
        <ele>20</ele>
        <time>2018-09-16T09:43:25.000Z</time>
      </trkpt>
      <trkpt lat="46.71416" lon="-2.34735">
        <ele>20</ele>
        <time>2018-09-16T09:43:26.000Z</time>
      </trkpt>
      <trkpt lat="46.71415" lon="-2.34734">
        <ele>20.1</ele>
        <time>2018-09-16T09:43:27.000Z</time>
      </trkpt>
      <trkpt lat="46.71414" lon="-2.34734">
        <ele>20.1</ele>
        <time>2018-09-16T09:43:28.000Z</time>
      </trkpt>
      <trkpt lat="46.71413" lon="-2.34733">
        <ele>20.1</ele>
        <time>2018-09-16T09:43:29.000Z</time>
      </trkpt>
      <trkpt lat="46.71412" lon="-2.34732">
        <ele>20.2</ele>
        <time>2018-09-16T09:43:30.000Z</time>
      </trkpt>
      <trkpt lat="46.71411" lon="-2.34732">
        <ele>20.2</ele>
        <time>2018-09-16T09:43:31.000Z</time>
      </trkpt>
      <trkpt lat="46.71409" lon="-2.34731">
        <ele>20.2</ele>
        <time>2018-09-16T09:43:32.000Z</time>
      </trkpt>
      <trkpt lat="46.71408" lon="-2.3473">
        <ele>20.3</ele>
        <time>2018-09-16T09:43:33.000Z</time>
      </trkpt>
      <trkpt lat="46.71407" lon="-2.3473">
        <ele>20.3</ele>
        <time>2018-09-16T09:43:34.000Z</time>
      </trkpt>
      <trkpt lat="46.71406" lon="-2.34729">
        <ele>20.3</ele>
        <time>2018-09-16T09:43:35.000Z</time>
      </trkpt>
      <trkpt lat="46.71405" lon="-2.34728">
        <ele>20.4</ele>
        <time>2018-09-16T09:43:36.000Z</time>
      </trkpt>
      <trkpt lat="46.71404" lon="-2.34727">
        <ele>20.4</ele>
        <time>2018-09-16T09:43:37.000Z</time>
      </trkpt>
      <trkpt lat="46.71404" lon="-2.34727">
        <ele>20.4</ele>
        <time>2018-09-16T09:43:38.000Z</time>
      </trkpt>
      <trkpt lat="46.71403" lon="-2.34726">
        <ele>20.5</ele>
        <time>2018-09-16T09:43:39.000Z</time>
      </trkpt>
      <trkpt lat="46.71402" lon="-2.34725">
        <ele>20.5</ele>
        <time>2018-09-16T09:43:40.000Z</time>
      </trkpt>
      <trkpt lat="46.71401" lon="-2.34724">
        <ele>20.5</ele>
        <time>2018-09-16T09:43:41.000Z</time>
      </trkpt>
      <trkpt lat="46.714" lon="-2.34723">
        <ele>20.5</ele>
        <time>2018-09-16T09:43:42.000Z</time>
      </trkpt>
      <trkpt lat="46.714" lon="-2.34722">
        <ele>20.5</ele>
        <time>2018-09-16T09:43:43.000Z</time>
      </trkpt>
      <trkpt lat="46.71399" lon="-2.34721">
        <ele>20.6</ele>
        <time>2018-09-16T09:43:44.000Z</time>
      </trkpt>
      <trkpt lat="46.71398" lon="-2.3472">
        <ele>20.6</ele>
        <time>2018-09-16T09:43:45.000Z</time>
      </trkpt>
      <trkpt lat="46.71398" lon="-2.34719">
        <ele>20.6</ele>
        <time>2018-09-16T09:43:46.000Z</time>
      </trkpt>
      <trkpt lat="46.71397" lon="-2.34718">
        <ele>20.6</ele>
        <time>2018-09-16T09:43:47.000Z</time>
      </trkpt>
      <trkpt lat="46.71396" lon="-2.34717">
        <ele>20.6</ele>
        <time>2018-09-16T09:43:48.000Z</time>
      </trkpt>
      <trkpt lat="46.71395" lon="-2.34717">
        <ele>20.7</ele>
        <time>2018-09-16T09:43:49.000Z</time>
      </trkpt>
      <trkpt lat="46.71395" lon="-2.34716">
        <ele>20.7</ele>
        <time>2018-09-16T09:43:50.000Z</time>
      </trkpt>
      <trkpt lat="46.71394" lon="-2.34715">
        <ele>20.7</ele>
        <time>2018-09-16T09:43:51.000Z</time>
      </trkpt>
      <trkpt lat="46.71393" lon="-2.34714">
        <ele>20.7</ele>
        <time>2018-09-16T09:43:52.000Z</time>
      </trkpt>
      <trkpt lat="46.71392" lon="-2.34713">
        <ele>20.7</ele>
        <time>2018-09-16T09:43:53.000Z</time>
      </trkpt>
      <trkpt lat="46.71392" lon="-2.34712">
        <ele>20.8</ele>
        <time>2018-09-16T09:43:54.000Z</time>
      </trkpt>
      <trkpt lat="46.71391" lon="-2.34712">
        <ele>20.8</ele>
        <time>2018-09-16T09:43:55.000Z</time>
      </trkpt>
      <trkpt lat="46.71391" lon="-2.34711">
        <ele>20.8</ele>
        <time>2018-09-16T09:43:56.000Z</time>
      </trkpt>
      <trkpt lat="46.71391" lon="-2.34711">
        <ele>20.8</ele>
        <time>2018-09-16T09:43:57.000Z</time>
      </trkpt>
      <trkpt lat="46.71391" lon="-2.34711">
        <ele>20.8</ele>
        <time>2018-09-16T09:43:58.000Z</time>
      </trkpt>
      <trkpt lat="46.71391" lon="-2.34711">
        <ele>20.8</ele>
        <time>2018-09-16T09:43:59.000Z</time>
      </trkpt>
      <trkpt lat="46.7139" lon="-2.3471">
        <ele>20.8</ele>
        <time>2018-09-16T09:44:00.000Z</time>
      </trkpt>
      <trkpt lat="46.7139" lon="-2.3471">
        <ele>20.8</ele>
        <time>2018-09-16T09:44:01.000Z</time>
      </trkpt>
      <trkpt lat="46.71389" lon="-2.34709">
        <ele>20.8</ele>
        <time>2018-09-16T09:44:02.000Z</time>
      </trkpt>
      <trkpt lat="46.71388" lon="-2.34708">
        <ele>20.9</ele>
        <time>2018-09-16T09:44:03.000Z</time>
      </trkpt>
      <trkpt lat="46.71387" lon="-2.34707">
        <ele>20.9</ele>
        <time>2018-09-16T09:44:04.000Z</time>
      </trkpt>
      <trkpt lat="46.71386" lon="-2.34706">
        <ele>20.9</ele>
        <time>2018-09-16T09:44:05.000Z</time>
      </trkpt>
      <trkpt lat="46.71385" lon="-2.34705">
        <ele>20.9</ele>
        <time>2018-09-16T09:44:06.000Z</time>
      </trkpt>
      <trkpt lat="46.71384" lon="-2.34704">
        <ele>21</ele>
        <time>2018-09-16T09:44:07.000Z</time>
      </trkpt>
      <trkpt lat="46.71383" lon="-2.34704">
        <ele>21</ele>
        <time>2018-09-16T09:44:08.000Z</time>
      </trkpt>
      <trkpt lat="46.71382" lon="-2.34703">
        <ele>21</ele>
        <time>2018-09-16T09:44:09.000Z</time>
      </trkpt>
      <trkpt lat="46.71381" lon="-2.34702">
        <ele>21</ele>
        <time>2018-09-16T09:44:10.000Z</time>
      </trkpt>
      <trkpt lat="46.7138" lon="-2.34701">
        <ele>21.1</ele>
        <time>2018-09-16T09:44:11.000Z</time>
      </trkpt>
      <trkpt lat="46.71379" lon="-2.347">
        <ele>21.1</ele>
        <time>2018-09-16T09:44:12.000Z</time>
      </trkpt>
      <trkpt lat="46.71378" lon="-2.34699">
        <ele>21.1</ele>
        <time>2018-09-16T09:44:13.000Z</time>
      </trkpt>
      <trkpt lat="46.71377" lon="-2.34698">
        <ele>21.1</ele>
        <time>2018-09-16T09:44:14.000Z</time>
      </trkpt>
      <trkpt lat="46.71376" lon="-2.34696">
        <ele>21.2</ele>
        <time>2018-09-16T09:44:15.000Z</time>
      </trkpt>
      <trkpt lat="46.71375" lon="-2.34695">
        <ele>21.2</ele>
        <time>2018-09-16T09:44:16.000Z</time>
      </trkpt>
      <trkpt lat="46.71374" lon="-2.34694">
        <ele>21.2</ele>
        <time>2018-09-16T09:44:17.000Z</time>
      </trkpt>
      <trkpt lat="46.71374" lon="-2.34694">
        <ele>21.2</ele>
        <time>2018-09-16T09:44:18.000Z</time>
      </trkpt>
      <trkpt lat="46.71373" lon="-2.34693">
        <ele>21.2</ele>
        <time>2018-09-16T09:44:19.000Z</time>
      </trkpt>
      <trkpt lat="46.71373" lon="-2.34693">
        <ele>21.2</ele>
        <time>2018-09-16T09:44:20.000Z</time>
      </trkpt>
      <trkpt lat="46.71373" lon="-2.34693">
        <ele>21.2</ele>
        <time>2018-09-16T09:44:21.000Z</time>
      </trkpt>
      <trkpt lat="46.71373" lon="-2.34693">
        <ele>21.2</ele>
        <time>2018-09-16T09:44:22.000Z</time>
      </trkpt>
      <trkpt lat="46.71373" lon="-2.34693">
        <ele>21.2</ele>
        <time>2018-09-16T09:44:23.000Z</time>
      </trkpt>
      <trkpt lat="46.71373" lon="-2.34693">
        <ele>21.2</ele>
        <time>2018-09-16T09:44:24.000Z</time>
      </trkpt>
      <trkpt lat="46.71373" lon="-2.34693">
        <ele>21.2</ele>
        <time>2018-09-16T09:44:25.000Z</time>
      </trkpt>
      <trkpt lat="46.71373" lon="-2.34693">
        <ele>21.2</ele>
        <time>2018-09-16T09:44:26.000Z</time>
      </trkpt>
      <trkpt lat="46.71373" lon="-2.34693">
        <ele>21.2</ele>
        <time>2018-09-16T09:44:27.000Z</time>
      </trkpt>
      <trkpt lat="46.71373" lon="-2.34693">
        <ele>21.2</ele>
        <time>2018-09-16T09:44:28.000Z</time>
      </trkpt>
      <trkpt lat="46.71373" lon="-2.34693">
        <ele>21.2</ele>
        <time>2018-09-16T09:44:29.000Z</time>
      </trkpt>
      <trkpt lat="46.71373" lon="-2.34693">
        <ele>21.2</ele>
        <time>2018-09-16T09:44:30.000Z</time>
      </trkpt>
      <trkpt lat="46.71373" lon="-2.34693">
        <ele>21.2</ele>
        <time>2018-09-16T09:44:31.000Z</time>
      </trkpt>
      <trkpt lat="46.71373" lon="-2.34693">
        <ele>21.2</ele>
        <time>2018-09-16T09:44:32.000Z</time>
      </trkpt>
      <trkpt lat="46.71373" lon="-2.34693">
        <ele>21.2</ele>
        <time>2018-09-16T09:44:33.000Z</time>
      </trkpt>
      <trkpt lat="46.71373" lon="-2.34693">
        <ele>21.2</ele>
        <time>2018-09-16T09:44:34.000Z</time>
      </trkpt>
      <trkpt lat="46.71373" lon="-2.34693">
        <ele>21.2</ele>
        <time>2018-09-16T09:44:35.000Z</time>
      </trkpt>
      <trkpt lat="46.71373" lon="-2.34693">
        <ele>21.2</ele>
        <time>2018-09-16T09:44:36.000Z</time>
      </trkpt>
      <trkpt lat="46.71373" lon="-2.34693">
        <ele>21.2</ele>
        <time>2018-09-16T09:44:37.000Z</time>
      </trkpt>
      <trkpt lat="46.71373" lon="-2.34693">
        <ele>21.2</ele>
        <time>2018-09-16T09:44:38.000Z</time>
      </trkpt>
      <trkpt lat="46.71373" lon="-2.34693">
        <ele>21.2</ele>
        <time>2018-09-16T09:44:39.000Z</time>
      </trkpt>
      <trkpt lat="46.71373" lon="-2.34693">
        <ele>21.2</ele>
        <time>2018-09-16T09:44:40.000Z</time>
      </trkpt>
      <trkpt lat="46.71373" lon="-2.34693">
        <ele>21.2</ele>
        <time>2018-09-16T09:44:41.000Z</time>
      </trkpt>
      <trkpt lat="46.71373" lon="-2.34693">
        <ele>21.2</ele>
        <time>2018-09-16T09:44:42.000Z</time>
      </trkpt>
      <trkpt lat="46.71373" lon="-2.34693">
        <ele>21.2</ele>
        <time>2018-09-16T09:44:43.000Z</time>
      </trkpt>
      <trkpt lat="46.71373" lon="-2.34693">
        <ele>21.2</ele>
        <time>2018-09-16T09:44:44.000Z</time>
      </trkpt>
      <trkpt lat="46.71373" lon="-2.34693">
        <ele>21.2</ele>
        <time>2018-09-16T09:44:45.000Z</time>
      </trkpt>
      <trkpt lat="46.71373" lon="-2.34693">
        <ele>21.2</ele>
        <time>2018-09-16T09:44:46.000Z</time>
      </trkpt>
      <trkpt lat="46.71373" lon="-2.34693">
        <ele>21.2</ele>
        <time>2018-09-16T09:44:47.000Z</time>
      </trkpt>
      <trkpt lat="46.71373" lon="-2.34693">
        <ele>21.2</ele>
        <time>2018-09-16T09:44:48.000Z</time>
      </trkpt>
      <trkpt lat="46.71373" lon="-2.34693">
        <ele>21.2</ele>
        <time>2018-09-16T09:44:49.000Z</time>
      </trkpt>
      <trkpt lat="46.71373" lon="-2.34693">
        <ele>21.2</ele>
        <time>2018-09-16T09:44:50.000Z</time>
      </trkpt>
      <trkpt lat="46.71373" lon="-2.34693">
        <ele>21.2</ele>
        <time>2018-09-16T09:44:51.000Z</time>
      </trkpt>
      <trkpt lat="46.71373" lon="-2.34693">
        <ele>21.2</ele>
        <time>2018-09-16T09:44:52.000Z</time>
      </trkpt>
      <trkpt lat="46.71373" lon="-2.34693">
        <ele>21.2</ele>
        <time>2018-09-16T09:44:53.000Z</time>
      </trkpt>
      <trkpt lat="46.71373" lon="-2.34693">
        <ele>21.2</ele>
        <time>2018-09-16T09:44:54.000Z</time>
      </trkpt>
      <trkpt lat="46.71373" lon="-2.34693">
        <ele>21.2</ele>
        <time>2018-09-16T09:44:55.000Z</time>
      </trkpt>
      <trkpt lat="46.71373" lon="-2.34693">
        <ele>21.2</ele>
        <time>2018-09-16T09:44:56.000Z</time>
      </trkpt>
      <trkpt lat="46.71373" lon="-2.34693">
        <ele>21.2</ele>
        <time>2018-09-16T09:44:57.000Z</time>
      </trkpt>
      <trkpt lat="46.71373" lon="-2.34693">
        <ele>21.2</ele>
        <time>2018-09-16T09:44:58.000Z</time>
      </trkpt>
      <trkpt lat="46.71373" lon="-2.34693">
        <ele>21.2</ele>
        <time>2018-09-16T09:44:59.000Z</time>
      </trkpt>
      <trkpt lat="46.71373" lon="-2.34693">
        <ele>21.2</ele>
        <time>2018-09-16T09:45:00.000Z</time>
      </trkpt>
      <trkpt lat="46.71373" lon="-2.34693">
        <ele>21.2</ele>
        <time>2018-09-16T09:45:01.000Z</time>
      </trkpt>
      <trkpt lat="46.71373" lon="-2.34693">
        <ele>21.2</ele>
        <time>2018-09-16T09:45:02.000Z</time>
      </trkpt>
      <trkpt lat="46.71373" lon="-2.34693">
        <ele>21.2</ele>
        <time>2018-09-16T09:45:03.000Z</time>
      </trkpt>
      <trkpt lat="46.71373" lon="-2.34693">
        <ele>21.2</ele>
        <time>2018-09-16T09:45:04.000Z</time>
      </trkpt>
      <trkpt lat="46.71373" lon="-2.34693">
        <ele>21.2</ele>
        <time>2018-09-16T09:45:05.000Z</time>
      </trkpt>
      <trkpt lat="46.71373" lon="-2.34693">
        <ele>21.2</ele>
        <time>2018-09-16T09:45:06.000Z</time>
      </trkpt>
      <trkpt lat="46.71373" lon="-2.34693">
        <ele>21.2</ele>
        <time>2018-09-16T09:45:07.000Z</time>
      </trkpt>
      <trkpt lat="46.71373" lon="-2.34693">
        <ele>21.2</ele>
        <time>2018-09-16T09:45:08.000Z</time>
      </trkpt>
      <trkpt lat="46.71373" lon="-2.34693">
        <ele>21.2</ele>
        <time>2018-09-16T09:45:09.000Z</time>
      </trkpt>
      <trkpt lat="46.71373" lon="-2.34693">
        <ele>21.2</ele>
        <time>2018-09-16T09:45:10.000Z</time>
      </trkpt>
      <trkpt lat="46.71373" lon="-2.34693">
        <ele>21.2</ele>
        <time>2018-09-16T09:45:11.000Z</time>
      </trkpt>
      <trkpt lat="46.71373" lon="-2.34693">
        <ele>21.2</ele>
        <time>2018-09-16T09:45:12.000Z</time>
      </trkpt>
      <trkpt lat="46.71373" lon="-2.34693">
        <ele>21.2</ele>
        <time>2018-09-16T09:45:13.000Z</time>
      </trkpt>
      <trkpt lat="46.71373" lon="-2.34693">
        <ele>21.2</ele>
        <time>2018-09-16T09:45:14.000Z</time>
      </trkpt>
      <trkpt lat="46.71373" lon="-2.34693">
        <ele>21.2</ele>
        <time>2018-09-16T09:45:15.000Z</time>
      </trkpt>
      <trkpt lat="46.71373" lon="-2.34693">
        <ele>21.2</ele>
        <time>2018-09-16T09:45:16.000Z</time>
      </trkpt>
      <trkpt lat="46.71373" lon="-2.34693">
        <ele>21.2</ele>
        <time>2018-09-16T09:45:17.000Z</time>
      </trkpt>
      <trkpt lat="46.71373" lon="-2.34693">
        <ele>21.2</ele>
        <time>2018-09-16T09:45:18.000Z</time>
      </trkpt>
      <trkpt lat="46.71373" lon="-2.34693">
        <ele>21.2</ele>
        <time>2018-09-16T09:45:19.000Z</time>
      </trkpt>
      <trkpt lat="46.71373" lon="-2.34693">
        <ele>21.2</ele>
        <time>2018-09-16T09:45:20.000Z</time>
      </trkpt>
      <trkpt lat="46.71373" lon="-2.34693">
        <ele>21.2</ele>
        <time>2018-09-16T09:45:21.000Z</time>
      </trkpt>
      <trkpt lat="46.71373" lon="-2.34693">
        <ele>21.2</ele>
        <time>2018-09-16T09:45:22.000Z</time>
      </trkpt>
      <trkpt lat="46.71373" lon="-2.34693">
        <ele>21.2</ele>
        <time>2018-09-16T09:45:23.000Z</time>
      </trkpt>
      <trkpt lat="46.71373" lon="-2.34693">
        <ele>21.2</ele>
        <time>2018-09-16T09:45:24.000Z</time>
      </trkpt>
      <trkpt lat="46.71373" lon="-2.34693">
        <ele>21.2</ele>
        <time>2018-09-16T09:45:25.000Z</time>
      </trkpt>
      <trkpt lat="46.71373" lon="-2.34693">
        <ele>21.2</ele>
        <time>2018-09-16T09:45:26.000Z</time>
      </trkpt>
      <trkpt lat="46.71373" lon="-2.34693">
        <ele>21.2</ele>
        <time>2018-09-16T09:45:27.000Z</time>
      </trkpt>
      <trkpt lat="46.71373" lon="-2.34693">
        <ele>21.2</ele>
        <time>2018-09-16T09:45:28.000Z</time>
      </trkpt>
      <trkpt lat="46.71373" lon="-2.34693">
        <ele>21.2</ele>
        <time>2018-09-16T09:45:29.000Z</time>
      </trkpt>
      <trkpt lat="46.71373" lon="-2.34693">
        <ele>21.2</ele>
        <time>2018-09-16T09:45:30.000Z</time>
      </trkpt>
      <trkpt lat="46.71373" lon="-2.34693">
        <ele>21.2</ele>
        <time>2018-09-16T09:45:31.000Z</time>
      </trkpt>
      <trkpt lat="46.71373" lon="-2.34693">
        <ele>21.2</ele>
        <time>2018-09-16T09:45:32.000Z</time>
      </trkpt>
      <trkpt lat="46.71373" lon="-2.34693">
        <ele>21.2</ele>
        <time>2018-09-16T09:45:33.000Z</time>
      </trkpt>
      <trkpt lat="46.71373" lon="-2.34693">
        <ele>21.2</ele>
        <time>2018-09-16T09:45:34.000Z</time>
      </trkpt>
      <trkpt lat="46.71373" lon="-2.34693">
        <ele>21.2</ele>
        <time>2018-09-16T09:45:35.000Z</time>
      </trkpt>
      <trkpt lat="46.71373" lon="-2.34693">
        <ele>21.2</ele>
        <time>2018-09-16T09:45:36.000Z</time>
      </trkpt>
      <trkpt lat="46.71373" lon="-2.34693">
        <ele>21.2</ele>
        <time>2018-09-16T09:45:37.000Z</time>
      </trkpt>
      <trkpt lat="46.71373" lon="-2.34693">
        <ele>21.2</ele>
        <time>2018-09-16T09:45:38.000Z</time>
      </trkpt>
      <trkpt lat="46.71373" lon="-2.34693">
        <ele>21.2</ele>
        <time>2018-09-16T09:45:39.000Z</time>
      </trkpt>
      <trkpt lat="46.71373" lon="-2.34693">
        <ele>21.2</ele>
        <time>2018-09-16T09:45:40.000Z</time>
      </trkpt>
      <trkpt lat="46.71373" lon="-2.34693">
        <ele>21.2</ele>
        <time>2018-09-16T09:45:41.000Z</time>
      </trkpt>
      <trkpt lat="46.71373" lon="-2.34693">
        <ele>21.2</ele>
        <time>2018-09-16T09:45:42.000Z</time>
      </trkpt>
      <trkpt lat="46.71373" lon="-2.34693">
        <ele>21.2</ele>
        <time>2018-09-16T09:45:43.000Z</time>
      </trkpt>
      <trkpt lat="46.71373" lon="-2.34693">
        <ele>21.2</ele>
        <time>2018-09-16T09:45:44.000Z</time>
      </trkpt>
      <trkpt lat="46.71373" lon="-2.34693">
        <ele>21.2</ele>
        <time>2018-09-16T09:45:45.000Z</time>
      </trkpt>
      <trkpt lat="46.71373" lon="-2.34693">
        <ele>21.2</ele>
        <time>2018-09-16T09:45:46.000Z</time>
      </trkpt>
      <trkpt lat="46.71373" lon="-2.34693">
        <ele>21.2</ele>
        <time>2018-09-16T09:45:47.000Z</time>
      </trkpt>
      <trkpt lat="46.71373" lon="-2.34693">
        <ele>21.2</ele>
        <time>2018-09-16T09:45:48.000Z</time>
      </trkpt>
      <trkpt lat="46.71373" lon="-2.34693">
        <ele>21.2</ele>
        <time>2018-09-16T09:45:49.000Z</time>
      </trkpt>
      <trkpt lat="46.71373" lon="-2.34693">
        <ele>21.2</ele>
        <time>2018-09-16T09:45:50.000Z</time>
      </trkpt>
      <trkpt lat="46.71373" lon="-2.34693">
        <ele>21.2</ele>
        <time>2018-09-16T09:45:51.000Z</time>
      </trkpt>
      <trkpt lat="46.71373" lon="-2.34693">
        <ele>21.2</ele>
        <time>2018-09-16T09:45:52.000Z</time>
      </trkpt>
      <trkpt lat="46.71373" lon="-2.34693">
        <ele>21.2</ele>
        <time>2018-09-16T09:45:53.000Z</time>
      </trkpt>
      <trkpt lat="46.71373" lon="-2.34693">
        <ele>21.2</ele>
        <time>2018-09-16T09:45:54.000Z</time>
      </trkpt>
      <trkpt lat="46.71373" lon="-2.34693">
        <ele>21.2</ele>
        <time>2018-09-16T09:45:55.000Z</time>
      </trkpt>
      <trkpt lat="46.71373" lon="-2.34693">
        <ele>21.2</ele>
        <time>2018-09-16T09:45:56.000Z</time>
      </trkpt>
      <trkpt lat="46.71373" lon="-2.34693">
        <ele>21.2</ele>
        <time>2018-09-16T09:45:57.000Z</time>
      </trkpt>
      <trkpt lat="46.71373" lon="-2.34693">
        <ele>21.2</ele>
        <time>2018-09-16T09:45:58.000Z</time>
      </trkpt>
      <trkpt lat="46.71373" lon="-2.34693">
        <ele>21.2</ele>
        <time>2018-09-16T09:45:59.000Z</time>
      </trkpt>
      <trkpt lat="46.71373" lon="-2.34693">
        <ele>21.2</ele>
        <time>2018-09-16T09:46:00.000Z</time>
      </trkpt>
      <trkpt lat="46.71373" lon="-2.34693">
        <ele>21.2</ele>
        <time>2018-09-16T09:46:01.000Z</time>
      </trkpt>
      <trkpt lat="46.71373" lon="-2.34693">
        <ele>21.2</ele>
        <time>2018-09-16T09:46:02.000Z</time>
      </trkpt>
      <trkpt lat="46.71373" lon="-2.34693">
        <ele>21.2</ele>
        <time>2018-09-16T09:46:03.000Z</time>
      </trkpt>
      <trkpt lat="46.71373" lon="-2.34693">
        <ele>21.2</ele>
        <time>2018-09-16T09:46:04.000Z</time>
      </trkpt>
      <trkpt lat="46.71373" lon="-2.34693">
        <ele>21.2</ele>
        <time>2018-09-16T09:46:05.000Z</time>
      </trkpt>
      <trkpt lat="46.71373" lon="-2.34693">
        <ele>21.2</ele>
        <time>2018-09-16T09:46:06.000Z</time>
      </trkpt>
      <trkpt lat="46.71373" lon="-2.34693">
        <ele>21.2</ele>
        <time>2018-09-16T09:46:07.000Z</time>
      </trkpt>
      <trkpt lat="46.71373" lon="-2.34693">
        <ele>21.2</ele>
        <time>2018-09-16T09:46:08.000Z</time>
      </trkpt>
      <trkpt lat="46.71373" lon="-2.34693">
        <ele>21.2</ele>
        <time>2018-09-16T09:46:09.000Z</time>
      </trkpt>
      <trkpt lat="46.71373" lon="-2.34693">
        <ele>21.2</ele>
        <time>2018-09-16T09:46:10.000Z</time>
      </trkpt>
      <trkpt lat="46.71373" lon="-2.34693">
        <ele>21.2</ele>
        <time>2018-09-16T09:46:11.000Z</time>
      </trkpt>
      <trkpt lat="46.71373" lon="-2.34693">
        <ele>21.2</ele>
        <time>2018-09-16T09:46:12.000Z</time>
      </trkpt>
      <trkpt lat="46.71373" lon="-2.34693">
        <ele>21.2</ele>
        <time>2018-09-16T09:46:13.000Z</time>
      </trkpt>
      <trkpt lat="46.71373" lon="-2.34693">
        <ele>21.2</ele>
        <time>2018-09-16T09:46:14.000Z</time>
      </trkpt>
      <trkpt lat="46.71373" lon="-2.34693">
        <ele>21.2</ele>
        <time>2018-09-16T09:46:15.000Z</time>
      </trkpt>
      <trkpt lat="46.71373" lon="-2.34693">
        <ele>21.2</ele>
        <time>2018-09-16T09:46:16.000Z</time>
      </trkpt>
      <trkpt lat="46.71373" lon="-2.34693">
        <ele>21.2</ele>
        <time>2018-09-16T09:46:17.000Z</time>
      </trkpt>
      <trkpt lat="46.71373" lon="-2.34693">
        <ele>21.2</ele>
        <time>2018-09-16T09:46:18.000Z</time>
      </trkpt>
      <trkpt lat="46.71373" lon="-2.34693">
        <ele>21.2</ele>
        <time>2018-09-16T09:46:19.000Z</time>
      </trkpt>
      <trkpt lat="46.71373" lon="-2.34693">
        <ele>21.2</ele>
        <time>2018-09-16T09:46:20.000Z</time>
      </trkpt>
      <trkpt lat="46.71373" lon="-2.34693">
        <ele>21.2</ele>
        <time>2018-09-16T09:46:21.000Z</time>
      </trkpt>
      <trkpt lat="46.71373" lon="-2.34693">
        <ele>21.2</ele>
        <time>2018-09-16T09:46:22.000Z</time>
      </trkpt>
      <trkpt lat="46.71373" lon="-2.34693">
        <ele>21.2</ele>
        <time>2018-09-16T09:46:23.000Z</time>
      </trkpt>
      <trkpt lat="46.71373" lon="-2.34693">
        <ele>21.2</ele>
        <time>2018-09-16T09:46:24.000Z</time>
      </trkpt>
      <trkpt lat="46.71373" lon="-2.34693">
        <ele>21.2</ele>
        <time>2018-09-16T09:46:25.000Z</time>
      </trkpt>
      <trkpt lat="46.71373" lon="-2.34693">
        <ele>21.2</ele>
        <time>2018-09-16T09:46:26.000Z</time>
      </trkpt>
      <trkpt lat="46.71373" lon="-2.34693">
        <ele>21.2</ele>
        <time>2018-09-16T09:46:27.000Z</time>
      </trkpt>
      <trkpt lat="46.71373" lon="-2.34693">
        <ele>21.2</ele>
        <time>2018-09-16T09:46:28.000Z</time>
      </trkpt>
      <trkpt lat="46.71373" lon="-2.34693">
        <ele>21.2</ele>
        <time>2018-09-16T09:46:29.000Z</time>
      </trkpt>
      <trkpt lat="46.71373" lon="-2.34693">
        <ele>21.2</ele>
        <time>2018-09-16T09:46:30.000Z</time>
      </trkpt>
      <trkpt lat="46.71373" lon="-2.34693">
        <ele>21.2</ele>
        <time>2018-09-16T09:46:31.000Z</time>
      </trkpt>
      <trkpt lat="46.71373" lon="-2.34693">
        <ele>21.2</ele>
        <time>2018-09-16T09:46:32.000Z</time>
      </trkpt>
      <trkpt lat="46.71373" lon="-2.34693">
        <ele>21.2</ele>
        <time>2018-09-16T09:46:33.000Z</time>
      </trkpt>
      <trkpt lat="46.71373" lon="-2.34693">
        <ele>21.2</ele>
        <time>2018-09-16T09:46:34.000Z</time>
      </trkpt>
      <trkpt lat="46.71373" lon="-2.34693">
        <ele>21.2</ele>
        <time>2018-09-16T09:46:35.000Z</time>
      </trkpt>
      <trkpt lat="46.71373" lon="-2.34693">
        <ele>21.2</ele>
        <time>2018-09-16T09:46:36.000Z</time>
      </trkpt>
      <trkpt lat="46.71373" lon="-2.34692">
        <ele>21.2</ele>
        <time>2018-09-16T09:46:37.000Z</time>
      </trkpt>
      <trkpt lat="46.71372" lon="-2.34691">
        <ele>21.2</ele>
        <time>2018-09-16T09:46:38.000Z</time>
      </trkpt>
      <trkpt lat="46.71372" lon="-2.3469">
        <ele>21.2</ele>
        <time>2018-09-16T09:46:39.000Z</time>
      </trkpt>
      <trkpt lat="46.71371" lon="-2.34689">
        <ele>21.2</ele>
        <time>2018-09-16T09:46:40.000Z</time>
      </trkpt>
      <trkpt lat="46.71371" lon="-2.34688">
        <ele>21.2</ele>
        <time>2018-09-16T09:46:41.000Z</time>
      </trkpt>
      <trkpt lat="46.7137" lon="-2.34687">
        <ele>21.3</ele>
        <time>2018-09-16T09:46:42.000Z</time>
      </trkpt>
      <trkpt lat="46.71369" lon="-2.34685">
        <ele>21.3</ele>
        <time>2018-09-16T09:46:43.000Z</time>
      </trkpt>
      <trkpt lat="46.71369" lon="-2.34684">
        <ele>21.3</ele>
        <time>2018-09-16T09:46:44.000Z</time>
      </trkpt>
      <trkpt lat="46.71368" lon="-2.34683">
        <ele>21.3</ele>
        <time>2018-09-16T09:46:45.000Z</time>
      </trkpt>
      <trkpt lat="46.71368" lon="-2.34682">
        <ele>21.3</ele>
        <time>2018-09-16T09:46:46.000Z</time>
      </trkpt>
      <trkpt lat="46.71367" lon="-2.34681">
        <ele>21.3</ele>
        <time>2018-09-16T09:46:47.000Z</time>
      </trkpt>
      <trkpt lat="46.71366" lon="-2.34679">
        <ele>21.3</ele>
        <time>2018-09-16T09:46:48.000Z</time>
      </trkpt>
      <trkpt lat="46.71366" lon="-2.34678">
        <ele>21.3</ele>
        <time>2018-09-16T09:46:49.000Z</time>
      </trkpt>
      <trkpt lat="46.71365" lon="-2.34677">
        <ele>21.3</ele>
        <time>2018-09-16T09:46:50.000Z</time>
      </trkpt>
      <trkpt lat="46.71365" lon="-2.34675">
        <ele>21.3</ele>
        <time>2018-09-16T09:46:51.000Z</time>
      </trkpt>
      <trkpt lat="46.71365" lon="-2.34674">
        <ele>21.3</ele>
        <time>2018-09-16T09:46:52.000Z</time>
      </trkpt>
      <trkpt lat="46.71364" lon="-2.34672">
        <ele>21.3</ele>
        <time>2018-09-16T09:46:53.000Z</time>
      </trkpt>
      <trkpt lat="46.71364" lon="-2.34671">
        <ele>21.3</ele>
        <time>2018-09-16T09:46:54.000Z</time>
      </trkpt>
      <trkpt lat="46.71363" lon="-2.3467">
        <ele>21.3</ele>
        <time>2018-09-16T09:46:55.000Z</time>
      </trkpt>
      <trkpt lat="46.71363" lon="-2.34668">
        <ele>21.3</ele>
        <time>2018-09-16T09:46:56.000Z</time>
      </trkpt>
      <trkpt lat="46.71362" lon="-2.34667">
        <ele>21.3</ele>
        <time>2018-09-16T09:46:57.000Z</time>
      </trkpt>
      <trkpt lat="46.71362" lon="-2.34665">
        <ele>21.3</ele>
        <time>2018-09-16T09:46:58.000Z</time>
      </trkpt>
      <trkpt lat="46.71361" lon="-2.34664">
        <ele>21.3</ele>
        <time>2018-09-16T09:46:59.000Z</time>
      </trkpt>
      <trkpt lat="46.71361" lon="-2.34662">
        <ele>21.2</ele>
        <time>2018-09-16T09:47:00.000Z</time>
      </trkpt>
      <trkpt lat="46.7136" lon="-2.34661">
        <ele>21.2</ele>
        <time>2018-09-16T09:47:01.000Z</time>
      </trkpt>
      <trkpt lat="46.7136" lon="-2.34659">
        <ele>21.2</ele>
        <time>2018-09-16T09:47:02.000Z</time>
      </trkpt>
      <trkpt lat="46.71359" lon="-2.34658">
        <ele>21.2</ele>
        <time>2018-09-16T09:47:03.000Z</time>
      </trkpt>
      <trkpt lat="46.71359" lon="-2.34656">
        <ele>21.2</ele>
        <time>2018-09-16T09:47:04.000Z</time>
      </trkpt>
      <trkpt lat="46.71359" lon="-2.34655">
        <ele>21.2</ele>
        <time>2018-09-16T09:47:05.000Z</time>
      </trkpt>
      <trkpt lat="46.71358" lon="-2.34653">
        <ele>21.1</ele>
        <time>2018-09-16T09:47:06.000Z</time>
      </trkpt>
      <trkpt lat="46.71358" lon="-2.34652">
        <ele>21.1</ele>
        <time>2018-09-16T09:47:07.000Z</time>
      </trkpt>
      <trkpt lat="46.71357" lon="-2.34651">
        <ele>21.1</ele>
        <time>2018-09-16T09:47:08.000Z</time>
      </trkpt>
      <trkpt lat="46.71357" lon="-2.34649">
        <ele>21.1</ele>
        <time>2018-09-16T09:47:09.000Z</time>
      </trkpt>
      <trkpt lat="46.71356" lon="-2.34648">
        <ele>21.1</ele>
        <time>2018-09-16T09:47:10.000Z</time>
      </trkpt>
      <trkpt lat="46.71356" lon="-2.34646">
        <ele>21</ele>
        <time>2018-09-16T09:47:11.000Z</time>
      </trkpt>
      <trkpt lat="46.71355" lon="-2.34645">
        <ele>21</ele>
        <time>2018-09-16T09:47:12.000Z</time>
      </trkpt>
      <trkpt lat="46.71355" lon="-2.34644">
        <ele>21</ele>
        <time>2018-09-16T09:47:13.000Z</time>
      </trkpt>
      <trkpt lat="46.71354" lon="-2.34642">
        <ele>21</ele>
        <time>2018-09-16T09:47:14.000Z</time>
      </trkpt>
      <trkpt lat="46.71354" lon="-2.34641">
        <ele>21</ele>
        <time>2018-09-16T09:47:15.000Z</time>
      </trkpt>
      <trkpt lat="46.71353" lon="-2.34639">
        <ele>20.9</ele>
        <time>2018-09-16T09:47:16.000Z</time>
      </trkpt>
      <trkpt lat="46.71353" lon="-2.34638">
        <ele>20.9</ele>
        <time>2018-09-16T09:47:17.000Z</time>
      </trkpt>
      <trkpt lat="46.71352" lon="-2.34637">
        <ele>20.9</ele>
        <time>2018-09-16T09:47:18.000Z</time>
      </trkpt>
      <trkpt lat="46.71352" lon="-2.34635">
        <ele>20.9</ele>
        <time>2018-09-16T09:47:19.000Z</time>
      </trkpt>
      <trkpt lat="46.71351" lon="-2.34634">
        <ele>20.9</ele>
        <time>2018-09-16T09:47:20.000Z</time>
      </trkpt>
      <trkpt lat="46.71351" lon="-2.34633">
        <ele>20.9</ele>
        <time>2018-09-16T09:47:21.000Z</time>
      </trkpt>
      <trkpt lat="46.7135" lon="-2.34632">
        <ele>20.8</ele>
        <time>2018-09-16T09:47:22.000Z</time>
      </trkpt>
      <trkpt lat="46.71349" lon="-2.3463">
        <ele>20.8</ele>
        <time>2018-09-16T09:47:23.000Z</time>
      </trkpt>
      <trkpt lat="46.71349" lon="-2.34629">
        <ele>20.8</ele>
        <time>2018-09-16T09:47:24.000Z</time>
      </trkpt>
      <trkpt lat="46.71348" lon="-2.34628">
        <ele>20.8</ele>
        <time>2018-09-16T09:47:25.000Z</time>
      </trkpt>
      <trkpt lat="46.71348" lon="-2.34627">
        <ele>20.8</ele>
        <time>2018-09-16T09:47:26.000Z</time>
      </trkpt>
      <trkpt lat="46.71347" lon="-2.34625">
        <ele>20.8</ele>
        <time>2018-09-16T09:47:27.000Z</time>
      </trkpt>
      <trkpt lat="46.71347" lon="-2.34624">
        <ele>20.7</ele>
        <time>2018-09-16T09:47:28.000Z</time>
      </trkpt>
      <trkpt lat="46.71346" lon="-2.34623">
        <ele>20.7</ele>
        <time>2018-09-16T09:47:29.000Z</time>
      </trkpt>
      <trkpt lat="46.71346" lon="-2.34622">
        <ele>20.7</ele>
        <time>2018-09-16T09:47:30.000Z</time>
      </trkpt>
      <trkpt lat="46.71345" lon="-2.34621">
        <ele>20.7</ele>
        <time>2018-09-16T09:47:31.000Z</time>
      </trkpt>
      <trkpt lat="46.71345" lon="-2.34619">
        <ele>20.7</ele>
        <time>2018-09-16T09:47:32.000Z</time>
      </trkpt>
      <trkpt lat="46.71344" lon="-2.34618">
        <ele>20.6</ele>
        <time>2018-09-16T09:47:33.000Z</time>
      </trkpt>
      <trkpt lat="46.71344" lon="-2.34617">
        <ele>20.6</ele>
        <time>2018-09-16T09:47:34.000Z</time>
      </trkpt>
      <trkpt lat="46.71343" lon="-2.34615">
        <ele>20.6</ele>
        <time>2018-09-16T09:47:35.000Z</time>
      </trkpt>
      <trkpt lat="46.71343" lon="-2.34614">
        <ele>20.6</ele>
        <time>2018-09-16T09:47:36.000Z</time>
      </trkpt>
      <trkpt lat="46.71342" lon="-2.34613">
        <ele>20.6</ele>
        <time>2018-09-16T09:47:37.000Z</time>
      </trkpt>
      <trkpt lat="46.71342" lon="-2.34611">
        <ele>20.5</ele>
        <time>2018-09-16T09:47:38.000Z</time>
      </trkpt>
      <trkpt lat="46.71341" lon="-2.3461">
        <ele>20.5</ele>
        <time>2018-09-16T09:47:39.000Z</time>
      </trkpt>
      <trkpt lat="46.71341" lon="-2.34608">
        <ele>20.5</ele>
        <time>2018-09-16T09:47:40.000Z</time>
      </trkpt>
      <trkpt lat="46.7134" lon="-2.34607">
        <ele>20.5</ele>
        <time>2018-09-16T09:47:41.000Z</time>
      </trkpt>
      <trkpt lat="46.71339" lon="-2.34605">
        <ele>20.4</ele>
        <time>2018-09-16T09:47:42.000Z</time>
      </trkpt>
      <trkpt lat="46.71339" lon="-2.34604">
        <ele>20.4</ele>
        <time>2018-09-16T09:47:43.000Z</time>
      </trkpt>
      <trkpt lat="46.71338" lon="-2.34602">
        <ele>20.4</ele>
        <time>2018-09-16T09:47:44.000Z</time>
      </trkpt>
      <trkpt lat="46.71337" lon="-2.346">
        <ele>20.4</ele>
        <time>2018-09-16T09:47:45.000Z</time>
      </trkpt>
      <trkpt lat="46.71337" lon="-2.34599">
        <ele>20.3</ele>
        <time>2018-09-16T09:47:46.000Z</time>
      </trkpt>
      <trkpt lat="46.71336" lon="-2.34597">
        <ele>20.3</ele>
        <time>2018-09-16T09:47:47.000Z</time>
      </trkpt>
      <trkpt lat="46.71335" lon="-2.34596">
        <ele>20.3</ele>
        <time>2018-09-16T09:47:48.000Z</time>
      </trkpt>
      <trkpt lat="46.71335" lon="-2.34594">
        <ele>20.2</ele>
        <time>2018-09-16T09:47:49.000Z</time>
      </trkpt>
      <trkpt lat="46.71334" lon="-2.34593">
        <ele>20.2</ele>
        <time>2018-09-16T09:47:50.000Z</time>
      </trkpt>
      <trkpt lat="46.71333" lon="-2.34591">
        <ele>20.2</ele>
        <time>2018-09-16T09:47:51.000Z</time>
      </trkpt>
      <trkpt lat="46.71333" lon="-2.3459">
        <ele>20.2</ele>
        <time>2018-09-16T09:47:52.000Z</time>
      </trkpt>
      <trkpt lat="46.71332" lon="-2.34589">
        <ele>20.1</ele>
        <time>2018-09-16T09:47:53.000Z</time>
      </trkpt>
      <trkpt lat="46.71332" lon="-2.34587">
        <ele>20.1</ele>
        <time>2018-09-16T09:47:54.000Z</time>
      </trkpt>
      <trkpt lat="46.71331" lon="-2.34586">
        <ele>20.1</ele>
        <time>2018-09-16T09:47:55.000Z</time>
      </trkpt>
      <trkpt lat="46.7133" lon="-2.34585">
        <ele>20</ele>
        <time>2018-09-16T09:47:56.000Z</time>
      </trkpt>
      <trkpt lat="46.7133" lon="-2.34584">
        <ele>20</ele>
        <time>2018-09-16T09:47:57.000Z</time>
      </trkpt>
      <trkpt lat="46.71329" lon="-2.34582">
        <ele>20</ele>
        <time>2018-09-16T09:47:58.000Z</time>
      </trkpt>
      <trkpt lat="46.71328" lon="-2.34581">
        <ele>20</ele>
        <time>2018-09-16T09:47:59.000Z</time>
      </trkpt>
      <trkpt lat="46.71328" lon="-2.3458">
        <ele>19.9</ele>
        <time>2018-09-16T09:48:00.000Z</time>
      </trkpt>
      <trkpt lat="46.71327" lon="-2.34579">
        <ele>19.9</ele>
        <time>2018-09-16T09:48:01.000Z</time>
      </trkpt>
      <trkpt lat="46.71327" lon="-2.34578">
        <ele>19.9</ele>
        <time>2018-09-16T09:48:02.000Z</time>
      </trkpt>
      <trkpt lat="46.71326" lon="-2.34576">
        <ele>19.8</ele>
        <time>2018-09-16T09:48:03.000Z</time>
      </trkpt>
      <trkpt lat="46.71326" lon="-2.34575">
        <ele>19.8</ele>
        <time>2018-09-16T09:48:04.000Z</time>
      </trkpt>
      <trkpt lat="46.71326" lon="-2.34574">
        <ele>19.8</ele>
        <time>2018-09-16T09:48:05.000Z</time>
      </trkpt>
      <trkpt lat="46.71325" lon="-2.34572">
        <ele>19.8</ele>
        <time>2018-09-16T09:48:06.000Z</time>
      </trkpt>
      <trkpt lat="46.71325" lon="-2.34571">
        <ele>19.7</ele>
        <time>2018-09-16T09:48:07.000Z</time>
      </trkpt>
      <trkpt lat="46.71325" lon="-2.3457">
        <ele>19.7</ele>
        <time>2018-09-16T09:48:08.000Z</time>
      </trkpt>
      <trkpt lat="46.71324" lon="-2.34568">
        <ele>19.7</ele>
        <time>2018-09-16T09:48:09.000Z</time>
      </trkpt>
      <trkpt lat="46.71324" lon="-2.34567">
        <ele>19.6</ele>
        <time>2018-09-16T09:48:10.000Z</time>
      </trkpt>
      <trkpt lat="46.71323" lon="-2.34565">
        <ele>19.6</ele>
        <time>2018-09-16T09:48:11.000Z</time>
      </trkpt>
      <trkpt lat="46.71323" lon="-2.34564">
        <ele>19.6</ele>
        <time>2018-09-16T09:48:12.000Z</time>
      </trkpt>
      <trkpt lat="46.71322" lon="-2.34562">
        <ele>19.6</ele>
        <time>2018-09-16T09:48:13.000Z</time>
      </trkpt>
      <trkpt lat="46.71321" lon="-2.34561">
        <ele>19.5</ele>
        <time>2018-09-16T09:48:14.000Z</time>
      </trkpt>
      <trkpt lat="46.71321" lon="-2.34559">
        <ele>19.5</ele>
        <time>2018-09-16T09:48:15.000Z</time>
      </trkpt>
      <trkpt lat="46.7132" lon="-2.34558">
        <ele>19.5</ele>
        <time>2018-09-16T09:48:16.000Z</time>
      </trkpt>
      <trkpt lat="46.71319" lon="-2.34556">
        <ele>19.5</ele>
        <time>2018-09-16T09:48:17.000Z</time>
      </trkpt>
      <trkpt lat="46.71319" lon="-2.34555">
        <ele>19.4</ele>
        <time>2018-09-16T09:48:18.000Z</time>
      </trkpt>
      <trkpt lat="46.71318" lon="-2.34553">
        <ele>19.4</ele>
        <time>2018-09-16T09:48:19.000Z</time>
      </trkpt>
      <trkpt lat="46.71318" lon="-2.34552">
        <ele>19.4</ele>
        <time>2018-09-16T09:48:20.000Z</time>
      </trkpt>
      <trkpt lat="46.71317" lon="-2.3455">
        <ele>19.4</ele>
        <time>2018-09-16T09:48:21.000Z</time>
      </trkpt>
      <trkpt lat="46.71316" lon="-2.34549">
        <ele>19.3</ele>
        <time>2018-09-16T09:48:22.000Z</time>
      </trkpt>
      <trkpt lat="46.71316" lon="-2.34547">
        <ele>19.3</ele>
        <time>2018-09-16T09:48:23.000Z</time>
      </trkpt>
      <trkpt lat="46.71315" lon="-2.34546">
        <ele>19.3</ele>
        <time>2018-09-16T09:48:24.000Z</time>
      </trkpt>
      <trkpt lat="46.71315" lon="-2.34544">
        <ele>19.3</ele>
        <time>2018-09-16T09:48:25.000Z</time>
      </trkpt>
      <trkpt lat="46.71314" lon="-2.34543">
        <ele>19.3</ele>
        <time>2018-09-16T09:48:26.000Z</time>
      </trkpt>
      <trkpt lat="46.71314" lon="-2.34541">
        <ele>19.2</ele>
        <time>2018-09-16T09:48:27.000Z</time>
      </trkpt>
      <trkpt lat="46.71313" lon="-2.3454">
        <ele>19.2</ele>
        <time>2018-09-16T09:48:28.000Z</time>
      </trkpt>
      <trkpt lat="46.71312" lon="-2.34538">
        <ele>19.2</ele>
        <time>2018-09-16T09:48:29.000Z</time>
      </trkpt>
      <trkpt lat="46.71312" lon="-2.34537">
        <ele>19.2</ele>
        <time>2018-09-16T09:48:30.000Z</time>
      </trkpt>
      <trkpt lat="46.71311" lon="-2.34535">
        <ele>19.2</ele>
        <time>2018-09-16T09:48:31.000Z</time>
      </trkpt>
      <trkpt lat="46.71311" lon="-2.34534">
        <ele>19.1</ele>
        <time>2018-09-16T09:48:32.000Z</time>
      </trkpt>
      <trkpt lat="46.7131" lon="-2.34533">
        <ele>19.1</ele>
        <time>2018-09-16T09:48:33.000Z</time>
      </trkpt>
      <trkpt lat="46.7131" lon="-2.34531">
        <ele>19.1</ele>
        <time>2018-09-16T09:48:34.000Z</time>
      </trkpt>
      <trkpt lat="46.71309" lon="-2.3453">
        <ele>19.1</ele>
        <time>2018-09-16T09:48:35.000Z</time>
      </trkpt>
      <trkpt lat="46.71309" lon="-2.34528">
        <ele>19.1</ele>
        <time>2018-09-16T09:48:36.000Z</time>
      </trkpt>
      <trkpt lat="46.71308" lon="-2.34527">
        <ele>19</ele>
        <time>2018-09-16T09:48:37.000Z</time>
      </trkpt>
      <trkpt lat="46.71308" lon="-2.34525">
        <ele>19</ele>
        <time>2018-09-16T09:48:38.000Z</time>
      </trkpt>
      <trkpt lat="46.71308" lon="-2.34524">
        <ele>19</ele>
        <time>2018-09-16T09:48:39.000Z</time>
      </trkpt>
      <trkpt lat="46.71308" lon="-2.34522">
        <ele>19</ele>
        <time>2018-09-16T09:48:40.000Z</time>
      </trkpt>
      <trkpt lat="46.71307" lon="-2.3452">
        <ele>19</ele>
        <time>2018-09-16T09:48:41.000Z</time>
      </trkpt>
      <trkpt lat="46.71307" lon="-2.34518">
        <ele>18.9</ele>
        <time>2018-09-16T09:48:42.000Z</time>
      </trkpt>
      <trkpt lat="46.71307" lon="-2.34516">
        <ele>18.9</ele>
        <time>2018-09-16T09:48:43.000Z</time>
      </trkpt>
      <trkpt lat="46.71307" lon="-2.34515">
        <ele>18.9</ele>
        <time>2018-09-16T09:48:44.000Z</time>
      </trkpt>
      <trkpt lat="46.71307" lon="-2.34513">
        <ele>18.8</ele>
        <time>2018-09-16T09:48:45.000Z</time>
      </trkpt>
      <trkpt lat="46.71307" lon="-2.34511">
        <ele>18.8</ele>
        <time>2018-09-16T09:48:46.000Z</time>
      </trkpt>
      <trkpt lat="46.71306" lon="-2.34509">
        <ele>18.8</ele>
        <time>2018-09-16T09:48:47.000Z</time>
      </trkpt>
      <trkpt lat="46.71306" lon="-2.34508">
        <ele>18.8</ele>
        <time>2018-09-16T09:48:48.000Z</time>
      </trkpt>
      <trkpt lat="46.71306" lon="-2.34506">
        <ele>18.8</ele>
        <time>2018-09-16T09:48:49.000Z</time>
      </trkpt>
      <trkpt lat="46.71306" lon="-2.34505">
        <ele>18.7</ele>
        <time>2018-09-16T09:48:50.000Z</time>
      </trkpt>
      <trkpt lat="46.71305" lon="-2.34503">
        <ele>18.7</ele>
        <time>2018-09-16T09:48:51.000Z</time>
      </trkpt>
      <trkpt lat="46.71305" lon="-2.34502">
        <ele>18.7</ele>
        <time>2018-09-16T09:48:52.000Z</time>
      </trkpt>
      <trkpt lat="46.71305" lon="-2.345">
        <ele>18.7</ele>
        <time>2018-09-16T09:48:53.000Z</time>
      </trkpt>
      <trkpt lat="46.71304" lon="-2.34499">
        <ele>18.7</ele>
        <time>2018-09-16T09:48:54.000Z</time>
      </trkpt>
      <trkpt lat="46.71304" lon="-2.34497">
        <ele>18.8</ele>
        <time>2018-09-16T09:48:55.000Z</time>
      </trkpt>
      <trkpt lat="46.71304" lon="-2.34496">
        <ele>18.8</ele>
        <time>2018-09-16T09:48:56.000Z</time>
      </trkpt>
      <trkpt lat="46.71303" lon="-2.34494">
        <ele>18.8</ele>
        <time>2018-09-16T09:48:57.000Z</time>
      </trkpt>
      <trkpt lat="46.71303" lon="-2.34492">
        <ele>18.9</ele>
        <time>2018-09-16T09:48:58.000Z</time>
      </trkpt>
      <trkpt lat="46.71303" lon="-2.34491">
        <ele>18.9</ele>
        <time>2018-09-16T09:48:59.000Z</time>
      </trkpt>
      <trkpt lat="46.71302" lon="-2.34489">
        <ele>19</ele>
        <time>2018-09-16T09:49:00.000Z</time>
      </trkpt>
      <trkpt lat="46.71302" lon="-2.34487">
        <ele>19</ele>
        <time>2018-09-16T09:49:01.000Z</time>
      </trkpt>
      <trkpt lat="46.71302" lon="-2.34486">
        <ele>19</ele>
        <time>2018-09-16T09:49:02.000Z</time>
      </trkpt>
      <trkpt lat="46.71302" lon="-2.34484">
        <ele>19.1</ele>
        <time>2018-09-16T09:49:03.000Z</time>
      </trkpt>
      <trkpt lat="46.71301" lon="-2.34482">
        <ele>19.1</ele>
        <time>2018-09-16T09:49:04.000Z</time>
      </trkpt>
      <trkpt lat="46.71301" lon="-2.3448">
        <ele>19.2</ele>
        <time>2018-09-16T09:49:05.000Z</time>
      </trkpt>
      <trkpt lat="46.71301" lon="-2.34479">
        <ele>19.2</ele>
        <time>2018-09-16T09:49:06.000Z</time>
      </trkpt>
      <trkpt lat="46.713" lon="-2.34477">
        <ele>19.2</ele>
        <time>2018-09-16T09:49:07.000Z</time>
      </trkpt>
      <trkpt lat="46.713" lon="-2.34476">
        <ele>19.3</ele>
        <time>2018-09-16T09:49:08.000Z</time>
      </trkpt>
      <trkpt lat="46.713" lon="-2.34474">
        <ele>19.3</ele>
        <time>2018-09-16T09:49:09.000Z</time>
      </trkpt>
      <trkpt lat="46.71299" lon="-2.34472">
        <ele>19.3</ele>
        <time>2018-09-16T09:49:10.000Z</time>
      </trkpt>
      <trkpt lat="46.71299" lon="-2.34471">
        <ele>19.4</ele>
        <time>2018-09-16T09:49:11.000Z</time>
      </trkpt>
      <trkpt lat="46.71299" lon="-2.34469">
        <ele>19.4</ele>
        <time>2018-09-16T09:49:12.000Z</time>
      </trkpt>
      <trkpt lat="46.71298" lon="-2.34468">
        <ele>19.5</ele>
        <time>2018-09-16T09:49:13.000Z</time>
      </trkpt>
      <trkpt lat="46.71298" lon="-2.34466">
        <ele>19.5</ele>
        <time>2018-09-16T09:49:14.000Z</time>
      </trkpt>
      <trkpt lat="46.71297" lon="-2.34465">
        <ele>19.5</ele>
        <time>2018-09-16T09:49:15.000Z</time>
      </trkpt>
      <trkpt lat="46.71297" lon="-2.34463">
        <ele>19.6</ele>
        <time>2018-09-16T09:49:16.000Z</time>
      </trkpt>
      <trkpt lat="46.71297" lon="-2.34462">
        <ele>19.6</ele>
        <time>2018-09-16T09:49:17.000Z</time>
      </trkpt>
      <trkpt lat="46.71296" lon="-2.34461">
        <ele>19.6</ele>
        <time>2018-09-16T09:49:18.000Z</time>
      </trkpt>
      <trkpt lat="46.71296" lon="-2.34459">
        <ele>19.7</ele>
        <time>2018-09-16T09:49:19.000Z</time>
      </trkpt>
      <trkpt lat="46.71295" lon="-2.34458">
        <ele>19.7</ele>
        <time>2018-09-16T09:49:20.000Z</time>
      </trkpt>
      <trkpt lat="46.71295" lon="-2.34457">
        <ele>19.7</ele>
        <time>2018-09-16T09:49:21.000Z</time>
      </trkpt>
      <trkpt lat="46.71294" lon="-2.34455">
        <ele>19.8</ele>
        <time>2018-09-16T09:49:22.000Z</time>
      </trkpt>
      <trkpt lat="46.71294" lon="-2.34454">
        <ele>19.8</ele>
        <time>2018-09-16T09:49:23.000Z</time>
      </trkpt>
      <trkpt lat="46.71293" lon="-2.34453">
        <ele>19.8</ele>
        <time>2018-09-16T09:49:24.000Z</time>
      </trkpt>
      <trkpt lat="46.71292" lon="-2.34451">
        <ele>19.9</ele>
        <time>2018-09-16T09:49:25.000Z</time>
      </trkpt>
      <trkpt lat="46.71292" lon="-2.3445">
        <ele>19.9</ele>
        <time>2018-09-16T09:49:26.000Z</time>
      </trkpt>
      <trkpt lat="46.71291" lon="-2.34449">
        <ele>19.9</ele>
        <time>2018-09-16T09:49:27.000Z</time>
      </trkpt>
      <trkpt lat="46.71291" lon="-2.34447">
        <ele>20</ele>
        <time>2018-09-16T09:49:28.000Z</time>
      </trkpt>
      <trkpt lat="46.7129" lon="-2.34446">
        <ele>20</ele>
        <time>2018-09-16T09:49:29.000Z</time>
      </trkpt>
      <trkpt lat="46.71289" lon="-2.34445">
        <ele>20</ele>
        <time>2018-09-16T09:49:30.000Z</time>
      </trkpt>
      <trkpt lat="46.71289" lon="-2.34444">
        <ele>20.1</ele>
        <time>2018-09-16T09:49:31.000Z</time>
      </trkpt>
      <trkpt lat="46.71288" lon="-2.34442">
        <ele>20.1</ele>
        <time>2018-09-16T09:49:32.000Z</time>
      </trkpt>
      <trkpt lat="46.71287" lon="-2.34441">
        <ele>20.1</ele>
        <time>2018-09-16T09:49:33.000Z</time>
      </trkpt>
      <trkpt lat="46.71287" lon="-2.3444">
        <ele>20.2</ele>
        <time>2018-09-16T09:49:34.000Z</time>
      </trkpt>
      <trkpt lat="46.71286" lon="-2.34438">
        <ele>20.2</ele>
        <time>2018-09-16T09:49:35.000Z</time>
      </trkpt>
      <trkpt lat="46.71285" lon="-2.34437">
        <ele>20.2</ele>
        <time>2018-09-16T09:49:36.000Z</time>
      </trkpt>
      <trkpt lat="46.71285" lon="-2.34436">
        <ele>20.3</ele>
        <time>2018-09-16T09:49:37.000Z</time>
      </trkpt>
      <trkpt lat="46.71284" lon="-2.34434">
        <ele>20.3</ele>
        <time>2018-09-16T09:49:38.000Z</time>
      </trkpt>
      <trkpt lat="46.71284" lon="-2.34433">
        <ele>20.3</ele>
        <time>2018-09-16T09:49:39.000Z</time>
      </trkpt>
      <trkpt lat="46.71283" lon="-2.34432">
        <ele>20.3</ele>
        <time>2018-09-16T09:49:40.000Z</time>
      </trkpt>
      <trkpt lat="46.71283" lon="-2.3443">
        <ele>20.4</ele>
        <time>2018-09-16T09:49:41.000Z</time>
      </trkpt>
      <trkpt lat="46.71282" lon="-2.34429">
        <ele>20.4</ele>
        <time>2018-09-16T09:49:42.000Z</time>
      </trkpt>
      <trkpt lat="46.71282" lon="-2.34428">
        <ele>20.4</ele>
        <time>2018-09-16T09:49:43.000Z</time>
      </trkpt>
      <trkpt lat="46.71282" lon="-2.34426">
        <ele>20.5</ele>
        <time>2018-09-16T09:49:44.000Z</time>
      </trkpt>
      <trkpt lat="46.71281" lon="-2.34425">
        <ele>20.5</ele>
        <time>2018-09-16T09:49:45.000Z</time>
      </trkpt>
      <trkpt lat="46.71281" lon="-2.34423">
        <ele>20.5</ele>
        <time>2018-09-16T09:49:46.000Z</time>
      </trkpt>
      <trkpt lat="46.7128" lon="-2.34422">
        <ele>20.5</ele>
        <time>2018-09-16T09:49:47.000Z</time>
      </trkpt>
      <trkpt lat="46.7128" lon="-2.3442">
        <ele>20.6</ele>
        <time>2018-09-16T09:49:48.000Z</time>
      </trkpt>
      <trkpt lat="46.7128" lon="-2.34419">
        <ele>20.6</ele>
        <time>2018-09-16T09:49:49.000Z</time>
      </trkpt>
      <trkpt lat="46.71279" lon="-2.34417">
        <ele>20.6</ele>
        <time>2018-09-16T09:49:50.000Z</time>
      </trkpt>
      <trkpt lat="46.71279" lon="-2.34415">
        <ele>20.7</ele>
        <time>2018-09-16T09:49:51.000Z</time>
      </trkpt>
      <trkpt lat="46.71278" lon="-2.34414">
        <ele>20.7</ele>
        <time>2018-09-16T09:49:52.000Z</time>
      </trkpt>
      <trkpt lat="46.71278" lon="-2.34412">
        <ele>20.7</ele>
        <time>2018-09-16T09:49:53.000Z</time>
      </trkpt>
      <trkpt lat="46.71277" lon="-2.3441">
        <ele>20.8</ele>
        <time>2018-09-16T09:49:54.000Z</time>
      </trkpt>
      <trkpt lat="46.71277" lon="-2.34408">
        <ele>20.8</ele>
        <time>2018-09-16T09:49:55.000Z</time>
      </trkpt>
      <trkpt lat="46.71277" lon="-2.34407">
        <ele>20.8</ele>
        <time>2018-09-16T09:49:56.000Z</time>
      </trkpt>
      <trkpt lat="46.71276" lon="-2.34405">
        <ele>20.8</ele>
        <time>2018-09-16T09:49:57.000Z</time>
      </trkpt>
      <trkpt lat="46.71276" lon="-2.34403">
        <ele>20.9</ele>
        <time>2018-09-16T09:49:58.000Z</time>
      </trkpt>
      <trkpt lat="46.71275" lon="-2.34402">
        <ele>20.9</ele>
        <time>2018-09-16T09:49:59.000Z</time>
      </trkpt>
      <trkpt lat="46.71275" lon="-2.344">
        <ele>20.9</ele>
        <time>2018-09-16T09:50:00.000Z</time>
      </trkpt>
      <trkpt lat="46.71274" lon="-2.34399">
        <ele>20.9</ele>
        <time>2018-09-16T09:50:01.000Z</time>
      </trkpt>
      <trkpt lat="46.71273" lon="-2.34397">
        <ele>21</ele>
        <time>2018-09-16T09:50:02.000Z</time>
      </trkpt>
      <trkpt lat="46.71273" lon="-2.34396">
        <ele>21</ele>
        <time>2018-09-16T09:50:03.000Z</time>
      </trkpt>
      <trkpt lat="46.71272" lon="-2.34394">
        <ele>21</ele>
        <time>2018-09-16T09:50:04.000Z</time>
      </trkpt>
      <trkpt lat="46.71272" lon="-2.34393">
        <ele>21</ele>
        <time>2018-09-16T09:50:05.000Z</time>
      </trkpt>
      <trkpt lat="46.71271" lon="-2.34392">
        <ele>21</ele>
        <time>2018-09-16T09:50:06.000Z</time>
      </trkpt>
      <trkpt lat="46.71271" lon="-2.3439">
        <ele>21.1</ele>
        <time>2018-09-16T09:50:07.000Z</time>
      </trkpt>
      <trkpt lat="46.7127" lon="-2.34389">
        <ele>21.1</ele>
        <time>2018-09-16T09:50:08.000Z</time>
      </trkpt>
      <trkpt lat="46.71269" lon="-2.34387">
        <ele>21.1</ele>
        <time>2018-09-16T09:50:09.000Z</time>
      </trkpt>
      <trkpt lat="46.71269" lon="-2.34386">
        <ele>21.1</ele>
        <time>2018-09-16T09:50:10.000Z</time>
      </trkpt>
      <trkpt lat="46.71268" lon="-2.34385">
        <ele>21.2</ele>
        <time>2018-09-16T09:50:11.000Z</time>
      </trkpt>
      <trkpt lat="46.71267" lon="-2.34383">
        <ele>21.2</ele>
        <time>2018-09-16T09:50:12.000Z</time>
      </trkpt>
      <trkpt lat="46.71267" lon="-2.34382">
        <ele>21.2</ele>
        <time>2018-09-16T09:50:13.000Z</time>
      </trkpt>
      <trkpt lat="46.71266" lon="-2.34381">
        <ele>21.2</ele>
        <time>2018-09-16T09:50:14.000Z</time>
      </trkpt>
      <trkpt lat="46.71265" lon="-2.3438">
        <ele>21.3</ele>
        <time>2018-09-16T09:50:15.000Z</time>
      </trkpt>
      <trkpt lat="46.71265" lon="-2.34378">
        <ele>21.3</ele>
        <time>2018-09-16T09:50:16.000Z</time>
      </trkpt>
      <trkpt lat="46.71264" lon="-2.34377">
        <ele>21.3</ele>
        <time>2018-09-16T09:50:17.000Z</time>
      </trkpt>
      <trkpt lat="46.71263" lon="-2.34376">
        <ele>21.3</ele>
        <time>2018-09-16T09:50:18.000Z</time>
      </trkpt>
      <trkpt lat="46.71262" lon="-2.34374">
        <ele>21.4</ele>
        <time>2018-09-16T09:50:19.000Z</time>
      </trkpt>
      <trkpt lat="46.71262" lon="-2.34373">
        <ele>21.4</ele>
        <time>2018-09-16T09:50:20.000Z</time>
      </trkpt>
      <trkpt lat="46.71261" lon="-2.34372">
        <ele>21.4</ele>
        <time>2018-09-16T09:50:21.000Z</time>
      </trkpt>
      <trkpt lat="46.7126" lon="-2.34371">
        <ele>21.4</ele>
        <time>2018-09-16T09:50:22.000Z</time>
      </trkpt>
      <trkpt lat="46.7126" lon="-2.3437">
        <ele>21.5</ele>
        <time>2018-09-16T09:50:23.000Z</time>
      </trkpt>
      <trkpt lat="46.71259" lon="-2.34368">
        <ele>21.5</ele>
        <time>2018-09-16T09:50:24.000Z</time>
      </trkpt>
      <trkpt lat="46.71258" lon="-2.34367">
        <ele>21.5</ele>
        <time>2018-09-16T09:50:25.000Z</time>
      </trkpt>
      <trkpt lat="46.71258" lon="-2.34366">
        <ele>21.5</ele>
        <time>2018-09-16T09:50:26.000Z</time>
      </trkpt>
      <trkpt lat="46.71257" lon="-2.34365">
        <ele>21.5</ele>
        <time>2018-09-16T09:50:27.000Z</time>
      </trkpt>
      <trkpt lat="46.71257" lon="-2.34364">
        <ele>21.6</ele>
        <time>2018-09-16T09:50:28.000Z</time>
      </trkpt>
      <trkpt lat="46.71256" lon="-2.34362">
        <ele>21.6</ele>
        <time>2018-09-16T09:50:29.000Z</time>
      </trkpt>
      <trkpt lat="46.71255" lon="-2.34361">
        <ele>21.6</ele>
        <time>2018-09-16T09:50:30.000Z</time>
      </trkpt>
      <trkpt lat="46.71255" lon="-2.3436">
        <ele>21.6</ele>
        <time>2018-09-16T09:50:31.000Z</time>
      </trkpt>
      <trkpt lat="46.71254" lon="-2.34359">
        <ele>21.6</ele>
        <time>2018-09-16T09:50:32.000Z</time>
      </trkpt>
      <trkpt lat="46.71253" lon="-2.34357">
        <ele>21.7</ele>
        <time>2018-09-16T09:50:33.000Z</time>
      </trkpt>
      <trkpt lat="46.71252" lon="-2.34356">
        <ele>21.7</ele>
        <time>2018-09-16T09:50:34.000Z</time>
      </trkpt>
      <trkpt lat="46.71251" lon="-2.34355">
        <ele>21.7</ele>
        <time>2018-09-16T09:50:35.000Z</time>
      </trkpt>
      <trkpt lat="46.7125" lon="-2.34354">
        <ele>21.8</ele>
        <time>2018-09-16T09:50:36.000Z</time>
      </trkpt>
      <trkpt lat="46.71249" lon="-2.34352">
        <ele>21.8</ele>
        <time>2018-09-16T09:50:37.000Z</time>
      </trkpt>
      <trkpt lat="46.71248" lon="-2.34351">
        <ele>21.8</ele>
        <time>2018-09-16T09:50:38.000Z</time>
      </trkpt>
      <trkpt lat="46.71247" lon="-2.3435">
        <ele>21.8</ele>
        <time>2018-09-16T09:50:39.000Z</time>
      </trkpt>
      <trkpt lat="46.71246" lon="-2.34348">
        <ele>21.9</ele>
        <time>2018-09-16T09:50:40.000Z</time>
      </trkpt>
      <trkpt lat="46.71245" lon="-2.34347">
        <ele>21.9</ele>
        <time>2018-09-16T09:50:41.000Z</time>
      </trkpt>
      <trkpt lat="46.71245" lon="-2.34346">
        <ele>21.9</ele>
        <time>2018-09-16T09:50:42.000Z</time>
      </trkpt>
      <trkpt lat="46.71244" lon="-2.34345">
        <ele>22</ele>
        <time>2018-09-16T09:50:43.000Z</time>
      </trkpt>
      <trkpt lat="46.71243" lon="-2.34343">
        <ele>22</ele>
        <time>2018-09-16T09:50:44.000Z</time>
      </trkpt>
      <trkpt lat="46.71242" lon="-2.34342">
        <ele>22</ele>
        <time>2018-09-16T09:50:45.000Z</time>
      </trkpt>
      <trkpt lat="46.71241" lon="-2.34341">
        <ele>22</ele>
        <time>2018-09-16T09:50:46.000Z</time>
      </trkpt>
      <trkpt lat="46.7124" lon="-2.3434">
        <ele>22.1</ele>
        <time>2018-09-16T09:50:47.000Z</time>
      </trkpt>
      <trkpt lat="46.71239" lon="-2.34339">
        <ele>22.1</ele>
        <time>2018-09-16T09:50:48.000Z</time>
      </trkpt>
      <trkpt lat="46.71238" lon="-2.34338">
        <ele>22.1</ele>
        <time>2018-09-16T09:50:49.000Z</time>
      </trkpt>
      <trkpt lat="46.71238" lon="-2.34337">
        <ele>22.1</ele>
        <time>2018-09-16T09:50:50.000Z</time>
      </trkpt>
      <trkpt lat="46.71237" lon="-2.34336">
        <ele>22.1</ele>
        <time>2018-09-16T09:50:51.000Z</time>
      </trkpt>
      <trkpt lat="46.71236" lon="-2.34335">
        <ele>22.2</ele>
        <time>2018-09-16T09:50:52.000Z</time>
      </trkpt>
      <trkpt lat="46.71235" lon="-2.34334">
        <ele>22.2</ele>
        <time>2018-09-16T09:50:53.000Z</time>
      </trkpt>
      <trkpt lat="46.71234" lon="-2.34333">
        <ele>22.2</ele>
        <time>2018-09-16T09:50:54.000Z</time>
      </trkpt>
      <trkpt lat="46.71233" lon="-2.34332">
        <ele>22.2</ele>
        <time>2018-09-16T09:50:55.000Z</time>
      </trkpt>
      <trkpt lat="46.71232" lon="-2.3433">
        <ele>22.2</ele>
        <time>2018-09-16T09:50:56.000Z</time>
      </trkpt>
      <trkpt lat="46.71231" lon="-2.34329">
        <ele>22.2</ele>
        <time>2018-09-16T09:50:57.000Z</time>
      </trkpt>
      <trkpt lat="46.71231" lon="-2.34328">
        <ele>22.2</ele>
        <time>2018-09-16T09:50:58.000Z</time>
      </trkpt>
      <trkpt lat="46.7123" lon="-2.34326">
        <ele>22.2</ele>
        <time>2018-09-16T09:50:59.000Z</time>
      </trkpt>
      <trkpt lat="46.71229" lon="-2.34325">
        <ele>22.2</ele>
        <time>2018-09-16T09:51:00.000Z</time>
      </trkpt>
      <trkpt lat="46.71228" lon="-2.34324">
        <ele>22.1</ele>
        <time>2018-09-16T09:51:01.000Z</time>
      </trkpt>
      <trkpt lat="46.71227" lon="-2.34322">
        <ele>22.1</ele>
        <time>2018-09-16T09:51:02.000Z</time>
      </trkpt>
      <trkpt lat="46.71226" lon="-2.34321">
        <ele>22.1</ele>
        <time>2018-09-16T09:51:03.000Z</time>
      </trkpt>
      <trkpt lat="46.71225" lon="-2.3432">
        <ele>22.1</ele>
        <time>2018-09-16T09:51:04.000Z</time>
      </trkpt>
      <trkpt lat="46.71225" lon="-2.34318">
        <ele>22.1</ele>
        <time>2018-09-16T09:51:05.000Z</time>
      </trkpt>
      <trkpt lat="46.71224" lon="-2.34317">
        <ele>22.1</ele>
        <time>2018-09-16T09:51:06.000Z</time>
      </trkpt>
      <trkpt lat="46.71223" lon="-2.34316">
        <ele>22.1</ele>
        <time>2018-09-16T09:51:07.000Z</time>
      </trkpt>
      <trkpt lat="46.71223" lon="-2.34315">
        <ele>22.1</ele>
        <time>2018-09-16T09:51:08.000Z</time>
      </trkpt>
      <trkpt lat="46.71222" lon="-2.34314">
        <ele>22.1</ele>
        <time>2018-09-16T09:51:09.000Z</time>
      </trkpt>
      <trkpt lat="46.71221" lon="-2.34313">
        <ele>22.1</ele>
        <time>2018-09-16T09:51:10.000Z</time>
      </trkpt>
      <trkpt lat="46.71221" lon="-2.34312">
        <ele>22.1</ele>
        <time>2018-09-16T09:51:11.000Z</time>
      </trkpt>
      <trkpt lat="46.7122" lon="-2.3431">
        <ele>22.1</ele>
        <time>2018-09-16T09:51:12.000Z</time>
      </trkpt>
      <trkpt lat="46.7122" lon="-2.34309">
        <ele>22.1</ele>
        <time>2018-09-16T09:51:13.000Z</time>
      </trkpt>
      <trkpt lat="46.71219" lon="-2.34308">
        <ele>22.1</ele>
        <time>2018-09-16T09:51:14.000Z</time>
      </trkpt>
      <trkpt lat="46.71218" lon="-2.34307">
        <ele>22.1</ele>
        <time>2018-09-16T09:51:15.000Z</time>
      </trkpt>
      <trkpt lat="46.71218" lon="-2.34305">
        <ele>22</ele>
        <time>2018-09-16T09:51:16.000Z</time>
      </trkpt>
      <trkpt lat="46.71217" lon="-2.34304">
        <ele>22</ele>
        <time>2018-09-16T09:51:17.000Z</time>
      </trkpt>
      <trkpt lat="46.71217" lon="-2.34302">
        <ele>22</ele>
        <time>2018-09-16T09:51:18.000Z</time>
      </trkpt>
      <trkpt lat="46.71216" lon="-2.34301">
        <ele>22</ele>
        <time>2018-09-16T09:51:19.000Z</time>
      </trkpt>
      <trkpt lat="46.71215" lon="-2.343">
        <ele>22</ele>
        <time>2018-09-16T09:51:20.000Z</time>
      </trkpt>
      <trkpt lat="46.71215" lon="-2.34298">
        <ele>22</ele>
        <time>2018-09-16T09:51:21.000Z</time>
      </trkpt>
      <trkpt lat="46.71214" lon="-2.34297">
        <ele>22</ele>
        <time>2018-09-16T09:51:22.000Z</time>
      </trkpt>
      <trkpt lat="46.71213" lon="-2.34295">
        <ele>22</ele>
        <time>2018-09-16T09:51:23.000Z</time>
      </trkpt>
      <trkpt lat="46.71213" lon="-2.34294">
        <ele>22</ele>
        <time>2018-09-16T09:51:24.000Z</time>
      </trkpt>
      <trkpt lat="46.71212" lon="-2.34292">
        <ele>22</ele>
        <time>2018-09-16T09:51:25.000Z</time>
      </trkpt>
      <trkpt lat="46.71211" lon="-2.34291">
        <ele>22</ele>
        <time>2018-09-16T09:51:26.000Z</time>
      </trkpt>
      <trkpt lat="46.7121" lon="-2.34289">
        <ele>21.9</ele>
        <time>2018-09-16T09:51:27.000Z</time>
      </trkpt>
      <trkpt lat="46.7121" lon="-2.34288">
        <ele>21.9</ele>
        <time>2018-09-16T09:51:28.000Z</time>
      </trkpt>
      <trkpt lat="46.71209" lon="-2.34286">
        <ele>21.9</ele>
        <time>2018-09-16T09:51:29.000Z</time>
      </trkpt>
      <trkpt lat="46.71208" lon="-2.34285">
        <ele>21.9</ele>
        <time>2018-09-16T09:51:30.000Z</time>
      </trkpt>
      <trkpt lat="46.71207" lon="-2.34284">
        <ele>21.9</ele>
        <time>2018-09-16T09:51:31.000Z</time>
      </trkpt>
      <trkpt lat="46.71206" lon="-2.34282">
        <ele>21.9</ele>
        <time>2018-09-16T09:51:32.000Z</time>
      </trkpt>
      <trkpt lat="46.71205" lon="-2.34281">
        <ele>21.9</ele>
        <time>2018-09-16T09:51:33.000Z</time>
      </trkpt>
      <trkpt lat="46.71204" lon="-2.3428">
        <ele>21.9</ele>
        <time>2018-09-16T09:51:34.000Z</time>
      </trkpt>
      <trkpt lat="46.71203" lon="-2.34278">
        <ele>21.9</ele>
        <time>2018-09-16T09:51:35.000Z</time>
      </trkpt>
      <trkpt lat="46.71203" lon="-2.34277">
        <ele>21.9</ele>
        <time>2018-09-16T09:51:36.000Z</time>
      </trkpt>
      <trkpt lat="46.71202" lon="-2.34276">
        <ele>21.9</ele>
        <time>2018-09-16T09:51:37.000Z</time>
      </trkpt>
      <trkpt lat="46.71201" lon="-2.34275">
        <ele>21.9</ele>
        <time>2018-09-16T09:51:38.000Z</time>
      </trkpt>
      <trkpt lat="46.712" lon="-2.34274">
        <ele>21.9</ele>
        <time>2018-09-16T09:51:39.000Z</time>
      </trkpt>
      <trkpt lat="46.71199" lon="-2.34273">
        <ele>21.9</ele>
        <time>2018-09-16T09:51:40.000Z</time>
      </trkpt>
      <trkpt lat="46.71198" lon="-2.34272">
        <ele>21.9</ele>
        <time>2018-09-16T09:51:41.000Z</time>
      </trkpt>
      <trkpt lat="46.71197" lon="-2.34271">
        <ele>21.9</ele>
        <time>2018-09-16T09:51:42.000Z</time>
      </trkpt>
      <trkpt lat="46.71196" lon="-2.3427">
        <ele>21.9</ele>
        <time>2018-09-16T09:51:43.000Z</time>
      </trkpt>
      <trkpt lat="46.71195" lon="-2.34269">
        <ele>21.9</ele>
        <time>2018-09-16T09:51:44.000Z</time>
      </trkpt>
      <trkpt lat="46.71194" lon="-2.34268">
        <ele>21.9</ele>
        <time>2018-09-16T09:51:45.000Z</time>
      </trkpt>
      <trkpt lat="46.71193" lon="-2.34267">
        <ele>21.9</ele>
        <time>2018-09-16T09:51:46.000Z</time>
      </trkpt>
      <trkpt lat="46.71192" lon="-2.34266">
        <ele>21.9</ele>
        <time>2018-09-16T09:51:47.000Z</time>
      </trkpt>
      <trkpt lat="46.71191" lon="-2.34265">
        <ele>21.9</ele>
        <time>2018-09-16T09:51:48.000Z</time>
      </trkpt>
      <trkpt lat="46.7119" lon="-2.34264">
        <ele>21.9</ele>
        <time>2018-09-16T09:51:49.000Z</time>
      </trkpt>
      <trkpt lat="46.71189" lon="-2.34263">
        <ele>21.9</ele>
        <time>2018-09-16T09:51:50.000Z</time>
      </trkpt>
      <trkpt lat="46.71188" lon="-2.34262">
        <ele>21.9</ele>
        <time>2018-09-16T09:51:51.000Z</time>
      </trkpt>
      <trkpt lat="46.71188" lon="-2.34261">
        <ele>21.9</ele>
        <time>2018-09-16T09:51:52.000Z</time>
      </trkpt>
      <trkpt lat="46.71187" lon="-2.3426">
        <ele>21.9</ele>
        <time>2018-09-16T09:51:53.000Z</time>
      </trkpt>
      <trkpt lat="46.71186" lon="-2.34259">
        <ele>21.9</ele>
        <time>2018-09-16T09:51:54.000Z</time>
      </trkpt>
      <trkpt lat="46.71186" lon="-2.34257">
        <ele>21.9</ele>
        <time>2018-09-16T09:51:55.000Z</time>
      </trkpt>
      <trkpt lat="46.71186" lon="-2.34256">
        <ele>21.8</ele>
        <time>2018-09-16T09:51:56.000Z</time>
      </trkpt>
      <trkpt lat="46.71185" lon="-2.34255">
        <ele>21.8</ele>
        <time>2018-09-16T09:51:57.000Z</time>
      </trkpt>
      <trkpt lat="46.71185" lon="-2.34254">
        <ele>21.8</ele>
        <time>2018-09-16T09:51:58.000Z</time>
      </trkpt>
      <trkpt lat="46.71184" lon="-2.34253">
        <ele>21.8</ele>
        <time>2018-09-16T09:51:59.000Z</time>
      </trkpt>
      <trkpt lat="46.71182" lon="-2.34253">
        <ele>21.8</ele>
        <time>2018-09-16T09:52:00.000Z</time>
      </trkpt>
      <trkpt lat="46.71181" lon="-2.34252">
        <ele>21.9</ele>
        <time>2018-09-16T09:52:01.000Z</time>
      </trkpt>
      <trkpt lat="46.71179" lon="-2.34252">
        <ele>21.9</ele>
        <time>2018-09-16T09:52:02.000Z</time>
      </trkpt>
      <trkpt lat="46.71178" lon="-2.34252">
        <ele>21.9</ele>
        <time>2018-09-16T09:52:03.000Z</time>
      </trkpt>
      <trkpt lat="46.71177" lon="-2.34252">
        <ele>21.9</ele>
        <time>2018-09-16T09:52:04.000Z</time>
      </trkpt>
      <trkpt lat="46.71176" lon="-2.34253">
        <ele>21.9</ele>
        <time>2018-09-16T09:52:05.000Z</time>
      </trkpt>
      <trkpt lat="46.71175" lon="-2.34253">
        <ele>21.9</ele>
        <time>2018-09-16T09:52:06.000Z</time>
      </trkpt>
      <trkpt lat="46.71175" lon="-2.34254">
        <ele>22</ele>
        <time>2018-09-16T09:52:07.000Z</time>
      </trkpt>
      <trkpt lat="46.71174" lon="-2.34255">
        <ele>22</ele>
        <time>2018-09-16T09:52:08.000Z</time>
      </trkpt>
      <trkpt lat="46.71173" lon="-2.34255">
        <ele>22</ele>
        <time>2018-09-16T09:52:09.000Z</time>
      </trkpt>
      <trkpt lat="46.71172" lon="-2.34256">
        <ele>22</ele>
        <time>2018-09-16T09:52:10.000Z</time>
      </trkpt>
      <trkpt lat="46.71171" lon="-2.34257">
        <ele>22</ele>
        <time>2018-09-16T09:52:11.000Z</time>
      </trkpt>
      <trkpt lat="46.7117" lon="-2.34257">
        <ele>22</ele>
        <time>2018-09-16T09:52:12.000Z</time>
      </trkpt>
      <trkpt lat="46.71169" lon="-2.34258">
        <ele>22.1</ele>
        <time>2018-09-16T09:52:13.000Z</time>
      </trkpt>
      <trkpt lat="46.71168" lon="-2.34258">
        <ele>22.1</ele>
        <time>2018-09-16T09:52:14.000Z</time>
      </trkpt>
      <trkpt lat="46.71167" lon="-2.34259">
        <ele>22.1</ele>
        <time>2018-09-16T09:52:15.000Z</time>
      </trkpt>
      <trkpt lat="46.71166" lon="-2.34259">
        <ele>22.1</ele>
        <time>2018-09-16T09:52:16.000Z</time>
      </trkpt>
      <trkpt lat="46.71165" lon="-2.3426">
        <ele>22.1</ele>
        <time>2018-09-16T09:52:17.000Z</time>
      </trkpt>
      <trkpt lat="46.71164" lon="-2.3426">
        <ele>22.2</ele>
        <time>2018-09-16T09:52:18.000Z</time>
      </trkpt>
      <trkpt lat="46.71164" lon="-2.34261">
        <ele>22.2</ele>
        <time>2018-09-16T09:52:19.000Z</time>
      </trkpt>
      <trkpt lat="46.71163" lon="-2.34262">
        <ele>22.2</ele>
        <time>2018-09-16T09:52:20.000Z</time>
      </trkpt>
      <trkpt lat="46.71162" lon="-2.34262">
        <ele>22.2</ele>
        <time>2018-09-16T09:52:21.000Z</time>
      </trkpt>
      <trkpt lat="46.71161" lon="-2.34263">
        <ele>22.2</ele>
        <time>2018-09-16T09:52:22.000Z</time>
      </trkpt>
      <trkpt lat="46.7116" lon="-2.34264">
        <ele>22.2</ele>
        <time>2018-09-16T09:52:23.000Z</time>
      </trkpt>
      <trkpt lat="46.71159" lon="-2.34264">
        <ele>22.3</ele>
        <time>2018-09-16T09:52:24.000Z</time>
      </trkpt>
      <trkpt lat="46.71159" lon="-2.34265">
        <ele>22.3</ele>
        <time>2018-09-16T09:52:25.000Z</time>
      </trkpt>
      <trkpt lat="46.71158" lon="-2.34266">
        <ele>22.3</ele>
        <time>2018-09-16T09:52:26.000Z</time>
      </trkpt>
      <trkpt lat="46.71156" lon="-2.34267">
        <ele>22.3</ele>
        <time>2018-09-16T09:52:27.000Z</time>
      </trkpt>
      <trkpt lat="46.71155" lon="-2.34267">
        <ele>22.3</ele>
        <time>2018-09-16T09:52:28.000Z</time>
      </trkpt>
      <trkpt lat="46.71154" lon="-2.34268">
        <ele>22.4</ele>
        <time>2018-09-16T09:52:29.000Z</time>
      </trkpt>
      <trkpt lat="46.71153" lon="-2.34269">
        <ele>22.4</ele>
        <time>2018-09-16T09:52:30.000Z</time>
      </trkpt>
      <trkpt lat="46.71152" lon="-2.34269">
        <ele>22.4</ele>
        <time>2018-09-16T09:52:31.000Z</time>
      </trkpt>
      <trkpt lat="46.71151" lon="-2.3427">
        <ele>22.4</ele>
        <time>2018-09-16T09:52:32.000Z</time>
      </trkpt>
      <trkpt lat="46.71151" lon="-2.3427">
        <ele>22.4</ele>
        <time>2018-09-16T09:52:33.000Z</time>
      </trkpt>
      <trkpt lat="46.7115" lon="-2.34271">
        <ele>22.4</ele>
        <time>2018-09-16T09:52:34.000Z</time>
      </trkpt>
      <trkpt lat="46.71149" lon="-2.34271">
        <ele>22.5</ele>
        <time>2018-09-16T09:52:35.000Z</time>
      </trkpt>
      <trkpt lat="46.71149" lon="-2.34271">
        <ele>22.5</ele>
        <time>2018-09-16T09:52:36.000Z</time>
      </trkpt>
      <trkpt lat="46.71149" lon="-2.34271">
        <ele>22.5</ele>
        <time>2018-09-16T09:52:37.000Z</time>
      </trkpt>
      <trkpt lat="46.71148" lon="-2.34271">
        <ele>22.5</ele>
        <time>2018-09-16T09:52:38.000Z</time>
      </trkpt>
      <trkpt lat="46.71148" lon="-2.34271">
        <ele>22.5</ele>
        <time>2018-09-16T09:52:39.000Z</time>
      </trkpt>
      <trkpt lat="46.71148" lon="-2.34271">
        <ele>22.5</ele>
        <time>2018-09-16T09:52:40.000Z</time>
      </trkpt>
      <trkpt lat="46.71148" lon="-2.34271">
        <ele>22.5</ele>
        <time>2018-09-16T09:52:41.000Z</time>
      </trkpt>
      <trkpt lat="46.71148" lon="-2.34271">
        <ele>22.5</ele>
        <time>2018-09-16T09:52:42.000Z</time>
      </trkpt>
      <trkpt lat="46.71148" lon="-2.34271">
        <ele>22.5</ele>
        <time>2018-09-16T09:52:43.000Z</time>
      </trkpt>
      <trkpt lat="46.71148" lon="-2.34271">
        <ele>22.5</ele>
        <time>2018-09-16T09:52:44.000Z</time>
      </trkpt>
      <trkpt lat="46.71148" lon="-2.34271">
        <ele>22.5</ele>
        <time>2018-09-16T09:52:45.000Z</time>
      </trkpt>
      <trkpt lat="46.71148" lon="-2.34271">
        <ele>22.5</ele>
        <time>2018-09-16T09:52:46.000Z</time>
      </trkpt>
      <trkpt lat="46.71148" lon="-2.34271">
        <ele>22.5</ele>
        <time>2018-09-16T09:52:47.000Z</time>
      </trkpt>
      <trkpt lat="46.71148" lon="-2.34271">
        <ele>22.5</ele>
        <time>2018-09-16T09:52:48.000Z</time>
      </trkpt>
      <trkpt lat="46.71148" lon="-2.34271">
        <ele>22.5</ele>
        <time>2018-09-16T09:52:49.000Z</time>
      </trkpt>
      <trkpt lat="46.71148" lon="-2.34271">
        <ele>22.5</ele>
        <time>2018-09-16T09:52:50.000Z</time>
      </trkpt>
      <trkpt lat="46.71148" lon="-2.34271">
        <ele>22.5</ele>
        <time>2018-09-16T09:52:51.000Z</time>
      </trkpt>
      <trkpt lat="46.71147" lon="-2.34271">
        <ele>22.5</ele>
        <time>2018-09-16T09:52:52.000Z</time>
      </trkpt>
      <trkpt lat="46.71147" lon="-2.34271">
        <ele>22.5</ele>
        <time>2018-09-16T09:52:53.000Z</time>
      </trkpt>
      <trkpt lat="46.71146" lon="-2.34272">
        <ele>22.5</ele>
        <time>2018-09-16T09:52:54.000Z</time>
      </trkpt>
      <trkpt lat="46.71146" lon="-2.34272">
        <ele>22.5</ele>
        <time>2018-09-16T09:52:55.000Z</time>
      </trkpt>
      <trkpt lat="46.71145" lon="-2.34272">
        <ele>22.5</ele>
        <time>2018-09-16T09:52:56.000Z</time>
      </trkpt>
      <trkpt lat="46.71145" lon="-2.34272">
        <ele>22.5</ele>
        <time>2018-09-16T09:52:57.000Z</time>
      </trkpt>
      <trkpt lat="46.71144" lon="-2.34273">
        <ele>22.5</ele>
        <time>2018-09-16T09:52:58.000Z</time>
      </trkpt>
      <trkpt lat="46.71144" lon="-2.34273">
        <ele>22.6</ele>
        <time>2018-09-16T09:52:59.000Z</time>
      </trkpt>
      <trkpt lat="46.71143" lon="-2.34274">
        <ele>22.6</ele>
        <time>2018-09-16T09:53:00.000Z</time>
      </trkpt>
      <trkpt lat="46.71143" lon="-2.34274">
        <ele>22.6</ele>
        <time>2018-09-16T09:53:01.000Z</time>
      </trkpt>
      <trkpt lat="46.71143" lon="-2.34275">
        <ele>22.6</ele>
        <time>2018-09-16T09:53:02.000Z</time>
      </trkpt>
      <trkpt lat="46.71143" lon="-2.34275">
        <ele>22.6</ele>
        <time>2018-09-16T09:53:03.000Z</time>
      </trkpt>
      <trkpt lat="46.71142" lon="-2.34275">
        <ele>22.6</ele>
        <time>2018-09-16T09:53:04.000Z</time>
      </trkpt>
      <trkpt lat="46.71142" lon="-2.34275">
        <ele>22.6</ele>
        <time>2018-09-16T09:53:05.000Z</time>
      </trkpt>
      <trkpt lat="46.71143" lon="-2.34275">
        <ele>22.6</ele>
        <time>2018-09-16T09:53:06.000Z</time>
      </trkpt>
      <trkpt lat="46.71143" lon="-2.34275">
        <ele>22.6</ele>
        <time>2018-09-16T09:53:07.000Z</time>
      </trkpt>
      <trkpt lat="46.71143" lon="-2.34275">
        <ele>22.6</ele>
        <time>2018-09-16T09:53:08.000Z</time>
      </trkpt>
      <trkpt lat="46.71143" lon="-2.34275">
        <ele>22.6</ele>
        <time>2018-09-16T09:53:09.000Z</time>
      </trkpt>
      <trkpt lat="46.71143" lon="-2.34275">
        <ele>22.6</ele>
        <time>2018-09-16T09:53:10.000Z</time>
      </trkpt>
      <trkpt lat="46.71143" lon="-2.34275">
        <ele>22.6</ele>
        <time>2018-09-16T09:53:11.000Z</time>
      </trkpt>
      <trkpt lat="46.71143" lon="-2.34275">
        <ele>22.6</ele>
        <time>2018-09-16T09:53:12.000Z</time>
      </trkpt>
      <trkpt lat="46.71142" lon="-2.34275">
        <ele>22.6</ele>
        <time>2018-09-16T09:53:13.000Z</time>
      </trkpt>
      <trkpt lat="46.71142" lon="-2.34276">
        <ele>22.6</ele>
        <time>2018-09-16T09:53:14.000Z</time>
      </trkpt>
      <trkpt lat="46.71141" lon="-2.34276">
        <ele>22.6</ele>
        <time>2018-09-16T09:53:15.000Z</time>
      </trkpt>
      <trkpt lat="46.71141" lon="-2.34276">
        <ele>22.6</ele>
        <time>2018-09-16T09:53:16.000Z</time>
      </trkpt>
      <trkpt lat="46.7114" lon="-2.34277">
        <ele>22.6</ele>
        <time>2018-09-16T09:53:17.000Z</time>
      </trkpt>
      <trkpt lat="46.7114" lon="-2.34277">
        <ele>22.6</ele>
        <time>2018-09-16T09:53:18.000Z</time>
      </trkpt>
      <trkpt lat="46.71139" lon="-2.34278">
        <ele>22.7</ele>
        <time>2018-09-16T09:53:19.000Z</time>
      </trkpt>
      <trkpt lat="46.71138" lon="-2.34278">
        <ele>22.7</ele>
        <time>2018-09-16T09:53:20.000Z</time>
      </trkpt>
      <trkpt lat="46.71137" lon="-2.34279">
        <ele>22.7</ele>
        <time>2018-09-16T09:53:21.000Z</time>
      </trkpt>
      <trkpt lat="46.71136" lon="-2.34279">
        <ele>22.7</ele>
        <time>2018-09-16T09:53:22.000Z</time>
      </trkpt>
      <trkpt lat="46.71135" lon="-2.3428">
        <ele>22.7</ele>
        <time>2018-09-16T09:53:23.000Z</time>
      </trkpt>
      <trkpt lat="46.71134" lon="-2.3428">
        <ele>22.8</ele>
        <time>2018-09-16T09:53:24.000Z</time>
      </trkpt>
      <trkpt lat="46.71133" lon="-2.34281">
        <ele>22.8</ele>
        <time>2018-09-16T09:53:25.000Z</time>
      </trkpt>
      <trkpt lat="46.71131" lon="-2.34282">
        <ele>22.8</ele>
        <time>2018-09-16T09:53:26.000Z</time>
      </trkpt>
      <trkpt lat="46.7113" lon="-2.34282">
        <ele>22.8</ele>
        <time>2018-09-16T09:53:27.000Z</time>
      </trkpt>
      <trkpt lat="46.71129" lon="-2.34283">
        <ele>22.8</ele>
        <time>2018-09-16T09:53:28.000Z</time>
      </trkpt>
      <trkpt lat="46.71129" lon="-2.34284">
        <ele>22.9</ele>
        <time>2018-09-16T09:53:29.000Z</time>
      </trkpt>
      <trkpt lat="46.71128" lon="-2.34284">
        <ele>22.9</ele>
        <time>2018-09-16T09:53:30.000Z</time>
      </trkpt>
      <trkpt lat="46.71128" lon="-2.34284">
        <ele>22.9</ele>
        <time>2018-09-16T09:53:31.000Z</time>
      </trkpt>
      <trkpt lat="46.71128" lon="-2.34284">
        <ele>22.9</ele>
        <time>2018-09-16T09:53:32.000Z</time>
      </trkpt>
      <trkpt lat="46.71128" lon="-2.34284">
        <ele>22.9</ele>
        <time>2018-09-16T09:53:33.000Z</time>
      </trkpt>
      <trkpt lat="46.71128" lon="-2.34284">
        <ele>22.9</ele>
        <time>2018-09-16T09:53:34.000Z</time>
      </trkpt>
      <trkpt lat="46.71128" lon="-2.34284">
        <ele>22.9</ele>
        <time>2018-09-16T09:53:35.000Z</time>
      </trkpt>
      <trkpt lat="46.71128" lon="-2.34284">
        <ele>22.9</ele>
        <time>2018-09-16T09:53:36.000Z</time>
      </trkpt>
      <trkpt lat="46.71128" lon="-2.34284">
        <ele>22.9</ele>
        <time>2018-09-16T09:53:37.000Z</time>
      </trkpt>
      <trkpt lat="46.71128" lon="-2.34284">
        <ele>22.9</ele>
        <time>2018-09-16T09:53:38.000Z</time>
      </trkpt>
      <trkpt lat="46.71128" lon="-2.34284">
        <ele>22.9</ele>
        <time>2018-09-16T09:53:39.000Z</time>
      </trkpt>
      <trkpt lat="46.71128" lon="-2.34284">
        <ele>22.9</ele>
        <time>2018-09-16T09:53:40.000Z</time>
      </trkpt>
      <trkpt lat="46.71128" lon="-2.34284">
        <ele>22.9</ele>
        <time>2018-09-16T09:53:41.000Z</time>
      </trkpt>
      <trkpt lat="46.71128" lon="-2.34284">
        <ele>22.9</ele>
        <time>2018-09-16T09:53:42.000Z</time>
      </trkpt>
      <trkpt lat="46.71128" lon="-2.34284">
        <ele>22.9</ele>
        <time>2018-09-16T09:53:43.000Z</time>
      </trkpt>
      <trkpt lat="46.71128" lon="-2.34284">
        <ele>22.9</ele>
        <time>2018-09-16T09:53:44.000Z</time>
      </trkpt>
      <trkpt lat="46.71128" lon="-2.34284">
        <ele>22.9</ele>
        <time>2018-09-16T09:53:45.000Z</time>
      </trkpt>
      <trkpt lat="46.71128" lon="-2.34284">
        <ele>22.9</ele>
        <time>2018-09-16T09:53:46.000Z</time>
      </trkpt>
      <trkpt lat="46.71128" lon="-2.34284">
        <ele>22.9</ele>
        <time>2018-09-16T09:53:47.000Z</time>
      </trkpt>
      <trkpt lat="46.71128" lon="-2.34284">
        <ele>22.9</ele>
        <time>2018-09-16T09:53:48.000Z</time>
      </trkpt>
      <trkpt lat="46.71128" lon="-2.34284">
        <ele>22.9</ele>
        <time>2018-09-16T09:53:49.000Z</time>
      </trkpt>
      <trkpt lat="46.71128" lon="-2.34284">
        <ele>22.9</ele>
        <time>2018-09-16T09:53:50.000Z</time>
      </trkpt>
      <trkpt lat="46.71128" lon="-2.34284">
        <ele>22.9</ele>
        <time>2018-09-16T09:53:51.000Z</time>
      </trkpt>
      <trkpt lat="46.71128" lon="-2.34284">
        <ele>22.9</ele>
        <time>2018-09-16T09:53:52.000Z</time>
      </trkpt>
      <trkpt lat="46.71128" lon="-2.34284">
        <ele>22.9</ele>
        <time>2018-09-16T09:53:53.000Z</time>
      </trkpt>
      <trkpt lat="46.71128" lon="-2.34284">
        <ele>22.9</ele>
        <time>2018-09-16T09:53:54.000Z</time>
      </trkpt>
      <trkpt lat="46.71128" lon="-2.34284">
        <ele>22.9</ele>
        <time>2018-09-16T09:53:55.000Z</time>
      </trkpt>
      <trkpt lat="46.71128" lon="-2.34284">
        <ele>22.9</ele>
        <time>2018-09-16T09:53:56.000Z</time>
      </trkpt>
      <trkpt lat="46.71128" lon="-2.34284">
        <ele>22.9</ele>
        <time>2018-09-16T09:53:57.000Z</time>
      </trkpt>
      <trkpt lat="46.71128" lon="-2.34284">
        <ele>22.9</ele>
        <time>2018-09-16T09:53:58.000Z</time>
      </trkpt>
      <trkpt lat="46.71128" lon="-2.34284">
        <ele>22.9</ele>
        <time>2018-09-16T09:53:59.000Z</time>
      </trkpt>
      <trkpt lat="46.71127" lon="-2.34285">
        <ele>22.9</ele>
        <time>2018-09-16T09:54:00.000Z</time>
      </trkpt>
      <trkpt lat="46.71127" lon="-2.34285">
        <ele>22.9</ele>
        <time>2018-09-16T09:54:01.000Z</time>
      </trkpt>
      <trkpt lat="46.71126" lon="-2.34285">
        <ele>22.9</ele>
        <time>2018-09-16T09:54:02.000Z</time>
      </trkpt>
      <trkpt lat="46.71125" lon="-2.34286">
        <ele>22.9</ele>
        <time>2018-09-16T09:54:03.000Z</time>
      </trkpt>
      <trkpt lat="46.71124" lon="-2.34287">
        <ele>22.9</ele>
        <time>2018-09-16T09:54:04.000Z</time>
      </trkpt>
      <trkpt lat="46.71123" lon="-2.34288">
        <ele>23</ele>
        <time>2018-09-16T09:54:05.000Z</time>
      </trkpt>
      <trkpt lat="46.71122" lon="-2.34288">
        <ele>23</ele>
        <time>2018-09-16T09:54:06.000Z</time>
      </trkpt>
      <trkpt lat="46.71121" lon="-2.34289">
        <ele>23</ele>
        <time>2018-09-16T09:54:07.000Z</time>
      </trkpt>
      <trkpt lat="46.7112" lon="-2.3429">
        <ele>23</ele>
        <time>2018-09-16T09:54:08.000Z</time>
      </trkpt>
      <trkpt lat="46.71119" lon="-2.3429">
        <ele>23.1</ele>
        <time>2018-09-16T09:54:09.000Z</time>
      </trkpt>
      <trkpt lat="46.71117" lon="-2.34291">
        <ele>23.1</ele>
        <time>2018-09-16T09:54:10.000Z</time>
      </trkpt>
      <trkpt lat="46.71116" lon="-2.34291">
        <ele>23.1</ele>
        <time>2018-09-16T09:54:11.000Z</time>
      </trkpt>
      <trkpt lat="46.71115" lon="-2.34291">
        <ele>23.1</ele>
        <time>2018-09-16T09:54:12.000Z</time>
      </trkpt>
      <trkpt lat="46.71114" lon="-2.34292">
        <ele>23.1</ele>
        <time>2018-09-16T09:54:13.000Z</time>
      </trkpt>
      <trkpt lat="46.71113" lon="-2.34292">
        <ele>23.2</ele>
        <time>2018-09-16T09:54:14.000Z</time>
      </trkpt>
      <trkpt lat="46.71112" lon="-2.34292">
        <ele>23.2</ele>
        <time>2018-09-16T09:54:15.000Z</time>
      </trkpt>
      <trkpt lat="46.71111" lon="-2.34293">
        <ele>23.2</ele>
        <time>2018-09-16T09:54:16.000Z</time>
      </trkpt>
      <trkpt lat="46.71109" lon="-2.34293">
        <ele>23.2</ele>
        <time>2018-09-16T09:54:17.000Z</time>
      </trkpt>
      <trkpt lat="46.71108" lon="-2.34293">
        <ele>23.2</ele>
        <time>2018-09-16T09:54:18.000Z</time>
      </trkpt>
      <trkpt lat="46.71107" lon="-2.34294">
        <ele>23.2</ele>
        <time>2018-09-16T09:54:19.000Z</time>
      </trkpt>
      <trkpt lat="46.71106" lon="-2.34294">
        <ele>23.3</ele>
        <time>2018-09-16T09:54:20.000Z</time>
      </trkpt>
      <trkpt lat="46.71104" lon="-2.34295">
        <ele>23.3</ele>
        <time>2018-09-16T09:54:21.000Z</time>
      </trkpt>
      <trkpt lat="46.71103" lon="-2.34295">
        <ele>23.3</ele>
        <time>2018-09-16T09:54:22.000Z</time>
      </trkpt>
      <trkpt lat="46.71102" lon="-2.34295">
        <ele>23.3</ele>
        <time>2018-09-16T09:54:23.000Z</time>
      </trkpt>
      <trkpt lat="46.71101" lon="-2.34296">
        <ele>23.3</ele>
        <time>2018-09-16T09:54:24.000Z</time>
      </trkpt>
      <trkpt lat="46.71099" lon="-2.34296">
        <ele>23.4</ele>
        <time>2018-09-16T09:54:25.000Z</time>
      </trkpt>
      <trkpt lat="46.71098" lon="-2.34296">
        <ele>23.4</ele>
        <time>2018-09-16T09:54:26.000Z</time>
      </trkpt>
      <trkpt lat="46.71097" lon="-2.34296">
        <ele>23.4</ele>
        <time>2018-09-16T09:54:27.000Z</time>
      </trkpt>
      <trkpt lat="46.71096" lon="-2.34295">
        <ele>23.4</ele>
        <time>2018-09-16T09:54:28.000Z</time>
      </trkpt>
      <trkpt lat="46.71095" lon="-2.34295">
        <ele>23.4</ele>
        <time>2018-09-16T09:54:29.000Z</time>
      </trkpt>
      <trkpt lat="46.71094" lon="-2.34295">
        <ele>23.4</ele>
        <time>2018-09-16T09:54:30.000Z</time>
      </trkpt>
      <trkpt lat="46.71093" lon="-2.34294">
        <ele>23.4</ele>
        <time>2018-09-16T09:54:31.000Z</time>
      </trkpt>
      <trkpt lat="46.71092" lon="-2.34294">
        <ele>23.4</ele>
        <time>2018-09-16T09:54:32.000Z</time>
      </trkpt>
      <trkpt lat="46.71091" lon="-2.34293">
        <ele>23.4</ele>
        <time>2018-09-16T09:54:33.000Z</time>
      </trkpt>
      <trkpt lat="46.7109" lon="-2.34292">
        <ele>23.4</ele>
        <time>2018-09-16T09:54:34.000Z</time>
      </trkpt>
      <trkpt lat="46.71089" lon="-2.34291">
        <ele>23.4</ele>
        <time>2018-09-16T09:54:35.000Z</time>
      </trkpt>
      <trkpt lat="46.71088" lon="-2.34291">
        <ele>23.4</ele>
        <time>2018-09-16T09:54:36.000Z</time>
      </trkpt>
      <trkpt lat="46.71087" lon="-2.3429">
        <ele>23.4</ele>
        <time>2018-09-16T09:54:37.000Z</time>
      </trkpt>
      <trkpt lat="46.71086" lon="-2.34289">
        <ele>23.4</ele>
        <time>2018-09-16T09:54:38.000Z</time>
      </trkpt>
      <trkpt lat="46.71086" lon="-2.34289">
        <ele>23.4</ele>
        <time>2018-09-16T09:54:39.000Z</time>
      </trkpt>
      <trkpt lat="46.71085" lon="-2.34288">
        <ele>23.4</ele>
        <time>2018-09-16T09:54:40.000Z</time>
      </trkpt>
      <trkpt lat="46.71084" lon="-2.34288">
        <ele>23.4</ele>
        <time>2018-09-16T09:54:41.000Z</time>
      </trkpt>
      <trkpt lat="46.71084" lon="-2.34287">
        <ele>23.4</ele>
        <time>2018-09-16T09:54:42.000Z</time>
      </trkpt>
      <trkpt lat="46.71084" lon="-2.34287">
        <ele>23.4</ele>
        <time>2018-09-16T09:54:43.000Z</time>
      </trkpt>
      <trkpt lat="46.71083" lon="-2.34287">
        <ele>23.4</ele>
        <time>2018-09-16T09:54:44.000Z</time>
      </trkpt>
      <trkpt lat="46.71083" lon="-2.34287">
        <ele>23.4</ele>
        <time>2018-09-16T09:54:45.000Z</time>
      </trkpt>
      <trkpt lat="46.71083" lon="-2.34287">
        <ele>23.4</ele>
        <time>2018-09-16T09:54:46.000Z</time>
      </trkpt>
      <trkpt lat="46.71083" lon="-2.34287">
        <ele>23.4</ele>
        <time>2018-09-16T09:54:47.000Z</time>
      </trkpt>
      <trkpt lat="46.71083" lon="-2.34287">
        <ele>23.4</ele>
        <time>2018-09-16T09:54:48.000Z</time>
      </trkpt>
      <trkpt lat="46.71083" lon="-2.34287">
        <ele>23.4</ele>
        <time>2018-09-16T09:54:49.000Z</time>
      </trkpt>
      <trkpt lat="46.71083" lon="-2.34287">
        <ele>23.4</ele>
        <time>2018-09-16T09:54:50.000Z</time>
      </trkpt>
      <trkpt lat="46.71083" lon="-2.34287">
        <ele>23.4</ele>
        <time>2018-09-16T09:54:51.000Z</time>
      </trkpt>
      <trkpt lat="46.71083" lon="-2.34287">
        <ele>23.4</ele>
        <time>2018-09-16T09:54:52.000Z</time>
      </trkpt>
      <trkpt lat="46.71083" lon="-2.34287">
        <ele>23.4</ele>
        <time>2018-09-16T09:54:53.000Z</time>
      </trkpt>
      <trkpt lat="46.71083" lon="-2.34287">
        <ele>23.4</ele>
        <time>2018-09-16T09:54:54.000Z</time>
      </trkpt>
      <trkpt lat="46.71083" lon="-2.34287">
        <ele>23.4</ele>
        <time>2018-09-16T09:54:55.000Z</time>
      </trkpt>
      <trkpt lat="46.71083" lon="-2.34287">
        <ele>23.4</ele>
        <time>2018-09-16T09:54:56.000Z</time>
      </trkpt>
      <trkpt lat="46.71083" lon="-2.34287">
        <ele>23.4</ele>
        <time>2018-09-16T09:54:57.000Z</time>
      </trkpt>
      <trkpt lat="46.71083" lon="-2.34287">
        <ele>23.4</ele>
        <time>2018-09-16T09:54:58.000Z</time>
      </trkpt>
      <trkpt lat="46.71083" lon="-2.34287">
        <ele>23.4</ele>
        <time>2018-09-16T09:54:59.000Z</time>
      </trkpt>
      <trkpt lat="46.71084" lon="-2.34288">
        <ele>23.4</ele>
        <time>2018-09-16T09:55:00.000Z</time>
      </trkpt>
      <trkpt lat="46.71084" lon="-2.34288">
        <ele>23.5</ele>
        <time>2018-09-16T09:55:01.000Z</time>
      </trkpt>
      <trkpt lat="46.71084" lon="-2.34289">
        <ele>23.5</ele>
        <time>2018-09-16T09:55:02.000Z</time>
      </trkpt>
      <trkpt lat="46.71085" lon="-2.34289">
        <ele>23.5</ele>
        <time>2018-09-16T09:55:03.000Z</time>
      </trkpt>
      <trkpt lat="46.71085" lon="-2.3429">
        <ele>23.5</ele>
        <time>2018-09-16T09:55:04.000Z</time>
      </trkpt>
      <trkpt lat="46.71086" lon="-2.34291">
        <ele>23.5</ele>
        <time>2018-09-16T09:55:05.000Z</time>
      </trkpt>
      <trkpt lat="46.71087" lon="-2.34292">
        <ele>23.5</ele>
        <time>2018-09-16T09:55:06.000Z</time>
      </trkpt>
      <trkpt lat="46.71088" lon="-2.34293">
        <ele>23.5</ele>
        <time>2018-09-16T09:55:07.000Z</time>
      </trkpt>
      <trkpt lat="46.7109" lon="-2.34294">
        <ele>23.5</ele>
        <time>2018-09-16T09:55:08.000Z</time>
      </trkpt>
      <trkpt lat="46.71091" lon="-2.34295">
        <ele>23.4</ele>
        <time>2018-09-16T09:55:09.000Z</time>
      </trkpt>
      <trkpt lat="46.71092" lon="-2.34295">
        <ele>23.4</ele>
        <time>2018-09-16T09:55:10.000Z</time>
      </trkpt>
      <trkpt lat="46.71093" lon="-2.34296">
        <ele>23.4</ele>
        <time>2018-09-16T09:55:11.000Z</time>
      </trkpt>
      <trkpt lat="46.71095" lon="-2.34296">
        <ele>23.4</ele>
        <time>2018-09-16T09:55:12.000Z</time>
      </trkpt>
      <trkpt lat="46.71096" lon="-2.34296">
        <ele>23.4</ele>
        <time>2018-09-16T09:55:13.000Z</time>
      </trkpt>
      <trkpt lat="46.71097" lon="-2.34296">
        <ele>23.4</ele>
        <time>2018-09-16T09:55:14.000Z</time>
      </trkpt>
      <trkpt lat="46.71098" lon="-2.34296">
        <ele>23.4</ele>
        <time>2018-09-16T09:55:15.000Z</time>
      </trkpt>
      <trkpt lat="46.71099" lon="-2.34296">
        <ele>23.4</ele>
        <time>2018-09-16T09:55:16.000Z</time>
      </trkpt>
      <trkpt lat="46.71101" lon="-2.34297">
        <ele>23.4</ele>
        <time>2018-09-16T09:55:17.000Z</time>
      </trkpt>
      <trkpt lat="46.71102" lon="-2.34297">
        <ele>23.3</ele>
        <time>2018-09-16T09:55:18.000Z</time>
      </trkpt>
      <trkpt lat="46.71103" lon="-2.34297">
        <ele>23.3</ele>
        <time>2018-09-16T09:55:19.000Z</time>
      </trkpt>
      <trkpt lat="46.71104" lon="-2.34297">
        <ele>23.3</ele>
        <time>2018-09-16T09:55:20.000Z</time>
      </trkpt>
      <trkpt lat="46.71105" lon="-2.34297">
        <ele>23.3</ele>
        <time>2018-09-16T09:55:21.000Z</time>
      </trkpt>
      <trkpt lat="46.71106" lon="-2.34296">
        <ele>23.3</ele>
        <time>2018-09-16T09:55:22.000Z</time>
      </trkpt>
      <trkpt lat="46.71108" lon="-2.34296">
        <ele>23.3</ele>
        <time>2018-09-16T09:55:23.000Z</time>
      </trkpt>
      <trkpt lat="46.71109" lon="-2.34296">
        <ele>23.3</ele>
        <time>2018-09-16T09:55:24.000Z</time>
      </trkpt>
      <trkpt lat="46.7111" lon="-2.34296">
        <ele>23.2</ele>
        <time>2018-09-16T09:55:25.000Z</time>
      </trkpt>
      <trkpt lat="46.71111" lon="-2.34296">
        <ele>23.2</ele>
        <time>2018-09-16T09:55:26.000Z</time>
      </trkpt>
      <trkpt lat="46.71112" lon="-2.34296">
        <ele>23.2</ele>
        <time>2018-09-16T09:55:27.000Z</time>
      </trkpt>
      <trkpt lat="46.71113" lon="-2.34295">
        <ele>23.2</ele>
        <time>2018-09-16T09:55:28.000Z</time>
      </trkpt>
      <trkpt lat="46.71115" lon="-2.34295">
        <ele>23.2</ele>
        <time>2018-09-16T09:55:29.000Z</time>
      </trkpt>
      <trkpt lat="46.71116" lon="-2.34294">
        <ele>23.1</ele>
        <time>2018-09-16T09:55:30.000Z</time>
      </trkpt>
      <trkpt lat="46.71117" lon="-2.34294">
        <ele>23.1</ele>
        <time>2018-09-16T09:55:31.000Z</time>
      </trkpt>
      <trkpt lat="46.71118" lon="-2.34294">
        <ele>23.1</ele>
        <time>2018-09-16T09:55:32.000Z</time>
      </trkpt>
      <trkpt lat="46.71119" lon="-2.34293">
        <ele>23.1</ele>
        <time>2018-09-16T09:55:33.000Z</time>
      </trkpt>
      <trkpt lat="46.7112" lon="-2.34292">
        <ele>23.1</ele>
        <time>2018-09-16T09:55:34.000Z</time>
      </trkpt>
      <trkpt lat="46.71122" lon="-2.34292">
        <ele>23</ele>
        <time>2018-09-16T09:55:35.000Z</time>
      </trkpt>
      <trkpt lat="46.71123" lon="-2.34291">
        <ele>23</ele>
        <time>2018-09-16T09:55:36.000Z</time>
      </trkpt>
      <trkpt lat="46.71124" lon="-2.34291">
        <ele>23</ele>
        <time>2018-09-16T09:55:37.000Z</time>
      </trkpt>
      <trkpt lat="46.71125" lon="-2.3429">
        <ele>23</ele>
        <time>2018-09-16T09:55:38.000Z</time>
      </trkpt>
      <trkpt lat="46.71126" lon="-2.34289">
        <ele>23</ele>
        <time>2018-09-16T09:55:39.000Z</time>
      </trkpt>
      <trkpt lat="46.71127" lon="-2.34289">
        <ele>22.9</ele>
        <time>2018-09-16T09:55:40.000Z</time>
      </trkpt>
      <trkpt lat="46.71128" lon="-2.34288">
        <ele>22.9</ele>
        <time>2018-09-16T09:55:41.000Z</time>
      </trkpt>
      <trkpt lat="46.7113" lon="-2.34287">
        <ele>22.9</ele>
        <time>2018-09-16T09:55:42.000Z</time>
      </trkpt>
      <trkpt lat="46.71131" lon="-2.34286">
        <ele>22.9</ele>
        <time>2018-09-16T09:55:43.000Z</time>
      </trkpt>
      <trkpt lat="46.71132" lon="-2.34286">
        <ele>22.8</ele>
        <time>2018-09-16T09:55:44.000Z</time>
      </trkpt>
      <trkpt lat="46.71133" lon="-2.34285">
        <ele>22.8</ele>
        <time>2018-09-16T09:55:45.000Z</time>
      </trkpt>
      <trkpt lat="46.71134" lon="-2.34284">
        <ele>22.8</ele>
        <time>2018-09-16T09:55:46.000Z</time>
      </trkpt>
      <trkpt lat="46.71135" lon="-2.34283">
        <ele>22.8</ele>
        <time>2018-09-16T09:55:47.000Z</time>
      </trkpt>
      <trkpt lat="46.71136" lon="-2.34282">
        <ele>22.8</ele>
        <time>2018-09-16T09:55:48.000Z</time>
      </trkpt>
      <trkpt lat="46.71137" lon="-2.34282">
        <ele>22.7</ele>
        <time>2018-09-16T09:55:49.000Z</time>
      </trkpt>
      <trkpt lat="46.71138" lon="-2.34281">
        <ele>22.7</ele>
        <time>2018-09-16T09:55:50.000Z</time>
      </trkpt>
      <trkpt lat="46.71139" lon="-2.3428">
        <ele>22.7</ele>
        <time>2018-09-16T09:55:51.000Z</time>
      </trkpt>
      <trkpt lat="46.7114" lon="-2.34279">
        <ele>22.7</ele>
        <time>2018-09-16T09:55:52.000Z</time>
      </trkpt>
      <trkpt lat="46.71141" lon="-2.34279">
        <ele>22.6</ele>
        <time>2018-09-16T09:55:53.000Z</time>
      </trkpt>
      <trkpt lat="46.71142" lon="-2.34278">
        <ele>22.6</ele>
        <time>2018-09-16T09:55:54.000Z</time>
      </trkpt>
      <trkpt lat="46.71143" lon="-2.34277">
        <ele>22.6</ele>
        <time>2018-09-16T09:55:55.000Z</time>
      </trkpt>
      <trkpt lat="46.71144" lon="-2.34277">
        <ele>22.6</ele>
        <time>2018-09-16T09:55:56.000Z</time>
      </trkpt>
      <trkpt lat="46.71145" lon="-2.34276">
        <ele>22.6</ele>
        <time>2018-09-16T09:55:57.000Z</time>
      </trkpt>
      <trkpt lat="46.71147" lon="-2.34276">
        <ele>22.6</ele>
        <time>2018-09-16T09:55:58.000Z</time>
      </trkpt>
      <trkpt lat="46.71148" lon="-2.34275">
        <ele>22.5</ele>
        <time>2018-09-16T09:55:59.000Z</time>
      </trkpt>
      <trkpt lat="46.71149" lon="-2.34275">
        <ele>22.5</ele>
        <time>2018-09-16T09:56:00.000Z</time>
      </trkpt>
      <trkpt lat="46.7115" lon="-2.34274">
        <ele>22.5</ele>
        <time>2018-09-16T09:56:01.000Z</time>
      </trkpt>
      <trkpt lat="46.71151" lon="-2.34274">
        <ele>22.5</ele>
        <time>2018-09-16T09:56:02.000Z</time>
      </trkpt>
      <trkpt lat="46.71152" lon="-2.34273">
        <ele>22.5</ele>
        <time>2018-09-16T09:56:03.000Z</time>
      </trkpt>
      <trkpt lat="46.71153" lon="-2.34273">
        <ele>22.4</ele>
        <time>2018-09-16T09:56:04.000Z</time>
      </trkpt>
      <trkpt lat="46.71154" lon="-2.34272">
        <ele>22.4</ele>
        <time>2018-09-16T09:56:05.000Z</time>
      </trkpt>
      <trkpt lat="46.71155" lon="-2.34271">
        <ele>22.4</ele>
        <time>2018-09-16T09:56:06.000Z</time>
      </trkpt>
      <trkpt lat="46.71156" lon="-2.34271">
        <ele>22.4</ele>
        <time>2018-09-16T09:56:07.000Z</time>
      </trkpt>
      <trkpt lat="46.71158" lon="-2.3427">
        <ele>22.3</ele>
        <time>2018-09-16T09:56:08.000Z</time>
      </trkpt>
      <trkpt lat="46.71159" lon="-2.34269">
        <ele>22.3</ele>
        <time>2018-09-16T09:56:09.000Z</time>
      </trkpt>
      <trkpt lat="46.7116" lon="-2.34268">
        <ele>22.3</ele>
        <time>2018-09-16T09:56:10.000Z</time>
      </trkpt>
      <trkpt lat="46.71161" lon="-2.34267">
        <ele>22.3</ele>
        <time>2018-09-16T09:56:11.000Z</time>
      </trkpt>
      <trkpt lat="46.71161" lon="-2.34266">
        <ele>22.3</ele>
        <time>2018-09-16T09:56:12.000Z</time>
      </trkpt>
      <trkpt lat="46.71162" lon="-2.34266">
        <ele>22.2</ele>
        <time>2018-09-16T09:56:13.000Z</time>
      </trkpt>
      <trkpt lat="46.71163" lon="-2.34265">
        <ele>22.2</ele>
        <time>2018-09-16T09:56:14.000Z</time>
      </trkpt>
      <trkpt lat="46.71164" lon="-2.34265">
        <ele>22.2</ele>
        <time>2018-09-16T09:56:15.000Z</time>
      </trkpt>
      <trkpt lat="46.71165" lon="-2.34264">
        <ele>22.2</ele>
        <time>2018-09-16T09:56:16.000Z</time>
      </trkpt>
      <trkpt lat="46.71165" lon="-2.34264">
        <ele>22.2</ele>
        <time>2018-09-16T09:56:17.000Z</time>
      </trkpt>
      <trkpt lat="46.71166" lon="-2.34263">
        <ele>22.2</ele>
        <time>2018-09-16T09:56:18.000Z</time>
      </trkpt>
      <trkpt lat="46.71167" lon="-2.34263">
        <ele>22.2</ele>
        <time>2018-09-16T09:56:19.000Z</time>
      </trkpt>
      <trkpt lat="46.71167" lon="-2.34262">
        <ele>22.1</ele>
        <time>2018-09-16T09:56:20.000Z</time>
      </trkpt>
      <trkpt lat="46.71168" lon="-2.34261">
        <ele>22.1</ele>
        <time>2018-09-16T09:56:21.000Z</time>
      </trkpt>
      <trkpt lat="46.71169" lon="-2.34261">
        <ele>22.1</ele>
        <time>2018-09-16T09:56:22.000Z</time>
      </trkpt>
      <trkpt lat="46.71169" lon="-2.3426">
        <ele>22.1</ele>
        <time>2018-09-16T09:56:23.000Z</time>
      </trkpt>
      <trkpt lat="46.7117" lon="-2.34259">
        <ele>22.1</ele>
        <time>2018-09-16T09:56:24.000Z</time>
      </trkpt>
      <trkpt lat="46.71171" lon="-2.34258">
        <ele>22</ele>
        <time>2018-09-16T09:56:25.000Z</time>
      </trkpt>
      <trkpt lat="46.71172" lon="-2.34257">
        <ele>22</ele>
        <time>2018-09-16T09:56:26.000Z</time>
      </trkpt>
      <trkpt lat="46.71173" lon="-2.34256">
        <ele>22</ele>
        <time>2018-09-16T09:56:27.000Z</time>
      </trkpt>
      <trkpt lat="46.71174" lon="-2.34255">
        <ele>22</ele>
        <time>2018-09-16T09:56:28.000Z</time>
      </trkpt>
      <trkpt lat="46.71175" lon="-2.34254">
        <ele>21.9</ele>
        <time>2018-09-16T09:56:29.000Z</time>
      </trkpt>
      <trkpt lat="46.71176" lon="-2.34252">
        <ele>21.9</ele>
        <time>2018-09-16T09:56:30.000Z</time>
      </trkpt>
      <trkpt lat="46.71176" lon="-2.34251">
        <ele>21.9</ele>
        <time>2018-09-16T09:56:31.000Z</time>
      </trkpt>
      <trkpt lat="46.71176" lon="-2.34249">
        <ele>21.9</ele>
        <time>2018-09-16T09:56:32.000Z</time>
      </trkpt>
      <trkpt lat="46.71176" lon="-2.34248">
        <ele>21.9</ele>
        <time>2018-09-16T09:56:33.000Z</time>
      </trkpt>
      <trkpt lat="46.71175" lon="-2.34246">
        <ele>21.9</ele>
        <time>2018-09-16T09:56:34.000Z</time>
      </trkpt>
      <trkpt lat="46.71175" lon="-2.34245">
        <ele>22</ele>
        <time>2018-09-16T09:56:35.000Z</time>
      </trkpt>
      <trkpt lat="46.71174" lon="-2.34244">
        <ele>22</ele>
        <time>2018-09-16T09:56:36.000Z</time>
      </trkpt>
      <trkpt lat="46.71173" lon="-2.34243">
        <ele>22</ele>
        <time>2018-09-16T09:56:37.000Z</time>
      </trkpt>
      <trkpt lat="46.71172" lon="-2.34242">
        <ele>22</ele>
        <time>2018-09-16T09:56:38.000Z</time>
      </trkpt>
      <trkpt lat="46.71171" lon="-2.34241">
        <ele>22.1</ele>
        <time>2018-09-16T09:56:39.000Z</time>
      </trkpt>
      <trkpt lat="46.7117" lon="-2.3424">
        <ele>22.1</ele>
        <time>2018-09-16T09:56:40.000Z</time>
      </trkpt>
      <trkpt lat="46.71169" lon="-2.34239">
        <ele>22.1</ele>
        <time>2018-09-16T09:56:41.000Z</time>
      </trkpt>
      <trkpt lat="46.71168" lon="-2.34238">
        <ele>22.1</ele>
        <time>2018-09-16T09:56:42.000Z</time>
      </trkpt>
      <trkpt lat="46.71167" lon="-2.34237">
        <ele>22.1</ele>
        <time>2018-09-16T09:56:43.000Z</time>
      </trkpt>
      <trkpt lat="46.71167" lon="-2.34236">
        <ele>22.2</ele>
        <time>2018-09-16T09:56:44.000Z</time>
      </trkpt>
      <trkpt lat="46.71166" lon="-2.34235">
        <ele>22.2</ele>
        <time>2018-09-16T09:56:45.000Z</time>
      </trkpt>
      <trkpt lat="46.71165" lon="-2.34234">
        <ele>22.2</ele>
        <time>2018-09-16T09:56:46.000Z</time>
      </trkpt>
      <trkpt lat="46.71164" lon="-2.34233">
        <ele>22.2</ele>
        <time>2018-09-16T09:56:47.000Z</time>
      </trkpt>
      <trkpt lat="46.71163" lon="-2.34231">
        <ele>22.3</ele>
        <time>2018-09-16T09:56:48.000Z</time>
      </trkpt>
      <trkpt lat="46.71162" lon="-2.3423">
        <ele>22.3</ele>
        <time>2018-09-16T09:56:49.000Z</time>
      </trkpt>
      <trkpt lat="46.71162" lon="-2.34229">
        <ele>22.3</ele>
        <time>2018-09-16T09:56:50.000Z</time>
      </trkpt>
      <trkpt lat="46.71161" lon="-2.34228">
        <ele>22.3</ele>
        <time>2018-09-16T09:56:51.000Z</time>
      </trkpt>
      <trkpt lat="46.7116" lon="-2.34226">
        <ele>22.4</ele>
        <time>2018-09-16T09:56:52.000Z</time>
      </trkpt>
      <trkpt lat="46.71159" lon="-2.34225">
        <ele>22.4</ele>
        <time>2018-09-16T09:56:53.000Z</time>
      </trkpt>
      <trkpt lat="46.71158" lon="-2.34224">
        <ele>22.4</ele>
        <time>2018-09-16T09:56:54.000Z</time>
      </trkpt>
      <trkpt lat="46.71157" lon="-2.34223">
        <ele>22.4</ele>
        <time>2018-09-16T09:56:55.000Z</time>
      </trkpt>
      <trkpt lat="46.71156" lon="-2.34222">
        <ele>22.5</ele>
        <time>2018-09-16T09:56:56.000Z</time>
      </trkpt>
      <trkpt lat="46.71155" lon="-2.34221">
        <ele>22.5</ele>
        <time>2018-09-16T09:56:57.000Z</time>
      </trkpt>
      <trkpt lat="46.71154" lon="-2.3422">
        <ele>22.5</ele>
        <time>2018-09-16T09:56:58.000Z</time>
      </trkpt>
      <trkpt lat="46.71154" lon="-2.34219">
        <ele>22.5</ele>
        <time>2018-09-16T09:56:59.000Z</time>
      </trkpt>
      <trkpt lat="46.71153" lon="-2.34218">
        <ele>22.6</ele>
        <time>2018-09-16T09:57:00.000Z</time>
      </trkpt>
      <trkpt lat="46.71152" lon="-2.34217">
        <ele>22.6</ele>
        <time>2018-09-16T09:57:01.000Z</time>
      </trkpt>
      <trkpt lat="46.71151" lon="-2.34216">
        <ele>22.6</ele>
        <time>2018-09-16T09:57:02.000Z</time>
      </trkpt>
      <trkpt lat="46.7115" lon="-2.34215">
        <ele>22.6</ele>
        <time>2018-09-16T09:57:03.000Z</time>
      </trkpt>
      <trkpt lat="46.71149" lon="-2.34214">
        <ele>22.6</ele>
        <time>2018-09-16T09:57:04.000Z</time>
      </trkpt>
      <trkpt lat="46.71148" lon="-2.34213">
        <ele>22.7</ele>
        <time>2018-09-16T09:57:05.000Z</time>
      </trkpt>
      <trkpt lat="46.71148" lon="-2.34212">
        <ele>22.7</ele>
        <time>2018-09-16T09:57:06.000Z</time>
      </trkpt>
      <trkpt lat="46.71147" lon="-2.34211">
        <ele>22.7</ele>
        <time>2018-09-16T09:57:07.000Z</time>
      </trkpt>
      <trkpt lat="46.71147" lon="-2.34209">
        <ele>22.7</ele>
        <time>2018-09-16T09:57:08.000Z</time>
      </trkpt>
      <trkpt lat="46.71146" lon="-2.34208">
        <ele>22.8</ele>
        <time>2018-09-16T09:57:09.000Z</time>
      </trkpt>
      <trkpt lat="46.71146" lon="-2.34207">
        <ele>22.8</ele>
        <time>2018-09-16T09:57:10.000Z</time>
      </trkpt>
      <trkpt lat="46.71145" lon="-2.34206">
        <ele>22.8</ele>
        <time>2018-09-16T09:57:11.000Z</time>
      </trkpt>
      <trkpt lat="46.71145" lon="-2.34205">
        <ele>22.8</ele>
        <time>2018-09-16T09:57:12.000Z</time>
      </trkpt>
      <trkpt lat="46.71144" lon="-2.34205">
        <ele>22.8</ele>
        <time>2018-09-16T09:57:13.000Z</time>
      </trkpt>
      <trkpt lat="46.71144" lon="-2.34204">
        <ele>22.8</ele>
        <time>2018-09-16T09:57:14.000Z</time>
      </trkpt>
      <trkpt lat="46.71143" lon="-2.34203">
        <ele>22.8</ele>
        <time>2018-09-16T09:57:15.000Z</time>
      </trkpt>
      <trkpt lat="46.71143" lon="-2.34203">
        <ele>22.8</ele>
        <time>2018-09-16T09:57:16.000Z</time>
      </trkpt>
      <trkpt lat="46.71143" lon="-2.34203">
        <ele>22.9</ele>
        <time>2018-09-16T09:57:17.000Z</time>
      </trkpt>
      <trkpt lat="46.71143" lon="-2.34202">
        <ele>22.9</ele>
        <time>2018-09-16T09:57:18.000Z</time>
      </trkpt>
      <trkpt lat="46.71143" lon="-2.34202">
        <ele>22.9</ele>
        <time>2018-09-16T09:57:19.000Z</time>
      </trkpt>
      <trkpt lat="46.71142" lon="-2.34201">
        <ele>22.9</ele>
        <time>2018-09-16T09:57:20.000Z</time>
      </trkpt>
      <trkpt lat="46.71142" lon="-2.342">
        <ele>22.9</ele>
        <time>2018-09-16T09:57:21.000Z</time>
      </trkpt>
      <trkpt lat="46.71141" lon="-2.34199">
        <ele>22.9</ele>
        <time>2018-09-16T09:57:22.000Z</time>
      </trkpt>
      <trkpt lat="46.7114" lon="-2.34198">
        <ele>23</ele>
        <time>2018-09-16T09:57:23.000Z</time>
      </trkpt>
      <trkpt lat="46.71139" lon="-2.34196">
        <ele>23</ele>
        <time>2018-09-16T09:57:24.000Z</time>
      </trkpt>
      <trkpt lat="46.71137" lon="-2.34194">
        <ele>23</ele>
        <time>2018-09-16T09:57:25.000Z</time>
      </trkpt>
      <trkpt lat="46.71136" lon="-2.34193">
        <ele>23.1</ele>
        <time>2018-09-16T09:57:26.000Z</time>
      </trkpt>
      <trkpt lat="46.71135" lon="-2.34191">
        <ele>23.1</ele>
        <time>2018-09-16T09:57:27.000Z</time>
      </trkpt>
      <trkpt lat="46.71134" lon="-2.34189">
        <ele>23.1</ele>
        <time>2018-09-16T09:57:28.000Z</time>
      </trkpt>
      <trkpt lat="46.71133" lon="-2.34188">
        <ele>23.2</ele>
        <time>2018-09-16T09:57:29.000Z</time>
      </trkpt>
      <trkpt lat="46.71132" lon="-2.34187">
        <ele>23.2</ele>
        <time>2018-09-16T09:57:30.000Z</time>
      </trkpt>
      <trkpt lat="46.71131" lon="-2.34185">
        <ele>23.2</ele>
        <time>2018-09-16T09:57:31.000Z</time>
      </trkpt>
      <trkpt lat="46.7113" lon="-2.34184">
        <ele>23.2</ele>
        <time>2018-09-16T09:57:32.000Z</time>
      </trkpt>
      <trkpt lat="46.71129" lon="-2.34183">
        <ele>23.3</ele>
        <time>2018-09-16T09:57:33.000Z</time>
      </trkpt>
      <trkpt lat="46.71128" lon="-2.34182">
        <ele>23.3</ele>
        <time>2018-09-16T09:57:34.000Z</time>
      </trkpt>
      <trkpt lat="46.71127" lon="-2.3418">
        <ele>23.3</ele>
        <time>2018-09-16T09:57:35.000Z</time>
      </trkpt>
      <trkpt lat="46.71126" lon="-2.34179">
        <ele>23.3</ele>
        <time>2018-09-16T09:57:36.000Z</time>
      </trkpt>
      <trkpt lat="46.71125" lon="-2.34178">
        <ele>23.4</ele>
        <time>2018-09-16T09:57:37.000Z</time>
      </trkpt>
      <trkpt lat="46.71125" lon="-2.34177">
        <ele>23.4</ele>
        <time>2018-09-16T09:57:38.000Z</time>
      </trkpt>
      <trkpt lat="46.71124" lon="-2.34175">
        <ele>23.4</ele>
        <time>2018-09-16T09:57:39.000Z</time>
      </trkpt>
      <trkpt lat="46.71123" lon="-2.34174">
        <ele>23.4</ele>
        <time>2018-09-16T09:57:40.000Z</time>
      </trkpt>
      <trkpt lat="46.71122" lon="-2.34173">
        <ele>23.5</ele>
        <time>2018-09-16T09:57:41.000Z</time>
      </trkpt>
      <trkpt lat="46.71121" lon="-2.34171">
        <ele>23.5</ele>
        <time>2018-09-16T09:57:42.000Z</time>
      </trkpt>
      <trkpt lat="46.7112" lon="-2.3417">
        <ele>23.5</ele>
        <time>2018-09-16T09:57:43.000Z</time>
      </trkpt>
      <trkpt lat="46.71119" lon="-2.34168">
        <ele>23.5</ele>
        <time>2018-09-16T09:57:44.000Z</time>
      </trkpt>
      <trkpt lat="46.71118" lon="-2.34167">
        <ele>23.6</ele>
        <time>2018-09-16T09:57:45.000Z</time>
      </trkpt>
      <trkpt lat="46.71118" lon="-2.34165">
        <ele>23.6</ele>
        <time>2018-09-16T09:57:46.000Z</time>
      </trkpt>
      <trkpt lat="46.71117" lon="-2.34164">
        <ele>23.7</ele>
        <time>2018-09-16T09:57:47.000Z</time>
      </trkpt>
      <trkpt lat="46.71116" lon="-2.34162">
        <ele>23.7</ele>
        <time>2018-09-16T09:57:48.000Z</time>
      </trkpt>
      <trkpt lat="46.71115" lon="-2.3416">
        <ele>23.7</ele>
        <time>2018-09-16T09:57:49.000Z</time>
      </trkpt>
      <trkpt lat="46.71114" lon="-2.34159">
        <ele>23.8</ele>
        <time>2018-09-16T09:57:50.000Z</time>
      </trkpt>
      <trkpt lat="46.71113" lon="-2.34157">
        <ele>23.8</ele>
        <time>2018-09-16T09:57:51.000Z</time>
      </trkpt>
      <trkpt lat="46.71112" lon="-2.34155">
        <ele>23.8</ele>
        <time>2018-09-16T09:57:52.000Z</time>
      </trkpt>
      <trkpt lat="46.71112" lon="-2.34153">
        <ele>23.9</ele>
        <time>2018-09-16T09:57:53.000Z</time>
      </trkpt>
      <trkpt lat="46.71111" lon="-2.34152">
        <ele>23.9</ele>
        <time>2018-09-16T09:57:54.000Z</time>
      </trkpt>
      <trkpt lat="46.7111" lon="-2.3415">
        <ele>23.9</ele>
        <time>2018-09-16T09:57:55.000Z</time>
      </trkpt>
      <trkpt lat="46.7111" lon="-2.34148">
        <ele>24</ele>
        <time>2018-09-16T09:57:56.000Z</time>
      </trkpt>
      <trkpt lat="46.71109" lon="-2.34147">
        <ele>24</ele>
        <time>2018-09-16T09:57:57.000Z</time>
      </trkpt>
      <trkpt lat="46.71108" lon="-2.34145">
        <ele>24</ele>
        <time>2018-09-16T09:57:58.000Z</time>
      </trkpt>
      <trkpt lat="46.71108" lon="-2.34144">
        <ele>24.1</ele>
        <time>2018-09-16T09:57:59.000Z</time>
      </trkpt>
      <trkpt lat="46.71107" lon="-2.34142">
        <ele>24.1</ele>
        <time>2018-09-16T09:58:00.000Z</time>
      </trkpt>
      <trkpt lat="46.71106" lon="-2.34141">
        <ele>24.1</ele>
        <time>2018-09-16T09:58:01.000Z</time>
      </trkpt>
      <trkpt lat="46.71106" lon="-2.3414">
        <ele>24.1</ele>
        <time>2018-09-16T09:58:02.000Z</time>
      </trkpt>
      <trkpt lat="46.71105" lon="-2.34138">
        <ele>24.2</ele>
        <time>2018-09-16T09:58:03.000Z</time>
      </trkpt>
      <trkpt lat="46.71104" lon="-2.34137">
        <ele>24.2</ele>
        <time>2018-09-16T09:58:04.000Z</time>
      </trkpt>
      <trkpt lat="46.71104" lon="-2.34136">
        <ele>24.2</ele>
        <time>2018-09-16T09:58:05.000Z</time>
      </trkpt>
      <trkpt lat="46.71103" lon="-2.34134">
        <ele>24.2</ele>
        <time>2018-09-16T09:58:06.000Z</time>
      </trkpt>
      <trkpt lat="46.71102" lon="-2.34132">
        <ele>24.3</ele>
        <time>2018-09-16T09:58:07.000Z</time>
      </trkpt>
      <trkpt lat="46.71102" lon="-2.34131">
        <ele>24.3</ele>
        <time>2018-09-16T09:58:08.000Z</time>
      </trkpt>
      <trkpt lat="46.71101" lon="-2.34129">
        <ele>24.3</ele>
        <time>2018-09-16T09:58:09.000Z</time>
      </trkpt>
      <trkpt lat="46.71101" lon="-2.34128">
        <ele>24.4</ele>
        <time>2018-09-16T09:58:10.000Z</time>
      </trkpt>
      <trkpt lat="46.711" lon="-2.34126">
        <ele>24.4</ele>
        <time>2018-09-16T09:58:11.000Z</time>
      </trkpt>
      <trkpt lat="46.711" lon="-2.34124">
        <ele>24.4</ele>
        <time>2018-09-16T09:58:12.000Z</time>
      </trkpt>
      <trkpt lat="46.71099" lon="-2.34123">
        <ele>24.4</ele>
        <time>2018-09-16T09:58:13.000Z</time>
      </trkpt>
      <trkpt lat="46.71099" lon="-2.34122">
        <ele>24.5</ele>
        <time>2018-09-16T09:58:14.000Z</time>
      </trkpt>
      <trkpt lat="46.71099" lon="-2.34121">
        <ele>24.5</ele>
        <time>2018-09-16T09:58:15.000Z</time>
      </trkpt>
      <trkpt lat="46.71098" lon="-2.3412">
        <ele>24.5</ele>
        <time>2018-09-16T09:58:16.000Z</time>
      </trkpt>
      <trkpt lat="46.71098" lon="-2.34119">
        <ele>24.5</ele>
        <time>2018-09-16T09:58:17.000Z</time>
      </trkpt>
      <trkpt lat="46.71097" lon="-2.34118">
        <ele>24.5</ele>
        <time>2018-09-16T09:58:18.000Z</time>
      </trkpt>
      <trkpt lat="46.71097" lon="-2.34117">
        <ele>24.5</ele>
        <time>2018-09-16T09:58:19.000Z</time>
      </trkpt>
      <trkpt lat="46.71097" lon="-2.34116">
        <ele>24.6</ele>
        <time>2018-09-16T09:58:20.000Z</time>
      </trkpt>
      <trkpt lat="46.71096" lon="-2.34114">
        <ele>24.6</ele>
        <time>2018-09-16T09:58:21.000Z</time>
      </trkpt>
      <trkpt lat="46.71095" lon="-2.34113">
        <ele>24.6</ele>
        <time>2018-09-16T09:58:22.000Z</time>
      </trkpt>
      <trkpt lat="46.71095" lon="-2.34112">
        <ele>24.6</ele>
        <time>2018-09-16T09:58:23.000Z</time>
      </trkpt>
      <trkpt lat="46.71094" lon="-2.3411">
        <ele>24.6</ele>
        <time>2018-09-16T09:58:24.000Z</time>
      </trkpt>
      <trkpt lat="46.71094" lon="-2.34109">
        <ele>24.7</ele>
        <time>2018-09-16T09:58:25.000Z</time>
      </trkpt>
      <trkpt lat="46.71093" lon="-2.34108">
        <ele>24.7</ele>
        <time>2018-09-16T09:58:26.000Z</time>
      </trkpt>
      <trkpt lat="46.71093" lon="-2.34107">
        <ele>24.7</ele>
        <time>2018-09-16T09:58:27.000Z</time>
      </trkpt>
      <trkpt lat="46.71093" lon="-2.34105">
        <ele>24.7</ele>
        <time>2018-09-16T09:58:28.000Z</time>
      </trkpt>
      <trkpt lat="46.71092" lon="-2.34104">
        <ele>24.7</ele>
        <time>2018-09-16T09:58:29.000Z</time>
      </trkpt>
      <trkpt lat="46.71092" lon="-2.34103">
        <ele>24.7</ele>
        <time>2018-09-16T09:58:30.000Z</time>
      </trkpt>
      <trkpt lat="46.71091" lon="-2.34101">
        <ele>24.8</ele>
        <time>2018-09-16T09:58:31.000Z</time>
      </trkpt>
      <trkpt lat="46.7109" lon="-2.341">
        <ele>24.8</ele>
        <time>2018-09-16T09:58:32.000Z</time>
      </trkpt>
      <trkpt lat="46.7109" lon="-2.34099">
        <ele>24.8</ele>
        <time>2018-09-16T09:58:33.000Z</time>
      </trkpt>
      <trkpt lat="46.71089" lon="-2.34097">
        <ele>24.8</ele>
        <time>2018-09-16T09:58:34.000Z</time>
      </trkpt>
      <trkpt lat="46.71089" lon="-2.34096">
        <ele>24.8</ele>
        <time>2018-09-16T09:58:35.000Z</time>
      </trkpt>
      <trkpt lat="46.71088" lon="-2.34095">
        <ele>24.9</ele>
        <time>2018-09-16T09:58:36.000Z</time>
      </trkpt>
      <trkpt lat="46.71088" lon="-2.34093">
        <ele>24.9</ele>
        <time>2018-09-16T09:58:37.000Z</time>
      </trkpt>
      <trkpt lat="46.71087" lon="-2.34092">
        <ele>24.9</ele>
        <time>2018-09-16T09:58:38.000Z</time>
      </trkpt>
      <trkpt lat="46.71087" lon="-2.3409">
        <ele>24.9</ele>
        <time>2018-09-16T09:58:39.000Z</time>
      </trkpt>
      <trkpt lat="46.71086" lon="-2.34088">
        <ele>24.9</ele>
        <time>2018-09-16T09:58:40.000Z</time>
      </trkpt>
      <trkpt lat="46.71086" lon="-2.34086">
        <ele>25</ele>
        <time>2018-09-16T09:58:41.000Z</time>
      </trkpt>
      <trkpt lat="46.71085" lon="-2.34084">
        <ele>25</ele>
        <time>2018-09-16T09:58:42.000Z</time>
      </trkpt>
      <trkpt lat="46.71085" lon="-2.34082">
        <ele>25</ele>
        <time>2018-09-16T09:58:43.000Z</time>
      </trkpt>
      <trkpt lat="46.71084" lon="-2.34081">
        <ele>25</ele>
        <time>2018-09-16T09:58:44.000Z</time>
      </trkpt>
      <trkpt lat="46.71084" lon="-2.34079">
        <ele>24.9</ele>
        <time>2018-09-16T09:58:45.000Z</time>
      </trkpt>
      <trkpt lat="46.71083" lon="-2.34077">
        <ele>24.9</ele>
        <time>2018-09-16T09:58:46.000Z</time>
      </trkpt>
      <trkpt lat="46.71083" lon="-2.34075">
        <ele>24.9</ele>
        <time>2018-09-16T09:58:47.000Z</time>
      </trkpt>
      <trkpt lat="46.71082" lon="-2.34073">
        <ele>24.9</ele>
        <time>2018-09-16T09:58:48.000Z</time>
      </trkpt>
      <trkpt lat="46.71081" lon="-2.34071">
        <ele>24.9</ele>
        <time>2018-09-16T09:58:49.000Z</time>
      </trkpt>
      <trkpt lat="46.71081" lon="-2.3407">
        <ele>24.8</ele>
        <time>2018-09-16T09:58:50.000Z</time>
      </trkpt>
      <trkpt lat="46.7108" lon="-2.34068">
        <ele>24.8</ele>
        <time>2018-09-16T09:58:51.000Z</time>
      </trkpt>
      <trkpt lat="46.7108" lon="-2.34066">
        <ele>24.8</ele>
        <time>2018-09-16T09:58:52.000Z</time>
      </trkpt>
      <trkpt lat="46.71079" lon="-2.34064">
        <ele>24.8</ele>
        <time>2018-09-16T09:58:53.000Z</time>
      </trkpt>
      <trkpt lat="46.71078" lon="-2.34063">
        <ele>24.8</ele>
        <time>2018-09-16T09:58:54.000Z</time>
      </trkpt>
      <trkpt lat="46.71078" lon="-2.34061">
        <ele>24.8</ele>
        <time>2018-09-16T09:58:55.000Z</time>
      </trkpt>
      <trkpt lat="46.71077" lon="-2.34059">
        <ele>24.7</ele>
        <time>2018-09-16T09:58:56.000Z</time>
      </trkpt>
      <trkpt lat="46.71077" lon="-2.34058">
        <ele>24.7</ele>
        <time>2018-09-16T09:58:57.000Z</time>
      </trkpt>
      <trkpt lat="46.71076" lon="-2.34056">
        <ele>24.7</ele>
        <time>2018-09-16T09:58:58.000Z</time>
      </trkpt>
      <trkpt lat="46.71075" lon="-2.34054">
        <ele>24.7</ele>
        <time>2018-09-16T09:58:59.000Z</time>
      </trkpt>
      <trkpt lat="46.71075" lon="-2.34053">
        <ele>24.7</ele>
        <time>2018-09-16T09:59:00.000Z</time>
      </trkpt>
      <trkpt lat="46.71074" lon="-2.34051">
        <ele>24.7</ele>
        <time>2018-09-16T09:59:01.000Z</time>
      </trkpt>
      <trkpt lat="46.71074" lon="-2.34049">
        <ele>24.6</ele>
        <time>2018-09-16T09:59:02.000Z</time>
      </trkpt>
      <trkpt lat="46.71073" lon="-2.34048">
        <ele>24.6</ele>
        <time>2018-09-16T09:59:03.000Z</time>
      </trkpt>
      <trkpt lat="46.71073" lon="-2.34046">
        <ele>24.6</ele>
        <time>2018-09-16T09:59:04.000Z</time>
      </trkpt>
      <trkpt lat="46.71072" lon="-2.34045">
        <ele>24.6</ele>
        <time>2018-09-16T09:59:05.000Z</time>
      </trkpt>
      <trkpt lat="46.71072" lon="-2.34043">
        <ele>24.6</ele>
        <time>2018-09-16T09:59:06.000Z</time>
      </trkpt>
      <trkpt lat="46.71071" lon="-2.34041">
        <ele>24.6</ele>
        <time>2018-09-16T09:59:07.000Z</time>
      </trkpt>
      <trkpt lat="46.71071" lon="-2.3404">
        <ele>24.6</ele>
        <time>2018-09-16T09:59:08.000Z</time>
      </trkpt>
      <trkpt lat="46.71071" lon="-2.34038">
        <ele>24.5</ele>
        <time>2018-09-16T09:59:09.000Z</time>
      </trkpt>
      <trkpt lat="46.7107" lon="-2.34037">
        <ele>24.5</ele>
        <time>2018-09-16T09:59:10.000Z</time>
      </trkpt>
      <trkpt lat="46.7107" lon="-2.34035">
        <ele>24.5</ele>
        <time>2018-09-16T09:59:11.000Z</time>
      </trkpt>
      <trkpt lat="46.71069" lon="-2.34034">
        <ele>24.5</ele>
        <time>2018-09-16T09:59:12.000Z</time>
      </trkpt>
      <trkpt lat="46.71069" lon="-2.34032">
        <ele>24.5</ele>
        <time>2018-09-16T09:59:13.000Z</time>
      </trkpt>
      <trkpt lat="46.71069" lon="-2.3403">
        <ele>24.5</ele>
        <time>2018-09-16T09:59:14.000Z</time>
      </trkpt>
      <trkpt lat="46.71068" lon="-2.34029">
        <ele>24.5</ele>
        <time>2018-09-16T09:59:15.000Z</time>
      </trkpt>
      <trkpt lat="46.71068" lon="-2.34027">
        <ele>24.5</ele>
        <time>2018-09-16T09:59:16.000Z</time>
      </trkpt>
      <trkpt lat="46.71067" lon="-2.34026">
        <ele>24.4</ele>
        <time>2018-09-16T09:59:17.000Z</time>
      </trkpt>
      <trkpt lat="46.71067" lon="-2.34024">
        <ele>24.4</ele>
        <time>2018-09-16T09:59:18.000Z</time>
      </trkpt>
      <trkpt lat="46.71067" lon="-2.34023">
        <ele>24.4</ele>
        <time>2018-09-16T09:59:19.000Z</time>
      </trkpt>
      <trkpt lat="46.71066" lon="-2.34021">
        <ele>24.4</ele>
        <time>2018-09-16T09:59:20.000Z</time>
      </trkpt>
      <trkpt lat="46.71066" lon="-2.3402">
        <ele>24.4</ele>
        <time>2018-09-16T09:59:21.000Z</time>
      </trkpt>
      <trkpt lat="46.71066" lon="-2.34018">
        <ele>24.4</ele>
        <time>2018-09-16T09:59:22.000Z</time>
      </trkpt>
      <trkpt lat="46.71065" lon="-2.34016">
        <ele>24.4</ele>
        <time>2018-09-16T09:59:23.000Z</time>
      </trkpt>
      <trkpt lat="46.71065" lon="-2.34015">
        <ele>24.4</ele>
        <time>2018-09-16T09:59:24.000Z</time>
      </trkpt>
      <trkpt lat="46.71064" lon="-2.34013">
        <ele>24.4</ele>
        <time>2018-09-16T09:59:25.000Z</time>
      </trkpt>
      <trkpt lat="46.71064" lon="-2.34012">
        <ele>24.3</ele>
        <time>2018-09-16T09:59:26.000Z</time>
      </trkpt>
      <trkpt lat="46.71064" lon="-2.3401">
        <ele>24.3</ele>
        <time>2018-09-16T09:59:27.000Z</time>
      </trkpt>
      <trkpt lat="46.71063" lon="-2.34009">
        <ele>24.3</ele>
        <time>2018-09-16T09:59:28.000Z</time>
      </trkpt>
      <trkpt lat="46.71063" lon="-2.34007">
        <ele>24.3</ele>
        <time>2018-09-16T09:59:29.000Z</time>
      </trkpt>
      <trkpt lat="46.71063" lon="-2.34005">
        <ele>24.3</ele>
        <time>2018-09-16T09:59:30.000Z</time>
      </trkpt>
      <trkpt lat="46.71062" lon="-2.34004">
        <ele>24.3</ele>
        <time>2018-09-16T09:59:31.000Z</time>
      </trkpt>
      <trkpt lat="46.71062" lon="-2.34002">
        <ele>24.3</ele>
        <time>2018-09-16T09:59:32.000Z</time>
      </trkpt>
      <trkpt lat="46.71061" lon="-2.34001">
        <ele>24.3</ele>
        <time>2018-09-16T09:59:33.000Z</time>
      </trkpt>
      <trkpt lat="46.71061" lon="-2.33999">
        <ele>24.3</ele>
        <time>2018-09-16T09:59:34.000Z</time>
      </trkpt>
      <trkpt lat="46.7106" lon="-2.33997">
        <ele>24.3</ele>
        <time>2018-09-16T09:59:35.000Z</time>
      </trkpt>
      <trkpt lat="46.7106" lon="-2.33996">
        <ele>24.3</ele>
        <time>2018-09-16T09:59:36.000Z</time>
      </trkpt>
      <trkpt lat="46.7106" lon="-2.33994">
        <ele>24.3</ele>
        <time>2018-09-16T09:59:37.000Z</time>
      </trkpt>
      <trkpt lat="46.71059" lon="-2.33992">
        <ele>24.3</ele>
        <time>2018-09-16T09:59:38.000Z</time>
      </trkpt>
      <trkpt lat="46.71059" lon="-2.33991">
        <ele>24.3</ele>
        <time>2018-09-16T09:59:39.000Z</time>
      </trkpt>
      <trkpt lat="46.71058" lon="-2.33989">
        <ele>24.3</ele>
        <time>2018-09-16T09:59:40.000Z</time>
      </trkpt>
      <trkpt lat="46.71058" lon="-2.33987">
        <ele>24.3</ele>
        <time>2018-09-16T09:59:41.000Z</time>
      </trkpt>
      <trkpt lat="46.71058" lon="-2.33986">
        <ele>24.3</ele>
        <time>2018-09-16T09:59:42.000Z</time>
      </trkpt>
      <trkpt lat="46.71057" lon="-2.33984">
        <ele>24.3</ele>
        <time>2018-09-16T09:59:43.000Z</time>
      </trkpt>
      <trkpt lat="46.71057" lon="-2.33982">
        <ele>24.3</ele>
        <time>2018-09-16T09:59:44.000Z</time>
      </trkpt>
      <trkpt lat="46.71057" lon="-2.33981">
        <ele>24.2</ele>
        <time>2018-09-16T09:59:45.000Z</time>
      </trkpt>
      <trkpt lat="46.71056" lon="-2.33979">
        <ele>24.2</ele>
        <time>2018-09-16T09:59:46.000Z</time>
      </trkpt>
      <trkpt lat="46.71056" lon="-2.33977">
        <ele>24.2</ele>
        <time>2018-09-16T09:59:47.000Z</time>
      </trkpt>
      <trkpt lat="46.71056" lon="-2.33975">
        <ele>24.2</ele>
        <time>2018-09-16T09:59:48.000Z</time>
      </trkpt>
      <trkpt lat="46.71055" lon="-2.33974">
        <ele>24.2</ele>
        <time>2018-09-16T09:59:49.000Z</time>
      </trkpt>
      <trkpt lat="46.71055" lon="-2.33972">
        <ele>24.2</ele>
        <time>2018-09-16T09:59:50.000Z</time>
      </trkpt>
      <trkpt lat="46.71055" lon="-2.3397">
        <ele>24.2</ele>
        <time>2018-09-16T09:59:51.000Z</time>
      </trkpt>
      <trkpt lat="46.71054" lon="-2.33968">
        <ele>24.2</ele>
        <time>2018-09-16T09:59:52.000Z</time>
      </trkpt>
      <trkpt lat="46.71054" lon="-2.33967">
        <ele>24.2</ele>
        <time>2018-09-16T09:59:53.000Z</time>
      </trkpt>
      <trkpt lat="46.71054" lon="-2.33965">
        <ele>24.2</ele>
        <time>2018-09-16T09:59:54.000Z</time>
      </trkpt>
      <trkpt lat="46.71054" lon="-2.33963">
        <ele>24.2</ele>
        <time>2018-09-16T09:59:55.000Z</time>
      </trkpt>
      <trkpt lat="46.71053" lon="-2.33961">
        <ele>24.2</ele>
        <time>2018-09-16T09:59:56.000Z</time>
      </trkpt>
      <trkpt lat="46.71053" lon="-2.33959">
        <ele>24.2</ele>
        <time>2018-09-16T09:59:57.000Z</time>
      </trkpt>
      <trkpt lat="46.71053" lon="-2.33958">
        <ele>24.2</ele>
        <time>2018-09-16T09:59:58.000Z</time>
      </trkpt>
      <trkpt lat="46.71053" lon="-2.33956">
        <ele>24.2</ele>
        <time>2018-09-16T09:59:59.000Z</time>
      </trkpt>
      <trkpt lat="46.71052" lon="-2.33954">
        <ele>24.2</ele>
        <time>2018-09-16T10:00:00.000Z</time>
      </trkpt>
      <trkpt lat="46.71052" lon="-2.33952">
        <ele>24.2</ele>
        <time>2018-09-16T10:00:01.000Z</time>
      </trkpt>
      <trkpt lat="46.71052" lon="-2.3395">
        <ele>24.2</ele>
        <time>2018-09-16T10:00:02.000Z</time>
      </trkpt>
      <trkpt lat="46.71051" lon="-2.33949">
        <ele>24.1</ele>
        <time>2018-09-16T10:00:03.000Z</time>
      </trkpt>
      <trkpt lat="46.71051" lon="-2.33947">
        <ele>24.1</ele>
        <time>2018-09-16T10:00:04.000Z</time>
      </trkpt>
      <trkpt lat="46.7105" lon="-2.33945">
        <ele>24.1</ele>
        <time>2018-09-16T10:00:05.000Z</time>
      </trkpt>
      <trkpt lat="46.7105" lon="-2.33944">
        <ele>24.1</ele>
        <time>2018-09-16T10:00:06.000Z</time>
      </trkpt>
      <trkpt lat="46.71049" lon="-2.33942">
        <ele>24.1</ele>
        <time>2018-09-16T10:00:07.000Z</time>
      </trkpt>
      <trkpt lat="46.71049" lon="-2.3394">
        <ele>24.1</ele>
        <time>2018-09-16T10:00:08.000Z</time>
      </trkpt>
      <trkpt lat="46.71048" lon="-2.33939">
        <ele>24.1</ele>
        <time>2018-09-16T10:00:09.000Z</time>
      </trkpt>
      <trkpt lat="46.71047" lon="-2.33937">
        <ele>24.1</ele>
        <time>2018-09-16T10:00:10.000Z</time>
      </trkpt>
      <trkpt lat="46.71047" lon="-2.33936">
        <ele>24.1</ele>
        <time>2018-09-16T10:00:11.000Z</time>
      </trkpt>
      <trkpt lat="46.71046" lon="-2.33934">
        <ele>24.1</ele>
        <time>2018-09-16T10:00:12.000Z</time>
      </trkpt>
      <trkpt lat="46.71046" lon="-2.33933">
        <ele>24.1</ele>
        <time>2018-09-16T10:00:13.000Z</time>
      </trkpt>
      <trkpt lat="46.71045" lon="-2.33931">
        <ele>24.1</ele>
        <time>2018-09-16T10:00:14.000Z</time>
      </trkpt>
      <trkpt lat="46.71044" lon="-2.33929">
        <ele>24.1</ele>
        <time>2018-09-16T10:00:15.000Z</time>
      </trkpt>
      <trkpt lat="46.71044" lon="-2.33928">
        <ele>24.1</ele>
        <time>2018-09-16T10:00:16.000Z</time>
      </trkpt>
      <trkpt lat="46.71044" lon="-2.33926">
        <ele>24.1</ele>
        <time>2018-09-16T10:00:17.000Z</time>
      </trkpt>
      <trkpt lat="46.71043" lon="-2.33925">
        <ele>24</ele>
        <time>2018-09-16T10:00:18.000Z</time>
      </trkpt>
      <trkpt lat="46.71042" lon="-2.33923">
        <ele>24</ele>
        <time>2018-09-16T10:00:19.000Z</time>
      </trkpt>
      <trkpt lat="46.71042" lon="-2.33922">
        <ele>24</ele>
        <time>2018-09-16T10:00:20.000Z</time>
      </trkpt>
      <trkpt lat="46.71041" lon="-2.33921">
        <ele>24</ele>
        <time>2018-09-16T10:00:21.000Z</time>
      </trkpt>
      <trkpt lat="46.71041" lon="-2.33919">
        <ele>24</ele>
        <time>2018-09-16T10:00:22.000Z</time>
      </trkpt>
      <trkpt lat="46.7104" lon="-2.33918">
        <ele>24</ele>
        <time>2018-09-16T10:00:23.000Z</time>
      </trkpt>
      <trkpt lat="46.71039" lon="-2.33917">
        <ele>24</ele>
        <time>2018-09-16T10:00:24.000Z</time>
      </trkpt>
      <trkpt lat="46.71038" lon="-2.33916">
        <ele>24</ele>
        <time>2018-09-16T10:00:25.000Z</time>
      </trkpt>
      <trkpt lat="46.71037" lon="-2.33915">
        <ele>24</ele>
        <time>2018-09-16T10:00:26.000Z</time>
      </trkpt>
      <trkpt lat="46.71036" lon="-2.33914">
        <ele>24</ele>
        <time>2018-09-16T10:00:27.000Z</time>
      </trkpt>
      <trkpt lat="46.71035" lon="-2.33913">
        <ele>24</ele>
        <time>2018-09-16T10:00:28.000Z</time>
      </trkpt>
      <trkpt lat="46.71034" lon="-2.33912">
        <ele>24</ele>
        <time>2018-09-16T10:00:29.000Z</time>
      </trkpt>
      <trkpt lat="46.71033" lon="-2.33911">
        <ele>24</ele>
        <time>2018-09-16T10:00:30.000Z</time>
      </trkpt>
      <trkpt lat="46.71032" lon="-2.33911">
        <ele>24</ele>
        <time>2018-09-16T10:00:31.000Z</time>
      </trkpt>
      <trkpt lat="46.71031" lon="-2.3391">
        <ele>24.1</ele>
        <time>2018-09-16T10:00:32.000Z</time>
      </trkpt>
      <trkpt lat="46.7103" lon="-2.33909">
        <ele>24.1</ele>
        <time>2018-09-16T10:00:33.000Z</time>
      </trkpt>
      <trkpt lat="46.71029" lon="-2.33909">
        <ele>24.1</ele>
        <time>2018-09-16T10:00:34.000Z</time>
      </trkpt>
      <trkpt lat="46.71027" lon="-2.33908">
        <ele>24.1</ele>
        <time>2018-09-16T10:00:35.000Z</time>
      </trkpt>
      <trkpt lat="46.71026" lon="-2.33907">
        <ele>24.1</ele>
        <time>2018-09-16T10:00:36.000Z</time>
      </trkpt>
      <trkpt lat="46.71025" lon="-2.33907">
        <ele>24.1</ele>
        <time>2018-09-16T10:00:37.000Z</time>
      </trkpt>
      <trkpt lat="46.71024" lon="-2.33906">
        <ele>24.1</ele>
        <time>2018-09-16T10:00:38.000Z</time>
      </trkpt>
      <trkpt lat="46.71023" lon="-2.33905">
        <ele>24.1</ele>
        <time>2018-09-16T10:00:39.000Z</time>
      </trkpt>
      <trkpt lat="46.71022" lon="-2.33905">
        <ele>24.1</ele>
        <time>2018-09-16T10:00:40.000Z</time>
      </trkpt>
      <trkpt lat="46.71021" lon="-2.33904">
        <ele>24.1</ele>
        <time>2018-09-16T10:00:41.000Z</time>
      </trkpt>
      <trkpt lat="46.71021" lon="-2.33904">
        <ele>24.1</ele>
        <time>2018-09-16T10:00:42.000Z</time>
      </trkpt>
      <trkpt lat="46.7102" lon="-2.33904">
        <ele>24.1</ele>
        <time>2018-09-16T10:00:43.000Z</time>
      </trkpt>
      <trkpt lat="46.71019" lon="-2.33903">
        <ele>24.1</ele>
        <time>2018-09-16T10:00:44.000Z</time>
      </trkpt>
      <trkpt lat="46.71018" lon="-2.33903">
        <ele>24.1</ele>
        <time>2018-09-16T10:00:45.000Z</time>
      </trkpt>
      <trkpt lat="46.71018" lon="-2.33903">
        <ele>24.1</ele>
        <time>2018-09-16T10:00:46.000Z</time>
      </trkpt>
      <trkpt lat="46.71017" lon="-2.33903">
        <ele>24.1</ele>
        <time>2018-09-16T10:00:47.000Z</time>
      </trkpt>
      <trkpt lat="46.71016" lon="-2.33902">
        <ele>24.1</ele>
        <time>2018-09-16T10:00:48.000Z</time>
      </trkpt>
      <trkpt lat="46.71015" lon="-2.33902">
        <ele>24.1</ele>
        <time>2018-09-16T10:00:49.000Z</time>
      </trkpt>
      <trkpt lat="46.71014" lon="-2.33901">
        <ele>24.2</ele>
        <time>2018-09-16T10:00:50.000Z</time>
      </trkpt>
      <trkpt lat="46.71013" lon="-2.33901">
        <ele>24.2</ele>
        <time>2018-09-16T10:00:51.000Z</time>
      </trkpt>
      <trkpt lat="46.71012" lon="-2.339">
        <ele>24.2</ele>
        <time>2018-09-16T10:00:52.000Z</time>
      </trkpt>
      <trkpt lat="46.7101" lon="-2.33898">
        <ele>24.2</ele>
        <time>2018-09-16T10:00:53.000Z</time>
      </trkpt>
      <trkpt lat="46.71009" lon="-2.33897">
        <ele>24.2</ele>
        <time>2018-09-16T10:00:54.000Z</time>
      </trkpt>
      <trkpt lat="46.71008" lon="-2.33896">
        <ele>24.2</ele>
        <time>2018-09-16T10:00:55.000Z</time>
      </trkpt>
      <trkpt lat="46.71006" lon="-2.33894">
        <ele>24.2</ele>
        <time>2018-09-16T10:00:56.000Z</time>
      </trkpt>
      <trkpt lat="46.71005" lon="-2.33893">
        <ele>24.3</ele>
        <time>2018-09-16T10:00:57.000Z</time>
      </trkpt>
      <trkpt lat="46.71003" lon="-2.33892">
        <ele>24.3</ele>
        <time>2018-09-16T10:00:58.000Z</time>
      </trkpt>
      <trkpt lat="46.71002" lon="-2.33892">
        <ele>24.3</ele>
        <time>2018-09-16T10:00:59.000Z</time>
      </trkpt>
      <trkpt lat="46.71001" lon="-2.33891">
        <ele>24.3</ele>
        <time>2018-09-16T10:01:00.000Z</time>
      </trkpt>
      <trkpt lat="46.71" lon="-2.33891">
        <ele>24.3</ele>
        <time>2018-09-16T10:01:01.000Z</time>
      </trkpt>
      <trkpt lat="46.70999" lon="-2.3389">
        <ele>24.3</ele>
        <time>2018-09-16T10:01:02.000Z</time>
      </trkpt>
      <trkpt lat="46.70998" lon="-2.3389">
        <ele>24.3</ele>
        <time>2018-09-16T10:01:03.000Z</time>
      </trkpt>
      <trkpt lat="46.70996" lon="-2.33889">
        <ele>24.4</ele>
        <time>2018-09-16T10:01:04.000Z</time>
      </trkpt>
      <trkpt lat="46.70995" lon="-2.33889">
        <ele>24.4</ele>
        <time>2018-09-16T10:01:05.000Z</time>
      </trkpt>
      <trkpt lat="46.70994" lon="-2.33888">
        <ele>24.4</ele>
        <time>2018-09-16T10:01:06.000Z</time>
      </trkpt>
      <trkpt lat="46.70993" lon="-2.33888">
        <ele>24.4</ele>
        <time>2018-09-16T10:01:07.000Z</time>
      </trkpt>
      <trkpt lat="46.70993" lon="-2.33888">
        <ele>24.4</ele>
        <time>2018-09-16T10:01:08.000Z</time>
      </trkpt>
      <trkpt lat="46.70993" lon="-2.33888">
        <ele>24.4</ele>
        <time>2018-09-16T10:01:09.000Z</time>
      </trkpt>
      <trkpt lat="46.70993" lon="-2.33887">
        <ele>24.4</ele>
        <time>2018-09-16T10:01:10.000Z</time>
      </trkpt>
      <trkpt lat="46.70992" lon="-2.33887">
        <ele>24.4</ele>
        <time>2018-09-16T10:01:11.000Z</time>
      </trkpt>
      <trkpt lat="46.70991" lon="-2.33887">
        <ele>24.4</ele>
        <time>2018-09-16T10:01:12.000Z</time>
      </trkpt>
      <trkpt lat="46.70991" lon="-2.33886">
        <ele>24.4</ele>
        <time>2018-09-16T10:01:13.000Z</time>
      </trkpt>
      <trkpt lat="46.7099" lon="-2.33886">
        <ele>24.5</ele>
        <time>2018-09-16T10:01:14.000Z</time>
      </trkpt>
      <trkpt lat="46.70989" lon="-2.33885">
        <ele>24.5</ele>
        <time>2018-09-16T10:01:15.000Z</time>
      </trkpt>
      <trkpt lat="46.70988" lon="-2.33885">
        <ele>24.5</ele>
        <time>2018-09-16T10:01:16.000Z</time>
      </trkpt>
      <trkpt lat="46.70987" lon="-2.33885">
        <ele>24.5</ele>
        <time>2018-09-16T10:01:17.000Z</time>
      </trkpt>
      <trkpt lat="46.70985" lon="-2.33884">
        <ele>24.5</ele>
        <time>2018-09-16T10:01:18.000Z</time>
      </trkpt>
      <trkpt lat="46.70984" lon="-2.33884">
        <ele>24.5</ele>
        <time>2018-09-16T10:01:19.000Z</time>
      </trkpt>
      <trkpt lat="46.70983" lon="-2.33883">
        <ele>24.5</ele>
        <time>2018-09-16T10:01:20.000Z</time>
      </trkpt>
      <trkpt lat="46.70982" lon="-2.33883">
        <ele>24.5</ele>
        <time>2018-09-16T10:01:21.000Z</time>
      </trkpt>
      <trkpt lat="46.70981" lon="-2.33882">
        <ele>24.5</ele>
        <time>2018-09-16T10:01:22.000Z</time>
      </trkpt>
      <trkpt lat="46.70979" lon="-2.33882">
        <ele>24.6</ele>
        <time>2018-09-16T10:01:23.000Z</time>
      </trkpt>
      <trkpt lat="46.70978" lon="-2.33882">
        <ele>24.6</ele>
        <time>2018-09-16T10:01:24.000Z</time>
      </trkpt>
      <trkpt lat="46.70977" lon="-2.33881">
        <ele>24.6</ele>
        <time>2018-09-16T10:01:25.000Z</time>
      </trkpt>
      <trkpt lat="46.70975" lon="-2.3388">
        <ele>24.6</ele>
        <time>2018-09-16T10:01:26.000Z</time>
      </trkpt>
      <trkpt lat="46.70974" lon="-2.3388">
        <ele>24.6</ele>
        <time>2018-09-16T10:01:27.000Z</time>
      </trkpt>
      <trkpt lat="46.70973" lon="-2.33879">
        <ele>24.6</ele>
        <time>2018-09-16T10:01:28.000Z</time>
      </trkpt>
      <trkpt lat="46.70972" lon="-2.33878">
        <ele>24.6</ele>
        <time>2018-09-16T10:01:29.000Z</time>
      </trkpt>
      <trkpt lat="46.70971" lon="-2.33878">
        <ele>24.7</ele>
        <time>2018-09-16T10:01:30.000Z</time>
      </trkpt>
      <trkpt lat="46.70969" lon="-2.33877">
        <ele>24.7</ele>
        <time>2018-09-16T10:01:31.000Z</time>
      </trkpt>
      <trkpt lat="46.70968" lon="-2.33876">
        <ele>24.7</ele>
        <time>2018-09-16T10:01:32.000Z</time>
      </trkpt>
      <trkpt lat="46.70967" lon="-2.33875">
        <ele>24.7</ele>
        <time>2018-09-16T10:01:33.000Z</time>
      </trkpt>
      <trkpt lat="46.70966" lon="-2.33874">
        <ele>24.7</ele>
        <time>2018-09-16T10:01:34.000Z</time>
      </trkpt>
      <trkpt lat="46.70965" lon="-2.33873">
        <ele>24.7</ele>
        <time>2018-09-16T10:01:35.000Z</time>
      </trkpt>
      <trkpt lat="46.70964" lon="-2.33872">
        <ele>24.7</ele>
        <time>2018-09-16T10:01:36.000Z</time>
      </trkpt>
      <trkpt lat="46.70963" lon="-2.33871">
        <ele>24.7</ele>
        <time>2018-09-16T10:01:37.000Z</time>
      </trkpt>
      <trkpt lat="46.70962" lon="-2.3387">
        <ele>24.8</ele>
        <time>2018-09-16T10:01:38.000Z</time>
      </trkpt>
      <trkpt lat="46.70961" lon="-2.33869">
        <ele>24.8</ele>
        <time>2018-09-16T10:01:39.000Z</time>
      </trkpt>
      <trkpt lat="46.7096" lon="-2.33868">
        <ele>24.8</ele>
        <time>2018-09-16T10:01:40.000Z</time>
      </trkpt>
      <trkpt lat="46.70959" lon="-2.33868">
        <ele>24.8</ele>
        <time>2018-09-16T10:01:41.000Z</time>
      </trkpt>
      <trkpt lat="46.70958" lon="-2.33867">
        <ele>24.8</ele>
        <time>2018-09-16T10:01:42.000Z</time>
      </trkpt>
      <trkpt lat="46.70957" lon="-2.33866">
        <ele>24.8</ele>
        <time>2018-09-16T10:01:43.000Z</time>
      </trkpt>
      <trkpt lat="46.70956" lon="-2.33865">
        <ele>24.8</ele>
        <time>2018-09-16T10:01:44.000Z</time>
      </trkpt>
      <trkpt lat="46.70955" lon="-2.33864">
        <ele>24.8</ele>
        <time>2018-09-16T10:01:45.000Z</time>
      </trkpt>
      <trkpt lat="46.70954" lon="-2.33863">
        <ele>24.8</ele>
        <time>2018-09-16T10:01:46.000Z</time>
      </trkpt>
      <trkpt lat="46.70953" lon="-2.33862">
        <ele>24.8</ele>
        <time>2018-09-16T10:01:47.000Z</time>
      </trkpt>
      <trkpt lat="46.70952" lon="-2.33861">
        <ele>24.9</ele>
        <time>2018-09-16T10:01:48.000Z</time>
      </trkpt>
      <trkpt lat="46.70951" lon="-2.3386">
        <ele>24.9</ele>
        <time>2018-09-16T10:01:49.000Z</time>
      </trkpt>
      <trkpt lat="46.70951" lon="-2.33859">
        <ele>24.9</ele>
        <time>2018-09-16T10:01:50.000Z</time>
      </trkpt>
      <trkpt lat="46.7095" lon="-2.33859">
        <ele>24.9</ele>
        <time>2018-09-16T10:01:51.000Z</time>
      </trkpt>
      <trkpt lat="46.70949" lon="-2.33858">
        <ele>24.9</ele>
        <time>2018-09-16T10:01:52.000Z</time>
      </trkpt>
      <trkpt lat="46.70948" lon="-2.33857">
        <ele>24.9</ele>
        <time>2018-09-16T10:01:53.000Z</time>
      </trkpt>
      <trkpt lat="46.70947" lon="-2.33856">
        <ele>24.9</ele>
        <time>2018-09-16T10:01:54.000Z</time>
      </trkpt>
      <trkpt lat="46.70946" lon="-2.33856">
        <ele>24.9</ele>
        <time>2018-09-16T10:01:55.000Z</time>
      </trkpt>
      <trkpt lat="46.70945" lon="-2.33855">
        <ele>24.9</ele>
        <time>2018-09-16T10:01:56.000Z</time>
      </trkpt>
      <trkpt lat="46.70944" lon="-2.33854">
        <ele>24.9</ele>
        <time>2018-09-16T10:01:57.000Z</time>
      </trkpt>
      <trkpt lat="46.70942" lon="-2.33854">
        <ele>24.9</ele>
        <time>2018-09-16T10:01:58.000Z</time>
      </trkpt>
      <trkpt lat="46.70941" lon="-2.33853">
        <ele>24.9</ele>
        <time>2018-09-16T10:01:59.000Z</time>
      </trkpt>
      <trkpt lat="46.7094" lon="-2.33852">
        <ele>24.9</ele>
        <time>2018-09-16T10:02:00.000Z</time>
      </trkpt>
      <trkpt lat="46.70939" lon="-2.33852">
        <ele>24.9</ele>
        <time>2018-09-16T10:02:01.000Z</time>
      </trkpt>
      <trkpt lat="46.70938" lon="-2.33851">
        <ele>24.9</ele>
        <time>2018-09-16T10:02:02.000Z</time>
      </trkpt>
      <trkpt lat="46.70937" lon="-2.3385">
        <ele>25</ele>
        <time>2018-09-16T10:02:03.000Z</time>
      </trkpt>
      <trkpt lat="46.70936" lon="-2.3385">
        <ele>25</ele>
        <time>2018-09-16T10:02:04.000Z</time>
      </trkpt>
      <trkpt lat="46.70935" lon="-2.33849">
        <ele>25</ele>
        <time>2018-09-16T10:02:05.000Z</time>
      </trkpt>
      <trkpt lat="46.70934" lon="-2.33848">
        <ele>25</ele>
        <time>2018-09-16T10:02:06.000Z</time>
      </trkpt>
      <trkpt lat="46.70933" lon="-2.33848">
        <ele>25</ele>
        <time>2018-09-16T10:02:07.000Z</time>
      </trkpt>
      <trkpt lat="46.70932" lon="-2.33847">
        <ele>25</ele>
        <time>2018-09-16T10:02:08.000Z</time>
      </trkpt>
      <trkpt lat="46.7093" lon="-2.33846">
        <ele>25</ele>
        <time>2018-09-16T10:02:09.000Z</time>
      </trkpt>
      <trkpt lat="46.70929" lon="-2.33845">
        <ele>25</ele>
        <time>2018-09-16T10:02:10.000Z</time>
      </trkpt>
      <trkpt lat="46.70928" lon="-2.33845">
        <ele>25</ele>
        <time>2018-09-16T10:02:11.000Z</time>
      </trkpt>
      <trkpt lat="46.70927" lon="-2.33844">
        <ele>25</ele>
        <time>2018-09-16T10:02:12.000Z</time>
      </trkpt>
      <trkpt lat="46.70926" lon="-2.33843">
        <ele>25</ele>
        <time>2018-09-16T10:02:13.000Z</time>
      </trkpt>
      <trkpt lat="46.70925" lon="-2.33843">
        <ele>25</ele>
        <time>2018-09-16T10:02:14.000Z</time>
      </trkpt>
      <trkpt lat="46.70924" lon="-2.33842">
        <ele>25</ele>
        <time>2018-09-16T10:02:15.000Z</time>
      </trkpt>
      <trkpt lat="46.70923" lon="-2.33842">
        <ele>25</ele>
        <time>2018-09-16T10:02:16.000Z</time>
      </trkpt>
      <trkpt lat="46.70922" lon="-2.33841">
        <ele>25</ele>
        <time>2018-09-16T10:02:17.000Z</time>
      </trkpt>
      <trkpt lat="46.70921" lon="-2.33841">
        <ele>25</ele>
        <time>2018-09-16T10:02:18.000Z</time>
      </trkpt>
      <trkpt lat="46.7092" lon="-2.3384">
        <ele>25</ele>
        <time>2018-09-16T10:02:19.000Z</time>
      </trkpt>
      <trkpt lat="46.70919" lon="-2.33839">
        <ele>25</ele>
        <time>2018-09-16T10:02:20.000Z</time>
      </trkpt>
      <trkpt lat="46.70918" lon="-2.33839">
        <ele>25</ele>
        <time>2018-09-16T10:02:21.000Z</time>
      </trkpt>
      <trkpt lat="46.70917" lon="-2.33838">
        <ele>25</ele>
        <time>2018-09-16T10:02:22.000Z</time>
      </trkpt>
      <trkpt lat="46.70916" lon="-2.33838">
        <ele>25</ele>
        <time>2018-09-16T10:02:23.000Z</time>
      </trkpt>
      <trkpt lat="46.70915" lon="-2.33837">
        <ele>25</ele>
        <time>2018-09-16T10:02:24.000Z</time>
      </trkpt>
      <trkpt lat="46.70914" lon="-2.33837">
        <ele>24.9</ele>
        <time>2018-09-16T10:02:25.000Z</time>
      </trkpt>
      <trkpt lat="46.70913" lon="-2.33836">
        <ele>24.9</ele>
        <time>2018-09-16T10:02:26.000Z</time>
      </trkpt>
      <trkpt lat="46.70912" lon="-2.33835">
        <ele>24.9</ele>
        <time>2018-09-16T10:02:27.000Z</time>
      </trkpt>
      <trkpt lat="46.70911" lon="-2.33834">
        <ele>24.9</ele>
        <time>2018-09-16T10:02:28.000Z</time>
      </trkpt>
      <trkpt lat="46.7091" lon="-2.33834">
        <ele>24.8</ele>
        <time>2018-09-16T10:02:29.000Z</time>
      </trkpt>
      <trkpt lat="46.70909" lon="-2.33833">
        <ele>24.8</ele>
        <time>2018-09-16T10:02:30.000Z</time>
      </trkpt>
      <trkpt lat="46.70909" lon="-2.33832">
        <ele>24.8</ele>
        <time>2018-09-16T10:02:31.000Z</time>
      </trkpt>
      <trkpt lat="46.70908" lon="-2.33831">
        <ele>24.8</ele>
        <time>2018-09-16T10:02:32.000Z</time>
      </trkpt>
      <trkpt lat="46.70907" lon="-2.3383">
        <ele>24.7</ele>
        <time>2018-09-16T10:02:33.000Z</time>
      </trkpt>
      <trkpt lat="46.70906" lon="-2.33829">
        <ele>24.7</ele>
        <time>2018-09-16T10:02:34.000Z</time>
      </trkpt>
      <trkpt lat="46.70905" lon="-2.33828">
        <ele>24.7</ele>
        <time>2018-09-16T10:02:35.000Z</time>
      </trkpt>
      <trkpt lat="46.70904" lon="-2.33827">
        <ele>24.6</ele>
        <time>2018-09-16T10:02:36.000Z</time>
      </trkpt>
      <trkpt lat="46.70903" lon="-2.33826">
        <ele>24.6</ele>
        <time>2018-09-16T10:02:37.000Z</time>
      </trkpt>
      <trkpt lat="46.70902" lon="-2.33825">
        <ele>24.6</ele>
        <time>2018-09-16T10:02:38.000Z</time>
      </trkpt>
      <trkpt lat="46.70901" lon="-2.33824">
        <ele>24.5</ele>
        <time>2018-09-16T10:02:39.000Z</time>
      </trkpt>
      <trkpt lat="46.709" lon="-2.33823">
        <ele>24.5</ele>
        <time>2018-09-16T10:02:40.000Z</time>
      </trkpt>
      <trkpt lat="46.709" lon="-2.33822">
        <ele>24.5</ele>
        <time>2018-09-16T10:02:41.000Z</time>
      </trkpt>
      <trkpt lat="46.70899" lon="-2.33821">
        <ele>24.4</ele>
        <time>2018-09-16T10:02:42.000Z</time>
      </trkpt>
      <trkpt lat="46.70898" lon="-2.33819">
        <ele>24.4</ele>
        <time>2018-09-16T10:02:43.000Z</time>
      </trkpt>
      <trkpt lat="46.70897" lon="-2.33818">
        <ele>24.4</ele>
        <time>2018-09-16T10:02:44.000Z</time>
      </trkpt>
      <trkpt lat="46.70896" lon="-2.33817">
        <ele>24.4</ele>
        <time>2018-09-16T10:02:45.000Z</time>
      </trkpt>
      <trkpt lat="46.70896" lon="-2.33816">
        <ele>24.3</ele>
        <time>2018-09-16T10:02:46.000Z</time>
      </trkpt>
      <trkpt lat="46.70895" lon="-2.33815">
        <ele>24.3</ele>
        <time>2018-09-16T10:02:47.000Z</time>
      </trkpt>
      <trkpt lat="46.70894" lon="-2.33814">
        <ele>24.3</ele>
        <time>2018-09-16T10:02:48.000Z</time>
      </trkpt>
      <trkpt lat="46.70893" lon="-2.33812">
        <ele>24.3</ele>
        <time>2018-09-16T10:02:49.000Z</time>
      </trkpt>
      <trkpt lat="46.70892" lon="-2.33812">
        <ele>24.2</ele>
        <time>2018-09-16T10:02:50.000Z</time>
      </trkpt>
      <trkpt lat="46.70891" lon="-2.33811">
        <ele>24.2</ele>
        <time>2018-09-16T10:02:51.000Z</time>
      </trkpt>
      <trkpt lat="46.7089" lon="-2.3381">
        <ele>24.2</ele>
        <time>2018-09-16T10:02:52.000Z</time>
      </trkpt>
      <trkpt lat="46.70889" lon="-2.33809">
        <ele>24.1</ele>
        <time>2018-09-16T10:02:53.000Z</time>
      </trkpt>
      <trkpt lat="46.70888" lon="-2.33809">
        <ele>24.1</ele>
        <time>2018-09-16T10:02:54.000Z</time>
      </trkpt>
      <trkpt lat="46.70887" lon="-2.33809">
        <ele>24.1</ele>
        <time>2018-09-16T10:02:55.000Z</time>
      </trkpt>
      <trkpt lat="46.70886" lon="-2.33809">
        <ele>24.1</ele>
        <time>2018-09-16T10:02:56.000Z</time>
      </trkpt>
      <trkpt lat="46.70885" lon="-2.33809">
        <ele>24.1</ele>
        <time>2018-09-16T10:02:57.000Z</time>
      </trkpt>
      <trkpt lat="46.70884" lon="-2.3381">
        <ele>24</ele>
        <time>2018-09-16T10:02:58.000Z</time>
      </trkpt>
      <trkpt lat="46.70884" lon="-2.3381">
        <ele>24</ele>
        <time>2018-09-16T10:02:59.000Z</time>
      </trkpt>
      <trkpt lat="46.70883" lon="-2.33811">
        <ele>24</ele>
        <time>2018-09-16T10:03:00.000Z</time>
      </trkpt>
      <trkpt lat="46.70883" lon="-2.33811">
        <ele>24</ele>
        <time>2018-09-16T10:03:01.000Z</time>
      </trkpt>
      <trkpt lat="46.70883" lon="-2.33811">
        <ele>24</ele>
        <time>2018-09-16T10:03:02.000Z</time>
      </trkpt>
      <trkpt lat="46.70883" lon="-2.33811">
        <ele>24</ele>
        <time>2018-09-16T10:03:03.000Z</time>
      </trkpt>
      <trkpt lat="46.70883" lon="-2.33811">
        <ele>24</ele>
        <time>2018-09-16T10:03:04.000Z</time>
      </trkpt>
      <trkpt lat="46.70883" lon="-2.3381">
        <ele>24</ele>
        <time>2018-09-16T10:03:05.000Z</time>
      </trkpt>
      <trkpt lat="46.70883" lon="-2.3381">
        <ele>24</ele>
        <time>2018-09-16T10:03:06.000Z</time>
      </trkpt>
      <trkpt lat="46.70883" lon="-2.3381">
        <ele>24</ele>
        <time>2018-09-16T10:03:07.000Z</time>
      </trkpt>
      <trkpt lat="46.70883" lon="-2.3381">
        <ele>24</ele>
        <time>2018-09-16T10:03:08.000Z</time>
      </trkpt>
      <trkpt lat="46.70883" lon="-2.3381">
        <ele>24</ele>
        <time>2018-09-16T10:03:09.000Z</time>
      </trkpt>
      <trkpt lat="46.70882" lon="-2.33809">
        <ele>24</ele>
        <time>2018-09-16T10:03:10.000Z</time>
      </trkpt>
      <trkpt lat="46.70882" lon="-2.33809">
        <ele>24</ele>
        <time>2018-09-16T10:03:11.000Z</time>
      </trkpt>
      <trkpt lat="46.70881" lon="-2.33809">
        <ele>24</ele>
        <time>2018-09-16T10:03:12.000Z</time>
      </trkpt>
      <trkpt lat="46.70881" lon="-2.33808">
        <ele>24</ele>
        <time>2018-09-16T10:03:13.000Z</time>
      </trkpt>
      <trkpt lat="46.7088" lon="-2.33807">
        <ele>24</ele>
        <time>2018-09-16T10:03:14.000Z</time>
      </trkpt>
      <trkpt lat="46.7088" lon="-2.33806">
        <ele>23.9</ele>
        <time>2018-09-16T10:03:15.000Z</time>
      </trkpt>
      <trkpt lat="46.7088" lon="-2.33805">
        <ele>23.9</ele>
        <time>2018-09-16T10:03:16.000Z</time>
      </trkpt>
      <trkpt lat="46.7088" lon="-2.33803">
        <ele>23.9</ele>
        <time>2018-09-16T10:03:17.000Z</time>
      </trkpt>
      <trkpt lat="46.7088" lon="-2.33802">
        <ele>23.9</ele>
        <time>2018-09-16T10:03:18.000Z</time>
      </trkpt>
      <trkpt lat="46.7088" lon="-2.338">
        <ele>23.9</ele>
        <time>2018-09-16T10:03:19.000Z</time>
      </trkpt>
      <trkpt lat="46.7088" lon="-2.33798">
        <ele>23.9</ele>
        <time>2018-09-16T10:03:20.000Z</time>
      </trkpt>
      <trkpt lat="46.7088" lon="-2.33796">
        <ele>23.9</ele>
        <time>2018-09-16T10:03:21.000Z</time>
      </trkpt>
      <trkpt lat="46.7088" lon="-2.33794">
        <ele>23.9</ele>
        <time>2018-09-16T10:03:22.000Z</time>
      </trkpt>
      <trkpt lat="46.70881" lon="-2.33793">
        <ele>23.9</ele>
        <time>2018-09-16T10:03:23.000Z</time>
      </trkpt>
      <trkpt lat="46.70881" lon="-2.33791">
        <ele>23.9</ele>
        <time>2018-09-16T10:03:24.000Z</time>
      </trkpt>
      <trkpt lat="46.70881" lon="-2.33789">
        <ele>23.8</ele>
        <time>2018-09-16T10:03:25.000Z</time>
      </trkpt>
      <trkpt lat="46.70882" lon="-2.33788">
        <ele>23.8</ele>
        <time>2018-09-16T10:03:26.000Z</time>
      </trkpt>
      <trkpt lat="46.70882" lon="-2.33786">
        <ele>23.8</ele>
        <time>2018-09-16T10:03:27.000Z</time>
      </trkpt>
      <trkpt lat="46.70882" lon="-2.33784">
        <ele>23.8</ele>
        <time>2018-09-16T10:03:28.000Z</time>
      </trkpt>
      <trkpt lat="46.70882" lon="-2.33783">
        <ele>23.8</ele>
        <time>2018-09-16T10:03:29.000Z</time>
      </trkpt>
      <trkpt lat="46.70883" lon="-2.33781">
        <ele>23.8</ele>
        <time>2018-09-16T10:03:30.000Z</time>
      </trkpt>
      <trkpt lat="46.70883" lon="-2.33779">
        <ele>23.8</ele>
        <time>2018-09-16T10:03:31.000Z</time>
      </trkpt>
      <trkpt lat="46.70883" lon="-2.33777">
        <ele>23.8</ele>
        <time>2018-09-16T10:03:32.000Z</time>
      </trkpt>
      <trkpt lat="46.70883" lon="-2.33776">
        <ele>23.8</ele>
        <time>2018-09-16T10:03:33.000Z</time>
      </trkpt>
      <trkpt lat="46.70883" lon="-2.33774">
        <ele>23.8</ele>
        <time>2018-09-16T10:03:34.000Z</time>
      </trkpt>
      <trkpt lat="46.70883" lon="-2.33772">
        <ele>23.8</ele>
        <time>2018-09-16T10:03:35.000Z</time>
      </trkpt>
      <trkpt lat="46.70883" lon="-2.3377">
        <ele>23.7</ele>
        <time>2018-09-16T10:03:36.000Z</time>
      </trkpt>
      <trkpt lat="46.70883" lon="-2.33768">
        <ele>23.7</ele>
        <time>2018-09-16T10:03:37.000Z</time>
      </trkpt>
      <trkpt lat="46.70883" lon="-2.33766">
        <ele>23.7</ele>
        <time>2018-09-16T10:03:38.000Z</time>
      </trkpt>
      <trkpt lat="46.70883" lon="-2.33764">
        <ele>23.7</ele>
        <time>2018-09-16T10:03:39.000Z</time>
      </trkpt>
      <trkpt lat="46.70883" lon="-2.33763">
        <ele>23.7</ele>
        <time>2018-09-16T10:03:40.000Z</time>
      </trkpt>
      <trkpt lat="46.70883" lon="-2.33761">
        <ele>23.7</ele>
        <time>2018-09-16T10:03:41.000Z</time>
      </trkpt>
      <trkpt lat="46.70883" lon="-2.33759">
        <ele>23.7</ele>
        <time>2018-09-16T10:03:42.000Z</time>
      </trkpt>
      <trkpt lat="46.70882" lon="-2.33757">
        <ele>23.6</ele>
        <time>2018-09-16T10:03:43.000Z</time>
      </trkpt>
      <trkpt lat="46.70882" lon="-2.33755">
        <ele>23.6</ele>
        <time>2018-09-16T10:03:44.000Z</time>
      </trkpt>
      <trkpt lat="46.70882" lon="-2.33753">
        <ele>23.6</ele>
        <time>2018-09-16T10:03:45.000Z</time>
      </trkpt>
      <trkpt lat="46.70882" lon="-2.33752">
        <ele>23.6</ele>
        <time>2018-09-16T10:03:46.000Z</time>
      </trkpt>
      <trkpt lat="46.70882" lon="-2.3375">
        <ele>23.6</ele>
        <time>2018-09-16T10:03:47.000Z</time>
      </trkpt>
      <trkpt lat="46.70881" lon="-2.33748">
        <ele>23.6</ele>
        <time>2018-09-16T10:03:48.000Z</time>
      </trkpt>
      <trkpt lat="46.70881" lon="-2.33747">
        <ele>23.6</ele>
        <time>2018-09-16T10:03:49.000Z</time>
      </trkpt>
      <trkpt lat="46.70881" lon="-2.33745">
        <ele>23.6</ele>
        <time>2018-09-16T10:03:50.000Z</time>
      </trkpt>
      <trkpt lat="46.70881" lon="-2.33743">
        <ele>23.6</ele>
        <time>2018-09-16T10:03:51.000Z</time>
      </trkpt>
      <trkpt lat="46.7088" lon="-2.33742">
        <ele>23.6</ele>
        <time>2018-09-16T10:03:52.000Z</time>
      </trkpt>
      <trkpt lat="46.7088" lon="-2.3374">
        <ele>23.6</ele>
        <time>2018-09-16T10:03:53.000Z</time>
      </trkpt>
      <trkpt lat="46.7088" lon="-2.33738">
        <ele>23.6</ele>
        <time>2018-09-16T10:03:54.000Z</time>
      </trkpt>
      <trkpt lat="46.70879" lon="-2.33737">
        <ele>23.6</ele>
        <time>2018-09-16T10:03:55.000Z</time>
      </trkpt>
      <trkpt lat="46.70879" lon="-2.33735">
        <ele>23.6</ele>
        <time>2018-09-16T10:03:56.000Z</time>
      </trkpt>
      <trkpt lat="46.70878" lon="-2.33733">
        <ele>23.6</ele>
        <time>2018-09-16T10:03:57.000Z</time>
      </trkpt>
      <trkpt lat="46.70878" lon="-2.33732">
        <ele>23.6</ele>
        <time>2018-09-16T10:03:58.000Z</time>
      </trkpt>
      <trkpt lat="46.70878" lon="-2.3373">
        <ele>23.6</ele>
        <time>2018-09-16T10:03:59.000Z</time>
      </trkpt>
      <trkpt lat="46.70877" lon="-2.33728">
        <ele>23.6</ele>
        <time>2018-09-16T10:04:00.000Z</time>
      </trkpt>
      <trkpt lat="46.70877" lon="-2.33727">
        <ele>23.7</ele>
        <time>2018-09-16T10:04:01.000Z</time>
      </trkpt>
      <trkpt lat="46.70876" lon="-2.33725">
        <ele>23.7</ele>
        <time>2018-09-16T10:04:02.000Z</time>
      </trkpt>
      <trkpt lat="46.70876" lon="-2.33723">
        <ele>23.7</ele>
        <time>2018-09-16T10:04:03.000Z</time>
      </trkpt>
      <trkpt lat="46.70876" lon="-2.33722">
        <ele>23.7</ele>
        <time>2018-09-16T10:04:04.000Z</time>
      </trkpt>
      <trkpt lat="46.70875" lon="-2.3372">
        <ele>23.7</ele>
        <time>2018-09-16T10:04:05.000Z</time>
      </trkpt>
      <trkpt lat="46.70875" lon="-2.33718">
        <ele>23.7</ele>
        <time>2018-09-16T10:04:06.000Z</time>
      </trkpt>
      <trkpt lat="46.70875" lon="-2.33716">
        <ele>23.7</ele>
        <time>2018-09-16T10:04:07.000Z</time>
      </trkpt>
      <trkpt lat="46.70875" lon="-2.33715">
        <ele>23.7</ele>
        <time>2018-09-16T10:04:08.000Z</time>
      </trkpt>
      <trkpt lat="46.70875" lon="-2.33713">
        <ele>23.7</ele>
        <time>2018-09-16T10:04:09.000Z</time>
      </trkpt>
      <trkpt lat="46.70875" lon="-2.33711">
        <ele>23.7</ele>
        <time>2018-09-16T10:04:10.000Z</time>
      </trkpt>
      <trkpt lat="46.70874" lon="-2.3371">
        <ele>23.7</ele>
        <time>2018-09-16T10:04:11.000Z</time>
      </trkpt>
      <trkpt lat="46.70874" lon="-2.33708">
        <ele>23.7</ele>
        <time>2018-09-16T10:04:12.000Z</time>
      </trkpt>
      <trkpt lat="46.70874" lon="-2.33706">
        <ele>23.8</ele>
        <time>2018-09-16T10:04:13.000Z</time>
      </trkpt>
      <trkpt lat="46.70874" lon="-2.33705">
        <ele>23.8</ele>
        <time>2018-09-16T10:04:14.000Z</time>
      </trkpt>
      <trkpt lat="46.70874" lon="-2.33703">
        <ele>23.8</ele>
        <time>2018-09-16T10:04:15.000Z</time>
      </trkpt>
      <trkpt lat="46.70873" lon="-2.33701">
        <ele>23.8</ele>
        <time>2018-09-16T10:04:16.000Z</time>
      </trkpt>
      <trkpt lat="46.70873" lon="-2.337">
        <ele>23.8</ele>
        <time>2018-09-16T10:04:17.000Z</time>
      </trkpt>
      <trkpt lat="46.70872" lon="-2.33698">
        <ele>23.8</ele>
        <time>2018-09-16T10:04:18.000Z</time>
      </trkpt>
      <trkpt lat="46.70872" lon="-2.33697">
        <ele>23.8</ele>
        <time>2018-09-16T10:04:19.000Z</time>
      </trkpt>
      <trkpt lat="46.70871" lon="-2.33695">
        <ele>23.8</ele>
        <time>2018-09-16T10:04:20.000Z</time>
      </trkpt>
      <trkpt lat="46.7087" lon="-2.33693">
        <ele>23.8</ele>
        <time>2018-09-16T10:04:21.000Z</time>
      </trkpt>
      <trkpt lat="46.7087" lon="-2.33692">
        <ele>23.8</ele>
        <time>2018-09-16T10:04:22.000Z</time>
      </trkpt>
      <trkpt lat="46.70869" lon="-2.3369">
        <ele>23.8</ele>
        <time>2018-09-16T10:04:23.000Z</time>
      </trkpt>
      <trkpt lat="46.70869" lon="-2.33689">
        <ele>23.8</ele>
        <time>2018-09-16T10:04:24.000Z</time>
      </trkpt>
      <trkpt lat="46.70868" lon="-2.33687">
        <ele>23.9</ele>
        <time>2018-09-16T10:04:25.000Z</time>
      </trkpt>
      <trkpt lat="46.70868" lon="-2.33686">
        <ele>23.9</ele>
        <time>2018-09-16T10:04:26.000Z</time>
      </trkpt>
      <trkpt lat="46.70867" lon="-2.33684">
        <ele>23.9</ele>
        <time>2018-09-16T10:04:27.000Z</time>
      </trkpt>
      <trkpt lat="46.70867" lon="-2.33683">
        <ele>23.9</ele>
        <time>2018-09-16T10:04:28.000Z</time>
      </trkpt>
      <trkpt lat="46.70866" lon="-2.33681">
        <ele>23.9</ele>
        <time>2018-09-16T10:04:29.000Z</time>
      </trkpt>
      <trkpt lat="46.70865" lon="-2.3368">
        <ele>23.9</ele>
        <time>2018-09-16T10:04:30.000Z</time>
      </trkpt>
      <trkpt lat="46.70865" lon="-2.33678">
        <ele>23.9</ele>
        <time>2018-09-16T10:04:31.000Z</time>
      </trkpt>
      <trkpt lat="46.70864" lon="-2.33677">
        <ele>23.9</ele>
        <time>2018-09-16T10:04:32.000Z</time>
      </trkpt>
      <trkpt lat="46.70864" lon="-2.33675">
        <ele>23.9</ele>
        <time>2018-09-16T10:04:33.000Z</time>
      </trkpt>
      <trkpt lat="46.70863" lon="-2.33674">
        <ele>23.9</ele>
        <time>2018-09-16T10:04:34.000Z</time>
      </trkpt>
      <trkpt lat="46.70863" lon="-2.33672">
        <ele>24</ele>
        <time>2018-09-16T10:04:35.000Z</time>
      </trkpt>
      <trkpt lat="46.70862" lon="-2.3367">
        <ele>24</ele>
        <time>2018-09-16T10:04:36.000Z</time>
      </trkpt>
      <trkpt lat="46.70861" lon="-2.33669">
        <ele>24</ele>
        <time>2018-09-16T10:04:37.000Z</time>
      </trkpt>
      <trkpt lat="46.70861" lon="-2.33667">
        <ele>24</ele>
        <time>2018-09-16T10:04:38.000Z</time>
      </trkpt>
      <trkpt lat="46.7086" lon="-2.33666">
        <ele>24</ele>
        <time>2018-09-16T10:04:39.000Z</time>
      </trkpt>
      <trkpt lat="46.7086" lon="-2.33664">
        <ele>23.9</ele>
        <time>2018-09-16T10:04:40.000Z</time>
      </trkpt>
      <trkpt lat="46.70859" lon="-2.33663">
        <ele>23.9</ele>
        <time>2018-09-16T10:04:41.000Z</time>
      </trkpt>
      <trkpt lat="46.70859" lon="-2.33661">
        <ele>23.9</ele>
        <time>2018-09-16T10:04:42.000Z</time>
      </trkpt>
      <trkpt lat="46.70858" lon="-2.33659">
        <ele>23.8</ele>
        <time>2018-09-16T10:04:43.000Z</time>
      </trkpt>
      <trkpt lat="46.70858" lon="-2.33658">
        <ele>23.8</ele>
        <time>2018-09-16T10:04:44.000Z</time>
      </trkpt>
      <trkpt lat="46.70857" lon="-2.33656">
        <ele>23.8</ele>
        <time>2018-09-16T10:04:45.000Z</time>
      </trkpt>
      <trkpt lat="46.70857" lon="-2.33655">
        <ele>23.7</ele>
        <time>2018-09-16T10:04:46.000Z</time>
      </trkpt>
      <trkpt lat="46.70856" lon="-2.33653">
        <ele>23.7</ele>
        <time>2018-09-16T10:04:47.000Z</time>
      </trkpt>
      <trkpt lat="46.70856" lon="-2.33652">
        <ele>23.6</ele>
        <time>2018-09-16T10:04:48.000Z</time>
      </trkpt>
      <trkpt lat="46.70855" lon="-2.33651">
        <ele>23.6</ele>
        <time>2018-09-16T10:04:49.000Z</time>
      </trkpt>
      <trkpt lat="46.70855" lon="-2.33649">
        <ele>23.6</ele>
        <time>2018-09-16T10:04:50.000Z</time>
      </trkpt>
      <trkpt lat="46.70855" lon="-2.33648">
        <ele>23.5</ele>
        <time>2018-09-16T10:04:51.000Z</time>
      </trkpt>
      <trkpt lat="46.70854" lon="-2.33646">
        <ele>23.5</ele>
        <time>2018-09-16T10:04:52.000Z</time>
      </trkpt>
      <trkpt lat="46.70854" lon="-2.33645">
        <ele>23.5</ele>
        <time>2018-09-16T10:04:53.000Z</time>
      </trkpt>
      <trkpt lat="46.70854" lon="-2.33643">
        <ele>23.4</ele>
        <time>2018-09-16T10:04:54.000Z</time>
      </trkpt>
      <trkpt lat="46.70854" lon="-2.33642">
        <ele>23.4</ele>
        <time>2018-09-16T10:04:55.000Z</time>
      </trkpt>
      <trkpt lat="46.70853" lon="-2.3364">
        <ele>23.4</ele>
        <time>2018-09-16T10:04:56.000Z</time>
      </trkpt>
      <trkpt lat="46.70853" lon="-2.33638">
        <ele>23.3</ele>
        <time>2018-09-16T10:04:57.000Z</time>
      </trkpt>
      <trkpt lat="46.70853" lon="-2.33637">
        <ele>23.3</ele>
        <time>2018-09-16T10:04:58.000Z</time>
      </trkpt>
      <trkpt lat="46.70852" lon="-2.33635">
        <ele>23.2</ele>
        <time>2018-09-16T10:04:59.000Z</time>
      </trkpt>
      <trkpt lat="46.70852" lon="-2.33634">
        <ele>23.2</ele>
        <time>2018-09-16T10:05:00.000Z</time>
      </trkpt>
      <trkpt lat="46.70852" lon="-2.33632">
        <ele>23.2</ele>
        <time>2018-09-16T10:05:01.000Z</time>
      </trkpt>
      <trkpt lat="46.70852" lon="-2.3363">
        <ele>23.1</ele>
        <time>2018-09-16T10:05:02.000Z</time>
      </trkpt>
      <trkpt lat="46.70851" lon="-2.33629">
        <ele>23.1</ele>
        <time>2018-09-16T10:05:03.000Z</time>
      </trkpt>
      <trkpt lat="46.70851" lon="-2.33627">
        <ele>23</ele>
        <time>2018-09-16T10:05:04.000Z</time>
      </trkpt>
      <trkpt lat="46.70851" lon="-2.33625">
        <ele>23</ele>
        <time>2018-09-16T10:05:05.000Z</time>
      </trkpt>
      <trkpt lat="46.7085" lon="-2.33623">
        <ele>23</ele>
        <time>2018-09-16T10:05:06.000Z</time>
      </trkpt>
      <trkpt lat="46.7085" lon="-2.33622">
        <ele>22.9</ele>
        <time>2018-09-16T10:05:07.000Z</time>
      </trkpt>
      <trkpt lat="46.7085" lon="-2.3362">
        <ele>22.9</ele>
        <time>2018-09-16T10:05:08.000Z</time>
      </trkpt>
      <trkpt lat="46.7085" lon="-2.33618">
        <ele>22.8</ele>
        <time>2018-09-16T10:05:09.000Z</time>
      </trkpt>
      <trkpt lat="46.70849" lon="-2.33616">
        <ele>22.8</ele>
        <time>2018-09-16T10:05:10.000Z</time>
      </trkpt>
      <trkpt lat="46.70849" lon="-2.33615">
        <ele>22.8</ele>
        <time>2018-09-16T10:05:11.000Z</time>
      </trkpt>
      <trkpt lat="46.70849" lon="-2.33613">
        <ele>22.7</ele>
        <time>2018-09-16T10:05:12.000Z</time>
      </trkpt>
      <trkpt lat="46.70849" lon="-2.33611">
        <ele>22.7</ele>
        <time>2018-09-16T10:05:13.000Z</time>
      </trkpt>
      <trkpt lat="46.70848" lon="-2.3361">
        <ele>22.6</ele>
        <time>2018-09-16T10:05:14.000Z</time>
      </trkpt>
      <trkpt lat="46.70848" lon="-2.33608">
        <ele>22.6</ele>
        <time>2018-09-16T10:05:15.000Z</time>
      </trkpt>
      <trkpt lat="46.70848" lon="-2.33607">
        <ele>22.6</ele>
        <time>2018-09-16T10:05:16.000Z</time>
      </trkpt>
      <trkpt lat="46.70848" lon="-2.33605">
        <ele>22.5</ele>
        <time>2018-09-16T10:05:17.000Z</time>
      </trkpt>
      <trkpt lat="46.70847" lon="-2.33603">
        <ele>22.5</ele>
        <time>2018-09-16T10:05:18.000Z</time>
      </trkpt>
      <trkpt lat="46.70847" lon="-2.33602">
        <ele>22.4</ele>
        <time>2018-09-16T10:05:19.000Z</time>
      </trkpt>
      <trkpt lat="46.70847" lon="-2.336">
        <ele>22.4</ele>
        <time>2018-09-16T10:05:20.000Z</time>
      </trkpt>
      <trkpt lat="46.70847" lon="-2.33599">
        <ele>22.4</ele>
        <time>2018-09-16T10:05:21.000Z</time>
      </trkpt>
      <trkpt lat="46.70846" lon="-2.33597">
        <ele>22.3</ele>
        <time>2018-09-16T10:05:22.000Z</time>
      </trkpt>
      <trkpt lat="46.70846" lon="-2.33596">
        <ele>22.3</ele>
        <time>2018-09-16T10:05:23.000Z</time>
      </trkpt>
      <trkpt lat="46.70846" lon="-2.33594">
        <ele>22.3</ele>
        <time>2018-09-16T10:05:24.000Z</time>
      </trkpt>
      <trkpt lat="46.70846" lon="-2.33593">
        <ele>22.2</ele>
        <time>2018-09-16T10:05:25.000Z</time>
      </trkpt>
      <trkpt lat="46.70845" lon="-2.33591">
        <ele>22.2</ele>
        <time>2018-09-16T10:05:26.000Z</time>
      </trkpt>
      <trkpt lat="46.70845" lon="-2.3359">
        <ele>22.2</ele>
        <time>2018-09-16T10:05:27.000Z</time>
      </trkpt>
      <trkpt lat="46.70845" lon="-2.33588">
        <ele>22.1</ele>
        <time>2018-09-16T10:05:28.000Z</time>
      </trkpt>
      <trkpt lat="46.70844" lon="-2.33587">
        <ele>22.1</ele>
        <time>2018-09-16T10:05:29.000Z</time>
      </trkpt>
      <trkpt lat="46.70844" lon="-2.33585">
        <ele>22</ele>
        <time>2018-09-16T10:05:30.000Z</time>
      </trkpt>
      <trkpt lat="46.70843" lon="-2.33583">
        <ele>22</ele>
        <time>2018-09-16T10:05:31.000Z</time>
      </trkpt>
      <trkpt lat="46.70843" lon="-2.33581">
        <ele>22</ele>
        <time>2018-09-16T10:05:32.000Z</time>
      </trkpt>
      <trkpt lat="46.70843" lon="-2.3358">
        <ele>22</ele>
        <time>2018-09-16T10:05:33.000Z</time>
      </trkpt>
      <trkpt lat="46.70842" lon="-2.33578">
        <ele>21.9</ele>
        <time>2018-09-16T10:05:34.000Z</time>
      </trkpt>
      <trkpt lat="46.70842" lon="-2.33576">
        <ele>21.9</ele>
        <time>2018-09-16T10:05:35.000Z</time>
      </trkpt>
      <trkpt lat="46.70841" lon="-2.33574">
        <ele>21.9</ele>
        <time>2018-09-16T10:05:36.000Z</time>
      </trkpt>
      <trkpt lat="46.70841" lon="-2.33572">
        <ele>21.9</ele>
        <time>2018-09-16T10:05:37.000Z</time>
      </trkpt>
      <trkpt lat="46.70841" lon="-2.3357">
        <ele>21.8</ele>
        <time>2018-09-16T10:05:38.000Z</time>
      </trkpt>
      <trkpt lat="46.70841" lon="-2.33569">
        <ele>21.8</ele>
        <time>2018-09-16T10:05:39.000Z</time>
      </trkpt>
      <trkpt lat="46.7084" lon="-2.33567">
        <ele>21.8</ele>
        <time>2018-09-16T10:05:40.000Z</time>
      </trkpt>
      <trkpt lat="46.7084" lon="-2.33565">
        <ele>21.8</ele>
        <time>2018-09-16T10:05:41.000Z</time>
      </trkpt>
      <trkpt lat="46.7084" lon="-2.33563">
        <ele>21.7</ele>
        <time>2018-09-16T10:05:42.000Z</time>
      </trkpt>
      <trkpt lat="46.7084" lon="-2.33561">
        <ele>21.7</ele>
        <time>2018-09-16T10:05:43.000Z</time>
      </trkpt>
      <trkpt lat="46.7084" lon="-2.33559">
        <ele>21.7</ele>
        <time>2018-09-16T10:05:44.000Z</time>
      </trkpt>
      <trkpt lat="46.7084" lon="-2.33558">
        <ele>21.7</ele>
        <time>2018-09-16T10:05:45.000Z</time>
      </trkpt>
      <trkpt lat="46.70839" lon="-2.33556">
        <ele>21.6</ele>
        <time>2018-09-16T10:05:46.000Z</time>
      </trkpt>
      <trkpt lat="46.70839" lon="-2.33554">
        <ele>21.6</ele>
        <time>2018-09-16T10:05:47.000Z</time>
      </trkpt>
      <trkpt lat="46.70839" lon="-2.33552">
        <ele>21.6</ele>
        <time>2018-09-16T10:05:48.000Z</time>
      </trkpt>
      <trkpt lat="46.70839" lon="-2.33551">
        <ele>21.6</ele>
        <time>2018-09-16T10:05:49.000Z</time>
      </trkpt>
      <trkpt lat="46.70838" lon="-2.33549">
        <ele>21.6</ele>
        <time>2018-09-16T10:05:50.000Z</time>
      </trkpt>
      <trkpt lat="46.70838" lon="-2.33547">
        <ele>21.5</ele>
        <time>2018-09-16T10:05:51.000Z</time>
      </trkpt>
      <trkpt lat="46.70838" lon="-2.33546">
        <ele>21.5</ele>
        <time>2018-09-16T10:05:52.000Z</time>
      </trkpt>
      <trkpt lat="46.70837" lon="-2.33544">
        <ele>21.5</ele>
        <time>2018-09-16T10:05:53.000Z</time>
      </trkpt>
      <trkpt lat="46.70837" lon="-2.33542">
        <ele>21.5</ele>
        <time>2018-09-16T10:05:54.000Z</time>
      </trkpt>
      <trkpt lat="46.70836" lon="-2.33541">
        <ele>21.5</ele>
        <time>2018-09-16T10:05:55.000Z</time>
      </trkpt>
      <trkpt lat="46.70836" lon="-2.33539">
        <ele>21.5</ele>
        <time>2018-09-16T10:05:56.000Z</time>
      </trkpt>
      <trkpt lat="46.70835" lon="-2.33537">
        <ele>21.4</ele>
        <time>2018-09-16T10:05:57.000Z</time>
      </trkpt>
      <trkpt lat="46.70835" lon="-2.33536">
        <ele>21.4</ele>
        <time>2018-09-16T10:05:58.000Z</time>
      </trkpt>
      <trkpt lat="46.70835" lon="-2.33534">
        <ele>21.4</ele>
        <time>2018-09-16T10:05:59.000Z</time>
      </trkpt>
      <trkpt lat="46.70834" lon="-2.33532">
        <ele>21.4</ele>
        <time>2018-09-16T10:06:00.000Z</time>
      </trkpt>
      <trkpt lat="46.70834" lon="-2.3353">
        <ele>21.4</ele>
        <time>2018-09-16T10:06:01.000Z</time>
      </trkpt>
      <trkpt lat="46.70833" lon="-2.33528">
        <ele>21.3</ele>
        <time>2018-09-16T10:06:02.000Z</time>
      </trkpt>
      <trkpt lat="46.70833" lon="-2.33527">
        <ele>21.3</ele>
        <time>2018-09-16T10:06:03.000Z</time>
      </trkpt>
      <trkpt lat="46.70832" lon="-2.33525">
        <ele>21.3</ele>
        <time>2018-09-16T10:06:04.000Z</time>
      </trkpt>
      <trkpt lat="46.70832" lon="-2.33523">
        <ele>21.3</ele>
        <time>2018-09-16T10:06:05.000Z</time>
      </trkpt>
      <trkpt lat="46.70832" lon="-2.33521">
        <ele>21.3</ele>
        <time>2018-09-16T10:06:06.000Z</time>
      </trkpt>
      <trkpt lat="46.70831" lon="-2.33519">
        <ele>21.2</ele>
        <time>2018-09-16T10:06:07.000Z</time>
      </trkpt>
      <trkpt lat="46.70831" lon="-2.33517">
        <ele>21.2</ele>
        <time>2018-09-16T10:06:08.000Z</time>
      </trkpt>
      <trkpt lat="46.70831" lon="-2.33516">
        <ele>21.2</ele>
        <time>2018-09-16T10:06:09.000Z</time>
      </trkpt>
      <trkpt lat="46.70831" lon="-2.33514">
        <ele>21.2</ele>
        <time>2018-09-16T10:06:10.000Z</time>
      </trkpt>
      <trkpt lat="46.7083" lon="-2.33512">
        <ele>21.1</ele>
        <time>2018-09-16T10:06:11.000Z</time>
      </trkpt>
      <trkpt lat="46.7083" lon="-2.3351">
        <ele>21.1</ele>
        <time>2018-09-16T10:06:12.000Z</time>
      </trkpt>
      <trkpt lat="46.7083" lon="-2.33509">
        <ele>21.1</ele>
        <time>2018-09-16T10:06:13.000Z</time>
      </trkpt>
      <trkpt lat="46.7083" lon="-2.33507">
        <ele>21.1</ele>
        <time>2018-09-16T10:06:14.000Z</time>
      </trkpt>
      <trkpt lat="46.7083" lon="-2.33506">
        <ele>21.1</ele>
        <time>2018-09-16T10:06:15.000Z</time>
      </trkpt>
      <trkpt lat="46.70829" lon="-2.33504">
        <ele>21.1</ele>
        <time>2018-09-16T10:06:16.000Z</time>
      </trkpt>
      <trkpt lat="46.70829" lon="-2.33503">
        <ele>21</ele>
        <time>2018-09-16T10:06:17.000Z</time>
      </trkpt>
      <trkpt lat="46.70828" lon="-2.33502">
        <ele>21</ele>
        <time>2018-09-16T10:06:18.000Z</time>
      </trkpt>
      <trkpt lat="46.70828" lon="-2.335">
        <ele>21</ele>
        <time>2018-09-16T10:06:19.000Z</time>
      </trkpt>
      <trkpt lat="46.70827" lon="-2.33499">
        <ele>21</ele>
        <time>2018-09-16T10:06:20.000Z</time>
      </trkpt>
      <trkpt lat="46.70827" lon="-2.33497">
        <ele>21</ele>
        <time>2018-09-16T10:06:21.000Z</time>
      </trkpt>
      <trkpt lat="46.70826" lon="-2.33496">
        <ele>21</ele>
        <time>2018-09-16T10:06:22.000Z</time>
      </trkpt>
      <trkpt lat="46.70826" lon="-2.33494">
        <ele>20.9</ele>
        <time>2018-09-16T10:06:23.000Z</time>
      </trkpt>
      <trkpt lat="46.70825" lon="-2.33493">
        <ele>20.9</ele>
        <time>2018-09-16T10:06:24.000Z</time>
      </trkpt>
      <trkpt lat="46.70825" lon="-2.33491">
        <ele>20.9</ele>
        <time>2018-09-16T10:06:25.000Z</time>
      </trkpt>
      <trkpt lat="46.70825" lon="-2.33489">
        <ele>20.9</ele>
        <time>2018-09-16T10:06:26.000Z</time>
      </trkpt>
      <trkpt lat="46.70825" lon="-2.33487">
        <ele>20.9</ele>
        <time>2018-09-16T10:06:27.000Z</time>
      </trkpt>
      <trkpt lat="46.70825" lon="-2.33485">
        <ele>20.8</ele>
        <time>2018-09-16T10:06:28.000Z</time>
      </trkpt>
      <trkpt lat="46.70825" lon="-2.33484">
        <ele>20.8</ele>
        <time>2018-09-16T10:06:29.000Z</time>
      </trkpt>
      <trkpt lat="46.70825" lon="-2.33482">
        <ele>20.8</ele>
        <time>2018-09-16T10:06:30.000Z</time>
      </trkpt>
      <trkpt lat="46.70825" lon="-2.3348">
        <ele>20.8</ele>
        <time>2018-09-16T10:06:31.000Z</time>
      </trkpt>
      <trkpt lat="46.70825" lon="-2.33478">
        <ele>20.8</ele>
        <time>2018-09-16T10:06:32.000Z</time>
      </trkpt>
      <trkpt lat="46.70825" lon="-2.33476">
        <ele>20.7</ele>
        <time>2018-09-16T10:06:33.000Z</time>
      </trkpt>
      <trkpt lat="46.70825" lon="-2.33475">
        <ele>20.7</ele>
        <time>2018-09-16T10:06:34.000Z</time>
      </trkpt>
      <trkpt lat="46.70824" lon="-2.33473">
        <ele>20.7</ele>
        <time>2018-09-16T10:06:35.000Z</time>
      </trkpt>
      <trkpt lat="46.70824" lon="-2.33471">
        <ele>20.7</ele>
        <time>2018-09-16T10:06:36.000Z</time>
      </trkpt>
      <trkpt lat="46.70824" lon="-2.3347">
        <ele>20.7</ele>
        <time>2018-09-16T10:06:37.000Z</time>
      </trkpt>
      <trkpt lat="46.70824" lon="-2.33468">
        <ele>20.7</ele>
        <time>2018-09-16T10:06:38.000Z</time>
      </trkpt>
      <trkpt lat="46.70824" lon="-2.33466">
        <ele>20.6</ele>
        <time>2018-09-16T10:06:39.000Z</time>
      </trkpt>
      <trkpt lat="46.70824" lon="-2.33465">
        <ele>20.6</ele>
        <time>2018-09-16T10:06:40.000Z</time>
      </trkpt>
      <trkpt lat="46.70823" lon="-2.33463">
        <ele>20.6</ele>
        <time>2018-09-16T10:06:41.000Z</time>
      </trkpt>
      <trkpt lat="46.70823" lon="-2.33462">
        <ele>20.6</ele>
        <time>2018-09-16T10:06:42.000Z</time>
      </trkpt>
      <trkpt lat="46.70823" lon="-2.3346">
        <ele>20.6</ele>
        <time>2018-09-16T10:06:43.000Z</time>
      </trkpt>
      <trkpt lat="46.70823" lon="-2.33459">
        <ele>20.6</ele>
        <time>2018-09-16T10:06:44.000Z</time>
      </trkpt>
      <trkpt lat="46.70822" lon="-2.33457">
        <ele>20.6</ele>
        <time>2018-09-16T10:06:45.000Z</time>
      </trkpt>
      <trkpt lat="46.70822" lon="-2.33456">
        <ele>20.5</ele>
        <time>2018-09-16T10:06:46.000Z</time>
      </trkpt>
      <trkpt lat="46.70822" lon="-2.33454">
        <ele>20.5</ele>
        <time>2018-09-16T10:06:47.000Z</time>
      </trkpt>
      <trkpt lat="46.70821" lon="-2.33453">
        <ele>20.5</ele>
        <time>2018-09-16T10:06:48.000Z</time>
      </trkpt>
      <trkpt lat="46.70821" lon="-2.33451">
        <ele>20.5</ele>
        <time>2018-09-16T10:06:49.000Z</time>
      </trkpt>
      <trkpt lat="46.70821" lon="-2.3345">
        <ele>20.5</ele>
        <time>2018-09-16T10:06:50.000Z</time>
      </trkpt>
      <trkpt lat="46.7082" lon="-2.33448">
        <ele>20.5</ele>
        <time>2018-09-16T10:06:51.000Z</time>
      </trkpt>
      <trkpt lat="46.7082" lon="-2.33447">
        <ele>20.5</ele>
        <time>2018-09-16T10:06:52.000Z</time>
      </trkpt>
      <trkpt lat="46.7082" lon="-2.33445">
        <ele>20.4</ele>
        <time>2018-09-16T10:06:53.000Z</time>
      </trkpt>
      <trkpt lat="46.70819" lon="-2.33444">
        <ele>20.4</ele>
        <time>2018-09-16T10:06:54.000Z</time>
      </trkpt>
      <trkpt lat="46.70819" lon="-2.33442">
        <ele>20.4</ele>
        <time>2018-09-16T10:06:55.000Z</time>
      </trkpt>
      <trkpt lat="46.70819" lon="-2.33441">
        <ele>20.4</ele>
        <time>2018-09-16T10:06:56.000Z</time>
      </trkpt>
      <trkpt lat="46.70818" lon="-2.33439">
        <ele>20.4</ele>
        <time>2018-09-16T10:06:57.000Z</time>
      </trkpt>
      <trkpt lat="46.70818" lon="-2.33437">
        <ele>20.4</ele>
        <time>2018-09-16T10:06:58.000Z</time>
      </trkpt>
      <trkpt lat="46.70818" lon="-2.33436">
        <ele>20.4</ele>
        <time>2018-09-16T10:06:59.000Z</time>
      </trkpt>
      <trkpt lat="46.70817" lon="-2.33434">
        <ele>20.4</ele>
        <time>2018-09-16T10:07:00.000Z</time>
      </trkpt>
      <trkpt lat="46.70817" lon="-2.33432">
        <ele>20.3</ele>
        <time>2018-09-16T10:07:01.000Z</time>
      </trkpt>
      <trkpt lat="46.70816" lon="-2.3343">
        <ele>20.3</ele>
        <time>2018-09-16T10:07:02.000Z</time>
      </trkpt>
      <trkpt lat="46.70816" lon="-2.33428">
        <ele>20.3</ele>
        <time>2018-09-16T10:07:03.000Z</time>
      </trkpt>
      <trkpt lat="46.70815" lon="-2.33426">
        <ele>20.3</ele>
        <time>2018-09-16T10:07:04.000Z</time>
      </trkpt>
      <trkpt lat="46.70815" lon="-2.33424">
        <ele>20.3</ele>
        <time>2018-09-16T10:07:05.000Z</time>
      </trkpt>
      <trkpt lat="46.70814" lon="-2.33423">
        <ele>20.3</ele>
        <time>2018-09-16T10:07:06.000Z</time>
      </trkpt>
      <trkpt lat="46.70813" lon="-2.33421">
        <ele>20.3</ele>
        <time>2018-09-16T10:07:07.000Z</time>
      </trkpt>
      <trkpt lat="46.70813" lon="-2.33419">
        <ele>20.3</ele>
        <time>2018-09-16T10:07:08.000Z</time>
      </trkpt>
      <trkpt lat="46.70812" lon="-2.33417">
        <ele>20.3</ele>
        <time>2018-09-16T10:07:09.000Z</time>
      </trkpt>
      <trkpt lat="46.70811" lon="-2.33415">
        <ele>20.3</ele>
        <time>2018-09-16T10:07:10.000Z</time>
      </trkpt>
      <trkpt lat="46.70811" lon="-2.33413">
        <ele>20.3</ele>
        <time>2018-09-16T10:07:11.000Z</time>
      </trkpt>
      <trkpt lat="46.7081" lon="-2.33411">
        <ele>20.3</ele>
        <time>2018-09-16T10:07:12.000Z</time>
      </trkpt>
      <trkpt lat="46.7081" lon="-2.3341">
        <ele>20.2</ele>
        <time>2018-09-16T10:07:13.000Z</time>
      </trkpt>
      <trkpt lat="46.7081" lon="-2.33408">
        <ele>20.2</ele>
        <time>2018-09-16T10:07:14.000Z</time>
      </trkpt>
      <trkpt lat="46.70809" lon="-2.33407">
        <ele>20.2</ele>
        <time>2018-09-16T10:07:15.000Z</time>
      </trkpt>
      <trkpt lat="46.70809" lon="-2.33405">
        <ele>20.2</ele>
        <time>2018-09-16T10:07:16.000Z</time>
      </trkpt>
      <trkpt lat="46.70809" lon="-2.33404">
        <ele>20.2</ele>
        <time>2018-09-16T10:07:17.000Z</time>
      </trkpt>
      <trkpt lat="46.70809" lon="-2.33402">
        <ele>20.2</ele>
        <time>2018-09-16T10:07:18.000Z</time>
      </trkpt>
      <trkpt lat="46.70809" lon="-2.334">
        <ele>20.2</ele>
        <time>2018-09-16T10:07:19.000Z</time>
      </trkpt>
      <trkpt lat="46.70808" lon="-2.33399">
        <ele>20.2</ele>
        <time>2018-09-16T10:07:20.000Z</time>
      </trkpt>
      <trkpt lat="46.70808" lon="-2.33397">
        <ele>20.2</ele>
        <time>2018-09-16T10:07:21.000Z</time>
      </trkpt>
      <trkpt lat="46.70807" lon="-2.33396">
        <ele>20.2</ele>
        <time>2018-09-16T10:07:22.000Z</time>
      </trkpt>
      <trkpt lat="46.70807" lon="-2.33395">
        <ele>20.2</ele>
        <time>2018-09-16T10:07:23.000Z</time>
      </trkpt>
      <trkpt lat="46.70806" lon="-2.33394">
        <ele>20.2</ele>
        <time>2018-09-16T10:07:24.000Z</time>
      </trkpt>
      <trkpt lat="46.70805" lon="-2.33393">
        <ele>20.2</ele>
        <time>2018-09-16T10:07:25.000Z</time>
      </trkpt>
      <trkpt lat="46.70805" lon="-2.33392">
        <ele>20.3</ele>
        <time>2018-09-16T10:07:26.000Z</time>
      </trkpt>
      <trkpt lat="46.70804" lon="-2.33391">
        <ele>20.3</ele>
        <time>2018-09-16T10:07:27.000Z</time>
      </trkpt>
      <trkpt lat="46.70803" lon="-2.3339">
        <ele>20.3</ele>
        <time>2018-09-16T10:07:28.000Z</time>
      </trkpt>
      <trkpt lat="46.70802" lon="-2.33389">
        <ele>20.3</ele>
        <time>2018-09-16T10:07:29.000Z</time>
      </trkpt>
      <trkpt lat="46.70801" lon="-2.33388">
        <ele>20.3</ele>
        <time>2018-09-16T10:07:30.000Z</time>
      </trkpt>
      <trkpt lat="46.708" lon="-2.33387">
        <ele>20.3</ele>
        <time>2018-09-16T10:07:31.000Z</time>
      </trkpt>
      <trkpt lat="46.708" lon="-2.33386">
        <ele>20.3</ele>
        <time>2018-09-16T10:07:32.000Z</time>
      </trkpt>
      <trkpt lat="46.70799" lon="-2.33384">
        <ele>20.3</ele>
        <time>2018-09-16T10:07:33.000Z</time>
      </trkpt>
      <trkpt lat="46.70798" lon="-2.33383">
        <ele>20.4</ele>
        <time>2018-09-16T10:07:34.000Z</time>
      </trkpt>
      <trkpt lat="46.70798" lon="-2.33382">
        <ele>20.4</ele>
        <time>2018-09-16T10:07:35.000Z</time>
      </trkpt>
      <trkpt lat="46.70797" lon="-2.3338">
        <ele>20.4</ele>
        <time>2018-09-16T10:07:36.000Z</time>
      </trkpt>
      <trkpt lat="46.70797" lon="-2.33378">
        <ele>20.4</ele>
        <time>2018-09-16T10:07:37.000Z</time>
      </trkpt>
      <trkpt lat="46.70796" lon="-2.33377">
        <ele>20.4</ele>
        <time>2018-09-16T10:07:38.000Z</time>
      </trkpt>
      <trkpt lat="46.70796" lon="-2.33375">
        <ele>20.4</ele>
        <time>2018-09-16T10:07:39.000Z</time>
      </trkpt>
      <trkpt lat="46.70795" lon="-2.33373">
        <ele>20.4</ele>
        <time>2018-09-16T10:07:40.000Z</time>
      </trkpt>
      <trkpt lat="46.70795" lon="-2.33372">
        <ele>20.4</ele>
        <time>2018-09-16T10:07:41.000Z</time>
      </trkpt>
      <trkpt lat="46.70794" lon="-2.3337">
        <ele>20.4</ele>
        <time>2018-09-16T10:07:42.000Z</time>
      </trkpt>
      <trkpt lat="46.70793" lon="-2.33368">
        <ele>20.5</ele>
        <time>2018-09-16T10:07:43.000Z</time>
      </trkpt>
      <trkpt lat="46.70793" lon="-2.33367">
        <ele>20.5</ele>
        <time>2018-09-16T10:07:44.000Z</time>
      </trkpt>
      <trkpt lat="46.70792" lon="-2.33365">
        <ele>20.5</ele>
        <time>2018-09-16T10:07:45.000Z</time>
      </trkpt>
      <trkpt lat="46.70792" lon="-2.33363">
        <ele>20.5</ele>
        <time>2018-09-16T10:07:46.000Z</time>
      </trkpt>
      <trkpt lat="46.70791" lon="-2.33362">
        <ele>20.5</ele>
        <time>2018-09-16T10:07:47.000Z</time>
      </trkpt>
      <trkpt lat="46.7079" lon="-2.3336">
        <ele>20.5</ele>
        <time>2018-09-16T10:07:48.000Z</time>
      </trkpt>
      <trkpt lat="46.7079" lon="-2.33359">
        <ele>20.6</ele>
        <time>2018-09-16T10:07:49.000Z</time>
      </trkpt>
      <trkpt lat="46.70789" lon="-2.33358">
        <ele>20.6</ele>
        <time>2018-09-16T10:07:50.000Z</time>
      </trkpt>
      <trkpt lat="46.70788" lon="-2.33356">
        <ele>20.6</ele>
        <time>2018-09-16T10:07:51.000Z</time>
      </trkpt>
      <trkpt lat="46.70787" lon="-2.33355">
        <ele>20.6</ele>
        <time>2018-09-16T10:07:52.000Z</time>
      </trkpt>
      <trkpt lat="46.70787" lon="-2.33354">
        <ele>20.7</ele>
        <time>2018-09-16T10:07:53.000Z</time>
      </trkpt>
      <trkpt lat="46.70786" lon="-2.33352">
        <ele>20.7</ele>
        <time>2018-09-16T10:07:54.000Z</time>
      </trkpt>
      <trkpt lat="46.70785" lon="-2.33351">
        <ele>20.7</ele>
        <time>2018-09-16T10:07:55.000Z</time>
      </trkpt>
      <trkpt lat="46.70784" lon="-2.3335">
        <ele>20.7</ele>
        <time>2018-09-16T10:07:56.000Z</time>
      </trkpt>
      <trkpt lat="46.70784" lon="-2.33349">
        <ele>20.7</ele>
        <time>2018-09-16T10:07:57.000Z</time>
      </trkpt>
      <trkpt lat="46.70783" lon="-2.33348">
        <ele>20.8</ele>
        <time>2018-09-16T10:07:58.000Z</time>
      </trkpt>
      <trkpt lat="46.70783" lon="-2.33346">
        <ele>20.8</ele>
        <time>2018-09-16T10:07:59.000Z</time>
      </trkpt>
      <trkpt lat="46.70782" lon="-2.33345">
        <ele>20.8</ele>
        <time>2018-09-16T10:08:00.000Z</time>
      </trkpt>
      <trkpt lat="46.70782" lon="-2.33344">
        <ele>20.8</ele>
        <time>2018-09-16T10:08:01.000Z</time>
      </trkpt>
      <trkpt lat="46.70782" lon="-2.33343">
        <ele>20.8</ele>
        <time>2018-09-16T10:08:02.000Z</time>
      </trkpt>
      <trkpt lat="46.70781" lon="-2.33342">
        <ele>20.9</ele>
        <time>2018-09-16T10:08:03.000Z</time>
      </trkpt>
      <trkpt lat="46.70781" lon="-2.33341">
        <ele>20.9</ele>
        <time>2018-09-16T10:08:04.000Z</time>
      </trkpt>
      <trkpt lat="46.70781" lon="-2.33341">
        <ele>20.9</ele>
        <time>2018-09-16T10:08:05.000Z</time>
      </trkpt>
      <trkpt lat="46.70781" lon="-2.3334">
        <ele>20.9</ele>
        <time>2018-09-16T10:08:06.000Z</time>
      </trkpt>
      <trkpt lat="46.70781" lon="-2.3334">
        <ele>20.9</ele>
        <time>2018-09-16T10:08:07.000Z</time>
      </trkpt>
      <trkpt lat="46.70781" lon="-2.3334">
        <ele>20.9</ele>
        <time>2018-09-16T10:08:08.000Z</time>
      </trkpt>
      <trkpt lat="46.70781" lon="-2.3334">
        <ele>20.9</ele>
        <time>2018-09-16T10:08:09.000Z</time>
      </trkpt>
      <trkpt lat="46.70781" lon="-2.3334">
        <ele>20.9</ele>
        <time>2018-09-16T10:08:10.000Z</time>
      </trkpt>
      <trkpt lat="46.70781" lon="-2.3334">
        <ele>20.9</ele>
        <time>2018-09-16T10:08:11.000Z</time>
      </trkpt>
      <trkpt lat="46.70781" lon="-2.3334">
        <ele>20.9</ele>
        <time>2018-09-16T10:08:12.000Z</time>
      </trkpt>
      <trkpt lat="46.70781" lon="-2.3334">
        <ele>20.9</ele>
        <time>2018-09-16T10:08:13.000Z</time>
      </trkpt>
      <trkpt lat="46.70781" lon="-2.33339">
        <ele>20.9</ele>
        <time>2018-09-16T10:08:14.000Z</time>
      </trkpt>
      <trkpt lat="46.7078" lon="-2.33339">
        <ele>20.9</ele>
        <time>2018-09-16T10:08:15.000Z</time>
      </trkpt>
      <trkpt lat="46.7078" lon="-2.33338">
        <ele>20.9</ele>
        <time>2018-09-16T10:08:16.000Z</time>
      </trkpt>
      <trkpt lat="46.7078" lon="-2.33337">
        <ele>20.9</ele>
        <time>2018-09-16T10:08:17.000Z</time>
      </trkpt>
      <trkpt lat="46.70779" lon="-2.33336">
        <ele>21</ele>
        <time>2018-09-16T10:08:18.000Z</time>
      </trkpt>
      <trkpt lat="46.70778" lon="-2.33334">
        <ele>21</ele>
        <time>2018-09-16T10:08:19.000Z</time>
      </trkpt>
      <trkpt lat="46.70778" lon="-2.33333">
        <ele>21</ele>
        <time>2018-09-16T10:08:20.000Z</time>
      </trkpt>
      <trkpt lat="46.70777" lon="-2.33331">
        <ele>21</ele>
        <time>2018-09-16T10:08:21.000Z</time>
      </trkpt>
      <trkpt lat="46.70776" lon="-2.3333">
        <ele>21.1</ele>
        <time>2018-09-16T10:08:22.000Z</time>
      </trkpt>
      <trkpt lat="46.70776" lon="-2.33329">
        <ele>21.1</ele>
        <time>2018-09-16T10:08:23.000Z</time>
      </trkpt>
      <trkpt lat="46.70775" lon="-2.33327">
        <ele>21.1</ele>
        <time>2018-09-16T10:08:24.000Z</time>
      </trkpt>
      <trkpt lat="46.70775" lon="-2.33326">
        <ele>21.2</ele>
        <time>2018-09-16T10:08:25.000Z</time>
      </trkpt>
      <trkpt lat="46.70775" lon="-2.33325">
        <ele>21.2</ele>
        <time>2018-09-16T10:08:26.000Z</time>
      </trkpt>
      <trkpt lat="46.70775" lon="-2.33324">
        <ele>21.2</ele>
        <time>2018-09-16T10:08:27.000Z</time>
      </trkpt>
      <trkpt lat="46.70774" lon="-2.33323">
        <ele>21.2</ele>
        <time>2018-09-16T10:08:28.000Z</time>
      </trkpt>
      <trkpt lat="46.70774" lon="-2.33322">
        <ele>21.2</ele>
        <time>2018-09-16T10:08:29.000Z</time>
      </trkpt>
      <trkpt lat="46.70774" lon="-2.33322">
        <ele>21.3</ele>
        <time>2018-09-16T10:08:30.000Z</time>
      </trkpt>
      <trkpt lat="46.70773" lon="-2.33321">
        <ele>21.3</ele>
        <time>2018-09-16T10:08:31.000Z</time>
      </trkpt>
      <trkpt lat="46.70773" lon="-2.33321">
        <ele>21.3</ele>
        <time>2018-09-16T10:08:32.000Z</time>
      </trkpt>
      <trkpt lat="46.70772" lon="-2.33321">
        <ele>21.3</ele>
        <time>2018-09-16T10:08:33.000Z</time>
      </trkpt>
      <trkpt lat="46.70771" lon="-2.3332">
        <ele>21.3</ele>
        <time>2018-09-16T10:08:34.000Z</time>
      </trkpt>
      <trkpt lat="46.70771" lon="-2.3332">
        <ele>21.4</ele>
        <time>2018-09-16T10:08:35.000Z</time>
      </trkpt>
      <trkpt lat="46.7077" lon="-2.3332">
        <ele>21.4</ele>
        <time>2018-09-16T10:08:36.000Z</time>
      </trkpt>
      <trkpt lat="46.7077" lon="-2.3332">
        <ele>21.4</ele>
        <time>2018-09-16T10:08:37.000Z</time>
      </trkpt>
      <trkpt lat="46.70769" lon="-2.3332">
        <ele>21.4</ele>
        <time>2018-09-16T10:08:38.000Z</time>
      </trkpt>
      <trkpt lat="46.70769" lon="-2.3332">
        <ele>21.4</ele>
        <time>2018-09-16T10:08:39.000Z</time>
      </trkpt>
      <trkpt lat="46.70769" lon="-2.3332">
        <ele>21.4</ele>
        <time>2018-09-16T10:08:40.000Z</time>
      </trkpt>
      <trkpt lat="46.70769" lon="-2.3332">
        <ele>21.4</ele>
        <time>2018-09-16T10:08:41.000Z</time>
      </trkpt>
      <trkpt lat="46.70769" lon="-2.3332">
        <ele>21.4</ele>
        <time>2018-09-16T10:08:42.000Z</time>
      </trkpt>
      <trkpt lat="46.70769" lon="-2.3332">
        <ele>21.4</ele>
        <time>2018-09-16T10:08:43.000Z</time>
      </trkpt>
      <trkpt lat="46.70769" lon="-2.3332">
        <ele>21.4</ele>
        <time>2018-09-16T10:08:44.000Z</time>
      </trkpt>
      <trkpt lat="46.7077" lon="-2.3332">
        <ele>21.4</ele>
        <time>2018-09-16T10:08:45.000Z</time>
      </trkpt>
      <trkpt lat="46.7077" lon="-2.3332">
        <ele>21.4</ele>
        <time>2018-09-16T10:08:46.000Z</time>
      </trkpt>
      <trkpt lat="46.7077" lon="-2.33319">
        <ele>21.4</ele>
        <time>2018-09-16T10:08:47.000Z</time>
      </trkpt>
      <trkpt lat="46.7077" lon="-2.33319">
        <ele>21.4</ele>
        <time>2018-09-16T10:08:48.000Z</time>
      </trkpt>
      <trkpt lat="46.7077" lon="-2.33319">
        <ele>21.4</ele>
        <time>2018-09-16T10:08:49.000Z</time>
      </trkpt>
      <trkpt lat="46.70771" lon="-2.33319">
        <ele>21.4</ele>
        <time>2018-09-16T10:08:50.000Z</time>
      </trkpt>
      <trkpt lat="46.70771" lon="-2.33319">
        <ele>21.4</ele>
        <time>2018-09-16T10:08:51.000Z</time>
      </trkpt>
      <trkpt lat="46.70771" lon="-2.33318">
        <ele>21.4</ele>
        <time>2018-09-16T10:08:52.000Z</time>
      </trkpt>
      <trkpt lat="46.70771" lon="-2.33318">
        <ele>21.4</ele>
        <time>2018-09-16T10:08:53.000Z</time>
      </trkpt>
      <trkpt lat="46.70771" lon="-2.33318">
        <ele>21.4</ele>
        <time>2018-09-16T10:08:54.000Z</time>
      </trkpt>
      <trkpt lat="46.70771" lon="-2.33318">
        <ele>21.4</ele>
        <time>2018-09-16T10:08:55.000Z</time>
      </trkpt>
      <trkpt lat="46.70771" lon="-2.33318">
        <ele>21.4</ele>
        <time>2018-09-16T10:08:56.000Z</time>
      </trkpt>
      <trkpt lat="46.70771" lon="-2.33318">
        <ele>21.4</ele>
        <time>2018-09-16T10:08:57.000Z</time>
      </trkpt>
      <trkpt lat="46.70771" lon="-2.33318">
        <ele>21.4</ele>
        <time>2018-09-16T10:08:58.000Z</time>
      </trkpt>
      <trkpt lat="46.70771" lon="-2.33318">
        <ele>21.4</ele>
        <time>2018-09-16T10:08:59.000Z</time>
      </trkpt>
      <trkpt lat="46.70771" lon="-2.33318">
        <ele>21.4</ele>
        <time>2018-09-16T10:09:00.000Z</time>
      </trkpt>
      <trkpt lat="46.70771" lon="-2.33318">
        <ele>21.4</ele>
        <time>2018-09-16T10:09:01.000Z</time>
      </trkpt>
      <trkpt lat="46.70771" lon="-2.33318">
        <ele>21.4</ele>
        <time>2018-09-16T10:09:02.000Z</time>
      </trkpt>
      <trkpt lat="46.70771" lon="-2.33318">
        <ele>21.4</ele>
        <time>2018-09-16T10:09:03.000Z</time>
      </trkpt>
      <trkpt lat="46.70771" lon="-2.33318">
        <ele>21.4</ele>
        <time>2018-09-16T10:09:04.000Z</time>
      </trkpt>
      <trkpt lat="46.70771" lon="-2.33318">
        <ele>21.4</ele>
        <time>2018-09-16T10:09:05.000Z</time>
      </trkpt>
      <trkpt lat="46.70771" lon="-2.33318">
        <ele>21.4</ele>
        <time>2018-09-16T10:09:06.000Z</time>
      </trkpt>
      <trkpt lat="46.70771" lon="-2.33319">
        <ele>21.4</ele>
        <time>2018-09-16T10:09:07.000Z</time>
      </trkpt>
      <trkpt lat="46.70771" lon="-2.33319">
        <ele>21.4</ele>
        <time>2018-09-16T10:09:08.000Z</time>
      </trkpt>
      <trkpt lat="46.70772" lon="-2.33319">
        <ele>21.4</ele>
        <time>2018-09-16T10:09:09.000Z</time>
      </trkpt>
      <trkpt lat="46.70772" lon="-2.33319">
        <ele>21.3</ele>
        <time>2018-09-16T10:09:10.000Z</time>
      </trkpt>
      <trkpt lat="46.70772" lon="-2.33319">
        <ele>21.3</ele>
        <time>2018-09-16T10:09:11.000Z</time>
      </trkpt>
      <trkpt lat="46.70772" lon="-2.33319">
        <ele>21.3</ele>
        <time>2018-09-16T10:09:12.000Z</time>
      </trkpt>
      <trkpt lat="46.70773" lon="-2.3332">
        <ele>21.3</ele>
        <time>2018-09-16T10:09:13.000Z</time>
      </trkpt>
      <trkpt lat="46.70773" lon="-2.3332">
        <ele>21.3</ele>
        <time>2018-09-16T10:09:14.000Z</time>
      </trkpt>
      <trkpt lat="46.70773" lon="-2.3332">
        <ele>21.3</ele>
        <time>2018-09-16T10:09:15.000Z</time>
      </trkpt>
      <trkpt lat="46.70773" lon="-2.3332">
        <ele>21.3</ele>
        <time>2018-09-16T10:09:16.000Z</time>
      </trkpt>
      <trkpt lat="46.70773" lon="-2.3332">
        <ele>21.3</ele>
        <time>2018-09-16T10:09:17.000Z</time>
      </trkpt>
      <trkpt lat="46.70773" lon="-2.3332">
        <ele>21.3</ele>
        <time>2018-09-16T10:09:18.000Z</time>
      </trkpt>
      <trkpt lat="46.70774" lon="-2.3332">
        <ele>21.3</ele>
        <time>2018-09-16T10:09:19.000Z</time>
      </trkpt>
      <trkpt lat="46.70774" lon="-2.3332">
        <ele>21.3</ele>
        <time>2018-09-16T10:09:20.000Z</time>
      </trkpt>
      <trkpt lat="46.70774" lon="-2.3332">
        <ele>21.3</ele>
        <time>2018-09-16T10:09:21.000Z</time>
      </trkpt>
      <trkpt lat="46.70774" lon="-2.3332">
        <ele>21.3</ele>
        <time>2018-09-16T10:09:22.000Z</time>
      </trkpt>
      <trkpt lat="46.70774" lon="-2.3332">
        <ele>21.3</ele>
        <time>2018-09-16T10:09:23.000Z</time>
      </trkpt>
      <trkpt lat="46.70774" lon="-2.3332">
        <ele>21.3</ele>
        <time>2018-09-16T10:09:24.000Z</time>
      </trkpt>
      <trkpt lat="46.70774" lon="-2.3332">
        <ele>21.3</ele>
        <time>2018-09-16T10:09:25.000Z</time>
      </trkpt>
      <trkpt lat="46.70774" lon="-2.3332">
        <ele>21.3</ele>
        <time>2018-09-16T10:09:26.000Z</time>
      </trkpt>
      <trkpt lat="46.70774" lon="-2.3332">
        <ele>21.3</ele>
        <time>2018-09-16T10:09:27.000Z</time>
      </trkpt>
      <trkpt lat="46.70774" lon="-2.3332">
        <ele>21.3</ele>
        <time>2018-09-16T10:09:28.000Z</time>
      </trkpt>
      <trkpt lat="46.70774" lon="-2.3332">
        <ele>21.3</ele>
        <time>2018-09-16T10:09:29.000Z</time>
      </trkpt>
      <trkpt lat="46.70774" lon="-2.3332">
        <ele>21.3</ele>
        <time>2018-09-16T10:09:30.000Z</time>
      </trkpt>
      <trkpt lat="46.70755" lon="-2.33235">
        <ele>21.6</ele>
        <time>2018-09-16T10:08:31.000Z</time>
      </trkpt>
      <trkpt lat="46.70755" lon="-2.33235">
        <ele>21.6</ele>
        <time>2018-09-16T10:08:31.000Z</time>
      </trkpt>
      <trkpt lat="46.70754" lon="-2.33203">
        <ele>20.5</ele>
        <time>2018-09-16T10:08:52.982Z</time>
      </trkpt>
      <trkpt lat="46.70754" lon="-2.33193">
        <ele>20.4</ele>
        <time>2018-09-16T10:08:59.844Z</time>
      </trkpt>
      <trkpt lat="46.70752" lon="-2.33162">
        <ele>20.3</ele>
        <time>2018-09-16T10:09:21.211Z</time>
      </trkpt>
      <trkpt lat="46.70752" lon="-2.33141">
        <ele>18.8</ele>
        <time>2018-09-16T10:09:35.622Z</time>
      </trkpt>
      <trkpt lat="46.70745" lon="-2.33107">
        <ele>20.1</ele>
        <time>2018-09-16T10:09:59.983Z</time>
      </trkpt>
      <trkpt lat="46.70749" lon="-2.33099">
        <ele>19.6</ele>
        <time>2018-09-16T10:10:06.777Z</time>
      </trkpt>
      <trkpt lat="46.70777" lon="-2.33058">
        <ele>15.6</ele>
        <time>2018-09-16T10:10:46.486Z</time>
      </trkpt>
      <trkpt lat="46.70824" lon="-2.32984">
        <ele>12.5</ele>
        <time>2018-09-16T10:11:55.704Z</time>
      </trkpt>
      <trkpt lat="46.70846" lon="-2.32957">
        <ele>11.3</ele>
        <time>2018-09-16T10:12:24.479Z</time>
      </trkpt>
      <trkpt lat="46.70865" lon="-2.32945">
        <ele>11.2</ele>
        <time>2018-09-16T10:12:45.200Z</time>
      </trkpt>
      <trkpt lat="46.70901" lon="-2.32947">
        <ele>11</ele>
        <time>2018-09-16T10:13:21.253Z</time>
      </trkpt>
      <trkpt lat="46.70919" lon="-2.3294">
        <ele>10.4</ele>
        <time>2018-09-16T10:13:39.896Z</time>
      </trkpt>
      <trkpt lat="46.70937" lon="-2.32927">
        <ele>10.2</ele>
        <time>2018-09-16T10:13:59.997Z</time>
      </trkpt>
      <trkpt lat="46.70951" lon="-2.3291">
        <ele>9.5</ele>
        <time>2018-09-16T10:14:18.228Z</time>
      </trkpt>
      <trkpt lat="46.70977" lon="-2.32889">
        <ele>9.1</ele>
        <time>2018-09-16T10:14:47.972Z</time>
      </trkpt>
      <trkpt lat="46.7102" lon="-2.32857">
        <ele>8</ele>
        <time>2018-09-16T10:15:36.283Z</time>
      </trkpt>
      <trkpt lat="46.71037" lon="-2.32844">
        <ele>7.9</ele>
        <time>2018-09-16T10:15:55.493Z</time>
      </trkpt>
      <trkpt lat="46.7109" lon="-2.32788">
        <ele>7.2</ele>
        <time>2018-09-16T10:17:00.990Z</time>
      </trkpt>
      <trkpt lat="46.71103" lon="-2.3276">
        <ele>7.1</ele>
        <time>2018-09-16T10:17:24.194Z</time>
      </trkpt>
      <trkpt lat="46.71107" lon="-2.32745">
        <ele>6.9</ele>
        <time>2018-09-16T10:17:35.238Z</time>
      </trkpt>
      <trkpt lat="46.71106" lon="-2.32702">
        <ele>6.8</ele>
        <time>2018-09-16T10:18:04.761Z</time>
      </trkpt>
      <trkpt lat="46.71106" lon="-2.32674">
        <ele>6.8</ele>
        <time>2018-09-16T10:18:23.974Z</time>
      </trkpt>
      <trkpt lat="46.71118" lon="-2.3265">
        <ele>6.7</ele>
        <time>2018-09-16T10:18:44.356Z</time>
      </trkpt>
      <trkpt lat="46.71133" lon="-2.32606">
        <ele>6.8</ele>
        <time>2018-09-16T10:19:18.074Z</time>
      </trkpt>
      <trkpt lat="46.71141" lon="-2.32566">
        <ele>7</ele>
        <time>2018-09-16T10:19:46.665Z</time>
      </trkpt>
      <trkpt lat="46.71141" lon="-2.32505">
        <ele>6.7</ele>
        <time>2018-09-16T10:20:28.523Z</time>
      </trkpt>
      <trkpt lat="46.71131" lon="-2.32406">
        <ele>8.9</ele>
        <time>2018-09-16T10:21:37.189Z</time>
      </trkpt>
      <trkpt lat="46.71138" lon="-2.32325">
        <ele>9.1</ele>
        <time>2018-09-16T10:22:33.210Z</time>
      </trkpt>
      <trkpt lat="46.7114" lon="-2.32273">
        <ele>9.2</ele>
        <time>2018-09-16T10:23:08.948Z</time>
      </trkpt>
      <trkpt lat="46.7114" lon="-2.32206">
        <ele>9.1</ele>
        <time>2018-09-16T10:23:54.923Z</time>
      </trkpt>
      <trkpt lat="46.7114" lon="-2.32139">
        <ele>8</ele>
        <time>2018-09-16T10:24:40.898Z</time>
      </trkpt>
      <trkpt lat="46.71158" lon="-2.32108">
        <ele>7.6</ele>
        <time>2018-09-16T10:25:08.772Z</time>
      </trkpt>
      <trkpt lat="46.71161" lon="-2.32103">
        <ele>7.5</ele>
        <time>2018-09-16T10:25:13.331Z</time>
      </trkpt>
      <trkpt lat="46.71198" lon="-2.32053">
        <ele>7.4</ele>
        <time>2018-09-16T10:26:03.811Z</time>
      </trkpt>
      <trkpt lat="46.71272" lon="-2.31935">
        <ele>7.5</ele>
        <time>2018-09-16T10:27:53.539Z</time>
      </trkpt>
      <trkpt lat="46.71304" lon="-2.31879">
        <ele>7.4</ele>
        <time>2018-09-16T10:28:43.560Z</time>
      </trkpt>
      <trkpt lat="46.71329" lon="-2.31834">
        <ele>7.9</ele>
        <time>2018-09-16T10:29:23.301Z</time>
      </trkpt>
      <trkpt lat="46.71373" lon="-2.31766">
        <ele>8.2</ele>
        <time>2018-09-16T10:30:27.457Z</time>
      </trkpt>
      <trkpt lat="46.71381" lon="-2.31753">
        <ele>8.1</ele>
        <time>2018-09-16T10:30:39.443Z</time>
      </trkpt>
      <trkpt lat="46.71385" lon="-2.31733">
        <ele>8.8</ele>
        <time>2018-09-16T10:30:53.738Z</time>
      </trkpt>
      <trkpt lat="46.71392" lon="-2.31669">
        <ele>9.4</ele>
        <time>2018-09-16T10:31:38.207Z</time>
      </trkpt>
      <trkpt lat="46.71406" lon="-2.31623">
        <ele>10.7</ele>
        <time>2018-09-16T10:32:12.740Z</time>
      </trkpt>
      <trkpt lat="46.71426" lon="-2.3152">
        <ele>11.1</ele>
        <time>2018-09-16T10:33:26.194Z</time>
      </trkpt>
      <trkpt lat="46.71424" lon="-2.31493">
        <ele>10.9</ele>
        <time>2018-09-16T10:33:44.828Z</time>
      </trkpt>
      <trkpt lat="46.71425" lon="-2.31465">
        <ele>10.4</ele>
        <time>2018-09-16T10:34:04.066Z</time>
      </trkpt>
      <trkpt lat="46.71429" lon="-2.31446">
        <ele>9.8</ele>
        <time>2018-09-16T10:34:17.704Z</time>
      </trkpt>
      <trkpt lat="46.71423" lon="-2.31439">
        <ele>9.3</ele>
        <time>2018-09-16T10:34:25.393Z</time>
      </trkpt>
      <trkpt lat="46.71424" lon="-2.31426">
        <ele>8.5</ele>
        <time>2018-09-16T10:34:34.369Z</time>
      </trkpt>
      <trkpt lat="46.71426" lon="-2.31417">
        <ele>8.2</ele>
        <time>2018-09-16T10:34:40.861Z</time>
      </trkpt>
      <trkpt lat="46.71432" lon="-2.31396">
        <ele>7.1</ele>
        <time>2018-09-16T10:34:56.471Z</time>
      </trkpt>
      <trkpt lat="46.71434" lon="-2.31388">
        <ele>7</ele>
        <time>2018-09-16T10:35:02.314Z</time>
      </trkpt>
      <trkpt lat="46.71425" lon="-2.31321">
        <ele>4.4</ele>
        <time>2018-09-16T10:35:49.160Z</time>
      </trkpt>
      <trkpt lat="46.71417" lon="-2.31269">
        <ele>2.8</ele>
        <time>2018-09-16T10:36:25.727Z</time>
      </trkpt>
      <trkpt lat="46.71419" lon="-2.31261">
        <ele>2.5</ele>
        <time>2018-09-16T10:36:31.570Z</time>
      </trkpt>
      <trkpt lat="46.71417" lon="-2.31269">
        <ele>2.8</ele>
        <time>2018-09-16T10:36:37.413Z</time>
      </trkpt>
      <trkpt lat="46.71425" lon="-2.31321">
        <ele>4.4</ele>
        <time>2018-09-16T10:37:13.980Z</time>
      </trkpt>
      <trkpt lat="46.71434" lon="-2.31388">
        <ele>7</ele>
        <time>2018-09-16T10:38:00.826Z</time>
      </trkpt>
      <trkpt lat="46.71432" lon="-2.31396">
        <ele>7.1</ele>
        <time>2018-09-16T10:38:06.669Z</time>
      </trkpt>
      <trkpt lat="46.71426" lon="-2.31417">
        <ele>8.2</ele>
        <time>2018-09-16T10:38:22.279Z</time>
      </trkpt>
      <trkpt lat="46.71424" lon="-2.31426">
        <ele>8.5</ele>
        <time>2018-09-16T10:38:28.771Z</time>
      </trkpt>
      <trkpt lat="46.71423" lon="-2.31439">
        <ele>9.3</ele>
        <time>2018-09-16T10:38:37.747Z</time>
      </trkpt>
      <trkpt lat="46.71429" lon="-2.31446">
        <ele>9.8</ele>
        <time>2018-09-16T10:38:45.436Z</time>
      </trkpt>
      <trkpt lat="46.71463" lon="-2.31479">
        <ele>11.1</ele>
        <time>2018-09-16T10:39:26.307Z</time>
      </trkpt>
      <trkpt lat="46.71492" lon="-2.31528">
        <ele>11.4</ele>
        <time>2018-09-16T10:40:10.722Z</time>
      </trkpt>
      <trkpt lat="46.71526" lon="-2.31552">
        <ele>10.6</ele>
        <time>2018-09-16T10:40:48.523Z</time>
      </trkpt>
      <trkpt lat="46.71595" lon="-2.31626">
        <ele>10.4</ele>
        <time>2018-09-16T10:42:14.233Z</time>
      </trkpt>
      <trkpt lat="46.71608" lon="-2.31653">
        <ele>10.3</ele>
        <time>2018-09-16T10:42:36.870Z</time>
      </trkpt>
      <trkpt lat="46.71635" lon="-2.31691">
        <ele>10.1</ele>
        <time>2018-09-16T10:43:14.419Z</time>
      </trkpt>
      <trkpt lat="46.71669" lon="-2.31747">
        <ele>11.1</ele>
        <time>2018-09-16T10:44:05.742Z</time>
      </trkpt>
      <trkpt lat="46.71705" lon="-2.31786">
        <ele>8.5</ele>
        <time>2018-09-16T10:44:50.619Z</time>
      </trkpt>
      <trkpt lat="46.71737" lon="-2.31815">
        <ele>8.1</ele>
        <time>2018-09-16T10:45:28.321Z</time>
      </trkpt>
      <trkpt lat="46.71778" lon="-2.3186">
        <ele>6.7</ele>
        <time>2018-09-16T10:46:19.671Z</time>
      </trkpt>
      <trkpt lat="46.71788" lon="-2.31873">
        <ele>6.4</ele>
        <time>2018-09-16T10:46:33.076Z</time>
      </trkpt>
      <trkpt lat="46.71794" lon="-2.31882">
        <ele>6.2</ele>
        <time>2018-09-16T10:46:41.689Z</time>
      </trkpt>
      <trkpt lat="46.7181" lon="-2.31875">
        <ele>6.3</ele>
        <time>2018-09-16T10:46:58.406Z</time>
      </trkpt>
      <trkpt lat="46.71834" lon="-2.31862">
        <ele>6.7</ele>
        <time>2018-09-16T10:47:24.027Z</time>
      </trkpt>
      <trkpt lat="46.71847" lon="-2.31853">
        <ele>6.8</ele>
        <time>2018-09-16T10:47:38.428Z</time>
      </trkpt>
      <trkpt lat="46.71852" lon="-2.31849">
        <ele>6.9</ele>
        <time>2018-09-16T10:47:44.135Z</time>
      </trkpt>
      <trkpt lat="46.71859" lon="-2.3185">
        <ele>6.9</ele>
        <time>2018-09-16T10:47:51.174Z</time>
      </trkpt>
      <trkpt lat="46.71852" lon="-2.31849">
        <ele>6.9</ele>
        <time>2018-09-16T10:47:58.213Z</time>
      </trkpt>
      <trkpt lat="46.71834" lon="-2.31862">
        <ele>6.7</ele>
        <time>2018-09-16T10:48:18.314Z</time>
      </trkpt>
      <trkpt lat="46.7181" lon="-2.31875">
        <ele>6.3</ele>
        <time>2018-09-16T10:48:43.935Z</time>
      </trkpt>
      <trkpt lat="46.71794" lon="-2.31882">
        <ele>6.2</ele>
        <time>2018-09-16T10:49:00.652Z</time>
      </trkpt>
      <trkpt lat="46.71828" lon="-2.32029">
        <ele>7.4</ele>
        <time>2018-09-16T10:50:47.094Z</time>
      </trkpt>
      <trkpt lat="46.71835" lon="-2.32073">
        <ele>8.2</ele>
        <time>2018-09-16T10:51:18.085Z</time>
      </trkpt>
      <trkpt lat="46.71845" lon="-2.32071">
        <ele>8.2</ele>
        <time>2018-09-16T10:51:28.186Z</time>
      </trkpt>
      <trkpt lat="46.71848" lon="-2.32095">
        <ele>8</ele>
        <time>2018-09-16T10:51:44.924Z</time>
      </trkpt>
      <trkpt lat="46.71849" lon="-2.32107">
        <ele>8</ele>
        <time>2018-09-16T10:51:53.218Z</time>
      </trkpt>
      <trkpt lat="46.71852" lon="-2.32151">
        <ele>7.9</ele>
        <time>2018-09-16T10:52:23.555Z</time>
      </trkpt>
      <trkpt lat="46.71875" lon="-2.32133">
        <ele>8</ele>
        <time>2018-09-16T10:52:49.676Z</time>
      </trkpt>
      <trkpt lat="46.71885" lon="-2.32123">
        <ele>8</ele>
        <time>2018-09-16T10:53:01.810Z</time>
      </trkpt>
      <trkpt lat="46.71912" lon="-2.32119">
        <ele>8.1</ele>
        <time>2018-09-16T10:53:28.969Z</time>
      </trkpt>
      <trkpt lat="46.71932" lon="-2.32104">
        <ele>8.4</ele>
        <time>2018-09-16T10:53:51.475Z</time>
      </trkpt>
      <trkpt lat="46.71951" lon="-2.32093">
        <ele>8.4</ele>
        <time>2018-09-16T10:54:11.932Z</time>
      </trkpt>
      <trkpt lat="46.71963" lon="-2.32095">
        <ele>8.3</ele>
        <time>2018-09-16T10:54:24.019Z</time>
      </trkpt>
      <trkpt lat="46.71973" lon="-2.32107">
        <ele>8.1</ele>
        <time>2018-09-16T10:54:36.978Z</time>
      </trkpt>
      <trkpt lat="46.72" lon="-2.32102">
        <ele>8.1</ele>
        <time>2018-09-16T10:55:04.215Z</time>
      </trkpt>
      <trkpt lat="46.72015" lon="-2.32096">
        <ele>4.4</ele>
        <time>2018-09-16T10:55:19.781Z</time>
      </trkpt>
      <trkpt lat="46.71972" lon="-2.32321">
        <ele>6</ele>
        <time>2018-09-16T10:58:00.035Z</time>
      </trkpt>
      <trkpt lat="46.71994" lon="-2.32508">
        <ele>3.4</ele>
        <time>2018-09-16T11:00:10.208Z</time>
      </trkpt>
      <trkpt lat="46.72047" lon="-2.32595">
        <ele>3.7</ele>
        <time>2018-09-16T11:01:30.058Z</time>
      </trkpt>
      <trkpt lat="46.72068" lon="-2.32783">
        <ele>3</ele>
        <time>2018-09-16T11:03:40.741Z</time>
      </trkpt>
      <trkpt lat="46.72067" lon="-2.32862">
        <ele>2.2</ele>
        <time>2018-09-16T11:04:34.950Z</time>
      </trkpt>
      <trkpt lat="46.71976" lon="-2.33084">
        <ele>4</ele>
        <time>2018-09-16T11:07:32.409Z</time>
      </trkpt>
      <trkpt lat="46.71961" lon="-2.3315">
        <ele>4.7</ele>
        <time>2018-09-16T11:08:20.114Z</time>
      </trkpt>
      <trkpt lat="46.71958" lon="-2.33179">
        <ele>4.7</ele>
        <time>2018-09-16T11:08:40.236Z</time>
      </trkpt>
      <trkpt lat="46.71958" lon="-2.33179">
        <ele>4.7</ele>
        <time>2018-09-16T11:08:40.236Z</time>
      </trkpt>
      <trkpt lat="46.71966" lon="-2.33184">
        <ele>5</ele>
        <time>2018-09-16T16:18:26.000Z</time>
      </trkpt>
      <trkpt lat="46.71966" lon="-2.33184">
        <ele>5</ele>
        <time>2018-09-16T16:18:26.000Z</time>
      </trkpt>
      <trkpt lat="46.71965" lon="-2.33185">
        <ele>5</ele>
        <time>2018-09-16T16:18:27.000Z</time>
      </trkpt>
      <trkpt lat="46.71965" lon="-2.33186">
        <ele>5</ele>
        <time>2018-09-16T16:18:28.000Z</time>
      </trkpt>
      <trkpt lat="46.71965" lon="-2.33188">
        <ele>5</ele>
        <time>2018-09-16T16:18:29.000Z</time>
      </trkpt>
      <trkpt lat="46.71964" lon="-2.33189">
        <ele>5</ele>
        <time>2018-09-16T16:18:30.000Z</time>
      </trkpt>
      <trkpt lat="46.71964" lon="-2.3319">
        <ele>5</ele>
        <time>2018-09-16T16:18:31.000Z</time>
      </trkpt>
      <trkpt lat="46.71964" lon="-2.33192">
        <ele>5</ele>
        <time>2018-09-16T16:18:32.000Z</time>
      </trkpt>
      <trkpt lat="46.71963" lon="-2.33193">
        <ele>5</ele>
        <time>2018-09-16T16:18:33.000Z</time>
      </trkpt>
      <trkpt lat="46.71963" lon="-2.33194">
        <ele>5</ele>
        <time>2018-09-16T16:18:34.000Z</time>
      </trkpt>
      <trkpt lat="46.71963" lon="-2.33196">
        <ele>5</ele>
        <time>2018-09-16T16:18:35.000Z</time>
      </trkpt>
      <trkpt lat="46.71963" lon="-2.33197">
        <ele>5</ele>
        <time>2018-09-16T16:18:36.000Z</time>
      </trkpt>
      <trkpt lat="46.71963" lon="-2.33198">
        <ele>5</ele>
        <time>2018-09-16T16:18:37.000Z</time>
      </trkpt>
      <trkpt lat="46.71963" lon="-2.332">
        <ele>5</ele>
        <time>2018-09-16T16:18:38.000Z</time>
      </trkpt>
      <trkpt lat="46.71962" lon="-2.33201">
        <ele>5</ele>
        <time>2018-09-16T16:18:39.000Z</time>
      </trkpt>
      <trkpt lat="46.71962" lon="-2.33202">
        <ele>5</ele>
        <time>2018-09-16T16:18:40.000Z</time>
      </trkpt>
      <trkpt lat="46.71962" lon="-2.33204">
        <ele>5</ele>
        <time>2018-09-16T16:18:41.000Z</time>
      </trkpt>
      <trkpt lat="46.71962" lon="-2.33205">
        <ele>5</ele>
        <time>2018-09-16T16:18:42.000Z</time>
      </trkpt>
      <trkpt lat="46.71962" lon="-2.33207">
        <ele>5</ele>
        <time>2018-09-16T16:18:43.000Z</time>
      </trkpt>
      <trkpt lat="46.71963" lon="-2.33208">
        <ele>5</ele>
        <time>2018-09-16T16:18:44.000Z</time>
      </trkpt>
      <trkpt lat="46.71963" lon="-2.3321">
        <ele>4</ele>
        <time>2018-09-16T16:18:45.000Z</time>
      </trkpt>
      <trkpt lat="46.71963" lon="-2.33211">
        <ele>4</ele>
        <time>2018-09-16T16:18:46.000Z</time>
      </trkpt>
      <trkpt lat="46.71963" lon="-2.33213">
        <ele>4</ele>
        <time>2018-09-16T16:18:47.000Z</time>
      </trkpt>
      <trkpt lat="46.71963" lon="-2.33214">
        <ele>4</ele>
        <time>2018-09-16T16:18:48.000Z</time>
      </trkpt>
      <trkpt lat="46.71963" lon="-2.33216">
        <ele>4</ele>
        <time>2018-09-16T16:18:49.000Z</time>
      </trkpt>
      <trkpt lat="46.71963" lon="-2.33217">
        <ele>4</ele>
        <time>2018-09-16T16:18:50.000Z</time>
      </trkpt>
      <trkpt lat="46.71963" lon="-2.33219">
        <ele>4</ele>
        <time>2018-09-16T16:18:51.000Z</time>
      </trkpt>
      <trkpt lat="46.71963" lon="-2.3322">
        <ele>4</ele>
        <time>2018-09-16T16:18:52.000Z</time>
      </trkpt>
      <trkpt lat="46.71963" lon="-2.33221">
        <ele>4</ele>
        <time>2018-09-16T16:18:53.000Z</time>
      </trkpt>
      <trkpt lat="46.71963" lon="-2.33222">
        <ele>4</ele>
        <time>2018-09-16T16:18:54.000Z</time>
      </trkpt>
      <trkpt lat="46.71963" lon="-2.33224">
        <ele>4</ele>
        <time>2018-09-16T16:18:55.000Z</time>
      </trkpt>
      <trkpt lat="46.71962" lon="-2.33225">
        <ele>4</ele>
        <time>2018-09-16T16:18:56.000Z</time>
      </trkpt>
      <trkpt lat="46.71962" lon="-2.33226">
        <ele>4</ele>
        <time>2018-09-16T16:18:57.000Z</time>
      </trkpt>
      <trkpt lat="46.71961" lon="-2.33226">
        <ele>4</ele>
        <time>2018-09-16T16:18:58.000Z</time>
      </trkpt>
      <trkpt lat="46.71961" lon="-2.33227">
        <ele>4</ele>
        <time>2018-09-16T16:18:59.000Z</time>
      </trkpt>
      <trkpt lat="46.7196" lon="-2.33228">
        <ele>4</ele>
        <time>2018-09-16T16:19:00.000Z</time>
      </trkpt>
      <trkpt lat="46.7196" lon="-2.3323">
        <ele>4</ele>
        <time>2018-09-16T16:19:01.000Z</time>
      </trkpt>
      <trkpt lat="46.7196" lon="-2.33231">
        <ele>4</ele>
        <time>2018-09-16T16:19:02.000Z</time>
      </trkpt>
      <trkpt lat="46.7196" lon="-2.33233">
        <ele>4</ele>
        <time>2018-09-16T16:19:03.000Z</time>
      </trkpt>
      <trkpt lat="46.7196" lon="-2.33234">
        <ele>4</ele>
        <time>2018-09-16T16:19:04.000Z</time>
      </trkpt>
      <trkpt lat="46.7196" lon="-2.33236">
        <ele>4</ele>
        <time>2018-09-16T16:19:05.000Z</time>
      </trkpt>
      <trkpt lat="46.7196" lon="-2.33238">
        <ele>4</ele>
        <time>2018-09-16T16:19:06.000Z</time>
      </trkpt>
      <trkpt lat="46.7196" lon="-2.3324">
        <ele>4</ele>
        <time>2018-09-16T16:19:07.000Z</time>
      </trkpt>
      <trkpt lat="46.7196" lon="-2.33241">
        <ele>4</ele>
        <time>2018-09-16T16:19:08.000Z</time>
      </trkpt>
      <trkpt lat="46.7196" lon="-2.33243">
        <ele>4</ele>
        <time>2018-09-16T16:19:09.000Z</time>
      </trkpt>
      <trkpt lat="46.7196" lon="-2.33245">
        <ele>4</ele>
        <time>2018-09-16T16:19:10.000Z</time>
      </trkpt>
      <trkpt lat="46.7196" lon="-2.33246">
        <ele>4</ele>
        <time>2018-09-16T16:19:11.000Z</time>
      </trkpt>
      <trkpt lat="46.7196" lon="-2.33248">
        <ele>4</ele>
        <time>2018-09-16T16:19:12.000Z</time>
      </trkpt>
      <trkpt lat="46.7196" lon="-2.33249">
        <ele>4</ele>
        <time>2018-09-16T16:19:13.000Z</time>
      </trkpt>
      <trkpt lat="46.7196" lon="-2.33251">
        <ele>4</ele>
        <time>2018-09-16T16:19:14.000Z</time>
      </trkpt>
      <trkpt lat="46.7196" lon="-2.33253">
        <ele>4</ele>
        <time>2018-09-16T16:19:15.000Z</time>
      </trkpt>
      <trkpt lat="46.71959" lon="-2.33254">
        <ele>4</ele>
        <time>2018-09-16T16:19:16.000Z</time>
      </trkpt>
      <trkpt lat="46.71959" lon="-2.33256">
        <ele>4</ele>
        <time>2018-09-16T16:19:17.000Z</time>
      </trkpt>
      <trkpt lat="46.71959" lon="-2.33257">
        <ele>4</ele>
        <time>2018-09-16T16:19:18.000Z</time>
      </trkpt>
      <trkpt lat="46.71959" lon="-2.33259">
        <ele>4</ele>
        <time>2018-09-16T16:19:19.000Z</time>
      </trkpt>
      <trkpt lat="46.71959" lon="-2.3326">
        <ele>4</ele>
        <time>2018-09-16T16:19:20.000Z</time>
      </trkpt>
      <trkpt lat="46.71958" lon="-2.33261">
        <ele>4</ele>
        <time>2018-09-16T16:19:21.000Z</time>
      </trkpt>
      <trkpt lat="46.71958" lon="-2.33263">
        <ele>4</ele>
        <time>2018-09-16T16:19:22.000Z</time>
      </trkpt>
      <trkpt lat="46.71958" lon="-2.33264">
        <ele>4</ele>
        <time>2018-09-16T16:19:23.000Z</time>
      </trkpt>
      <trkpt lat="46.71958" lon="-2.33266">
        <ele>4</ele>
        <time>2018-09-16T16:19:24.000Z</time>
      </trkpt>
      <trkpt lat="46.71958" lon="-2.33267">
        <ele>4</ele>
        <time>2018-09-16T16:19:25.000Z</time>
      </trkpt>
      <trkpt lat="46.71958" lon="-2.33269">
        <ele>4</ele>
        <time>2018-09-16T16:19:26.000Z</time>
      </trkpt>
      <trkpt lat="46.71958" lon="-2.33271">
        <ele>4</ele>
        <time>2018-09-16T16:19:27.000Z</time>
      </trkpt>
      <trkpt lat="46.71958" lon="-2.33272">
        <ele>4</ele>
        <time>2018-09-16T16:19:28.000Z</time>
      </trkpt>
      <trkpt lat="46.71958" lon="-2.33274">
        <ele>4</ele>
        <time>2018-09-16T16:19:29.000Z</time>
      </trkpt>
      <trkpt lat="46.71958" lon="-2.33275">
        <ele>4</ele>
        <time>2018-09-16T16:19:30.000Z</time>
      </trkpt>
      <trkpt lat="46.71959" lon="-2.33277">
        <ele>4</ele>
        <time>2018-09-16T16:19:31.000Z</time>
      </trkpt>
      <trkpt lat="46.71959" lon="-2.33278">
        <ele>4</ele>
        <time>2018-09-16T16:19:32.000Z</time>
      </trkpt>
      <trkpt lat="46.71959" lon="-2.3328">
        <ele>4</ele>
        <time>2018-09-16T16:19:33.000Z</time>
      </trkpt>
      <trkpt lat="46.71959" lon="-2.33282">
        <ele>4</ele>
        <time>2018-09-16T16:19:34.000Z</time>
      </trkpt>
      <trkpt lat="46.71959" lon="-2.33283">
        <ele>4</ele>
        <time>2018-09-16T16:19:35.000Z</time>
      </trkpt>
      <trkpt lat="46.7196" lon="-2.33285">
        <ele>4</ele>
        <time>2018-09-16T16:19:36.000Z</time>
      </trkpt>
      <trkpt lat="46.7196" lon="-2.33286">
        <ele>4</ele>
        <time>2018-09-16T16:19:37.000Z</time>
      </trkpt>
      <trkpt lat="46.7196" lon="-2.33288">
        <ele>4</ele>
        <time>2018-09-16T16:19:38.000Z</time>
      </trkpt>
      <trkpt lat="46.7196" lon="-2.3329">
        <ele>4</ele>
        <time>2018-09-16T16:19:39.000Z</time>
      </trkpt>
      <trkpt lat="46.71961" lon="-2.33291">
        <ele>4</ele>
        <time>2018-09-16T16:19:40.000Z</time>
      </trkpt>
      <trkpt lat="46.71961" lon="-2.33293">
        <ele>4</ele>
        <time>2018-09-16T16:19:41.000Z</time>
      </trkpt>
      <trkpt lat="46.71961" lon="-2.33294">
        <ele>4</ele>
        <time>2018-09-16T16:19:42.000Z</time>
      </trkpt>
      <trkpt lat="46.71961" lon="-2.33296">
        <ele>4</ele>
        <time>2018-09-16T16:19:43.000Z</time>
      </trkpt>
      <trkpt lat="46.71961" lon="-2.33298">
        <ele>4</ele>
        <time>2018-09-16T16:19:44.000Z</time>
      </trkpt>
      <trkpt lat="46.71962" lon="-2.33299">
        <ele>4</ele>
        <time>2018-09-16T16:19:45.000Z</time>
      </trkpt>
      <trkpt lat="46.71962" lon="-2.33301">
        <ele>4</ele>
        <time>2018-09-16T16:19:46.000Z</time>
      </trkpt>
      <trkpt lat="46.71962" lon="-2.33302">
        <ele>4</ele>
        <time>2018-09-16T16:19:47.000Z</time>
      </trkpt>
      <trkpt lat="46.71962" lon="-2.33304">
        <ele>4</ele>
        <time>2018-09-16T16:19:48.000Z</time>
      </trkpt>
      <trkpt lat="46.71962" lon="-2.33306">
        <ele>4</ele>
        <time>2018-09-16T16:19:49.000Z</time>
      </trkpt>
      <trkpt lat="46.71962" lon="-2.33307">
        <ele>4</ele>
        <time>2018-09-16T16:19:50.000Z</time>
      </trkpt>
      <trkpt lat="46.71962" lon="-2.33309">
        <ele>4</ele>
        <time>2018-09-16T16:19:51.000Z</time>
      </trkpt>
      <trkpt lat="46.71962" lon="-2.3331">
        <ele>4</ele>
        <time>2018-09-16T16:19:52.000Z</time>
      </trkpt>
      <trkpt lat="46.71962" lon="-2.33312">
        <ele>4</ele>
        <time>2018-09-16T16:19:53.000Z</time>
      </trkpt>
      <trkpt lat="46.71962" lon="-2.33313">
        <ele>4</ele>
        <time>2018-09-16T16:19:54.000Z</time>
      </trkpt>
      <trkpt lat="46.71961" lon="-2.33315">
        <ele>4</ele>
        <time>2018-09-16T16:19:55.000Z</time>
      </trkpt>
      <trkpt lat="46.71961" lon="-2.33316">
        <ele>4</ele>
        <time>2018-09-16T16:19:56.000Z</time>
      </trkpt>
      <trkpt lat="46.71961" lon="-2.33317">
        <ele>4</ele>
        <time>2018-09-16T16:19:57.000Z</time>
      </trkpt>
      <trkpt lat="46.71961" lon="-2.33318">
        <ele>4</ele>
        <time>2018-09-16T16:19:58.000Z</time>
      </trkpt>
      <trkpt lat="46.71961" lon="-2.33318">
        <ele>4</ele>
        <time>2018-09-16T16:19:59.000Z</time>
      </trkpt>
      <trkpt lat="46.71961" lon="-2.33318">
        <ele>4</ele>
        <time>2018-09-16T16:20:00.000Z</time>
      </trkpt>
      <trkpt lat="46.71961" lon="-2.33319">
        <ele>4</ele>
        <time>2018-09-16T16:20:01.000Z</time>
      </trkpt>
      <trkpt lat="46.71961" lon="-2.33319">
        <ele>4</ele>
        <time>2018-09-16T16:20:02.000Z</time>
      </trkpt>
      <trkpt lat="46.7196" lon="-2.33319">
        <ele>4</ele>
        <time>2018-09-16T16:20:03.000Z</time>
      </trkpt>
      <trkpt lat="46.7196" lon="-2.3332">
        <ele>4</ele>
        <time>2018-09-16T16:20:04.000Z</time>
      </trkpt>
      <trkpt lat="46.7196" lon="-2.33321">
        <ele>4</ele>
        <time>2018-09-16T16:20:05.000Z</time>
      </trkpt>
      <trkpt lat="46.7196" lon="-2.33322">
        <ele>4</ele>
        <time>2018-09-16T16:20:06.000Z</time>
      </trkpt>
      <trkpt lat="46.71959" lon="-2.33324">
        <ele>4</ele>
        <time>2018-09-16T16:20:07.000Z</time>
      </trkpt>
      <trkpt lat="46.71959" lon="-2.33325">
        <ele>4</ele>
        <time>2018-09-16T16:20:08.000Z</time>
      </trkpt>
      <trkpt lat="46.71959" lon="-2.33327">
        <ele>4</ele>
        <time>2018-09-16T16:20:09.000Z</time>
      </trkpt>
      <trkpt lat="46.71958" lon="-2.33329">
        <ele>4</ele>
        <time>2018-09-16T16:20:10.000Z</time>
      </trkpt>
      <trkpt lat="46.71958" lon="-2.33331">
        <ele>4</ele>
        <time>2018-09-16T16:20:11.000Z</time>
      </trkpt>
      <trkpt lat="46.71958" lon="-2.33333">
        <ele>4</ele>
        <time>2018-09-16T16:20:12.000Z</time>
      </trkpt>
      <trkpt lat="46.71957" lon="-2.33335">
        <ele>4.6</ele>
        <time>2018-09-16T16:20:13.000Z</time>
      </trkpt>
      <trkpt lat="46.71957" lon="-2.33336">
        <ele>4.6</ele>
        <time>2018-09-16T16:20:14.000Z</time>
      </trkpt>
      <trkpt lat="46.71957" lon="-2.33338">
        <ele>4.6</ele>
        <time>2018-09-16T16:20:15.000Z</time>
      </trkpt>
      <trkpt lat="46.71957" lon="-2.3334">
        <ele>4.6</ele>
        <time>2018-09-16T16:20:16.000Z</time>
      </trkpt>
      <trkpt lat="46.71957" lon="-2.33341">
        <ele>4.6</ele>
        <time>2018-09-16T16:20:17.000Z</time>
      </trkpt>
      <trkpt lat="46.71957" lon="-2.33343">
        <ele>4.6</ele>
        <time>2018-09-16T16:20:18.000Z</time>
      </trkpt>
      <trkpt lat="46.71957" lon="-2.33344">
        <ele>4.6</ele>
        <time>2018-09-16T16:20:19.000Z</time>
      </trkpt>
      <trkpt lat="46.71956" lon="-2.33346">
        <ele>4.6</ele>
        <time>2018-09-16T16:20:20.000Z</time>
      </trkpt>
      <trkpt lat="46.71956" lon="-2.33347">
        <ele>4.6</ele>
        <time>2018-09-16T16:20:21.000Z</time>
      </trkpt>
      <trkpt lat="46.71956" lon="-2.33349">
        <ele>4.6</ele>
        <time>2018-09-16T16:20:22.000Z</time>
      </trkpt>
      <trkpt lat="46.71956" lon="-2.3335">
        <ele>4.6</ele>
        <time>2018-09-16T16:20:23.000Z</time>
      </trkpt>
      <trkpt lat="46.71956" lon="-2.33352">
        <ele>4.6</ele>
        <time>2018-09-16T16:20:24.000Z</time>
      </trkpt>
      <trkpt lat="46.71956" lon="-2.33353">
        <ele>4.6</ele>
        <time>2018-09-16T16:20:25.000Z</time>
      </trkpt>
      <trkpt lat="46.71955" lon="-2.33355">
        <ele>4.6</ele>
        <time>2018-09-16T16:20:26.000Z</time>
      </trkpt>
      <trkpt lat="46.71955" lon="-2.33357">
        <ele>4.6</ele>
        <time>2018-09-16T16:20:27.000Z</time>
      </trkpt>
      <trkpt lat="46.71955" lon="-2.33358">
        <ele>4.6</ele>
        <time>2018-09-16T16:20:28.000Z</time>
      </trkpt>
      <trkpt lat="46.71954" lon="-2.3336">
        <ele>4.6</ele>
        <time>2018-09-16T16:20:29.000Z</time>
      </trkpt>
      <trkpt lat="46.71954" lon="-2.33362">
        <ele>4.6</ele>
        <time>2018-09-16T16:20:30.000Z</time>
      </trkpt>
      <trkpt lat="46.71954" lon="-2.33363">
        <ele>4.6</ele>
        <time>2018-09-16T16:20:31.000Z</time>
      </trkpt>
      <trkpt lat="46.71953" lon="-2.33365">
        <ele>4.6</ele>
        <time>2018-09-16T16:20:32.000Z</time>
      </trkpt>
      <trkpt lat="46.71953" lon="-2.33367">
        <ele>4.6</ele>
        <time>2018-09-16T16:20:33.000Z</time>
      </trkpt>
      <trkpt lat="46.71952" lon="-2.33368">
        <ele>4.6</ele>
        <time>2018-09-16T16:20:34.000Z</time>
      </trkpt>
      <trkpt lat="46.71952" lon="-2.3337">
        <ele>4.6</ele>
        <time>2018-09-16T16:20:35.000Z</time>
      </trkpt>
      <trkpt lat="46.71952" lon="-2.33372">
        <ele>4.6</ele>
        <time>2018-09-16T16:20:36.000Z</time>
      </trkpt>
      <trkpt lat="46.71951" lon="-2.33373">
        <ele>4.6</ele>
        <time>2018-09-16T16:20:37.000Z</time>
      </trkpt>
      <trkpt lat="46.71951" lon="-2.33375">
        <ele>4.6</ele>
        <time>2018-09-16T16:20:38.000Z</time>
      </trkpt>
      <trkpt lat="46.7195" lon="-2.33376">
        <ele>4.6</ele>
        <time>2018-09-16T16:20:39.000Z</time>
      </trkpt>
      <trkpt lat="46.7195" lon="-2.33378">
        <ele>4.6</ele>
        <time>2018-09-16T16:20:40.000Z</time>
      </trkpt>
      <trkpt lat="46.71949" lon="-2.33379">
        <ele>4.6</ele>
        <time>2018-09-16T16:20:41.000Z</time>
      </trkpt>
      <trkpt lat="46.71949" lon="-2.33381">
        <ele>4.6</ele>
        <time>2018-09-16T16:20:42.000Z</time>
      </trkpt>
      <trkpt lat="46.71948" lon="-2.33382">
        <ele>4.6</ele>
        <time>2018-09-16T16:20:43.000Z</time>
      </trkpt>
      <trkpt lat="46.71948" lon="-2.33384">
        <ele>4.6</ele>
        <time>2018-09-16T16:20:44.000Z</time>
      </trkpt>
      <trkpt lat="46.71947" lon="-2.33385">
        <ele>4.6</ele>
        <time>2018-09-16T16:20:45.000Z</time>
      </trkpt>
      <trkpt lat="46.71946" lon="-2.33387">
        <ele>4.6</ele>
        <time>2018-09-16T16:20:46.000Z</time>
      </trkpt>
      <trkpt lat="46.71946" lon="-2.33388">
        <ele>4.6</ele>
        <time>2018-09-16T16:20:47.000Z</time>
      </trkpt>
      <trkpt lat="46.71945" lon="-2.33389">
        <ele>4.6</ele>
        <time>2018-09-16T16:20:48.000Z</time>
      </trkpt>
      <trkpt lat="46.71945" lon="-2.33391">
        <ele>4.6</ele>
        <time>2018-09-16T16:20:49.000Z</time>
      </trkpt>
      <trkpt lat="46.71944" lon="-2.33392">
        <ele>4.6</ele>
        <time>2018-09-16T16:20:50.000Z</time>
      </trkpt>
      <trkpt lat="46.71944" lon="-2.33393">
        <ele>4.6</ele>
        <time>2018-09-16T16:20:51.000Z</time>
      </trkpt>
      <trkpt lat="46.71943" lon="-2.33395">
        <ele>4.6</ele>
        <time>2018-09-16T16:20:52.000Z</time>
      </trkpt>
      <trkpt lat="46.71943" lon="-2.33396">
        <ele>4.6</ele>
        <time>2018-09-16T16:20:53.000Z</time>
      </trkpt>
      <trkpt lat="46.71943" lon="-2.33397">
        <ele>4.6</ele>
        <time>2018-09-16T16:20:54.000Z</time>
      </trkpt>
      <trkpt lat="46.71942" lon="-2.33399">
        <ele>4.6</ele>
        <time>2018-09-16T16:20:55.000Z</time>
      </trkpt>
      <trkpt lat="46.71942" lon="-2.334">
        <ele>4.6</ele>
        <time>2018-09-16T16:20:56.000Z</time>
      </trkpt>
      <trkpt lat="46.71941" lon="-2.33401">
        <ele>4.6</ele>
        <time>2018-09-16T16:20:57.000Z</time>
      </trkpt>
      <trkpt lat="46.71941" lon="-2.33403">
        <ele>4.6</ele>
        <time>2018-09-16T16:20:58.000Z</time>
      </trkpt>
      <trkpt lat="46.71941" lon="-2.33404">
        <ele>4.6</ele>
        <time>2018-09-16T16:20:59.000Z</time>
      </trkpt>
      <trkpt lat="46.71941" lon="-2.33406">
        <ele>4.6</ele>
        <time>2018-09-16T16:21:00.000Z</time>
      </trkpt>
      <trkpt lat="46.71941" lon="-2.33407">
        <ele>4.6</ele>
        <time>2018-09-16T16:21:01.000Z</time>
      </trkpt>
      <trkpt lat="46.71941" lon="-2.33409">
        <ele>4.6</ele>
        <time>2018-09-16T16:21:02.000Z</time>
      </trkpt>
      <trkpt lat="46.71941" lon="-2.3341">
        <ele>4.6</ele>
        <time>2018-09-16T16:21:03.000Z</time>
      </trkpt>
      <trkpt lat="46.7194" lon="-2.33412">
        <ele>4.6</ele>
        <time>2018-09-16T16:21:04.000Z</time>
      </trkpt>
      <trkpt lat="46.7194" lon="-2.33413">
        <ele>4.6</ele>
        <time>2018-09-16T16:21:05.000Z</time>
      </trkpt>
      <trkpt lat="46.7194" lon="-2.33415">
        <ele>4.6</ele>
        <time>2018-09-16T16:21:06.000Z</time>
      </trkpt>
      <trkpt lat="46.71941" lon="-2.33417">
        <ele>4.6</ele>
        <time>2018-09-16T16:21:07.000Z</time>
      </trkpt>
      <trkpt lat="46.71941" lon="-2.33418">
        <ele>5</ele>
        <time>2018-09-16T16:21:08.000Z</time>
      </trkpt>
      <trkpt lat="46.71941" lon="-2.3342">
        <ele>5</ele>
        <time>2018-09-16T16:21:09.000Z</time>
      </trkpt>
      <trkpt lat="46.71941" lon="-2.33421">
        <ele>5</ele>
        <time>2018-09-16T16:21:10.000Z</time>
      </trkpt>
      <trkpt lat="46.7194" lon="-2.33423">
        <ele>5</ele>
        <time>2018-09-16T16:21:11.000Z</time>
      </trkpt>
      <trkpt lat="46.7194" lon="-2.33425">
        <ele>5</ele>
        <time>2018-09-16T16:21:12.000Z</time>
      </trkpt>
      <trkpt lat="46.7194" lon="-2.33426">
        <ele>5</ele>
        <time>2018-09-16T16:21:13.000Z</time>
      </trkpt>
      <trkpt lat="46.7194" lon="-2.33427">
        <ele>5</ele>
        <time>2018-09-16T16:21:14.000Z</time>
      </trkpt>
      <trkpt lat="46.71941" lon="-2.33428">
        <ele>5</ele>
        <time>2018-09-16T16:21:15.000Z</time>
      </trkpt>
      <trkpt lat="46.71941" lon="-2.33429">
        <ele>5</ele>
        <time>2018-09-16T16:21:16.000Z</time>
      </trkpt>
      <trkpt lat="46.71941" lon="-2.33429">
        <ele>5</ele>
        <time>2018-09-16T16:21:17.000Z</time>
      </trkpt>
      <trkpt lat="46.71941" lon="-2.33429">
        <ele>5</ele>
        <time>2018-09-16T16:21:18.000Z</time>
      </trkpt>
      <trkpt lat="46.71941" lon="-2.33429">
        <ele>5</ele>
        <time>2018-09-16T16:21:19.000Z</time>
      </trkpt>
      <trkpt lat="46.71941" lon="-2.3343">
        <ele>5</ele>
        <time>2018-09-16T16:21:20.000Z</time>
      </trkpt>
      <trkpt lat="46.71941" lon="-2.33431">
        <ele>5</ele>
        <time>2018-09-16T16:21:21.000Z</time>
      </trkpt>
      <trkpt lat="46.71942" lon="-2.33432">
        <ele>5</ele>
        <time>2018-09-16T16:21:22.000Z</time>
      </trkpt>
      <trkpt lat="46.71942" lon="-2.33434">
        <ele>5</ele>
        <time>2018-09-16T16:21:23.000Z</time>
      </trkpt>
      <trkpt lat="46.71942" lon="-2.33436">
        <ele>5</ele>
        <time>2018-09-16T16:21:24.000Z</time>
      </trkpt>
      <trkpt lat="46.71942" lon="-2.33438">
        <ele>5</ele>
        <time>2018-09-16T16:21:25.000Z</time>
      </trkpt>
      <trkpt lat="46.71942" lon="-2.3344">
        <ele>5</ele>
        <time>2018-09-16T16:21:26.000Z</time>
      </trkpt>
      <trkpt lat="46.71942" lon="-2.33441">
        <ele>5</ele>
        <time>2018-09-16T16:21:27.000Z</time>
      </trkpt>
      <trkpt lat="46.71942" lon="-2.33443">
        <ele>5</ele>
        <time>2018-09-16T16:21:28.000Z</time>
      </trkpt>
      <trkpt lat="46.71941" lon="-2.33445">
        <ele>5</ele>
        <time>2018-09-16T16:21:29.000Z</time>
      </trkpt>
      <trkpt lat="46.71941" lon="-2.33446">
        <ele>5</ele>
        <time>2018-09-16T16:21:30.000Z</time>
      </trkpt>
      <trkpt lat="46.71941" lon="-2.33448">
        <ele>5</ele>
        <time>2018-09-16T16:21:31.000Z</time>
      </trkpt>
      <trkpt lat="46.71941" lon="-2.3345">
        <ele>5</ele>
        <time>2018-09-16T16:21:32.000Z</time>
      </trkpt>
      <trkpt lat="46.71941" lon="-2.33451">
        <ele>5</ele>
        <time>2018-09-16T16:21:33.000Z</time>
      </trkpt>
      <trkpt lat="46.71941" lon="-2.33453">
        <ele>5</ele>
        <time>2018-09-16T16:21:34.000Z</time>
      </trkpt>
      <trkpt lat="46.71941" lon="-2.33455">
        <ele>5</ele>
        <time>2018-09-16T16:21:35.000Z</time>
      </trkpt>
      <trkpt lat="46.71941" lon="-2.33456">
        <ele>5</ele>
        <time>2018-09-16T16:21:36.000Z</time>
      </trkpt>
      <trkpt lat="46.71941" lon="-2.33458">
        <ele>5</ele>
        <time>2018-09-16T16:21:37.000Z</time>
      </trkpt>
      <trkpt lat="46.7194" lon="-2.3346">
        <ele>5</ele>
        <time>2018-09-16T16:21:38.000Z</time>
      </trkpt>
      <trkpt lat="46.7194" lon="-2.33461">
        <ele>5</ele>
        <time>2018-09-16T16:21:39.000Z</time>
      </trkpt>
      <trkpt lat="46.7194" lon="-2.33463">
        <ele>5</ele>
        <time>2018-09-16T16:21:40.000Z</time>
      </trkpt>
      <trkpt lat="46.7194" lon="-2.33464">
        <ele>5</ele>
        <time>2018-09-16T16:21:41.000Z</time>
      </trkpt>
      <trkpt lat="46.7194" lon="-2.33466">
        <ele>5</ele>
        <time>2018-09-16T16:21:42.000Z</time>
      </trkpt>
      <trkpt lat="46.7194" lon="-2.33468">
        <ele>5</ele>
        <time>2018-09-16T16:21:43.000Z</time>
      </trkpt>
      <trkpt lat="46.7194" lon="-2.33469">
        <ele>5</ele>
        <time>2018-09-16T16:21:44.000Z</time>
      </trkpt>
      <trkpt lat="46.71939" lon="-2.33471">
        <ele>5</ele>
        <time>2018-09-16T16:21:45.000Z</time>
      </trkpt>
      <trkpt lat="46.71939" lon="-2.33472">
        <ele>5</ele>
        <time>2018-09-16T16:21:46.000Z</time>
      </trkpt>
      <trkpt lat="46.71939" lon="-2.33474">
        <ele>5</ele>
        <time>2018-09-16T16:21:47.000Z</time>
      </trkpt>
      <trkpt lat="46.71939" lon="-2.33476">
        <ele>5</ele>
        <time>2018-09-16T16:21:48.000Z</time>
      </trkpt>
      <trkpt lat="46.71939" lon="-2.33477">
        <ele>5</ele>
        <time>2018-09-16T16:21:49.000Z</time>
      </trkpt>
      <trkpt lat="46.71938" lon="-2.33479">
        <ele>5</ele>
        <time>2018-09-16T16:21:50.000Z</time>
      </trkpt>
      <trkpt lat="46.71938" lon="-2.3348">
        <ele>5</ele>
        <time>2018-09-16T16:21:51.000Z</time>
      </trkpt>
      <trkpt lat="46.71938" lon="-2.33482">
        <ele>5</ele>
        <time>2018-09-16T16:21:52.000Z</time>
      </trkpt>
      <trkpt lat="46.71938" lon="-2.33484">
        <ele>5</ele>
        <time>2018-09-16T16:21:53.000Z</time>
      </trkpt>
      <trkpt lat="46.71937" lon="-2.33485">
        <ele>5</ele>
        <time>2018-09-16T16:21:54.000Z</time>
      </trkpt>
      <trkpt lat="46.71937" lon="-2.33487">
        <ele>5</ele>
        <time>2018-09-16T16:21:55.000Z</time>
      </trkpt>
      <trkpt lat="46.71937" lon="-2.33488">
        <ele>5</ele>
        <time>2018-09-16T16:21:56.000Z</time>
      </trkpt>
      <trkpt lat="46.71937" lon="-2.3349">
        <ele>5</ele>
        <time>2018-09-16T16:21:57.000Z</time>
      </trkpt>
      <trkpt lat="46.71936" lon="-2.33492">
        <ele>5</ele>
        <time>2018-09-16T16:21:58.000Z</time>
      </trkpt>
      <trkpt lat="46.71936" lon="-2.33493">
        <ele>5</ele>
        <time>2018-09-16T16:21:59.000Z</time>
      </trkpt>
      <trkpt lat="46.71936" lon="-2.33495">
        <ele>5</ele>
        <time>2018-09-16T16:22:00.000Z</time>
      </trkpt>
      <trkpt lat="46.71935" lon="-2.33496">
        <ele>5</ele>
        <time>2018-09-16T16:22:01.000Z</time>
      </trkpt>
      <trkpt lat="46.71935" lon="-2.33498">
        <ele>5</ele>
        <time>2018-09-16T16:22:02.000Z</time>
      </trkpt>
      <trkpt lat="46.71934" lon="-2.33499">
        <ele>5</ele>
        <time>2018-09-16T16:22:03.000Z</time>
      </trkpt>
      <trkpt lat="46.71934" lon="-2.33501">
        <ele>5.5</ele>
        <time>2018-09-16T16:22:04.000Z</time>
      </trkpt>
      <trkpt lat="46.71934" lon="-2.33503">
        <ele>5.5</ele>
        <time>2018-09-16T16:22:05.000Z</time>
      </trkpt>
      <trkpt lat="46.71933" lon="-2.33504">
        <ele>5.5</ele>
        <time>2018-09-16T16:22:06.000Z</time>
      </trkpt>
      <trkpt lat="46.71933" lon="-2.33506">
        <ele>5.5</ele>
        <time>2018-09-16T16:22:07.000Z</time>
      </trkpt>
      <trkpt lat="46.71933" lon="-2.33507">
        <ele>5.5</ele>
        <time>2018-09-16T16:22:08.000Z</time>
      </trkpt>
      <trkpt lat="46.71932" lon="-2.33509">
        <ele>5.5</ele>
        <time>2018-09-16T16:22:09.000Z</time>
      </trkpt>
      <trkpt lat="46.71932" lon="-2.3351">
        <ele>5.5</ele>
        <time>2018-09-16T16:22:10.000Z</time>
      </trkpt>
      <trkpt lat="46.71931" lon="-2.33512">
        <ele>5.5</ele>
        <time>2018-09-16T16:22:11.000Z</time>
      </trkpt>
      <trkpt lat="46.71931" lon="-2.33513">
        <ele>5.5</ele>
        <time>2018-09-16T16:22:12.000Z</time>
      </trkpt>
      <trkpt lat="46.71931" lon="-2.33515">
        <ele>5.5</ele>
        <time>2018-09-16T16:22:13.000Z</time>
      </trkpt>
      <trkpt lat="46.7193" lon="-2.33517">
        <ele>5.5</ele>
        <time>2018-09-16T16:22:14.000Z</time>
      </trkpt>
      <trkpt lat="46.7193" lon="-2.33518">
        <ele>5.5</ele>
        <time>2018-09-16T16:22:15.000Z</time>
      </trkpt>
      <trkpt lat="46.7193" lon="-2.3352">
        <ele>5.5</ele>
        <time>2018-09-16T16:22:16.000Z</time>
      </trkpt>
      <trkpt lat="46.7193" lon="-2.33521">
        <ele>5.5</ele>
        <time>2018-09-16T16:22:17.000Z</time>
      </trkpt>
      <trkpt lat="46.7193" lon="-2.33523">
        <ele>5.5</ele>
        <time>2018-09-16T16:22:18.000Z</time>
      </trkpt>
      <trkpt lat="46.71929" lon="-2.33524">
        <ele>5.5</ele>
        <time>2018-09-16T16:22:19.000Z</time>
      </trkpt>
      <trkpt lat="46.71929" lon="-2.33526">
        <ele>5.5</ele>
        <time>2018-09-16T16:22:20.000Z</time>
      </trkpt>
      <trkpt lat="46.71929" lon="-2.33527">
        <ele>5.5</ele>
        <time>2018-09-16T16:22:21.000Z</time>
      </trkpt>
      <trkpt lat="46.71929" lon="-2.33529">
        <ele>5.5</ele>
        <time>2018-09-16T16:22:22.000Z</time>
      </trkpt>
      <trkpt lat="46.71929" lon="-2.33531">
        <ele>5.5</ele>
        <time>2018-09-16T16:22:23.000Z</time>
      </trkpt>
      <trkpt lat="46.71929" lon="-2.33532">
        <ele>5.5</ele>
        <time>2018-09-16T16:22:24.000Z</time>
      </trkpt>
      <trkpt lat="46.71929" lon="-2.33534">
        <ele>5.5</ele>
        <time>2018-09-16T16:22:25.000Z</time>
      </trkpt>
      <trkpt lat="46.71929" lon="-2.33535">
        <ele>5.5</ele>
        <time>2018-09-16T16:22:26.000Z</time>
      </trkpt>
      <trkpt lat="46.71929" lon="-2.33537">
        <ele>5.5</ele>
        <time>2018-09-16T16:22:27.000Z</time>
      </trkpt>
      <trkpt lat="46.71929" lon="-2.33538">
        <ele>5.5</ele>
        <time>2018-09-16T16:22:28.000Z</time>
      </trkpt>
      <trkpt lat="46.71929" lon="-2.3354">
        <ele>5.5</ele>
        <time>2018-09-16T16:22:29.000Z</time>
      </trkpt>
      <trkpt lat="46.71928" lon="-2.33542">
        <ele>5.5</ele>
        <time>2018-09-16T16:22:30.000Z</time>
      </trkpt>
      <trkpt lat="46.71928" lon="-2.33543">
        <ele>5.5</ele>
        <time>2018-09-16T16:22:31.000Z</time>
      </trkpt>
      <trkpt lat="46.71928" lon="-2.33545">
        <ele>5.5</ele>
        <time>2018-09-16T16:22:32.000Z</time>
      </trkpt>
      <trkpt lat="46.71928" lon="-2.33546">
        <ele>5.5</ele>
        <time>2018-09-16T16:22:33.000Z</time>
      </trkpt>
      <trkpt lat="46.71928" lon="-2.33548">
        <ele>5.5</ele>
        <time>2018-09-16T16:22:34.000Z</time>
      </trkpt>
      <trkpt lat="46.71928" lon="-2.33549">
        <ele>5.5</ele>
        <time>2018-09-16T16:22:35.000Z</time>
      </trkpt>
      <trkpt lat="46.71928" lon="-2.33551">
        <ele>5.5</ele>
        <time>2018-09-16T16:22:36.000Z</time>
      </trkpt>
      <trkpt lat="46.71928" lon="-2.33552">
        <ele>5.5</ele>
        <time>2018-09-16T16:22:37.000Z</time>
      </trkpt>
      <trkpt lat="46.71928" lon="-2.33554">
        <ele>5.5</ele>
        <time>2018-09-16T16:22:38.000Z</time>
      </trkpt>
      <trkpt lat="46.71928" lon="-2.33555">
        <ele>5.5</ele>
        <time>2018-09-16T16:22:39.000Z</time>
      </trkpt>
      <trkpt lat="46.71927" lon="-2.33557">
        <ele>5.5</ele>
        <time>2018-09-16T16:22:40.000Z</time>
      </trkpt>
      <trkpt lat="46.71927" lon="-2.33559">
        <ele>5.5</ele>
        <time>2018-09-16T16:22:41.000Z</time>
      </trkpt>
      <trkpt lat="46.71927" lon="-2.3356">
        <ele>5.5</ele>
        <time>2018-09-16T16:22:42.000Z</time>
      </trkpt>
      <trkpt lat="46.71927" lon="-2.33562">
        <ele>5.5</ele>
        <time>2018-09-16T16:22:43.000Z</time>
      </trkpt>
      <trkpt lat="46.71927" lon="-2.33563">
        <ele>5.5</ele>
        <time>2018-09-16T16:22:44.000Z</time>
      </trkpt>
      <trkpt lat="46.71926" lon="-2.33565">
        <ele>5.5</ele>
        <time>2018-09-16T16:22:45.000Z</time>
      </trkpt>
      <trkpt lat="46.71926" lon="-2.33567">
        <ele>5.5</ele>
        <time>2018-09-16T16:22:46.000Z</time>
      </trkpt>
      <trkpt lat="46.71926" lon="-2.33568">
        <ele>5.5</ele>
        <time>2018-09-16T16:22:47.000Z</time>
      </trkpt>
      <trkpt lat="46.71926" lon="-2.3357">
        <ele>5.5</ele>
        <time>2018-09-16T16:22:48.000Z</time>
      </trkpt>
      <trkpt lat="46.71925" lon="-2.33572">
        <ele>5.5</ele>
        <time>2018-09-16T16:22:49.000Z</time>
      </trkpt>
      <trkpt lat="46.71925" lon="-2.33573">
        <ele>5.5</ele>
        <time>2018-09-16T16:22:50.000Z</time>
      </trkpt>
      <trkpt lat="46.71925" lon="-2.33575">
        <ele>5.5</ele>
        <time>2018-09-16T16:22:51.000Z</time>
      </trkpt>
      <trkpt lat="46.71925" lon="-2.33577">
        <ele>5.5</ele>
        <time>2018-09-16T16:22:52.000Z</time>
      </trkpt>
      <trkpt lat="46.71925" lon="-2.33579">
        <ele>5.5</ele>
        <time>2018-09-16T16:22:53.000Z</time>
      </trkpt>
      <trkpt lat="46.71925" lon="-2.3358">
        <ele>5.5</ele>
        <time>2018-09-16T16:22:54.000Z</time>
      </trkpt>
      <trkpt lat="46.71924" lon="-2.33582">
        <ele>5.5</ele>
        <time>2018-09-16T16:22:55.000Z</time>
      </trkpt>
      <trkpt lat="46.71925" lon="-2.33583">
        <ele>6.3</ele>
        <time>2018-09-16T16:22:56.000Z</time>
      </trkpt>
      <trkpt lat="46.71925" lon="-2.33585">
        <ele>6.3</ele>
        <time>2018-09-16T16:22:57.000Z</time>
      </trkpt>
      <trkpt lat="46.71925" lon="-2.33586">
        <ele>6.3</ele>
        <time>2018-09-16T16:22:58.000Z</time>
      </trkpt>
      <trkpt lat="46.71925" lon="-2.33588">
        <ele>6.3</ele>
        <time>2018-09-16T16:22:59.000Z</time>
      </trkpt>
      <trkpt lat="46.71925" lon="-2.33589">
        <ele>6.3</ele>
        <time>2018-09-16T16:23:00.000Z</time>
      </trkpt>
      <trkpt lat="46.71926" lon="-2.33591">
        <ele>6.3</ele>
        <time>2018-09-16T16:23:01.000Z</time>
      </trkpt>
      <trkpt lat="46.71926" lon="-2.33593">
        <ele>6.3</ele>
        <time>2018-09-16T16:23:02.000Z</time>
      </trkpt>
      <trkpt lat="46.71926" lon="-2.33594">
        <ele>6.3</ele>
        <time>2018-09-16T16:23:03.000Z</time>
      </trkpt>
      <trkpt lat="46.71926" lon="-2.33596">
        <ele>6.3</ele>
        <time>2018-09-16T16:23:04.000Z</time>
      </trkpt>
      <trkpt lat="46.71926" lon="-2.33598">
        <ele>6.3</ele>
        <time>2018-09-16T16:23:05.000Z</time>
      </trkpt>
      <trkpt lat="46.71926" lon="-2.336">
        <ele>6.3</ele>
        <time>2018-09-16T16:23:06.000Z</time>
      </trkpt>
      <trkpt lat="46.71926" lon="-2.33601">
        <ele>6.3</ele>
        <time>2018-09-16T16:23:07.000Z</time>
      </trkpt>
      <trkpt lat="46.71926" lon="-2.33603">
        <ele>6.3</ele>
        <time>2018-09-16T16:23:08.000Z</time>
      </trkpt>
      <trkpt lat="46.71925" lon="-2.33604">
        <ele>6.3</ele>
        <time>2018-09-16T16:23:09.000Z</time>
      </trkpt>
      <trkpt lat="46.71925" lon="-2.33606">
        <ele>6.3</ele>
        <time>2018-09-16T16:23:10.000Z</time>
      </trkpt>
      <trkpt lat="46.71925" lon="-2.33607">
        <ele>6.3</ele>
        <time>2018-09-16T16:23:11.000Z</time>
      </trkpt>
      <trkpt lat="46.71925" lon="-2.33608">
        <ele>6.3</ele>
        <time>2018-09-16T16:23:12.000Z</time>
      </trkpt>
      <trkpt lat="46.71926" lon="-2.3361">
        <ele>6.3</ele>
        <time>2018-09-16T16:23:13.000Z</time>
      </trkpt>
      <trkpt lat="46.71926" lon="-2.33611">
        <ele>6.3</ele>
        <time>2018-09-16T16:23:14.000Z</time>
      </trkpt>
      <trkpt lat="46.71926" lon="-2.33612">
        <ele>6.3</ele>
        <time>2018-09-16T16:23:15.000Z</time>
      </trkpt>
      <trkpt lat="46.71927" lon="-2.33613">
        <ele>6.3</ele>
        <time>2018-09-16T16:23:16.000Z</time>
      </trkpt>
      <trkpt lat="46.71927" lon="-2.33615">
        <ele>6.3</ele>
        <time>2018-09-16T16:23:17.000Z</time>
      </trkpt>
      <trkpt lat="46.71928" lon="-2.33616">
        <ele>6.3</ele>
        <time>2018-09-16T16:23:18.000Z</time>
      </trkpt>
      <trkpt lat="46.71928" lon="-2.33617">
        <ele>6.3</ele>
        <time>2018-09-16T16:23:19.000Z</time>
      </trkpt>
      <trkpt lat="46.71929" lon="-2.33618">
        <ele>6.3</ele>
        <time>2018-09-16T16:23:20.000Z</time>
      </trkpt>
      <trkpt lat="46.71929" lon="-2.33619">
        <ele>6.3</ele>
        <time>2018-09-16T16:23:21.000Z</time>
      </trkpt>
      <trkpt lat="46.7193" lon="-2.3362">
        <ele>6.3</ele>
        <time>2018-09-16T16:23:22.000Z</time>
      </trkpt>
      <trkpt lat="46.7193" lon="-2.3362">
        <ele>6.3</ele>
        <time>2018-09-16T16:23:23.000Z</time>
      </trkpt>
      <trkpt lat="46.7193" lon="-2.33622">
        <ele>6.3</ele>
        <time>2018-09-16T16:23:24.000Z</time>
      </trkpt>
      <trkpt lat="46.7193" lon="-2.33623">
        <ele>6.3</ele>
        <time>2018-09-16T16:23:25.000Z</time>
      </trkpt>
      <trkpt lat="46.71931" lon="-2.33624">
        <ele>6.3</ele>
        <time>2018-09-16T16:23:26.000Z</time>
      </trkpt>
      <trkpt lat="46.71931" lon="-2.33625">
        <ele>6.3</ele>
        <time>2018-09-16T16:23:27.000Z</time>
      </trkpt>
      <trkpt lat="46.71931" lon="-2.33626">
        <ele>6.3</ele>
        <time>2018-09-16T16:23:28.000Z</time>
      </trkpt>
      <trkpt lat="46.71931" lon="-2.33627">
        <ele>6.3</ele>
        <time>2018-09-16T16:23:29.000Z</time>
      </trkpt>
      <trkpt lat="46.71931" lon="-2.33629">
        <ele>6.3</ele>
        <time>2018-09-16T16:23:30.000Z</time>
      </trkpt>
      <trkpt lat="46.7193" lon="-2.3363">
        <ele>6.3</ele>
        <time>2018-09-16T16:23:31.000Z</time>
      </trkpt>
      <trkpt lat="46.7193" lon="-2.33631">
        <ele>6.3</ele>
        <time>2018-09-16T16:23:32.000Z</time>
      </trkpt>
      <trkpt lat="46.7193" lon="-2.33633">
        <ele>6.3</ele>
        <time>2018-09-16T16:23:33.000Z</time>
      </trkpt>
      <trkpt lat="46.7193" lon="-2.33634">
        <ele>6.3</ele>
        <time>2018-09-16T16:23:34.000Z</time>
      </trkpt>
      <trkpt lat="46.7193" lon="-2.33636">
        <ele>6.3</ele>
        <time>2018-09-16T16:23:35.000Z</time>
      </trkpt>
      <trkpt lat="46.7193" lon="-2.33637">
        <ele>6.3</ele>
        <time>2018-09-16T16:23:36.000Z</time>
      </trkpt>
      <trkpt lat="46.7193" lon="-2.33639">
        <ele>6.3</ele>
        <time>2018-09-16T16:23:37.000Z</time>
      </trkpt>
      <trkpt lat="46.7193" lon="-2.3364">
        <ele>6.3</ele>
        <time>2018-09-16T16:23:38.000Z</time>
      </trkpt>
      <trkpt lat="46.7193" lon="-2.33641">
        <ele>6.3</ele>
        <time>2018-09-16T16:23:39.000Z</time>
      </trkpt>
      <trkpt lat="46.71931" lon="-2.33642">
        <ele>6.3</ele>
        <time>2018-09-16T16:23:40.000Z</time>
      </trkpt>
      <trkpt lat="46.71932" lon="-2.33644">
        <ele>6.3</ele>
        <time>2018-09-16T16:23:41.000Z</time>
      </trkpt>
      <trkpt lat="46.71932" lon="-2.33645">
        <ele>6.3</ele>
        <time>2018-09-16T16:23:42.000Z</time>
      </trkpt>
      <trkpt lat="46.71933" lon="-2.33646">
        <ele>6.3</ele>
        <time>2018-09-16T16:23:43.000Z</time>
      </trkpt>
      <trkpt lat="46.71934" lon="-2.33647">
        <ele>6.3</ele>
        <time>2018-09-16T16:23:44.000Z</time>
      </trkpt>
      <trkpt lat="46.71935" lon="-2.33648">
        <ele>6.3</ele>
        <time>2018-09-16T16:23:45.000Z</time>
      </trkpt>
      <trkpt lat="46.71936" lon="-2.33649">
        <ele>6.3</ele>
        <time>2018-09-16T16:23:46.000Z</time>
      </trkpt>
      <trkpt lat="46.71936" lon="-2.3365">
        <ele>6.3</ele>
        <time>2018-09-16T16:23:47.000Z</time>
      </trkpt>
      <trkpt lat="46.71937" lon="-2.33651">
        <ele>6.3</ele>
        <time>2018-09-16T16:23:48.000Z</time>
      </trkpt>
      <trkpt lat="46.71938" lon="-2.33652">
        <ele>6.3</ele>
        <time>2018-09-16T16:23:49.000Z</time>
      </trkpt>
      <trkpt lat="46.71939" lon="-2.33653">
        <ele>6.3</ele>
        <time>2018-09-16T16:23:50.000Z</time>
      </trkpt>
      <trkpt lat="46.71939" lon="-2.33655">
        <ele>6.3</ele>
        <time>2018-09-16T16:23:51.000Z</time>
      </trkpt>
      <trkpt lat="46.7194" lon="-2.33656">
        <ele>6.3</ele>
        <time>2018-09-16T16:23:52.000Z</time>
      </trkpt>
      <trkpt lat="46.7194" lon="-2.33657">
        <ele>6.3</ele>
        <time>2018-09-16T16:23:53.000Z</time>
      </trkpt>
      <trkpt lat="46.71941" lon="-2.33658">
        <ele>6.3</ele>
        <time>2018-09-16T16:23:54.000Z</time>
      </trkpt>
      <trkpt lat="46.71941" lon="-2.3366">
        <ele>6.3</ele>
        <time>2018-09-16T16:23:55.000Z</time>
      </trkpt>
      <trkpt lat="46.71941" lon="-2.33661">
        <ele>6.3</ele>
        <time>2018-09-16T16:23:56.000Z</time>
      </trkpt>
      <trkpt lat="46.71941" lon="-2.33663">
        <ele>6.3</ele>
        <time>2018-09-16T16:23:57.000Z</time>
      </trkpt>
      <trkpt lat="46.71942" lon="-2.33664">
        <ele>6.3</ele>
        <time>2018-09-16T16:23:58.000Z</time>
      </trkpt>
      <trkpt lat="46.71942" lon="-2.33666">
        <ele>6.3</ele>
        <time>2018-09-16T16:23:59.000Z</time>
      </trkpt>
      <trkpt lat="46.71942" lon="-2.33667">
        <ele>6.4</ele>
        <time>2018-09-16T16:24:00.000Z</time>
      </trkpt>
      <trkpt lat="46.71942" lon="-2.33669">
        <ele>6.4</ele>
        <time>2018-09-16T16:24:01.000Z</time>
      </trkpt>
      <trkpt lat="46.71942" lon="-2.33671">
        <ele>6.4</ele>
        <time>2018-09-16T16:24:02.000Z</time>
      </trkpt>
      <trkpt lat="46.71942" lon="-2.33672">
        <ele>6.4</ele>
        <time>2018-09-16T16:24:03.000Z</time>
      </trkpt>
      <trkpt lat="46.71942" lon="-2.33674">
        <ele>6.4</ele>
        <time>2018-09-16T16:24:04.000Z</time>
      </trkpt>
      <trkpt lat="46.71943" lon="-2.33676">
        <ele>6.4</ele>
        <time>2018-09-16T16:24:05.000Z</time>
      </trkpt>
      <trkpt lat="46.71943" lon="-2.33678">
        <ele>6.4</ele>
        <time>2018-09-16T16:24:06.000Z</time>
      </trkpt>
      <trkpt lat="46.71944" lon="-2.33679">
        <ele>6.4</ele>
        <time>2018-09-16T16:24:07.000Z</time>
      </trkpt>
      <trkpt lat="46.71944" lon="-2.33681">
        <ele>6.4</ele>
        <time>2018-09-16T16:24:08.000Z</time>
      </trkpt>
      <trkpt lat="46.71944" lon="-2.33683">
        <ele>6.4</ele>
        <time>2018-09-16T16:24:09.000Z</time>
      </trkpt>
      <trkpt lat="46.71945" lon="-2.33684">
        <ele>6.4</ele>
        <time>2018-09-16T16:24:10.000Z</time>
      </trkpt>
      <trkpt lat="46.71945" lon="-2.33686">
        <ele>6.4</ele>
        <time>2018-09-16T16:24:11.000Z</time>
      </trkpt>
      <trkpt lat="46.71945" lon="-2.33687">
        <ele>6.4</ele>
        <time>2018-09-16T16:24:12.000Z</time>
      </trkpt>
      <trkpt lat="46.71945" lon="-2.33688">
        <ele>6.4</ele>
        <time>2018-09-16T16:24:13.000Z</time>
      </trkpt>
      <trkpt lat="46.71945" lon="-2.33689">
        <ele>6.4</ele>
        <time>2018-09-16T16:24:14.000Z</time>
      </trkpt>
      <trkpt lat="46.71945" lon="-2.3369">
        <ele>6.4</ele>
        <time>2018-09-16T16:24:15.000Z</time>
      </trkpt>
      <trkpt lat="46.71945" lon="-2.33691">
        <ele>6.4</ele>
        <time>2018-09-16T16:24:16.000Z</time>
      </trkpt>
      <trkpt lat="46.71945" lon="-2.33691">
        <ele>6.4</ele>
        <time>2018-09-16T16:24:17.000Z</time>
      </trkpt>
      <trkpt lat="46.71945" lon="-2.33691">
        <ele>6.4</ele>
        <time>2018-09-16T16:24:18.000Z</time>
      </trkpt>
      <trkpt lat="46.71945" lon="-2.33691">
        <ele>6.4</ele>
        <time>2018-09-16T16:24:19.000Z</time>
      </trkpt>
      <trkpt lat="46.71945" lon="-2.33692">
        <ele>6.4</ele>
        <time>2018-09-16T16:24:20.000Z</time>
      </trkpt>
      <trkpt lat="46.71945" lon="-2.33692">
        <ele>6.4</ele>
        <time>2018-09-16T16:24:21.000Z</time>
      </trkpt>
      <trkpt lat="46.71946" lon="-2.33692">
        <ele>6.4</ele>
        <time>2018-09-16T16:24:22.000Z</time>
      </trkpt>
      <trkpt lat="46.71946" lon="-2.33693">
        <ele>6.4</ele>
        <time>2018-09-16T16:24:23.000Z</time>
      </trkpt>
      <trkpt lat="46.71946" lon="-2.33694">
        <ele>6.4</ele>
        <time>2018-09-16T16:24:24.000Z</time>
      </trkpt>
      <trkpt lat="46.71946" lon="-2.33695">
        <ele>6.4</ele>
        <time>2018-09-16T16:24:25.000Z</time>
      </trkpt>
      <trkpt lat="46.71947" lon="-2.33697">
        <ele>6.4</ele>
        <time>2018-09-16T16:24:26.000Z</time>
      </trkpt>
      <trkpt lat="46.71947" lon="-2.33698">
        <ele>6.4</ele>
        <time>2018-09-16T16:24:27.000Z</time>
      </trkpt>
      <trkpt lat="46.71947" lon="-2.337">
        <ele>6.4</ele>
        <time>2018-09-16T16:24:28.000Z</time>
      </trkpt>
      <trkpt lat="46.71947" lon="-2.33701">
        <ele>6.4</ele>
        <time>2018-09-16T16:24:29.000Z</time>
      </trkpt>
      <trkpt lat="46.71947" lon="-2.33703">
        <ele>6.4</ele>
        <time>2018-09-16T16:24:30.000Z</time>
      </trkpt>
      <trkpt lat="46.71947" lon="-2.33705">
        <ele>6.4</ele>
        <time>2018-09-16T16:24:31.000Z</time>
      </trkpt>
      <trkpt lat="46.71947" lon="-2.33706">
        <ele>6.4</ele>
        <time>2018-09-16T16:24:32.000Z</time>
      </trkpt>
      <trkpt lat="46.71947" lon="-2.33708">
        <ele>6.4</ele>
        <time>2018-09-16T16:24:33.000Z</time>
      </trkpt>
      <trkpt lat="46.71946" lon="-2.3371">
        <ele>6.4</ele>
        <time>2018-09-16T16:24:34.000Z</time>
      </trkpt>
      <trkpt lat="46.71946" lon="-2.33711">
        <ele>6.4</ele>
        <time>2018-09-16T16:24:35.000Z</time>
      </trkpt>
      <trkpt lat="46.71946" lon="-2.33713">
        <ele>6.4</ele>
        <time>2018-09-16T16:24:36.000Z</time>
      </trkpt>
      <trkpt lat="46.71946" lon="-2.33715">
        <ele>6.4</ele>
        <time>2018-09-16T16:24:37.000Z</time>
      </trkpt>
      <trkpt lat="46.71945" lon="-2.33716">
        <ele>6.4</ele>
        <time>2018-09-16T16:24:38.000Z</time>
      </trkpt>
      <trkpt lat="46.71945" lon="-2.33718">
        <ele>6.4</ele>
        <time>2018-09-16T16:24:39.000Z</time>
      </trkpt>
      <trkpt lat="46.71945" lon="-2.3372">
        <ele>6.4</ele>
        <time>2018-09-16T16:24:40.000Z</time>
      </trkpt>
      <trkpt lat="46.71945" lon="-2.33722">
        <ele>6.4</ele>
        <time>2018-09-16T16:24:41.000Z</time>
      </trkpt>
      <trkpt lat="46.71945" lon="-2.33723">
        <ele>6.4</ele>
        <time>2018-09-16T16:24:42.000Z</time>
      </trkpt>
      <trkpt lat="46.71945" lon="-2.33725">
        <ele>6.4</ele>
        <time>2018-09-16T16:24:43.000Z</time>
      </trkpt>
      <trkpt lat="46.71945" lon="-2.33727">
        <ele>6.4</ele>
        <time>2018-09-16T16:24:44.000Z</time>
      </trkpt>
      <trkpt lat="46.71945" lon="-2.33729">
        <ele>6.4</ele>
        <time>2018-09-16T16:24:45.000Z</time>
      </trkpt>
      <trkpt lat="46.71945" lon="-2.3373">
        <ele>6.4</ele>
        <time>2018-09-16T16:24:46.000Z</time>
      </trkpt>
      <trkpt lat="46.71945" lon="-2.33731">
        <ele>6.4</ele>
        <time>2018-09-16T16:24:47.000Z</time>
      </trkpt>
      <trkpt lat="46.71946" lon="-2.33731">
        <ele>6.4</ele>
        <time>2018-09-16T16:24:48.000Z</time>
      </trkpt>
      <trkpt lat="46.71946" lon="-2.33731">
        <ele>6.4</ele>
        <time>2018-09-16T16:24:49.000Z</time>
      </trkpt>
      <trkpt lat="46.71946" lon="-2.33731">
        <ele>6.4</ele>
        <time>2018-09-16T16:24:50.000Z</time>
      </trkpt>
      <trkpt lat="46.71946" lon="-2.33732">
        <ele>6.4</ele>
        <time>2018-09-16T16:24:51.000Z</time>
      </trkpt>
      <trkpt lat="46.71945" lon="-2.33733">
        <ele>6.4</ele>
        <time>2018-09-16T16:24:52.000Z</time>
      </trkpt>
      <trkpt lat="46.71945" lon="-2.33734">
        <ele>6.4</ele>
        <time>2018-09-16T16:24:53.000Z</time>
      </trkpt>
      <trkpt lat="46.71944" lon="-2.33736">
        <ele>6.4</ele>
        <time>2018-09-16T16:24:54.000Z</time>
      </trkpt>
      <trkpt lat="46.71944" lon="-2.33737">
        <ele>6.4</ele>
        <time>2018-09-16T16:24:55.000Z</time>
      </trkpt>
      <trkpt lat="46.71943" lon="-2.33739">
        <ele>6.4</ele>
        <time>2018-09-16T16:24:56.000Z</time>
      </trkpt>
      <trkpt lat="46.71942" lon="-2.3374">
        <ele>6.4</ele>
        <time>2018-09-16T16:24:57.000Z</time>
      </trkpt>
      <trkpt lat="46.71941" lon="-2.3374">
        <ele>6.4</ele>
        <time>2018-09-16T16:24:58.000Z</time>
      </trkpt>
      <trkpt lat="46.7194" lon="-2.3374">
        <ele>6.4</ele>
        <time>2018-09-16T16:24:59.000Z</time>
      </trkpt>
      <trkpt lat="46.71939" lon="-2.3374">
        <ele>6.4</ele>
        <time>2018-09-16T16:25:00.000Z</time>
      </trkpt>
      <trkpt lat="46.71938" lon="-2.33741">
        <ele>6.4</ele>
        <time>2018-09-16T16:25:01.000Z</time>
      </trkpt>
      <trkpt lat="46.71937" lon="-2.33741">
        <ele>6.4</ele>
        <time>2018-09-16T16:25:02.000Z</time>
      </trkpt>
      <trkpt lat="46.71937" lon="-2.33742">
        <ele>6.4</ele>
        <time>2018-09-16T16:25:03.000Z</time>
      </trkpt>
      <trkpt lat="46.71936" lon="-2.33742">
        <ele>6.4</ele>
        <time>2018-09-16T16:25:04.000Z</time>
      </trkpt>
      <trkpt lat="46.71936" lon="-2.33743">
        <ele>6.4</ele>
        <time>2018-09-16T16:25:05.000Z</time>
      </trkpt>
      <trkpt lat="46.71936" lon="-2.33744">
        <ele>6.4</ele>
        <time>2018-09-16T16:25:06.000Z</time>
      </trkpt>
      <trkpt lat="46.71936" lon="-2.33745">
        <ele>6.4</ele>
        <time>2018-09-16T16:25:07.000Z</time>
      </trkpt>
      <trkpt lat="46.71936" lon="-2.33747">
        <ele>6.4</ele>
        <time>2018-09-16T16:25:08.000Z</time>
      </trkpt>
      <trkpt lat="46.71936" lon="-2.33748">
        <ele>6.4</ele>
        <time>2018-09-16T16:25:09.000Z</time>
      </trkpt>
      <trkpt lat="46.71936" lon="-2.3375">
        <ele>6.4</ele>
        <time>2018-09-16T16:25:10.000Z</time>
      </trkpt>
      <trkpt lat="46.71936" lon="-2.33751">
        <ele>5</ele>
        <time>2018-09-16T16:25:11.000Z</time>
      </trkpt>
      <trkpt lat="46.71937" lon="-2.33753">
        <ele>5</ele>
        <time>2018-09-16T16:25:12.000Z</time>
      </trkpt>
      <trkpt lat="46.71937" lon="-2.33755">
        <ele>5</ele>
        <time>2018-09-16T16:25:13.000Z</time>
      </trkpt>
      <trkpt lat="46.71937" lon="-2.33756">
        <ele>5</ele>
        <time>2018-09-16T16:25:14.000Z</time>
      </trkpt>
      <trkpt lat="46.71938" lon="-2.33758">
        <ele>5</ele>
        <time>2018-09-16T16:25:15.000Z</time>
      </trkpt>
      <trkpt lat="46.71938" lon="-2.3376">
        <ele>5</ele>
        <time>2018-09-16T16:25:16.000Z</time>
      </trkpt>
      <trkpt lat="46.71938" lon="-2.33762">
        <ele>5</ele>
        <time>2018-09-16T16:25:17.000Z</time>
      </trkpt>
      <trkpt lat="46.71939" lon="-2.33764">
        <ele>5</ele>
        <time>2018-09-16T16:25:18.000Z</time>
      </trkpt>
      <trkpt lat="46.71939" lon="-2.33766">
        <ele>5</ele>
        <time>2018-09-16T16:25:19.000Z</time>
      </trkpt>
      <trkpt lat="46.7194" lon="-2.33768">
        <ele>5</ele>
        <time>2018-09-16T16:25:20.000Z</time>
      </trkpt>
      <trkpt lat="46.7194" lon="-2.3377">
        <ele>5</ele>
        <time>2018-09-16T16:25:21.000Z</time>
      </trkpt>
      <trkpt lat="46.7194" lon="-2.33771">
        <ele>5</ele>
        <time>2018-09-16T16:25:22.000Z</time>
      </trkpt>
      <trkpt lat="46.71941" lon="-2.33773">
        <ele>5</ele>
        <time>2018-09-16T16:25:23.000Z</time>
      </trkpt>
      <trkpt lat="46.71941" lon="-2.33775">
        <ele>5</ele>
        <time>2018-09-16T16:25:24.000Z</time>
      </trkpt>
      <trkpt lat="46.71941" lon="-2.33776">
        <ele>5</ele>
        <time>2018-09-16T16:25:25.000Z</time>
      </trkpt>
      <trkpt lat="46.71942" lon="-2.33778">
        <ele>5</ele>
        <time>2018-09-16T16:25:26.000Z</time>
      </trkpt>
      <trkpt lat="46.71942" lon="-2.3378">
        <ele>5</ele>
        <time>2018-09-16T16:25:27.000Z</time>
      </trkpt>
      <trkpt lat="46.71943" lon="-2.33781">
        <ele>5</ele>
        <time>2018-09-16T16:25:28.000Z</time>
      </trkpt>
      <trkpt lat="46.71943" lon="-2.33783">
        <ele>5</ele>
        <time>2018-09-16T16:25:29.000Z</time>
      </trkpt>
      <trkpt lat="46.71943" lon="-2.33784">
        <ele>5</ele>
        <time>2018-09-16T16:25:30.000Z</time>
      </trkpt>
      <trkpt lat="46.71944" lon="-2.33786">
        <ele>5</ele>
        <time>2018-09-16T16:25:31.000Z</time>
      </trkpt>
      <trkpt lat="46.71944" lon="-2.33787">
        <ele>5</ele>
        <time>2018-09-16T16:25:32.000Z</time>
      </trkpt>
      <trkpt lat="46.71944" lon="-2.33789">
        <ele>5</ele>
        <time>2018-09-16T16:25:33.000Z</time>
      </trkpt>
      <trkpt lat="46.71945" lon="-2.3379">
        <ele>5</ele>
        <time>2018-09-16T16:25:34.000Z</time>
      </trkpt>
      <trkpt lat="46.71945" lon="-2.33792">
        <ele>5</ele>
        <time>2018-09-16T16:25:35.000Z</time>
      </trkpt>
      <trkpt lat="46.71945" lon="-2.33793">
        <ele>5</ele>
        <time>2018-09-16T16:25:36.000Z</time>
      </trkpt>
      <trkpt lat="46.71946" lon="-2.33795">
        <ele>5</ele>
        <time>2018-09-16T16:25:37.000Z</time>
      </trkpt>
      <trkpt lat="46.71946" lon="-2.33796">
        <ele>5</ele>
        <time>2018-09-16T16:25:38.000Z</time>
      </trkpt>
      <trkpt lat="46.71946" lon="-2.33798">
        <ele>5</ele>
        <time>2018-09-16T16:25:39.000Z</time>
      </trkpt>
      <trkpt lat="46.71947" lon="-2.33799">
        <ele>5</ele>
        <time>2018-09-16T16:25:40.000Z</time>
      </trkpt>
      <trkpt lat="46.71947" lon="-2.33801">
        <ele>5</ele>
        <time>2018-09-16T16:25:41.000Z</time>
      </trkpt>
      <trkpt lat="46.71947" lon="-2.33802">
        <ele>5</ele>
        <time>2018-09-16T16:25:42.000Z</time>
      </trkpt>
      <trkpt lat="46.71947" lon="-2.33804">
        <ele>5</ele>
        <time>2018-09-16T16:25:43.000Z</time>
      </trkpt>
      <trkpt lat="46.71947" lon="-2.33806">
        <ele>5</ele>
        <time>2018-09-16T16:25:44.000Z</time>
      </trkpt>
      <trkpt lat="46.71947" lon="-2.33807">
        <ele>5</ele>
        <time>2018-09-16T16:25:45.000Z</time>
      </trkpt>
      <trkpt lat="46.71948" lon="-2.33809">
        <ele>5</ele>
        <time>2018-09-16T16:25:46.000Z</time>
      </trkpt>
      <trkpt lat="46.71948" lon="-2.33811">
        <ele>5</ele>
        <time>2018-09-16T16:25:47.000Z</time>
      </trkpt>
      <trkpt lat="46.71948" lon="-2.33812">
        <ele>5</ele>
        <time>2018-09-16T16:25:48.000Z</time>
      </trkpt>
      <trkpt lat="46.71948" lon="-2.33814">
        <ele>5</ele>
        <time>2018-09-16T16:25:49.000Z</time>
      </trkpt>
      <trkpt lat="46.71948" lon="-2.33816">
        <ele>5</ele>
        <time>2018-09-16T16:25:50.000Z</time>
      </trkpt>
      <trkpt lat="46.71948" lon="-2.33817">
        <ele>5</ele>
        <time>2018-09-16T16:25:51.000Z</time>
      </trkpt>
      <trkpt lat="46.71949" lon="-2.33819">
        <ele>5</ele>
        <time>2018-09-16T16:25:52.000Z</time>
      </trkpt>
      <trkpt lat="46.71949" lon="-2.33821">
        <ele>5</ele>
        <time>2018-09-16T16:25:53.000Z</time>
      </trkpt>
      <trkpt lat="46.71949" lon="-2.33822">
        <ele>5</ele>
        <time>2018-09-16T16:25:54.000Z</time>
      </trkpt>
      <trkpt lat="46.71949" lon="-2.33824">
        <ele>5</ele>
        <time>2018-09-16T16:25:55.000Z</time>
      </trkpt>
      <trkpt lat="46.7195" lon="-2.33826">
        <ele>5</ele>
        <time>2018-09-16T16:25:56.000Z</time>
      </trkpt>
      <trkpt lat="46.7195" lon="-2.33828">
        <ele>5</ele>
        <time>2018-09-16T16:25:57.000Z</time>
      </trkpt>
      <trkpt lat="46.7195" lon="-2.33829">
        <ele>5</ele>
        <time>2018-09-16T16:25:58.000Z</time>
      </trkpt>
      <trkpt lat="46.71951" lon="-2.33831">
        <ele>5</ele>
        <time>2018-09-16T16:25:59.000Z</time>
      </trkpt>
      <trkpt lat="46.71951" lon="-2.33832">
        <ele>5</ele>
        <time>2018-09-16T16:26:00.000Z</time>
      </trkpt>
      <trkpt lat="46.71951" lon="-2.33834">
        <ele>5</ele>
        <time>2018-09-16T16:26:01.000Z</time>
      </trkpt>
      <trkpt lat="46.71952" lon="-2.33836">
        <ele>5</ele>
        <time>2018-09-16T16:26:02.000Z</time>
      </trkpt>
      <trkpt lat="46.71952" lon="-2.33837">
        <ele>5</ele>
        <time>2018-09-16T16:26:03.000Z</time>
      </trkpt>
      <trkpt lat="46.71952" lon="-2.33839">
        <ele>5</ele>
        <time>2018-09-16T16:26:04.000Z</time>
      </trkpt>
      <trkpt lat="46.71953" lon="-2.3384">
        <ele>5</ele>
        <time>2018-09-16T16:26:05.000Z</time>
      </trkpt>
      <trkpt lat="46.71953" lon="-2.33842">
        <ele>5</ele>
        <time>2018-09-16T16:26:06.000Z</time>
      </trkpt>
      <trkpt lat="46.71953" lon="-2.33843">
        <ele>5</ele>
        <time>2018-09-16T16:26:07.000Z</time>
      </trkpt>
      <trkpt lat="46.71954" lon="-2.33845">
        <ele>5</ele>
        <time>2018-09-16T16:26:08.000Z</time>
      </trkpt>
      <trkpt lat="46.71954" lon="-2.33846">
        <ele>5</ele>
        <time>2018-09-16T16:26:09.000Z</time>
      </trkpt>
      <trkpt lat="46.71955" lon="-2.33847">
        <ele>5</ele>
        <time>2018-09-16T16:26:10.000Z</time>
      </trkpt>
      <trkpt lat="46.71955" lon="-2.33849">
        <ele>5</ele>
        <time>2018-09-16T16:26:11.000Z</time>
      </trkpt>
      <trkpt lat="46.71955" lon="-2.3385">
        <ele>5</ele>
        <time>2018-09-16T16:26:12.000Z</time>
      </trkpt>
      <trkpt lat="46.71956" lon="-2.33851">
        <ele>5</ele>
        <time>2018-09-16T16:26:13.000Z</time>
      </trkpt>
      <trkpt lat="46.71956" lon="-2.33853">
        <ele>5</ele>
        <time>2018-09-16T16:26:14.000Z</time>
      </trkpt>
      <trkpt lat="46.71956" lon="-2.33854">
        <ele>5</ele>
        <time>2018-09-16T16:26:15.000Z</time>
      </trkpt>
      <trkpt lat="46.71957" lon="-2.33855">
        <ele>5</ele>
        <time>2018-09-16T16:26:16.000Z</time>
      </trkpt>
      <trkpt lat="46.71957" lon="-2.33857">
        <ele>5</ele>
        <time>2018-09-16T16:26:17.000Z</time>
      </trkpt>
      <trkpt lat="46.71958" lon="-2.33858">
        <ele>5</ele>
        <time>2018-09-16T16:26:18.000Z</time>
      </trkpt>
      <trkpt lat="46.71958" lon="-2.33859">
        <ele>5</ele>
        <time>2018-09-16T16:26:19.000Z</time>
      </trkpt>
      <trkpt lat="46.71958" lon="-2.33861">
        <ele>5</ele>
        <time>2018-09-16T16:26:20.000Z</time>
      </trkpt>
      <trkpt lat="46.71959" lon="-2.33862">
        <ele>5</ele>
        <time>2018-09-16T16:26:21.000Z</time>
      </trkpt>
      <trkpt lat="46.71959" lon="-2.33864">
        <ele>5</ele>
        <time>2018-09-16T16:26:22.000Z</time>
      </trkpt>
      <trkpt lat="46.71959" lon="-2.33865">
        <ele>5</ele>
        <time>2018-09-16T16:26:23.000Z</time>
      </trkpt>
      <trkpt lat="46.7196" lon="-2.33867">
        <ele>5</ele>
        <time>2018-09-16T16:26:24.000Z</time>
      </trkpt>
      <trkpt lat="46.7196" lon="-2.33869">
        <ele>5</ele>
        <time>2018-09-16T16:26:25.000Z</time>
      </trkpt>
      <trkpt lat="46.7196" lon="-2.33871">
        <ele>5</ele>
        <time>2018-09-16T16:26:26.000Z</time>
      </trkpt>
      <trkpt lat="46.71961" lon="-2.33873">
        <ele>5</ele>
        <time>2018-09-16T16:26:27.000Z</time>
      </trkpt>
      <trkpt lat="46.71961" lon="-2.33874">
        <ele>5</ele>
        <time>2018-09-16T16:26:28.000Z</time>
      </trkpt>
      <trkpt lat="46.71961" lon="-2.33876">
        <ele>5</ele>
        <time>2018-09-16T16:26:29.000Z</time>
      </trkpt>
      <trkpt lat="46.71962" lon="-2.33878">
        <ele>5</ele>
        <time>2018-09-16T16:26:30.000Z</time>
      </trkpt>
      <trkpt lat="46.71962" lon="-2.3388">
        <ele>5</ele>
        <time>2018-09-16T16:26:31.000Z</time>
      </trkpt>
      <trkpt lat="46.71962" lon="-2.33882">
        <ele>5</ele>
        <time>2018-09-16T16:26:32.000Z</time>
      </trkpt>
      <trkpt lat="46.71963" lon="-2.33883">
        <ele>5</ele>
        <time>2018-09-16T16:26:33.000Z</time>
      </trkpt>
      <trkpt lat="46.71963" lon="-2.33884">
        <ele>5</ele>
        <time>2018-09-16T16:26:34.000Z</time>
      </trkpt>
      <trkpt lat="46.71964" lon="-2.33885">
        <ele>5</ele>
        <time>2018-09-16T16:26:35.000Z</time>
      </trkpt>
      <trkpt lat="46.71965" lon="-2.33886">
        <ele>5</ele>
        <time>2018-09-16T16:26:36.000Z</time>
      </trkpt>
      <trkpt lat="46.71966" lon="-2.33886">
        <ele>5</ele>
        <time>2018-09-16T16:26:37.000Z</time>
      </trkpt>
      <trkpt lat="46.71966" lon="-2.33887">
        <ele>5</ele>
        <time>2018-09-16T16:26:38.000Z</time>
      </trkpt>
      <trkpt lat="46.71967" lon="-2.33887">
        <ele>5</ele>
        <time>2018-09-16T16:26:39.000Z</time>
      </trkpt>
      <trkpt lat="46.71968" lon="-2.33888">
        <ele>5</ele>
        <time>2018-09-16T16:26:40.000Z</time>
      </trkpt>
      <trkpt lat="46.71969" lon="-2.33889">
        <ele>5</ele>
        <time>2018-09-16T16:26:41.000Z</time>
      </trkpt>
      <trkpt lat="46.7197" lon="-2.3389">
        <ele>5</ele>
        <time>2018-09-16T16:26:42.000Z</time>
      </trkpt>
      <trkpt lat="46.7197" lon="-2.33891">
        <ele>5</ele>
        <time>2018-09-16T16:26:43.000Z</time>
      </trkpt>
      <trkpt lat="46.71971" lon="-2.33892">
        <ele>5</ele>
        <time>2018-09-16T16:26:44.000Z</time>
      </trkpt>
      <trkpt lat="46.71972" lon="-2.33893">
        <ele>5</ele>
        <time>2018-09-16T16:26:45.000Z</time>
      </trkpt>
      <trkpt lat="46.71972" lon="-2.33894">
        <ele>5</ele>
        <time>2018-09-16T16:26:46.000Z</time>
      </trkpt>
      <trkpt lat="46.71973" lon="-2.33896">
        <ele>5</ele>
        <time>2018-09-16T16:26:47.000Z</time>
      </trkpt>
      <trkpt lat="46.71973" lon="-2.33897">
        <ele>5</ele>
        <time>2018-09-16T16:26:48.000Z</time>
      </trkpt>
      <trkpt lat="46.71974" lon="-2.33899">
        <ele>5</ele>
        <time>2018-09-16T16:26:49.000Z</time>
      </trkpt>
      <trkpt lat="46.71974" lon="-2.33901">
        <ele>5</ele>
        <time>2018-09-16T16:26:50.000Z</time>
      </trkpt>
      <trkpt lat="46.71975" lon="-2.33902">
        <ele>5</ele>
        <time>2018-09-16T16:26:51.000Z</time>
      </trkpt>
      <trkpt lat="46.71975" lon="-2.33904">
        <ele>5</ele>
        <time>2018-09-16T16:26:52.000Z</time>
      </trkpt>
      <trkpt lat="46.71976" lon="-2.33906">
        <ele>5</ele>
        <time>2018-09-16T16:26:53.000Z</time>
      </trkpt>
      <trkpt lat="46.71976" lon="-2.33908">
        <ele>5</ele>
        <time>2018-09-16T16:26:54.000Z</time>
      </trkpt>
      <trkpt lat="46.71976" lon="-2.33909">
        <ele>5</ele>
        <time>2018-09-16T16:26:55.000Z</time>
      </trkpt>
      <trkpt lat="46.71977" lon="-2.33911">
        <ele>5</ele>
        <time>2018-09-16T16:26:56.000Z</time>
      </trkpt>
      <trkpt lat="46.71977" lon="-2.33913">
        <ele>5</ele>
        <time>2018-09-16T16:26:57.000Z</time>
      </trkpt>
      <trkpt lat="46.71978" lon="-2.33914">
        <ele>5</ele>
        <time>2018-09-16T16:26:58.000Z</time>
      </trkpt>
      <trkpt lat="46.71978" lon="-2.33916">
        <ele>5</ele>
        <time>2018-09-16T16:26:59.000Z</time>
      </trkpt>
      <trkpt lat="46.71978" lon="-2.33917">
        <ele>5</ele>
        <time>2018-09-16T16:27:00.000Z</time>
      </trkpt>
      <trkpt lat="46.71979" lon="-2.33919">
        <ele>5</ele>
        <time>2018-09-16T16:27:01.000Z</time>
      </trkpt>
      <trkpt lat="46.71979" lon="-2.3392">
        <ele>5</ele>
        <time>2018-09-16T16:27:02.000Z</time>
      </trkpt>
      <trkpt lat="46.7198" lon="-2.33921">
        <ele>5</ele>
        <time>2018-09-16T16:27:03.000Z</time>
      </trkpt>
      <trkpt lat="46.7198" lon="-2.33923">
        <ele>5</ele>
        <time>2018-09-16T16:27:04.000Z</time>
      </trkpt>
      <trkpt lat="46.7198" lon="-2.33924">
        <ele>5</ele>
        <time>2018-09-16T16:27:05.000Z</time>
      </trkpt>
      <trkpt lat="46.71981" lon="-2.33926">
        <ele>5</ele>
        <time>2018-09-16T16:27:06.000Z</time>
      </trkpt>
      <trkpt lat="46.71981" lon="-2.33927">
        <ele>5</ele>
        <time>2018-09-16T16:27:07.000Z</time>
      </trkpt>
      <trkpt lat="46.71981" lon="-2.33929">
        <ele>5</ele>
        <time>2018-09-16T16:27:08.000Z</time>
      </trkpt>
      <trkpt lat="46.71982" lon="-2.33931">
        <ele>5</ele>
        <time>2018-09-16T16:27:09.000Z</time>
      </trkpt>
      <trkpt lat="46.71982" lon="-2.33932">
        <ele>5</ele>
        <time>2018-09-16T16:27:10.000Z</time>
      </trkpt>
      <trkpt lat="46.71983" lon="-2.33934">
        <ele>5</ele>
        <time>2018-09-16T16:27:11.000Z</time>
      </trkpt>
      <trkpt lat="46.71983" lon="-2.33936">
        <ele>5</ele>
        <time>2018-09-16T16:27:12.000Z</time>
      </trkpt>
      <trkpt lat="46.71983" lon="-2.33937">
        <ele>5</ele>
        <time>2018-09-16T16:27:13.000Z</time>
      </trkpt>
      <trkpt lat="46.71984" lon="-2.33939">
        <ele>5</ele>
        <time>2018-09-16T16:27:14.000Z</time>
      </trkpt>
      <trkpt lat="46.71984" lon="-2.33941">
        <ele>5</ele>
        <time>2018-09-16T16:27:15.000Z</time>
      </trkpt>
      <trkpt lat="46.71984" lon="-2.33942">
        <ele>5</ele>
        <time>2018-09-16T16:27:16.000Z</time>
      </trkpt>
      <trkpt lat="46.71985" lon="-2.33944">
        <ele>5</ele>
        <time>2018-09-16T16:27:17.000Z</time>
      </trkpt>
      <trkpt lat="46.71985" lon="-2.33946">
        <ele>5</ele>
        <time>2018-09-16T16:27:18.000Z</time>
      </trkpt>
      <trkpt lat="46.71985" lon="-2.33947">
        <ele>5</ele>
        <time>2018-09-16T16:27:19.000Z</time>
      </trkpt>
      <trkpt lat="46.71986" lon="-2.33949">
        <ele>5</ele>
        <time>2018-09-16T16:27:20.000Z</time>
      </trkpt>
      <trkpt lat="46.71986" lon="-2.3395">
        <ele>5</ele>
        <time>2018-09-16T16:27:21.000Z</time>
      </trkpt>
      <trkpt lat="46.71987" lon="-2.33952">
        <ele>5</ele>
        <time>2018-09-16T16:27:22.000Z</time>
      </trkpt>
      <trkpt lat="46.71987" lon="-2.33953">
        <ele>5</ele>
        <time>2018-09-16T16:27:23.000Z</time>
      </trkpt>
      <trkpt lat="46.71988" lon="-2.33955">
        <ele>5</ele>
        <time>2018-09-16T16:27:24.000Z</time>
      </trkpt>
      <trkpt lat="46.71988" lon="-2.33957">
        <ele>5</ele>
        <time>2018-09-16T16:27:25.000Z</time>
      </trkpt>
      <trkpt lat="46.71989" lon="-2.33958">
        <ele>5</ele>
        <time>2018-09-16T16:27:26.000Z</time>
      </trkpt>
      <trkpt lat="46.7199" lon="-2.3396">
        <ele>5</ele>
        <time>2018-09-16T16:27:27.000Z</time>
      </trkpt>
      <trkpt lat="46.71991" lon="-2.33962">
        <ele>5</ele>
        <time>2018-09-16T16:27:28.000Z</time>
      </trkpt>
      <trkpt lat="46.71992" lon="-2.33963">
        <ele>5</ele>
        <time>2018-09-16T16:27:29.000Z</time>
      </trkpt>
      <trkpt lat="46.71992" lon="-2.33964">
        <ele>5</ele>
        <time>2018-09-16T16:27:30.000Z</time>
      </trkpt>
      <trkpt lat="46.71993" lon="-2.33965">
        <ele>5</ele>
        <time>2018-09-16T16:27:31.000Z</time>
      </trkpt>
      <trkpt lat="46.71993" lon="-2.33965">
        <ele>5</ele>
        <time>2018-09-16T16:27:32.000Z</time>
      </trkpt>
      <trkpt lat="46.71993" lon="-2.33965">
        <ele>5</ele>
        <time>2018-09-16T16:27:33.000Z</time>
      </trkpt>
      <trkpt lat="46.71993" lon="-2.33965">
        <ele>5</ele>
        <time>2018-09-16T16:27:34.000Z</time>
      </trkpt>
      <trkpt lat="46.71993" lon="-2.33966">
        <ele>5</ele>
        <time>2018-09-16T16:27:35.000Z</time>
      </trkpt>
      <trkpt lat="46.71994" lon="-2.33967">
        <ele>5</ele>
        <time>2018-09-16T16:27:36.000Z</time>
      </trkpt>
      <trkpt lat="46.71994" lon="-2.33968">
        <ele>5</ele>
        <time>2018-09-16T16:27:37.000Z</time>
      </trkpt>
      <trkpt lat="46.71995" lon="-2.3397">
        <ele>5</ele>
        <time>2018-09-16T16:27:38.000Z</time>
      </trkpt>
      <trkpt lat="46.71996" lon="-2.33972">
        <ele>5</ele>
        <time>2018-09-16T16:27:39.000Z</time>
      </trkpt>
      <trkpt lat="46.71997" lon="-2.33973">
        <ele>5</ele>
        <time>2018-09-16T16:27:40.000Z</time>
      </trkpt>
      <trkpt lat="46.71999" lon="-2.33975">
        <ele>5</ele>
        <time>2018-09-16T16:27:41.000Z</time>
      </trkpt>
      <trkpt lat="46.72" lon="-2.33977">
        <ele>5</ele>
        <time>2018-09-16T16:27:42.000Z</time>
      </trkpt>
      <trkpt lat="46.72001" lon="-2.33978">
        <ele>5</ele>
        <time>2018-09-16T16:27:43.000Z</time>
      </trkpt>
      <trkpt lat="46.72001" lon="-2.3398">
        <ele>5</ele>
        <time>2018-09-16T16:27:44.000Z</time>
      </trkpt>
      <trkpt lat="46.72002" lon="-2.33981">
        <ele>5</ele>
        <time>2018-09-16T16:27:45.000Z</time>
      </trkpt>
      <trkpt lat="46.72003" lon="-2.33982">
        <ele>5</ele>
        <time>2018-09-16T16:27:46.000Z</time>
      </trkpt>
      <trkpt lat="46.72003" lon="-2.33984">
        <ele>5</ele>
        <time>2018-09-16T16:27:47.000Z</time>
      </trkpt>
      <trkpt lat="46.72004" lon="-2.33985">
        <ele>5</ele>
        <time>2018-09-16T16:27:48.000Z</time>
      </trkpt>
      <trkpt lat="46.72004" lon="-2.33986">
        <ele>5</ele>
        <time>2018-09-16T16:27:49.000Z</time>
      </trkpt>
      <trkpt lat="46.72004" lon="-2.33988">
        <ele>5</ele>
        <time>2018-09-16T16:27:50.000Z</time>
      </trkpt>
      <trkpt lat="46.72004" lon="-2.33989">
        <ele>5</ele>
        <time>2018-09-16T16:27:51.000Z</time>
      </trkpt>
      <trkpt lat="46.72005" lon="-2.33991">
        <ele>5</ele>
        <time>2018-09-16T16:27:52.000Z</time>
      </trkpt>
      <trkpt lat="46.72005" lon="-2.33993">
        <ele>5</ele>
        <time>2018-09-16T16:27:53.000Z</time>
      </trkpt>
      <trkpt lat="46.72006" lon="-2.33995">
        <ele>5</ele>
        <time>2018-09-16T16:27:54.000Z</time>
      </trkpt>
      <trkpt lat="46.72006" lon="-2.33997">
        <ele>5</ele>
        <time>2018-09-16T16:27:55.000Z</time>
      </trkpt>
      <trkpt lat="46.72006" lon="-2.33998">
        <ele>5</ele>
        <time>2018-09-16T16:27:56.000Z</time>
      </trkpt>
      <trkpt lat="46.72007" lon="-2.33999">
        <ele>5</ele>
        <time>2018-09-16T16:27:57.000Z</time>
      </trkpt>
      <trkpt lat="46.72007" lon="-2.33999">
        <ele>5</ele>
        <time>2018-09-16T16:27:58.000Z</time>
      </trkpt>
      <trkpt lat="46.72008" lon="-2.34">
        <ele>4.6</ele>
        <time>2018-09-16T16:27:59.000Z</time>
      </trkpt>
      <trkpt lat="46.72008" lon="-2.34002">
        <ele>4.6</ele>
        <time>2018-09-16T16:28:00.000Z</time>
      </trkpt>
      <trkpt lat="46.72008" lon="-2.34003">
        <ele>4.6</ele>
        <time>2018-09-16T16:28:01.000Z</time>
      </trkpt>
      <trkpt lat="46.72009" lon="-2.34005">
        <ele>4.6</ele>
        <time>2018-09-16T16:28:02.000Z</time>
      </trkpt>
      <trkpt lat="46.72009" lon="-2.34006">
        <ele>4.5</ele>
        <time>2018-09-16T16:28:03.000Z</time>
      </trkpt>
      <trkpt lat="46.72009" lon="-2.34007">
        <ele>4.5</ele>
        <time>2018-09-16T16:28:04.000Z</time>
      </trkpt>
      <trkpt lat="46.72009" lon="-2.34008">
        <ele>4.5</ele>
        <time>2018-09-16T16:28:05.000Z</time>
      </trkpt>
      <trkpt lat="46.72009" lon="-2.34008">
        <ele>4.5</ele>
        <time>2018-09-16T16:28:06.000Z</time>
      </trkpt>
      <trkpt lat="46.72009" lon="-2.34008">
        <ele>4.5</ele>
        <time>2018-09-16T16:28:07.000Z</time>
      </trkpt>
      <trkpt lat="46.72009" lon="-2.34009">
        <ele>4.5</ele>
        <time>2018-09-16T16:28:08.000Z</time>
      </trkpt>
      <trkpt lat="46.72009" lon="-2.34009">
        <ele>4.5</ele>
        <time>2018-09-16T16:28:09.000Z</time>
      </trkpt>
      <trkpt lat="46.7201" lon="-2.3401">
        <ele>4.5</ele>
        <time>2018-09-16T16:28:10.000Z</time>
      </trkpt>
      <trkpt lat="46.7201" lon="-2.34011">
        <ele>4.4</ele>
        <time>2018-09-16T16:28:11.000Z</time>
      </trkpt>
      <trkpt lat="46.72011" lon="-2.34013">
        <ele>4.4</ele>
        <time>2018-09-16T16:28:12.000Z</time>
      </trkpt>
      <trkpt lat="46.72011" lon="-2.34014">
        <ele>4.4</ele>
        <time>2018-09-16T16:28:13.000Z</time>
      </trkpt>
      <trkpt lat="46.72012" lon="-2.34016">
        <ele>4.3</ele>
        <time>2018-09-16T16:28:14.000Z</time>
      </trkpt>
      <trkpt lat="46.72013" lon="-2.34018">
        <ele>4.3</ele>
        <time>2018-09-16T16:28:15.000Z</time>
      </trkpt>
      <trkpt lat="46.72013" lon="-2.34019">
        <ele>4.2</ele>
        <time>2018-09-16T16:28:16.000Z</time>
      </trkpt>
      <trkpt lat="46.72014" lon="-2.34021">
        <ele>4.2</ele>
        <time>2018-09-16T16:28:17.000Z</time>
      </trkpt>
      <trkpt lat="46.72015" lon="-2.34022">
        <ele>4.2</ele>
        <time>2018-09-16T16:28:18.000Z</time>
      </trkpt>
      <trkpt lat="46.72016" lon="-2.34023">
        <ele>4.1</ele>
        <time>2018-09-16T16:28:19.000Z</time>
      </trkpt>
      <trkpt lat="46.72017" lon="-2.34025">
        <ele>4.1</ele>
        <time>2018-09-16T16:28:20.000Z</time>
      </trkpt>
      <trkpt lat="46.72017" lon="-2.34026">
        <ele>4</ele>
        <time>2018-09-16T16:28:21.000Z</time>
      </trkpt>
      <trkpt lat="46.72018" lon="-2.34027">
        <ele>4</ele>
        <time>2018-09-16T16:28:22.000Z</time>
      </trkpt>
      <trkpt lat="46.72019" lon="-2.34028">
        <ele>4</ele>
        <time>2018-09-16T16:28:23.000Z</time>
      </trkpt>
      <trkpt lat="46.7202" lon="-2.34029">
        <ele>3.9</ele>
        <time>2018-09-16T16:28:24.000Z</time>
      </trkpt>
      <trkpt lat="46.72021" lon="-2.3403">
        <ele>3.9</ele>
        <time>2018-09-16T16:28:25.000Z</time>
      </trkpt>
      <trkpt lat="46.72021" lon="-2.34031">
        <ele>3.9</ele>
        <time>2018-09-16T16:28:26.000Z</time>
      </trkpt>
      <trkpt lat="46.72022" lon="-2.34032">
        <ele>3.9</ele>
        <time>2018-09-16T16:28:27.000Z</time>
      </trkpt>
      <trkpt lat="46.72023" lon="-2.34033">
        <ele>3.8</ele>
        <time>2018-09-16T16:28:28.000Z</time>
      </trkpt>
      <trkpt lat="46.72023" lon="-2.34034">
        <ele>3.8</ele>
        <time>2018-09-16T16:28:29.000Z</time>
      </trkpt>
      <trkpt lat="46.72024" lon="-2.34036">
        <ele>3.8</ele>
        <time>2018-09-16T16:28:30.000Z</time>
      </trkpt>
      <trkpt lat="46.72025" lon="-2.34037">
        <ele>3.8</ele>
        <time>2018-09-16T16:28:31.000Z</time>
      </trkpt>
      <trkpt lat="46.72025" lon="-2.34039">
        <ele>3.7</ele>
        <time>2018-09-16T16:28:32.000Z</time>
      </trkpt>
      <trkpt lat="46.72026" lon="-2.3404">
        <ele>3.7</ele>
        <time>2018-09-16T16:28:33.000Z</time>
      </trkpt>
      <trkpt lat="46.72027" lon="-2.34042">
        <ele>3.7</ele>
        <time>2018-09-16T16:28:34.000Z</time>
      </trkpt>
      <trkpt lat="46.72027" lon="-2.34044">
        <ele>3.7</ele>
        <time>2018-09-16T16:28:35.000Z</time>
      </trkpt>
      <trkpt lat="46.72028" lon="-2.34045">
        <ele>3.7</ele>
        <time>2018-09-16T16:28:36.000Z</time>
      </trkpt>
      <trkpt lat="46.72029" lon="-2.34047">
        <ele>3.6</ele>
        <time>2018-09-16T16:28:37.000Z</time>
      </trkpt>
      <trkpt lat="46.72029" lon="-2.34048">
        <ele>3.6</ele>
        <time>2018-09-16T16:28:38.000Z</time>
      </trkpt>
      <trkpt lat="46.72029" lon="-2.34049">
        <ele>3.6</ele>
        <time>2018-09-16T16:28:39.000Z</time>
      </trkpt>
      <trkpt lat="46.7203" lon="-2.34049">
        <ele>3.6</ele>
        <time>2018-09-16T16:28:40.000Z</time>
      </trkpt>
      <trkpt lat="46.7203" lon="-2.34049">
        <ele>3.6</ele>
        <time>2018-09-16T16:28:41.000Z</time>
      </trkpt>
      <trkpt lat="46.7203" lon="-2.34049">
        <ele>3.6</ele>
        <time>2018-09-16T16:28:42.000Z</time>
      </trkpt>
      <trkpt lat="46.7203" lon="-2.34049">
        <ele>3.6</ele>
        <time>2018-09-16T16:28:43.000Z</time>
      </trkpt>
      <trkpt lat="46.7203" lon="-2.34049">
        <ele>3.6</ele>
        <time>2018-09-16T16:28:44.000Z</time>
      </trkpt>
      <trkpt lat="46.7203" lon="-2.34049">
        <ele>3.6</ele>
        <time>2018-09-16T16:28:45.000Z</time>
      </trkpt>
      <trkpt lat="46.7203" lon="-2.34049">
        <ele>3.6</ele>
        <time>2018-09-16T16:28:46.000Z</time>
      </trkpt>
      <trkpt lat="46.7203" lon="-2.34049">
        <ele>3.6</ele>
        <time>2018-09-16T16:28:47.000Z</time>
      </trkpt>
      <trkpt lat="46.7203" lon="-2.3405">
        <ele>3.6</ele>
        <time>2018-09-16T16:28:48.000Z</time>
      </trkpt>
      <trkpt lat="46.7203" lon="-2.3405">
        <ele>3.6</ele>
        <time>2018-09-16T16:28:49.000Z</time>
      </trkpt>
      <trkpt lat="46.72031" lon="-2.34051">
        <ele>3.6</ele>
        <time>2018-09-16T16:28:50.000Z</time>
      </trkpt>
      <trkpt lat="46.72031" lon="-2.34052">
        <ele>3.6</ele>
        <time>2018-09-16T16:28:51.000Z</time>
      </trkpt>
      <trkpt lat="46.72032" lon="-2.34054">
        <ele>3.6</ele>
        <time>2018-09-16T16:28:52.000Z</time>
      </trkpt>
      <trkpt lat="46.72033" lon="-2.34056">
        <ele>3.5</ele>
        <time>2018-09-16T16:28:53.000Z</time>
      </trkpt>
      <trkpt lat="46.72034" lon="-2.34058">
        <ele>3.5</ele>
        <time>2018-09-16T16:28:54.000Z</time>
      </trkpt>
      <trkpt lat="46.72035" lon="-2.34061">
        <ele>3.5</ele>
        <time>2018-09-16T16:28:55.000Z</time>
      </trkpt>
      <trkpt lat="46.72037" lon="-2.34064">
        <ele>3.5</ele>
        <time>2018-09-16T16:28:56.000Z</time>
      </trkpt>
      <trkpt lat="46.72038" lon="-2.34066">
        <ele>3.5</ele>
        <time>2018-09-16T16:28:57.000Z</time>
      </trkpt>
      <trkpt lat="46.7204" lon="-2.34068">
        <ele>3.4</ele>
        <time>2018-09-16T16:28:58.000Z</time>
      </trkpt>
      <trkpt lat="46.72041" lon="-2.34069">
        <ele>3.4</ele>
        <time>2018-09-16T16:28:59.000Z</time>
      </trkpt>
      <trkpt lat="46.72042" lon="-2.3407">
        <ele>3.4</ele>
        <time>2018-09-16T16:29:00.000Z</time>
      </trkpt>
      <trkpt lat="46.72043" lon="-2.3407">
        <ele>3.4</ele>
        <time>2018-09-16T16:29:01.000Z</time>
      </trkpt>
      <trkpt lat="46.72044" lon="-2.34071">
        <ele>3.4</ele>
        <time>2018-09-16T16:29:02.000Z</time>
      </trkpt>
      <trkpt lat="46.72045" lon="-2.34072">
        <ele>3.4</ele>
        <time>2018-09-16T16:29:03.000Z</time>
      </trkpt>
      <trkpt lat="46.72046" lon="-2.34072">
        <ele>3.4</ele>
        <time>2018-09-16T16:29:04.000Z</time>
      </trkpt>
      <trkpt lat="46.72047" lon="-2.34073">
        <ele>3.4</ele>
        <time>2018-09-16T16:29:05.000Z</time>
      </trkpt>
      <trkpt lat="46.72048" lon="-2.34074">
        <ele>3.3</ele>
        <time>2018-09-16T16:29:06.000Z</time>
      </trkpt>
      <trkpt lat="46.72049" lon="-2.34075">
        <ele>3.3</ele>
        <time>2018-09-16T16:29:07.000Z</time>
      </trkpt>
      <trkpt lat="46.72049" lon="-2.34075">
        <ele>3.3</ele>
        <time>2018-09-16T16:29:08.000Z</time>
      </trkpt>
      <trkpt lat="46.7205" lon="-2.34076">
        <ele>3.3</ele>
        <time>2018-09-16T16:29:09.000Z</time>
      </trkpt>
      <trkpt lat="46.72051" lon="-2.34077">
        <ele>3.3</ele>
        <time>2018-09-16T16:29:10.000Z</time>
      </trkpt>
      <trkpt lat="46.72052" lon="-2.34078">
        <ele>3.3</ele>
        <time>2018-09-16T16:29:11.000Z</time>
      </trkpt>
      <trkpt lat="46.72053" lon="-2.34078">
        <ele>3.3</ele>
        <time>2018-09-16T16:29:12.000Z</time>
      </trkpt>
      <trkpt lat="46.72053" lon="-2.34079">
        <ele>3.3</ele>
        <time>2018-09-16T16:29:13.000Z</time>
      </trkpt>
      <trkpt lat="46.72054" lon="-2.3408">
        <ele>3.3</ele>
        <time>2018-09-16T16:29:14.000Z</time>
      </trkpt>
      <trkpt lat="46.72055" lon="-2.3408">
        <ele>3.3</ele>
        <time>2018-09-16T16:29:15.000Z</time>
      </trkpt>
      <trkpt lat="46.72055" lon="-2.34081">
        <ele>3.3</ele>
        <time>2018-09-16T16:29:16.000Z</time>
      </trkpt>
      <trkpt lat="46.72056" lon="-2.34081">
        <ele>3.3</ele>
        <time>2018-09-16T16:29:17.000Z</time>
      </trkpt>
      <trkpt lat="46.72056" lon="-2.34082">
        <ele>3.3</ele>
        <time>2018-09-16T16:29:18.000Z</time>
      </trkpt>
      <trkpt lat="46.72057" lon="-2.34082">
        <ele>3.3</ele>
        <time>2018-09-16T16:29:19.000Z</time>
      </trkpt>
      <trkpt lat="46.72058" lon="-2.34082">
        <ele>3.3</ele>
        <time>2018-09-16T16:29:20.000Z</time>
      </trkpt>
      <trkpt lat="46.72058" lon="-2.34083">
        <ele>3.3</ele>
        <time>2018-09-16T16:29:21.000Z</time>
      </trkpt>
      <trkpt lat="46.72059" lon="-2.34083">
        <ele>3.3</ele>
        <time>2018-09-16T16:29:22.000Z</time>
      </trkpt>
      <trkpt lat="46.7206" lon="-2.34084">
        <ele>3.3</ele>
        <time>2018-09-16T16:29:23.000Z</time>
      </trkpt>
      <trkpt lat="46.7206" lon="-2.34084">
        <ele>3.3</ele>
        <time>2018-09-16T16:29:24.000Z</time>
      </trkpt>
      <trkpt lat="46.72061" lon="-2.34084">
        <ele>3.3</ele>
        <time>2018-09-16T16:29:25.000Z</time>
      </trkpt>
      <trkpt lat="46.72061" lon="-2.34085">
        <ele>3.3</ele>
        <time>2018-09-16T16:29:26.000Z</time>
      </trkpt>
      <trkpt lat="46.72061" lon="-2.34085">
        <ele>3.3</ele>
        <time>2018-09-16T16:29:27.000Z</time>
      </trkpt>
      <trkpt lat="46.72061" lon="-2.34085">
        <ele>3.3</ele>
        <time>2018-09-16T16:29:28.000Z</time>
      </trkpt>
      <trkpt lat="46.72061" lon="-2.34085">
        <ele>3.3</ele>
        <time>2018-09-16T16:29:29.000Z</time>
      </trkpt>
      <trkpt lat="46.72061" lon="-2.34085">
        <ele>3.3</ele>
        <time>2018-09-16T16:29:30.000Z</time>
      </trkpt>
      <trkpt lat="46.72061" lon="-2.34085">
        <ele>3.3</ele>
        <time>2018-09-16T16:29:31.000Z</time>
      </trkpt>
      <trkpt lat="46.72061" lon="-2.34085">
        <ele>3.3</ele>
        <time>2018-09-16T16:29:32.000Z</time>
      </trkpt>
      <trkpt lat="46.72061" lon="-2.34085">
        <ele>3.3</ele>
        <time>2018-09-16T16:29:33.000Z</time>
      </trkpt>
      <trkpt lat="46.72062" lon="-2.34085">
        <ele>3.3</ele>
        <time>2018-09-16T16:29:34.000Z</time>
      </trkpt>
      <trkpt lat="46.72062" lon="-2.34084">
        <ele>3.3</ele>
        <time>2018-09-16T16:29:35.000Z</time>
      </trkpt>
      <trkpt lat="46.72063" lon="-2.34084">
        <ele>3.3</ele>
        <time>2018-09-16T16:29:36.000Z</time>
      </trkpt>
      <trkpt lat="46.72063" lon="-2.34084">
        <ele>3.3</ele>
        <time>2018-09-16T16:29:37.000Z</time>
      </trkpt>
      <trkpt lat="46.72064" lon="-2.34083">
        <ele>3.2</ele>
        <time>2018-09-16T16:29:38.000Z</time>
      </trkpt>
      <trkpt lat="46.72065" lon="-2.34083">
        <ele>3.2</ele>
        <time>2018-09-16T16:29:39.000Z</time>
      </trkpt>
      <trkpt lat="46.72065" lon="-2.34083">
        <ele>3.2</ele>
        <time>2018-09-16T16:29:40.000Z</time>
      </trkpt>
      <trkpt lat="46.72066" lon="-2.34082">
        <ele>3.2</ele>
        <time>2018-09-16T16:29:41.000Z</time>
      </trkpt>
      <trkpt lat="46.72067" lon="-2.34082">
        <ele>3.2</ele>
        <time>2018-09-16T16:29:42.000Z</time>
      </trkpt>
      <trkpt lat="46.72068" lon="-2.34081">
        <ele>3.2</ele>
        <time>2018-09-16T16:29:43.000Z</time>
      </trkpt>
      <trkpt lat="46.72069" lon="-2.34081">
        <ele>3.1</ele>
        <time>2018-09-16T16:29:44.000Z</time>
      </trkpt>
      <trkpt lat="46.72069" lon="-2.34081">
        <ele>3.1</ele>
        <time>2018-09-16T16:29:45.000Z</time>
      </trkpt>
      <trkpt lat="46.7207" lon="-2.3408">
        <ele>3.1</ele>
        <time>2018-09-16T16:29:46.000Z</time>
      </trkpt>
      <trkpt lat="46.72071" lon="-2.3408">
        <ele>3.1</ele>
        <time>2018-09-16T16:29:47.000Z</time>
      </trkpt>
      <trkpt lat="46.72072" lon="-2.3408">
        <ele>3.1</ele>
        <time>2018-09-16T16:29:48.000Z</time>
      </trkpt>
      <trkpt lat="46.72072" lon="-2.34079">
        <ele>3.1</ele>
        <time>2018-09-16T16:29:49.000Z</time>
      </trkpt>
      <trkpt lat="46.72073" lon="-2.34079">
        <ele>3</ele>
        <time>2018-09-16T16:29:50.000Z</time>
      </trkpt>
      <trkpt lat="46.72074" lon="-2.34079">
        <ele>3</ele>
        <time>2018-09-16T16:29:51.000Z</time>
      </trkpt>
      <trkpt lat="46.72074" lon="-2.34079">
        <ele>3</ele>
        <time>2018-09-16T16:29:52.000Z</time>
      </trkpt>
      <trkpt lat="46.72075" lon="-2.34079">
        <ele>3</ele>
        <time>2018-09-16T16:29:53.000Z</time>
      </trkpt>
      <trkpt lat="46.72076" lon="-2.34079">
        <ele>3</ele>
        <time>2018-09-16T16:29:54.000Z</time>
      </trkpt>
      <trkpt lat="46.72076" lon="-2.34079">
        <ele>3</ele>
        <time>2018-09-16T16:29:55.000Z</time>
      </trkpt>
      <trkpt lat="46.72077" lon="-2.34078">
        <ele>3</ele>
        <time>2018-09-16T16:29:56.000Z</time>
      </trkpt>
      <trkpt lat="46.72077" lon="-2.34078">
        <ele>3</ele>
        <time>2018-09-16T16:29:57.000Z</time>
      </trkpt>
      <trkpt lat="46.72078" lon="-2.34078">
        <ele>2.9</ele>
        <time>2018-09-16T16:29:58.000Z</time>
      </trkpt>
      <trkpt lat="46.72078" lon="-2.34077">
        <ele>2.9</ele>
        <time>2018-09-16T16:29:59.000Z</time>
      </trkpt>
      <trkpt lat="46.72079" lon="-2.34077">
        <ele>2.9</ele>
        <time>2018-09-16T16:30:00.000Z</time>
      </trkpt>
      <trkpt lat="46.7208" lon="-2.34077">
        <ele>2.9</ele>
        <time>2018-09-16T16:30:01.000Z</time>
      </trkpt>
      <trkpt lat="46.72081" lon="-2.34076">
        <ele>2.9</ele>
        <time>2018-09-16T16:30:02.000Z</time>
      </trkpt>
      <trkpt lat="46.72082" lon="-2.34076">
        <ele>2.8</ele>
        <time>2018-09-16T16:30:03.000Z</time>
      </trkpt>
      <trkpt lat="46.72083" lon="-2.34075">
        <ele>2.8</ele>
        <time>2018-09-16T16:30:04.000Z</time>
      </trkpt>
      <trkpt lat="46.72084" lon="-2.34075">
        <ele>3</ele>
        <time>2018-09-16T16:30:05.000Z</time>
      </trkpt>
      <trkpt lat="46.72085" lon="-2.34074">
        <ele>3</ele>
        <time>2018-09-16T16:30:06.000Z</time>
      </trkpt>
      <trkpt lat="46.72086" lon="-2.34074">
        <ele>3</ele>
        <time>2018-09-16T16:30:07.000Z</time>
      </trkpt>
      <trkpt lat="46.72087" lon="-2.34074">
        <ele>3</ele>
        <time>2018-09-16T16:30:08.000Z</time>
      </trkpt>
      <trkpt lat="46.72088" lon="-2.34073">
        <ele>3</ele>
        <time>2018-09-16T16:30:09.000Z</time>
      </trkpt>
      <trkpt lat="46.72089" lon="-2.34073">
        <ele>3</ele>
        <time>2018-09-16T16:30:10.000Z</time>
      </trkpt>
      <trkpt lat="46.7209" lon="-2.34073">
        <ele>3</ele>
        <time>2018-09-16T16:30:11.000Z</time>
      </trkpt>
      <trkpt lat="46.72091" lon="-2.34073">
        <ele>3</ele>
        <time>2018-09-16T16:30:12.000Z</time>
      </trkpt>
      <trkpt lat="46.72091" lon="-2.34073">
        <ele>3</ele>
        <time>2018-09-16T16:30:13.000Z</time>
      </trkpt>
      <trkpt lat="46.72092" lon="-2.34073">
        <ele>3</ele>
        <time>2018-09-16T16:30:14.000Z</time>
      </trkpt>
      <trkpt lat="46.72093" lon="-2.34073">
        <ele>3</ele>
        <time>2018-09-16T16:30:15.000Z</time>
      </trkpt>
      <trkpt lat="46.72094" lon="-2.34073">
        <ele>3</ele>
        <time>2018-09-16T16:30:16.000Z</time>
      </trkpt>
      <trkpt lat="46.72095" lon="-2.34073">
        <ele>3</ele>
        <time>2018-09-16T16:30:17.000Z</time>
      </trkpt>
      <trkpt lat="46.72096" lon="-2.34073">
        <ele>3</ele>
        <time>2018-09-16T16:30:18.000Z</time>
      </trkpt>
      <trkpt lat="46.72097" lon="-2.34074">
        <ele>3</ele>
        <time>2018-09-16T16:30:19.000Z</time>
      </trkpt>
      <trkpt lat="46.72098" lon="-2.34074">
        <ele>3</ele>
        <time>2018-09-16T16:30:20.000Z</time>
      </trkpt>
      <trkpt lat="46.72099" lon="-2.34075">
        <ele>3</ele>
        <time>2018-09-16T16:30:21.000Z</time>
      </trkpt>
      <trkpt lat="46.721" lon="-2.34075">
        <ele>3</ele>
        <time>2018-09-16T16:30:22.000Z</time>
      </trkpt>
      <trkpt lat="46.72101" lon="-2.34076">
        <ele>3</ele>
        <time>2018-09-16T16:30:23.000Z</time>
      </trkpt>
      <trkpt lat="46.72102" lon="-2.34076">
        <ele>3</ele>
        <time>2018-09-16T16:30:24.000Z</time>
      </trkpt>
      <trkpt lat="46.72103" lon="-2.34077">
        <ele>3</ele>
        <time>2018-09-16T16:30:25.000Z</time>
      </trkpt>
      <trkpt lat="46.72104" lon="-2.34078">
        <ele>3</ele>
        <time>2018-09-16T16:30:26.000Z</time>
      </trkpt>
      <trkpt lat="46.72105" lon="-2.34079">
        <ele>3</ele>
        <time>2018-09-16T16:30:27.000Z</time>
      </trkpt>
      <trkpt lat="46.72106" lon="-2.3408">
        <ele>3</ele>
        <time>2018-09-16T16:30:28.000Z</time>
      </trkpt>
      <trkpt lat="46.72107" lon="-2.3408">
        <ele>3</ele>
        <time>2018-09-16T16:30:29.000Z</time>
      </trkpt>
      <trkpt lat="46.72108" lon="-2.34081">
        <ele>3</ele>
        <time>2018-09-16T16:30:30.000Z</time>
      </trkpt>
      <trkpt lat="46.72109" lon="-2.34082">
        <ele>3</ele>
        <time>2018-09-16T16:30:31.000Z</time>
      </trkpt>
      <trkpt lat="46.7211" lon="-2.34083">
        <ele>3</ele>
        <time>2018-09-16T16:30:32.000Z</time>
      </trkpt>
      <trkpt lat="46.72111" lon="-2.34084">
        <ele>2.7</ele>
        <time>2018-09-16T16:30:33.000Z</time>
      </trkpt>
      <trkpt lat="46.72112" lon="-2.34085">
        <ele>2.7</ele>
        <time>2018-09-16T16:30:34.000Z</time>
      </trkpt>
      <trkpt lat="46.72113" lon="-2.34086">
        <ele>2.7</ele>
        <time>2018-09-16T16:30:35.000Z</time>
      </trkpt>
      <trkpt lat="46.72114" lon="-2.34086">
        <ele>2.7</ele>
        <time>2018-09-16T16:30:36.000Z</time>
      </trkpt>
      <trkpt lat="46.72115" lon="-2.34087">
        <ele>2.7</ele>
        <time>2018-09-16T16:30:37.000Z</time>
      </trkpt>
      <trkpt lat="46.72117" lon="-2.34088">
        <ele>2.7</ele>
        <time>2018-09-16T16:30:38.000Z</time>
      </trkpt>
      <trkpt lat="46.72118" lon="-2.34089">
        <ele>2.7</ele>
        <time>2018-09-16T16:30:39.000Z</time>
      </trkpt>
      <trkpt lat="46.72119" lon="-2.3409">
        <ele>2.8</ele>
        <time>2018-09-16T16:30:40.000Z</time>
      </trkpt>
      <trkpt lat="46.7212" lon="-2.3409">
        <ele>2.8</ele>
        <time>2018-09-16T16:30:41.000Z</time>
      </trkpt>
      <trkpt lat="46.72121" lon="-2.34091">
        <ele>2.8</ele>
        <time>2018-09-16T16:30:42.000Z</time>
      </trkpt>
      <trkpt lat="46.72122" lon="-2.34092">
        <ele>2.8</ele>
        <time>2018-09-16T16:30:43.000Z</time>
      </trkpt>
      <trkpt lat="46.72123" lon="-2.34092">
        <ele>2.8</ele>
        <time>2018-09-16T16:30:44.000Z</time>
      </trkpt>
      <trkpt lat="46.72124" lon="-2.34093">
        <ele>2.8</ele>
        <time>2018-09-16T16:30:45.000Z</time>
      </trkpt>
      <trkpt lat="46.72126" lon="-2.34093">
        <ele>2.8</ele>
        <time>2018-09-16T16:30:46.000Z</time>
      </trkpt>
      <trkpt lat="46.72127" lon="-2.34094">
        <ele>2.8</ele>
        <time>2018-09-16T16:30:47.000Z</time>
      </trkpt>
      <trkpt lat="46.72128" lon="-2.34094">
        <ele>2.8</ele>
        <time>2018-09-16T16:30:48.000Z</time>
      </trkpt>
      <trkpt lat="46.72129" lon="-2.34095">
        <ele>2.8</ele>
        <time>2018-09-16T16:30:49.000Z</time>
      </trkpt>
      <trkpt lat="46.7213" lon="-2.34095">
        <ele>2.8</ele>
        <time>2018-09-16T16:30:50.000Z</time>
      </trkpt>
      <trkpt lat="46.72131" lon="-2.34095">
        <ele>2.8</ele>
        <time>2018-09-16T16:30:51.000Z</time>
      </trkpt>
      <trkpt lat="46.72132" lon="-2.34096">
        <ele>2.8</ele>
        <time>2018-09-16T16:30:52.000Z</time>
      </trkpt>
      <trkpt lat="46.72133" lon="-2.34096">
        <ele>2.8</ele>
        <time>2018-09-16T16:30:53.000Z</time>
      </trkpt>
      <trkpt lat="46.72134" lon="-2.34096">
        <ele>2.8</ele>
        <time>2018-09-16T16:30:54.000Z</time>
      </trkpt>
      <trkpt lat="46.72135" lon="-2.34097">
        <ele>2.8</ele>
        <time>2018-09-16T16:30:55.000Z</time>
      </trkpt>
      <trkpt lat="46.72136" lon="-2.34097">
        <ele>2.8</ele>
        <time>2018-09-16T16:30:56.000Z</time>
      </trkpt>
      <trkpt lat="46.72137" lon="-2.34098">
        <ele>2.8</ele>
        <time>2018-09-16T16:30:57.000Z</time>
      </trkpt>
      <trkpt lat="46.72138" lon="-2.34098">
        <ele>2.8</ele>
        <time>2018-09-16T16:30:58.000Z</time>
      </trkpt>
      <trkpt lat="46.72139" lon="-2.34099">
        <ele>2.8</ele>
        <time>2018-09-16T16:30:59.000Z</time>
      </trkpt>
      <trkpt lat="46.7214" lon="-2.341">
        <ele>2.8</ele>
        <time>2018-09-16T16:31:00.000Z</time>
      </trkpt>
      <trkpt lat="46.72141" lon="-2.341">
        <ele>2.9</ele>
        <time>2018-09-16T16:31:01.000Z</time>
      </trkpt>
      <trkpt lat="46.72142" lon="-2.34101">
        <ele>2.9</ele>
        <time>2018-09-16T16:31:02.000Z</time>
      </trkpt>
      <trkpt lat="46.72142" lon="-2.34102">
        <ele>2.9</ele>
        <time>2018-09-16T16:31:03.000Z</time>
      </trkpt>
      <trkpt lat="46.72143" lon="-2.34102">
        <ele>2.9</ele>
        <time>2018-09-16T16:31:04.000Z</time>
      </trkpt>
      <trkpt lat="46.72144" lon="-2.34103">
        <ele>2.9</ele>
        <time>2018-09-16T16:31:05.000Z</time>
      </trkpt>
      <trkpt lat="46.72145" lon="-2.34103">
        <ele>2.9</ele>
        <time>2018-09-16T16:31:06.000Z</time>
      </trkpt>
      <trkpt lat="46.72146" lon="-2.34104">
        <ele>2.9</ele>
        <time>2018-09-16T16:31:07.000Z</time>
      </trkpt>
      <trkpt lat="46.72147" lon="-2.34104">
        <ele>2.9</ele>
        <time>2018-09-16T16:31:08.000Z</time>
      </trkpt>
      <trkpt lat="46.72148" lon="-2.34104">
        <ele>2.9</ele>
        <time>2018-09-16T16:31:09.000Z</time>
      </trkpt>
      <trkpt lat="46.72149" lon="-2.34104">
        <ele>2.9</ele>
        <time>2018-09-16T16:31:10.000Z</time>
      </trkpt>
      <trkpt lat="46.7215" lon="-2.34104">
        <ele>2.9</ele>
        <time>2018-09-16T16:31:11.000Z</time>
      </trkpt>
      <trkpt lat="46.7215" lon="-2.34105">
        <ele>2.9</ele>
        <time>2018-09-16T16:31:12.000Z</time>
      </trkpt>
      <trkpt lat="46.72151" lon="-2.34105">
        <ele>2.9</ele>
        <time>2018-09-16T16:31:13.000Z</time>
      </trkpt>
      <trkpt lat="46.72151" lon="-2.34106">
        <ele>2.9</ele>
        <time>2018-09-16T16:31:14.000Z</time>
      </trkpt>
      <trkpt lat="46.72152" lon="-2.34107">
        <ele>3</ele>
        <time>2018-09-16T16:31:15.000Z</time>
      </trkpt>
      <trkpt lat="46.72153" lon="-2.34107">
        <ele>3</ele>
        <time>2018-09-16T16:31:16.000Z</time>
      </trkpt>
      <trkpt lat="46.72154" lon="-2.34108">
        <ele>3</ele>
        <time>2018-09-16T16:31:17.000Z</time>
      </trkpt>
      <trkpt lat="46.72156" lon="-2.34109">
        <ele>3</ele>
        <time>2018-09-16T16:31:18.000Z</time>
      </trkpt>
      <trkpt lat="46.72157" lon="-2.3411">
        <ele>3.1</ele>
        <time>2018-09-16T16:31:19.000Z</time>
      </trkpt>
      <trkpt lat="46.72158" lon="-2.34111">
        <ele>3.1</ele>
        <time>2018-09-16T16:31:20.000Z</time>
      </trkpt>
      <trkpt lat="46.72159" lon="-2.34113">
        <ele>3.1</ele>
        <time>2018-09-16T16:31:21.000Z</time>
      </trkpt>
      <trkpt lat="46.7216" lon="-2.34114">
        <ele>3.1</ele>
        <time>2018-09-16T16:31:22.000Z</time>
      </trkpt>
      <trkpt lat="46.72161" lon="-2.34115">
        <ele>3.2</ele>
        <time>2018-09-16T16:31:23.000Z</time>
      </trkpt>
      <trkpt lat="46.72162" lon="-2.34116">
        <ele>3.2</ele>
        <time>2018-09-16T16:31:24.000Z</time>
      </trkpt>
      <trkpt lat="46.72163" lon="-2.34118">
        <ele>3.3</ele>
        <time>2018-09-16T16:31:25.000Z</time>
      </trkpt>
      <trkpt lat="46.72164" lon="-2.34119">
        <ele>3.3</ele>
        <time>2018-09-16T16:31:26.000Z</time>
      </trkpt>
      <trkpt lat="46.72165" lon="-2.3412">
        <ele>3.3</ele>
        <time>2018-09-16T16:31:27.000Z</time>
      </trkpt>
      <trkpt lat="46.72165" lon="-2.34121">
        <ele>3.4</ele>
        <time>2018-09-16T16:31:28.000Z</time>
      </trkpt>
      <trkpt lat="46.72166" lon="-2.34122">
        <ele>3.4</ele>
        <time>2018-09-16T16:31:29.000Z</time>
      </trkpt>
      <trkpt lat="46.72167" lon="-2.34124">
        <ele>2</ele>
        <time>2018-09-16T16:31:30.000Z</time>
      </trkpt>
      <trkpt lat="46.72168" lon="-2.34125">
        <ele>2</ele>
        <time>2018-09-16T16:31:31.000Z</time>
      </trkpt>
      <trkpt lat="46.72168" lon="-2.34126">
        <ele>5</ele>
        <time>2018-09-16T16:31:32.000Z</time>
      </trkpt>
      <trkpt lat="46.72169" lon="-2.34127">
        <ele>5</ele>
        <time>2018-09-16T16:31:33.000Z</time>
      </trkpt>
      <trkpt lat="46.72169" lon="-2.34129">
        <ele>5</ele>
        <time>2018-09-16T16:31:34.000Z</time>
      </trkpt>
      <trkpt lat="46.7217" lon="-2.3413">
        <ele>5</ele>
        <time>2018-09-16T16:31:35.000Z</time>
      </trkpt>
      <trkpt lat="46.7217" lon="-2.34131">
        <ele>5</ele>
        <time>2018-09-16T16:31:36.000Z</time>
      </trkpt>
      <trkpt lat="46.72171" lon="-2.34132">
        <ele>5</ele>
        <time>2018-09-16T16:31:37.000Z</time>
      </trkpt>
      <trkpt lat="46.72171" lon="-2.34134">
        <ele>5</ele>
        <time>2018-09-16T16:31:38.000Z</time>
      </trkpt>
      <trkpt lat="46.72172" lon="-2.34135">
        <ele>5</ele>
        <time>2018-09-16T16:31:39.000Z</time>
      </trkpt>
      <trkpt lat="46.72172" lon="-2.34137">
        <ele>5</ele>
        <time>2018-09-16T16:31:40.000Z</time>
      </trkpt>
      <trkpt lat="46.72173" lon="-2.34138">
        <ele>5</ele>
        <time>2018-09-16T16:31:41.000Z</time>
      </trkpt>
      <trkpt lat="46.72173" lon="-2.3414">
        <ele>5</ele>
        <time>2018-09-16T16:31:42.000Z</time>
      </trkpt>
      <trkpt lat="46.72174" lon="-2.34141">
        <ele>5</ele>
        <time>2018-09-16T16:31:43.000Z</time>
      </trkpt>
      <trkpt lat="46.72174" lon="-2.34142">
        <ele>5</ele>
        <time>2018-09-16T16:31:44.000Z</time>
      </trkpt>
      <trkpt lat="46.72175" lon="-2.34144">
        <ele>5</ele>
        <time>2018-09-16T16:31:45.000Z</time>
      </trkpt>
      <trkpt lat="46.72175" lon="-2.34145">
        <ele>5</ele>
        <time>2018-09-16T16:31:46.000Z</time>
      </trkpt>
      <trkpt lat="46.72176" lon="-2.34147">
        <ele>5</ele>
        <time>2018-09-16T16:31:47.000Z</time>
      </trkpt>
      <trkpt lat="46.72176" lon="-2.34148">
        <ele>5</ele>
        <time>2018-09-16T16:31:48.000Z</time>
      </trkpt>
      <trkpt lat="46.72177" lon="-2.34149">
        <ele>5</ele>
        <time>2018-09-16T16:31:49.000Z</time>
      </trkpt>
      <trkpt lat="46.72178" lon="-2.34151">
        <ele>5</ele>
        <time>2018-09-16T16:31:50.000Z</time>
      </trkpt>
      <trkpt lat="46.72179" lon="-2.34152">
        <ele>5</ele>
        <time>2018-09-16T16:31:51.000Z</time>
      </trkpt>
      <trkpt lat="46.72179" lon="-2.34153">
        <ele>5</ele>
        <time>2018-09-16T16:31:52.000Z</time>
      </trkpt>
      <trkpt lat="46.7218" lon="-2.34154">
        <ele>5</ele>
        <time>2018-09-16T16:31:53.000Z</time>
      </trkpt>
      <trkpt lat="46.72181" lon="-2.34156">
        <ele>5</ele>
        <time>2018-09-16T16:31:54.000Z</time>
      </trkpt>
      <trkpt lat="46.72182" lon="-2.34157">
        <ele>5</ele>
        <time>2018-09-16T16:31:55.000Z</time>
      </trkpt>
      <trkpt lat="46.72182" lon="-2.34158">
        <ele>5</ele>
        <time>2018-09-16T16:31:56.000Z</time>
      </trkpt>
      <trkpt lat="46.72183" lon="-2.34159">
        <ele>5</ele>
        <time>2018-09-16T16:31:57.000Z</time>
      </trkpt>
      <trkpt lat="46.72184" lon="-2.3416">
        <ele>5</ele>
        <time>2018-09-16T16:31:58.000Z</time>
      </trkpt>
      <trkpt lat="46.72185" lon="-2.34162">
        <ele>5</ele>
        <time>2018-09-16T16:31:59.000Z</time>
      </trkpt>
      <trkpt lat="46.72185" lon="-2.34163">
        <ele>5</ele>
        <time>2018-09-16T16:32:00.000Z</time>
      </trkpt>
      <trkpt lat="46.72186" lon="-2.34164">
        <ele>5</ele>
        <time>2018-09-16T16:32:01.000Z</time>
      </trkpt>
      <trkpt lat="46.72187" lon="-2.34165">
        <ele>5</ele>
        <time>2018-09-16T16:32:02.000Z</time>
      </trkpt>
      <trkpt lat="46.72188" lon="-2.34167">
        <ele>4</ele>
        <time>2018-09-16T16:32:03.000Z</time>
      </trkpt>
      <trkpt lat="46.72189" lon="-2.34168">
        <ele>4</ele>
        <time>2018-09-16T16:32:04.000Z</time>
      </trkpt>
      <trkpt lat="46.7219" lon="-2.3417">
        <ele>3.9</ele>
        <time>2018-09-16T16:32:05.000Z</time>
      </trkpt>
      <trkpt lat="46.72191" lon="-2.34171">
        <ele>3.9</ele>
        <time>2018-09-16T16:32:06.000Z</time>
      </trkpt>
      <trkpt lat="46.72192" lon="-2.34173">
        <ele>3.9</ele>
        <time>2018-09-16T16:32:07.000Z</time>
      </trkpt>
      <trkpt lat="46.72193" lon="-2.34175">
        <ele>3.9</ele>
        <time>2018-09-16T16:32:08.000Z</time>
      </trkpt>
      <trkpt lat="46.72193" lon="-2.34176">
        <ele>3.8</ele>
        <time>2018-09-16T16:32:09.000Z</time>
      </trkpt>
      <trkpt lat="46.72194" lon="-2.34178">
        <ele>3.8</ele>
        <time>2018-09-16T16:32:10.000Z</time>
      </trkpt>
      <trkpt lat="46.72194" lon="-2.34179">
        <ele>3.8</ele>
        <time>2018-09-16T16:32:11.000Z</time>
      </trkpt>
      <trkpt lat="46.72194" lon="-2.3418">
        <ele>3.8</ele>
        <time>2018-09-16T16:32:12.000Z</time>
      </trkpt>
      <trkpt lat="46.72194" lon="-2.34181">
        <ele>3.8</ele>
        <time>2018-09-16T16:32:13.000Z</time>
      </trkpt>
      <trkpt lat="46.72194" lon="-2.34182">
        <ele>3.9</ele>
        <time>2018-09-16T16:32:14.000Z</time>
      </trkpt>
      <trkpt lat="46.72194" lon="-2.34183">
        <ele>3.9</ele>
        <time>2018-09-16T16:32:15.000Z</time>
      </trkpt>
      <trkpt lat="46.72194" lon="-2.34185">
        <ele>3.9</ele>
        <time>2018-09-16T16:32:16.000Z</time>
      </trkpt>
      <trkpt lat="46.72194" lon="-2.34186">
        <ele>3.9</ele>
        <time>2018-09-16T16:32:17.000Z</time>
      </trkpt>
      <trkpt lat="46.72195" lon="-2.34188">
        <ele>3.9</ele>
        <time>2018-09-16T16:32:18.000Z</time>
      </trkpt>
      <trkpt lat="46.72195" lon="-2.34189">
        <ele>3.9</ele>
        <time>2018-09-16T16:32:19.000Z</time>
      </trkpt>
      <trkpt lat="46.72195" lon="-2.34191">
        <ele>3.9</ele>
        <time>2018-09-16T16:32:20.000Z</time>
      </trkpt>
      <trkpt lat="46.72196" lon="-2.34193">
        <ele>3.9</ele>
        <time>2018-09-16T16:32:21.000Z</time>
      </trkpt>
      <trkpt lat="46.72197" lon="-2.34194">
        <ele>3.9</ele>
        <time>2018-09-16T16:32:22.000Z</time>
      </trkpt>
      <trkpt lat="46.72197" lon="-2.34196">
        <ele>3.9</ele>
        <time>2018-09-16T16:32:23.000Z</time>
      </trkpt>
      <trkpt lat="46.72198" lon="-2.34198">
        <ele>3.9</ele>
        <time>2018-09-16T16:32:24.000Z</time>
      </trkpt>
      <trkpt lat="46.72199" lon="-2.34199">
        <ele>3.9</ele>
        <time>2018-09-16T16:32:25.000Z</time>
      </trkpt>
      <trkpt lat="46.722" lon="-2.342">
        <ele>3.9</ele>
        <time>2018-09-16T16:32:26.000Z</time>
      </trkpt>
      <trkpt lat="46.72201" lon="-2.34201">
        <ele>3.9</ele>
        <time>2018-09-16T16:32:27.000Z</time>
      </trkpt>
      <trkpt lat="46.72201" lon="-2.34202">
        <ele>3.9</ele>
        <time>2018-09-16T16:32:28.000Z</time>
      </trkpt>
      <trkpt lat="46.72202" lon="-2.34203">
        <ele>3.9</ele>
        <time>2018-09-16T16:32:29.000Z</time>
      </trkpt>
      <trkpt lat="46.72203" lon="-2.34204">
        <ele>3.9</ele>
        <time>2018-09-16T16:32:30.000Z</time>
      </trkpt>
      <trkpt lat="46.72203" lon="-2.34205">
        <ele>3.8</ele>
        <time>2018-09-16T16:32:31.000Z</time>
      </trkpt>
      <trkpt lat="46.72204" lon="-2.34206">
        <ele>3.9</ele>
        <time>2018-09-16T16:32:32.000Z</time>
      </trkpt>
      <trkpt lat="46.72204" lon="-2.34207">
        <ele>3.9</ele>
        <time>2018-09-16T16:32:33.000Z</time>
      </trkpt>
      <trkpt lat="46.72204" lon="-2.34208">
        <ele>3.9</ele>
        <time>2018-09-16T16:32:34.000Z</time>
      </trkpt>
      <trkpt lat="46.72204" lon="-2.34209">
        <ele>3.9</ele>
        <time>2018-09-16T16:32:35.000Z</time>
      </trkpt>
      <trkpt lat="46.72205" lon="-2.3421">
        <ele>3.9</ele>
        <time>2018-09-16T16:32:36.000Z</time>
      </trkpt>
      <trkpt lat="46.72205" lon="-2.34212">
        <ele>3.9</ele>
        <time>2018-09-16T16:32:37.000Z</time>
      </trkpt>
      <trkpt lat="46.72206" lon="-2.34214">
        <ele>3.9</ele>
        <time>2018-09-16T16:32:38.000Z</time>
      </trkpt>
      <trkpt lat="46.72207" lon="-2.34216">
        <ele>3.9</ele>
        <time>2018-09-16T16:32:39.000Z</time>
      </trkpt>
      <trkpt lat="46.72209" lon="-2.34218">
        <ele>3.9</ele>
        <time>2018-09-16T16:32:40.000Z</time>
      </trkpt>
      <trkpt lat="46.7221" lon="-2.3422">
        <ele>3.9</ele>
        <time>2018-09-16T16:32:41.000Z</time>
      </trkpt>
      <trkpt lat="46.72211" lon="-2.34221">
        <ele>3.9</ele>
        <time>2018-09-16T16:32:42.000Z</time>
      </trkpt>
      <trkpt lat="46.72212" lon="-2.34222">
        <ele>3.9</ele>
        <time>2018-09-16T16:32:43.000Z</time>
      </trkpt>
      <trkpt lat="46.72213" lon="-2.34223">
        <ele>3.9</ele>
        <time>2018-09-16T16:32:44.000Z</time>
      </trkpt>
      <trkpt lat="46.72213" lon="-2.34224">
        <ele>3.9</ele>
        <time>2018-09-16T16:32:45.000Z</time>
      </trkpt>
      <trkpt lat="46.72214" lon="-2.34225">
        <ele>3.9</ele>
        <time>2018-09-16T16:32:46.000Z</time>
      </trkpt>
      <trkpt lat="46.72216" lon="-2.34226">
        <ele>3.9</ele>
        <time>2018-09-16T16:32:47.000Z</time>
      </trkpt>
      <trkpt lat="46.72217" lon="-2.34227">
        <ele>3.9</ele>
        <time>2018-09-16T16:32:48.000Z</time>
      </trkpt>
      <trkpt lat="46.72218" lon="-2.34228">
        <ele>3.9</ele>
        <time>2018-09-16T16:32:49.000Z</time>
      </trkpt>
      <trkpt lat="46.72219" lon="-2.34229">
        <ele>3.9</ele>
        <time>2018-09-16T16:32:50.000Z</time>
      </trkpt>
      <trkpt lat="46.7222" lon="-2.3423">
        <ele>3.9</ele>
        <time>2018-09-16T16:32:51.000Z</time>
      </trkpt>
      <trkpt lat="46.72221" lon="-2.34231">
        <ele>3.9</ele>
        <time>2018-09-16T16:32:52.000Z</time>
      </trkpt>
      <trkpt lat="46.72222" lon="-2.34232">
        <ele>3.9</ele>
        <time>2018-09-16T16:32:53.000Z</time>
      </trkpt>
      <trkpt lat="46.72223" lon="-2.34232">
        <ele>3.9</ele>
        <time>2018-09-16T16:32:54.000Z</time>
      </trkpt>
      <trkpt lat="46.72224" lon="-2.34233">
        <ele>3.9</ele>
        <time>2018-09-16T16:32:55.000Z</time>
      </trkpt>
      <trkpt lat="46.72225" lon="-2.34234">
        <ele>3.9</ele>
        <time>2018-09-16T16:32:56.000Z</time>
      </trkpt>
      <trkpt lat="46.72226" lon="-2.34234">
        <ele>3.9</ele>
        <time>2018-09-16T16:32:57.000Z</time>
      </trkpt>
      <trkpt lat="46.72227" lon="-2.34235">
        <ele>3.9</ele>
        <time>2018-09-16T16:32:58.000Z</time>
      </trkpt>
      <trkpt lat="46.72228" lon="-2.34236">
        <ele>3.9</ele>
        <time>2018-09-16T16:32:59.000Z</time>
      </trkpt>
      <trkpt lat="46.72229" lon="-2.34236">
        <ele>3.9</ele>
        <time>2018-09-16T16:33:00.000Z</time>
      </trkpt>
      <trkpt lat="46.7223" lon="-2.34237">
        <ele>3.9</ele>
        <time>2018-09-16T16:33:01.000Z</time>
      </trkpt>
      <trkpt lat="46.72231" lon="-2.34237">
        <ele>3.9</ele>
        <time>2018-09-16T16:33:02.000Z</time>
      </trkpt>
      <trkpt lat="46.72232" lon="-2.34238">
        <ele>3.9</ele>
        <time>2018-09-16T16:33:03.000Z</time>
      </trkpt>
      <trkpt lat="46.72233" lon="-2.34238">
        <ele>3.9</ele>
        <time>2018-09-16T16:33:04.000Z</time>
      </trkpt>
      <trkpt lat="46.72234" lon="-2.34239">
        <ele>3.9</ele>
        <time>2018-09-16T16:33:05.000Z</time>
      </trkpt>
      <trkpt lat="46.72235" lon="-2.3424">
        <ele>3.9</ele>
        <time>2018-09-16T16:33:06.000Z</time>
      </trkpt>
      <trkpt lat="46.72237" lon="-2.3424">
        <ele>3.9</ele>
        <time>2018-09-16T16:33:07.000Z</time>
      </trkpt>
      <trkpt lat="46.72238" lon="-2.34241">
        <ele>3.9</ele>
        <time>2018-09-16T16:33:08.000Z</time>
      </trkpt>
      <trkpt lat="46.72239" lon="-2.34241">
        <ele>3.9</ele>
        <time>2018-09-16T16:33:09.000Z</time>
      </trkpt>
      <trkpt lat="46.7224" lon="-2.34241">
        <ele>3.8</ele>
        <time>2018-09-16T16:33:10.000Z</time>
      </trkpt>
      <trkpt lat="46.72241" lon="-2.34242">
        <ele>3.8</ele>
        <time>2018-09-16T16:33:11.000Z</time>
      </trkpt>
      <trkpt lat="46.72242" lon="-2.34242">
        <ele>3.8</ele>
        <time>2018-09-16T16:33:12.000Z</time>
      </trkpt>
      <trkpt lat="46.72242" lon="-2.34242">
        <ele>3.8</ele>
        <time>2018-09-16T16:33:13.000Z</time>
      </trkpt>
      <trkpt lat="46.72243" lon="-2.34242">
        <ele>3.8</ele>
        <time>2018-09-16T16:33:14.000Z</time>
      </trkpt>
      <trkpt lat="46.72243" lon="-2.34243">
        <ele>3.8</ele>
        <time>2018-09-16T16:33:15.000Z</time>
      </trkpt>
      <trkpt lat="46.72243" lon="-2.34243">
        <ele>3.8</ele>
        <time>2018-09-16T16:33:16.000Z</time>
      </trkpt>
      <trkpt lat="46.72243" lon="-2.34243">
        <ele>3.8</ele>
        <time>2018-09-16T16:33:17.000Z</time>
      </trkpt>
      <trkpt lat="46.72243" lon="-2.34243">
        <ele>3.8</ele>
        <time>2018-09-16T16:33:18.000Z</time>
      </trkpt>
      <trkpt lat="46.72243" lon="-2.34243">
        <ele>3.8</ele>
        <time>2018-09-16T16:33:19.000Z</time>
      </trkpt>
      <trkpt lat="46.72243" lon="-2.34243">
        <ele>3.8</ele>
        <time>2018-09-16T16:33:20.000Z</time>
      </trkpt>
      <trkpt lat="46.72244" lon="-2.34243">
        <ele>3.8</ele>
        <time>2018-09-16T16:33:21.000Z</time>
      </trkpt>
      <trkpt lat="46.72244" lon="-2.34243">
        <ele>3.8</ele>
        <time>2018-09-16T16:33:22.000Z</time>
      </trkpt>
      <trkpt lat="46.72246" lon="-2.34244">
        <ele>3.8</ele>
        <time>2018-09-16T16:33:23.000Z</time>
      </trkpt>
      <trkpt lat="46.72247" lon="-2.34245">
        <ele>3.9</ele>
        <time>2018-09-16T16:33:24.000Z</time>
      </trkpt>
      <trkpt lat="46.72248" lon="-2.34246">
        <ele>3.9</ele>
        <time>2018-09-16T16:33:25.000Z</time>
      </trkpt>
      <trkpt lat="46.7225" lon="-2.34246">
        <ele>3.9</ele>
        <time>2018-09-16T16:33:26.000Z</time>
      </trkpt>
      <trkpt lat="46.72251" lon="-2.34247">
        <ele>4</ele>
        <time>2018-09-16T16:33:27.000Z</time>
      </trkpt>
      <trkpt lat="46.72252" lon="-2.34247">
        <ele>4</ele>
        <time>2018-09-16T16:33:28.000Z</time>
      </trkpt>
      <trkpt lat="46.72252" lon="-2.34248">
        <ele>4</ele>
        <time>2018-09-16T16:33:29.000Z</time>
      </trkpt>
      <trkpt lat="46.72253" lon="-2.34248">
        <ele>4</ele>
        <time>2018-09-16T16:33:30.000Z</time>
      </trkpt>
      <trkpt lat="46.72255" lon="-2.34249">
        <ele>4</ele>
        <time>2018-09-16T16:33:31.000Z</time>
      </trkpt>
      <trkpt lat="46.72256" lon="-2.34249">
        <ele>4</ele>
        <time>2018-09-16T16:33:32.000Z</time>
      </trkpt>
      <trkpt lat="46.72257" lon="-2.34249">
        <ele>4</ele>
        <time>2018-09-16T16:33:33.000Z</time>
      </trkpt>
      <trkpt lat="46.72258" lon="-2.3425">
        <ele>4</ele>
        <time>2018-09-16T16:33:34.000Z</time>
      </trkpt>
      <trkpt lat="46.72259" lon="-2.3425">
        <ele>4</ele>
        <time>2018-09-16T16:33:35.000Z</time>
      </trkpt>
      <trkpt lat="46.7226" lon="-2.34251">
        <ele>4</ele>
        <time>2018-09-16T16:33:36.000Z</time>
      </trkpt>
      <trkpt lat="46.72261" lon="-2.34252">
        <ele>4</ele>
        <time>2018-09-16T16:33:37.000Z</time>
      </trkpt>
      <trkpt lat="46.72262" lon="-2.34252">
        <ele>4</ele>
        <time>2018-09-16T16:33:38.000Z</time>
      </trkpt>
      <trkpt lat="46.72263" lon="-2.34253">
        <ele>4</ele>
        <time>2018-09-16T16:33:39.000Z</time>
      </trkpt>
      <trkpt lat="46.72263" lon="-2.34254">
        <ele>4</ele>
        <time>2018-09-16T16:33:40.000Z</time>
      </trkpt>
      <trkpt lat="46.72264" lon="-2.34255">
        <ele>4</ele>
        <time>2018-09-16T16:33:41.000Z</time>
      </trkpt>
      <trkpt lat="46.72265" lon="-2.34256">
        <ele>4</ele>
        <time>2018-09-16T16:33:42.000Z</time>
      </trkpt>
      <trkpt lat="46.72266" lon="-2.34257">
        <ele>4</ele>
        <time>2018-09-16T16:33:43.000Z</time>
      </trkpt>
      <trkpt lat="46.72267" lon="-2.34257">
        <ele>4</ele>
        <time>2018-09-16T16:33:44.000Z</time>
      </trkpt>
      <trkpt lat="46.72268" lon="-2.34258">
        <ele>4</ele>
        <time>2018-09-16T16:33:45.000Z</time>
      </trkpt>
      <trkpt lat="46.72269" lon="-2.34259">
        <ele>4</ele>
        <time>2018-09-16T16:33:46.000Z</time>
      </trkpt>
      <trkpt lat="46.7227" lon="-2.3426">
        <ele>4</ele>
        <time>2018-09-16T16:33:47.000Z</time>
      </trkpt>
      <trkpt lat="46.72271" lon="-2.34261">
        <ele>4</ele>
        <time>2018-09-16T16:33:48.000Z</time>
      </trkpt>
      <trkpt lat="46.72272" lon="-2.34261">
        <ele>4</ele>
        <time>2018-09-16T16:33:49.000Z</time>
      </trkpt>
      <trkpt lat="46.72273" lon="-2.34262">
        <ele>4</ele>
        <time>2018-09-16T16:33:50.000Z</time>
      </trkpt>
      <trkpt lat="46.72274" lon="-2.34262">
        <ele>4</ele>
        <time>2018-09-16T16:33:51.000Z</time>
      </trkpt>
      <trkpt lat="46.72275" lon="-2.34263">
        <ele>4</ele>
        <time>2018-09-16T16:33:52.000Z</time>
      </trkpt>
      <trkpt lat="46.72276" lon="-2.34263">
        <ele>4</ele>
        <time>2018-09-16T16:33:53.000Z</time>
      </trkpt>
      <trkpt lat="46.72277" lon="-2.34264">
        <ele>4</ele>
        <time>2018-09-16T16:33:54.000Z</time>
      </trkpt>
      <trkpt lat="46.72278" lon="-2.34264">
        <ele>4</ele>
        <time>2018-09-16T16:33:55.000Z</time>
      </trkpt>
      <trkpt lat="46.7228" lon="-2.34265">
        <ele>4</ele>
        <time>2018-09-16T16:33:56.000Z</time>
      </trkpt>
      <trkpt lat="46.72281" lon="-2.34266">
        <ele>4</ele>
        <time>2018-09-16T16:33:57.000Z</time>
      </trkpt>
      <trkpt lat="46.72282" lon="-2.34267">
        <ele>4</ele>
        <time>2018-09-16T16:33:58.000Z</time>
      </trkpt>
      <trkpt lat="46.72283" lon="-2.34268">
        <ele>4</ele>
        <time>2018-09-16T16:33:59.000Z</time>
      </trkpt>
      <trkpt lat="46.72285" lon="-2.34269">
        <ele>4</ele>
        <time>2018-09-16T16:34:00.000Z</time>
      </trkpt>
      <trkpt lat="46.72286" lon="-2.34269">
        <ele>4</ele>
        <time>2018-09-16T16:34:01.000Z</time>
      </trkpt>
      <trkpt lat="46.72288" lon="-2.3427">
        <ele>4</ele>
        <time>2018-09-16T16:34:02.000Z</time>
      </trkpt>
      <trkpt lat="46.72289" lon="-2.34271">
        <ele>4</ele>
        <time>2018-09-16T16:34:03.000Z</time>
      </trkpt>
      <trkpt lat="46.7229" lon="-2.34271">
        <ele>4</ele>
        <time>2018-09-16T16:34:04.000Z</time>
      </trkpt>
      <trkpt lat="46.72291" lon="-2.34271">
        <ele>4</ele>
        <time>2018-09-16T16:34:05.000Z</time>
      </trkpt>
      <trkpt lat="46.72292" lon="-2.34272">
        <ele>4</ele>
        <time>2018-09-16T16:34:06.000Z</time>
      </trkpt>
      <trkpt lat="46.72293" lon="-2.34272">
        <ele>4</ele>
        <time>2018-09-16T16:34:07.000Z</time>
      </trkpt>
      <trkpt lat="46.72293" lon="-2.34272">
        <ele>4</ele>
        <time>2018-09-16T16:34:08.000Z</time>
      </trkpt>
      <trkpt lat="46.72294" lon="-2.34272">
        <ele>4</ele>
        <time>2018-09-16T16:34:09.000Z</time>
      </trkpt>
      <trkpt lat="46.72294" lon="-2.34272">
        <ele>4</ele>
        <time>2018-09-16T16:34:10.000Z</time>
      </trkpt>
      <trkpt lat="46.72295" lon="-2.34272">
        <ele>4</ele>
        <time>2018-09-16T16:34:11.000Z</time>
      </trkpt>
      <trkpt lat="46.72296" lon="-2.34273">
        <ele>4</ele>
        <time>2018-09-16T16:34:12.000Z</time>
      </trkpt>
      <trkpt lat="46.72297" lon="-2.34274">
        <ele>4</ele>
        <time>2018-09-16T16:34:13.000Z</time>
      </trkpt>
      <trkpt lat="46.72298" lon="-2.34274">
        <ele>4</ele>
        <time>2018-09-16T16:34:14.000Z</time>
      </trkpt>
      <trkpt lat="46.723" lon="-2.34275">
        <ele>4</ele>
        <time>2018-09-16T16:34:15.000Z</time>
      </trkpt>
      <trkpt lat="46.72301" lon="-2.34276">
        <ele>4</ele>
        <time>2018-09-16T16:34:16.000Z</time>
      </trkpt>
      <trkpt lat="46.72302" lon="-2.34277">
        <ele>4</ele>
        <time>2018-09-16T16:34:17.000Z</time>
      </trkpt>
      <trkpt lat="46.72303" lon="-2.34278">
        <ele>4</ele>
        <time>2018-09-16T16:34:18.000Z</time>
      </trkpt>
      <trkpt lat="46.72305" lon="-2.34278">
        <ele>4</ele>
        <time>2018-09-16T16:34:19.000Z</time>
      </trkpt>
      <trkpt lat="46.72306" lon="-2.34279">
        <ele>7</ele>
        <time>2018-09-16T16:34:20.000Z</time>
      </trkpt>
      <trkpt lat="46.72306" lon="-2.34279">
        <ele>7</ele>
        <time>2018-09-16T16:34:21.000Z</time>
      </trkpt>
      <trkpt lat="46.72307" lon="-2.34279">
        <ele>7</ele>
        <time>2018-09-16T16:34:22.000Z</time>
      </trkpt>
      <trkpt lat="46.72308" lon="-2.34279">
        <ele>7</ele>
        <time>2018-09-16T16:34:23.000Z</time>
      </trkpt>
      <trkpt lat="46.72309" lon="-2.34279">
        <ele>7</ele>
        <time>2018-09-16T16:34:24.000Z</time>
      </trkpt>
      <trkpt lat="46.7231" lon="-2.3428">
        <ele>7</ele>
        <time>2018-09-16T16:34:25.000Z</time>
      </trkpt>
      <trkpt lat="46.72311" lon="-2.3428">
        <ele>7</ele>
        <time>2018-09-16T16:34:26.000Z</time>
      </trkpt>
      <trkpt lat="46.72312" lon="-2.34281">
        <ele>7</ele>
        <time>2018-09-16T16:34:27.000Z</time>
      </trkpt>
      <trkpt lat="46.72314" lon="-2.34281">
        <ele>7</ele>
        <time>2018-09-16T16:34:28.000Z</time>
      </trkpt>
      <trkpt lat="46.72315" lon="-2.34282">
        <ele>7</ele>
        <time>2018-09-16T16:34:29.000Z</time>
      </trkpt>
      <trkpt lat="46.72316" lon="-2.34282">
        <ele>7</ele>
        <time>2018-09-16T16:34:30.000Z</time>
      </trkpt>
      <trkpt lat="46.72316" lon="-2.34282">
        <ele>7</ele>
        <time>2018-09-16T16:34:31.000Z</time>
      </trkpt>
      <trkpt lat="46.72316" lon="-2.34282">
        <ele>7</ele>
        <time>2018-09-16T16:34:32.000Z</time>
      </trkpt>
      <trkpt lat="46.72316" lon="-2.34283">
        <ele>7</ele>
        <time>2018-09-16T16:34:33.000Z</time>
      </trkpt>
      <trkpt lat="46.72317" lon="-2.34284">
        <ele>7</ele>
        <time>2018-09-16T16:34:34.000Z</time>
      </trkpt>
      <trkpt lat="46.72318" lon="-2.34285">
        <ele>7</ele>
        <time>2018-09-16T16:34:35.000Z</time>
      </trkpt>
      <trkpt lat="46.72319" lon="-2.34287">
        <ele>7</ele>
        <time>2018-09-16T16:34:36.000Z</time>
      </trkpt>
      <trkpt lat="46.7232" lon="-2.34288">
        <ele>7</ele>
        <time>2018-09-16T16:34:37.000Z</time>
      </trkpt>
      <trkpt lat="46.7232" lon="-2.3429">
        <ele>7</ele>
        <time>2018-09-16T16:34:38.000Z</time>
      </trkpt>
      <trkpt lat="46.72321" lon="-2.34292">
        <ele>7</ele>
        <time>2018-09-16T16:34:39.000Z</time>
      </trkpt>
      <trkpt lat="46.72322" lon="-2.34294">
        <ele>7</ele>
        <time>2018-09-16T16:34:40.000Z</time>
      </trkpt>
      <trkpt lat="46.72322" lon="-2.34296">
        <ele>7</ele>
        <time>2018-09-16T16:34:41.000Z</time>
      </trkpt>
      <trkpt lat="46.72323" lon="-2.34298">
        <ele>7</ele>
        <time>2018-09-16T16:34:42.000Z</time>
      </trkpt>
      <trkpt lat="46.72324" lon="-2.34299">
        <ele>7</ele>
        <time>2018-09-16T16:34:43.000Z</time>
      </trkpt>
      <trkpt lat="46.72324" lon="-2.34301">
        <ele>7</ele>
        <time>2018-09-16T16:34:44.000Z</time>
      </trkpt>
      <trkpt lat="46.72325" lon="-2.34302">
        <ele>7</ele>
        <time>2018-09-16T16:34:45.000Z</time>
      </trkpt>
      <trkpt lat="46.72326" lon="-2.34304">
        <ele>7</ele>
        <time>2018-09-16T16:34:46.000Z</time>
      </trkpt>
      <trkpt lat="46.72326" lon="-2.34305">
        <ele>7</ele>
        <time>2018-09-16T16:34:47.000Z</time>
      </trkpt>
      <trkpt lat="46.72327" lon="-2.34306">
        <ele>7</ele>
        <time>2018-09-16T16:34:48.000Z</time>
      </trkpt>
      <trkpt lat="46.72328" lon="-2.34307">
        <ele>7</ele>
        <time>2018-09-16T16:34:49.000Z</time>
      </trkpt>
      <trkpt lat="46.72328" lon="-2.34309">
        <ele>7</ele>
        <time>2018-09-16T16:34:50.000Z</time>
      </trkpt>
      <trkpt lat="46.72329" lon="-2.34311">
        <ele>7</ele>
        <time>2018-09-16T16:34:51.000Z</time>
      </trkpt>
      <trkpt lat="46.7233" lon="-2.34312">
        <ele>7</ele>
        <time>2018-09-16T16:34:52.000Z</time>
      </trkpt>
      <trkpt lat="46.72331" lon="-2.34314">
        <ele>7</ele>
        <time>2018-09-16T16:34:53.000Z</time>
      </trkpt>
      <trkpt lat="46.72332" lon="-2.34316">
        <ele>7</ele>
        <time>2018-09-16T16:34:54.000Z</time>
      </trkpt>
      <trkpt lat="46.72333" lon="-2.34317">
        <ele>7</ele>
        <time>2018-09-16T16:34:55.000Z</time>
      </trkpt>
      <trkpt lat="46.72333" lon="-2.34318">
        <ele>7</ele>
        <time>2018-09-16T16:34:56.000Z</time>
      </trkpt>
      <trkpt lat="46.72334" lon="-2.3432">
        <ele>7</ele>
        <time>2018-09-16T16:34:57.000Z</time>
      </trkpt>
      <trkpt lat="46.72335" lon="-2.34321">
        <ele>7</ele>
        <time>2018-09-16T16:34:58.000Z</time>
      </trkpt>
      <trkpt lat="46.72336" lon="-2.34322">
        <ele>7</ele>
        <time>2018-09-16T16:34:59.000Z</time>
      </trkpt>
      <trkpt lat="46.72337" lon="-2.34324">
        <ele>7</ele>
        <time>2018-09-16T16:35:00.000Z</time>
      </trkpt>
      <trkpt lat="46.72338" lon="-2.34325">
        <ele>7</ele>
        <time>2018-09-16T16:35:01.000Z</time>
      </trkpt>
      <trkpt lat="46.72339" lon="-2.34327">
        <ele>7</ele>
        <time>2018-09-16T16:35:02.000Z</time>
      </trkpt>
      <trkpt lat="46.72341" lon="-2.34328">
        <ele>7</ele>
        <time>2018-09-16T16:35:03.000Z</time>
      </trkpt>
      <trkpt lat="46.72341" lon="-2.34329">
        <ele>7</ele>
        <time>2018-09-16T16:35:04.000Z</time>
      </trkpt>
      <trkpt lat="46.72342" lon="-2.3433">
        <ele>7</ele>
        <time>2018-09-16T16:35:05.000Z</time>
      </trkpt>
      <trkpt lat="46.72342" lon="-2.3433">
        <ele>7</ele>
        <time>2018-09-16T16:35:06.000Z</time>
      </trkpt>
      <trkpt lat="46.72342" lon="-2.34331">
        <ele>7</ele>
        <time>2018-09-16T16:35:07.000Z</time>
      </trkpt>
      <trkpt lat="46.72343" lon="-2.34332">
        <ele>7</ele>
        <time>2018-09-16T16:35:08.000Z</time>
      </trkpt>
      <trkpt lat="46.72345" lon="-2.34334">
        <ele>7</ele>
        <time>2018-09-16T16:35:09.000Z</time>
      </trkpt>
      <trkpt lat="46.72346" lon="-2.34336">
        <ele>7</ele>
        <time>2018-09-16T16:35:10.000Z</time>
      </trkpt>
      <trkpt lat="46.72348" lon="-2.34338">
        <ele>7</ele>
        <time>2018-09-16T16:35:11.000Z</time>
      </trkpt>
      <trkpt lat="46.72349" lon="-2.34339">
        <ele>7</ele>
        <time>2018-09-16T16:35:12.000Z</time>
      </trkpt>
      <trkpt lat="46.7235" lon="-2.34341">
        <ele>7</ele>
        <time>2018-09-16T16:35:13.000Z</time>
      </trkpt>
      <trkpt lat="46.72351" lon="-2.34341">
        <ele>7</ele>
        <time>2018-09-16T16:35:14.000Z</time>
      </trkpt>
      <trkpt lat="46.72352" lon="-2.34342">
        <ele>7</ele>
        <time>2018-09-16T16:35:15.000Z</time>
      </trkpt>
      <trkpt lat="46.72352" lon="-2.34343">
        <ele>7</ele>
        <time>2018-09-16T16:35:16.000Z</time>
      </trkpt>
      <trkpt lat="46.72352" lon="-2.34344">
        <ele>7</ele>
        <time>2018-09-16T16:35:17.000Z</time>
      </trkpt>
      <trkpt lat="46.72353" lon="-2.34345">
        <ele>7</ele>
        <time>2018-09-16T16:35:18.000Z</time>
      </trkpt>
      <trkpt lat="46.72353" lon="-2.34346">
        <ele>7</ele>
        <time>2018-09-16T16:35:19.000Z</time>
      </trkpt>
      <trkpt lat="46.72353" lon="-2.34347">
        <ele>7</ele>
        <time>2018-09-16T16:35:20.000Z</time>
      </trkpt>
      <trkpt lat="46.72354" lon="-2.34349">
        <ele>7</ele>
        <time>2018-09-16T16:35:21.000Z</time>
      </trkpt>
      <trkpt lat="46.72354" lon="-2.3435">
        <ele>7</ele>
        <time>2018-09-16T16:35:22.000Z</time>
      </trkpt>
      <trkpt lat="46.72355" lon="-2.34352">
        <ele>7</ele>
        <time>2018-09-16T16:35:23.000Z</time>
      </trkpt>
      <trkpt lat="46.72356" lon="-2.34353">
        <ele>7</ele>
        <time>2018-09-16T16:35:24.000Z</time>
      </trkpt>
      <trkpt lat="46.72356" lon="-2.34355">
        <ele>7</ele>
        <time>2018-09-16T16:35:25.000Z</time>
      </trkpt>
      <trkpt lat="46.72357" lon="-2.34357">
        <ele>7</ele>
        <time>2018-09-16T16:35:26.000Z</time>
      </trkpt>
      <trkpt lat="46.72358" lon="-2.34358">
        <ele>7</ele>
        <time>2018-09-16T16:35:27.000Z</time>
      </trkpt>
      <trkpt lat="46.72358" lon="-2.3436">
        <ele>7</ele>
        <time>2018-09-16T16:35:28.000Z</time>
      </trkpt>
      <trkpt lat="46.72359" lon="-2.34361">
        <ele>7</ele>
        <time>2018-09-16T16:35:29.000Z</time>
      </trkpt>
      <trkpt lat="46.7236" lon="-2.34363">
        <ele>7</ele>
        <time>2018-09-16T16:35:30.000Z</time>
      </trkpt>
      <trkpt lat="46.7236" lon="-2.34364">
        <ele>7</ele>
        <time>2018-09-16T16:35:31.000Z</time>
      </trkpt>
      <trkpt lat="46.72361" lon="-2.34365">
        <ele>7</ele>
        <time>2018-09-16T16:35:32.000Z</time>
      </trkpt>
      <trkpt lat="46.72362" lon="-2.34366">
        <ele>7</ele>
        <time>2018-09-16T16:35:33.000Z</time>
      </trkpt>
      <trkpt lat="46.72363" lon="-2.34368">
        <ele>7</ele>
        <time>2018-09-16T16:35:34.000Z</time>
      </trkpt>
      <trkpt lat="46.72364" lon="-2.34369">
        <ele>7</ele>
        <time>2018-09-16T16:35:35.000Z</time>
      </trkpt>
      <trkpt lat="46.72365" lon="-2.3437">
        <ele>7</ele>
        <time>2018-09-16T16:35:36.000Z</time>
      </trkpt>
      <trkpt lat="46.72366" lon="-2.34371">
        <ele>7</ele>
        <time>2018-09-16T16:35:37.000Z</time>
      </trkpt>
      <trkpt lat="46.72367" lon="-2.34371">
        <ele>7</ele>
        <time>2018-09-16T16:35:38.000Z</time>
      </trkpt>
      <trkpt lat="46.72368" lon="-2.34372">
        <ele>7</ele>
        <time>2018-09-16T16:35:39.000Z</time>
      </trkpt>
      <trkpt lat="46.7237" lon="-2.34372">
        <ele>7</ele>
        <time>2018-09-16T16:35:40.000Z</time>
      </trkpt>
      <trkpt lat="46.72371" lon="-2.34373">
        <ele>7</ele>
        <time>2018-09-16T16:35:41.000Z</time>
      </trkpt>
      <trkpt lat="46.72372" lon="-2.34373">
        <ele>7</ele>
        <time>2018-09-16T16:35:42.000Z</time>
      </trkpt>
      <trkpt lat="46.72372" lon="-2.34374">
        <ele>7</ele>
        <time>2018-09-16T16:35:43.000Z</time>
      </trkpt>
      <trkpt lat="46.72373" lon="-2.34374">
        <ele>7</ele>
        <time>2018-09-16T16:35:44.000Z</time>
      </trkpt>
      <trkpt lat="46.72374" lon="-2.34375">
        <ele>7</ele>
        <time>2018-09-16T16:35:45.000Z</time>
      </trkpt>
      <trkpt lat="46.72375" lon="-2.34376">
        <ele>7</ele>
        <time>2018-09-16T16:35:46.000Z</time>
      </trkpt>
      <trkpt lat="46.72376" lon="-2.34378">
        <ele>5</ele>
        <time>2018-09-16T16:35:47.000Z</time>
      </trkpt>
      <trkpt lat="46.72377" lon="-2.34379">
        <ele>5</ele>
        <time>2018-09-16T16:35:48.000Z</time>
      </trkpt>
      <trkpt lat="46.72377" lon="-2.34381">
        <ele>5</ele>
        <time>2018-09-16T16:35:49.000Z</time>
      </trkpt>
      <trkpt lat="46.72378" lon="-2.34382">
        <ele>5</ele>
        <time>2018-09-16T16:35:50.000Z</time>
      </trkpt>
      <trkpt lat="46.72379" lon="-2.34383">
        <ele>5</ele>
        <time>2018-09-16T16:35:51.000Z</time>
      </trkpt>
      <trkpt lat="46.72379" lon="-2.34384">
        <ele>5</ele>
        <time>2018-09-16T16:35:52.000Z</time>
      </trkpt>
      <trkpt lat="46.7238" lon="-2.34384">
        <ele>5</ele>
        <time>2018-09-16T16:35:53.000Z</time>
      </trkpt>
      <trkpt lat="46.72381" lon="-2.34385">
        <ele>5</ele>
        <time>2018-09-16T16:35:54.000Z</time>
      </trkpt>
      <trkpt lat="46.72381" lon="-2.34386">
        <ele>5</ele>
        <time>2018-09-16T16:35:55.000Z</time>
      </trkpt>
      <trkpt lat="46.72382" lon="-2.34387">
        <ele>5</ele>
        <time>2018-09-16T16:35:56.000Z</time>
      </trkpt>
      <trkpt lat="46.72382" lon="-2.34389">
        <ele>5</ele>
        <time>2018-09-16T16:35:57.000Z</time>
      </trkpt>
      <trkpt lat="46.72382" lon="-2.3439">
        <ele>5</ele>
        <time>2018-09-16T16:35:58.000Z</time>
      </trkpt>
      <trkpt lat="46.72382" lon="-2.34391">
        <ele>5</ele>
        <time>2018-09-16T16:35:59.000Z</time>
      </trkpt>
      <trkpt lat="46.72382" lon="-2.34392">
        <ele>5</ele>
        <time>2018-09-16T16:36:00.000Z</time>
      </trkpt>
      <trkpt lat="46.72382" lon="-2.34393">
        <ele>5</ele>
        <time>2018-09-16T16:36:01.000Z</time>
      </trkpt>
      <trkpt lat="46.72382" lon="-2.34393">
        <ele>5</ele>
        <time>2018-09-16T16:36:02.000Z</time>
      </trkpt>
      <trkpt lat="46.72382" lon="-2.34394">
        <ele>5</ele>
        <time>2018-09-16T16:36:03.000Z</time>
      </trkpt>
      <trkpt lat="46.72381" lon="-2.34394">
        <ele>5</ele>
        <time>2018-09-16T16:36:04.000Z</time>
      </trkpt>
      <trkpt lat="46.72381" lon="-2.34394">
        <ele>5</ele>
        <time>2018-09-16T16:36:05.000Z</time>
      </trkpt>
      <trkpt lat="46.72381" lon="-2.34394">
        <ele>5</ele>
        <time>2018-09-16T16:36:06.000Z</time>
      </trkpt>
      <trkpt lat="46.72381" lon="-2.34395">
        <ele>5</ele>
        <time>2018-09-16T16:36:07.000Z</time>
      </trkpt>
      <trkpt lat="46.72381" lon="-2.34395">
        <ele>5</ele>
        <time>2018-09-16T16:36:08.000Z</time>
      </trkpt>
      <trkpt lat="46.72381" lon="-2.34395">
        <ele>5</ele>
        <time>2018-09-16T16:36:09.000Z</time>
      </trkpt>
      <trkpt lat="46.72381" lon="-2.34395">
        <ele>5</ele>
        <time>2018-09-16T16:36:10.000Z</time>
      </trkpt>
      <trkpt lat="46.72381" lon="-2.34395">
        <ele>5</ele>
        <time>2018-09-16T16:36:11.000Z</time>
      </trkpt>
      <trkpt lat="46.7238" lon="-2.34395">
        <ele>5</ele>
        <time>2018-09-16T16:36:12.000Z</time>
      </trkpt>
      <trkpt lat="46.7238" lon="-2.34395">
        <ele>5</ele>
        <time>2018-09-16T16:36:13.000Z</time>
      </trkpt>
      <trkpt lat="46.7238" lon="-2.34395">
        <ele>5</ele>
        <time>2018-09-16T16:36:14.000Z</time>
      </trkpt>
      <trkpt lat="46.7238" lon="-2.34395">
        <ele>5</ele>
        <time>2018-09-16T16:36:15.000Z</time>
      </trkpt>
      <trkpt lat="46.7238" lon="-2.34395">
        <ele>5</ele>
        <time>2018-09-16T16:36:16.000Z</time>
      </trkpt>
      <trkpt lat="46.7238" lon="-2.34395">
        <ele>5</ele>
        <time>2018-09-16T16:36:17.000Z</time>
      </trkpt>
      <trkpt lat="46.7238" lon="-2.34395">
        <ele>5</ele>
        <time>2018-09-16T16:36:18.000Z</time>
      </trkpt>
      <trkpt lat="46.7238" lon="-2.34395">
        <ele>5</ele>
        <time>2018-09-16T16:36:19.000Z</time>
      </trkpt>
      <trkpt lat="46.7238" lon="-2.34395">
        <ele>5</ele>
        <time>2018-09-16T16:36:20.000Z</time>
      </trkpt>
      <trkpt lat="46.7238" lon="-2.34395">
        <ele>5</ele>
        <time>2018-09-16T16:36:21.000Z</time>
      </trkpt>
      <trkpt lat="46.7238" lon="-2.34395">
        <ele>5</ele>
        <time>2018-09-16T16:36:22.000Z</time>
      </trkpt>
      <trkpt lat="46.7238" lon="-2.34395">
        <ele>5</ele>
        <time>2018-09-16T16:36:23.000Z</time>
      </trkpt>
      <trkpt lat="46.7238" lon="-2.34395">
        <ele>5</ele>
        <time>2018-09-16T16:36:24.000Z</time>
      </trkpt>
      <trkpt lat="46.7238" lon="-2.34395">
        <ele>5</ele>
        <time>2018-09-16T16:36:25.000Z</time>
      </trkpt>
      <trkpt lat="46.7238" lon="-2.34395">
        <ele>5</ele>
        <time>2018-09-16T16:36:26.000Z</time>
      </trkpt>
      <trkpt lat="46.7238" lon="-2.34395">
        <ele>5</ele>
        <time>2018-09-16T16:36:27.000Z</time>
      </trkpt>
      <trkpt lat="46.7238" lon="-2.34395">
        <ele>5</ele>
        <time>2018-09-16T16:36:28.000Z</time>
      </trkpt>
      <trkpt lat="46.7238" lon="-2.34395">
        <ele>5</ele>
        <time>2018-09-16T16:36:29.000Z</time>
      </trkpt>
      <trkpt lat="46.7238" lon="-2.34395">
        <ele>5</ele>
        <time>2018-09-16T16:36:30.000Z</time>
      </trkpt>
      <trkpt lat="46.7238" lon="-2.34395">
        <ele>5</ele>
        <time>2018-09-16T16:36:31.000Z</time>
      </trkpt>
      <trkpt lat="46.7238" lon="-2.34395">
        <ele>5</ele>
        <time>2018-09-16T16:36:32.000Z</time>
      </trkpt>
      <trkpt lat="46.7238" lon="-2.34395">
        <ele>5</ele>
        <time>2018-09-16T16:36:33.000Z</time>
      </trkpt>
      <trkpt lat="46.7238" lon="-2.34395">
        <ele>5</ele>
        <time>2018-09-16T16:36:34.000Z</time>
      </trkpt>
      <trkpt lat="46.7238" lon="-2.34395">
        <ele>5</ele>
        <time>2018-09-16T16:36:35.000Z</time>
      </trkpt>
      <trkpt lat="46.7238" lon="-2.34395">
        <ele>5</ele>
        <time>2018-09-16T16:36:36.000Z</time>
      </trkpt>
      <trkpt lat="46.7238" lon="-2.34395">
        <ele>5</ele>
        <time>2018-09-16T16:36:37.000Z</time>
      </trkpt>
      <trkpt lat="46.7238" lon="-2.34395">
        <ele>5</ele>
        <time>2018-09-16T16:36:38.000Z</time>
      </trkpt>
      <trkpt lat="46.7238" lon="-2.34395">
        <ele>5</ele>
        <time>2018-09-16T16:36:39.000Z</time>
      </trkpt>
      <trkpt lat="46.7238" lon="-2.34395">
        <ele>5</ele>
        <time>2018-09-16T16:36:40.000Z</time>
      </trkpt>
      <trkpt lat="46.7238" lon="-2.34395">
        <ele>5</ele>
        <time>2018-09-16T16:36:41.000Z</time>
      </trkpt>
      <trkpt lat="46.7238" lon="-2.34395">
        <ele>5</ele>
        <time>2018-09-16T16:36:42.000Z</time>
      </trkpt>
      <trkpt lat="46.7238" lon="-2.34395">
        <ele>5</ele>
        <time>2018-09-16T16:36:43.000Z</time>
      </trkpt>
      <trkpt lat="46.7238" lon="-2.34395">
        <ele>5</ele>
        <time>2018-09-16T16:36:44.000Z</time>
      </trkpt>
      <trkpt lat="46.7238" lon="-2.34395">
        <ele>5</ele>
        <time>2018-09-16T16:36:45.000Z</time>
      </trkpt>
      <trkpt lat="46.7238" lon="-2.34395">
        <ele>5</ele>
        <time>2018-09-16T16:36:46.000Z</time>
      </trkpt>
      <trkpt lat="46.7238" lon="-2.34395">
        <ele>5</ele>
        <time>2018-09-16T16:36:47.000Z</time>
      </trkpt>
      <trkpt lat="46.7238" lon="-2.34395">
        <ele>5</ele>
        <time>2018-09-16T16:36:48.000Z</time>
      </trkpt>
      <trkpt lat="46.7238" lon="-2.34395">
        <ele>5</ele>
        <time>2018-09-16T16:36:49.000Z</time>
      </trkpt>
      <trkpt lat="46.7238" lon="-2.34395">
        <ele>5</ele>
        <time>2018-09-16T16:36:50.000Z</time>
      </trkpt>
      <trkpt lat="46.7238" lon="-2.34395">
        <ele>5</ele>
        <time>2018-09-16T16:36:51.000Z</time>
      </trkpt>
      <trkpt lat="46.7238" lon="-2.34395">
        <ele>5</ele>
        <time>2018-09-16T16:36:52.000Z</time>
      </trkpt>
      <trkpt lat="46.7238" lon="-2.34395">
        <ele>5</ele>
        <time>2018-09-16T16:36:53.000Z</time>
      </trkpt>
      <trkpt lat="46.7238" lon="-2.34395">
        <ele>5</ele>
        <time>2018-09-16T16:36:54.000Z</time>
      </trkpt>
      <trkpt lat="46.7238" lon="-2.34395">
        <ele>5</ele>
        <time>2018-09-16T16:36:55.000Z</time>
      </trkpt>
      <trkpt lat="46.7238" lon="-2.34395">
        <ele>5</ele>
        <time>2018-09-16T16:36:56.000Z</time>
      </trkpt>
      <trkpt lat="46.7238" lon="-2.34395">
        <ele>5</ele>
        <time>2018-09-16T16:36:57.000Z</time>
      </trkpt>
      <trkpt lat="46.7238" lon="-2.34395">
        <ele>5</ele>
        <time>2018-09-16T16:36:58.000Z</time>
      </trkpt>
      <trkpt lat="46.7238" lon="-2.34395">
        <ele>5</ele>
        <time>2018-09-16T16:36:59.000Z</time>
      </trkpt>
      <trkpt lat="46.7238" lon="-2.34395">
        <ele>5</ele>
        <time>2018-09-16T16:37:00.000Z</time>
      </trkpt>
      <trkpt lat="46.7238" lon="-2.34395">
        <ele>5</ele>
        <time>2018-09-16T16:37:01.000Z</time>
      </trkpt>
      <trkpt lat="46.7238" lon="-2.34395">
        <ele>5</ele>
        <time>2018-09-16T16:37:02.000Z</time>
      </trkpt>
      <trkpt lat="46.7238" lon="-2.34395">
        <ele>5</ele>
        <time>2018-09-16T16:37:03.000Z</time>
      </trkpt>
      <trkpt lat="46.7238" lon="-2.34395">
        <ele>5</ele>
        <time>2018-09-16T16:37:04.000Z</time>
      </trkpt>
      <trkpt lat="46.7238" lon="-2.34395">
        <ele>5</ele>
        <time>2018-09-16T16:37:05.000Z</time>
      </trkpt>
      <trkpt lat="46.7238" lon="-2.34396">
        <ele>5</ele>
        <time>2018-09-16T16:37:06.000Z</time>
      </trkpt>
      <trkpt lat="46.72381" lon="-2.34396">
        <ele>5</ele>
        <time>2018-09-16T16:37:07.000Z</time>
      </trkpt>
      <trkpt lat="46.72381" lon="-2.34397">
        <ele>5</ele>
        <time>2018-09-16T16:37:08.000Z</time>
      </trkpt>
      <trkpt lat="46.72381" lon="-2.34398">
        <ele>5</ele>
        <time>2018-09-16T16:37:09.000Z</time>
      </trkpt>
      <trkpt lat="46.72382" lon="-2.34399">
        <ele>5</ele>
        <time>2018-09-16T16:37:10.000Z</time>
      </trkpt>
      <trkpt lat="46.72383" lon="-2.34399">
        <ele>5</ele>
        <time>2018-09-16T16:37:11.000Z</time>
      </trkpt>
      <trkpt lat="46.72384" lon="-2.34399">
        <ele>5</ele>
        <time>2018-09-16T16:37:12.000Z</time>
      </trkpt>
      <trkpt lat="46.72384" lon="-2.34399">
        <ele>5</ele>
        <time>2018-09-16T16:37:13.000Z</time>
      </trkpt>
      <trkpt lat="46.72385" lon="-2.34399">
        <ele>5</ele>
        <time>2018-09-16T16:37:14.000Z</time>
      </trkpt>
      <trkpt lat="46.72386" lon="-2.34399">
        <ele>5</ele>
        <time>2018-09-16T16:37:15.000Z</time>
      </trkpt>
      <trkpt lat="46.72387" lon="-2.344">
        <ele>5</ele>
        <time>2018-09-16T16:37:16.000Z</time>
      </trkpt>
      <trkpt lat="46.72387" lon="-2.34401">
        <ele>5</ele>
        <time>2018-09-16T16:37:17.000Z</time>
      </trkpt>
      <trkpt lat="46.72388" lon="-2.34402">
        <ele>5</ele>
        <time>2018-09-16T16:37:18.000Z</time>
      </trkpt>
      <trkpt lat="46.72389" lon="-2.34403">
        <ele>5</ele>
        <time>2018-09-16T16:37:19.000Z</time>
      </trkpt>
      <trkpt lat="46.72389" lon="-2.34405">
        <ele>5</ele>
        <time>2018-09-16T16:37:20.000Z</time>
      </trkpt>
      <trkpt lat="46.7239" lon="-2.34406">
        <ele>5</ele>
        <time>2018-09-16T16:37:21.000Z</time>
      </trkpt>
      <trkpt lat="46.7239" lon="-2.34408">
        <ele>5</ele>
        <time>2018-09-16T16:37:22.000Z</time>
      </trkpt>
      <trkpt lat="46.72391" lon="-2.34409">
        <ele>5</ele>
        <time>2018-09-16T16:37:23.000Z</time>
      </trkpt>
      <trkpt lat="46.72391" lon="-2.34411">
        <ele>5</ele>
        <time>2018-09-16T16:37:24.000Z</time>
      </trkpt>
      <trkpt lat="46.72391" lon="-2.34412">
        <ele>5</ele>
        <time>2018-09-16T16:37:25.000Z</time>
      </trkpt>
      <trkpt lat="46.72392" lon="-2.34414">
        <ele>5</ele>
        <time>2018-09-16T16:37:26.000Z</time>
      </trkpt>
      <trkpt lat="46.72392" lon="-2.34415">
        <ele>5</ele>
        <time>2018-09-16T16:37:27.000Z</time>
      </trkpt>
      <trkpt lat="46.72393" lon="-2.34417">
        <ele>5</ele>
        <time>2018-09-16T16:37:28.000Z</time>
      </trkpt>
      <trkpt lat="46.72393" lon="-2.34418">
        <ele>5.5</ele>
        <time>2018-09-16T16:37:29.000Z</time>
      </trkpt>
      <trkpt lat="46.72394" lon="-2.3442">
        <ele>5.5</ele>
        <time>2018-09-16T16:37:30.000Z</time>
      </trkpt>
      <trkpt lat="46.72394" lon="-2.34421">
        <ele>5.5</ele>
        <time>2018-09-16T16:37:31.000Z</time>
      </trkpt>
      <trkpt lat="46.72395" lon="-2.34423">
        <ele>5.4</ele>
        <time>2018-09-16T16:37:32.000Z</time>
      </trkpt>
      <trkpt lat="46.72396" lon="-2.34424">
        <ele>5.4</ele>
        <time>2018-09-16T16:37:33.000Z</time>
      </trkpt>
      <trkpt lat="46.72397" lon="-2.34426">
        <ele>5.4</ele>
        <time>2018-09-16T16:37:34.000Z</time>
      </trkpt>
      <trkpt lat="46.72398" lon="-2.34428">
        <ele>5.3</ele>
        <time>2018-09-16T16:37:35.000Z</time>
      </trkpt>
      <trkpt lat="46.72398" lon="-2.34429">
        <ele>5.3</ele>
        <time>2018-09-16T16:37:36.000Z</time>
      </trkpt>
      <trkpt lat="46.72399" lon="-2.34431">
        <ele>5.3</ele>
        <time>2018-09-16T16:37:37.000Z</time>
      </trkpt>
      <trkpt lat="46.72399" lon="-2.34433">
        <ele>5.2</ele>
        <time>2018-09-16T16:37:38.000Z</time>
      </trkpt>
      <trkpt lat="46.72399" lon="-2.34434">
        <ele>5.2</ele>
        <time>2018-09-16T16:37:39.000Z</time>
      </trkpt>
      <trkpt lat="46.72398" lon="-2.34436">
        <ele>5.2</ele>
        <time>2018-09-16T16:37:40.000Z</time>
      </trkpt>
      <trkpt lat="46.72398" lon="-2.34437">
        <ele>5.2</ele>
        <time>2018-09-16T16:37:41.000Z</time>
      </trkpt>
      <trkpt lat="46.72397" lon="-2.34438">
        <ele>5.2</ele>
        <time>2018-09-16T16:37:42.000Z</time>
      </trkpt>
      <trkpt lat="46.72396" lon="-2.34439">
        <ele>5.2</ele>
        <time>2018-09-16T16:37:43.000Z</time>
      </trkpt>
      <trkpt lat="46.72395" lon="-2.34439">
        <ele>5.2</ele>
        <time>2018-09-16T16:37:44.000Z</time>
      </trkpt>
      <trkpt lat="46.72394" lon="-2.3444">
        <ele>5.3</ele>
        <time>2018-09-16T16:37:45.000Z</time>
      </trkpt>
      <trkpt lat="46.72394" lon="-2.3444">
        <ele>5.3</ele>
        <time>2018-09-16T16:37:46.000Z</time>
      </trkpt>
      <trkpt lat="46.72393" lon="-2.34441">
        <ele>5.3</ele>
        <time>2018-09-16T16:37:47.000Z</time>
      </trkpt>
      <trkpt lat="46.72392" lon="-2.34442">
        <ele>5.3</ele>
        <time>2018-09-16T16:37:48.000Z</time>
      </trkpt>
      <trkpt lat="46.72392" lon="-2.34443">
        <ele>5.3</ele>
        <time>2018-09-16T16:37:49.000Z</time>
      </trkpt>
      <trkpt lat="46.72392" lon="-2.34444">
        <ele>5.3</ele>
        <time>2018-09-16T16:37:50.000Z</time>
      </trkpt>
      <trkpt lat="46.72392" lon="-2.34445">
        <ele>5.3</ele>
        <time>2018-09-16T16:37:51.000Z</time>
      </trkpt>
      <trkpt lat="46.72392" lon="-2.34447">
        <ele>5.2</ele>
        <time>2018-09-16T16:37:52.000Z</time>
      </trkpt>
      <trkpt lat="46.72392" lon="-2.34448">
        <ele>5.2</ele>
        <time>2018-09-16T16:37:53.000Z</time>
      </trkpt>
      <trkpt lat="46.72393" lon="-2.3445">
        <ele>5.2</ele>
        <time>2018-09-16T16:37:54.000Z</time>
      </trkpt>
      <trkpt lat="46.72394" lon="-2.34451">
        <ele>5.1</ele>
        <time>2018-09-16T16:37:55.000Z</time>
      </trkpt>
      <trkpt lat="46.72395" lon="-2.34452">
        <ele>5.1</ele>
        <time>2018-09-16T16:37:56.000Z</time>
      </trkpt>
      <trkpt lat="46.72396" lon="-2.34453">
        <ele>5.1</ele>
        <time>2018-09-16T16:37:57.000Z</time>
      </trkpt>
      <trkpt lat="46.72397" lon="-2.34454">
        <ele>5</ele>
        <time>2018-09-16T16:37:58.000Z</time>
      </trkpt>
      <trkpt lat="46.72397" lon="-2.34455">
        <ele>5</ele>
        <time>2018-09-16T16:37:59.000Z</time>
      </trkpt>
      <trkpt lat="46.72398" lon="-2.34455">
        <ele>5</ele>
        <time>2018-09-16T16:38:00.000Z</time>
      </trkpt>
      <trkpt lat="46.72399" lon="-2.34456">
        <ele>5</ele>
        <time>2018-09-16T16:38:01.000Z</time>
      </trkpt>
      <trkpt lat="46.724" lon="-2.34456">
        <ele>4.9</ele>
        <time>2018-09-16T16:38:02.000Z</time>
      </trkpt>
      <trkpt lat="46.72401" lon="-2.34457">
        <ele>4.9</ele>
        <time>2018-09-16T16:38:03.000Z</time>
      </trkpt>
      <trkpt lat="46.72401" lon="-2.34457">
        <ele>4.9</ele>
        <time>2018-09-16T16:38:04.000Z</time>
      </trkpt>
      <trkpt lat="46.72402" lon="-2.34458">
        <ele>4.9</ele>
        <time>2018-09-16T16:38:05.000Z</time>
      </trkpt>
      <trkpt lat="46.72403" lon="-2.34459">
        <ele>4.8</ele>
        <time>2018-09-16T16:38:06.000Z</time>
      </trkpt>
      <trkpt lat="46.72403" lon="-2.34459">
        <ele>4.8</ele>
        <time>2018-09-16T16:38:07.000Z</time>
      </trkpt>
      <trkpt lat="46.72404" lon="-2.3446">
        <ele>4.8</ele>
        <time>2018-09-16T16:38:08.000Z</time>
      </trkpt>
      <trkpt lat="46.72404" lon="-2.34461">
        <ele>4.8</ele>
        <time>2018-09-16T16:38:09.000Z</time>
      </trkpt>
      <trkpt lat="46.72404" lon="-2.34462">
        <ele>4.8</ele>
        <time>2018-09-16T16:38:10.000Z</time>
      </trkpt>
      <trkpt lat="46.72405" lon="-2.34463">
        <ele>4.7</ele>
        <time>2018-09-16T16:38:11.000Z</time>
      </trkpt>
      <trkpt lat="46.72405" lon="-2.34465">
        <ele>4.7</ele>
        <time>2018-09-16T16:38:12.000Z</time>
      </trkpt>
      <trkpt lat="46.72405" lon="-2.34466">
        <ele>4.7</ele>
        <time>2018-09-16T16:38:13.000Z</time>
      </trkpt>
      <trkpt lat="46.72406" lon="-2.34468">
        <ele>4.7</ele>
        <time>2018-09-16T16:38:14.000Z</time>
      </trkpt>
      <trkpt lat="46.72406" lon="-2.34469">
        <ele>4.6</ele>
        <time>2018-09-16T16:38:15.000Z</time>
      </trkpt>
      <trkpt lat="46.72406" lon="-2.34471">
        <ele>4.6</ele>
        <time>2018-09-16T16:38:16.000Z</time>
      </trkpt>
      <trkpt lat="46.72406" lon="-2.34473">
        <ele>4.6</ele>
        <time>2018-09-16T16:38:17.000Z</time>
      </trkpt>
      <trkpt lat="46.72406" lon="-2.34474">
        <ele>4.6</ele>
        <time>2018-09-16T16:38:18.000Z</time>
      </trkpt>
      <trkpt lat="46.72406" lon="-2.34476">
        <ele>4.5</ele>
        <time>2018-09-16T16:38:19.000Z</time>
      </trkpt>
      <trkpt lat="46.72407" lon="-2.34478">
        <ele>4.5</ele>
        <time>2018-09-16T16:38:20.000Z</time>
      </trkpt>
      <trkpt lat="46.72407" lon="-2.34479">
        <ele>4.5</ele>
        <time>2018-09-16T16:38:21.000Z</time>
      </trkpt>
      <trkpt lat="46.72407" lon="-2.34481">
        <ele>4.5</ele>
        <time>2018-09-16T16:38:22.000Z</time>
      </trkpt>
      <trkpt lat="46.72407" lon="-2.34483">
        <ele>4.4</ele>
        <time>2018-09-16T16:38:23.000Z</time>
      </trkpt>
      <trkpt lat="46.72407" lon="-2.34484">
        <ele>4.4</ele>
        <time>2018-09-16T16:38:24.000Z</time>
      </trkpt>
      <trkpt lat="46.72407" lon="-2.34486">
        <ele>4.4</ele>
        <time>2018-09-16T16:38:25.000Z</time>
      </trkpt>
      <trkpt lat="46.72407" lon="-2.34487">
        <ele>4.4</ele>
        <time>2018-09-16T16:38:26.000Z</time>
      </trkpt>
      <trkpt lat="46.72408" lon="-2.34489">
        <ele>4.4</ele>
        <time>2018-09-16T16:38:27.000Z</time>
      </trkpt>
      <trkpt lat="46.72408" lon="-2.3449">
        <ele>4.3</ele>
        <time>2018-09-16T16:38:28.000Z</time>
      </trkpt>
      <trkpt lat="46.72408" lon="-2.34492">
        <ele>4.3</ele>
        <time>2018-09-16T16:38:29.000Z</time>
      </trkpt>
      <trkpt lat="46.72408" lon="-2.34493">
        <ele>4.3</ele>
        <time>2018-09-16T16:38:30.000Z</time>
      </trkpt>
      <trkpt lat="46.72409" lon="-2.34495">
        <ele>4.3</ele>
        <time>2018-09-16T16:38:31.000Z</time>
      </trkpt>
      <trkpt lat="46.72409" lon="-2.34496">
        <ele>4.2</ele>
        <time>2018-09-16T16:38:32.000Z</time>
      </trkpt>
      <trkpt lat="46.72409" lon="-2.34498">
        <ele>4.2</ele>
        <time>2018-09-16T16:38:33.000Z</time>
      </trkpt>
      <trkpt lat="46.7241" lon="-2.34499">
        <ele>4.2</ele>
        <time>2018-09-16T16:38:34.000Z</time>
      </trkpt>
      <trkpt lat="46.7241" lon="-2.34501">
        <ele>4.2</ele>
        <time>2018-09-16T16:38:35.000Z</time>
      </trkpt>
      <trkpt lat="46.72411" lon="-2.34502">
        <ele>4.1</ele>
        <time>2018-09-16T16:38:36.000Z</time>
      </trkpt>
      <trkpt lat="46.72411" lon="-2.34504">
        <ele>4.1</ele>
        <time>2018-09-16T16:38:37.000Z</time>
      </trkpt>
      <trkpt lat="46.72412" lon="-2.34505">
        <ele>4.1</ele>
        <time>2018-09-16T16:38:38.000Z</time>
      </trkpt>
      <trkpt lat="46.72412" lon="-2.34507">
        <ele>4.1</ele>
        <time>2018-09-16T16:38:39.000Z</time>
      </trkpt>
      <trkpt lat="46.72413" lon="-2.34508">
        <ele>4.1</ele>
        <time>2018-09-16T16:38:40.000Z</time>
      </trkpt>
      <trkpt lat="46.72413" lon="-2.3451">
        <ele>4.1</ele>
        <time>2018-09-16T16:38:41.000Z</time>
      </trkpt>
      <trkpt lat="46.72413" lon="-2.34512">
        <ele>4.1</ele>
        <time>2018-09-16T16:38:42.000Z</time>
      </trkpt>
      <trkpt lat="46.72414" lon="-2.34513">
        <ele>4.1</ele>
        <time>2018-09-16T16:38:43.000Z</time>
      </trkpt>
      <trkpt lat="46.72414" lon="-2.34515">
        <ele>4.1</ele>
        <time>2018-09-16T16:38:44.000Z</time>
      </trkpt>
      <trkpt lat="46.72415" lon="-2.34516">
        <ele>4</ele>
        <time>2018-09-16T16:38:45.000Z</time>
      </trkpt>
      <trkpt lat="46.72415" lon="-2.34518">
        <ele>4</ele>
        <time>2018-09-16T16:38:46.000Z</time>
      </trkpt>
      <trkpt lat="46.72415" lon="-2.34519">
        <ele>4</ele>
        <time>2018-09-16T16:38:47.000Z</time>
      </trkpt>
      <trkpt lat="46.72416" lon="-2.34521">
        <ele>4</ele>
        <time>2018-09-16T16:38:48.000Z</time>
      </trkpt>
      <trkpt lat="46.72416" lon="-2.34522">
        <ele>4</ele>
        <time>2018-09-16T16:38:49.000Z</time>
      </trkpt>
      <trkpt lat="46.72417" lon="-2.34524">
        <ele>4</ele>
        <time>2018-09-16T16:38:50.000Z</time>
      </trkpt>
      <trkpt lat="46.72417" lon="-2.34525">
        <ele>4</ele>
        <time>2018-09-16T16:38:51.000Z</time>
      </trkpt>
      <trkpt lat="46.72417" lon="-2.34527">
        <ele>4</ele>
        <time>2018-09-16T16:38:52.000Z</time>
      </trkpt>
      <trkpt lat="46.72418" lon="-2.34528">
        <ele>4</ele>
        <time>2018-09-16T16:38:53.000Z</time>
      </trkpt>
      <trkpt lat="46.72418" lon="-2.34529">
        <ele>4</ele>
        <time>2018-09-16T16:38:54.000Z</time>
      </trkpt>
      <trkpt lat="46.72419" lon="-2.34531">
        <ele>3.9</ele>
        <time>2018-09-16T16:38:55.000Z</time>
      </trkpt>
      <trkpt lat="46.72419" lon="-2.34532">
        <ele>3.9</ele>
        <time>2018-09-16T16:38:56.000Z</time>
      </trkpt>
      <trkpt lat="46.7242" lon="-2.34533">
        <ele>3.9</ele>
        <time>2018-09-16T16:38:57.000Z</time>
      </trkpt>
      <trkpt lat="46.7242" lon="-2.34535">
        <ele>3.9</ele>
        <time>2018-09-16T16:38:58.000Z</time>
      </trkpt>
      <trkpt lat="46.72421" lon="-2.34536">
        <ele>3.9</ele>
        <time>2018-09-16T16:38:59.000Z</time>
      </trkpt>
      <trkpt lat="46.72421" lon="-2.34537">
        <ele>3.9</ele>
        <time>2018-09-16T16:39:00.000Z</time>
      </trkpt>
      <trkpt lat="46.72422" lon="-2.34538">
        <ele>3.9</ele>
        <time>2018-09-16T16:39:01.000Z</time>
      </trkpt>
      <trkpt lat="46.72422" lon="-2.34538">
        <ele>3.9</ele>
        <time>2018-09-16T16:39:02.000Z</time>
      </trkpt>
      <trkpt lat="46.72422" lon="-2.34539">
        <ele>3.8</ele>
        <time>2018-09-16T16:39:03.000Z</time>
      </trkpt>
      <trkpt lat="46.72422" lon="-2.34539">
        <ele>3.8</ele>
        <time>2018-09-16T16:39:04.000Z</time>
      </trkpt>
      <trkpt lat="46.72422" lon="-2.34539">
        <ele>3.8</ele>
        <time>2018-09-16T16:39:05.000Z</time>
      </trkpt>
      <trkpt lat="46.72422" lon="-2.34539">
        <ele>3.8</ele>
        <time>2018-09-16T16:39:06.000Z</time>
      </trkpt>
      <trkpt lat="46.72422" lon="-2.34539">
        <ele>3.8</ele>
        <time>2018-09-16T16:39:07.000Z</time>
      </trkpt>
      <trkpt lat="46.72423" lon="-2.34539">
        <ele>3.8</ele>
        <time>2018-09-16T16:39:08.000Z</time>
      </trkpt>
      <trkpt lat="46.72423" lon="-2.34539">
        <ele>3.8</ele>
        <time>2018-09-16T16:39:09.000Z</time>
      </trkpt>
      <trkpt lat="46.72424" lon="-2.34539">
        <ele>3.8</ele>
        <time>2018-09-16T16:39:10.000Z</time>
      </trkpt>
      <trkpt lat="46.72424" lon="-2.34539">
        <ele>3.8</ele>
        <time>2018-09-16T16:39:11.000Z</time>
      </trkpt>
      <trkpt lat="46.72425" lon="-2.34539">
        <ele>3.8</ele>
        <time>2018-09-16T16:39:12.000Z</time>
      </trkpt>
      <trkpt lat="46.72425" lon="-2.34539">
        <ele>3.8</ele>
        <time>2018-09-16T16:39:13.000Z</time>
      </trkpt>
      <trkpt lat="46.72425" lon="-2.34539">
        <ele>3.8</ele>
        <time>2018-09-16T16:39:14.000Z</time>
      </trkpt>
      <trkpt lat="46.72425" lon="-2.34539">
        <ele>3.8</ele>
        <time>2018-09-16T16:39:15.000Z</time>
      </trkpt>
      <trkpt lat="46.72425" lon="-2.34539">
        <ele>3.8</ele>
        <time>2018-09-16T16:39:16.000Z</time>
      </trkpt>
      <trkpt lat="46.72425" lon="-2.34539">
        <ele>3.8</ele>
        <time>2018-09-16T16:39:17.000Z</time>
      </trkpt>
      <trkpt lat="46.72425" lon="-2.34539">
        <ele>3.8</ele>
        <time>2018-09-16T16:39:18.000Z</time>
      </trkpt>
      <trkpt lat="46.72425" lon="-2.34539">
        <ele>3.8</ele>
        <time>2018-09-16T16:39:19.000Z</time>
      </trkpt>
      <trkpt lat="46.72425" lon="-2.34539">
        <ele>3.8</ele>
        <time>2018-09-16T16:39:20.000Z</time>
      </trkpt>
      <trkpt lat="46.72425" lon="-2.34539">
        <ele>3.8</ele>
        <time>2018-09-16T16:39:21.000Z</time>
      </trkpt>
      <trkpt lat="46.72425" lon="-2.34539">
        <ele>3.8</ele>
        <time>2018-09-16T16:39:22.000Z</time>
      </trkpt>
      <trkpt lat="46.72425" lon="-2.34538">
        <ele>3.8</ele>
        <time>2018-09-16T16:39:23.000Z</time>
      </trkpt>
      <trkpt lat="46.72422" lon="-2.34538">
        <ele>3.8</ele>
        <time>2018-09-16T16:39:24.000Z</time>
      </trkpt>
      <trkpt lat="46.7242" lon="-2.34536">
        <ele>3.9</ele>
        <time>2018-09-16T16:39:25.000Z</time>
      </trkpt>
      <trkpt lat="46.72419" lon="-2.34535">
        <ele>3.9</ele>
        <time>2018-09-16T16:39:26.000Z</time>
      </trkpt>
      <trkpt lat="46.72419" lon="-2.34534">
        <ele>3.9</ele>
        <time>2018-09-16T16:39:27.000Z</time>
      </trkpt>
      <trkpt lat="46.72419" lon="-2.34534">
        <ele>3.9</ele>
        <time>2018-09-16T16:39:28.000Z</time>
      </trkpt>
      <trkpt lat="46.72419" lon="-2.34533">
        <ele>3.9</ele>
        <time>2018-09-16T16:39:29.000Z</time>
      </trkpt>
      <trkpt lat="46.72419" lon="-2.34533">
        <ele>3.9</ele>
        <time>2018-09-16T16:39:30.000Z</time>
      </trkpt>
      <trkpt lat="46.72419" lon="-2.34533">
        <ele>3.9</ele>
        <time>2018-09-16T16:39:31.000Z</time>
      </trkpt>
      <trkpt lat="46.72419" lon="-2.34533">
        <ele>3.9</ele>
        <time>2018-09-16T16:39:32.000Z</time>
      </trkpt>
      <trkpt lat="46.72419" lon="-2.34533">
        <ele>3.9</ele>
        <time>2018-09-16T16:39:33.000Z</time>
      </trkpt>
      <trkpt lat="46.72419" lon="-2.34533">
        <ele>3.9</ele>
        <time>2018-09-16T16:39:34.000Z</time>
      </trkpt>
      <trkpt lat="46.72419" lon="-2.34533">
        <ele>3.9</ele>
        <time>2018-09-16T16:39:35.000Z</time>
      </trkpt>
      <trkpt lat="46.72419" lon="-2.34533">
        <ele>3.9</ele>
        <time>2018-09-16T16:39:36.000Z</time>
      </trkpt>
      <trkpt lat="46.72419" lon="-2.34533">
        <ele>3.9</ele>
        <time>2018-09-16T16:39:37.000Z</time>
      </trkpt>
      <trkpt lat="46.72419" lon="-2.34533">
        <ele>3.9</ele>
        <time>2018-09-16T16:39:38.000Z</time>
      </trkpt>
      <trkpt lat="46.72419" lon="-2.34533">
        <ele>3.9</ele>
        <time>2018-09-16T16:39:39.000Z</time>
      </trkpt>
      <trkpt lat="46.7242" lon="-2.34533">
        <ele>3.9</ele>
        <time>2018-09-16T16:39:40.000Z</time>
      </trkpt>
      <trkpt lat="46.72423" lon="-2.34533">
        <ele>3.8</ele>
        <time>2018-09-16T16:39:41.000Z</time>
      </trkpt>
      <trkpt lat="46.72426" lon="-2.34534">
        <ele>3.7</ele>
        <time>2018-09-16T16:39:42.000Z</time>
      </trkpt>
      <trkpt lat="46.72427" lon="-2.34534">
        <ele>3.7</ele>
        <time>2018-09-16T16:39:43.000Z</time>
      </trkpt>
      <trkpt lat="46.72428" lon="-2.34534">
        <ele>3.7</ele>
        <time>2018-09-16T16:39:44.000Z</time>
      </trkpt>
      <trkpt lat="46.72428" lon="-2.34534">
        <ele>3.7</ele>
        <time>2018-09-16T16:39:45.000Z</time>
      </trkpt>
      <trkpt lat="46.72429" lon="-2.34534">
        <ele>3.7</ele>
        <time>2018-09-16T16:39:46.000Z</time>
      </trkpt>
      <trkpt lat="46.72429" lon="-2.34534">
        <ele>3.6</ele>
        <time>2018-09-16T16:39:47.000Z</time>
      </trkpt>
      <trkpt lat="46.7243" lon="-2.34534">
        <ele>3.6</ele>
        <time>2018-09-16T16:39:48.000Z</time>
      </trkpt>
      <trkpt lat="46.7243" lon="-2.34534">
        <ele>3.6</ele>
        <time>2018-09-16T16:39:49.000Z</time>
      </trkpt>
      <trkpt lat="46.72431" lon="-2.34535">
        <ele>3.6</ele>
        <time>2018-09-16T16:39:50.000Z</time>
      </trkpt>
      <trkpt lat="46.72431" lon="-2.34535">
        <ele>3.6</ele>
        <time>2018-09-16T16:39:51.000Z</time>
      </trkpt>
      <trkpt lat="46.72431" lon="-2.34535">
        <ele>3.6</ele>
        <time>2018-09-16T16:39:52.000Z</time>
      </trkpt>
      <trkpt lat="46.72432" lon="-2.34535">
        <ele>3.6</ele>
        <time>2018-09-16T16:39:53.000Z</time>
      </trkpt>
      <trkpt lat="46.72432" lon="-2.34536">
        <ele>3.6</ele>
        <time>2018-09-16T16:39:54.000Z</time>
      </trkpt>
      <trkpt lat="46.72432" lon="-2.34536">
        <ele>3.6</ele>
        <time>2018-09-16T16:39:55.000Z</time>
      </trkpt>
      <trkpt lat="46.72432" lon="-2.34536">
        <ele>3.6</ele>
        <time>2018-09-16T16:39:56.000Z</time>
      </trkpt>
      <trkpt lat="46.72432" lon="-2.34536">
        <ele>3.5</ele>
        <time>2018-09-16T16:39:57.000Z</time>
      </trkpt>
      <trkpt lat="46.72432" lon="-2.34536">
        <ele>3.5</ele>
        <time>2018-09-16T16:39:58.000Z</time>
      </trkpt>
      <trkpt lat="46.72432" lon="-2.34536">
        <ele>3.5</ele>
        <time>2018-09-16T16:39:59.000Z</time>
      </trkpt>
      <trkpt lat="46.72432" lon="-2.34536">
        <ele>3.5</ele>
        <time>2018-09-16T16:40:00.000Z</time>
      </trkpt>
      <trkpt lat="46.72432" lon="-2.34536">
        <ele>3.5</ele>
        <time>2018-09-16T16:40:01.000Z</time>
      </trkpt>
      <trkpt lat="46.72432" lon="-2.34536">
        <ele>3.5</ele>
        <time>2018-09-16T16:40:02.000Z</time>
      </trkpt>
      <trkpt lat="46.72432" lon="-2.34536">
        <ele>3.5</ele>
        <time>2018-09-16T16:40:03.000Z</time>
      </trkpt>
      <trkpt lat="46.72432" lon="-2.34536">
        <ele>3.5</ele>
        <time>2018-09-16T16:40:04.000Z</time>
      </trkpt>
      <trkpt lat="46.72432" lon="-2.34536">
        <ele>3.5</ele>
        <time>2018-09-16T16:40:05.000Z</time>
      </trkpt>
      <trkpt lat="46.72432" lon="-2.34536">
        <ele>3.6</ele>
        <time>2018-09-16T16:40:06.000Z</time>
      </trkpt>
      <trkpt lat="46.72432" lon="-2.34536">
        <ele>3.6</ele>
        <time>2018-09-16T16:40:07.000Z</time>
      </trkpt>
      <trkpt lat="46.72432" lon="-2.34536">
        <ele>3.5</ele>
        <time>2018-09-16T16:40:08.000Z</time>
      </trkpt>
      <trkpt lat="46.72432" lon="-2.34536">
        <ele>3.6</ele>
        <time>2018-09-16T16:40:09.000Z</time>
      </trkpt>
      <trkpt lat="46.72432" lon="-2.34536">
        <ele>3.6</ele>
        <time>2018-09-16T16:40:10.000Z</time>
      </trkpt>
      <trkpt lat="46.72432" lon="-2.34536">
        <ele>3.5</ele>
        <time>2018-09-16T16:40:11.000Z</time>
      </trkpt>
      <trkpt lat="46.72432" lon="-2.34535">
        <ele>3.5</ele>
        <time>2018-09-16T16:40:12.000Z</time>
      </trkpt>
      <trkpt lat="46.72432" lon="-2.34535">
        <ele>3.5</ele>
        <time>2018-09-16T16:40:13.000Z</time>
      </trkpt>
      <trkpt lat="46.72432" lon="-2.34535">
        <ele>3.5</ele>
        <time>2018-09-16T16:40:14.000Z</time>
      </trkpt>
      <trkpt lat="46.72432" lon="-2.34535">
        <ele>3.5</ele>
        <time>2018-09-16T16:40:15.000Z</time>
      </trkpt>
      <trkpt lat="46.72433" lon="-2.34535">
        <ele>3.5</ele>
        <time>2018-09-16T16:40:16.000Z</time>
      </trkpt>
      <trkpt lat="46.72433" lon="-2.34535">
        <ele>3.5</ele>
        <time>2018-09-16T16:40:17.000Z</time>
      </trkpt>
      <trkpt lat="46.72433" lon="-2.34535">
        <ele>3.5</ele>
        <time>2018-09-16T16:40:18.000Z</time>
      </trkpt>
      <trkpt lat="46.72433" lon="-2.34535">
        <ele>3.5</ele>
        <time>2018-09-16T16:40:19.000Z</time>
      </trkpt>
      <trkpt lat="46.72433" lon="-2.34535">
        <ele>3.5</ele>
        <time>2018-09-16T16:40:20.000Z</time>
      </trkpt>
      <trkpt lat="46.72433" lon="-2.34535">
        <ele>3.5</ele>
        <time>2018-09-16T16:40:21.000Z</time>
      </trkpt>
      <trkpt lat="46.72433" lon="-2.34535">
        <ele>3.5</ele>
        <time>2018-09-16T16:40:22.000Z</time>
      </trkpt>
      <trkpt lat="46.72433" lon="-2.34535">
        <ele>3.5</ele>
        <time>2018-09-16T16:40:23.000Z</time>
      </trkpt>
      <trkpt lat="46.72433" lon="-2.34534">
        <ele>3.5</ele>
        <time>2018-09-16T16:40:24.000Z</time>
      </trkpt>
      <trkpt lat="46.72433" lon="-2.34534">
        <ele>3.5</ele>
        <time>2018-09-16T16:40:25.000Z</time>
      </trkpt>
      <trkpt lat="46.72434" lon="-2.34534">
        <ele>3.5</ele>
        <time>2018-09-16T16:40:26.000Z</time>
      </trkpt>
      <trkpt lat="46.72435" lon="-2.34533">
        <ele>3.5</ele>
        <time>2018-09-16T16:40:27.000Z</time>
      </trkpt>
      <trkpt lat="46.72436" lon="-2.34532">
        <ele>3.4</ele>
        <time>2018-09-16T16:40:28.000Z</time>
      </trkpt>
      <trkpt lat="46.72437" lon="-2.34532">
        <ele>3.4</ele>
        <time>2018-09-16T16:40:29.000Z</time>
      </trkpt>
      <trkpt lat="46.72437" lon="-2.34532">
        <ele>3.4</ele>
        <time>2018-09-16T16:40:30.000Z</time>
      </trkpt>
      <trkpt lat="46.72437" lon="-2.34532">
        <ele>3.4</ele>
        <time>2018-09-16T16:40:31.000Z</time>
      </trkpt>
      <trkpt lat="46.72437" lon="-2.34532">
        <ele>3.4</ele>
        <time>2018-09-16T16:40:32.000Z</time>
      </trkpt>
      <trkpt lat="46.72437" lon="-2.34532">
        <ele>3.4</ele>
        <time>2018-09-16T16:40:33.000Z</time>
      </trkpt>
      <trkpt lat="46.72437" lon="-2.34532">
        <ele>3.4</ele>
        <time>2018-09-16T16:40:34.000Z</time>
      </trkpt>
      <trkpt lat="46.72437" lon="-2.34532">
        <ele>3.4</ele>
        <time>2018-09-16T16:40:35.000Z</time>
      </trkpt>
      <trkpt lat="46.72437" lon="-2.34532">
        <ele>3.4</ele>
        <time>2018-09-16T16:40:36.000Z</time>
      </trkpt>
      <trkpt lat="46.72437" lon="-2.34532">
        <ele>3.4</ele>
        <time>2018-09-16T16:40:37.000Z</time>
      </trkpt>
      <trkpt lat="46.72437" lon="-2.34532">
        <ele>3.4</ele>
        <time>2018-09-16T16:40:38.000Z</time>
      </trkpt>
      <trkpt lat="46.72437" lon="-2.34532">
        <ele>3.4</ele>
        <time>2018-09-16T16:40:39.000Z</time>
      </trkpt>
      <trkpt lat="46.72437" lon="-2.34532">
        <ele>3.4</ele>
        <time>2018-09-16T16:40:40.000Z</time>
      </trkpt>
      <trkpt lat="46.72437" lon="-2.34532">
        <ele>3.4</ele>
        <time>2018-09-16T16:40:41.000Z</time>
      </trkpt>
      <trkpt lat="46.72437" lon="-2.34532">
        <ele>3.4</ele>
        <time>2018-09-16T16:40:42.000Z</time>
      </trkpt>
      <trkpt lat="46.72437" lon="-2.34532">
        <ele>3.4</ele>
        <time>2018-09-16T16:40:43.000Z</time>
      </trkpt>
      <trkpt lat="46.72437" lon="-2.34532">
        <ele>3.4</ele>
        <time>2018-09-16T16:40:44.000Z</time>
      </trkpt>
      <trkpt lat="46.72437" lon="-2.34532">
        <ele>3.4</ele>
        <time>2018-09-16T16:40:45.000Z</time>
      </trkpt>
      <trkpt lat="46.72437" lon="-2.34532">
        <ele>3.4</ele>
        <time>2018-09-16T16:40:46.000Z</time>
      </trkpt>
      <trkpt lat="46.72437" lon="-2.34532">
        <ele>3.4</ele>
        <time>2018-09-16T16:40:47.000Z</time>
      </trkpt>
      <trkpt lat="46.72437" lon="-2.34532">
        <ele>3.4</ele>
        <time>2018-09-16T16:40:48.000Z</time>
      </trkpt>
      <trkpt lat="46.72437" lon="-2.34532">
        <ele>3.4</ele>
        <time>2018-09-16T16:40:49.000Z</time>
      </trkpt>
      <trkpt lat="46.72437" lon="-2.34532">
        <ele>3.4</ele>
        <time>2018-09-16T16:40:50.000Z</time>
      </trkpt>
      <trkpt lat="46.72437" lon="-2.34532">
        <ele>3.4</ele>
        <time>2018-09-16T16:40:51.000Z</time>
      </trkpt>
      <trkpt lat="46.72437" lon="-2.34532">
        <ele>3.4</ele>
        <time>2018-09-16T16:40:52.000Z</time>
      </trkpt>
      <trkpt lat="46.72437" lon="-2.34532">
        <ele>3.4</ele>
        <time>2018-09-16T16:40:53.000Z</time>
      </trkpt>
      <trkpt lat="46.72437" lon="-2.34532">
        <ele>3.4</ele>
        <time>2018-09-16T16:40:54.000Z</time>
      </trkpt>
      <trkpt lat="46.72437" lon="-2.34532">
        <ele>3.4</ele>
        <time>2018-09-16T16:40:55.000Z</time>
      </trkpt>
      <trkpt lat="46.72437" lon="-2.34532">
        <ele>3.4</ele>
        <time>2018-09-16T16:40:56.000Z</time>
      </trkpt>
      <trkpt lat="46.72437" lon="-2.34532">
        <ele>3.4</ele>
        <time>2018-09-16T16:40:57.000Z</time>
      </trkpt>
      <trkpt lat="46.72437" lon="-2.34532">
        <ele>3.4</ele>
        <time>2018-09-16T16:40:58.000Z</time>
      </trkpt>
      <trkpt lat="46.72437" lon="-2.34532">
        <ele>3.4</ele>
        <time>2018-09-16T16:40:59.000Z</time>
      </trkpt>
      <trkpt lat="46.72437" lon="-2.34532">
        <ele>3.4</ele>
        <time>2018-09-16T16:41:00.000Z</time>
      </trkpt>
      <trkpt lat="46.72437" lon="-2.34532">
        <ele>3.4</ele>
        <time>2018-09-16T16:41:01.000Z</time>
      </trkpt>
      <trkpt lat="46.72437" lon="-2.34532">
        <ele>3.4</ele>
        <time>2018-09-16T16:41:02.000Z</time>
      </trkpt>
      <trkpt lat="46.72437" lon="-2.34532">
        <ele>3.4</ele>
        <time>2018-09-16T16:41:03.000Z</time>
      </trkpt>
      <trkpt lat="46.72437" lon="-2.34532">
        <ele>3.4</ele>
        <time>2018-09-16T16:41:04.000Z</time>
      </trkpt>
      <trkpt lat="46.72437" lon="-2.34532">
        <ele>3.4</ele>
        <time>2018-09-16T16:41:05.000Z</time>
      </trkpt>
      <trkpt lat="46.72437" lon="-2.34532">
        <ele>3.4</ele>
        <time>2018-09-16T16:41:06.000Z</time>
      </trkpt>
      <trkpt lat="46.72437" lon="-2.34532">
        <ele>3.4</ele>
        <time>2018-09-16T16:41:07.000Z</time>
      </trkpt>
      <trkpt lat="46.72437" lon="-2.34532">
        <ele>3.4</ele>
        <time>2018-09-16T16:41:08.000Z</time>
      </trkpt>
      <trkpt lat="46.72437" lon="-2.34532">
        <ele>3.4</ele>
        <time>2018-09-16T16:41:09.000Z</time>
      </trkpt>
      <trkpt lat="46.72437" lon="-2.34532">
        <ele>3.4</ele>
        <time>2018-09-16T16:41:10.000Z</time>
      </trkpt>
      <trkpt lat="46.72436" lon="-2.3453">
        <ele>3.5</ele>
        <time>2018-09-16T16:41:11.000Z</time>
      </trkpt>
      <trkpt lat="46.72435" lon="-2.34529">
        <ele>3.5</ele>
        <time>2018-09-16T16:41:12.000Z</time>
      </trkpt>
      <trkpt lat="46.72434" lon="-2.34528">
        <ele>3.5</ele>
        <time>2018-09-16T16:41:13.000Z</time>
      </trkpt>
      <trkpt lat="46.72434" lon="-2.34528">
        <ele>3.5</ele>
        <time>2018-09-16T16:41:14.000Z</time>
      </trkpt>
      <trkpt lat="46.72434" lon="-2.34528">
        <ele>3.5</ele>
        <time>2018-09-16T16:41:15.000Z</time>
      </trkpt>
      <trkpt lat="46.72434" lon="-2.34529">
        <ele>3.5</ele>
        <time>2018-09-16T16:41:16.000Z</time>
      </trkpt>
      <trkpt lat="46.72435" lon="-2.34529">
        <ele>3.5</ele>
        <time>2018-09-16T16:41:17.000Z</time>
      </trkpt>
      <trkpt lat="46.72435" lon="-2.34529">
        <ele>3.5</ele>
        <time>2018-09-16T16:41:18.000Z</time>
      </trkpt>
      <trkpt lat="46.72435" lon="-2.34528">
        <ele>3.5</ele>
        <time>2018-09-16T16:41:19.000Z</time>
      </trkpt>
      <trkpt lat="46.72435" lon="-2.34528">
        <ele>3.5</ele>
        <time>2018-09-16T16:41:20.000Z</time>
      </trkpt>
      <trkpt lat="46.72435" lon="-2.34528">
        <ele>3.5</ele>
        <time>2018-09-16T16:41:21.000Z</time>
      </trkpt>
      <trkpt lat="46.72435" lon="-2.34527">
        <ele>3.5</ele>
        <time>2018-09-16T16:41:22.000Z</time>
      </trkpt>
      <trkpt lat="46.72435" lon="-2.34527">
        <ele>3.5</ele>
        <time>2018-09-16T16:41:23.000Z</time>
      </trkpt>
      <trkpt lat="46.72435" lon="-2.34527">
        <ele>3.5</ele>
        <time>2018-09-16T16:41:24.000Z</time>
      </trkpt>
      <trkpt lat="46.72435" lon="-2.34526">
        <ele>3.5</ele>
        <time>2018-09-16T16:41:25.000Z</time>
      </trkpt>
      <trkpt lat="46.72435" lon="-2.34526">
        <ele>3.5</ele>
        <time>2018-09-16T16:41:26.000Z</time>
      </trkpt>
      <trkpt lat="46.72435" lon="-2.34526">
        <ele>3.5</ele>
        <time>2018-09-16T16:41:27.000Z</time>
      </trkpt>
      <trkpt lat="46.72435" lon="-2.34526">
        <ele>3.5</ele>
        <time>2018-09-16T16:41:28.000Z</time>
      </trkpt>
      <trkpt lat="46.72435" lon="-2.34526">
        <ele>3.5</ele>
        <time>2018-09-16T16:41:29.000Z</time>
      </trkpt>
      <trkpt lat="46.72435" lon="-2.34526">
        <ele>3.5</ele>
        <time>2018-09-16T16:41:30.000Z</time>
      </trkpt>
      <trkpt lat="46.72435" lon="-2.34526">
        <ele>3.5</ele>
        <time>2018-09-16T16:41:31.000Z</time>
      </trkpt>
      <trkpt lat="46.72435" lon="-2.34526">
        <ele>3.5</ele>
        <time>2018-09-16T16:41:32.000Z</time>
      </trkpt>
      <trkpt lat="46.72435" lon="-2.34526">
        <ele>3.5</ele>
        <time>2018-09-16T16:41:33.000Z</time>
      </trkpt>
      <trkpt lat="46.72435" lon="-2.34526">
        <ele>3.5</ele>
        <time>2018-09-16T16:41:34.000Z</time>
      </trkpt>
      <trkpt lat="46.72435" lon="-2.34526">
        <ele>3.5</ele>
        <time>2018-09-16T16:41:35.000Z</time>
      </trkpt>
      <trkpt lat="46.72435" lon="-2.34526">
        <ele>3.5</ele>
        <time>2018-09-16T16:41:36.000Z</time>
      </trkpt>
      <trkpt lat="46.72435" lon="-2.34526">
        <ele>3.5</ele>
        <time>2018-09-16T16:41:37.000Z</time>
      </trkpt>
      <trkpt lat="46.72435" lon="-2.34526">
        <ele>3.5</ele>
        <time>2018-09-16T16:41:38.000Z</time>
      </trkpt>
      <trkpt lat="46.72435" lon="-2.34526">
        <ele>3.5</ele>
        <time>2018-09-16T16:41:39.000Z</time>
      </trkpt>
      <trkpt lat="46.72435" lon="-2.34526">
        <ele>3.5</ele>
        <time>2018-09-16T16:41:40.000Z</time>
      </trkpt>
      <trkpt lat="46.72435" lon="-2.34526">
        <ele>3.5</ele>
        <time>2018-09-16T16:41:41.000Z</time>
      </trkpt>
      <trkpt lat="46.72435" lon="-2.34526">
        <ele>3.5</ele>
        <time>2018-09-16T16:41:42.000Z</time>
      </trkpt>
      <trkpt lat="46.72435" lon="-2.34526">
        <ele>3.5</ele>
        <time>2018-09-16T16:41:43.000Z</time>
      </trkpt>
      <trkpt lat="46.72435" lon="-2.34526">
        <ele>3.5</ele>
        <time>2018-09-16T16:41:44.000Z</time>
      </trkpt>
      <trkpt lat="46.72435" lon="-2.34526">
        <ele>3.5</ele>
        <time>2018-09-16T16:41:45.000Z</time>
      </trkpt>
      <trkpt lat="46.72435" lon="-2.34526">
        <ele>3.5</ele>
        <time>2018-09-16T16:41:46.000Z</time>
      </trkpt>
      <trkpt lat="46.72435" lon="-2.34526">
        <ele>3.5</ele>
        <time>2018-09-16T16:41:47.000Z</time>
      </trkpt>
      <trkpt lat="46.72435" lon="-2.34526">
        <ele>3.5</ele>
        <time>2018-09-16T16:41:48.000Z</time>
      </trkpt>
      <trkpt lat="46.72435" lon="-2.34526">
        <ele>3.5</ele>
        <time>2018-09-16T16:41:49.000Z</time>
      </trkpt>
      <trkpt lat="46.72435" lon="-2.34526">
        <ele>3.5</ele>
        <time>2018-09-16T16:41:50.000Z</time>
      </trkpt>
      <trkpt lat="46.72435" lon="-2.34526">
        <ele>3.5</ele>
        <time>2018-09-16T16:41:51.000Z</time>
      </trkpt>
      <trkpt lat="46.72435" lon="-2.34526">
        <ele>3.5</ele>
        <time>2018-09-16T16:41:52.000Z</time>
      </trkpt>
      <trkpt lat="46.72435" lon="-2.34526">
        <ele>3.5</ele>
        <time>2018-09-16T16:41:53.000Z</time>
      </trkpt>
      <trkpt lat="46.72435" lon="-2.34526">
        <ele>3.5</ele>
        <time>2018-09-16T16:41:54.000Z</time>
      </trkpt>
      <trkpt lat="46.72435" lon="-2.34526">
        <ele>3.5</ele>
        <time>2018-09-16T16:41:55.000Z</time>
      </trkpt>
      <trkpt lat="46.72435" lon="-2.34526">
        <ele>3.5</ele>
        <time>2018-09-16T16:41:56.000Z</time>
      </trkpt>
      <trkpt lat="46.72435" lon="-2.34526">
        <ele>3.5</ele>
        <time>2018-09-16T16:41:57.000Z</time>
      </trkpt>
      <trkpt lat="46.72435" lon="-2.34526">
        <ele>3.5</ele>
        <time>2018-09-16T16:41:58.000Z</time>
      </trkpt>
      <trkpt lat="46.72435" lon="-2.34526">
        <ele>3.5</ele>
        <time>2018-09-16T16:41:59.000Z</time>
      </trkpt>
      <trkpt lat="46.72435" lon="-2.34526">
        <ele>3.5</ele>
        <time>2018-09-16T16:42:00.000Z</time>
      </trkpt>
      <trkpt lat="46.72435" lon="-2.34526">
        <ele>3.5</ele>
        <time>2018-09-16T16:42:01.000Z</time>
      </trkpt>
      <trkpt lat="46.72435" lon="-2.34526">
        <ele>3.5</ele>
        <time>2018-09-16T16:42:02.000Z</time>
      </trkpt>
      <trkpt lat="46.72435" lon="-2.34526">
        <ele>3.5</ele>
        <time>2018-09-16T16:42:03.000Z</time>
      </trkpt>
      <trkpt lat="46.72435" lon="-2.34526">
        <ele>3.5</ele>
        <time>2018-09-16T16:42:04.000Z</time>
      </trkpt>
      <trkpt lat="46.72435" lon="-2.34526">
        <ele>3.5</ele>
        <time>2018-09-16T16:42:05.000Z</time>
      </trkpt>
      <trkpt lat="46.72435" lon="-2.34526">
        <ele>3.5</ele>
        <time>2018-09-16T16:42:06.000Z</time>
      </trkpt>
      <trkpt lat="46.72435" lon="-2.34526">
        <ele>3.5</ele>
        <time>2018-09-16T16:42:07.000Z</time>
      </trkpt>
      <trkpt lat="46.72435" lon="-2.34526">
        <ele>3.5</ele>
        <time>2018-09-16T16:42:08.000Z</time>
      </trkpt>
      <trkpt lat="46.72435" lon="-2.34526">
        <ele>3.5</ele>
        <time>2018-09-16T16:42:09.000Z</time>
      </trkpt>
      <trkpt lat="46.72435" lon="-2.34526">
        <ele>3.5</ele>
        <time>2018-09-16T16:42:10.000Z</time>
      </trkpt>
      <trkpt lat="46.72435" lon="-2.34526">
        <ele>3.5</ele>
        <time>2018-09-16T16:42:11.000Z</time>
      </trkpt>
      <trkpt lat="46.72435" lon="-2.34526">
        <ele>3.5</ele>
        <time>2018-09-16T16:42:12.000Z</time>
      </trkpt>
      <trkpt lat="46.72435" lon="-2.34526">
        <ele>3.5</ele>
        <time>2018-09-16T16:42:13.000Z</time>
      </trkpt>
      <trkpt lat="46.72435" lon="-2.34526">
        <ele>3.5</ele>
        <time>2018-09-16T16:42:14.000Z</time>
      </trkpt>
      <trkpt lat="46.72435" lon="-2.34526">
        <ele>3.5</ele>
        <time>2018-09-16T16:42:15.000Z</time>
      </trkpt>
      <trkpt lat="46.72435" lon="-2.34526">
        <ele>3.5</ele>
        <time>2018-09-16T16:42:16.000Z</time>
      </trkpt>
      <trkpt lat="46.72435" lon="-2.34528">
        <ele>3.5</ele>
        <time>2018-09-16T16:42:17.000Z</time>
      </trkpt>
      <trkpt lat="46.72435" lon="-2.3453">
        <ele>3.5</ele>
        <time>2018-09-16T16:42:18.000Z</time>
      </trkpt>
      <trkpt lat="46.72436" lon="-2.34533">
        <ele>3.5</ele>
        <time>2018-09-16T16:42:19.000Z</time>
      </trkpt>
      <trkpt lat="46.72436" lon="-2.34535">
        <ele>3.4</ele>
        <time>2018-09-16T16:42:20.000Z</time>
      </trkpt>
      <trkpt lat="46.72437" lon="-2.34537">
        <ele>3.4</ele>
        <time>2018-09-16T16:42:21.000Z</time>
      </trkpt>
      <trkpt lat="46.72437" lon="-2.34538">
        <ele>3.4</ele>
        <time>2018-09-16T16:42:22.000Z</time>
      </trkpt>
      <trkpt lat="46.72437" lon="-2.3454">
        <ele>3.4</ele>
        <time>2018-09-16T16:42:23.000Z</time>
      </trkpt>
      <trkpt lat="46.72437" lon="-2.34541">
        <ele>3.4</ele>
        <time>2018-09-16T16:42:24.000Z</time>
      </trkpt>
      <trkpt lat="46.72438" lon="-2.34542">
        <ele>3.4</ele>
        <time>2018-09-16T16:42:25.000Z</time>
      </trkpt>
      <trkpt lat="46.72438" lon="-2.34543">
        <ele>3.4</ele>
        <time>2018-09-16T16:42:26.000Z</time>
      </trkpt>
      <trkpt lat="46.72439" lon="-2.34544">
        <ele>3.3</ele>
        <time>2018-09-16T16:42:27.000Z</time>
      </trkpt>
      <trkpt lat="46.72439" lon="-2.34545">
        <ele>3.3</ele>
        <time>2018-09-16T16:42:28.000Z</time>
      </trkpt>
      <trkpt lat="46.72439" lon="-2.34546">
        <ele>3.3</ele>
        <time>2018-09-16T16:42:29.000Z</time>
      </trkpt>
      <trkpt lat="46.72439" lon="-2.34547">
        <ele>3.3</ele>
        <time>2018-09-16T16:42:30.000Z</time>
      </trkpt>
      <trkpt lat="46.72439" lon="-2.34547">
        <ele>3.3</ele>
        <time>2018-09-16T16:42:31.000Z</time>
      </trkpt>
      <trkpt lat="46.72439" lon="-2.34548">
        <ele>3.3</ele>
        <time>2018-09-16T16:42:32.000Z</time>
      </trkpt>
      <trkpt lat="46.72439" lon="-2.34549">
        <ele>3.3</ele>
        <time>2018-09-16T16:42:33.000Z</time>
      </trkpt>
      <trkpt lat="46.72439" lon="-2.3455">
        <ele>3.3</ele>
        <time>2018-09-16T16:42:34.000Z</time>
      </trkpt>
      <trkpt lat="46.72439" lon="-2.34551">
        <ele>3.3</ele>
        <time>2018-09-16T16:42:35.000Z</time>
      </trkpt>
      <trkpt lat="46.7244" lon="-2.34552">
        <ele>3.3</ele>
        <time>2018-09-16T16:42:36.000Z</time>
      </trkpt>
      <trkpt lat="46.7244" lon="-2.34553">
        <ele>3.3</ele>
        <time>2018-09-16T16:42:37.000Z</time>
      </trkpt>
      <trkpt lat="46.7244" lon="-2.34554">
        <ele>3.3</ele>
        <time>2018-09-16T16:42:38.000Z</time>
      </trkpt>
      <trkpt lat="46.7244" lon="-2.34554">
        <ele>3.2</ele>
        <time>2018-09-16T16:42:39.000Z</time>
      </trkpt>
      <trkpt lat="46.72441" lon="-2.34555">
        <ele>3.2</ele>
        <time>2018-09-16T16:42:40.000Z</time>
      </trkpt>
      <trkpt lat="46.72441" lon="-2.34556">
        <ele>3.2</ele>
        <time>2018-09-16T16:42:41.000Z</time>
      </trkpt>
      <trkpt lat="46.72441" lon="-2.34557">
        <ele>3.2</ele>
        <time>2018-09-16T16:42:42.000Z</time>
      </trkpt>
      <trkpt lat="46.72441" lon="-2.34558">
        <ele>3.2</ele>
        <time>2018-09-16T16:42:43.000Z</time>
      </trkpt>
      <trkpt lat="46.72441" lon="-2.34559">
        <ele>3.2</ele>
        <time>2018-09-16T16:42:44.000Z</time>
      </trkpt>
      <trkpt lat="46.72441" lon="-2.3456">
        <ele>3.2</ele>
        <time>2018-09-16T16:42:45.000Z</time>
      </trkpt>
      <trkpt lat="46.72441" lon="-2.34562">
        <ele>3.2</ele>
        <time>2018-09-16T16:42:46.000Z</time>
      </trkpt>
      <trkpt lat="46.72442" lon="-2.34563">
        <ele>3.2</ele>
        <time>2018-09-16T16:42:47.000Z</time>
      </trkpt>
      <trkpt lat="46.72442" lon="-2.34565">
        <ele>3.2</ele>
        <time>2018-09-16T16:42:48.000Z</time>
      </trkpt>
      <trkpt lat="46.72442" lon="-2.34566">
        <ele>3.2</ele>
        <time>2018-09-16T16:42:49.000Z</time>
      </trkpt>
      <trkpt lat="46.72442" lon="-2.34568">
        <ele>3.1</ele>
        <time>2018-09-16T16:42:50.000Z</time>
      </trkpt>
      <trkpt lat="46.72443" lon="-2.34569">
        <ele>3.1</ele>
        <time>2018-09-16T16:42:51.000Z</time>
      </trkpt>
      <trkpt lat="46.72443" lon="-2.3457">
        <ele>3.1</ele>
        <time>2018-09-16T16:42:52.000Z</time>
      </trkpt>
      <trkpt lat="46.72443" lon="-2.34572">
        <ele>3.1</ele>
        <time>2018-09-16T16:42:53.000Z</time>
      </trkpt>
      <trkpt lat="46.72444" lon="-2.34573">
        <ele>3.1</ele>
        <time>2018-09-16T16:42:54.000Z</time>
      </trkpt>
      <trkpt lat="46.72444" lon="-2.34574">
        <ele>3</ele>
        <time>2018-09-16T16:42:55.000Z</time>
      </trkpt>
      <trkpt lat="46.72445" lon="-2.34576">
        <ele>3</ele>
        <time>2018-09-16T16:42:56.000Z</time>
      </trkpt>
      <trkpt lat="46.72445" lon="-2.34577">
        <ele>3</ele>
        <time>2018-09-16T16:42:57.000Z</time>
      </trkpt>
      <trkpt lat="46.72446" lon="-2.34578">
        <ele>3</ele>
        <time>2018-09-16T16:42:58.000Z</time>
      </trkpt>
      <trkpt lat="46.72447" lon="-2.3458">
        <ele>2.9</ele>
        <time>2018-09-16T16:42:59.000Z</time>
      </trkpt>
      <trkpt lat="46.72447" lon="-2.34581">
        <ele>2.9</ele>
        <time>2018-09-16T16:43:00.000Z</time>
      </trkpt>
      <trkpt lat="46.72448" lon="-2.34582">
        <ele>2.9</ele>
        <time>2018-09-16T16:43:01.000Z</time>
      </trkpt>
      <trkpt lat="46.72449" lon="-2.34584">
        <ele>2.8</ele>
        <time>2018-09-16T16:43:02.000Z</time>
      </trkpt>
      <trkpt lat="46.7245" lon="-2.34585">
        <ele>2.8</ele>
        <time>2018-09-16T16:43:03.000Z</time>
      </trkpt>
      <trkpt lat="46.7245" lon="-2.34587">
        <ele>2.8</ele>
        <time>2018-09-16T16:43:04.000Z</time>
      </trkpt>
      <trkpt lat="46.72451" lon="-2.34588">
        <ele>2.8</ele>
        <time>2018-09-16T16:43:05.000Z</time>
      </trkpt>
      <trkpt lat="46.72452" lon="-2.34589">
        <ele>2.7</ele>
        <time>2018-09-16T16:43:06.000Z</time>
      </trkpt>
      <trkpt lat="46.72452" lon="-2.34591">
        <ele>2.7</ele>
        <time>2018-09-16T16:43:07.000Z</time>
      </trkpt>
      <trkpt lat="46.72453" lon="-2.34592">
        <ele>2.7</ele>
        <time>2018-09-16T16:43:08.000Z</time>
      </trkpt>
      <trkpt lat="46.72454" lon="-2.34593">
        <ele>2.7</ele>
        <time>2018-09-16T16:43:09.000Z</time>
      </trkpt>
      <trkpt lat="46.72454" lon="-2.34595">
        <ele>2.7</ele>
        <time>2018-09-16T16:43:10.000Z</time>
      </trkpt>
      <trkpt lat="46.72455" lon="-2.34596">
        <ele>2.6</ele>
        <time>2018-09-16T16:43:11.000Z</time>
      </trkpt>
      <trkpt lat="46.72455" lon="-2.34597">
        <ele>2.6</ele>
        <time>2018-09-16T16:43:12.000Z</time>
      </trkpt>
      <trkpt lat="46.72456" lon="-2.34598">
        <ele>2.6</ele>
        <time>2018-09-16T16:43:13.000Z</time>
      </trkpt>
      <trkpt lat="46.72456" lon="-2.34598">
        <ele>2.6</ele>
        <time>2018-09-16T16:43:14.000Z</time>
      </trkpt>
      <trkpt lat="46.72456" lon="-2.34599">
        <ele>2.6</ele>
        <time>2018-09-16T16:43:15.000Z</time>
      </trkpt>
      <trkpt lat="46.72457" lon="-2.34599">
        <ele>2.6</ele>
        <time>2018-09-16T16:43:16.000Z</time>
      </trkpt>
      <trkpt lat="46.72457" lon="-2.346">
        <ele>2.5</ele>
        <time>2018-09-16T16:43:17.000Z</time>
      </trkpt>
      <trkpt lat="46.72458" lon="-2.34601">
        <ele>2.5</ele>
        <time>2018-09-16T16:43:18.000Z</time>
      </trkpt>
      <trkpt lat="46.72458" lon="-2.34603">
        <ele>2.5</ele>
        <time>2018-09-16T16:43:19.000Z</time>
      </trkpt>
      <trkpt lat="46.72459" lon="-2.34604">
        <ele>2.5</ele>
        <time>2018-09-16T16:43:20.000Z</time>
      </trkpt>
      <trkpt lat="46.72459" lon="-2.34607">
        <ele>2.5</ele>
        <time>2018-09-16T16:43:21.000Z</time>
      </trkpt>
      <trkpt lat="46.72459" lon="-2.34609">
        <ele>2.5</ele>
        <time>2018-09-16T16:43:22.000Z</time>
      </trkpt>
      <trkpt lat="46.7246" lon="-2.34611">
        <ele>2.4</ele>
        <time>2018-09-16T16:43:23.000Z</time>
      </trkpt>
      <trkpt lat="46.7246" lon="-2.34613">
        <ele>2.4</ele>
        <time>2018-09-16T16:43:24.000Z</time>
      </trkpt>
      <trkpt lat="46.7246" lon="-2.34615">
        <ele>2.4</ele>
        <time>2018-09-16T16:43:25.000Z</time>
      </trkpt>
      <trkpt lat="46.72461" lon="-2.34616">
        <ele>2.4</ele>
        <time>2018-09-16T16:43:26.000Z</time>
      </trkpt>
      <trkpt lat="46.72461" lon="-2.34618">
        <ele>2.4</ele>
        <time>2018-09-16T16:43:27.000Z</time>
      </trkpt>
      <trkpt lat="46.72461" lon="-2.34619">
        <ele>2.4</ele>
        <time>2018-09-16T16:43:28.000Z</time>
      </trkpt>
      <trkpt lat="46.72462" lon="-2.3462">
        <ele>2.4</ele>
        <time>2018-09-16T16:43:29.000Z</time>
      </trkpt>
      <trkpt lat="46.72462" lon="-2.34622">
        <ele>2.4</ele>
        <time>2018-09-16T16:43:30.000Z</time>
      </trkpt>
      <trkpt lat="46.72463" lon="-2.34623">
        <ele>2.3</ele>
        <time>2018-09-16T16:43:31.000Z</time>
      </trkpt>
      <trkpt lat="46.72463" lon="-2.34624">
        <ele>2.3</ele>
        <time>2018-09-16T16:43:32.000Z</time>
      </trkpt>
      <trkpt lat="46.72464" lon="-2.34625">
        <ele>2.3</ele>
        <time>2018-09-16T16:43:33.000Z</time>
      </trkpt>
      <trkpt lat="46.72464" lon="-2.34626">
        <ele>2.3</ele>
        <time>2018-09-16T16:43:34.000Z</time>
      </trkpt>
      <trkpt lat="46.72465" lon="-2.34627">
        <ele>2.3</ele>
        <time>2018-09-16T16:43:35.000Z</time>
      </trkpt>
      <trkpt lat="46.72465" lon="-2.34628">
        <ele>2.3</ele>
        <time>2018-09-16T16:43:36.000Z</time>
      </trkpt>
      <trkpt lat="46.72465" lon="-2.34629">
        <ele>2.2</ele>
        <time>2018-09-16T16:43:37.000Z</time>
      </trkpt>
      <trkpt lat="46.72465" lon="-2.34631">
        <ele>2.2</ele>
        <time>2018-09-16T16:43:38.000Z</time>
      </trkpt>
      <trkpt lat="46.72465" lon="-2.34632">
        <ele>2.3</ele>
        <time>2018-09-16T16:43:39.000Z</time>
      </trkpt>
      <trkpt lat="46.72465" lon="-2.34633">
        <ele>2.3</ele>
        <time>2018-09-16T16:43:40.000Z</time>
      </trkpt>
      <trkpt lat="46.72465" lon="-2.34635">
        <ele>2.3</ele>
        <time>2018-09-16T16:43:41.000Z</time>
      </trkpt>
      <trkpt lat="46.72465" lon="-2.34636">
        <ele>2.3</ele>
        <time>2018-09-16T16:43:42.000Z</time>
      </trkpt>
      <trkpt lat="46.72464" lon="-2.34638">
        <ele>2.3</ele>
        <time>2018-09-16T16:43:43.000Z</time>
      </trkpt>
      <trkpt lat="46.72464" lon="-2.3464">
        <ele>2.3</ele>
        <time>2018-09-16T16:43:44.000Z</time>
      </trkpt>
      <trkpt lat="46.72464" lon="-2.34641">
        <ele>2.3</ele>
        <time>2018-09-16T16:43:45.000Z</time>
      </trkpt>
      <trkpt lat="46.72464" lon="-2.34643">
        <ele>2.3</ele>
        <time>2018-09-16T16:43:46.000Z</time>
      </trkpt>
      <trkpt lat="46.72464" lon="-2.34645">
        <ele>2.3</ele>
        <time>2018-09-16T16:43:47.000Z</time>
      </trkpt>
      <trkpt lat="46.72464" lon="-2.34646">
        <ele>2.3</ele>
        <time>2018-09-16T16:43:48.000Z</time>
      </trkpt>
      <trkpt lat="46.72465" lon="-2.34648">
        <ele>2.3</ele>
        <time>2018-09-16T16:43:49.000Z</time>
      </trkpt>
      <trkpt lat="46.72465" lon="-2.3465">
        <ele>2.3</ele>
        <time>2018-09-16T16:43:50.000Z</time>
      </trkpt>
      <trkpt lat="46.72465" lon="-2.34651">
        <ele>2.3</ele>
        <time>2018-09-16T16:43:51.000Z</time>
      </trkpt>
      <trkpt lat="46.72465" lon="-2.34653">
        <ele>2.3</ele>
        <time>2018-09-16T16:43:52.000Z</time>
      </trkpt>
      <trkpt lat="46.72465" lon="-2.34655">
        <ele>2.3</ele>
        <time>2018-09-16T16:43:53.000Z</time>
      </trkpt>
      <trkpt lat="46.72465" lon="-2.34656">
        <ele>2.3</ele>
        <time>2018-09-16T16:43:54.000Z</time>
      </trkpt>
      <trkpt lat="46.72465" lon="-2.34658">
        <ele>2.3</ele>
        <time>2018-09-16T16:43:55.000Z</time>
      </trkpt>
      <trkpt lat="46.72465" lon="-2.34659">
        <ele>2.3</ele>
        <time>2018-09-16T16:43:56.000Z</time>
      </trkpt>
      <trkpt lat="46.72464" lon="-2.34661">
        <ele>2.3</ele>
        <time>2018-09-16T16:43:57.000Z</time>
      </trkpt>
      <trkpt lat="46.72464" lon="-2.34662">
        <ele>2.3</ele>
        <time>2018-09-16T16:43:58.000Z</time>
      </trkpt>
      <trkpt lat="46.72463" lon="-2.34663">
        <ele>2.3</ele>
        <time>2018-09-16T16:43:59.000Z</time>
      </trkpt>
      <trkpt lat="46.72462" lon="-2.34664">
        <ele>2.4</ele>
        <time>2018-09-16T16:44:00.000Z</time>
      </trkpt>
      <trkpt lat="46.72462" lon="-2.34666">
        <ele>2.4</ele>
        <time>2018-09-16T16:44:01.000Z</time>
      </trkpt>
      <trkpt lat="46.72461" lon="-2.34667">
        <ele>2.4</ele>
        <time>2018-09-16T16:44:02.000Z</time>
      </trkpt>
      <trkpt lat="46.7246" lon="-2.34668">
        <ele>2.4</ele>
        <time>2018-09-16T16:44:03.000Z</time>
      </trkpt>
      <trkpt lat="46.72459" lon="-2.3467">
        <ele>2.5</ele>
        <time>2018-09-16T16:44:04.000Z</time>
      </trkpt>
      <trkpt lat="46.72459" lon="-2.34671">
        <ele>2.5</ele>
        <time>2018-09-16T16:44:05.000Z</time>
      </trkpt>
      <trkpt lat="46.72458" lon="-2.34672">
        <ele>2.5</ele>
        <time>2018-09-16T16:44:06.000Z</time>
      </trkpt>
      <trkpt lat="46.72457" lon="-2.34673">
        <ele>2.6</ele>
        <time>2018-09-16T16:44:07.000Z</time>
      </trkpt>
      <trkpt lat="46.72457" lon="-2.34675">
        <ele>2.6</ele>
        <time>2018-09-16T16:44:08.000Z</time>
      </trkpt>
      <trkpt lat="46.72456" lon="-2.34676">
        <ele>2.6</ele>
        <time>2018-09-16T16:44:09.000Z</time>
      </trkpt>
      <trkpt lat="46.72455" lon="-2.34677">
        <ele>2.7</ele>
        <time>2018-09-16T16:44:10.000Z</time>
      </trkpt>
      <trkpt lat="46.72455" lon="-2.34678">
        <ele>2.7</ele>
        <time>2018-09-16T16:44:11.000Z</time>
      </trkpt>
      <trkpt lat="46.72454" lon="-2.34679">
        <ele>2.7</ele>
        <time>2018-09-16T16:44:12.000Z</time>
      </trkpt>
      <trkpt lat="46.72454" lon="-2.3468">
        <ele>2.8</ele>
        <time>2018-09-16T16:44:13.000Z</time>
      </trkpt>
      <trkpt lat="46.72453" lon="-2.34681">
        <ele>2.8</ele>
        <time>2018-09-16T16:44:14.000Z</time>
      </trkpt>
      <trkpt lat="46.72453" lon="-2.34682">
        <ele>2.8</ele>
        <time>2018-09-16T16:44:15.000Z</time>
      </trkpt>
      <trkpt lat="46.72453" lon="-2.34683">
        <ele>2.8</ele>
        <time>2018-09-16T16:44:16.000Z</time>
      </trkpt>
      <trkpt lat="46.72452" lon="-2.34684">
        <ele>2.8</ele>
        <time>2018-09-16T16:44:17.000Z</time>
      </trkpt>
      <trkpt lat="46.72452" lon="-2.34685">
        <ele>2.9</ele>
        <time>2018-09-16T16:44:18.000Z</time>
      </trkpt>
      <trkpt lat="46.72452" lon="-2.34686">
        <ele>2.9</ele>
        <time>2018-09-16T16:44:19.000Z</time>
      </trkpt>
      <trkpt lat="46.72452" lon="-2.34688">
        <ele>2.9</ele>
        <time>2018-09-16T16:44:20.000Z</time>
      </trkpt>
      <trkpt lat="46.72451" lon="-2.34689">
        <ele>2.9</ele>
        <time>2018-09-16T16:44:21.000Z</time>
      </trkpt>
      <trkpt lat="46.72451" lon="-2.3469">
        <ele>2.9</ele>
        <time>2018-09-16T16:44:22.000Z</time>
      </trkpt>
      <trkpt lat="46.72451" lon="-2.34692">
        <ele>3</ele>
        <time>2018-09-16T16:44:23.000Z</time>
      </trkpt>
      <trkpt lat="46.7245" lon="-2.34693">
        <ele>3</ele>
        <time>2018-09-16T16:44:24.000Z</time>
      </trkpt>
      <trkpt lat="46.7245" lon="-2.34695">
        <ele>3</ele>
        <time>2018-09-16T16:44:25.000Z</time>
      </trkpt>
      <trkpt lat="46.7245" lon="-2.34696">
        <ele>3</ele>
        <time>2018-09-16T16:44:26.000Z</time>
      </trkpt>
      <trkpt lat="46.72449" lon="-2.34697">
        <ele>3.1</ele>
        <time>2018-09-16T16:44:27.000Z</time>
      </trkpt>
      <trkpt lat="46.72449" lon="-2.34699">
        <ele>3.1</ele>
        <time>2018-09-16T16:44:28.000Z</time>
      </trkpt>
      <trkpt lat="46.72448" lon="-2.347">
        <ele>3.1</ele>
        <time>2018-09-16T16:44:29.000Z</time>
      </trkpt>
      <trkpt lat="46.72447" lon="-2.34701">
        <ele>3.2</ele>
        <time>2018-09-16T16:44:30.000Z</time>
      </trkpt>
      <trkpt lat="46.72447" lon="-2.34703">
        <ele>3.2</ele>
        <time>2018-09-16T16:44:31.000Z</time>
      </trkpt>
      <trkpt lat="46.72446" lon="-2.34704">
        <ele>3.2</ele>
        <time>2018-09-16T16:44:32.000Z</time>
      </trkpt>
      <trkpt lat="46.72446" lon="-2.34705">
        <ele>3.2</ele>
        <time>2018-09-16T16:44:33.000Z</time>
      </trkpt>
      <trkpt lat="46.72446" lon="-2.34706">
        <ele>3.3</ele>
        <time>2018-09-16T16:44:34.000Z</time>
      </trkpt>
      <trkpt lat="46.72445" lon="-2.34707">
        <ele>3.3</ele>
        <time>2018-09-16T16:44:35.000Z</time>
      </trkpt>
      <trkpt lat="46.72445" lon="-2.34708">
        <ele>3.3</ele>
        <time>2018-09-16T16:44:36.000Z</time>
      </trkpt>
      <trkpt lat="46.72444" lon="-2.34709">
        <ele>3.3</ele>
        <time>2018-09-16T16:44:37.000Z</time>
      </trkpt>
      <trkpt lat="46.72444" lon="-2.3471">
        <ele>3.4</ele>
        <time>2018-09-16T16:44:38.000Z</time>
      </trkpt>
      <trkpt lat="46.72444" lon="-2.34711">
        <ele>3.4</ele>
        <time>2018-09-16T16:44:39.000Z</time>
      </trkpt>
      <trkpt lat="46.72443" lon="-2.34713">
        <ele>3.4</ele>
        <time>2018-09-16T16:44:40.000Z</time>
      </trkpt>
      <trkpt lat="46.72443" lon="-2.34714">
        <ele>3.4</ele>
        <time>2018-09-16T16:44:41.000Z</time>
      </trkpt>
      <trkpt lat="46.72443" lon="-2.34715">
        <ele>3.5</ele>
        <time>2018-09-16T16:44:42.000Z</time>
      </trkpt>
      <trkpt lat="46.72442" lon="-2.34716">
        <ele>3.5</ele>
        <time>2018-09-16T16:44:43.000Z</time>
      </trkpt>
      <trkpt lat="46.72442" lon="-2.34717">
        <ele>3.5</ele>
        <time>2018-09-16T16:44:44.000Z</time>
      </trkpt>
      <trkpt lat="46.72441" lon="-2.34719">
        <ele>3.6</ele>
        <time>2018-09-16T16:44:45.000Z</time>
      </trkpt>
      <trkpt lat="46.72441" lon="-2.3472">
        <ele>3.6</ele>
        <time>2018-09-16T16:44:46.000Z</time>
      </trkpt>
      <trkpt lat="46.7244" lon="-2.34721">
        <ele>3.6</ele>
        <time>2018-09-16T16:44:47.000Z</time>
      </trkpt>
      <trkpt lat="46.7244" lon="-2.34722">
        <ele>3.6</ele>
        <time>2018-09-16T16:44:48.000Z</time>
      </trkpt>
      <trkpt lat="46.7244" lon="-2.34722">
        <ele>3.7</ele>
        <time>2018-09-16T16:44:49.000Z</time>
      </trkpt>
      <trkpt lat="46.7244" lon="-2.34723">
        <ele>3.7</ele>
        <time>2018-09-16T16:44:50.000Z</time>
      </trkpt>
      <trkpt lat="46.72439" lon="-2.34723">
        <ele>3.7</ele>
        <time>2018-09-16T16:44:51.000Z</time>
      </trkpt>
      <trkpt lat="46.72439" lon="-2.34723">
        <ele>3.7</ele>
        <time>2018-09-16T16:44:52.000Z</time>
      </trkpt>
      <trkpt lat="46.72439" lon="-2.34724">
        <ele>3.7</ele>
        <time>2018-09-16T16:44:53.000Z</time>
      </trkpt>
      <trkpt lat="46.72439" lon="-2.34724">
        <ele>3.7</ele>
        <time>2018-09-16T16:44:54.000Z</time>
      </trkpt>
      <trkpt lat="46.72439" lon="-2.34725">
        <ele>3.7</ele>
        <time>2018-09-16T16:44:55.000Z</time>
      </trkpt>
      <trkpt lat="46.7244" lon="-2.34725">
        <ele>3.7</ele>
        <time>2018-09-16T16:44:56.000Z</time>
      </trkpt>
      <trkpt lat="46.7244" lon="-2.34725">
        <ele>3.7</ele>
        <time>2018-09-16T16:44:57.000Z</time>
      </trkpt>
      <trkpt lat="46.72441" lon="-2.34726">
        <ele>3.6</ele>
        <time>2018-09-16T16:44:58.000Z</time>
      </trkpt>
      <trkpt lat="46.72442" lon="-2.34726">
        <ele>3.6</ele>
        <time>2018-09-16T16:44:59.000Z</time>
      </trkpt>
      <trkpt lat="46.72442" lon="-2.34727">
        <ele>3.6</ele>
        <time>2018-09-16T16:45:00.000Z</time>
      </trkpt>
      <trkpt lat="46.72443" lon="-2.34727">
        <ele>3.5</ele>
        <time>2018-09-16T16:45:01.000Z</time>
      </trkpt>
      <trkpt lat="46.72444" lon="-2.34727">
        <ele>3.5</ele>
        <time>2018-09-16T16:45:02.000Z</time>
      </trkpt>
      <trkpt lat="46.72445" lon="-2.34728">
        <ele>3.4</ele>
        <time>2018-09-16T16:45:03.000Z</time>
      </trkpt>
      <trkpt lat="46.72446" lon="-2.34728">
        <ele>3.4</ele>
        <time>2018-09-16T16:45:04.000Z</time>
      </trkpt>
      <trkpt lat="46.72447" lon="-2.34728">
        <ele>3.4</ele>
        <time>2018-09-16T16:45:05.000Z</time>
      </trkpt>
      <trkpt lat="46.72448" lon="-2.34728">
        <ele>3.3</ele>
        <time>2018-09-16T16:45:06.000Z</time>
      </trkpt>
      <trkpt lat="46.72448" lon="-2.34728">
        <ele>3.3</ele>
        <time>2018-09-16T16:45:07.000Z</time>
      </trkpt>
      <trkpt lat="46.72449" lon="-2.34729">
        <ele>3.3</ele>
        <time>2018-09-16T16:45:08.000Z</time>
      </trkpt>
      <trkpt lat="46.72449" lon="-2.34729">
        <ele>3.3</ele>
        <time>2018-09-16T16:45:09.000Z</time>
      </trkpt>
      <trkpt lat="46.7245" lon="-2.34729">
        <ele>3.3</ele>
        <time>2018-09-16T16:45:10.000Z</time>
      </trkpt>
      <trkpt lat="46.7245" lon="-2.34729">
        <ele>3.2</ele>
        <time>2018-09-16T16:45:11.000Z</time>
      </trkpt>
      <trkpt lat="46.7245" lon="-2.34729">
        <ele>3.2</ele>
        <time>2018-09-16T16:45:12.000Z</time>
      </trkpt>
      <trkpt lat="46.72451" lon="-2.34729">
        <ele>3.2</ele>
        <time>2018-09-16T16:45:13.000Z</time>
      </trkpt>
      <trkpt lat="46.72451" lon="-2.34729">
        <ele>3.2</ele>
        <time>2018-09-16T16:45:14.000Z</time>
      </trkpt>
      <trkpt lat="46.72451" lon="-2.34729">
        <ele>3.2</ele>
        <time>2018-09-16T16:45:15.000Z</time>
      </trkpt>
      <trkpt lat="46.72451" lon="-2.34729">
        <ele>3.2</ele>
        <time>2018-09-16T16:45:16.000Z</time>
      </trkpt>
      <trkpt lat="46.72451" lon="-2.34729">
        <ele>3.2</ele>
        <time>2018-09-16T16:45:17.000Z</time>
      </trkpt>
      <trkpt lat="46.72451" lon="-2.34729">
        <ele>3.2</ele>
        <time>2018-09-16T16:45:18.000Z</time>
      </trkpt>
      <trkpt lat="46.72451" lon="-2.34729">
        <ele>3.2</ele>
        <time>2018-09-16T16:45:19.000Z</time>
      </trkpt>
      <trkpt lat="46.72451" lon="-2.34729">
        <ele>3.2</ele>
        <time>2018-09-16T16:45:20.000Z</time>
      </trkpt>
      <trkpt lat="46.72451" lon="-2.34729">
        <ele>3.2</ele>
        <time>2018-09-16T16:45:21.000Z</time>
      </trkpt>
      <trkpt lat="46.72451" lon="-2.34729">
        <ele>3.2</ele>
        <time>2018-09-16T16:45:22.000Z</time>
      </trkpt>
      <trkpt lat="46.72451" lon="-2.34729">
        <ele>3.2</ele>
        <time>2018-09-16T16:45:23.000Z</time>
      </trkpt>
      <trkpt lat="46.72451" lon="-2.34729">
        <ele>3.2</ele>
        <time>2018-09-16T16:45:24.000Z</time>
      </trkpt>
      <trkpt lat="46.72451" lon="-2.34729">
        <ele>3.2</ele>
        <time>2018-09-16T16:45:25.000Z</time>
      </trkpt>
      <trkpt lat="46.72451" lon="-2.34729">
        <ele>3.2</ele>
        <time>2018-09-16T16:45:26.000Z</time>
      </trkpt>
      <trkpt lat="46.72452" lon="-2.3473">
        <ele>3.2</ele>
        <time>2018-09-16T16:45:27.000Z</time>
      </trkpt>
      <trkpt lat="46.72452" lon="-2.3473">
        <ele>3.2</ele>
        <time>2018-09-16T16:45:28.000Z</time>
      </trkpt>
      <trkpt lat="46.72453" lon="-2.34731">
        <ele>3.1</ele>
        <time>2018-09-16T16:45:29.000Z</time>
      </trkpt>
      <trkpt lat="46.72454" lon="-2.34731">
        <ele>3.1</ele>
        <time>2018-09-16T16:45:30.000Z</time>
      </trkpt>
      <trkpt lat="46.72454" lon="-2.34731">
        <ele>3.1</ele>
        <time>2018-09-16T16:45:31.000Z</time>
      </trkpt>
      <trkpt lat="46.72454" lon="-2.34731">
        <ele>3.1</ele>
        <time>2018-09-16T16:45:32.000Z</time>
      </trkpt>
      <trkpt lat="46.72454" lon="-2.34731">
        <ele>3.1</ele>
        <time>2018-09-16T16:45:33.000Z</time>
      </trkpt>
      <trkpt lat="46.72454" lon="-2.34731">
        <ele>3.1</ele>
        <time>2018-09-16T16:45:34.000Z</time>
      </trkpt>
      <trkpt lat="46.72454" lon="-2.34731">
        <ele>3.1</ele>
        <time>2018-09-16T16:45:35.000Z</time>
      </trkpt>
      <trkpt lat="46.72454" lon="-2.34731">
        <ele>3.1</ele>
        <time>2018-09-16T16:45:36.000Z</time>
      </trkpt>
      <trkpt lat="46.72454" lon="-2.34731">
        <ele>3.1</ele>
        <time>2018-09-16T16:45:37.000Z</time>
      </trkpt>
      <trkpt lat="46.72454" lon="-2.34731">
        <ele>3.1</ele>
        <time>2018-09-16T16:45:38.000Z</time>
      </trkpt>
      <trkpt lat="46.72454" lon="-2.34731">
        <ele>3.1</ele>
        <time>2018-09-16T16:45:39.000Z</time>
      </trkpt>
      <trkpt lat="46.72454" lon="-2.34731">
        <ele>3.1</ele>
        <time>2018-09-16T16:45:40.000Z</time>
      </trkpt>
      <trkpt lat="46.72454" lon="-2.34731">
        <ele>3.1</ele>
        <time>2018-09-16T16:45:41.000Z</time>
      </trkpt>
      <trkpt lat="46.72454" lon="-2.34731">
        <ele>3.1</ele>
        <time>2018-09-16T16:45:42.000Z</time>
      </trkpt>
      <trkpt lat="46.72454" lon="-2.34731">
        <ele>3.1</ele>
        <time>2018-09-16T16:45:43.000Z</time>
      </trkpt>
      <trkpt lat="46.72454" lon="-2.34731">
        <ele>3.1</ele>
        <time>2018-09-16T16:45:44.000Z</time>
      </trkpt>
      <trkpt lat="46.72454" lon="-2.34731">
        <ele>3.1</ele>
        <time>2018-09-16T16:45:45.000Z</time>
      </trkpt>
      <trkpt lat="46.72454" lon="-2.34731">
        <ele>3.1</ele>
        <time>2018-09-16T16:45:46.000Z</time>
      </trkpt>
      <trkpt lat="46.72454" lon="-2.34731">
        <ele>3.1</ele>
        <time>2018-09-16T16:45:47.000Z</time>
      </trkpt>
      <trkpt lat="46.72454" lon="-2.34731">
        <ele>3.1</ele>
        <time>2018-09-16T16:45:48.000Z</time>
      </trkpt>
      <trkpt lat="46.72455" lon="-2.34731">
        <ele>3.1</ele>
        <time>2018-09-16T16:45:49.000Z</time>
      </trkpt>
      <trkpt lat="46.72456" lon="-2.3473">
        <ele>3</ele>
        <time>2018-09-16T16:45:50.000Z</time>
      </trkpt>
      <trkpt lat="46.72456" lon="-2.34729">
        <ele>3</ele>
        <time>2018-09-16T16:45:51.000Z</time>
      </trkpt>
      <trkpt lat="46.72456" lon="-2.34729">
        <ele>3</ele>
        <time>2018-09-16T16:45:52.000Z</time>
      </trkpt>
      <trkpt lat="46.72456" lon="-2.34729">
        <ele>3</ele>
        <time>2018-09-16T16:45:53.000Z</time>
      </trkpt>
      <trkpt lat="46.72456" lon="-2.34729">
        <ele>3</ele>
        <time>2018-09-16T16:45:54.000Z</time>
      </trkpt>
      <trkpt lat="46.72456" lon="-2.34729">
        <ele>3</ele>
        <time>2018-09-16T16:45:55.000Z</time>
      </trkpt>
      <trkpt lat="46.72456" lon="-2.34729">
        <ele>3</ele>
        <time>2018-09-16T16:45:56.000Z</time>
      </trkpt>
      <trkpt lat="46.72456" lon="-2.34729">
        <ele>3</ele>
        <time>2018-09-16T16:45:57.000Z</time>
      </trkpt>
      <trkpt lat="46.72456" lon="-2.34729">
        <ele>3</ele>
        <time>2018-09-16T16:45:58.000Z</time>
      </trkpt>
      <trkpt lat="46.72456" lon="-2.34729">
        <ele>3</ele>
        <time>2018-09-16T16:45:59.000Z</time>
      </trkpt>
      <trkpt lat="46.72456" lon="-2.34729">
        <ele>3</ele>
        <time>2018-09-16T16:46:00.000Z</time>
      </trkpt>
      <trkpt lat="46.72456" lon="-2.34729">
        <ele>3</ele>
        <time>2018-09-16T16:46:01.000Z</time>
      </trkpt>
      <trkpt lat="46.72456" lon="-2.34729">
        <ele>3</ele>
        <time>2018-09-16T16:46:02.000Z</time>
      </trkpt>
      <trkpt lat="46.72456" lon="-2.34729">
        <ele>3</ele>
        <time>2018-09-16T16:46:03.000Z</time>
      </trkpt>
      <trkpt lat="46.72456" lon="-2.34729">
        <ele>3</ele>
        <time>2018-09-16T16:46:04.000Z</time>
      </trkpt>
      <trkpt lat="46.72456" lon="-2.34729">
        <ele>3</ele>
        <time>2018-09-16T16:46:05.000Z</time>
      </trkpt>
      <trkpt lat="46.72456" lon="-2.34729">
        <ele>3</ele>
        <time>2018-09-16T16:46:06.000Z</time>
      </trkpt>
      <trkpt lat="46.72456" lon="-2.34729">
        <ele>3</ele>
        <time>2018-09-16T16:46:07.000Z</time>
      </trkpt>
      <trkpt lat="46.72456" lon="-2.34729">
        <ele>3</ele>
        <time>2018-09-16T16:46:08.000Z</time>
      </trkpt>
      <trkpt lat="46.72456" lon="-2.34729">
        <ele>3</ele>
        <time>2018-09-16T16:46:09.000Z</time>
      </trkpt>
      <trkpt lat="46.72456" lon="-2.34729">
        <ele>3</ele>
        <time>2018-09-16T16:46:10.000Z</time>
      </trkpt>
      <trkpt lat="46.72456" lon="-2.34729">
        <ele>3</ele>
        <time>2018-09-16T16:46:11.000Z</time>
      </trkpt>
      <trkpt lat="46.72456" lon="-2.34729">
        <ele>3</ele>
        <time>2018-09-16T16:46:12.000Z</time>
      </trkpt>
      <trkpt lat="46.72456" lon="-2.34729">
        <ele>3</ele>
        <time>2018-09-16T16:46:13.000Z</time>
      </trkpt>
      <trkpt lat="46.72456" lon="-2.34729">
        <ele>3</ele>
        <time>2018-09-16T16:46:14.000Z</time>
      </trkpt>
      <trkpt lat="46.72456" lon="-2.34729">
        <ele>3</ele>
        <time>2018-09-16T16:46:15.000Z</time>
      </trkpt>
      <trkpt lat="46.72456" lon="-2.34729">
        <ele>3</ele>
        <time>2018-09-16T16:46:16.000Z</time>
      </trkpt>
      <trkpt lat="46.72456" lon="-2.34729">
        <ele>3</ele>
        <time>2018-09-16T16:46:17.000Z</time>
      </trkpt>
      <trkpt lat="46.72456" lon="-2.34729">
        <ele>3</ele>
        <time>2018-09-16T16:46:18.000Z</time>
      </trkpt>
      <trkpt lat="46.72456" lon="-2.34729">
        <ele>3</ele>
        <time>2018-09-16T16:46:19.000Z</time>
      </trkpt>
      <trkpt lat="46.72456" lon="-2.34729">
        <ele>3</ele>
        <time>2018-09-16T16:46:20.000Z</time>
      </trkpt>
      <trkpt lat="46.72456" lon="-2.34729">
        <ele>3</ele>
        <time>2018-09-16T16:46:21.000Z</time>
      </trkpt>
      <trkpt lat="46.72456" lon="-2.34729">
        <ele>3</ele>
        <time>2018-09-16T16:46:22.000Z</time>
      </trkpt>
      <trkpt lat="46.72456" lon="-2.34729">
        <ele>3</ele>
        <time>2018-09-16T16:46:23.000Z</time>
      </trkpt>
      <trkpt lat="46.72456" lon="-2.34729">
        <ele>3</ele>
        <time>2018-09-16T16:46:24.000Z</time>
      </trkpt>
      <trkpt lat="46.72456" lon="-2.34729">
        <ele>3</ele>
        <time>2018-09-16T16:46:25.000Z</time>
      </trkpt>
      <trkpt lat="46.72456" lon="-2.34729">
        <ele>3</ele>
        <time>2018-09-16T16:46:26.000Z</time>
      </trkpt>
      <trkpt lat="46.72456" lon="-2.34729">
        <ele>3</ele>
        <time>2018-09-16T16:46:27.000Z</time>
      </trkpt>
      <trkpt lat="46.72456" lon="-2.34729">
        <ele>3</ele>
        <time>2018-09-16T16:46:28.000Z</time>
      </trkpt>
      <trkpt lat="46.72456" lon="-2.34729">
        <ele>3</ele>
        <time>2018-09-16T16:46:29.000Z</time>
      </trkpt>
      <trkpt lat="46.72456" lon="-2.34729">
        <ele>3</ele>
        <time>2018-09-16T16:46:30.000Z</time>
      </trkpt>
      <trkpt lat="46.72456" lon="-2.34729">
        <ele>3</ele>
        <time>2018-09-16T16:46:31.000Z</time>
      </trkpt>
      <trkpt lat="46.72456" lon="-2.34729">
        <ele>3</ele>
        <time>2018-09-16T16:46:32.000Z</time>
      </trkpt>
      <trkpt lat="46.72456" lon="-2.34729">
        <ele>3</ele>
        <time>2018-09-16T16:46:33.000Z</time>
      </trkpt>
      <trkpt lat="46.72456" lon="-2.34729">
        <ele>3</ele>
        <time>2018-09-16T16:46:34.000Z</time>
      </trkpt>
      <trkpt lat="46.72456" lon="-2.34729">
        <ele>3</ele>
        <time>2018-09-16T16:46:35.000Z</time>
      </trkpt>
      <trkpt lat="46.72456" lon="-2.34729">
        <ele>3</ele>
        <time>2018-09-16T16:46:36.000Z</time>
      </trkpt>
      <trkpt lat="46.72456" lon="-2.34729">
        <ele>3</ele>
        <time>2018-09-16T16:46:37.000Z</time>
      </trkpt>
      <trkpt lat="46.72456" lon="-2.34729">
        <ele>3</ele>
        <time>2018-09-16T16:46:38.000Z</time>
      </trkpt>
      <trkpt lat="46.72456" lon="-2.34729">
        <ele>3</ele>
        <time>2018-09-16T16:46:39.000Z</time>
      </trkpt>
      <trkpt lat="46.72456" lon="-2.34729">
        <ele>3</ele>
        <time>2018-09-16T16:46:40.000Z</time>
      </trkpt>
      <trkpt lat="46.72456" lon="-2.34729">
        <ele>3</ele>
        <time>2018-09-16T16:46:41.000Z</time>
      </trkpt>
      <trkpt lat="46.72456" lon="-2.34729">
        <ele>3</ele>
        <time>2018-09-16T16:46:42.000Z</time>
      </trkpt>
      <trkpt lat="46.72456" lon="-2.34729">
        <ele>3</ele>
        <time>2018-09-16T16:46:43.000Z</time>
      </trkpt>
      <trkpt lat="46.72456" lon="-2.34729">
        <ele>3</ele>
        <time>2018-09-16T16:46:44.000Z</time>
      </trkpt>
      <trkpt lat="46.72456" lon="-2.34729">
        <ele>3</ele>
        <time>2018-09-16T16:46:45.000Z</time>
      </trkpt>
      <trkpt lat="46.72456" lon="-2.34729">
        <ele>3</ele>
        <time>2018-09-16T16:46:46.000Z</time>
      </trkpt>
      <trkpt lat="46.72456" lon="-2.34729">
        <ele>3</ele>
        <time>2018-09-16T16:46:47.000Z</time>
      </trkpt>
      <trkpt lat="46.72456" lon="-2.34729">
        <ele>3</ele>
        <time>2018-09-16T16:46:48.000Z</time>
      </trkpt>
      <trkpt lat="46.72456" lon="-2.34729">
        <ele>3</ele>
        <time>2018-09-16T16:46:49.000Z</time>
      </trkpt>
      <trkpt lat="46.72456" lon="-2.34729">
        <ele>3</ele>
        <time>2018-09-16T16:46:50.000Z</time>
      </trkpt>
      <trkpt lat="46.72456" lon="-2.34729">
        <ele>3</ele>
        <time>2018-09-16T16:46:51.000Z</time>
      </trkpt>
      <trkpt lat="46.72456" lon="-2.34729">
        <ele>3</ele>
        <time>2018-09-16T16:46:52.000Z</time>
      </trkpt>
      <trkpt lat="46.72456" lon="-2.34729">
        <ele>3</ele>
        <time>2018-09-16T16:46:53.000Z</time>
      </trkpt>
      <trkpt lat="46.72456" lon="-2.34729">
        <ele>3</ele>
        <time>2018-09-16T16:46:54.000Z</time>
      </trkpt>
      <trkpt lat="46.72456" lon="-2.34729">
        <ele>3</ele>
        <time>2018-09-16T16:46:55.000Z</time>
      </trkpt>
      <trkpt lat="46.72457" lon="-2.34729">
        <ele>2.9</ele>
        <time>2018-09-16T16:46:56.000Z</time>
      </trkpt>
      <trkpt lat="46.72459" lon="-2.34729">
        <ele>2.9</ele>
        <time>2018-09-16T16:46:57.000Z</time>
      </trkpt>
      <trkpt lat="46.72459" lon="-2.34729">
        <ele>2.8</ele>
        <time>2018-09-16T16:46:58.000Z</time>
      </trkpt>
      <trkpt lat="46.72459" lon="-2.34729">
        <ele>2.8</ele>
        <time>2018-09-16T16:46:59.000Z</time>
      </trkpt>
      <trkpt lat="46.72459" lon="-2.34729">
        <ele>2.8</ele>
        <time>2018-09-16T16:47:00.000Z</time>
      </trkpt>
      <trkpt lat="46.72459" lon="-2.34729">
        <ele>2.8</ele>
        <time>2018-09-16T16:47:01.000Z</time>
      </trkpt>
      <trkpt lat="46.72459" lon="-2.34729">
        <ele>2.8</ele>
        <time>2018-09-16T16:47:02.000Z</time>
      </trkpt>
      <trkpt lat="46.72459" lon="-2.34729">
        <ele>2.8</ele>
        <time>2018-09-16T16:47:03.000Z</time>
      </trkpt>
      <trkpt lat="46.72459" lon="-2.34729">
        <ele>2.8</ele>
        <time>2018-09-16T16:47:04.000Z</time>
      </trkpt>
      <trkpt lat="46.72459" lon="-2.34729">
        <ele>2.8</ele>
        <time>2018-09-16T16:47:05.000Z</time>
      </trkpt>
      <trkpt lat="46.72459" lon="-2.34729">
        <ele>2.8</ele>
        <time>2018-09-16T16:47:06.000Z</time>
      </trkpt>
      <trkpt lat="46.72459" lon="-2.34729">
        <ele>2.8</ele>
        <time>2018-09-16T16:47:07.000Z</time>
      </trkpt>
      <trkpt lat="46.72459" lon="-2.34729">
        <ele>2.8</ele>
        <time>2018-09-16T16:47:08.000Z</time>
      </trkpt>
      <trkpt lat="46.72459" lon="-2.34729">
        <ele>2.8</ele>
        <time>2018-09-16T16:47:09.000Z</time>
      </trkpt>
      <trkpt lat="46.72459" lon="-2.34729">
        <ele>2.8</ele>
        <time>2018-09-16T16:47:10.000Z</time>
      </trkpt>
      <trkpt lat="46.72459" lon="-2.34729">
        <ele>2.8</ele>
        <time>2018-09-16T16:47:11.000Z</time>
      </trkpt>
      <trkpt lat="46.72459" lon="-2.34729">
        <ele>2.8</ele>
        <time>2018-09-16T16:47:12.000Z</time>
      </trkpt>
      <trkpt lat="46.72459" lon="-2.34729">
        <ele>2.8</ele>
        <time>2018-09-16T16:47:13.000Z</time>
      </trkpt>
      <trkpt lat="46.72459" lon="-2.34729">
        <ele>2.8</ele>
        <time>2018-09-16T16:47:14.000Z</time>
      </trkpt>
      <trkpt lat="46.72459" lon="-2.34729">
        <ele>2.8</ele>
        <time>2018-09-16T16:47:15.000Z</time>
      </trkpt>
      <trkpt lat="46.72459" lon="-2.34729">
        <ele>2.8</ele>
        <time>2018-09-16T16:47:16.000Z</time>
      </trkpt>
      <trkpt lat="46.72459" lon="-2.34729">
        <ele>2.8</ele>
        <time>2018-09-16T16:47:17.000Z</time>
      </trkpt>
      <trkpt lat="46.72459" lon="-2.34729">
        <ele>2.8</ele>
        <time>2018-09-16T16:47:18.000Z</time>
      </trkpt>
      <trkpt lat="46.72459" lon="-2.34729">
        <ele>2.8</ele>
        <time>2018-09-16T16:47:19.000Z</time>
      </trkpt>
      <trkpt lat="46.72459" lon="-2.34729">
        <ele>2.8</ele>
        <time>2018-09-16T16:47:20.000Z</time>
      </trkpt>
      <trkpt lat="46.72459" lon="-2.34729">
        <ele>2.8</ele>
        <time>2018-09-16T16:47:21.000Z</time>
      </trkpt>
      <trkpt lat="46.72459" lon="-2.34729">
        <ele>2.8</ele>
        <time>2018-09-16T16:47:22.000Z</time>
      </trkpt>
      <trkpt lat="46.72459" lon="-2.34729">
        <ele>2.8</ele>
        <time>2018-09-16T16:47:23.000Z</time>
      </trkpt>
      <trkpt lat="46.72459" lon="-2.34729">
        <ele>2.9</ele>
        <time>2018-09-16T16:47:24.000Z</time>
      </trkpt>
      <trkpt lat="46.72459" lon="-2.3473">
        <ele>2.9</ele>
        <time>2018-09-16T16:47:25.000Z</time>
      </trkpt>
      <trkpt lat="46.72458" lon="-2.34731">
        <ele>2.9</ele>
        <time>2018-09-16T16:47:26.000Z</time>
      </trkpt>
      <trkpt lat="46.72458" lon="-2.34732">
        <ele>2.9</ele>
        <time>2018-09-16T16:47:27.000Z</time>
      </trkpt>
      <trkpt lat="46.72457" lon="-2.34733">
        <ele>2.9</ele>
        <time>2018-09-16T16:47:28.000Z</time>
      </trkpt>
      <trkpt lat="46.72457" lon="-2.34734">
        <ele>3</ele>
        <time>2018-09-16T16:47:29.000Z</time>
      </trkpt>
      <trkpt lat="46.72457" lon="-2.34735">
        <ele>3</ele>
        <time>2018-09-16T16:47:30.000Z</time>
      </trkpt>
      <trkpt lat="46.72456" lon="-2.34736">
        <ele>3</ele>
        <time>2018-09-16T16:47:31.000Z</time>
      </trkpt>
      <trkpt lat="46.72456" lon="-2.34738">
        <ele>3</ele>
        <time>2018-09-16T16:47:32.000Z</time>
      </trkpt>
      <trkpt lat="46.72455" lon="-2.34739">
        <ele>3.1</ele>
        <time>2018-09-16T16:47:33.000Z</time>
      </trkpt>
      <trkpt lat="46.72455" lon="-2.3474">
        <ele>3.1</ele>
        <time>2018-09-16T16:47:34.000Z</time>
      </trkpt>
      <trkpt lat="46.72454" lon="-2.3474">
        <ele>3.1</ele>
        <time>2018-09-16T16:47:35.000Z</time>
      </trkpt>
      <trkpt lat="46.72453" lon="-2.34741">
        <ele>3.2</ele>
        <time>2018-09-16T16:47:36.000Z</time>
      </trkpt>
      <trkpt lat="46.72453" lon="-2.34742">
        <ele>3.2</ele>
        <time>2018-09-16T16:47:37.000Z</time>
      </trkpt>
      <trkpt lat="46.72452" lon="-2.34743">
        <ele>3.3</ele>
        <time>2018-09-16T16:47:38.000Z</time>
      </trkpt>
      <trkpt lat="46.72451" lon="-2.34744">
        <ele>3.3</ele>
        <time>2018-09-16T16:47:39.000Z</time>
      </trkpt>
      <trkpt lat="46.72451" lon="-2.34745">
        <ele>3.3</ele>
        <time>2018-09-16T16:47:40.000Z</time>
      </trkpt>
      <trkpt lat="46.7245" lon="-2.34746">
        <ele>3.4</ele>
        <time>2018-09-16T16:47:41.000Z</time>
      </trkpt>
      <trkpt lat="46.72449" lon="-2.34747">
        <ele>3.4</ele>
        <time>2018-09-16T16:47:42.000Z</time>
      </trkpt>
      <trkpt lat="46.72449" lon="-2.34748">
        <ele>3.4</ele>
        <time>2018-09-16T16:47:43.000Z</time>
      </trkpt>
      <trkpt lat="46.72449" lon="-2.34749">
        <ele>3.5</ele>
        <time>2018-09-16T16:47:44.000Z</time>
      </trkpt>
      <trkpt lat="46.72448" lon="-2.3475">
        <ele>3.5</ele>
        <time>2018-09-16T16:47:45.000Z</time>
      </trkpt>
      <trkpt lat="46.72448" lon="-2.34751">
        <ele>3.5</ele>
        <time>2018-09-16T16:47:46.000Z</time>
      </trkpt>
      <trkpt lat="46.72448" lon="-2.34753">
        <ele>3.6</ele>
        <time>2018-09-16T16:47:47.000Z</time>
      </trkpt>
      <trkpt lat="46.72447" lon="-2.34754">
        <ele>3.6</ele>
        <time>2018-09-16T16:47:48.000Z</time>
      </trkpt>
      <trkpt lat="46.72447" lon="-2.34755">
        <ele>3.6</ele>
        <time>2018-09-16T16:47:49.000Z</time>
      </trkpt>
      <trkpt lat="46.72447" lon="-2.34756">
        <ele>3.6</ele>
        <time>2018-09-16T16:47:50.000Z</time>
      </trkpt>
      <trkpt lat="46.72447" lon="-2.34757">
        <ele>3.7</ele>
        <time>2018-09-16T16:47:51.000Z</time>
      </trkpt>
      <trkpt lat="46.72447" lon="-2.34759">
        <ele>3.7</ele>
        <time>2018-09-16T16:47:52.000Z</time>
      </trkpt>
      <trkpt lat="46.72446" lon="-2.3476">
        <ele>3.7</ele>
        <time>2018-09-16T16:47:53.000Z</time>
      </trkpt>
      <trkpt lat="46.72446" lon="-2.34762">
        <ele>3.8</ele>
        <time>2018-09-16T16:47:54.000Z</time>
      </trkpt>
      <trkpt lat="46.72446" lon="-2.34763">
        <ele>3.8</ele>
        <time>2018-09-16T16:47:55.000Z</time>
      </trkpt>
      <trkpt lat="46.72446" lon="-2.34765">
        <ele>3.8</ele>
        <time>2018-09-16T16:47:56.000Z</time>
      </trkpt>
      <trkpt lat="46.72446" lon="-2.34766">
        <ele>3.9</ele>
        <time>2018-09-16T16:47:57.000Z</time>
      </trkpt>
      <trkpt lat="46.72445" lon="-2.34768">
        <ele>3.9</ele>
        <time>2018-09-16T16:47:58.000Z</time>
      </trkpt>
      <trkpt lat="46.72445" lon="-2.3477">
        <ele>4</ele>
        <time>2018-09-16T16:47:59.000Z</time>
      </trkpt>
      <trkpt lat="46.72445" lon="-2.34771">
        <ele>4</ele>
        <time>2018-09-16T16:48:00.000Z</time>
      </trkpt>
      <trkpt lat="46.72444" lon="-2.34773">
        <ele>4</ele>
        <time>2018-09-16T16:48:01.000Z</time>
      </trkpt>
      <trkpt lat="46.72444" lon="-2.34774">
        <ele>4.1</ele>
        <time>2018-09-16T16:48:02.000Z</time>
      </trkpt>
      <trkpt lat="46.72443" lon="-2.34775">
        <ele>4.1</ele>
        <time>2018-09-16T16:48:03.000Z</time>
      </trkpt>
      <trkpt lat="46.72443" lon="-2.34776">
        <ele>4.2</ele>
        <time>2018-09-16T16:48:04.000Z</time>
      </trkpt>
      <trkpt lat="46.72442" lon="-2.34777">
        <ele>4.2</ele>
        <time>2018-09-16T16:48:05.000Z</time>
      </trkpt>
      <trkpt lat="46.72441" lon="-2.34778">
        <ele>4.3</ele>
        <time>2018-09-16T16:48:06.000Z</time>
      </trkpt>
      <trkpt lat="46.72441" lon="-2.34779">
        <ele>4.3</ele>
        <time>2018-09-16T16:48:07.000Z</time>
      </trkpt>
      <trkpt lat="46.7244" lon="-2.3478">
        <ele>4.4</ele>
        <time>2018-09-16T16:48:08.000Z</time>
      </trkpt>
      <trkpt lat="46.7244" lon="-2.34782">
        <ele>4.4</ele>
        <time>2018-09-16T16:48:09.000Z</time>
      </trkpt>
      <trkpt lat="46.7244" lon="-2.34783">
        <ele>4.5</ele>
        <time>2018-09-16T16:48:10.000Z</time>
      </trkpt>
      <trkpt lat="46.72439" lon="-2.34785">
        <ele>4.5</ele>
        <time>2018-09-16T16:48:11.000Z</time>
      </trkpt>
      <trkpt lat="46.72439" lon="-2.34787">
        <ele>4.6</ele>
        <time>2018-09-16T16:48:12.000Z</time>
      </trkpt>
      <trkpt lat="46.72439" lon="-2.34788">
        <ele>4.6</ele>
        <time>2018-09-16T16:48:13.000Z</time>
      </trkpt>
      <trkpt lat="46.72439" lon="-2.3479">
        <ele>4.6</ele>
        <time>2018-09-16T16:48:14.000Z</time>
      </trkpt>
      <trkpt lat="46.72439" lon="-2.34791">
        <ele>4.6</ele>
        <time>2018-09-16T16:48:15.000Z</time>
      </trkpt>
      <trkpt lat="46.7244" lon="-2.34793">
        <ele>4.6</ele>
        <time>2018-09-16T16:48:16.000Z</time>
      </trkpt>
      <trkpt lat="46.7244" lon="-2.34794">
        <ele>4.6</ele>
        <time>2018-09-16T16:48:17.000Z</time>
      </trkpt>
      <trkpt lat="46.72441" lon="-2.34795">
        <ele>4.6</ele>
        <time>2018-09-16T16:48:18.000Z</time>
      </trkpt>
      <trkpt lat="46.72441" lon="-2.34797">
        <ele>4.6</ele>
        <time>2018-09-16T16:48:19.000Z</time>
      </trkpt>
      <trkpt lat="46.72442" lon="-2.34798">
        <ele>4.6</ele>
        <time>2018-09-16T16:48:20.000Z</time>
      </trkpt>
      <trkpt lat="46.72443" lon="-2.34799">
        <ele>4.6</ele>
        <time>2018-09-16T16:48:21.000Z</time>
      </trkpt>
      <trkpt lat="46.72443" lon="-2.348">
        <ele>4.5</ele>
        <time>2018-09-16T16:48:22.000Z</time>
      </trkpt>
      <trkpt lat="46.72444" lon="-2.34801">
        <ele>4.5</ele>
        <time>2018-09-16T16:48:23.000Z</time>
      </trkpt>
      <trkpt lat="46.72445" lon="-2.34802">
        <ele>4.5</ele>
        <time>2018-09-16T16:48:24.000Z</time>
      </trkpt>
      <trkpt lat="46.72446" lon="-2.34803">
        <ele>4.4</ele>
        <time>2018-09-16T16:48:25.000Z</time>
      </trkpt>
      <trkpt lat="46.72446" lon="-2.34804">
        <ele>4.4</ele>
        <time>2018-09-16T16:48:26.000Z</time>
      </trkpt>
      <trkpt lat="46.72447" lon="-2.34805">
        <ele>4.4</ele>
        <time>2018-09-16T16:48:27.000Z</time>
      </trkpt>
      <trkpt lat="46.72448" lon="-2.34806">
        <ele>4.4</ele>
        <time>2018-09-16T16:48:28.000Z</time>
      </trkpt>
      <trkpt lat="46.72448" lon="-2.34807">
        <ele>4.3</ele>
        <time>2018-09-16T16:48:29.000Z</time>
      </trkpt>
      <trkpt lat="46.72449" lon="-2.34808">
        <ele>4.3</ele>
        <time>2018-09-16T16:48:30.000Z</time>
      </trkpt>
      <trkpt lat="46.7245" lon="-2.34809">
        <ele>4.3</ele>
        <time>2018-09-16T16:48:31.000Z</time>
      </trkpt>
      <trkpt lat="46.7245" lon="-2.3481">
        <ele>4.3</ele>
        <time>2018-09-16T16:48:32.000Z</time>
      </trkpt>
      <trkpt lat="46.72451" lon="-2.34811">
        <ele>4.2</ele>
        <time>2018-09-16T16:48:33.000Z</time>
      </trkpt>
      <trkpt lat="46.72451" lon="-2.34813">
        <ele>4.2</ele>
        <time>2018-09-16T16:48:34.000Z</time>
      </trkpt>
      <trkpt lat="46.72452" lon="-2.34814">
        <ele>4.2</ele>
        <time>2018-09-16T16:48:35.000Z</time>
      </trkpt>
      <trkpt lat="46.72452" lon="-2.34815">
        <ele>4.2</ele>
        <time>2018-09-16T16:48:36.000Z</time>
      </trkpt>
      <trkpt lat="46.72453" lon="-2.34817">
        <ele>4.2</ele>
        <time>2018-09-16T16:48:37.000Z</time>
      </trkpt>
      <trkpt lat="46.72453" lon="-2.34818">
        <ele>4.1</ele>
        <time>2018-09-16T16:48:38.000Z</time>
      </trkpt>
      <trkpt lat="46.72454" lon="-2.34819">
        <ele>4.1</ele>
        <time>2018-09-16T16:48:39.000Z</time>
      </trkpt>
      <trkpt lat="46.72455" lon="-2.34821">
        <ele>4.1</ele>
        <time>2018-09-16T16:48:40.000Z</time>
      </trkpt>
      <trkpt lat="46.72455" lon="-2.34822">
        <ele>4.1</ele>
        <time>2018-09-16T16:48:41.000Z</time>
      </trkpt>
      <trkpt lat="46.72456" lon="-2.34824">
        <ele>4.1</ele>
        <time>2018-09-16T16:48:42.000Z</time>
      </trkpt>
      <trkpt lat="46.72456" lon="-2.34825">
        <ele>4</ele>
        <time>2018-09-16T16:48:43.000Z</time>
      </trkpt>
      <trkpt lat="46.72457" lon="-2.34826">
        <ele>4</ele>
        <time>2018-09-16T16:48:44.000Z</time>
      </trkpt>
      <trkpt lat="46.72458" lon="-2.34827">
        <ele>4</ele>
        <time>2018-09-16T16:48:45.000Z</time>
      </trkpt>
      <trkpt lat="46.72458" lon="-2.34829">
        <ele>3.9</ele>
        <time>2018-09-16T16:48:46.000Z</time>
      </trkpt>
      <trkpt lat="46.72459" lon="-2.3483">
        <ele>3.9</ele>
        <time>2018-09-16T16:48:47.000Z</time>
      </trkpt>
      <trkpt lat="46.7246" lon="-2.34831">
        <ele>3.9</ele>
        <time>2018-09-16T16:48:48.000Z</time>
      </trkpt>
      <trkpt lat="46.72461" lon="-2.34832">
        <ele>3.8</ele>
        <time>2018-09-16T16:48:49.000Z</time>
      </trkpt>
      <trkpt lat="46.72462" lon="-2.34832">
        <ele>3.8</ele>
        <time>2018-09-16T16:48:50.000Z</time>
      </trkpt>
      <trkpt lat="46.72463" lon="-2.34833">
        <ele>3.7</ele>
        <time>2018-09-16T16:48:51.000Z</time>
      </trkpt>
      <trkpt lat="46.72463" lon="-2.34834">
        <ele>3.6</ele>
        <time>2018-09-16T16:48:52.000Z</time>
      </trkpt>
      <trkpt lat="46.72464" lon="-2.34834">
        <ele>3.6</ele>
        <time>2018-09-16T16:48:53.000Z</time>
      </trkpt>
      <trkpt lat="46.72465" lon="-2.34835">
        <ele>3.5</ele>
        <time>2018-09-16T16:48:54.000Z</time>
      </trkpt>
      <trkpt lat="46.72466" lon="-2.34835">
        <ele>3.5</ele>
        <time>2018-09-16T16:48:55.000Z</time>
      </trkpt>
      <trkpt lat="46.72467" lon="-2.34835">
        <ele>3.4</ele>
        <time>2018-09-16T16:48:56.000Z</time>
      </trkpt>
      <trkpt lat="46.72468" lon="-2.34835">
        <ele>3.4</ele>
        <time>2018-09-16T16:48:57.000Z</time>
      </trkpt>
      <trkpt lat="46.72468" lon="-2.34835">
        <ele>3.3</ele>
        <time>2018-09-16T16:48:58.000Z</time>
      </trkpt>
      <trkpt lat="46.72469" lon="-2.34835">
        <ele>3.3</ele>
        <time>2018-09-16T16:48:59.000Z</time>
      </trkpt>
      <trkpt lat="46.72469" lon="-2.34836">
        <ele>3.3</ele>
        <time>2018-09-16T16:49:00.000Z</time>
      </trkpt>
      <trkpt lat="46.72469" lon="-2.34836">
        <ele>3.3</ele>
        <time>2018-09-16T16:49:01.000Z</time>
      </trkpt>
      <trkpt lat="46.72469" lon="-2.34836">
        <ele>3.3</ele>
        <time>2018-09-16T16:49:02.000Z</time>
      </trkpt>
      <trkpt lat="46.72469" lon="-2.34836">
        <ele>3.3</ele>
        <time>2018-09-16T16:49:03.000Z</time>
      </trkpt>
      <trkpt lat="46.72469" lon="-2.34836">
        <ele>3.3</ele>
        <time>2018-09-16T16:49:04.000Z</time>
      </trkpt>
      <trkpt lat="46.72469" lon="-2.34836">
        <ele>3.3</ele>
        <time>2018-09-16T16:49:05.000Z</time>
      </trkpt>
      <trkpt lat="46.72469" lon="-2.34836">
        <ele>3.3</ele>
        <time>2018-09-16T16:49:06.000Z</time>
      </trkpt>
      <trkpt lat="46.72469" lon="-2.34836">
        <ele>3.3</ele>
        <time>2018-09-16T16:49:07.000Z</time>
      </trkpt>
      <trkpt lat="46.72469" lon="-2.34836">
        <ele>3.3</ele>
        <time>2018-09-16T16:49:08.000Z</time>
      </trkpt>
      <trkpt lat="46.72469" lon="-2.34836">
        <ele>3.3</ele>
        <time>2018-09-16T16:49:09.000Z</time>
      </trkpt>
      <trkpt lat="46.72469" lon="-2.34836">
        <ele>3.3</ele>
        <time>2018-09-16T16:49:10.000Z</time>
      </trkpt>
      <trkpt lat="46.72469" lon="-2.34836">
        <ele>3.3</ele>
        <time>2018-09-16T16:49:11.000Z</time>
      </trkpt>
      <trkpt lat="46.72469" lon="-2.34836">
        <ele>3.3</ele>
        <time>2018-09-16T16:49:12.000Z</time>
      </trkpt>
      <trkpt lat="46.72469" lon="-2.34836">
        <ele>3.3</ele>
        <time>2018-09-16T16:49:13.000Z</time>
      </trkpt>
      <trkpt lat="46.72469" lon="-2.34836">
        <ele>3.3</ele>
        <time>2018-09-16T16:49:14.000Z</time>
      </trkpt>
      <trkpt lat="46.72469" lon="-2.34836">
        <ele>3.3</ele>
        <time>2018-09-16T16:49:15.000Z</time>
      </trkpt>
      <trkpt lat="46.72469" lon="-2.34836">
        <ele>3.3</ele>
        <time>2018-09-16T16:49:16.000Z</time>
      </trkpt>
      <trkpt lat="46.72469" lon="-2.34836">
        <ele>3.3</ele>
        <time>2018-09-16T16:49:17.000Z</time>
      </trkpt>
      <trkpt lat="46.72469" lon="-2.34836">
        <ele>3.3</ele>
        <time>2018-09-16T16:49:18.000Z</time>
      </trkpt>
      <trkpt lat="46.72469" lon="-2.34836">
        <ele>3.3</ele>
        <time>2018-09-16T16:49:19.000Z</time>
      </trkpt>
      <trkpt lat="46.72469" lon="-2.34836">
        <ele>3.3</ele>
        <time>2018-09-16T16:49:20.000Z</time>
      </trkpt>
      <trkpt lat="46.72469" lon="-2.34836">
        <ele>3.3</ele>
        <time>2018-09-16T16:49:21.000Z</time>
      </trkpt>
      <trkpt lat="46.72469" lon="-2.34836">
        <ele>3.3</ele>
        <time>2018-09-16T16:49:22.000Z</time>
      </trkpt>
      <trkpt lat="46.72469" lon="-2.34835">
        <ele>3.3</ele>
        <time>2018-09-16T16:49:23.000Z</time>
      </trkpt>
      <trkpt lat="46.72469" lon="-2.34835">
        <ele>3.3</ele>
        <time>2018-09-16T16:49:24.000Z</time>
      </trkpt>
      <trkpt lat="46.72469" lon="-2.34836">
        <ele>3.3</ele>
        <time>2018-09-16T16:49:25.000Z</time>
      </trkpt>
      <trkpt lat="46.72469" lon="-2.34836">
        <ele>3.3</ele>
        <time>2018-09-16T16:49:26.000Z</time>
      </trkpt>
      <trkpt lat="46.72469" lon="-2.34836">
        <ele>3.3</ele>
        <time>2018-09-16T16:49:27.000Z</time>
      </trkpt>
      <trkpt lat="46.7247" lon="-2.34837">
        <ele>3.3</ele>
        <time>2018-09-16T16:49:28.000Z</time>
      </trkpt>
      <trkpt lat="46.7247" lon="-2.34838">
        <ele>3.2</ele>
        <time>2018-09-16T16:49:29.000Z</time>
      </trkpt>
      <trkpt lat="46.72471" lon="-2.34838">
        <ele>3.2</ele>
        <time>2018-09-16T16:49:30.000Z</time>
      </trkpt>
      <trkpt lat="46.72472" lon="-2.34839">
        <ele>3.2</ele>
        <time>2018-09-16T16:49:31.000Z</time>
      </trkpt>
      <trkpt lat="46.72473" lon="-2.34839">
        <ele>3.1</ele>
        <time>2018-09-16T16:49:32.000Z</time>
      </trkpt>
      <trkpt lat="46.72473" lon="-2.34839">
        <ele>3.1</ele>
        <time>2018-09-16T16:49:33.000Z</time>
      </trkpt>
      <trkpt lat="46.72474" lon="-2.34839">
        <ele>3</ele>
        <time>2018-09-16T16:49:34.000Z</time>
      </trkpt>
      <trkpt lat="46.72475" lon="-2.34838">
        <ele>3</ele>
        <time>2018-09-16T16:49:35.000Z</time>
      </trkpt>
      <trkpt lat="46.72476" lon="-2.34838">
        <ele>2.9</ele>
        <time>2018-09-16T16:49:36.000Z</time>
      </trkpt>
      <trkpt lat="46.72476" lon="-2.34838">
        <ele>2.8</ele>
        <time>2018-09-16T16:49:37.000Z</time>
      </trkpt>
      <trkpt lat="46.72477" lon="-2.34837">
        <ele>2.8</ele>
        <time>2018-09-16T16:49:38.000Z</time>
      </trkpt>
      <trkpt lat="46.72478" lon="-2.34837">
        <ele>2.7</ele>
        <time>2018-09-16T16:49:39.000Z</time>
      </trkpt>
      <trkpt lat="46.72478" lon="-2.34838">
        <ele>2.7</ele>
        <time>2018-09-16T16:49:40.000Z</time>
      </trkpt>
      <trkpt lat="46.72479" lon="-2.34838">
        <ele>2.7</ele>
        <time>2018-09-16T16:49:41.000Z</time>
      </trkpt>
      <trkpt lat="46.72479" lon="-2.34839">
        <ele>2.7</ele>
        <time>2018-09-16T16:49:42.000Z</time>
      </trkpt>
      <trkpt lat="46.7248" lon="-2.3484">
        <ele>2.7</ele>
        <time>2018-09-16T16:49:43.000Z</time>
      </trkpt>
      <trkpt lat="46.7248" lon="-2.34841">
        <ele>2.7</ele>
        <time>2018-09-16T16:49:44.000Z</time>
      </trkpt>
      <trkpt lat="46.7248" lon="-2.34842">
        <ele>2.7</ele>
        <time>2018-09-16T16:49:45.000Z</time>
      </trkpt>
      <trkpt lat="46.7248" lon="-2.34843">
        <ele>2.7</ele>
        <time>2018-09-16T16:49:46.000Z</time>
      </trkpt>
      <trkpt lat="46.72481" lon="-2.34844">
        <ele>2.7</ele>
        <time>2018-09-16T16:49:47.000Z</time>
      </trkpt>
      <trkpt lat="46.72481" lon="-2.34846">
        <ele>2.7</ele>
        <time>2018-09-16T16:49:48.000Z</time>
      </trkpt>
      <trkpt lat="46.72481" lon="-2.34847">
        <ele>2.8</ele>
        <time>2018-09-16T16:49:49.000Z</time>
      </trkpt>
      <trkpt lat="46.72482" lon="-2.34848">
        <ele>2.8</ele>
        <time>2018-09-16T16:49:50.000Z</time>
      </trkpt>
      <trkpt lat="46.72482" lon="-2.34849">
        <ele>2.8</ele>
        <time>2018-09-16T16:49:51.000Z</time>
      </trkpt>
      <trkpt lat="46.72482" lon="-2.3485">
        <ele>2.8</ele>
        <time>2018-09-16T16:49:52.000Z</time>
      </trkpt>
      <trkpt lat="46.72482" lon="-2.34851">
        <ele>2.8</ele>
        <time>2018-09-16T16:49:53.000Z</time>
      </trkpt>
      <trkpt lat="46.72483" lon="-2.34852">
        <ele>2.8</ele>
        <time>2018-09-16T16:49:54.000Z</time>
      </trkpt>
      <trkpt lat="46.72483" lon="-2.34852">
        <ele>2.8</ele>
        <time>2018-09-16T16:49:55.000Z</time>
      </trkpt>
      <trkpt lat="46.72483" lon="-2.34853">
        <ele>2.8</ele>
        <time>2018-09-16T16:49:56.000Z</time>
      </trkpt>
      <trkpt lat="46.72483" lon="-2.34853">
        <ele>2.8</ele>
        <time>2018-09-16T16:49:57.000Z</time>
      </trkpt>
      <trkpt lat="46.72483" lon="-2.34853">
        <ele>2.8</ele>
        <time>2018-09-16T16:49:58.000Z</time>
      </trkpt>
      <trkpt lat="46.72483" lon="-2.34853">
        <ele>2.8</ele>
        <time>2018-09-16T16:49:59.000Z</time>
      </trkpt>
      <trkpt lat="46.72483" lon="-2.34853">
        <ele>2.8</ele>
        <time>2018-09-16T16:50:00.000Z</time>
      </trkpt>
      <trkpt lat="46.72483" lon="-2.34853">
        <ele>2.8</ele>
        <time>2018-09-16T16:50:01.000Z</time>
      </trkpt>
      <trkpt lat="46.72483" lon="-2.34852">
        <ele>2.8</ele>
        <time>2018-09-16T16:50:02.000Z</time>
      </trkpt>
      <trkpt lat="46.72483" lon="-2.34852">
        <ele>2.8</ele>
        <time>2018-09-16T16:50:03.000Z</time>
      </trkpt>
      <trkpt lat="46.72483" lon="-2.34852">
        <ele>2.8</ele>
        <time>2018-09-16T16:50:04.000Z</time>
      </trkpt>
      <trkpt lat="46.72483" lon="-2.34852">
        <ele>2.8</ele>
        <time>2018-09-16T16:50:05.000Z</time>
      </trkpt>
      <trkpt lat="46.72483" lon="-2.34852">
        <ele>2.8</ele>
        <time>2018-09-16T16:50:06.000Z</time>
      </trkpt>
      <trkpt lat="46.72483" lon="-2.34852">
        <ele>2.8</ele>
        <time>2018-09-16T16:50:07.000Z</time>
      </trkpt>
      <trkpt lat="46.72483" lon="-2.34852">
        <ele>2.8</ele>
        <time>2018-09-16T16:50:08.000Z</time>
      </trkpt>
      <trkpt lat="46.72483" lon="-2.34852">
        <ele>2.8</ele>
        <time>2018-09-16T16:50:09.000Z</time>
      </trkpt>
      <trkpt lat="46.72483" lon="-2.34852">
        <ele>2.8</ele>
        <time>2018-09-16T16:50:10.000Z</time>
      </trkpt>
      <trkpt lat="46.72483" lon="-2.34852">
        <ele>2.8</ele>
        <time>2018-09-16T16:50:11.000Z</time>
      </trkpt>
      <trkpt lat="46.72483" lon="-2.34852">
        <ele>2.8</ele>
        <time>2018-09-16T16:50:12.000Z</time>
      </trkpt>
      <trkpt lat="46.72483" lon="-2.34852">
        <ele>2.8</ele>
        <time>2018-09-16T16:50:13.000Z</time>
      </trkpt>
      <trkpt lat="46.72483" lon="-2.34852">
        <ele>2.8</ele>
        <time>2018-09-16T16:50:14.000Z</time>
      </trkpt>
      <trkpt lat="46.72483" lon="-2.34852">
        <ele>2.8</ele>
        <time>2018-09-16T16:50:15.000Z</time>
      </trkpt>
      <trkpt lat="46.72483" lon="-2.34852">
        <ele>2.8</ele>
        <time>2018-09-16T16:50:16.000Z</time>
      </trkpt>
      <trkpt lat="46.72483" lon="-2.34852">
        <ele>2.8</ele>
        <time>2018-09-16T16:50:17.000Z</time>
      </trkpt>
      <trkpt lat="46.72483" lon="-2.34852">
        <ele>2.8</ele>
        <time>2018-09-16T16:50:18.000Z</time>
      </trkpt>
      <trkpt lat="46.72483" lon="-2.34852">
        <ele>2.8</ele>
        <time>2018-09-16T16:50:19.000Z</time>
      </trkpt>
      <trkpt lat="46.72483" lon="-2.34852">
        <ele>2.8</ele>
        <time>2018-09-16T16:50:20.000Z</time>
      </trkpt>
      <trkpt lat="46.72483" lon="-2.34852">
        <ele>2.8</ele>
        <time>2018-09-16T16:50:21.000Z</time>
      </trkpt>
      <trkpt lat="46.72483" lon="-2.34852">
        <ele>2.8</ele>
        <time>2018-09-16T16:50:22.000Z</time>
      </trkpt>
      <trkpt lat="46.72483" lon="-2.34852">
        <ele>2.8</ele>
        <time>2018-09-16T16:50:23.000Z</time>
      </trkpt>
      <trkpt lat="46.72483" lon="-2.34852">
        <ele>2.8</ele>
        <time>2018-09-16T16:50:24.000Z</time>
      </trkpt>
      <trkpt lat="46.72483" lon="-2.34852">
        <ele>2.8</ele>
        <time>2018-09-16T16:50:25.000Z</time>
      </trkpt>
      <trkpt lat="46.72483" lon="-2.34852">
        <ele>2.8</ele>
        <time>2018-09-16T16:50:26.000Z</time>
      </trkpt>
      <trkpt lat="46.72483" lon="-2.34852">
        <ele>2.8</ele>
        <time>2018-09-16T16:50:27.000Z</time>
      </trkpt>
      <trkpt lat="46.72483" lon="-2.34852">
        <ele>2.8</ele>
        <time>2018-09-16T16:50:28.000Z</time>
      </trkpt>
      <trkpt lat="46.72483" lon="-2.34853">
        <ele>2.8</ele>
        <time>2018-09-16T16:50:29.000Z</time>
      </trkpt>
      <trkpt lat="46.72483" lon="-2.34853">
        <ele>2.8</ele>
        <time>2018-09-16T16:50:30.000Z</time>
      </trkpt>
      <trkpt lat="46.72483" lon="-2.34853">
        <ele>2.8</ele>
        <time>2018-09-16T16:50:31.000Z</time>
      </trkpt>
      <trkpt lat="46.72483" lon="-2.34853">
        <ele>2.8</ele>
        <time>2018-09-16T16:50:32.000Z</time>
      </trkpt>
      <trkpt lat="46.72483" lon="-2.34853">
        <ele>2.8</ele>
        <time>2018-09-16T16:50:33.000Z</time>
      </trkpt>
      <trkpt lat="46.72483" lon="-2.34853">
        <ele>2.8</ele>
        <time>2018-09-16T16:50:34.000Z</time>
      </trkpt>
      <trkpt lat="46.72483" lon="-2.34854">
        <ele>2.8</ele>
        <time>2018-09-16T16:50:35.000Z</time>
      </trkpt>
      <trkpt lat="46.72483" lon="-2.34854">
        <ele>2.9</ele>
        <time>2018-09-16T16:50:36.000Z</time>
      </trkpt>
      <trkpt lat="46.72483" lon="-2.34854">
        <ele>2.9</ele>
        <time>2018-09-16T16:50:37.000Z</time>
      </trkpt>
      <trkpt lat="46.72483" lon="-2.34855">
        <ele>2.9</ele>
        <time>2018-09-16T16:50:38.000Z</time>
      </trkpt>
      <trkpt lat="46.72483" lon="-2.34856">
        <ele>2.9</ele>
        <time>2018-09-16T16:50:39.000Z</time>
      </trkpt>
      <trkpt lat="46.72483" lon="-2.34857">
        <ele>3</ele>
        <time>2018-09-16T16:50:40.000Z</time>
      </trkpt>
      <trkpt lat="46.72483" lon="-2.34858">
        <ele>3</ele>
        <time>2018-09-16T16:50:41.000Z</time>
      </trkpt>
      <trkpt lat="46.72483" lon="-2.34859">
        <ele>3</ele>
        <time>2018-09-16T16:50:42.000Z</time>
      </trkpt>
      <trkpt lat="46.72483" lon="-2.3486">
        <ele>3.1</ele>
        <time>2018-09-16T16:50:43.000Z</time>
      </trkpt>
      <trkpt lat="46.72482" lon="-2.3486">
        <ele>3.1</ele>
        <time>2018-09-16T16:50:44.000Z</time>
      </trkpt>
      <trkpt lat="46.72482" lon="-2.34861">
        <ele>3.1</ele>
        <time>2018-09-16T16:50:45.000Z</time>
      </trkpt>
      <trkpt lat="46.72482" lon="-2.34861">
        <ele>3.1</ele>
        <time>2018-09-16T16:50:46.000Z</time>
      </trkpt>
      <trkpt lat="46.72482" lon="-2.34861">
        <ele>3.1</ele>
        <time>2018-09-16T16:50:47.000Z</time>
      </trkpt>
      <trkpt lat="46.72482" lon="-2.34861">
        <ele>3.1</ele>
        <time>2018-09-16T16:50:48.000Z</time>
      </trkpt>
      <trkpt lat="46.72482" lon="-2.34861">
        <ele>3.1</ele>
        <time>2018-09-16T16:50:49.000Z</time>
      </trkpt>
      <trkpt lat="46.72482" lon="-2.34861">
        <ele>3.1</ele>
        <time>2018-09-16T16:50:50.000Z</time>
      </trkpt>
      <trkpt lat="46.72482" lon="-2.34861">
        <ele>3.1</ele>
        <time>2018-09-16T16:50:51.000Z</time>
      </trkpt>
      <trkpt lat="46.72482" lon="-2.34861">
        <ele>3.1</ele>
        <time>2018-09-16T16:50:52.000Z</time>
      </trkpt>
      <trkpt lat="46.72482" lon="-2.34861">
        <ele>3.1</ele>
        <time>2018-09-16T16:50:53.000Z</time>
      </trkpt>
      <trkpt lat="46.72482" lon="-2.34861">
        <ele>3.1</ele>
        <time>2018-09-16T16:50:54.000Z</time>
      </trkpt>
      <trkpt lat="46.72482" lon="-2.34861">
        <ele>3.1</ele>
        <time>2018-09-16T16:50:55.000Z</time>
      </trkpt>
      <trkpt lat="46.72482" lon="-2.34861">
        <ele>3.1</ele>
        <time>2018-09-16T16:50:56.000Z</time>
      </trkpt>
      <trkpt lat="46.72482" lon="-2.34861">
        <ele>3.1</ele>
        <time>2018-09-16T16:50:57.000Z</time>
      </trkpt>
      <trkpt lat="46.72482" lon="-2.34861">
        <ele>3.1</ele>
        <time>2018-09-16T16:50:58.000Z</time>
      </trkpt>
      <trkpt lat="46.72482" lon="-2.34861">
        <ele>3.1</ele>
        <time>2018-09-16T16:50:59.000Z</time>
      </trkpt>
      <trkpt lat="46.72482" lon="-2.34861">
        <ele>3.1</ele>
        <time>2018-09-16T16:51:00.000Z</time>
      </trkpt>
      <trkpt lat="46.72482" lon="-2.34861">
        <ele>3.1</ele>
        <time>2018-09-16T16:51:01.000Z</time>
      </trkpt>
      <trkpt lat="46.72483" lon="-2.34861">
        <ele>3.1</ele>
        <time>2018-09-16T16:51:02.000Z</time>
      </trkpt>
      <trkpt lat="46.72483" lon="-2.34861">
        <ele>3.1</ele>
        <time>2018-09-16T16:51:03.000Z</time>
      </trkpt>
      <trkpt lat="46.72483" lon="-2.34861">
        <ele>3.1</ele>
        <time>2018-09-16T16:51:04.000Z</time>
      </trkpt>
      <trkpt lat="46.72482" lon="-2.34861">
        <ele>3.1</ele>
        <time>2018-09-16T16:51:05.000Z</time>
      </trkpt>
      <trkpt lat="46.72482" lon="-2.34861">
        <ele>3.1</ele>
        <time>2018-09-16T16:51:06.000Z</time>
      </trkpt>
      <trkpt lat="46.72482" lon="-2.34862">
        <ele>3.2</ele>
        <time>2018-09-16T16:51:07.000Z</time>
      </trkpt>
      <trkpt lat="46.72482" lon="-2.34863">
        <ele>3.2</ele>
        <time>2018-09-16T16:51:08.000Z</time>
      </trkpt>
      <trkpt lat="46.72482" lon="-2.34864">
        <ele>3.3</ele>
        <time>2018-09-16T16:51:09.000Z</time>
      </trkpt>
      <trkpt lat="46.72481" lon="-2.34865">
        <ele>3.3</ele>
        <time>2018-09-16T16:51:10.000Z</time>
      </trkpt>
      <trkpt lat="46.72481" lon="-2.34866">
        <ele>3.4</ele>
        <time>2018-09-16T16:51:11.000Z</time>
      </trkpt>
      <trkpt lat="46.7248" lon="-2.34868">
        <ele>3.5</ele>
        <time>2018-09-16T16:51:12.000Z</time>
      </trkpt>
      <trkpt lat="46.7248" lon="-2.34869">
        <ele>3.5</ele>
        <time>2018-09-16T16:51:13.000Z</time>
      </trkpt>
      <trkpt lat="46.7248" lon="-2.3487">
        <ele>3.6</ele>
        <time>2018-09-16T16:51:14.000Z</time>
      </trkpt>
      <trkpt lat="46.7248" lon="-2.34871">
        <ele>3.6</ele>
        <time>2018-09-16T16:51:15.000Z</time>
      </trkpt>
      <trkpt lat="46.72479" lon="-2.34872">
        <ele>3.6</ele>
        <time>2018-09-16T16:51:16.000Z</time>
      </trkpt>
      <trkpt lat="46.72479" lon="-2.34873">
        <ele>3.7</ele>
        <time>2018-09-16T16:51:17.000Z</time>
      </trkpt>
      <trkpt lat="46.72479" lon="-2.34873">
        <ele>3.7</ele>
        <time>2018-09-16T16:51:18.000Z</time>
      </trkpt>
      <trkpt lat="46.72479" lon="-2.34873">
        <ele>3.7</ele>
        <time>2018-09-16T16:51:19.000Z</time>
      </trkpt>
      <trkpt lat="46.7248" lon="-2.34873">
        <ele>3.7</ele>
        <time>2018-09-16T16:51:20.000Z</time>
      </trkpt>
      <trkpt lat="46.7248" lon="-2.34873">
        <ele>3.7</ele>
        <time>2018-09-16T16:51:21.000Z</time>
      </trkpt>
      <trkpt lat="46.7248" lon="-2.34873">
        <ele>3.6</ele>
        <time>2018-09-16T16:51:22.000Z</time>
      </trkpt>
      <trkpt lat="46.7248" lon="-2.34873">
        <ele>3.6</ele>
        <time>2018-09-16T16:51:23.000Z</time>
      </trkpt>
      <trkpt lat="46.7248" lon="-2.34873">
        <ele>3.6</ele>
        <time>2018-09-16T16:51:24.000Z</time>
      </trkpt>
      <trkpt lat="46.72481" lon="-2.34874">
        <ele>3.6</ele>
        <time>2018-09-16T16:51:25.000Z</time>
      </trkpt>
      <trkpt lat="46.72481" lon="-2.34875">
        <ele>3.6</ele>
        <time>2018-09-16T16:51:26.000Z</time>
      </trkpt>
      <trkpt lat="46.72482" lon="-2.34876">
        <ele>3.6</ele>
        <time>2018-09-16T16:51:27.000Z</time>
      </trkpt>
      <trkpt lat="46.72483" lon="-2.34876">
        <ele>3.6</ele>
        <time>2018-09-16T16:51:28.000Z</time>
      </trkpt>
      <trkpt lat="46.72484" lon="-2.34877">
        <ele>3.5</ele>
        <time>2018-09-16T16:51:29.000Z</time>
      </trkpt>
      <trkpt lat="46.72485" lon="-2.34877">
        <ele>3.5</ele>
        <time>2018-09-16T16:51:30.000Z</time>
      </trkpt>
      <trkpt lat="46.72486" lon="-2.34877">
        <ele>3.4</ele>
        <time>2018-09-16T16:51:31.000Z</time>
      </trkpt>
      <trkpt lat="46.72487" lon="-2.34877">
        <ele>3.3</ele>
        <time>2018-09-16T16:51:32.000Z</time>
      </trkpt>
      <trkpt lat="46.72488" lon="-2.34877">
        <ele>3.3</ele>
        <time>2018-09-16T17:04:41.000Z</time>
      </trkpt>
      <trkpt lat="46.72488" lon="-2.34877">
        <ele>3.3</ele>
        <time>2018-09-16T17:04:42.000Z</time>
      </trkpt>
      <trkpt lat="46.72489" lon="-2.34877">
        <ele>3.2</ele>
        <time>2018-09-16T17:04:43.000Z</time>
      </trkpt>
      <trkpt lat="46.72489" lon="-2.34877">
        <ele>3.2</ele>
        <time>2018-09-16T17:04:44.000Z</time>
      </trkpt>
      <trkpt lat="46.7249" lon="-2.34878">
        <ele>3.2</ele>
        <time>2018-09-16T17:04:45.000Z</time>
      </trkpt>
      <trkpt lat="46.7249" lon="-2.34879">
        <ele>3.2</ele>
        <time>2018-09-16T17:04:46.000Z</time>
      </trkpt>
      <trkpt lat="46.72491" lon="-2.3488">
        <ele>3.2</ele>
        <time>2018-09-16T17:04:47.000Z</time>
      </trkpt>
      <trkpt lat="46.72491" lon="-2.34881">
        <ele>3.2</ele>
        <time>2018-09-16T17:04:48.000Z</time>
      </trkpt>
      <trkpt lat="46.72492" lon="-2.34883">
        <ele>3.2</ele>
        <time>2018-09-16T17:04:49.000Z</time>
      </trkpt>
      <trkpt lat="46.72493" lon="-2.34884">
        <ele>3.3</ele>
        <time>2018-09-16T17:04:50.000Z</time>
      </trkpt>
      <trkpt lat="46.72493" lon="-2.34886">
        <ele>3.3</ele>
        <time>2018-09-16T17:04:51.000Z</time>
      </trkpt>
      <trkpt lat="46.72494" lon="-2.34887">
        <ele>3.3</ele>
        <time>2018-09-16T17:04:52.000Z</time>
      </trkpt>
      <trkpt lat="46.72495" lon="-2.34889">
        <ele>3.3</ele>
        <time>2018-09-16T17:04:53.000Z</time>
      </trkpt>
      <trkpt lat="46.72495" lon="-2.3489">
        <ele>3.3</ele>
        <time>2018-09-16T17:04:54.000Z</time>
      </trkpt>
      <trkpt lat="46.72496" lon="-2.34891">
        <ele>3.3</ele>
        <time>2018-09-16T17:04:55.000Z</time>
      </trkpt>
      <trkpt lat="46.72497" lon="-2.34892">
        <ele>3.3</ele>
        <time>2018-09-16T17:04:56.000Z</time>
      </trkpt>
      <trkpt lat="46.72497" lon="-2.34894">
        <ele>3.3</ele>
        <time>2018-09-16T17:04:57.000Z</time>
      </trkpt>
      <trkpt lat="46.72498" lon="-2.34895">
        <ele>3.3</ele>
        <time>2018-09-16T17:04:58.000Z</time>
      </trkpt>
      <trkpt lat="46.72499" lon="-2.34895">
        <ele>3.3</ele>
        <time>2018-09-16T17:04:59.000Z</time>
      </trkpt>
      <trkpt lat="46.72499" lon="-2.34896">
        <ele>3.3</ele>
        <time>2018-09-16T17:05:00.000Z</time>
      </trkpt>
      <trkpt lat="46.725" lon="-2.34897">
        <ele>3.3</ele>
        <time>2018-09-16T17:05:01.000Z</time>
      </trkpt>
      <trkpt lat="46.725" lon="-2.34898">
        <ele>3.3</ele>
        <time>2018-09-16T17:05:02.000Z</time>
      </trkpt>
      <trkpt lat="46.72501" lon="-2.34899">
        <ele>3.4</ele>
        <time>2018-09-16T17:05:03.000Z</time>
      </trkpt>
      <trkpt lat="46.72501" lon="-2.349">
        <ele>3.4</ele>
        <time>2018-09-16T17:05:04.000Z</time>
      </trkpt>
      <trkpt lat="46.72502" lon="-2.34901">
        <ele>3.4</ele>
        <time>2018-09-16T17:05:05.000Z</time>
      </trkpt>
      <trkpt lat="46.72502" lon="-2.34902">
        <ele>3.4</ele>
        <time>2018-09-16T17:05:06.000Z</time>
      </trkpt>
      <trkpt lat="46.72503" lon="-2.34903">
        <ele>3.4</ele>
        <time>2018-09-16T17:05:07.000Z</time>
      </trkpt>
      <trkpt lat="46.72503" lon="-2.34904">
        <ele>3.4</ele>
        <time>2018-09-16T17:05:08.000Z</time>
      </trkpt>
      <trkpt lat="46.72504" lon="-2.34906">
        <ele>3.5</ele>
        <time>2018-09-16T17:05:09.000Z</time>
      </trkpt>
      <trkpt lat="46.72505" lon="-2.34907">
        <ele>3.5</ele>
        <time>2018-09-16T17:05:10.000Z</time>
      </trkpt>
      <trkpt lat="46.72505" lon="-2.34908">
        <ele>3.5</ele>
        <time>2018-09-16T17:05:11.000Z</time>
      </trkpt>
      <trkpt lat="46.72506" lon="-2.34909">
        <ele>3.5</ele>
        <time>2018-09-16T17:05:12.000Z</time>
      </trkpt>
      <trkpt lat="46.72507" lon="-2.3491">
        <ele>3.5</ele>
        <time>2018-09-16T17:05:13.000Z</time>
      </trkpt>
      <trkpt lat="46.72508" lon="-2.34911">
        <ele>3.5</ele>
        <time>2018-09-16T17:05:14.000Z</time>
      </trkpt>
      <trkpt lat="46.72509" lon="-2.34913">
        <ele>3.6</ele>
        <time>2018-09-16T17:05:15.000Z</time>
      </trkpt>
      <trkpt lat="46.7251" lon="-2.34914">
        <ele>3.6</ele>
        <time>2018-09-16T17:05:16.000Z</time>
      </trkpt>
      <trkpt lat="46.7251" lon="-2.34915">
        <ele>3.6</ele>
        <time>2018-09-16T17:05:17.000Z</time>
      </trkpt>
      <trkpt lat="46.72511" lon="-2.34916">
        <ele>3.6</ele>
        <time>2018-09-16T17:05:18.000Z</time>
      </trkpt>
      <trkpt lat="46.72511" lon="-2.34917">
        <ele>3.6</ele>
        <time>2018-09-16T17:05:19.000Z</time>
      </trkpt>
      <trkpt lat="46.72511" lon="-2.34917">
        <ele>3.6</ele>
        <time>2018-09-16T17:05:20.000Z</time>
      </trkpt>
      <trkpt lat="46.72511" lon="-2.34917">
        <ele>3.6</ele>
        <time>2018-09-16T17:05:21.000Z</time>
      </trkpt>
      <trkpt lat="46.72511" lon="-2.34917">
        <ele>3.6</ele>
        <time>2018-09-16T17:05:22.000Z</time>
      </trkpt>
      <trkpt lat="46.72512" lon="-2.34918">
        <ele>3.6</ele>
        <time>2018-09-16T17:05:23.000Z</time>
      </trkpt>
      <trkpt lat="46.72513" lon="-2.34919">
        <ele>3.6</ele>
        <time>2018-09-16T17:05:24.000Z</time>
      </trkpt>
      <trkpt lat="46.72513" lon="-2.3492">
        <ele>3.6</ele>
        <time>2018-09-16T17:05:25.000Z</time>
      </trkpt>
      <trkpt lat="46.72514" lon="-2.34921">
        <ele>3.6</ele>
        <time>2018-09-16T17:05:26.000Z</time>
      </trkpt>
      <trkpt lat="46.72515" lon="-2.34923">
        <ele>3.6</ele>
        <time>2018-09-16T17:05:27.000Z</time>
      </trkpt>
      <trkpt lat="46.72516" lon="-2.34924">
        <ele>3.6</ele>
        <time>2018-09-16T17:05:28.000Z</time>
      </trkpt>
      <trkpt lat="46.72517" lon="-2.34925">
        <ele>3.6</ele>
        <time>2018-09-16T17:05:29.000Z</time>
      </trkpt>
      <trkpt lat="46.72518" lon="-2.34926">
        <ele>3.6</ele>
        <time>2018-09-16T17:05:30.000Z</time>
      </trkpt>
      <trkpt lat="46.72519" lon="-2.34928">
        <ele>3.6</ele>
        <time>2018-09-16T17:05:31.000Z</time>
      </trkpt>
      <trkpt lat="46.72519" lon="-2.34929">
        <ele>3.6</ele>
        <time>2018-09-16T17:05:32.000Z</time>
      </trkpt>
      <trkpt lat="46.7252" lon="-2.3493">
        <ele>3.6</ele>
        <time>2018-09-16T17:05:33.000Z</time>
      </trkpt>
      <trkpt lat="46.72521" lon="-2.34931">
        <ele>3.6</ele>
        <time>2018-09-16T17:05:34.000Z</time>
      </trkpt>
      <trkpt lat="46.72522" lon="-2.34932">
        <ele>3.6</ele>
        <time>2018-09-16T17:05:35.000Z</time>
      </trkpt>
      <trkpt lat="46.72522" lon="-2.34933">
        <ele>3.6</ele>
        <time>2018-09-16T17:05:36.000Z</time>
      </trkpt>
      <trkpt lat="46.72523" lon="-2.34934">
        <ele>3.6</ele>
        <time>2018-09-16T17:05:37.000Z</time>
      </trkpt>
      <trkpt lat="46.72524" lon="-2.34935">
        <ele>3.6</ele>
        <time>2018-09-16T17:05:38.000Z</time>
      </trkpt>
      <trkpt lat="46.72524" lon="-2.34936">
        <ele>3.7</ele>
        <time>2018-09-16T17:05:39.000Z</time>
      </trkpt>
      <trkpt lat="46.72525" lon="-2.34937">
        <ele>3.7</ele>
        <time>2018-09-16T17:05:40.000Z</time>
      </trkpt>
      <trkpt lat="46.72525" lon="-2.34938">
        <ele>3.7</ele>
        <time>2018-09-16T17:05:41.000Z</time>
      </trkpt>
      <trkpt lat="46.72526" lon="-2.3494">
        <ele>3.7</ele>
        <time>2018-09-16T17:05:42.000Z</time>
      </trkpt>
      <trkpt lat="46.72527" lon="-2.34941">
        <ele>3.7</ele>
        <time>2018-09-16T17:05:43.000Z</time>
      </trkpt>
      <trkpt lat="46.72527" lon="-2.34942">
        <ele>3.7</ele>
        <time>2018-09-16T17:05:44.000Z</time>
      </trkpt>
      <trkpt lat="46.72528" lon="-2.34943">
        <ele>3.7</ele>
        <time>2018-09-16T17:05:45.000Z</time>
      </trkpt>
      <trkpt lat="46.72528" lon="-2.34943">
        <ele>3.7</ele>
        <time>2018-09-16T17:05:46.000Z</time>
      </trkpt>
      <trkpt lat="46.72528" lon="-2.34943">
        <ele>3.7</ele>
        <time>2018-09-16T17:05:47.000Z</time>
      </trkpt>
      <trkpt lat="46.72528" lon="-2.34943">
        <ele>3.7</ele>
        <time>2018-09-16T17:05:48.000Z</time>
      </trkpt>
      <trkpt lat="46.72529" lon="-2.34944">
        <ele>3.7</ele>
        <time>2018-09-16T17:05:49.000Z</time>
      </trkpt>
      <trkpt lat="46.72529" lon="-2.34945">
        <ele>3.7</ele>
        <time>2018-09-16T17:05:50.000Z</time>
      </trkpt>
      <trkpt lat="46.72529" lon="-2.34946">
        <ele>3.8</ele>
        <time>2018-09-16T17:05:51.000Z</time>
      </trkpt>
      <trkpt lat="46.7253" lon="-2.34947">
        <ele>3.8</ele>
        <time>2018-09-16T17:05:52.000Z</time>
      </trkpt>
      <trkpt lat="46.7253" lon="-2.34948">
        <ele>3.8</ele>
        <time>2018-09-16T17:05:53.000Z</time>
      </trkpt>
      <trkpt lat="46.72531" lon="-2.34949">
        <ele>3.8</ele>
        <time>2018-09-16T17:05:54.000Z</time>
      </trkpt>
      <trkpt lat="46.72531" lon="-2.3495">
        <ele>3.8</ele>
        <time>2018-09-16T17:05:55.000Z</time>
      </trkpt>
      <trkpt lat="46.72532" lon="-2.34951">
        <ele>3.8</ele>
        <time>2018-09-16T17:05:56.000Z</time>
      </trkpt>
      <trkpt lat="46.72532" lon="-2.34952">
        <ele>3.8</ele>
        <time>2018-09-16T17:05:57.000Z</time>
      </trkpt>
      <trkpt lat="46.72532" lon="-2.34952">
        <ele>3.9</ele>
        <time>2018-09-16T17:05:58.000Z</time>
      </trkpt>
      <trkpt lat="46.72533" lon="-2.34953">
        <ele>3.9</ele>
        <time>2018-09-16T17:05:59.000Z</time>
      </trkpt>
      <trkpt lat="46.72533" lon="-2.34953">
        <ele>3.9</ele>
        <time>2018-09-16T17:06:00.000Z</time>
      </trkpt>
      <trkpt lat="46.72533" lon="-2.34953">
        <ele>3.9</ele>
        <time>2018-09-16T17:06:01.000Z</time>
      </trkpt>
      <trkpt lat="46.72533" lon="-2.34953">
        <ele>3.9</ele>
        <time>2018-09-16T17:06:02.000Z</time>
      </trkpt>
      <trkpt lat="46.72533" lon="-2.34953">
        <ele>3.9</ele>
        <time>2018-09-16T17:06:03.000Z</time>
      </trkpt>
      <trkpt lat="46.72533" lon="-2.34953">
        <ele>3.9</ele>
        <time>2018-09-16T17:06:04.000Z</time>
      </trkpt>
      <trkpt lat="46.72533" lon="-2.34953">
        <ele>3.9</ele>
        <time>2018-09-16T17:06:05.000Z</time>
      </trkpt>
      <trkpt lat="46.72533" lon="-2.34953">
        <ele>3.9</ele>
        <time>2018-09-16T17:06:06.000Z</time>
      </trkpt>
      <trkpt lat="46.72533" lon="-2.34954">
        <ele>3.9</ele>
        <time>2018-09-16T17:06:07.000Z</time>
      </trkpt>
      <trkpt lat="46.72533" lon="-2.34954">
        <ele>3.9</ele>
        <time>2018-09-16T17:06:08.000Z</time>
      </trkpt>
      <trkpt lat="46.72534" lon="-2.34955">
        <ele>3.9</ele>
        <time>2018-09-16T17:06:09.000Z</time>
      </trkpt>
      <trkpt lat="46.72534" lon="-2.34955">
        <ele>3.9</ele>
        <time>2018-09-16T17:06:10.000Z</time>
      </trkpt>
      <trkpt lat="46.72535" lon="-2.34956">
        <ele>3.9</ele>
        <time>2018-09-16T17:06:11.000Z</time>
      </trkpt>
      <trkpt lat="46.72536" lon="-2.34957">
        <ele>3.9</ele>
        <time>2018-09-16T17:06:12.000Z</time>
      </trkpt>
      <trkpt lat="46.72536" lon="-2.34958">
        <ele>3.9</ele>
        <time>2018-09-16T17:06:13.000Z</time>
      </trkpt>
      <trkpt lat="46.72537" lon="-2.34959">
        <ele>3.9</ele>
        <time>2018-09-16T17:06:14.000Z</time>
      </trkpt>
      <trkpt lat="46.72538" lon="-2.3496">
        <ele>3.9</ele>
        <time>2018-09-16T17:06:15.000Z</time>
      </trkpt>
      <trkpt lat="46.72539" lon="-2.34961">
        <ele>3.9</ele>
        <time>2018-09-16T17:06:16.000Z</time>
      </trkpt>
      <trkpt lat="46.7254" lon="-2.34962">
        <ele>3.9</ele>
        <time>2018-09-16T17:06:17.000Z</time>
      </trkpt>
      <trkpt lat="46.72541" lon="-2.34962">
        <ele>3.9</ele>
        <time>2018-09-16T17:06:18.000Z</time>
      </trkpt>
      <trkpt lat="46.72542" lon="-2.34963">
        <ele>3.9</ele>
        <time>2018-09-16T17:06:19.000Z</time>
      </trkpt>
      <trkpt lat="46.72543" lon="-2.34964">
        <ele>3.9</ele>
        <time>2018-09-16T17:06:20.000Z</time>
      </trkpt>
      <trkpt lat="46.72544" lon="-2.34965">
        <ele>3.9</ele>
        <time>2018-09-16T17:06:21.000Z</time>
      </trkpt>
      <trkpt lat="46.72545" lon="-2.34966">
        <ele>3.9</ele>
        <time>2018-09-16T17:06:22.000Z</time>
      </trkpt>
      <trkpt lat="46.72546" lon="-2.34966">
        <ele>3.9</ele>
        <time>2018-09-16T17:06:23.000Z</time>
      </trkpt>
      <trkpt lat="46.72547" lon="-2.34967">
        <ele>3.9</ele>
        <time>2018-09-16T17:06:24.000Z</time>
      </trkpt>
      <trkpt lat="46.72547" lon="-2.34968">
        <ele>3.9</ele>
        <time>2018-09-16T17:06:25.000Z</time>
      </trkpt>
      <trkpt lat="46.72548" lon="-2.34969">
        <ele>3.9</ele>
        <time>2018-09-16T17:06:26.000Z</time>
      </trkpt>
      <trkpt lat="46.72549" lon="-2.34969">
        <ele>3.9</ele>
        <time>2018-09-16T17:06:27.000Z</time>
      </trkpt>
      <trkpt lat="46.7255" lon="-2.3497">
        <ele>3.9</ele>
        <time>2018-09-16T17:06:28.000Z</time>
      </trkpt>
      <trkpt lat="46.72551" lon="-2.34971">
        <ele>3.9</ele>
        <time>2018-09-16T17:06:29.000Z</time>
      </trkpt>
      <trkpt lat="46.72552" lon="-2.34972">
        <ele>3.9</ele>
        <time>2018-09-16T17:06:30.000Z</time>
      </trkpt>
      <trkpt lat="46.72552" lon="-2.34972">
        <ele>3.9</ele>
        <time>2018-09-16T17:06:31.000Z</time>
      </trkpt>
      <trkpt lat="46.72553" lon="-2.34973">
        <ele>3.9</ele>
        <time>2018-09-16T17:06:32.000Z</time>
      </trkpt>
      <trkpt lat="46.72554" lon="-2.34974">
        <ele>3.9</ele>
        <time>2018-09-16T17:06:33.000Z</time>
      </trkpt>
      <trkpt lat="46.72555" lon="-2.34975">
        <ele>3.9</ele>
        <time>2018-09-16T17:06:34.000Z</time>
      </trkpt>
      <trkpt lat="46.72556" lon="-2.34975">
        <ele>3.9</ele>
        <time>2018-09-16T17:06:35.000Z</time>
      </trkpt>
      <trkpt lat="46.72557" lon="-2.34976">
        <ele>3.9</ele>
        <time>2018-09-16T17:06:36.000Z</time>
      </trkpt>
      <trkpt lat="46.72558" lon="-2.34977">
        <ele>3.9</ele>
        <time>2018-09-16T17:06:37.000Z</time>
      </trkpt>
      <trkpt lat="46.72559" lon="-2.34978">
        <ele>3.9</ele>
        <time>2018-09-16T17:06:38.000Z</time>
      </trkpt>
      <trkpt lat="46.7256" lon="-2.34978">
        <ele>3.8</ele>
        <time>2018-09-16T17:06:39.000Z</time>
      </trkpt>
      <trkpt lat="46.72561" lon="-2.34979">
        <ele>3.8</ele>
        <time>2018-09-16T17:06:40.000Z</time>
      </trkpt>
      <trkpt lat="46.72562" lon="-2.3498">
        <ele>3.8</ele>
        <time>2018-09-16T17:06:41.000Z</time>
      </trkpt>
      <trkpt lat="46.72563" lon="-2.3498">
        <ele>3.8</ele>
        <time>2018-09-16T17:06:42.000Z</time>
      </trkpt>
      <trkpt lat="46.72564" lon="-2.34981">
        <ele>3.8</ele>
        <time>2018-09-16T17:06:43.000Z</time>
      </trkpt>
      <trkpt lat="46.72565" lon="-2.34981">
        <ele>3.8</ele>
        <time>2018-09-16T17:06:44.000Z</time>
      </trkpt>
      <trkpt lat="46.72566" lon="-2.34982">
        <ele>3.8</ele>
        <time>2018-09-16T17:06:45.000Z</time>
      </trkpt>
      <trkpt lat="46.72567" lon="-2.34982">
        <ele>3.8</ele>
        <time>2018-09-16T17:06:46.000Z</time>
      </trkpt>
      <trkpt lat="46.72568" lon="-2.34982">
        <ele>3.8</ele>
        <time>2018-09-16T17:06:47.000Z</time>
      </trkpt>
      <trkpt lat="46.72568" lon="-2.34983">
        <ele>3.8</ele>
        <time>2018-09-16T17:06:48.000Z</time>
      </trkpt>
      <trkpt lat="46.72569" lon="-2.34983">
        <ele>3.8</ele>
        <time>2018-09-16T17:06:49.000Z</time>
      </trkpt>
      <trkpt lat="46.72569" lon="-2.34983">
        <ele>3.8</ele>
        <time>2018-09-16T17:06:50.000Z</time>
      </trkpt>
      <trkpt lat="46.72569" lon="-2.34983">
        <ele>3.8</ele>
        <time>2018-09-16T17:06:51.000Z</time>
      </trkpt>
      <trkpt lat="46.72569" lon="-2.34984">
        <ele>3.8</ele>
        <time>2018-09-16T17:06:52.000Z</time>
      </trkpt>
      <trkpt lat="46.72569" lon="-2.34984">
        <ele>3.8</ele>
        <time>2018-09-16T17:06:53.000Z</time>
      </trkpt>
      <trkpt lat="46.72569" lon="-2.34984">
        <ele>3.8</ele>
        <time>2018-09-16T17:06:54.000Z</time>
      </trkpt>
      <trkpt lat="46.72569" lon="-2.34984">
        <ele>3.8</ele>
        <time>2018-09-16T17:06:55.000Z</time>
      </trkpt>
      <trkpt lat="46.72569" lon="-2.34984">
        <ele>3.8</ele>
        <time>2018-09-16T17:06:56.000Z</time>
      </trkpt>
      <trkpt lat="46.72569" lon="-2.34984">
        <ele>3.8</ele>
        <time>2018-09-16T17:06:57.000Z</time>
      </trkpt>
      <trkpt lat="46.72569" lon="-2.34984">
        <ele>3.8</ele>
        <time>2018-09-16T17:06:58.000Z</time>
      </trkpt>
      <trkpt lat="46.72569" lon="-2.34984">
        <ele>3.8</ele>
        <time>2018-09-16T17:06:59.000Z</time>
      </trkpt>
      <trkpt lat="46.72569" lon="-2.34984">
        <ele>3.8</ele>
        <time>2018-09-16T17:07:00.000Z</time>
      </trkpt>
      <trkpt lat="46.7257" lon="-2.34984">
        <ele>3.8</ele>
        <time>2018-09-16T17:07:01.000Z</time>
      </trkpt>
      <trkpt lat="46.7257" lon="-2.34984">
        <ele>3.8</ele>
        <time>2018-09-16T17:07:02.000Z</time>
      </trkpt>
      <trkpt lat="46.72571" lon="-2.34984">
        <ele>3.7</ele>
        <time>2018-09-16T17:07:03.000Z</time>
      </trkpt>
      <trkpt lat="46.72572" lon="-2.34983">
        <ele>3.7</ele>
        <time>2018-09-16T17:07:04.000Z</time>
      </trkpt>
      <trkpt lat="46.72573" lon="-2.34983">
        <ele>3.7</ele>
        <time>2018-09-16T17:07:05.000Z</time>
      </trkpt>
      <trkpt lat="46.72573" lon="-2.34983">
        <ele>3.7</ele>
        <time>2018-09-16T17:07:06.000Z</time>
      </trkpt>
      <trkpt lat="46.72574" lon="-2.34983">
        <ele>3.6</ele>
        <time>2018-09-16T17:07:07.000Z</time>
      </trkpt>
      <trkpt lat="46.72575" lon="-2.34983">
        <ele>3.6</ele>
        <time>2018-09-16T17:07:08.000Z</time>
      </trkpt>
      <trkpt lat="46.72576" lon="-2.34983">
        <ele>3.6</ele>
        <time>2018-09-16T17:07:09.000Z</time>
      </trkpt>
      <trkpt lat="46.72577" lon="-2.34983">
        <ele>3.5</ele>
        <time>2018-09-16T17:07:10.000Z</time>
      </trkpt>
      <trkpt lat="46.72578" lon="-2.34983">
        <ele>3.5</ele>
        <time>2018-09-16T17:07:11.000Z</time>
      </trkpt>
      <trkpt lat="46.72579" lon="-2.34983">
        <ele>3.5</ele>
        <time>2018-09-16T17:07:12.000Z</time>
      </trkpt>
      <trkpt lat="46.7258" lon="-2.34983">
        <ele>3.5</ele>
        <time>2018-09-16T17:07:13.000Z</time>
      </trkpt>
      <trkpt lat="46.72581" lon="-2.34983">
        <ele>3.4</ele>
        <time>2018-09-16T17:07:14.000Z</time>
      </trkpt>
      <trkpt lat="46.72582" lon="-2.34983">
        <ele>3.4</ele>
        <time>2018-09-16T17:07:15.000Z</time>
      </trkpt>
      <trkpt lat="46.72583" lon="-2.34983">
        <ele>3.4</ele>
        <time>2018-09-16T17:07:16.000Z</time>
      </trkpt>
      <trkpt lat="46.72584" lon="-2.34984">
        <ele>3.4</ele>
        <time>2018-09-16T17:07:17.000Z</time>
      </trkpt>
      <trkpt lat="46.72585" lon="-2.34984">
        <ele>3.4</ele>
        <time>2018-09-16T17:07:18.000Z</time>
      </trkpt>
      <trkpt lat="46.72586" lon="-2.34984">
        <ele>3.4</ele>
        <time>2018-09-16T17:07:19.000Z</time>
      </trkpt>
      <trkpt lat="46.72587" lon="-2.34984">
        <ele>3.4</ele>
        <time>2018-09-16T17:07:20.000Z</time>
      </trkpt>
      <trkpt lat="46.72588" lon="-2.34984">
        <ele>3.4</ele>
        <time>2018-09-16T17:07:21.000Z</time>
      </trkpt>
      <trkpt lat="46.72589" lon="-2.34984">
        <ele>3.4</ele>
        <time>2018-09-16T17:07:22.000Z</time>
      </trkpt>
      <trkpt lat="46.7259" lon="-2.34984">
        <ele>3.3</ele>
        <time>2018-09-16T17:07:23.000Z</time>
      </trkpt>
      <trkpt lat="46.7259" lon="-2.34984">
        <ele>3.3</ele>
        <time>2018-09-16T17:07:24.000Z</time>
      </trkpt>
      <trkpt lat="46.7259" lon="-2.34984">
        <ele>3.3</ele>
        <time>2018-09-16T17:07:25.000Z</time>
      </trkpt>
      <trkpt lat="46.7259" lon="-2.34984">
        <ele>3.3</ele>
        <time>2018-09-16T17:07:26.000Z</time>
      </trkpt>
      <trkpt lat="46.7259" lon="-2.34984">
        <ele>3.4</ele>
        <time>2018-09-16T17:07:27.000Z</time>
      </trkpt>
      <trkpt lat="46.7259" lon="-2.34984">
        <ele>3.4</ele>
        <time>2018-09-16T17:07:28.000Z</time>
      </trkpt>
      <trkpt lat="46.7259" lon="-2.34984">
        <ele>3.4</ele>
        <time>2018-09-16T17:07:29.000Z</time>
      </trkpt>
      <trkpt lat="46.7259" lon="-2.34984">
        <ele>3.4</ele>
        <time>2018-09-16T17:07:30.000Z</time>
      </trkpt>
      <trkpt lat="46.7259" lon="-2.34984">
        <ele>3.4</ele>
        <time>2018-09-16T17:07:31.000Z</time>
      </trkpt>
      <trkpt lat="46.7259" lon="-2.34984">
        <ele>3.4</ele>
        <time>2018-09-16T17:07:32.000Z</time>
      </trkpt>
      <trkpt lat="46.7259" lon="-2.34984">
        <ele>3.4</ele>
        <time>2018-09-16T17:07:33.000Z</time>
      </trkpt>
      <trkpt lat="46.7259" lon="-2.34985">
        <ele>3.4</ele>
        <time>2018-09-16T17:07:34.000Z</time>
      </trkpt>
      <trkpt lat="46.72591" lon="-2.34985">
        <ele>3.4</ele>
        <time>2018-09-16T17:07:35.000Z</time>
      </trkpt>
      <trkpt lat="46.72591" lon="-2.34986">
        <ele>3.4</ele>
        <time>2018-09-16T17:07:36.000Z</time>
      </trkpt>
      <trkpt lat="46.72591" lon="-2.34987">
        <ele>3.4</ele>
        <time>2018-09-16T17:07:37.000Z</time>
      </trkpt>
      <trkpt lat="46.72592" lon="-2.34988">
        <ele>3.5</ele>
        <time>2018-09-16T17:07:38.000Z</time>
      </trkpt>
      <trkpt lat="46.72593" lon="-2.3499">
        <ele>3.5</ele>
        <time>2018-09-16T17:07:39.000Z</time>
      </trkpt>
      <trkpt lat="46.72593" lon="-2.34991">
        <ele>3.6</ele>
        <time>2018-09-16T17:07:40.000Z</time>
      </trkpt>
      <trkpt lat="46.72594" lon="-2.34992">
        <ele>3.6</ele>
        <time>2018-09-16T17:07:41.000Z</time>
      </trkpt>
      <trkpt lat="46.72594" lon="-2.34994">
        <ele>3.7</ele>
        <time>2018-09-16T17:07:42.000Z</time>
      </trkpt>
      <trkpt lat="46.72595" lon="-2.34995">
        <ele>3.7</ele>
        <time>2018-09-16T17:07:43.000Z</time>
      </trkpt>
      <trkpt lat="46.72595" lon="-2.34997">
        <ele>3.7</ele>
        <time>2018-09-16T17:07:44.000Z</time>
      </trkpt>
      <trkpt lat="46.72596" lon="-2.34998">
        <ele>3.8</ele>
        <time>2018-09-16T17:07:45.000Z</time>
      </trkpt>
      <trkpt lat="46.72596" lon="-2.34999">
        <ele>3.8</ele>
        <time>2018-09-16T17:07:46.000Z</time>
      </trkpt>
      <trkpt lat="46.72597" lon="-2.35001">
        <ele>3.9</ele>
        <time>2018-09-16T17:07:47.000Z</time>
      </trkpt>
      <trkpt lat="46.72597" lon="-2.35002">
        <ele>3.9</ele>
        <time>2018-09-16T17:07:48.000Z</time>
      </trkpt>
      <trkpt lat="46.72598" lon="-2.35004">
        <ele>3.9</ele>
        <time>2018-09-16T17:07:49.000Z</time>
      </trkpt>
      <trkpt lat="46.72598" lon="-2.35005">
        <ele>3.9</ele>
        <time>2018-09-16T17:07:50.000Z</time>
      </trkpt>
      <trkpt lat="46.72599" lon="-2.35007">
        <ele>3.9</ele>
        <time>2018-09-16T17:07:51.000Z</time>
      </trkpt>
      <trkpt lat="46.726" lon="-2.35008">
        <ele>3.9</ele>
        <time>2018-09-16T17:07:52.000Z</time>
      </trkpt>
      <trkpt lat="46.726" lon="-2.35009">
        <ele>3.9</ele>
        <time>2018-09-16T17:07:53.000Z</time>
      </trkpt>
      <trkpt lat="46.72601" lon="-2.35011">
        <ele>3.9</ele>
        <time>2018-09-16T17:07:54.000Z</time>
      </trkpt>
      <trkpt lat="46.72601" lon="-2.35012">
        <ele>3.9</ele>
        <time>2018-09-16T17:07:55.000Z</time>
      </trkpt>
      <trkpt lat="46.72602" lon="-2.35013">
        <ele>3.9</ele>
        <time>2018-09-16T17:07:56.000Z</time>
      </trkpt>
      <trkpt lat="46.72603" lon="-2.35015">
        <ele>3.9</ele>
        <time>2018-09-16T17:07:57.000Z</time>
      </trkpt>
      <trkpt lat="46.72603" lon="-2.35016">
        <ele>3.9</ele>
        <time>2018-09-16T17:07:58.000Z</time>
      </trkpt>
      <trkpt lat="46.72604" lon="-2.35017">
        <ele>4</ele>
        <time>2018-09-16T17:07:59.000Z</time>
      </trkpt>
      <trkpt lat="46.72605" lon="-2.35018">
        <ele>4</ele>
        <time>2018-09-16T17:08:00.000Z</time>
      </trkpt>
      <trkpt lat="46.72605" lon="-2.35019">
        <ele>4</ele>
        <time>2018-09-16T17:08:01.000Z</time>
      </trkpt>
      <trkpt lat="46.72605" lon="-2.35019">
        <ele>4</ele>
        <time>2018-09-16T17:08:02.000Z</time>
      </trkpt>
      <trkpt lat="46.72606" lon="-2.3502">
        <ele>4</ele>
        <time>2018-09-16T17:08:03.000Z</time>
      </trkpt>
      <trkpt lat="46.72606" lon="-2.35021">
        <ele>4</ele>
        <time>2018-09-16T17:08:04.000Z</time>
      </trkpt>
      <trkpt lat="46.72606" lon="-2.35022">
        <ele>4</ele>
        <time>2018-09-16T17:08:05.000Z</time>
      </trkpt>
      <trkpt lat="46.72606" lon="-2.35023">
        <ele>4</ele>
        <time>2018-09-16T17:08:06.000Z</time>
      </trkpt>
      <trkpt lat="46.72606" lon="-2.35024">
        <ele>4</ele>
        <time>2018-09-16T17:08:07.000Z</time>
      </trkpt>
      <trkpt lat="46.72606" lon="-2.35025">
        <ele>4</ele>
        <time>2018-09-16T17:08:08.000Z</time>
      </trkpt>
      <trkpt lat="46.72606" lon="-2.35026">
        <ele>4</ele>
        <time>2018-09-16T17:08:09.000Z</time>
      </trkpt>
      <trkpt lat="46.72605" lon="-2.35027">
        <ele>4.1</ele>
        <time>2018-09-16T17:08:10.000Z</time>
      </trkpt>
      <trkpt lat="46.72605" lon="-2.35029">
        <ele>4.1</ele>
        <time>2018-09-16T17:08:11.000Z</time>
      </trkpt>
      <trkpt lat="46.72604" lon="-2.3503">
        <ele>4.1</ele>
        <time>2018-09-16T17:08:12.000Z</time>
      </trkpt>
      <trkpt lat="46.72603" lon="-2.35031">
        <ele>4.1</ele>
        <time>2018-09-16T17:08:13.000Z</time>
      </trkpt>
      <trkpt lat="46.72603" lon="-2.35032">
        <ele>4.2</ele>
        <time>2018-09-16T17:08:14.000Z</time>
      </trkpt>
      <trkpt lat="46.72602" lon="-2.35033">
        <ele>4.2</ele>
        <time>2018-09-16T17:08:15.000Z</time>
      </trkpt>
      <trkpt lat="46.72601" lon="-2.35034">
        <ele>4.2</ele>
        <time>2018-09-16T17:08:16.000Z</time>
      </trkpt>
      <trkpt lat="46.726" lon="-2.35035">
        <ele>4.2</ele>
        <time>2018-09-16T17:08:17.000Z</time>
      </trkpt>
      <trkpt lat="46.72599" lon="-2.35035">
        <ele>4.2</ele>
        <time>2018-09-16T17:08:18.000Z</time>
      </trkpt>
      <trkpt lat="46.72598" lon="-2.35036">
        <ele>4.3</ele>
        <time>2018-09-16T17:08:19.000Z</time>
      </trkpt>
      <trkpt lat="46.72597" lon="-2.35036">
        <ele>4.3</ele>
        <time>2018-09-16T17:08:20.000Z</time>
      </trkpt>
      <trkpt lat="46.72595" lon="-2.35037">
        <ele>4.3</ele>
        <time>2018-09-16T17:08:21.000Z</time>
      </trkpt>
      <trkpt lat="46.72594" lon="-2.35037">
        <ele>4.3</ele>
        <time>2018-09-16T17:08:22.000Z</time>
      </trkpt>
      <trkpt lat="46.72594" lon="-2.35038">
        <ele>4.3</ele>
        <time>2018-09-16T17:08:23.000Z</time>
      </trkpt>
      <trkpt lat="46.72593" lon="-2.35039">
        <ele>4.4</ele>
        <time>2018-09-16T17:08:24.000Z</time>
      </trkpt>
      <trkpt lat="46.72592" lon="-2.3504">
        <ele>4.4</ele>
        <time>2018-09-16T17:08:25.000Z</time>
      </trkpt>
      <trkpt lat="46.72591" lon="-2.35041">
        <ele>4.4</ele>
        <time>2018-09-16T17:08:26.000Z</time>
      </trkpt>
      <trkpt lat="46.72591" lon="-2.35043">
        <ele>4.4</ele>
        <time>2018-09-16T17:08:27.000Z</time>
      </trkpt>
      <trkpt lat="46.7259" lon="-2.35045">
        <ele>4.5</ele>
        <time>2018-09-16T17:08:28.000Z</time>
      </trkpt>
      <trkpt lat="46.7259" lon="-2.35046">
        <ele>4.5</ele>
        <time>2018-09-16T17:08:29.000Z</time>
      </trkpt>
      <trkpt lat="46.7259" lon="-2.35047">
        <ele>4.5</ele>
        <time>2018-09-16T17:08:30.000Z</time>
      </trkpt>
      <trkpt lat="46.72591" lon="-2.35048">
        <ele>4.5</ele>
        <time>2018-09-16T17:08:31.000Z</time>
      </trkpt>
      <trkpt lat="46.72591" lon="-2.35049">
        <ele>4.5</ele>
        <time>2018-09-16T17:08:32.000Z</time>
      </trkpt>
      <trkpt lat="46.72592" lon="-2.3505">
        <ele>4.5</ele>
        <time>2018-09-16T17:08:33.000Z</time>
      </trkpt>
      <trkpt lat="46.72592" lon="-2.35052">
        <ele>4.5</ele>
        <time>2018-09-16T17:08:34.000Z</time>
      </trkpt>
      <trkpt lat="46.72592" lon="-2.35054">
        <ele>4.6</ele>
        <time>2018-09-16T17:08:35.000Z</time>
      </trkpt>
      <trkpt lat="46.72591" lon="-2.35057">
        <ele>4.6</ele>
        <time>2018-09-16T17:08:36.000Z</time>
      </trkpt>
      <trkpt lat="46.72591" lon="-2.35059">
        <ele>4.6</ele>
        <time>2018-09-16T17:08:37.000Z</time>
      </trkpt>
      <trkpt lat="46.72591" lon="-2.35061">
        <ele>4.6</ele>
        <time>2018-09-16T17:08:38.000Z</time>
      </trkpt>
      <trkpt lat="46.72591" lon="-2.35062">
        <ele>4.7</ele>
        <time>2018-09-16T17:08:39.000Z</time>
      </trkpt>
      <trkpt lat="46.72591" lon="-2.35063">
        <ele>4.7</ele>
        <time>2018-09-16T17:08:40.000Z</time>
      </trkpt>
      <trkpt lat="46.7259" lon="-2.35064">
        <ele>4.7</ele>
        <time>2018-09-16T17:08:41.000Z</time>
      </trkpt>
      <trkpt lat="46.7259" lon="-2.35066">
        <ele>4.7</ele>
        <time>2018-09-16T17:08:42.000Z</time>
      </trkpt>
      <trkpt lat="46.72591" lon="-2.35067">
        <ele>4.7</ele>
        <time>2018-09-16T17:08:43.000Z</time>
      </trkpt>
      <trkpt lat="46.72591" lon="-2.35068">
        <ele>4.7</ele>
        <time>2018-09-16T17:08:44.000Z</time>
      </trkpt>
      <trkpt lat="46.72592" lon="-2.35069">
        <ele>4.7</ele>
        <time>2018-09-16T17:08:45.000Z</time>
      </trkpt>
      <trkpt lat="46.72592" lon="-2.35071">
        <ele>4.7</ele>
        <time>2018-09-16T17:08:46.000Z</time>
      </trkpt>
      <trkpt lat="46.72593" lon="-2.35072">
        <ele>4.8</ele>
        <time>2018-09-16T17:08:47.000Z</time>
      </trkpt>
      <trkpt lat="46.72594" lon="-2.35074">
        <ele>4.8</ele>
        <time>2018-09-16T17:08:48.000Z</time>
      </trkpt>
      <trkpt lat="46.72595" lon="-2.35076">
        <ele>4.8</ele>
        <time>2018-09-16T17:08:49.000Z</time>
      </trkpt>
      <trkpt lat="46.72596" lon="-2.35077">
        <ele>4.8</ele>
        <time>2018-09-16T17:08:50.000Z</time>
      </trkpt>
      <trkpt lat="46.72597" lon="-2.35078">
        <ele>4.8</ele>
        <time>2018-09-16T17:08:51.000Z</time>
      </trkpt>
      <trkpt lat="46.72598" lon="-2.35079">
        <ele>4.8</ele>
        <time>2018-09-16T17:08:52.000Z</time>
      </trkpt>
      <trkpt lat="46.72599" lon="-2.3508">
        <ele>4.8</ele>
        <time>2018-09-16T17:08:53.000Z</time>
      </trkpt>
      <trkpt lat="46.72599" lon="-2.35081">
        <ele>4.8</ele>
        <time>2018-09-16T17:08:54.000Z</time>
      </trkpt>
      <trkpt lat="46.726" lon="-2.35081">
        <ele>4.8</ele>
        <time>2018-09-16T17:08:55.000Z</time>
      </trkpt>
      <trkpt lat="46.72601" lon="-2.35082">
        <ele>4.8</ele>
        <time>2018-09-16T17:08:56.000Z</time>
      </trkpt>
      <trkpt lat="46.72602" lon="-2.35083">
        <ele>4.8</ele>
        <time>2018-09-16T17:08:57.000Z</time>
      </trkpt>
      <trkpt lat="46.72602" lon="-2.35084">
        <ele>4.8</ele>
        <time>2018-09-16T17:08:58.000Z</time>
      </trkpt>
      <trkpt lat="46.72603" lon="-2.35085">
        <ele>4.8</ele>
        <time>2018-09-16T17:08:59.000Z</time>
      </trkpt>
      <trkpt lat="46.72603" lon="-2.35086">
        <ele>4.8</ele>
        <time>2018-09-16T17:09:00.000Z</time>
      </trkpt>
      <trkpt lat="46.72604" lon="-2.35086">
        <ele>4.8</ele>
        <time>2018-09-16T17:09:01.000Z</time>
      </trkpt>
      <trkpt lat="46.72604" lon="-2.35086">
        <ele>4.8</ele>
        <time>2018-09-16T17:09:02.000Z</time>
      </trkpt>
      <trkpt lat="46.72605" lon="-2.35087">
        <ele>4.8</ele>
        <time>2018-09-16T17:09:03.000Z</time>
      </trkpt>
      <trkpt lat="46.72605" lon="-2.35087">
        <ele>4.8</ele>
        <time>2018-09-16T17:09:04.000Z</time>
      </trkpt>
      <trkpt lat="46.72605" lon="-2.35088">
        <ele>4.8</ele>
        <time>2018-09-16T17:09:05.000Z</time>
      </trkpt>
      <trkpt lat="46.72605" lon="-2.35088">
        <ele>4.8</ele>
        <time>2018-09-16T17:09:06.000Z</time>
      </trkpt>
      <trkpt lat="46.72606" lon="-2.35089">
        <ele>4.7</ele>
        <time>2018-09-16T17:09:07.000Z</time>
      </trkpt>
      <trkpt lat="46.72606" lon="-2.3509">
        <ele>4.7</ele>
        <time>2018-09-16T17:09:08.000Z</time>
      </trkpt>
      <trkpt lat="46.72607" lon="-2.35091">
        <ele>4.7</ele>
        <time>2018-09-16T17:09:09.000Z</time>
      </trkpt>
      <trkpt lat="46.72607" lon="-2.35092">
        <ele>4.7</ele>
        <time>2018-09-16T17:09:10.000Z</time>
      </trkpt>
      <trkpt lat="46.72607" lon="-2.35093">
        <ele>4.7</ele>
        <time>2018-09-16T17:09:11.000Z</time>
      </trkpt>
      <trkpt lat="46.72608" lon="-2.35094">
        <ele>4.7</ele>
        <time>2018-09-16T17:09:12.000Z</time>
      </trkpt>
      <trkpt lat="46.72608" lon="-2.35096">
        <ele>4.7</ele>
        <time>2018-09-16T17:09:13.000Z</time>
      </trkpt>
      <trkpt lat="46.72609" lon="-2.35097">
        <ele>4.7</ele>
        <time>2018-09-16T17:09:14.000Z</time>
      </trkpt>
      <trkpt lat="46.72609" lon="-2.35099">
        <ele>4.7</ele>
        <time>2018-09-16T17:09:15.000Z</time>
      </trkpt>
      <trkpt lat="46.7261" lon="-2.351">
        <ele>4.7</ele>
        <time>2018-09-16T17:09:16.000Z</time>
      </trkpt>
      <trkpt lat="46.72611" lon="-2.35102">
        <ele>4.7</ele>
        <time>2018-09-16T17:09:17.000Z</time>
      </trkpt>
      <trkpt lat="46.72611" lon="-2.35104">
        <ele>4.7</ele>
        <time>2018-09-16T17:09:18.000Z</time>
      </trkpt>
      <trkpt lat="46.72612" lon="-2.35106">
        <ele>4.8</ele>
        <time>2018-09-16T17:09:19.000Z</time>
      </trkpt>
      <trkpt lat="46.72612" lon="-2.35107">
        <ele>4.8</ele>
        <time>2018-09-16T17:09:20.000Z</time>
      </trkpt>
      <trkpt lat="46.72613" lon="-2.35109">
        <ele>4.8</ele>
        <time>2018-09-16T17:09:21.000Z</time>
      </trkpt>
      <trkpt lat="46.72614" lon="-2.35111">
        <ele>4.8</ele>
        <time>2018-09-16T17:09:22.000Z</time>
      </trkpt>
      <trkpt lat="46.72614" lon="-2.35113">
        <ele>4.8</ele>
        <time>2018-09-16T17:09:23.000Z</time>
      </trkpt>
      <trkpt lat="46.72615" lon="-2.35114">
        <ele>4.8</ele>
        <time>2018-09-16T17:09:24.000Z</time>
      </trkpt>
      <trkpt lat="46.72616" lon="-2.35116">
        <ele>4.8</ele>
        <time>2018-09-16T17:09:25.000Z</time>
      </trkpt>
      <trkpt lat="46.72617" lon="-2.35118">
        <ele>4.8</ele>
        <time>2018-09-16T17:09:26.000Z</time>
      </trkpt>
      <trkpt lat="46.72617" lon="-2.35119">
        <ele>4.8</ele>
        <time>2018-09-16T17:09:27.000Z</time>
      </trkpt>
      <trkpt lat="46.72618" lon="-2.3512">
        <ele>4.8</ele>
        <time>2018-09-16T17:09:28.000Z</time>
      </trkpt>
      <trkpt lat="46.72618" lon="-2.35121">
        <ele>4.8</ele>
        <time>2018-09-16T17:09:29.000Z</time>
      </trkpt>
      <trkpt lat="46.72618" lon="-2.35122">
        <ele>4.8</ele>
        <time>2018-09-16T17:09:30.000Z</time>
      </trkpt>
      <trkpt lat="46.72619" lon="-2.35122">
        <ele>4.8</ele>
        <time>2018-09-16T17:09:31.000Z</time>
      </trkpt>
      <trkpt lat="46.72619" lon="-2.35122">
        <ele>4.8</ele>
        <time>2018-09-16T17:09:32.000Z</time>
      </trkpt>
      <trkpt lat="46.72619" lon="-2.35123">
        <ele>4.8</ele>
        <time>2018-09-16T17:09:33.000Z</time>
      </trkpt>
      <trkpt lat="46.72619" lon="-2.35122">
        <ele>4.8</ele>
        <time>2018-09-16T17:09:34.000Z</time>
      </trkpt>
      <trkpt lat="46.72619" lon="-2.35122">
        <ele>4.8</ele>
        <time>2018-09-16T17:09:35.000Z</time>
      </trkpt>
      <trkpt lat="46.72619" lon="-2.35122">
        <ele>4.8</ele>
        <time>2018-09-16T17:09:36.000Z</time>
      </trkpt>
      <trkpt lat="46.72619" lon="-2.35123">
        <ele>4.8</ele>
        <time>2018-09-16T17:09:37.000Z</time>
      </trkpt>
      <trkpt lat="46.72619" lon="-2.35123">
        <ele>4.8</ele>
        <time>2018-09-16T17:09:38.000Z</time>
      </trkpt>
      <trkpt lat="46.72619" lon="-2.35123">
        <ele>4.8</ele>
        <time>2018-09-16T17:09:39.000Z</time>
      </trkpt>
      <trkpt lat="46.72619" lon="-2.35123">
        <ele>4.8</ele>
        <time>2018-09-16T17:09:40.000Z</time>
      </trkpt>
      <trkpt lat="46.7262" lon="-2.35124">
        <ele>4.8</ele>
        <time>2018-09-16T17:09:41.000Z</time>
      </trkpt>
      <trkpt lat="46.7262" lon="-2.35125">
        <ele>4.8</ele>
        <time>2018-09-16T17:09:42.000Z</time>
      </trkpt>
      <trkpt lat="46.7262" lon="-2.35125">
        <ele>4.8</ele>
        <time>2018-09-16T17:09:43.000Z</time>
      </trkpt>
      <trkpt lat="46.72621" lon="-2.35127">
        <ele>4.8</ele>
        <time>2018-09-16T17:09:44.000Z</time>
      </trkpt>
      <trkpt lat="46.72621" lon="-2.35128">
        <ele>4.8</ele>
        <time>2018-09-16T17:09:45.000Z</time>
      </trkpt>
      <trkpt lat="46.72622" lon="-2.35129">
        <ele>4.8</ele>
        <time>2018-09-16T17:09:46.000Z</time>
      </trkpt>
      <trkpt lat="46.72622" lon="-2.35131">
        <ele>4.8</ele>
        <time>2018-09-16T17:09:47.000Z</time>
      </trkpt>
      <trkpt lat="46.72623" lon="-2.35132">
        <ele>4.8</ele>
        <time>2018-09-16T17:09:48.000Z</time>
      </trkpt>
      <trkpt lat="46.72623" lon="-2.35134">
        <ele>4.8</ele>
        <time>2018-09-16T17:09:49.000Z</time>
      </trkpt>
      <trkpt lat="46.72624" lon="-2.35136">
        <ele>4.8</ele>
        <time>2018-09-16T17:09:50.000Z</time>
      </trkpt>
      <trkpt lat="46.72624" lon="-2.35137">
        <ele>4.8</ele>
        <time>2018-09-16T17:09:51.000Z</time>
      </trkpt>
      <trkpt lat="46.72625" lon="-2.35139">
        <ele>4.8</ele>
        <time>2018-09-16T17:09:52.000Z</time>
      </trkpt>
      <trkpt lat="46.72626" lon="-2.35141">
        <ele>4.8</ele>
        <time>2018-09-16T17:09:53.000Z</time>
      </trkpt>
      <trkpt lat="46.72626" lon="-2.35143">
        <ele>4.9</ele>
        <time>2018-09-16T17:09:54.000Z</time>
      </trkpt>
      <trkpt lat="46.72627" lon="-2.35144">
        <ele>4.9</ele>
        <time>2018-09-16T17:09:55.000Z</time>
      </trkpt>
      <trkpt lat="46.72628" lon="-2.35146">
        <ele>4.9</ele>
        <time>2018-09-16T17:09:56.000Z</time>
      </trkpt>
      <trkpt lat="46.72628" lon="-2.35147">
        <ele>4.9</ele>
        <time>2018-09-16T17:09:57.000Z</time>
      </trkpt>
      <trkpt lat="46.72629" lon="-2.35149">
        <ele>4.9</ele>
        <time>2018-09-16T17:09:58.000Z</time>
      </trkpt>
      <trkpt lat="46.7263" lon="-2.3515">
        <ele>4.9</ele>
        <time>2018-09-16T17:09:59.000Z</time>
      </trkpt>
      <trkpt lat="46.7263" lon="-2.35152">
        <ele>4.9</ele>
        <time>2018-09-16T17:10:00.000Z</time>
      </trkpt>
      <trkpt lat="46.7263" lon="-2.35153">
        <ele>4.9</ele>
        <time>2018-09-16T17:10:01.000Z</time>
      </trkpt>
      <trkpt lat="46.72631" lon="-2.35155">
        <ele>4.9</ele>
        <time>2018-09-16T17:10:02.000Z</time>
      </trkpt>
      <trkpt lat="46.72631" lon="-2.35156">
        <ele>4.9</ele>
        <time>2018-09-16T17:10:03.000Z</time>
      </trkpt>
      <trkpt lat="46.72631" lon="-2.35157">
        <ele>4.9</ele>
        <time>2018-09-16T17:10:04.000Z</time>
      </trkpt>
      <trkpt lat="46.72631" lon="-2.35158">
        <ele>4.9</ele>
        <time>2018-09-16T17:10:05.000Z</time>
      </trkpt>
      <trkpt lat="46.72631" lon="-2.35159">
        <ele>4.9</ele>
        <time>2018-09-16T17:10:06.000Z</time>
      </trkpt>
      <trkpt lat="46.72631" lon="-2.3516">
        <ele>5</ele>
        <time>2018-09-16T17:10:07.000Z</time>
      </trkpt>
      <trkpt lat="46.7263" lon="-2.35162">
        <ele>5</ele>
        <time>2018-09-16T17:10:08.000Z</time>
      </trkpt>
      <trkpt lat="46.7263" lon="-2.35163">
        <ele>5</ele>
        <time>2018-09-16T17:10:09.000Z</time>
      </trkpt>
      <trkpt lat="46.7263" lon="-2.35164">
        <ele>5</ele>
        <time>2018-09-16T17:10:10.000Z</time>
      </trkpt>
      <trkpt lat="46.7263" lon="-2.35165">
        <ele>5</ele>
        <time>2018-09-16T17:10:11.000Z</time>
      </trkpt>
      <trkpt lat="46.72631" lon="-2.35167">
        <ele>5</ele>
        <time>2018-09-16T17:10:12.000Z</time>
      </trkpt>
      <trkpt lat="46.72631" lon="-2.35168">
        <ele>5</ele>
        <time>2018-09-16T17:10:13.000Z</time>
      </trkpt>
      <trkpt lat="46.72631" lon="-2.3517">
        <ele>5</ele>
        <time>2018-09-16T17:10:14.000Z</time>
      </trkpt>
      <trkpt lat="46.72632" lon="-2.35171">
        <ele>5.1</ele>
        <time>2018-09-16T17:10:15.000Z</time>
      </trkpt>
      <trkpt lat="46.72632" lon="-2.35173">
        <ele>5.1</ele>
        <time>2018-09-16T17:10:16.000Z</time>
      </trkpt>
      <trkpt lat="46.72633" lon="-2.35175">
        <ele>5.1</ele>
        <time>2018-09-16T17:10:17.000Z</time>
      </trkpt>
      <trkpt lat="46.72634" lon="-2.35176">
        <ele>5.1</ele>
        <time>2018-09-16T17:10:18.000Z</time>
      </trkpt>
      <trkpt lat="46.72634" lon="-2.35178">
        <ele>5.1</ele>
        <time>2018-09-16T17:10:19.000Z</time>
      </trkpt>
      <trkpt lat="46.72635" lon="-2.3518">
        <ele>5.2</ele>
        <time>2018-09-16T17:10:20.000Z</time>
      </trkpt>
      <trkpt lat="46.72635" lon="-2.35182">
        <ele>5.2</ele>
        <time>2018-09-16T17:10:21.000Z</time>
      </trkpt>
      <trkpt lat="46.72635" lon="-2.35183">
        <ele>5.2</ele>
        <time>2018-09-16T17:10:22.000Z</time>
      </trkpt>
      <trkpt lat="46.72636" lon="-2.35185">
        <ele>5.2</ele>
        <time>2018-09-16T17:10:23.000Z</time>
      </trkpt>
      <trkpt lat="46.72636" lon="-2.35187">
        <ele>5.2</ele>
        <time>2018-09-16T17:10:24.000Z</time>
      </trkpt>
      <trkpt lat="46.72636" lon="-2.35189">
        <ele>5.3</ele>
        <time>2018-09-16T17:10:25.000Z</time>
      </trkpt>
      <trkpt lat="46.72636" lon="-2.3519">
        <ele>5.3</ele>
        <time>2018-09-16T17:10:26.000Z</time>
      </trkpt>
      <trkpt lat="46.72636" lon="-2.35192">
        <ele>5.3</ele>
        <time>2018-09-16T17:10:27.000Z</time>
      </trkpt>
      <trkpt lat="46.72635" lon="-2.35194">
        <ele>5.3</ele>
        <time>2018-09-16T17:10:28.000Z</time>
      </trkpt>
      <trkpt lat="46.72635" lon="-2.35195">
        <ele>5.3</ele>
        <time>2018-09-16T17:10:29.000Z</time>
      </trkpt>
      <trkpt lat="46.72635" lon="-2.35197">
        <ele>5.4</ele>
        <time>2018-09-16T17:10:30.000Z</time>
      </trkpt>
      <trkpt lat="46.72635" lon="-2.35198">
        <ele>5.4</ele>
        <time>2018-09-16T17:10:31.000Z</time>
      </trkpt>
      <trkpt lat="46.72635" lon="-2.352">
        <ele>5.4</ele>
        <time>2018-09-16T17:10:32.000Z</time>
      </trkpt>
      <trkpt lat="46.72634" lon="-2.35201">
        <ele>5.4</ele>
        <time>2018-09-16T17:10:33.000Z</time>
      </trkpt>
      <trkpt lat="46.72634" lon="-2.35203">
        <ele>5.4</ele>
        <time>2018-09-16T17:10:34.000Z</time>
      </trkpt>
      <trkpt lat="46.72634" lon="-2.35204">
        <ele>5.5</ele>
        <time>2018-09-16T17:10:35.000Z</time>
      </trkpt>
      <trkpt lat="46.72634" lon="-2.35206">
        <ele>5.5</ele>
        <time>2018-09-16T17:10:36.000Z</time>
      </trkpt>
      <trkpt lat="46.72634" lon="-2.35209">
        <ele>5.5</ele>
        <time>2018-09-16T17:10:37.000Z</time>
      </trkpt>
      <trkpt lat="46.72634" lon="-2.35212">
        <ele>5.5</ele>
        <time>2018-09-16T17:10:38.000Z</time>
      </trkpt>
      <trkpt lat="46.72634" lon="-2.35214">
        <ele>5.6</ele>
        <time>2018-09-16T17:10:39.000Z</time>
      </trkpt>
      <trkpt lat="46.72634" lon="-2.35216">
        <ele>5.6</ele>
        <time>2018-09-16T17:10:40.000Z</time>
      </trkpt>
      <trkpt lat="46.72634" lon="-2.35217">
        <ele>5.6</ele>
        <time>2018-09-16T17:10:41.000Z</time>
      </trkpt>
      <trkpt lat="46.72634" lon="-2.35218">
        <ele>5.6</ele>
        <time>2018-09-16T17:10:42.000Z</time>
      </trkpt>
      <trkpt lat="46.72633" lon="-2.35219">
        <ele>5.6</ele>
        <time>2018-09-16T17:10:43.000Z</time>
      </trkpt>
      <trkpt lat="46.72633" lon="-2.35221">
        <ele>5.6</ele>
        <time>2018-09-16T17:10:44.000Z</time>
      </trkpt>
      <trkpt lat="46.72633" lon="-2.35222">
        <ele>5.7</ele>
        <time>2018-09-16T17:10:45.000Z</time>
      </trkpt>
      <trkpt lat="46.72632" lon="-2.35223">
        <ele>5.7</ele>
        <time>2018-09-16T17:10:46.000Z</time>
      </trkpt>
      <trkpt lat="46.72632" lon="-2.35225">
        <ele>5.7</ele>
        <time>2018-09-16T17:10:47.000Z</time>
      </trkpt>
      <trkpt lat="46.72632" lon="-2.35226">
        <ele>5.7</ele>
        <time>2018-09-16T17:10:48.000Z</time>
      </trkpt>
      <trkpt lat="46.72631" lon="-2.35228">
        <ele>5.7</ele>
        <time>2018-09-16T17:10:49.000Z</time>
      </trkpt>
      <trkpt lat="46.72631" lon="-2.35229">
        <ele>5.7</ele>
        <time>2018-09-16T17:10:50.000Z</time>
      </trkpt>
      <trkpt lat="46.72631" lon="-2.3523">
        <ele>5.8</ele>
        <time>2018-09-16T17:10:51.000Z</time>
      </trkpt>
      <trkpt lat="46.72631" lon="-2.35231">
        <ele>5.8</ele>
        <time>2018-09-16T17:10:52.000Z</time>
      </trkpt>
      <trkpt lat="46.72632" lon="-2.35232">
        <ele>5.8</ele>
        <time>2018-09-16T17:10:53.000Z</time>
      </trkpt>
      <trkpt lat="46.72632" lon="-2.35233">
        <ele>5.8</ele>
        <time>2018-09-16T17:10:54.000Z</time>
      </trkpt>
      <trkpt lat="46.72632" lon="-2.35234">
        <ele>5.8</ele>
        <time>2018-09-16T17:10:55.000Z</time>
      </trkpt>
      <trkpt lat="46.72633" lon="-2.35235">
        <ele>5.8</ele>
        <time>2018-09-16T17:10:56.000Z</time>
      </trkpt>
      <trkpt lat="46.72633" lon="-2.35236">
        <ele>5.8</ele>
        <time>2018-09-16T17:10:57.000Z</time>
      </trkpt>
      <trkpt lat="46.72633" lon="-2.35237">
        <ele>5.8</ele>
        <time>2018-09-16T17:10:58.000Z</time>
      </trkpt>
      <trkpt lat="46.72633" lon="-2.35239">
        <ele>5.9</ele>
        <time>2018-09-16T17:10:59.000Z</time>
      </trkpt>
      <trkpt lat="46.72633" lon="-2.3524">
        <ele>5.9</ele>
        <time>2018-09-16T17:11:00.000Z</time>
      </trkpt>
      <trkpt lat="46.72633" lon="-2.35242">
        <ele>5.9</ele>
        <time>2018-09-16T17:11:01.000Z</time>
      </trkpt>
      <trkpt lat="46.72633" lon="-2.35243">
        <ele>5.9</ele>
        <time>2018-09-16T17:11:02.000Z</time>
      </trkpt>
      <trkpt lat="46.72633" lon="-2.35245">
        <ele>5.9</ele>
        <time>2018-09-16T17:11:03.000Z</time>
      </trkpt>
      <trkpt lat="46.72633" lon="-2.35246">
        <ele>6</ele>
        <time>2018-09-16T17:11:04.000Z</time>
      </trkpt>
      <trkpt lat="46.72632" lon="-2.35248">
        <ele>6</ele>
        <time>2018-09-16T17:11:05.000Z</time>
      </trkpt>
      <trkpt lat="46.72632" lon="-2.3525">
        <ele>6</ele>
        <time>2018-09-16T17:11:06.000Z</time>
      </trkpt>
      <trkpt lat="46.72632" lon="-2.35252">
        <ele>6</ele>
        <time>2018-09-16T17:11:07.000Z</time>
      </trkpt>
      <trkpt lat="46.72632" lon="-2.35254">
        <ele>6</ele>
        <time>2018-09-16T17:11:08.000Z</time>
      </trkpt>
      <trkpt lat="46.72632" lon="-2.35256">
        <ele>6</ele>
        <time>2018-09-16T17:11:09.000Z</time>
      </trkpt>
      <trkpt lat="46.72632" lon="-2.35258">
        <ele>6.1</ele>
        <time>2018-09-16T17:11:10.000Z</time>
      </trkpt>
      <trkpt lat="46.72632" lon="-2.35261">
        <ele>6.1</ele>
        <time>2018-09-16T17:11:11.000Z</time>
      </trkpt>
      <trkpt lat="46.72631" lon="-2.35263">
        <ele>6.1</ele>
        <time>2018-09-16T17:11:12.000Z</time>
      </trkpt>
      <trkpt lat="46.72631" lon="-2.35265">
        <ele>6.1</ele>
        <time>2018-09-16T17:11:13.000Z</time>
      </trkpt>
      <trkpt lat="46.72631" lon="-2.35267">
        <ele>6.1</ele>
        <time>2018-09-16T17:11:14.000Z</time>
      </trkpt>
      <trkpt lat="46.72631" lon="-2.35268">
        <ele>6.1</ele>
        <time>2018-09-16T17:11:15.000Z</time>
      </trkpt>
      <trkpt lat="46.72631" lon="-2.35269">
        <ele>6.1</ele>
        <time>2018-09-16T17:11:16.000Z</time>
      </trkpt>
      <trkpt lat="46.72631" lon="-2.3527">
        <ele>6.1</ele>
        <time>2018-09-16T17:11:17.000Z</time>
      </trkpt>
      <trkpt lat="46.7263" lon="-2.35273">
        <ele>6.2</ele>
        <time>2018-09-16T17:11:18.000Z</time>
      </trkpt>
      <trkpt lat="46.7263" lon="-2.35276">
        <ele>6.2</ele>
        <time>2018-09-16T17:11:19.000Z</time>
      </trkpt>
      <trkpt lat="46.7263" lon="-2.35278">
        <ele>6.2</ele>
        <time>2018-09-16T17:11:20.000Z</time>
      </trkpt>
      <trkpt lat="46.7263" lon="-2.3528">
        <ele>6.2</ele>
        <time>2018-09-16T17:11:21.000Z</time>
      </trkpt>
      <trkpt lat="46.7263" lon="-2.35282">
        <ele>6.2</ele>
        <time>2018-09-16T17:11:22.000Z</time>
      </trkpt>
      <trkpt lat="46.72629" lon="-2.35283">
        <ele>6.2</ele>
        <time>2018-09-16T17:11:23.000Z</time>
      </trkpt>
      <trkpt lat="46.72629" lon="-2.35284">
        <ele>6.2</ele>
        <time>2018-09-16T17:11:24.000Z</time>
      </trkpt>
      <trkpt lat="46.72629" lon="-2.35285">
        <ele>6.2</ele>
        <time>2018-09-16T17:11:25.000Z</time>
      </trkpt>
      <trkpt lat="46.72628" lon="-2.35287">
        <ele>6.2</ele>
        <time>2018-09-16T17:11:26.000Z</time>
      </trkpt>
      <trkpt lat="46.72628" lon="-2.35288">
        <ele>6.2</ele>
        <time>2018-09-16T17:11:27.000Z</time>
      </trkpt>
      <trkpt lat="46.72628" lon="-2.35289">
        <ele>6.3</ele>
        <time>2018-09-16T17:11:28.000Z</time>
      </trkpt>
      <trkpt lat="46.72627" lon="-2.35291">
        <ele>6.3</ele>
        <time>2018-09-16T17:11:29.000Z</time>
      </trkpt>
      <trkpt lat="46.72627" lon="-2.35293">
        <ele>6.3</ele>
        <time>2018-09-16T17:11:30.000Z</time>
      </trkpt>
      <trkpt lat="46.72627" lon="-2.35294">
        <ele>6.3</ele>
        <time>2018-09-16T17:11:31.000Z</time>
      </trkpt>
      <trkpt lat="46.72626" lon="-2.35296">
        <ele>6.3</ele>
        <time>2018-09-16T17:11:32.000Z</time>
      </trkpt>
      <trkpt lat="46.72626" lon="-2.35297">
        <ele>6.3</ele>
        <time>2018-09-16T17:11:33.000Z</time>
      </trkpt>
      <trkpt lat="46.72626" lon="-2.35299">
        <ele>6.3</ele>
        <time>2018-09-16T17:11:34.000Z</time>
      </trkpt>
      <trkpt lat="46.72625" lon="-2.353">
        <ele>6.3</ele>
        <time>2018-09-16T17:11:35.000Z</time>
      </trkpt>
      <trkpt lat="46.72625" lon="-2.35302">
        <ele>6.3</ele>
        <time>2018-09-16T17:11:36.000Z</time>
      </trkpt>
      <trkpt lat="46.72625" lon="-2.35304">
        <ele>6.3</ele>
        <time>2018-09-16T17:11:37.000Z</time>
      </trkpt>
      <trkpt lat="46.72624" lon="-2.35305">
        <ele>6.3</ele>
        <time>2018-09-16T17:11:38.000Z</time>
      </trkpt>
      <trkpt lat="46.72624" lon="-2.35307">
        <ele>6.3</ele>
        <time>2018-09-16T17:11:39.000Z</time>
      </trkpt>
      <trkpt lat="46.72623" lon="-2.35309">
        <ele>6.3</ele>
        <time>2018-09-16T17:11:40.000Z</time>
      </trkpt>
      <trkpt lat="46.72623" lon="-2.3531">
        <ele>6.3</ele>
        <time>2018-09-16T17:11:41.000Z</time>
      </trkpt>
      <trkpt lat="46.72623" lon="-2.35311">
        <ele>6.3</ele>
        <time>2018-09-16T17:11:42.000Z</time>
      </trkpt>
      <trkpt lat="46.72623" lon="-2.35312">
        <ele>6.4</ele>
        <time>2018-09-16T17:11:43.000Z</time>
      </trkpt>
      <trkpt lat="46.72623" lon="-2.35314">
        <ele>6.4</ele>
        <time>2018-09-16T17:11:44.000Z</time>
      </trkpt>
      <trkpt lat="46.72623" lon="-2.35315">
        <ele>6.4</ele>
        <time>2018-09-16T17:11:45.000Z</time>
      </trkpt>
      <trkpt lat="46.72623" lon="-2.35317">
        <ele>6.4</ele>
        <time>2018-09-16T17:11:46.000Z</time>
      </trkpt>
      <trkpt lat="46.72622" lon="-2.35319">
        <ele>6.4</ele>
        <time>2018-09-16T17:11:47.000Z</time>
      </trkpt>
      <trkpt lat="46.72622" lon="-2.3532">
        <ele>6.4</ele>
        <time>2018-09-16T17:11:48.000Z</time>
      </trkpt>
      <trkpt lat="46.72621" lon="-2.35321">
        <ele>6.4</ele>
        <time>2018-09-16T17:11:49.000Z</time>
      </trkpt>
      <trkpt lat="46.72621" lon="-2.35322">
        <ele>6.4</ele>
        <time>2018-09-16T17:11:50.000Z</time>
      </trkpt>
      <trkpt lat="46.72621" lon="-2.35323">
        <ele>6.4</ele>
        <time>2018-09-16T17:11:51.000Z</time>
      </trkpt>
      <trkpt lat="46.72621" lon="-2.35324">
        <ele>6.4</ele>
        <time>2018-09-16T17:11:52.000Z</time>
      </trkpt>
      <trkpt lat="46.72621" lon="-2.35326">
        <ele>6.4</ele>
        <time>2018-09-16T17:11:53.000Z</time>
      </trkpt>
      <trkpt lat="46.72621" lon="-2.35328">
        <ele>6.4</ele>
        <time>2018-09-16T17:11:54.000Z</time>
      </trkpt>
      <trkpt lat="46.72621" lon="-2.35331">
        <ele>6.4</ele>
        <time>2018-09-16T17:11:55.000Z</time>
      </trkpt>
      <trkpt lat="46.72621" lon="-2.35334">
        <ele>6.5</ele>
        <time>2018-09-16T17:11:56.000Z</time>
      </trkpt>
      <trkpt lat="46.72621" lon="-2.35336">
        <ele>6.5</ele>
        <time>2018-09-16T17:11:57.000Z</time>
      </trkpt>
      <trkpt lat="46.72621" lon="-2.35339">
        <ele>6.5</ele>
        <time>2018-09-16T17:11:58.000Z</time>
      </trkpt>
      <trkpt lat="46.72621" lon="-2.35341">
        <ele>6.5</ele>
        <time>2018-09-16T17:11:59.000Z</time>
      </trkpt>
      <trkpt lat="46.72621" lon="-2.35343">
        <ele>6.5</ele>
        <time>2018-09-16T17:12:00.000Z</time>
      </trkpt>
      <trkpt lat="46.72621" lon="-2.35345">
        <ele>6.5</ele>
        <time>2018-09-16T17:12:01.000Z</time>
      </trkpt>
      <trkpt lat="46.72621" lon="-2.35347">
        <ele>6.5</ele>
        <time>2018-09-16T17:12:02.000Z</time>
      </trkpt>
      <trkpt lat="46.72621" lon="-2.35348">
        <ele>6.5</ele>
        <time>2018-09-16T17:12:03.000Z</time>
      </trkpt>
      <trkpt lat="46.72621" lon="-2.35349">
        <ele>6.5</ele>
        <time>2018-09-16T17:12:04.000Z</time>
      </trkpt>
      <trkpt lat="46.7262" lon="-2.3535">
        <ele>6.5</ele>
        <time>2018-09-16T17:12:05.000Z</time>
      </trkpt>
      <trkpt lat="46.7262" lon="-2.35352">
        <ele>6.5</ele>
        <time>2018-09-16T17:12:06.000Z</time>
      </trkpt>
      <trkpt lat="46.7262" lon="-2.35353">
        <ele>6.5</ele>
        <time>2018-09-16T17:12:07.000Z</time>
      </trkpt>
      <trkpt lat="46.7262" lon="-2.35354">
        <ele>6.5</ele>
        <time>2018-09-16T17:12:08.000Z</time>
      </trkpt>
      <trkpt lat="46.72619" lon="-2.35355">
        <ele>6.5</ele>
        <time>2018-09-16T17:12:09.000Z</time>
      </trkpt>
      <trkpt lat="46.72619" lon="-2.35357">
        <ele>6.5</ele>
        <time>2018-09-16T17:12:10.000Z</time>
      </trkpt>
      <trkpt lat="46.72619" lon="-2.35359">
        <ele>6.5</ele>
        <time>2018-09-16T17:12:11.000Z</time>
      </trkpt>
      <trkpt lat="46.72619" lon="-2.35361">
        <ele>6.5</ele>
        <time>2018-09-16T17:12:12.000Z</time>
      </trkpt>
      <trkpt lat="46.72619" lon="-2.35364">
        <ele>6.5</ele>
        <time>2018-09-16T17:12:13.000Z</time>
      </trkpt>
      <trkpt lat="46.72619" lon="-2.35367">
        <ele>6.5</ele>
        <time>2018-09-16T17:12:14.000Z</time>
      </trkpt>
      <trkpt lat="46.72619" lon="-2.35369">
        <ele>6.5</ele>
        <time>2018-09-16T17:12:15.000Z</time>
      </trkpt>
      <trkpt lat="46.72619" lon="-2.3537">
        <ele>6.5</ele>
        <time>2018-09-16T17:12:16.000Z</time>
      </trkpt>
      <trkpt lat="46.72619" lon="-2.35371">
        <ele>6.5</ele>
        <time>2018-09-16T17:12:17.000Z</time>
      </trkpt>
      <trkpt lat="46.72619" lon="-2.35372">
        <ele>6.5</ele>
        <time>2018-09-16T17:12:18.000Z</time>
      </trkpt>
      <trkpt lat="46.72619" lon="-2.35374">
        <ele>6.5</ele>
        <time>2018-09-16T17:12:19.000Z</time>
      </trkpt>
      <trkpt lat="46.72619" lon="-2.35375">
        <ele>6.5</ele>
        <time>2018-09-16T17:12:20.000Z</time>
      </trkpt>
      <trkpt lat="46.72619" lon="-2.35377">
        <ele>6.5</ele>
        <time>2018-09-16T17:12:21.000Z</time>
      </trkpt>
      <trkpt lat="46.7262" lon="-2.35378">
        <ele>6.5</ele>
        <time>2018-09-16T17:12:22.000Z</time>
      </trkpt>
      <trkpt lat="46.7262" lon="-2.3538">
        <ele>6.5</ele>
        <time>2018-09-16T17:12:23.000Z</time>
      </trkpt>
      <trkpt lat="46.7262" lon="-2.35382">
        <ele>6.5</ele>
        <time>2018-09-16T17:12:24.000Z</time>
      </trkpt>
      <trkpt lat="46.7262" lon="-2.35383">
        <ele>6.5</ele>
        <time>2018-09-16T17:12:25.000Z</time>
      </trkpt>
      <trkpt lat="46.7262" lon="-2.35385">
        <ele>6.5</ele>
        <time>2018-09-16T17:12:26.000Z</time>
      </trkpt>
      <trkpt lat="46.72621" lon="-2.35387">
        <ele>6.5</ele>
        <time>2018-09-16T17:12:27.000Z</time>
      </trkpt>
      <trkpt lat="46.72621" lon="-2.35389">
        <ele>6.5</ele>
        <time>2018-09-16T17:12:28.000Z</time>
      </trkpt>
      <trkpt lat="46.72621" lon="-2.35391">
        <ele>6.5</ele>
        <time>2018-09-16T17:12:29.000Z</time>
      </trkpt>
      <trkpt lat="46.72621" lon="-2.35392">
        <ele>6.5</ele>
        <time>2018-09-16T17:12:30.000Z</time>
      </trkpt>
      <trkpt lat="46.72621" lon="-2.35394">
        <ele>6.5</ele>
        <time>2018-09-16T17:12:31.000Z</time>
      </trkpt>
      <trkpt lat="46.72621" lon="-2.35396">
        <ele>6.5</ele>
        <time>2018-09-16T17:12:32.000Z</time>
      </trkpt>
      <trkpt lat="46.72621" lon="-2.35397">
        <ele>6.5</ele>
        <time>2018-09-16T17:12:33.000Z</time>
      </trkpt>
      <trkpt lat="46.72621" lon="-2.35398">
        <ele>6.5</ele>
        <time>2018-09-16T17:12:34.000Z</time>
      </trkpt>
      <trkpt lat="46.72621" lon="-2.354">
        <ele>6.5</ele>
        <time>2018-09-16T17:12:35.000Z</time>
      </trkpt>
    </trkseg>
  </trk>
</gpx>